<?xml version="1.0" encoding="UTF-8" standalone="no" ?>
<gpx xmlns="http://www.topografix.com/GPX/1/1" xmlns:xsi="http://www.w3.org/2001/XMLSchema-instance" xsi:schemaLocation="http://www.topografix.com/GPX/1/1 http://www.topografix.com/GPX/1/1/gpx.xsd" version="1.1" creator="VisuGPX - https://www.visugpx.com">
  <metadata>
    <name>La Montleyderienne 2022</name>
  </metadata>
  <trk>
    <name><![CDATA[La Montleyderienne 2022_1]]></name>
    <trkseg>
      <trkpt lat="44.85124" lon="0.61142">
        <ele>31.5</ele>
        <time>2022-07-10T06:23:53Z</time>
      </trkpt>
      <trkpt lat="44.85124" lon="0.61138">
        <ele>31.5</ele>
        <time>2022-07-10T06:23:54Z</time>
      </trkpt>
      <trkpt lat="44.85124" lon="0.61133">
        <ele>31.5</ele>
        <time>2022-07-10T06:23:55Z</time>
      </trkpt>
      <trkpt lat="44.85122" lon="0.61124">
        <ele>31.5</ele>
        <time>2022-07-10T06:23:57Z</time>
      </trkpt>
      <trkpt lat="44.85117" lon="0.61117">
        <ele>31.5</ele>
        <time>2022-07-10T06:23:59Z</time>
      </trkpt>
      <trkpt lat="44.85113" lon="0.61114">
        <ele>31.4</ele>
        <time>2022-07-10T06:24:00Z</time>
      </trkpt>
      <trkpt lat="44.85109" lon="0.61114">
        <ele>31.4</ele>
        <time>2022-07-10T06:24:01Z</time>
      </trkpt>
      <trkpt lat="44.85104" lon="0.61116">
        <ele>31.4</ele>
        <time>2022-07-10T06:24:02Z</time>
      </trkpt>
      <trkpt lat="44.851" lon="0.61119">
        <ele>31.4</ele>
        <time>2022-07-10T06:24:03Z</time>
      </trkpt>
      <trkpt lat="44.85094" lon="0.6112">
        <ele>31.4</ele>
        <time>2022-07-10T06:24:05Z</time>
      </trkpt>
      <trkpt lat="44.85091" lon="0.61111">
        <ele>31.4</ele>
        <time>2022-07-10T06:24:07Z</time>
      </trkpt>
      <trkpt lat="44.85092" lon="0.61104">
        <ele>31.4</ele>
        <time>2022-07-10T06:24:08Z</time>
      </trkpt>
      <trkpt lat="44.85092" lon="0.61097">
        <ele>31.4</ele>
        <time>2022-07-10T06:24:09Z</time>
      </trkpt>
      <trkpt lat="44.8509" lon="0.61085">
        <ele>31.4</ele>
        <time>2022-07-10T06:24:11Z</time>
      </trkpt>
      <trkpt lat="44.8509" lon="0.61079">
        <ele>31.4</ele>
        <time>2022-07-10T06:24:12Z</time>
      </trkpt>
      <trkpt lat="44.8509" lon="0.61072">
        <ele>31.4</ele>
        <time>2022-07-10T06:24:13Z</time>
      </trkpt>
      <trkpt lat="44.85092" lon="0.6106">
        <ele>31.4</ele>
        <time>2022-07-10T06:24:15Z</time>
      </trkpt>
      <trkpt lat="44.85096" lon="0.61048">
        <ele>31.4</ele>
        <time>2022-07-10T06:24:17Z</time>
      </trkpt>
      <trkpt lat="44.85098" lon="0.61041">
        <ele>31.4</ele>
        <time>2022-07-10T06:24:18Z</time>
      </trkpt>
      <trkpt lat="44.85088" lon="0.61035">
        <ele>31.5</ele>
        <time>2022-07-10T06:24:19Z</time>
      </trkpt>
      <trkpt lat="44.85092" lon="0.61022">
        <ele>31.5</ele>
        <time>2022-07-10T06:24:21Z</time>
      </trkpt>
      <trkpt lat="44.85097" lon="0.6101">
        <ele>31.6</ele>
        <time>2022-07-10T06:24:23Z</time>
      </trkpt>
      <trkpt lat="44.85101" lon="0.60998">
        <ele>31.7</ele>
        <time>2022-07-10T06:24:25Z</time>
      </trkpt>
      <trkpt lat="44.85105" lon="0.60986">
        <ele>31.8</ele>
        <time>2022-07-10T06:24:27Z</time>
      </trkpt>
      <trkpt lat="44.8511" lon="0.60974">
        <ele>31.9</ele>
        <time>2022-07-10T06:24:29Z</time>
      </trkpt>
      <trkpt lat="44.85114" lon="0.60962">
        <ele>32</ele>
        <time>2022-07-10T06:24:31Z</time>
      </trkpt>
      <trkpt lat="44.85118" lon="0.60949">
        <ele>32</ele>
        <time>2022-07-10T06:24:33Z</time>
      </trkpt>
      <trkpt lat="44.85122" lon="0.60936">
        <ele>32.1</ele>
        <time>2022-07-10T06:24:35Z</time>
      </trkpt>
      <trkpt lat="44.85124" lon="0.6093">
        <ele>32.1</ele>
        <time>2022-07-10T06:24:36Z</time>
      </trkpt>
      <trkpt lat="44.85126" lon="0.60924">
        <ele>32.2</ele>
        <time>2022-07-10T06:24:37Z</time>
      </trkpt>
      <trkpt lat="44.8513" lon="0.60911">
        <ele>32.2</ele>
        <time>2022-07-10T06:24:39Z</time>
      </trkpt>
      <trkpt lat="44.85134" lon="0.60898">
        <ele>32.2</ele>
        <time>2022-07-10T06:24:41Z</time>
      </trkpt>
      <trkpt lat="44.85139" lon="0.60885">
        <ele>32.1</ele>
        <time>2022-07-10T06:24:43Z</time>
      </trkpt>
      <trkpt lat="44.85143" lon="0.60872">
        <ele>32</ele>
        <time>2022-07-10T06:24:45Z</time>
      </trkpt>
      <trkpt lat="44.85147" lon="0.6086">
        <ele>31.9</ele>
        <time>2022-07-10T06:24:47Z</time>
      </trkpt>
      <trkpt lat="44.85151" lon="0.60847">
        <ele>31.8</ele>
        <time>2022-07-10T06:24:49Z</time>
      </trkpt>
      <trkpt lat="44.85153" lon="0.60841">
        <ele>31.7</ele>
        <time>2022-07-10T06:24:50Z</time>
      </trkpt>
      <trkpt lat="44.85155" lon="0.60835">
        <ele>31.6</ele>
        <time>2022-07-10T06:24:51Z</time>
      </trkpt>
      <trkpt lat="44.85159" lon="0.60821">
        <ele>31.5</ele>
        <time>2022-07-10T06:24:53Z</time>
      </trkpt>
      <trkpt lat="44.85162" lon="0.60813">
        <ele>31.4</ele>
        <time>2022-07-10T06:24:54Z</time>
      </trkpt>
      <trkpt lat="44.85164" lon="0.60806">
        <ele>31.3</ele>
        <time>2022-07-10T06:24:55Z</time>
      </trkpt>
      <trkpt lat="44.85169" lon="0.60793">
        <ele>31.1</ele>
        <time>2022-07-10T06:24:57Z</time>
      </trkpt>
      <trkpt lat="44.85176" lon="0.6078">
        <ele>30.9</ele>
        <time>2022-07-10T06:24:59Z</time>
      </trkpt>
      <trkpt lat="44.85183" lon="0.60767">
        <ele>30.7</ele>
        <time>2022-07-10T06:25:01Z</time>
      </trkpt>
      <trkpt lat="44.8519" lon="0.60753">
        <ele>30.5</ele>
        <time>2022-07-10T06:25:03Z</time>
      </trkpt>
      <trkpt lat="44.85195" lon="0.60741">
        <ele>30.3</ele>
        <time>2022-07-10T06:25:05Z</time>
      </trkpt>
      <trkpt lat="44.85198" lon="0.60726">
        <ele>30.1</ele>
        <time>2022-07-10T06:25:07Z</time>
      </trkpt>
      <trkpt lat="44.85199" lon="0.60719">
        <ele>30.1</ele>
        <time>2022-07-10T06:25:08Z</time>
      </trkpt>
      <trkpt lat="44.85201" lon="0.60713">
        <ele>30.1</ele>
        <time>2022-07-10T06:25:09Z</time>
      </trkpt>
      <trkpt lat="44.85203" lon="0.60699">
        <ele>30.1</ele>
        <time>2022-07-10T06:25:11Z</time>
      </trkpt>
      <trkpt lat="44.85206" lon="0.60685">
        <ele>30.1</ele>
        <time>2022-07-10T06:25:13Z</time>
      </trkpt>
      <trkpt lat="44.85209" lon="0.60671">
        <ele>30.1</ele>
        <time>2022-07-10T06:25:15Z</time>
      </trkpt>
      <trkpt lat="44.85213" lon="0.60657">
        <ele>30.1</ele>
        <time>2022-07-10T06:25:17Z</time>
      </trkpt>
      <trkpt lat="44.85217" lon="0.60645">
        <ele>30.1</ele>
        <time>2022-07-10T06:25:19Z</time>
      </trkpt>
      <trkpt lat="44.8522" lon="0.60633">
        <ele>30.2</ele>
        <time>2022-07-10T06:25:21Z</time>
      </trkpt>
      <trkpt lat="44.85224" lon="0.6062">
        <ele>30.2</ele>
        <time>2022-07-10T06:25:23Z</time>
      </trkpt>
      <trkpt lat="44.85227" lon="0.60614">
        <ele>30.3</ele>
        <time>2022-07-10T06:25:24Z</time>
      </trkpt>
      <trkpt lat="44.85229" lon="0.60608">
        <ele>30.3</ele>
        <time>2022-07-10T06:25:25Z</time>
      </trkpt>
      <trkpt lat="44.85234" lon="0.60595">
        <ele>30.3</ele>
        <time>2022-07-10T06:25:27Z</time>
      </trkpt>
      <trkpt lat="44.85238" lon="0.60581">
        <ele>30.3</ele>
        <time>2022-07-10T06:25:29Z</time>
      </trkpt>
      <trkpt lat="44.85243" lon="0.60568">
        <ele>30.4</ele>
        <time>2022-07-10T06:25:31Z</time>
      </trkpt>
      <trkpt lat="44.85248" lon="0.60555">
        <ele>30.4</ele>
        <time>2022-07-10T06:25:33Z</time>
      </trkpt>
      <trkpt lat="44.85253" lon="0.60542">
        <ele>30.5</ele>
        <time>2022-07-10T06:25:35Z</time>
      </trkpt>
      <trkpt lat="44.85257" lon="0.6053">
        <ele>30.5</ele>
        <time>2022-07-10T06:25:37Z</time>
      </trkpt>
      <trkpt lat="44.85262" lon="0.60517">
        <ele>30.6</ele>
        <time>2022-07-10T06:25:39Z</time>
      </trkpt>
      <trkpt lat="44.85266" lon="0.60504">
        <ele>30.6</ele>
        <time>2022-07-10T06:25:41Z</time>
      </trkpt>
      <trkpt lat="44.85271" lon="0.60492">
        <ele>30.6</ele>
        <time>2022-07-10T06:25:43Z</time>
      </trkpt>
      <trkpt lat="44.85275" lon="0.60479">
        <ele>30.6</ele>
        <time>2022-07-10T06:25:45Z</time>
      </trkpt>
      <trkpt lat="44.8528" lon="0.60466">
        <ele>30.5</ele>
        <time>2022-07-10T06:25:47Z</time>
      </trkpt>
      <trkpt lat="44.85285" lon="0.60451">
        <ele>30.4</ele>
        <time>2022-07-10T06:25:49Z</time>
      </trkpt>
      <trkpt lat="44.8529" lon="0.60437">
        <ele>30.3</ele>
        <time>2022-07-10T06:25:51Z</time>
      </trkpt>
      <trkpt lat="44.85296" lon="0.60423">
        <ele>30.1</ele>
        <time>2022-07-10T06:25:53Z</time>
      </trkpt>
      <trkpt lat="44.85301" lon="0.60409">
        <ele>30</ele>
        <time>2022-07-10T06:25:55Z</time>
      </trkpt>
      <trkpt lat="44.85305" lon="0.60396">
        <ele>29.9</ele>
        <time>2022-07-10T06:25:57Z</time>
      </trkpt>
      <trkpt lat="44.8531" lon="0.60383">
        <ele>29.7</ele>
        <time>2022-07-10T06:25:59Z</time>
      </trkpt>
      <trkpt lat="44.85315" lon="0.60369">
        <ele>29.5</ele>
        <time>2022-07-10T06:26:01Z</time>
      </trkpt>
      <trkpt lat="44.8532" lon="0.60355">
        <ele>29.3</ele>
        <time>2022-07-10T06:26:03Z</time>
      </trkpt>
      <trkpt lat="44.85325" lon="0.6034">
        <ele>29.1</ele>
        <time>2022-07-10T06:26:05Z</time>
      </trkpt>
      <trkpt lat="44.85331" lon="0.60325">
        <ele>28.8</ele>
        <time>2022-07-10T06:26:07Z</time>
      </trkpt>
      <trkpt lat="44.85334" lon="0.60316">
        <ele>28.6</ele>
        <time>2022-07-10T06:26:08Z</time>
      </trkpt>
      <trkpt lat="44.85337" lon="0.60308">
        <ele>28.5</ele>
        <time>2022-07-10T06:26:09Z</time>
      </trkpt>
      <trkpt lat="44.8534" lon="0.603">
        <ele>28.4</ele>
        <time>2022-07-10T06:26:10Z</time>
      </trkpt>
      <trkpt lat="44.85343" lon="0.60292">
        <ele>28.3</ele>
        <time>2022-07-10T06:26:11Z</time>
      </trkpt>
      <trkpt lat="44.85348" lon="0.60279">
        <ele>28.2</ele>
        <time>2022-07-10T06:26:13Z</time>
      </trkpt>
      <trkpt lat="44.8535" lon="0.60274">
        <ele>28.2</ele>
        <time>2022-07-10T06:26:14Z</time>
      </trkpt>
      <trkpt lat="44.85353" lon="0.60268">
        <ele>28.2</ele>
        <time>2022-07-10T06:26:15Z</time>
      </trkpt>
      <trkpt lat="44.85357" lon="0.60257">
        <ele>28.2</ele>
        <time>2022-07-10T06:26:17Z</time>
      </trkpt>
      <trkpt lat="44.85361" lon="0.60245">
        <ele>28.2</ele>
        <time>2022-07-10T06:26:19Z</time>
      </trkpt>
      <trkpt lat="44.85365" lon="0.60233">
        <ele>28.2</ele>
        <time>2022-07-10T06:26:21Z</time>
      </trkpt>
      <trkpt lat="44.85367" lon="0.60227">
        <ele>28.2</ele>
        <time>2022-07-10T06:26:22Z</time>
      </trkpt>
      <trkpt lat="44.85369" lon="0.6022">
        <ele>28.1</ele>
        <time>2022-07-10T06:26:23Z</time>
      </trkpt>
      <trkpt lat="44.85375" lon="0.60204">
        <ele>28</ele>
        <time>2022-07-10T06:26:25Z</time>
      </trkpt>
      <trkpt lat="44.85377" lon="0.60195">
        <ele>27.9</ele>
        <time>2022-07-10T06:26:26Z</time>
      </trkpt>
      <trkpt lat="44.85379" lon="0.60187">
        <ele>27.7</ele>
        <time>2022-07-10T06:26:27Z</time>
      </trkpt>
      <trkpt lat="44.85381" lon="0.60171">
        <ele>27.6</ele>
        <time>2022-07-10T06:26:29Z</time>
      </trkpt>
      <trkpt lat="44.85382" lon="0.60164">
        <ele>27.6</ele>
        <time>2022-07-10T06:26:30Z</time>
      </trkpt>
      <trkpt lat="44.85383" lon="0.60156">
        <ele>27.5</ele>
        <time>2022-07-10T06:26:31Z</time>
      </trkpt>
      <trkpt lat="44.85384" lon="0.60148">
        <ele>27.5</ele>
        <time>2022-07-10T06:26:32Z</time>
      </trkpt>
      <trkpt lat="44.85385" lon="0.60141">
        <ele>27.4</ele>
        <time>2022-07-10T06:26:33Z</time>
      </trkpt>
      <trkpt lat="44.85386" lon="0.60127">
        <ele>27.4</ele>
        <time>2022-07-10T06:26:35Z</time>
      </trkpt>
      <trkpt lat="44.85387" lon="0.60119">
        <ele>27.4</ele>
        <time>2022-07-10T06:26:36Z</time>
      </trkpt>
      <trkpt lat="44.85389" lon="0.60113">
        <ele>27.3</ele>
        <time>2022-07-10T06:26:37Z</time>
      </trkpt>
      <trkpt lat="44.85392" lon="0.60099">
        <ele>27.3</ele>
        <time>2022-07-10T06:26:39Z</time>
      </trkpt>
      <trkpt lat="44.85393" lon="0.60092">
        <ele>27.2</ele>
        <time>2022-07-10T06:26:40Z</time>
      </trkpt>
      <trkpt lat="44.85395" lon="0.60086">
        <ele>27.2</ele>
        <time>2022-07-10T06:26:41Z</time>
      </trkpt>
      <trkpt lat="44.85398" lon="0.60072">
        <ele>27.2</ele>
        <time>2022-07-10T06:26:43Z</time>
      </trkpt>
      <trkpt lat="44.85399" lon="0.60065">
        <ele>27.2</ele>
        <time>2022-07-10T06:26:44Z</time>
      </trkpt>
      <trkpt lat="44.85401" lon="0.60057">
        <ele>27.1</ele>
        <time>2022-07-10T06:26:45Z</time>
      </trkpt>
      <trkpt lat="44.85404" lon="0.60043">
        <ele>27.1</ele>
        <time>2022-07-10T06:26:47Z</time>
      </trkpt>
      <trkpt lat="44.85408" lon="0.60028">
        <ele>27.1</ele>
        <time>2022-07-10T06:26:49Z</time>
      </trkpt>
      <trkpt lat="44.85411" lon="0.60013">
        <ele>27</ele>
        <time>2022-07-10T06:26:51Z</time>
      </trkpt>
      <trkpt lat="44.85414" lon="0.59998">
        <ele>27</ele>
        <time>2022-07-10T06:26:53Z</time>
      </trkpt>
      <trkpt lat="44.85416" lon="0.59985">
        <ele>26.9</ele>
        <time>2022-07-10T06:26:55Z</time>
      </trkpt>
      <trkpt lat="44.85418" lon="0.59976">
        <ele>26.9</ele>
        <time>2022-07-10T06:26:57Z</time>
      </trkpt>
      <trkpt lat="44.8542" lon="0.59966">
        <ele>26.9</ele>
        <time>2022-07-10T06:26:59Z</time>
      </trkpt>
      <trkpt lat="44.85422" lon="0.59954">
        <ele>26.9</ele>
        <time>2022-07-10T06:27:01Z</time>
      </trkpt>
      <trkpt lat="44.85424" lon="0.59943">
        <ele>26.9</ele>
        <time>2022-07-10T06:27:03Z</time>
      </trkpt>
      <trkpt lat="44.85425" lon="0.59935">
        <ele>26.9</ele>
        <time>2022-07-10T06:27:05Z</time>
      </trkpt>
      <trkpt lat="44.85426" lon="0.59932">
        <ele>26.9</ele>
        <time>2022-07-10T06:27:07Z</time>
      </trkpt>
      <trkpt lat="44.85427" lon="0.59927">
        <ele>26.9</ele>
        <time>2022-07-10T06:27:09Z</time>
      </trkpt>
      <trkpt lat="44.85427" lon="0.59924">
        <ele>26.9</ele>
        <time>2022-07-10T06:27:10Z</time>
      </trkpt>
      <trkpt lat="44.85428" lon="0.59921">
        <ele>26.9</ele>
        <time>2022-07-10T06:27:11Z</time>
      </trkpt>
      <trkpt lat="44.8543" lon="0.59912">
        <ele>26.9</ele>
        <time>2022-07-10T06:27:13Z</time>
      </trkpt>
      <trkpt lat="44.85431" lon="0.59902">
        <ele>26.9</ele>
        <time>2022-07-10T06:27:15Z</time>
      </trkpt>
      <trkpt lat="44.85432" lon="0.59891">
        <ele>26.9</ele>
        <time>2022-07-10T06:27:17Z</time>
      </trkpt>
      <trkpt lat="44.85432" lon="0.59879">
        <ele>26.8</ele>
        <time>2022-07-10T06:27:19Z</time>
      </trkpt>
      <trkpt lat="44.85432" lon="0.59868">
        <ele>26.8</ele>
        <time>2022-07-10T06:27:21Z</time>
      </trkpt>
      <trkpt lat="44.85432" lon="0.59855">
        <ele>26.8</ele>
        <time>2022-07-10T06:27:23Z</time>
      </trkpt>
      <trkpt lat="44.85432" lon="0.5984">
        <ele>26.7</ele>
        <time>2022-07-10T06:27:25Z</time>
      </trkpt>
      <trkpt lat="44.85432" lon="0.59826">
        <ele>26.6</ele>
        <time>2022-07-10T06:27:27Z</time>
      </trkpt>
      <trkpt lat="44.85432" lon="0.59819">
        <ele>26.6</ele>
        <time>2022-07-10T06:27:28Z</time>
      </trkpt>
      <trkpt lat="44.85432" lon="0.59812">
        <ele>26.6</ele>
        <time>2022-07-10T06:27:29Z</time>
      </trkpt>
      <trkpt lat="44.85432" lon="0.59805">
        <ele>26.5</ele>
        <time>2022-07-10T06:27:30Z</time>
      </trkpt>
      <trkpt lat="44.85432" lon="0.59798">
        <ele>26.5</ele>
        <time>2022-07-10T06:27:31Z</time>
      </trkpt>
      <trkpt lat="44.85432" lon="0.5979">
        <ele>26.5</ele>
        <time>2022-07-10T06:27:32Z</time>
      </trkpt>
      <trkpt lat="44.85432" lon="0.59783">
        <ele>26.4</ele>
        <time>2022-07-10T06:27:33Z</time>
      </trkpt>
      <trkpt lat="44.85432" lon="0.59769">
        <ele>26.4</ele>
        <time>2022-07-10T06:27:35Z</time>
      </trkpt>
      <trkpt lat="44.85432" lon="0.59754">
        <ele>26.4</ele>
        <time>2022-07-10T06:27:37Z</time>
      </trkpt>
      <trkpt lat="44.85432" lon="0.59747">
        <ele>26.4</ele>
        <time>2022-07-10T06:27:38Z</time>
      </trkpt>
      <trkpt lat="44.85432" lon="0.5974">
        <ele>26.4</ele>
        <time>2022-07-10T06:27:39Z</time>
      </trkpt>
      <trkpt lat="44.85431" lon="0.59732">
        <ele>26.4</ele>
        <time>2022-07-10T06:27:40Z</time>
      </trkpt>
      <trkpt lat="44.85431" lon="0.59725">
        <ele>26.4</ele>
        <time>2022-07-10T06:27:41Z</time>
      </trkpt>
      <trkpt lat="44.8543" lon="0.59718">
        <ele>26.5</ele>
        <time>2022-07-10T06:27:42Z</time>
      </trkpt>
      <trkpt lat="44.8543" lon="0.59711">
        <ele>26.6</ele>
        <time>2022-07-10T06:27:43Z</time>
      </trkpt>
      <trkpt lat="44.8543" lon="0.59696">
        <ele>26.8</ele>
        <time>2022-07-10T06:27:45Z</time>
      </trkpt>
      <trkpt lat="44.8543" lon="0.59681">
        <ele>27.1</ele>
        <time>2022-07-10T06:27:47Z</time>
      </trkpt>
      <trkpt lat="44.8543" lon="0.59666">
        <ele>27.3</ele>
        <time>2022-07-10T06:27:49Z</time>
      </trkpt>
      <trkpt lat="44.8543" lon="0.59659">
        <ele>27.4</ele>
        <time>2022-07-10T06:27:50Z</time>
      </trkpt>
      <trkpt lat="44.85431" lon="0.59652">
        <ele>27.5</ele>
        <time>2022-07-10T06:27:51Z</time>
      </trkpt>
      <trkpt lat="44.85431" lon="0.59639">
        <ele>27.7</ele>
        <time>2022-07-10T06:27:53Z</time>
      </trkpt>
      <trkpt lat="44.85431" lon="0.59626">
        <ele>27.8</ele>
        <time>2022-07-10T06:27:55Z</time>
      </trkpt>
      <trkpt lat="44.85432" lon="0.59611">
        <ele>27.8</ele>
        <time>2022-07-10T06:27:57Z</time>
      </trkpt>
      <trkpt lat="44.85432" lon="0.59603">
        <ele>27.8</ele>
        <time>2022-07-10T06:27:58Z</time>
      </trkpt>
      <trkpt lat="44.85432" lon="0.59595">
        <ele>27.8</ele>
        <time>2022-07-10T06:27:59Z</time>
      </trkpt>
      <trkpt lat="44.85432" lon="0.59579">
        <ele>27.8</ele>
        <time>2022-07-10T06:28:01Z</time>
      </trkpt>
      <trkpt lat="44.8543" lon="0.59564">
        <ele>27.7</ele>
        <time>2022-07-10T06:28:03Z</time>
      </trkpt>
      <trkpt lat="44.85429" lon="0.59549">
        <ele>27.5</ele>
        <time>2022-07-10T06:28:05Z</time>
      </trkpt>
      <trkpt lat="44.85427" lon="0.59534">
        <ele>27</ele>
        <time>2022-07-10T06:28:07Z</time>
      </trkpt>
      <trkpt lat="44.85425" lon="0.59514">
        <ele>26.4</ele>
        <time>2022-07-10T06:28:09Z</time>
      </trkpt>
      <trkpt lat="44.85424" lon="0.59494">
        <ele>25.9</ele>
        <time>2022-07-10T06:28:11Z</time>
      </trkpt>
      <trkpt lat="44.85422" lon="0.59474">
        <ele>25.8</ele>
        <time>2022-07-10T06:28:13Z</time>
      </trkpt>
      <trkpt lat="44.85422" lon="0.59465">
        <ele>25.8</ele>
        <time>2022-07-10T06:28:14Z</time>
      </trkpt>
      <trkpt lat="44.85422" lon="0.59456">
        <ele>25.9</ele>
        <time>2022-07-10T06:28:15Z</time>
      </trkpt>
      <trkpt lat="44.85421" lon="0.59447">
        <ele>25.9</ele>
        <time>2022-07-10T06:28:16Z</time>
      </trkpt>
      <trkpt lat="44.8542" lon="0.59438">
        <ele>26</ele>
        <time>2022-07-10T06:28:17Z</time>
      </trkpt>
      <trkpt lat="44.85419" lon="0.59422">
        <ele>25.9</ele>
        <time>2022-07-10T06:28:19Z</time>
      </trkpt>
      <trkpt lat="44.85417" lon="0.59408">
        <ele>25.8</ele>
        <time>2022-07-10T06:28:21Z</time>
      </trkpt>
      <trkpt lat="44.85415" lon="0.59393">
        <ele>25.7</ele>
        <time>2022-07-10T06:28:23Z</time>
      </trkpt>
      <trkpt lat="44.85414" lon="0.59378">
        <ele>25.7</ele>
        <time>2022-07-10T06:28:25Z</time>
      </trkpt>
      <trkpt lat="44.85412" lon="0.59364">
        <ele>25.6</ele>
        <time>2022-07-10T06:28:27Z</time>
      </trkpt>
      <trkpt lat="44.85411" lon="0.5935">
        <ele>25.6</ele>
        <time>2022-07-10T06:28:29Z</time>
      </trkpt>
      <trkpt lat="44.85409" lon="0.59336">
        <ele>25.7</ele>
        <time>2022-07-10T06:28:31Z</time>
      </trkpt>
      <trkpt lat="44.85408" lon="0.59321">
        <ele>25.7</ele>
        <time>2022-07-10T06:28:33Z</time>
      </trkpt>
      <trkpt lat="44.85407" lon="0.59313">
        <ele>25.7</ele>
        <time>2022-07-10T06:28:34Z</time>
      </trkpt>
      <trkpt lat="44.85406" lon="0.59306">
        <ele>25.7</ele>
        <time>2022-07-10T06:28:35Z</time>
      </trkpt>
      <trkpt lat="44.85405" lon="0.59299">
        <ele>25.8</ele>
        <time>2022-07-10T06:28:36Z</time>
      </trkpt>
      <trkpt lat="44.85405" lon="0.59292">
        <ele>25.8</ele>
        <time>2022-07-10T06:28:37Z</time>
      </trkpt>
      <trkpt lat="44.85405" lon="0.59286">
        <ele>25.8</ele>
        <time>2022-07-10T06:28:38Z</time>
      </trkpt>
      <trkpt lat="44.85406" lon="0.59278">
        <ele>26.2</ele>
        <time>2022-07-10T06:28:39Z</time>
      </trkpt>
      <trkpt lat="44.85406" lon="0.59272">
        <ele>26.2</ele>
        <time>2022-07-10T06:28:40Z</time>
      </trkpt>
      <trkpt lat="44.85408" lon="0.59268">
        <ele>26.2</ele>
        <time>2022-07-10T06:28:41Z</time>
      </trkpt>
      <trkpt lat="44.85409" lon="0.59269">
        <ele>26.2</ele>
        <time>2022-07-10T06:28:42Z</time>
      </trkpt>
      <trkpt lat="44.8541" lon="0.5927">
        <ele>26.2</ele>
        <time>2022-07-10T06:28:43Z</time>
      </trkpt>
      <trkpt lat="44.85416" lon="0.59278">
        <ele>26.2</ele>
        <time>2022-07-10T06:28:45Z</time>
      </trkpt>
      <trkpt lat="44.85418" lon="0.59287">
        <ele>28.1</ele>
        <time>2022-07-10T06:28:47Z</time>
      </trkpt>
      <trkpt lat="44.85421" lon="0.59294">
        <ele>28.8</ele>
        <time>2022-07-10T06:28:49Z</time>
      </trkpt>
      <trkpt lat="44.85423" lon="0.59302">
        <ele>29.5</ele>
        <time>2022-07-10T06:28:51Z</time>
      </trkpt>
      <trkpt lat="44.85422" lon="0.59314">
        <ele>30.4</ele>
        <time>2022-07-10T06:28:53Z</time>
      </trkpt>
      <trkpt lat="44.85422" lon="0.59323">
        <ele>31.1</ele>
        <time>2022-07-10T06:28:55Z</time>
      </trkpt>
      <trkpt lat="44.85422" lon="0.59329">
        <ele>31.6</ele>
        <time>2022-07-10T06:28:57Z</time>
      </trkpt>
      <trkpt lat="44.85424" lon="0.59336">
        <ele>32.1</ele>
        <time>2022-07-10T06:28:59Z</time>
      </trkpt>
      <trkpt lat="44.85425" lon="0.59343">
        <ele>32.6</ele>
        <time>2022-07-10T06:29:01Z</time>
      </trkpt>
      <trkpt lat="44.85428" lon="0.59347">
        <ele>33</ele>
        <time>2022-07-10T06:29:03Z</time>
      </trkpt>
      <trkpt lat="44.85433" lon="0.59354">
        <ele>33.7</ele>
        <time>2022-07-10T06:29:05Z</time>
      </trkpt>
      <trkpt lat="44.85435" lon="0.59361">
        <ele>34.3</ele>
        <time>2022-07-10T06:29:07Z</time>
      </trkpt>
      <trkpt lat="44.85436" lon="0.59368">
        <ele>34.8</ele>
        <time>2022-07-10T06:29:09Z</time>
      </trkpt>
      <trkpt lat="44.85438" lon="0.59375">
        <ele>35.4</ele>
        <time>2022-07-10T06:29:11Z</time>
      </trkpt>
      <trkpt lat="44.85439" lon="0.59381">
        <ele>35.9</ele>
        <time>2022-07-10T06:29:13Z</time>
      </trkpt>
      <trkpt lat="44.85441" lon="0.59387">
        <ele>36.3</ele>
        <time>2022-07-10T06:29:15Z</time>
      </trkpt>
      <trkpt lat="44.85441" lon="0.59389">
        <ele>36.5</ele>
        <time>2022-07-10T06:29:16Z</time>
      </trkpt>
      <trkpt lat="44.85444" lon="0.59391">
        <ele>36.9</ele>
        <time>2022-07-10T06:29:17Z</time>
      </trkpt>
      <trkpt lat="44.85447" lon="0.59391">
        <ele>37.5</ele>
        <time>2022-07-10T06:29:19Z</time>
      </trkpt>
      <trkpt lat="44.85452" lon="0.59393">
        <ele>38.2</ele>
        <time>2022-07-10T06:29:21Z</time>
      </trkpt>
      <trkpt lat="44.85457" lon="0.59397">
        <ele>38.9</ele>
        <time>2022-07-10T06:29:23Z</time>
      </trkpt>
      <trkpt lat="44.85462" lon="0.594">
        <ele>39.5</ele>
        <time>2022-07-10T06:29:25Z</time>
      </trkpt>
      <trkpt lat="44.85464" lon="0.59402">
        <ele>39.9</ele>
        <time>2022-07-10T06:29:26Z</time>
      </trkpt>
      <trkpt lat="44.85467" lon="0.59404">
        <ele>40.2</ele>
        <time>2022-07-10T06:29:27Z</time>
      </trkpt>
      <trkpt lat="44.85469" lon="0.59406">
        <ele>40.5</ele>
        <time>2022-07-10T06:29:28Z</time>
      </trkpt>
      <trkpt lat="44.85471" lon="0.59407">
        <ele>40.7</ele>
        <time>2022-07-10T06:29:29Z</time>
      </trkpt>
      <trkpt lat="44.85473" lon="0.59409">
        <ele>41</ele>
        <time>2022-07-10T06:29:30Z</time>
      </trkpt>
      <trkpt lat="44.85475" lon="0.5941">
        <ele>41.2</ele>
        <time>2022-07-10T06:29:31Z</time>
      </trkpt>
      <trkpt lat="44.85476" lon="0.59411">
        <ele>40.9</ele>
        <time>2022-07-10T06:29:32Z</time>
      </trkpt>
      <trkpt lat="44.85477" lon="0.59412">
        <ele>42.4</ele>
        <time>2022-07-10T06:29:33Z</time>
      </trkpt>
      <trkpt lat="44.85477" lon="0.59412">
        <ele>42.1</ele>
        <time>2022-07-10T06:29:34Z</time>
      </trkpt>
      <trkpt lat="44.85477" lon="0.59412">
        <ele>41.8</ele>
        <time>2022-07-10T06:29:35Z</time>
      </trkpt>
      <trkpt lat="44.85477" lon="0.59412">
        <ele>41.5</ele>
        <time>2022-07-10T06:29:37Z</time>
      </trkpt>
      <trkpt lat="44.85477" lon="0.59412">
        <ele>41.2</ele>
        <time>2022-07-10T06:29:38Z</time>
      </trkpt>
      <trkpt lat="44.85483" lon="0.59418">
        <ele>40.7</ele>
        <time>2022-07-10T06:29:41Z</time>
      </trkpt>
      <trkpt lat="44.85484" lon="0.59414">
        <ele>40.4</ele>
        <time>2022-07-10T06:29:43Z</time>
      </trkpt>
      <trkpt lat="44.85488" lon="0.59412">
        <ele>40.2</ele>
        <time>2022-07-10T06:29:44Z</time>
      </trkpt>
      <trkpt lat="44.85496" lon="0.59414">
        <ele>41.2</ele>
        <time>2022-07-10T06:29:45Z</time>
      </trkpt>
      <trkpt lat="44.85495" lon="0.59421">
        <ele>41.3</ele>
        <time>2022-07-10T06:29:47Z</time>
      </trkpt>
      <trkpt lat="44.85497" lon="0.59421">
        <ele>41.3</ele>
        <time>2022-07-10T06:29:48Z</time>
      </trkpt>
      <trkpt lat="44.855" lon="0.59423">
        <ele>41.3</ele>
        <time>2022-07-10T06:29:49Z</time>
      </trkpt>
      <trkpt lat="44.85504" lon="0.59424">
        <ele>41.4</ele>
        <time>2022-07-10T06:29:51Z</time>
      </trkpt>
      <trkpt lat="44.85506" lon="0.59425">
        <ele>41.4</ele>
        <time>2022-07-10T06:29:52Z</time>
      </trkpt>
      <trkpt lat="44.85508" lon="0.59426">
        <ele>41.5</ele>
        <time>2022-07-10T06:29:53Z</time>
      </trkpt>
      <trkpt lat="44.85513" lon="0.59427">
        <ele>41.6</ele>
        <time>2022-07-10T06:29:55Z</time>
      </trkpt>
      <trkpt lat="44.85518" lon="0.59428">
        <ele>41.7</ele>
        <time>2022-07-10T06:29:57Z</time>
      </trkpt>
      <trkpt lat="44.85522" lon="0.59429">
        <ele>41.8</ele>
        <time>2022-07-10T06:29:59Z</time>
      </trkpt>
      <trkpt lat="44.85524" lon="0.5943">
        <ele>41.8</ele>
        <time>2022-07-10T06:30:00Z</time>
      </trkpt>
      <trkpt lat="44.85528" lon="0.59428">
        <ele>41.9</ele>
        <time>2022-07-10T06:30:01Z</time>
      </trkpt>
      <trkpt lat="44.8553" lon="0.59427">
        <ele>42</ele>
        <time>2022-07-10T06:30:02Z</time>
      </trkpt>
      <trkpt lat="44.85532" lon="0.59425">
        <ele>42</ele>
        <time>2022-07-10T06:30:03Z</time>
      </trkpt>
      <trkpt lat="44.85532" lon="0.5942">
        <ele>42</ele>
        <time>2022-07-10T06:30:05Z</time>
      </trkpt>
      <trkpt lat="44.85535" lon="0.59432">
        <ele>42.1</ele>
        <time>2022-07-10T06:30:07Z</time>
      </trkpt>
      <trkpt lat="44.85538" lon="0.59433">
        <ele>42.1</ele>
        <time>2022-07-10T06:30:08Z</time>
      </trkpt>
      <trkpt lat="44.85536" lon="0.59426">
        <ele>42.2</ele>
        <time>2022-07-10T06:30:09Z</time>
      </trkpt>
      <trkpt lat="44.85532" lon="0.59419">
        <ele>42.2</ele>
        <time>2022-07-10T06:30:10Z</time>
      </trkpt>
      <trkpt lat="44.85533" lon="0.59418">
        <ele>42.3</ele>
        <time>2022-07-10T06:30:11Z</time>
      </trkpt>
      <trkpt lat="44.85534" lon="0.59418">
        <ele>42.3</ele>
        <time>2022-07-10T06:30:13Z</time>
      </trkpt>
      <trkpt lat="44.85536" lon="0.59419">
        <ele>42.3</ele>
        <time>2022-07-10T06:30:14Z</time>
      </trkpt>
      <trkpt lat="44.85537" lon="0.59419">
        <ele>42.3</ele>
        <time>2022-07-10T06:30:15Z</time>
      </trkpt>
      <trkpt lat="44.85546" lon="0.59434">
        <ele>42.5</ele>
        <time>2022-07-10T06:30:17Z</time>
      </trkpt>
      <trkpt lat="44.85548" lon="0.59435">
        <ele>42.5</ele>
        <time>2022-07-10T06:30:18Z</time>
      </trkpt>
      <trkpt lat="44.85551" lon="0.59435">
        <ele>42.5</ele>
        <time>2022-07-10T06:30:19Z</time>
      </trkpt>
      <trkpt lat="44.85556" lon="0.59436">
        <ele>42.6</ele>
        <time>2022-07-10T06:30:21Z</time>
      </trkpt>
      <trkpt lat="44.85558" lon="0.59437">
        <ele>42.6</ele>
        <time>2022-07-10T06:30:22Z</time>
      </trkpt>
      <trkpt lat="44.8556" lon="0.59437">
        <ele>42.7</ele>
        <time>2022-07-10T06:30:23Z</time>
      </trkpt>
      <trkpt lat="44.85561" lon="0.59437">
        <ele>42.7</ele>
        <time>2022-07-10T06:30:24Z</time>
      </trkpt>
      <trkpt lat="44.85564" lon="0.59438">
        <ele>42.7</ele>
        <time>2022-07-10T06:30:25Z</time>
      </trkpt>
      <trkpt lat="44.85567" lon="0.59438">
        <ele>42.8</ele>
        <time>2022-07-10T06:30:26Z</time>
      </trkpt>
      <trkpt lat="44.85569" lon="0.59439">
        <ele>42.8</ele>
        <time>2022-07-10T06:30:27Z</time>
      </trkpt>
      <trkpt lat="44.85575" lon="0.5944">
        <ele>42.9</ele>
        <time>2022-07-10T06:30:29Z</time>
      </trkpt>
      <trkpt lat="44.85579" lon="0.59443">
        <ele>43</ele>
        <time>2022-07-10T06:30:31Z</time>
      </trkpt>
      <trkpt lat="44.8558" lon="0.59444">
        <ele>43</ele>
        <time>2022-07-10T06:30:32Z</time>
      </trkpt>
      <trkpt lat="44.85582" lon="0.59446">
        <ele>43.1</ele>
        <time>2022-07-10T06:30:33Z</time>
      </trkpt>
      <trkpt lat="44.85587" lon="0.5945">
        <ele>43.3</ele>
        <time>2022-07-10T06:30:35Z</time>
      </trkpt>
      <trkpt lat="44.8559" lon="0.59457">
        <ele>43.4</ele>
        <time>2022-07-10T06:30:37Z</time>
      </trkpt>
      <trkpt lat="44.85593" lon="0.59464">
        <ele>43.6</ele>
        <time>2022-07-10T06:30:39Z</time>
      </trkpt>
      <trkpt lat="44.85595" lon="0.59471">
        <ele>43.8</ele>
        <time>2022-07-10T06:30:41Z</time>
      </trkpt>
      <trkpt lat="44.85596" lon="0.59479">
        <ele>43.9</ele>
        <time>2022-07-10T06:30:43Z</time>
      </trkpt>
      <trkpt lat="44.85598" lon="0.59488">
        <ele>44.2</ele>
        <time>2022-07-10T06:30:45Z</time>
      </trkpt>
      <trkpt lat="44.85598" lon="0.59496">
        <ele>44.4</ele>
        <time>2022-07-10T06:30:47Z</time>
      </trkpt>
      <trkpt lat="44.85597" lon="0.59505">
        <ele>44.6</ele>
        <time>2022-07-10T06:30:49Z</time>
      </trkpt>
      <trkpt lat="44.85596" lon="0.59509">
        <ele>44.7</ele>
        <time>2022-07-10T06:30:50Z</time>
      </trkpt>
      <trkpt lat="44.85595" lon="0.59513">
        <ele>44.8</ele>
        <time>2022-07-10T06:30:51Z</time>
      </trkpt>
      <trkpt lat="44.85593" lon="0.59521">
        <ele>45.1</ele>
        <time>2022-07-10T06:30:53Z</time>
      </trkpt>
      <trkpt lat="44.85592" lon="0.59526">
        <ele>45.2</ele>
        <time>2022-07-10T06:30:54Z</time>
      </trkpt>
      <trkpt lat="44.85591" lon="0.5953">
        <ele>45.4</ele>
        <time>2022-07-10T06:30:55Z</time>
      </trkpt>
      <trkpt lat="44.85589" lon="0.59539">
        <ele>45.7</ele>
        <time>2022-07-10T06:30:57Z</time>
      </trkpt>
      <trkpt lat="44.85587" lon="0.59547">
        <ele>46</ele>
        <time>2022-07-10T06:30:59Z</time>
      </trkpt>
      <trkpt lat="44.85585" lon="0.59556">
        <ele>46.3</ele>
        <time>2022-07-10T06:31:01Z</time>
      </trkpt>
      <trkpt lat="44.85583" lon="0.59564">
        <ele>46.7</ele>
        <time>2022-07-10T06:31:03Z</time>
      </trkpt>
      <trkpt lat="44.85582" lon="0.59572">
        <ele>47.1</ele>
        <time>2022-07-10T06:31:05Z</time>
      </trkpt>
      <trkpt lat="44.85581" lon="0.5958">
        <ele>47.4</ele>
        <time>2022-07-10T06:31:07Z</time>
      </trkpt>
      <trkpt lat="44.85581" lon="0.59583">
        <ele>47.6</ele>
        <time>2022-07-10T06:31:08Z</time>
      </trkpt>
      <trkpt lat="44.85581" lon="0.59587">
        <ele>47.8</ele>
        <time>2022-07-10T06:31:09Z</time>
      </trkpt>
      <trkpt lat="44.85585" lon="0.59595">
        <ele>48</ele>
        <time>2022-07-10T06:31:11Z</time>
      </trkpt>
      <trkpt lat="44.85588" lon="0.59597">
        <ele>47.9</ele>
        <time>2022-07-10T06:31:12Z</time>
      </trkpt>
      <trkpt lat="44.85591" lon="0.59599">
        <ele>47.9</ele>
        <time>2022-07-10T06:31:13Z</time>
      </trkpt>
      <trkpt lat="44.856" lon="0.59604">
        <ele>47.7</ele>
        <time>2022-07-10T06:31:15Z</time>
      </trkpt>
      <trkpt lat="44.8561" lon="0.5961">
        <ele>47.5</ele>
        <time>2022-07-10T06:31:17Z</time>
      </trkpt>
      <trkpt lat="44.8562" lon="0.59616">
        <ele>47.5</ele>
        <time>2022-07-10T06:31:19Z</time>
      </trkpt>
      <trkpt lat="44.8563" lon="0.59622">
        <ele>47.5</ele>
        <time>2022-07-10T06:31:21Z</time>
      </trkpt>
      <trkpt lat="44.8564" lon="0.59628">
        <ele>47.6</ele>
        <time>2022-07-10T06:31:23Z</time>
      </trkpt>
      <trkpt lat="44.8565" lon="0.59633">
        <ele>47.7</ele>
        <time>2022-07-10T06:31:25Z</time>
      </trkpt>
      <trkpt lat="44.85655" lon="0.59636">
        <ele>47.8</ele>
        <time>2022-07-10T06:31:26Z</time>
      </trkpt>
      <trkpt lat="44.85659" lon="0.59639">
        <ele>47.8</ele>
        <time>2022-07-10T06:31:27Z</time>
      </trkpt>
      <trkpt lat="44.85668" lon="0.59644">
        <ele>48</ele>
        <time>2022-07-10T06:31:29Z</time>
      </trkpt>
      <trkpt lat="44.85677" lon="0.59649">
        <ele>48.2</ele>
        <time>2022-07-10T06:31:31Z</time>
      </trkpt>
      <trkpt lat="44.85686" lon="0.59654">
        <ele>48.4</ele>
        <time>2022-07-10T06:31:33Z</time>
      </trkpt>
      <trkpt lat="44.85695" lon="0.5966">
        <ele>48.7</ele>
        <time>2022-07-10T06:31:35Z</time>
      </trkpt>
      <trkpt lat="44.85704" lon="0.59665">
        <ele>49</ele>
        <time>2022-07-10T06:31:37Z</time>
      </trkpt>
      <trkpt lat="44.85713" lon="0.5967">
        <ele>49.3</ele>
        <time>2022-07-10T06:31:39Z</time>
      </trkpt>
      <trkpt lat="44.85722" lon="0.59672">
        <ele>49.7</ele>
        <time>2022-07-10T06:31:41Z</time>
      </trkpt>
      <trkpt lat="44.8573" lon="0.5967">
        <ele>49.9</ele>
        <time>2022-07-10T06:31:43Z</time>
      </trkpt>
      <trkpt lat="44.85735" lon="0.59669">
        <ele>50</ele>
        <time>2022-07-10T06:31:44Z</time>
      </trkpt>
      <trkpt lat="44.85739" lon="0.59668">
        <ele>50.2</ele>
        <time>2022-07-10T06:31:45Z</time>
      </trkpt>
      <trkpt lat="44.85743" lon="0.59666">
        <ele>50.3</ele>
        <time>2022-07-10T06:31:46Z</time>
      </trkpt>
      <trkpt lat="44.85747" lon="0.59662">
        <ele>50.4</ele>
        <time>2022-07-10T06:31:47Z</time>
      </trkpt>
      <trkpt lat="44.85754" lon="0.59654">
        <ele>50.6</ele>
        <time>2022-07-10T06:31:49Z</time>
      </trkpt>
      <trkpt lat="44.8576" lon="0.59645">
        <ele>50.8</ele>
        <time>2022-07-10T06:31:51Z</time>
      </trkpt>
      <trkpt lat="44.85766" lon="0.59636">
        <ele>51</ele>
        <time>2022-07-10T06:31:53Z</time>
      </trkpt>
      <trkpt lat="44.85772" lon="0.59627">
        <ele>51.1</ele>
        <time>2022-07-10T06:31:55Z</time>
      </trkpt>
      <trkpt lat="44.85777" lon="0.59619">
        <ele>51.3</ele>
        <time>2022-07-10T06:31:57Z</time>
      </trkpt>
      <trkpt lat="44.85783" lon="0.59611">
        <ele>51.5</ele>
        <time>2022-07-10T06:31:59Z</time>
      </trkpt>
      <trkpt lat="44.85788" lon="0.59604">
        <ele>51.8</ele>
        <time>2022-07-10T06:32:01Z</time>
      </trkpt>
      <trkpt lat="44.85795" lon="0.59597">
        <ele>52</ele>
        <time>2022-07-10T06:32:03Z</time>
      </trkpt>
      <trkpt lat="44.85803" lon="0.59592">
        <ele>52.4</ele>
        <time>2022-07-10T06:32:05Z</time>
      </trkpt>
      <trkpt lat="44.85809" lon="0.59589">
        <ele>52.6</ele>
        <time>2022-07-10T06:32:07Z</time>
      </trkpt>
      <trkpt lat="44.85813" lon="0.59588">
        <ele>52.8</ele>
        <time>2022-07-10T06:32:09Z</time>
      </trkpt>
      <trkpt lat="44.85817" lon="0.59585">
        <ele>53.2</ele>
        <time>2022-07-10T06:32:11Z</time>
      </trkpt>
      <trkpt lat="44.85821" lon="0.59582">
        <ele>53.6</ele>
        <time>2022-07-10T06:32:13Z</time>
      </trkpt>
      <trkpt lat="44.85825" lon="0.59579">
        <ele>54</ele>
        <time>2022-07-10T06:32:15Z</time>
      </trkpt>
      <trkpt lat="44.85827" lon="0.59578">
        <ele>54.2</ele>
        <time>2022-07-10T06:32:17Z</time>
      </trkpt>
      <trkpt lat="44.85832" lon="0.59574">
        <ele>54.7</ele>
        <time>2022-07-10T06:32:19Z</time>
      </trkpt>
      <trkpt lat="44.85834" lon="0.59572">
        <ele>55</ele>
        <time>2022-07-10T06:32:20Z</time>
      </trkpt>
      <trkpt lat="44.85837" lon="0.59571">
        <ele>55.2</ele>
        <time>2022-07-10T06:32:21Z</time>
      </trkpt>
      <trkpt lat="44.85843" lon="0.59566">
        <ele>55.8</ele>
        <time>2022-07-10T06:32:23Z</time>
      </trkpt>
      <trkpt lat="44.85846" lon="0.59564">
        <ele>56</ele>
        <time>2022-07-10T06:32:24Z</time>
      </trkpt>
      <trkpt lat="44.85848" lon="0.59562">
        <ele>56.3</ele>
        <time>2022-07-10T06:32:25Z</time>
      </trkpt>
      <trkpt lat="44.85853" lon="0.59558">
        <ele>56.7</ele>
        <time>2022-07-10T06:32:27Z</time>
      </trkpt>
      <trkpt lat="44.85858" lon="0.59553">
        <ele>57.1</ele>
        <time>2022-07-10T06:32:29Z</time>
      </trkpt>
      <trkpt lat="44.85862" lon="0.59549">
        <ele>57.4</ele>
        <time>2022-07-10T06:32:31Z</time>
      </trkpt>
      <trkpt lat="44.85866" lon="0.59545">
        <ele>57.7</ele>
        <time>2022-07-10T06:32:33Z</time>
      </trkpt>
      <trkpt lat="44.85867" lon="0.59544">
        <ele>57.8</ele>
        <time>2022-07-10T06:32:34Z</time>
      </trkpt>
      <trkpt lat="44.85868" lon="0.59543">
        <ele>57.9</ele>
        <time>2022-07-10T06:32:35Z</time>
      </trkpt>
      <trkpt lat="44.8587" lon="0.59541">
        <ele>58</ele>
        <time>2022-07-10T06:32:36Z</time>
      </trkpt>
      <trkpt lat="44.85871" lon="0.5954">
        <ele>58.1</ele>
        <time>2022-07-10T06:32:37Z</time>
      </trkpt>
      <trkpt lat="44.85877" lon="0.59534">
        <ele>58.5</ele>
        <time>2022-07-10T06:32:39Z</time>
      </trkpt>
      <trkpt lat="44.85879" lon="0.59531">
        <ele>58.6</ele>
        <time>2022-07-10T06:32:40Z</time>
      </trkpt>
      <trkpt lat="44.85882" lon="0.59528">
        <ele>58.8</ele>
        <time>2022-07-10T06:32:41Z</time>
      </trkpt>
      <trkpt lat="44.85885" lon="0.59524">
        <ele>59</ele>
        <time>2022-07-10T06:32:43Z</time>
      </trkpt>
      <trkpt lat="44.85889" lon="0.59519">
        <ele>59.2</ele>
        <time>2022-07-10T06:32:45Z</time>
      </trkpt>
      <trkpt lat="44.85892" lon="0.59515">
        <ele>59.3</ele>
        <time>2022-07-10T06:32:47Z</time>
      </trkpt>
      <trkpt lat="44.85894" lon="0.59511">
        <ele>59.5</ele>
        <time>2022-07-10T06:32:49Z</time>
      </trkpt>
      <trkpt lat="44.85898" lon="0.59507">
        <ele>59.6</ele>
        <time>2022-07-10T06:32:51Z</time>
      </trkpt>
      <trkpt lat="44.85902" lon="0.59501">
        <ele>59.8</ele>
        <time>2022-07-10T06:32:53Z</time>
      </trkpt>
      <trkpt lat="44.85905" lon="0.59498">
        <ele>59.9</ele>
        <time>2022-07-10T06:32:55Z</time>
      </trkpt>
      <trkpt lat="44.85906" lon="0.59496">
        <ele>59.9</ele>
        <time>2022-07-10T06:32:56Z</time>
      </trkpt>
      <trkpt lat="44.85907" lon="0.59494">
        <ele>60</ele>
        <time>2022-07-10T06:32:57Z</time>
      </trkpt>
      <trkpt lat="44.85912" lon="0.59488">
        <ele>60.1</ele>
        <time>2022-07-10T06:32:59Z</time>
      </trkpt>
      <trkpt lat="44.85914" lon="0.59485">
        <ele>60.2</ele>
        <time>2022-07-10T06:33:00Z</time>
      </trkpt>
      <trkpt lat="44.85918" lon="0.5948">
        <ele>60.3</ele>
        <time>2022-07-10T06:33:01Z</time>
      </trkpt>
      <trkpt lat="44.85923" lon="0.59473">
        <ele>60.5</ele>
        <time>2022-07-10T06:33:03Z</time>
      </trkpt>
      <trkpt lat="44.85928" lon="0.59466">
        <ele>60.6</ele>
        <time>2022-07-10T06:33:05Z</time>
      </trkpt>
      <trkpt lat="44.85933" lon="0.59461">
        <ele>60.8</ele>
        <time>2022-07-10T06:33:07Z</time>
      </trkpt>
      <trkpt lat="44.85936" lon="0.59458">
        <ele>60.9</ele>
        <time>2022-07-10T06:33:08Z</time>
      </trkpt>
      <trkpt lat="44.85938" lon="0.59455">
        <ele>61</ele>
        <time>2022-07-10T06:33:09Z</time>
      </trkpt>
      <trkpt lat="44.85943" lon="0.5945">
        <ele>61.1</ele>
        <time>2022-07-10T06:33:11Z</time>
      </trkpt>
      <trkpt lat="44.85948" lon="0.59445">
        <ele>61.2</ele>
        <time>2022-07-10T06:33:13Z</time>
      </trkpt>
      <trkpt lat="44.85952" lon="0.5944">
        <ele>61.3</ele>
        <time>2022-07-10T06:33:15Z</time>
      </trkpt>
      <trkpt lat="44.85957" lon="0.59435">
        <ele>61.3</ele>
        <time>2022-07-10T06:33:17Z</time>
      </trkpt>
      <trkpt lat="44.85967" lon="0.59434">
        <ele>61.4</ele>
        <time>2022-07-10T06:33:19Z</time>
      </trkpt>
      <trkpt lat="44.85973" lon="0.59437">
        <ele>61.4</ele>
        <time>2022-07-10T06:33:21Z</time>
      </trkpt>
      <trkpt lat="44.85977" lon="0.59439">
        <ele>61.4</ele>
        <time>2022-07-10T06:33:22Z</time>
      </trkpt>
      <trkpt lat="44.8598" lon="0.5944">
        <ele>61.5</ele>
        <time>2022-07-10T06:33:23Z</time>
      </trkpt>
      <trkpt lat="44.85986" lon="0.59442">
        <ele>61.5</ele>
        <time>2022-07-10T06:33:25Z</time>
      </trkpt>
      <trkpt lat="44.85992" lon="0.59445">
        <ele>61.5</ele>
        <time>2022-07-10T06:33:27Z</time>
      </trkpt>
      <trkpt lat="44.85998" lon="0.59448">
        <ele>61.6</ele>
        <time>2022-07-10T06:33:29Z</time>
      </trkpt>
      <trkpt lat="44.86004" lon="0.59451">
        <ele>61.6</ele>
        <time>2022-07-10T06:33:31Z</time>
      </trkpt>
      <trkpt lat="44.8601" lon="0.59453">
        <ele>61.7</ele>
        <time>2022-07-10T06:33:33Z</time>
      </trkpt>
      <trkpt lat="44.86016" lon="0.59456">
        <ele>61.8</ele>
        <time>2022-07-10T06:33:35Z</time>
      </trkpt>
      <trkpt lat="44.86019" lon="0.59457">
        <ele>61.8</ele>
        <time>2022-07-10T06:33:36Z</time>
      </trkpt>
      <trkpt lat="44.86022" lon="0.59458">
        <ele>61.9</ele>
        <time>2022-07-10T06:33:37Z</time>
      </trkpt>
      <trkpt lat="44.86027" lon="0.59461">
        <ele>62</ele>
        <time>2022-07-10T06:33:39Z</time>
      </trkpt>
      <trkpt lat="44.86033" lon="0.59467">
        <ele>62.1</ele>
        <time>2022-07-10T06:33:41Z</time>
      </trkpt>
      <trkpt lat="44.86038" lon="0.59474">
        <ele>62.3</ele>
        <time>2022-07-10T06:33:43Z</time>
      </trkpt>
      <trkpt lat="44.86042" lon="0.5948">
        <ele>62.5</ele>
        <time>2022-07-10T06:33:45Z</time>
      </trkpt>
      <trkpt lat="44.86044" lon="0.59483">
        <ele>62.6</ele>
        <time>2022-07-10T06:33:46Z</time>
      </trkpt>
      <trkpt lat="44.86045" lon="0.59487">
        <ele>62.7</ele>
        <time>2022-07-10T06:33:47Z</time>
      </trkpt>
      <trkpt lat="44.86046" lon="0.59495">
        <ele>62.8</ele>
        <time>2022-07-10T06:33:49Z</time>
      </trkpt>
      <trkpt lat="44.86046" lon="0.59498">
        <ele>62.9</ele>
        <time>2022-07-10T06:33:51Z</time>
      </trkpt>
      <trkpt lat="44.86053" lon="0.59499">
        <ele>63</ele>
        <time>2022-07-10T06:33:53Z</time>
      </trkpt>
      <trkpt lat="44.86058" lon="0.595">
        <ele>63.1</ele>
        <time>2022-07-10T06:33:55Z</time>
      </trkpt>
      <trkpt lat="44.8606" lon="0.595">
        <ele>63.1</ele>
        <time>2022-07-10T06:33:56Z</time>
      </trkpt>
      <trkpt lat="44.86063" lon="0.59501">
        <ele>63.2</ele>
        <time>2022-07-10T06:33:57Z</time>
      </trkpt>
      <trkpt lat="44.86068" lon="0.59502">
        <ele>63.3</ele>
        <time>2022-07-10T06:33:59Z</time>
      </trkpt>
      <trkpt lat="44.86074" lon="0.59502">
        <ele>63.3</ele>
        <time>2022-07-10T06:34:01Z</time>
      </trkpt>
      <trkpt lat="44.8608" lon="0.59502">
        <ele>63.4</ele>
        <time>2022-07-10T06:34:03Z</time>
      </trkpt>
      <trkpt lat="44.86083" lon="0.59502">
        <ele>63.5</ele>
        <time>2022-07-10T06:34:04Z</time>
      </trkpt>
      <trkpt lat="44.86086" lon="0.59502">
        <ele>63.5</ele>
        <time>2022-07-10T06:34:05Z</time>
      </trkpt>
      <trkpt lat="44.86092" lon="0.59502">
        <ele>63.6</ele>
        <time>2022-07-10T06:34:07Z</time>
      </trkpt>
      <trkpt lat="44.86099" lon="0.59502">
        <ele>63.8</ele>
        <time>2022-07-10T06:34:09Z</time>
      </trkpt>
      <trkpt lat="44.86105" lon="0.59503">
        <ele>63.9</ele>
        <time>2022-07-10T06:34:11Z</time>
      </trkpt>
      <trkpt lat="44.86109" lon="0.59503">
        <ele>63.9</ele>
        <time>2022-07-10T06:34:12Z</time>
      </trkpt>
      <trkpt lat="44.86112" lon="0.59503">
        <ele>64</ele>
        <time>2022-07-10T06:34:13Z</time>
      </trkpt>
      <trkpt lat="44.86119" lon="0.59504">
        <ele>64.1</ele>
        <time>2022-07-10T06:34:15Z</time>
      </trkpt>
      <trkpt lat="44.86127" lon="0.59506">
        <ele>64.3</ele>
        <time>2022-07-10T06:34:17Z</time>
      </trkpt>
      <trkpt lat="44.86134" lon="0.59509">
        <ele>64.5</ele>
        <time>2022-07-10T06:34:19Z</time>
      </trkpt>
      <trkpt lat="44.86141" lon="0.59512">
        <ele>64.7</ele>
        <time>2022-07-10T06:34:21Z</time>
      </trkpt>
      <trkpt lat="44.86148" lon="0.59514">
        <ele>64.9</ele>
        <time>2022-07-10T06:34:23Z</time>
      </trkpt>
      <trkpt lat="44.86154" lon="0.59517">
        <ele>65.2</ele>
        <time>2022-07-10T06:34:25Z</time>
      </trkpt>
      <trkpt lat="44.86161" lon="0.59519">
        <ele>65.4</ele>
        <time>2022-07-10T06:34:27Z</time>
      </trkpt>
      <trkpt lat="44.86168" lon="0.59522">
        <ele>65.7</ele>
        <time>2022-07-10T06:34:29Z</time>
      </trkpt>
      <trkpt lat="44.86174" lon="0.59524">
        <ele>66</ele>
        <time>2022-07-10T06:34:31Z</time>
      </trkpt>
      <trkpt lat="44.86178" lon="0.59525">
        <ele>66.2</ele>
        <time>2022-07-10T06:34:32Z</time>
      </trkpt>
      <trkpt lat="44.86181" lon="0.59527">
        <ele>66.4</ele>
        <time>2022-07-10T06:34:33Z</time>
      </trkpt>
      <trkpt lat="44.86187" lon="0.59529">
        <ele>66.7</ele>
        <time>2022-07-10T06:34:35Z</time>
      </trkpt>
      <trkpt lat="44.86194" lon="0.59531">
        <ele>67.1</ele>
        <time>2022-07-10T06:34:37Z</time>
      </trkpt>
      <trkpt lat="44.86201" lon="0.59534">
        <ele>67.4</ele>
        <time>2022-07-10T06:34:39Z</time>
      </trkpt>
      <trkpt lat="44.86204" lon="0.59535">
        <ele>67.6</ele>
        <time>2022-07-10T06:34:40Z</time>
      </trkpt>
      <trkpt lat="44.86208" lon="0.59536">
        <ele>67.8</ele>
        <time>2022-07-10T06:34:41Z</time>
      </trkpt>
      <trkpt lat="44.86214" lon="0.59539">
        <ele>68.1</ele>
        <time>2022-07-10T06:34:43Z</time>
      </trkpt>
      <trkpt lat="44.86221" lon="0.59541">
        <ele>68.4</ele>
        <time>2022-07-10T06:34:45Z</time>
      </trkpt>
      <trkpt lat="44.86228" lon="0.59542">
        <ele>68.8</ele>
        <time>2022-07-10T06:34:47Z</time>
      </trkpt>
      <trkpt lat="44.86235" lon="0.59544">
        <ele>69.1</ele>
        <time>2022-07-10T06:34:49Z</time>
      </trkpt>
      <trkpt lat="44.86241" lon="0.59546">
        <ele>69.4</ele>
        <time>2022-07-10T06:34:51Z</time>
      </trkpt>
      <trkpt lat="44.86248" lon="0.59548">
        <ele>69.7</ele>
        <time>2022-07-10T06:34:53Z</time>
      </trkpt>
      <trkpt lat="44.86255" lon="0.5955">
        <ele>70</ele>
        <time>2022-07-10T06:34:55Z</time>
      </trkpt>
      <trkpt lat="44.86258" lon="0.59552">
        <ele>70.2</ele>
        <time>2022-07-10T06:34:56Z</time>
      </trkpt>
      <trkpt lat="44.86262" lon="0.59553">
        <ele>70.4</ele>
        <time>2022-07-10T06:34:57Z</time>
      </trkpt>
      <trkpt lat="44.86268" lon="0.59555">
        <ele>70.7</ele>
        <time>2022-07-10T06:34:59Z</time>
      </trkpt>
      <trkpt lat="44.86275" lon="0.59557">
        <ele>71</ele>
        <time>2022-07-10T06:35:01Z</time>
      </trkpt>
      <trkpt lat="44.86281" lon="0.59559">
        <ele>71.3</ele>
        <time>2022-07-10T06:35:03Z</time>
      </trkpt>
      <trkpt lat="44.86288" lon="0.59562">
        <ele>71.6</ele>
        <time>2022-07-10T06:35:05Z</time>
      </trkpt>
      <trkpt lat="44.86295" lon="0.59564">
        <ele>71.8</ele>
        <time>2022-07-10T06:35:07Z</time>
      </trkpt>
      <trkpt lat="44.86302" lon="0.59566">
        <ele>72.1</ele>
        <time>2022-07-10T06:35:09Z</time>
      </trkpt>
      <trkpt lat="44.86308" lon="0.59569">
        <ele>72.4</ele>
        <time>2022-07-10T06:35:11Z</time>
      </trkpt>
      <trkpt lat="44.86312" lon="0.5957">
        <ele>72.5</ele>
        <time>2022-07-10T06:35:12Z</time>
      </trkpt>
      <trkpt lat="44.86315" lon="0.59571">
        <ele>72.7</ele>
        <time>2022-07-10T06:35:13Z</time>
      </trkpt>
      <trkpt lat="44.86322" lon="0.59573">
        <ele>72.9</ele>
        <time>2022-07-10T06:35:15Z</time>
      </trkpt>
      <trkpt lat="44.86328" lon="0.59576">
        <ele>73.2</ele>
        <time>2022-07-10T06:35:17Z</time>
      </trkpt>
      <trkpt lat="44.86335" lon="0.59579">
        <ele>73.4</ele>
        <time>2022-07-10T06:35:19Z</time>
      </trkpt>
      <trkpt lat="44.86338" lon="0.5958">
        <ele>73.6</ele>
        <time>2022-07-10T06:35:20Z</time>
      </trkpt>
      <trkpt lat="44.86342" lon="0.59582">
        <ele>73.7</ele>
        <time>2022-07-10T06:35:21Z</time>
      </trkpt>
      <trkpt lat="44.86348" lon="0.59584">
        <ele>73.9</ele>
        <time>2022-07-10T06:35:23Z</time>
      </trkpt>
      <trkpt lat="44.86355" lon="0.59587">
        <ele>74.1</ele>
        <time>2022-07-10T06:35:25Z</time>
      </trkpt>
      <trkpt lat="44.86362" lon="0.5959">
        <ele>74.3</ele>
        <time>2022-07-10T06:35:27Z</time>
      </trkpt>
      <trkpt lat="44.86368" lon="0.59592">
        <ele>74.5</ele>
        <time>2022-07-10T06:35:29Z</time>
      </trkpt>
      <trkpt lat="44.86375" lon="0.59594">
        <ele>74.7</ele>
        <time>2022-07-10T06:35:31Z</time>
      </trkpt>
      <trkpt lat="44.86378" lon="0.59595">
        <ele>74.8</ele>
        <time>2022-07-10T06:35:32Z</time>
      </trkpt>
      <trkpt lat="44.86382" lon="0.59596">
        <ele>74.9</ele>
        <time>2022-07-10T06:35:33Z</time>
      </trkpt>
      <trkpt lat="44.86388" lon="0.59598">
        <ele>75.1</ele>
        <time>2022-07-10T06:35:35Z</time>
      </trkpt>
      <trkpt lat="44.86395" lon="0.59599">
        <ele>75.3</ele>
        <time>2022-07-10T06:35:37Z</time>
      </trkpt>
      <trkpt lat="44.86402" lon="0.596">
        <ele>75.5</ele>
        <time>2022-07-10T06:35:39Z</time>
      </trkpt>
      <trkpt lat="44.86405" lon="0.596">
        <ele>75.5</ele>
        <time>2022-07-10T06:35:40Z</time>
      </trkpt>
      <trkpt lat="44.86408" lon="0.596">
        <ele>75.6</ele>
        <time>2022-07-10T06:35:41Z</time>
      </trkpt>
      <trkpt lat="44.86415" lon="0.59601">
        <ele>75.8</ele>
        <time>2022-07-10T06:35:43Z</time>
      </trkpt>
      <trkpt lat="44.86422" lon="0.59602">
        <ele>76</ele>
        <time>2022-07-10T06:35:45Z</time>
      </trkpt>
      <trkpt lat="44.86429" lon="0.59603">
        <ele>76.1</ele>
        <time>2022-07-10T06:35:47Z</time>
      </trkpt>
      <trkpt lat="44.86437" lon="0.59604">
        <ele>76.3</ele>
        <time>2022-07-10T06:35:49Z</time>
      </trkpt>
      <trkpt lat="44.86444" lon="0.59605">
        <ele>76.4</ele>
        <time>2022-07-10T06:35:51Z</time>
      </trkpt>
      <trkpt lat="44.86451" lon="0.59608">
        <ele>76.6</ele>
        <time>2022-07-10T06:35:53Z</time>
      </trkpt>
      <trkpt lat="44.86458" lon="0.5961">
        <ele>76.6</ele>
        <time>2022-07-10T06:35:55Z</time>
      </trkpt>
      <trkpt lat="44.86464" lon="0.59611">
        <ele>76.7</ele>
        <time>2022-07-10T06:35:57Z</time>
      </trkpt>
      <trkpt lat="44.86471" lon="0.59613">
        <ele>76.8</ele>
        <time>2022-07-10T06:35:59Z</time>
      </trkpt>
      <trkpt lat="44.86478" lon="0.59616">
        <ele>76.8</ele>
        <time>2022-07-10T06:36:01Z</time>
      </trkpt>
      <trkpt lat="44.86486" lon="0.59617">
        <ele>76.9</ele>
        <time>2022-07-10T06:36:03Z</time>
      </trkpt>
      <trkpt lat="44.86494" lon="0.59619">
        <ele>76.9</ele>
        <time>2022-07-10T06:36:05Z</time>
      </trkpt>
      <trkpt lat="44.86502" lon="0.5962">
        <ele>77</ele>
        <time>2022-07-10T06:36:07Z</time>
      </trkpt>
      <trkpt lat="44.8651" lon="0.59622">
        <ele>77</ele>
        <time>2022-07-10T06:36:09Z</time>
      </trkpt>
      <trkpt lat="44.86518" lon="0.59627">
        <ele>77.1</ele>
        <time>2022-07-10T06:36:11Z</time>
      </trkpt>
      <trkpt lat="44.86525" lon="0.59632">
        <ele>77.1</ele>
        <time>2022-07-10T06:36:13Z</time>
      </trkpt>
      <trkpt lat="44.86529" lon="0.59635">
        <ele>77.1</ele>
        <time>2022-07-10T06:36:14Z</time>
      </trkpt>
      <trkpt lat="44.86533" lon="0.59638">
        <ele>77.2</ele>
        <time>2022-07-10T06:36:15Z</time>
      </trkpt>
      <trkpt lat="44.8654" lon="0.59643">
        <ele>77.2</ele>
        <time>2022-07-10T06:36:17Z</time>
      </trkpt>
      <trkpt lat="44.86547" lon="0.59648">
        <ele>77.3</ele>
        <time>2022-07-10T06:36:19Z</time>
      </trkpt>
      <trkpt lat="44.86554" lon="0.59654">
        <ele>77.4</ele>
        <time>2022-07-10T06:36:21Z</time>
      </trkpt>
      <trkpt lat="44.86562" lon="0.59659">
        <ele>77.5</ele>
        <time>2022-07-10T06:36:23Z</time>
      </trkpt>
      <trkpt lat="44.86569" lon="0.59665">
        <ele>77.6</ele>
        <time>2022-07-10T06:36:25Z</time>
      </trkpt>
      <trkpt lat="44.86576" lon="0.5967">
        <ele>77.7</ele>
        <time>2022-07-10T06:36:27Z</time>
      </trkpt>
      <trkpt lat="44.86584" lon="0.59675">
        <ele>77.9</ele>
        <time>2022-07-10T06:36:29Z</time>
      </trkpt>
      <trkpt lat="44.86587" lon="0.59678">
        <ele>77.9</ele>
        <time>2022-07-10T06:36:30Z</time>
      </trkpt>
      <trkpt lat="44.86591" lon="0.59681">
        <ele>78</ele>
        <time>2022-07-10T06:36:31Z</time>
      </trkpt>
      <trkpt lat="44.86598" lon="0.59686">
        <ele>78.2</ele>
        <time>2022-07-10T06:36:33Z</time>
      </trkpt>
      <trkpt lat="44.86605" lon="0.59691">
        <ele>78.4</ele>
        <time>2022-07-10T06:36:35Z</time>
      </trkpt>
      <trkpt lat="44.86611" lon="0.59696">
        <ele>78.6</ele>
        <time>2022-07-10T06:36:37Z</time>
      </trkpt>
      <trkpt lat="44.86619" lon="0.59701">
        <ele>78.8</ele>
        <time>2022-07-10T06:36:39Z</time>
      </trkpt>
      <trkpt lat="44.86625" lon="0.59706">
        <ele>79</ele>
        <time>2022-07-10T06:36:41Z</time>
      </trkpt>
      <trkpt lat="44.86632" lon="0.59711">
        <ele>79.2</ele>
        <time>2022-07-10T06:36:43Z</time>
      </trkpt>
      <trkpt lat="44.86638" lon="0.59716">
        <ele>79.4</ele>
        <time>2022-07-10T06:36:45Z</time>
      </trkpt>
      <trkpt lat="44.86645" lon="0.59721">
        <ele>79.6</ele>
        <time>2022-07-10T06:36:47Z</time>
      </trkpt>
      <trkpt lat="44.86652" lon="0.59726">
        <ele>79.8</ele>
        <time>2022-07-10T06:36:49Z</time>
      </trkpt>
      <trkpt lat="44.86655" lon="0.5973">
        <ele>79.9</ele>
        <time>2022-07-10T06:36:50Z</time>
      </trkpt>
      <trkpt lat="44.86658" lon="0.59734">
        <ele>80</ele>
        <time>2022-07-10T06:36:51Z</time>
      </trkpt>
      <trkpt lat="44.86664" lon="0.59742">
        <ele>80.3</ele>
        <time>2022-07-10T06:36:53Z</time>
      </trkpt>
      <trkpt lat="44.8667" lon="0.59751">
        <ele>80.4</ele>
        <time>2022-07-10T06:36:55Z</time>
      </trkpt>
      <trkpt lat="44.86673" lon="0.59756">
        <ele>80.5</ele>
        <time>2022-07-10T06:36:56Z</time>
      </trkpt>
      <trkpt lat="44.86676" lon="0.5976">
        <ele>80.6</ele>
        <time>2022-07-10T06:36:57Z</time>
      </trkpt>
      <trkpt lat="44.86681" lon="0.59769">
        <ele>80.7</ele>
        <time>2022-07-10T06:36:59Z</time>
      </trkpt>
      <trkpt lat="44.86687" lon="0.59778">
        <ele>80.9</ele>
        <time>2022-07-10T06:37:01Z</time>
      </trkpt>
      <trkpt lat="44.86692" lon="0.59782">
        <ele>81</ele>
        <time>2022-07-10T06:37:02Z</time>
      </trkpt>
      <trkpt lat="44.86696" lon="0.59785">
        <ele>81</ele>
        <time>2022-07-10T06:37:03Z</time>
      </trkpt>
      <trkpt lat="44.86699" lon="0.59788">
        <ele>81.1</ele>
        <time>2022-07-10T06:37:04Z</time>
      </trkpt>
      <trkpt lat="44.86703" lon="0.5979">
        <ele>81.2</ele>
        <time>2022-07-10T06:37:05Z</time>
      </trkpt>
      <trkpt lat="44.86711" lon="0.59796">
        <ele>81.3</ele>
        <time>2022-07-10T06:37:07Z</time>
      </trkpt>
      <trkpt lat="44.86718" lon="0.59801">
        <ele>81.5</ele>
        <time>2022-07-10T06:37:09Z</time>
      </trkpt>
      <trkpt lat="44.86726" lon="0.59806">
        <ele>81.7</ele>
        <time>2022-07-10T06:37:11Z</time>
      </trkpt>
      <trkpt lat="44.86733" lon="0.59811">
        <ele>81.8</ele>
        <time>2022-07-10T06:37:13Z</time>
      </trkpt>
      <trkpt lat="44.8674" lon="0.59817">
        <ele>82</ele>
        <time>2022-07-10T06:37:15Z</time>
      </trkpt>
      <trkpt lat="44.86748" lon="0.59822">
        <ele>82.2</ele>
        <time>2022-07-10T06:37:17Z</time>
      </trkpt>
      <trkpt lat="44.86755" lon="0.59827">
        <ele>82.4</ele>
        <time>2022-07-10T06:37:19Z</time>
      </trkpt>
      <trkpt lat="44.86761" lon="0.59831">
        <ele>82.5</ele>
        <time>2022-07-10T06:37:21Z</time>
      </trkpt>
      <trkpt lat="44.86768" lon="0.59836">
        <ele>82.7</ele>
        <time>2022-07-10T06:37:23Z</time>
      </trkpt>
      <trkpt lat="44.86775" lon="0.59841">
        <ele>82.9</ele>
        <time>2022-07-10T06:37:25Z</time>
      </trkpt>
      <trkpt lat="44.86779" lon="0.59843">
        <ele>83</ele>
        <time>2022-07-10T06:37:26Z</time>
      </trkpt>
      <trkpt lat="44.86783" lon="0.59846">
        <ele>83.1</ele>
        <time>2022-07-10T06:37:27Z</time>
      </trkpt>
      <trkpt lat="44.86791" lon="0.59852">
        <ele>83.3</ele>
        <time>2022-07-10T06:37:29Z</time>
      </trkpt>
      <trkpt lat="44.86798" lon="0.59857">
        <ele>83.4</ele>
        <time>2022-07-10T06:37:31Z</time>
      </trkpt>
      <trkpt lat="44.86804" lon="0.59863">
        <ele>83.6</ele>
        <time>2022-07-10T06:37:33Z</time>
      </trkpt>
      <trkpt lat="44.86809" lon="0.59869">
        <ele>83.8</ele>
        <time>2022-07-10T06:37:35Z</time>
      </trkpt>
      <trkpt lat="44.86815" lon="0.59876">
        <ele>83.9</ele>
        <time>2022-07-10T06:37:37Z</time>
      </trkpt>
      <trkpt lat="44.86818" lon="0.59879">
        <ele>84</ele>
        <time>2022-07-10T06:37:38Z</time>
      </trkpt>
      <trkpt lat="44.86821" lon="0.59882">
        <ele>84.1</ele>
        <time>2022-07-10T06:37:39Z</time>
      </trkpt>
      <trkpt lat="44.86826" lon="0.59895">
        <ele>84.4</ele>
        <time>2022-07-10T06:37:41Z</time>
      </trkpt>
      <trkpt lat="44.86824" lon="0.59902">
        <ele>84.5</ele>
        <time>2022-07-10T06:37:43Z</time>
      </trkpt>
      <trkpt lat="44.86823" lon="0.59909">
        <ele>84.7</ele>
        <time>2022-07-10T06:37:45Z</time>
      </trkpt>
      <trkpt lat="44.86822" lon="0.59916">
        <ele>86.3</ele>
        <time>2022-07-10T06:37:47Z</time>
      </trkpt>
      <trkpt lat="44.8682" lon="0.59923">
        <ele>86.4</ele>
        <time>2022-07-10T06:37:49Z</time>
      </trkpt>
      <trkpt lat="44.86819" lon="0.5993">
        <ele>88.1</ele>
        <time>2022-07-10T06:37:51Z</time>
      </trkpt>
      <trkpt lat="44.86818" lon="0.59938">
        <ele>88.2</ele>
        <time>2022-07-10T06:37:53Z</time>
      </trkpt>
      <trkpt lat="44.86818" lon="0.59942">
        <ele>88.4</ele>
        <time>2022-07-10T06:37:54Z</time>
      </trkpt>
      <trkpt lat="44.86819" lon="0.59946">
        <ele>90.2</ele>
        <time>2022-07-10T06:37:55Z</time>
      </trkpt>
      <trkpt lat="44.8682" lon="0.59949">
        <ele>90.3</ele>
        <time>2022-07-10T06:37:56Z</time>
      </trkpt>
      <trkpt lat="44.8682" lon="0.59952">
        <ele>90.4</ele>
        <time>2022-07-10T06:37:57Z</time>
      </trkpt>
      <trkpt lat="44.8682" lon="0.5996">
        <ele>90.6</ele>
        <time>2022-07-10T06:37:59Z</time>
      </trkpt>
      <trkpt lat="44.8682" lon="0.59963">
        <ele>92.4</ele>
        <time>2022-07-10T06:38:00Z</time>
      </trkpt>
      <trkpt lat="44.8682" lon="0.59966">
        <ele>92.5</ele>
        <time>2022-07-10T06:38:01Z</time>
      </trkpt>
      <trkpt lat="44.86819" lon="0.59973">
        <ele>92.7</ele>
        <time>2022-07-10T06:38:03Z</time>
      </trkpt>
      <trkpt lat="44.86814" lon="0.59971">
        <ele>94</ele>
        <time>2022-07-10T06:38:05Z</time>
      </trkpt>
      <trkpt lat="44.86812" lon="0.59974">
        <ele>94.2</ele>
        <time>2022-07-10T06:38:06Z</time>
      </trkpt>
      <trkpt lat="44.86811" lon="0.59977">
        <ele>94.3</ele>
        <time>2022-07-10T06:38:07Z</time>
      </trkpt>
      <trkpt lat="44.8681" lon="0.59983">
        <ele>96.4</ele>
        <time>2022-07-10T06:38:09Z</time>
      </trkpt>
      <trkpt lat="44.86811" lon="0.59987">
        <ele>96.6</ele>
        <time>2022-07-10T06:38:10Z</time>
      </trkpt>
      <trkpt lat="44.86812" lon="0.59991">
        <ele>96.7</ele>
        <time>2022-07-10T06:38:11Z</time>
      </trkpt>
      <trkpt lat="44.86813" lon="0.59994">
        <ele>96.9</ele>
        <time>2022-07-10T06:38:12Z</time>
      </trkpt>
      <trkpt lat="44.86814" lon="0.59998">
        <ele>98.9</ele>
        <time>2022-07-10T06:38:13Z</time>
      </trkpt>
      <trkpt lat="44.86815" lon="0.60002">
        <ele>99</ele>
        <time>2022-07-10T06:38:15Z</time>
      </trkpt>
      <trkpt lat="44.86816" lon="0.60005">
        <ele>97.9</ele>
        <time>2022-07-10T06:38:17Z</time>
      </trkpt>
      <trkpt lat="44.86817" lon="0.60007">
        <ele>98</ele>
        <time>2022-07-10T06:38:18Z</time>
      </trkpt>
      <trkpt lat="44.86818" lon="0.60009">
        <ele>98.2</ele>
        <time>2022-07-10T06:38:19Z</time>
      </trkpt>
      <trkpt lat="44.86819" lon="0.60012">
        <ele>98.3</ele>
        <time>2022-07-10T06:38:21Z</time>
      </trkpt>
      <trkpt lat="44.86822" lon="0.60015">
        <ele>100.2</ele>
        <time>2022-07-10T06:38:23Z</time>
      </trkpt>
      <trkpt lat="44.86826" lon="0.6002">
        <ele>100.4</ele>
        <time>2022-07-10T06:38:25Z</time>
      </trkpt>
      <trkpt lat="44.86828" lon="0.60024">
        <ele>100.5</ele>
        <time>2022-07-10T06:38:27Z</time>
      </trkpt>
      <trkpt lat="44.8683" lon="0.60028">
        <ele>99</ele>
        <time>2022-07-10T06:38:29Z</time>
      </trkpt>
      <trkpt lat="44.86833" lon="0.60032">
        <ele>101</ele>
        <time>2022-07-10T06:38:31Z</time>
      </trkpt>
      <trkpt lat="44.86836" lon="0.60036">
        <ele>101.2</ele>
        <time>2022-07-10T06:38:33Z</time>
      </trkpt>
      <trkpt lat="44.86838" lon="0.60038">
        <ele>101.3</ele>
        <time>2022-07-10T06:38:35Z</time>
      </trkpt>
      <trkpt lat="44.8684" lon="0.60042">
        <ele>99.6</ele>
        <time>2022-07-10T06:38:37Z</time>
      </trkpt>
      <trkpt lat="44.86843" lon="0.60047">
        <ele>99.8</ele>
        <time>2022-07-10T06:38:39Z</time>
      </trkpt>
      <trkpt lat="44.86845" lon="0.60051">
        <ele>101.8</ele>
        <time>2022-07-10T06:38:41Z</time>
      </trkpt>
      <trkpt lat="44.86848" lon="0.60055">
        <ele>102</ele>
        <time>2022-07-10T06:38:43Z</time>
      </trkpt>
      <trkpt lat="44.8685" lon="0.60059">
        <ele>102.1</ele>
        <time>2022-07-10T06:38:45Z</time>
      </trkpt>
      <trkpt lat="44.86851" lon="0.60063">
        <ele>102.3</ele>
        <time>2022-07-10T06:38:47Z</time>
      </trkpt>
      <trkpt lat="44.86853" lon="0.60067">
        <ele>102.5</ele>
        <time>2022-07-10T06:38:49Z</time>
      </trkpt>
      <trkpt lat="44.86853" lon="0.60072">
        <ele>102.6</ele>
        <time>2022-07-10T06:38:51Z</time>
      </trkpt>
      <trkpt lat="44.86853" lon="0.60073">
        <ele>102.8</ele>
        <time>2022-07-10T06:38:52Z</time>
      </trkpt>
      <trkpt lat="44.86853" lon="0.60073">
        <ele>102.9</ele>
        <time>2022-07-10T06:38:53Z</time>
      </trkpt>
      <trkpt lat="44.86851" lon="0.60078">
        <ele>104.7</ele>
        <time>2022-07-10T06:38:55Z</time>
      </trkpt>
      <trkpt lat="44.8685" lon="0.60081">
        <ele>104.8</ele>
        <time>2022-07-10T06:38:56Z</time>
      </trkpt>
      <trkpt lat="44.8685" lon="0.60083">
        <ele>106.2</ele>
        <time>2022-07-10T06:38:57Z</time>
      </trkpt>
      <trkpt lat="44.86849" lon="0.60086">
        <ele>106.4</ele>
        <time>2022-07-10T06:38:59Z</time>
      </trkpt>
      <trkpt lat="44.86848" lon="0.60088">
        <ele>106.5</ele>
        <time>2022-07-10T06:39:00Z</time>
      </trkpt>
      <trkpt lat="44.86847" lon="0.6009">
        <ele>106.7</ele>
        <time>2022-07-10T06:39:01Z</time>
      </trkpt>
      <trkpt lat="44.86846" lon="0.60093">
        <ele>106.8</ele>
        <time>2022-07-10T06:39:03Z</time>
      </trkpt>
      <trkpt lat="44.86844" lon="0.60097">
        <ele>107</ele>
        <time>2022-07-10T06:39:05Z</time>
      </trkpt>
      <trkpt lat="44.86843" lon="0.60098">
        <ele>107.1</ele>
        <time>2022-07-10T06:39:06Z</time>
      </trkpt>
      <trkpt lat="44.86842" lon="0.601">
        <ele>108</ele>
        <time>2022-07-10T06:39:07Z</time>
      </trkpt>
      <trkpt lat="44.8684" lon="0.60104">
        <ele>109.8</ele>
        <time>2022-07-10T06:39:09Z</time>
      </trkpt>
      <trkpt lat="44.8684" lon="0.60106">
        <ele>109.9</ele>
        <time>2022-07-10T06:39:10Z</time>
      </trkpt>
      <trkpt lat="44.8684" lon="0.60109">
        <ele>110.1</ele>
        <time>2022-07-10T06:39:11Z</time>
      </trkpt>
      <trkpt lat="44.8684" lon="0.60114">
        <ele>110.2</ele>
        <time>2022-07-10T06:39:13Z</time>
      </trkpt>
      <trkpt lat="44.8684" lon="0.60116">
        <ele>111.1</ele>
        <time>2022-07-10T06:39:14Z</time>
      </trkpt>
      <trkpt lat="44.86839" lon="0.60119">
        <ele>111.2</ele>
        <time>2022-07-10T06:39:15Z</time>
      </trkpt>
      <trkpt lat="44.86839" lon="0.60124">
        <ele>111.4</ele>
        <time>2022-07-10T06:39:17Z</time>
      </trkpt>
      <trkpt lat="44.86839" lon="0.60128">
        <ele>111.5</ele>
        <time>2022-07-10T06:39:19Z</time>
      </trkpt>
      <trkpt lat="44.86833" lon="0.60136">
        <ele>112.2</ele>
        <time>2022-07-10T06:39:21Z</time>
      </trkpt>
      <trkpt lat="44.86835" lon="0.6014">
        <ele>112.4</ele>
        <time>2022-07-10T06:39:23Z</time>
      </trkpt>
      <trkpt lat="44.86839" lon="0.60139">
        <ele>112.5</ele>
        <time>2022-07-10T06:39:25Z</time>
      </trkpt>
      <trkpt lat="44.86839" lon="0.60144">
        <ele>112.7</ele>
        <time>2022-07-10T06:39:27Z</time>
      </trkpt>
      <trkpt lat="44.86838" lon="0.60146">
        <ele>112.7</ele>
        <time>2022-07-10T06:39:28Z</time>
      </trkpt>
      <trkpt lat="44.86838" lon="0.60147">
        <ele>112.8</ele>
        <time>2022-07-10T06:39:29Z</time>
      </trkpt>
      <trkpt lat="44.8684" lon="0.60153">
        <ele>113</ele>
        <time>2022-07-10T06:39:31Z</time>
      </trkpt>
      <trkpt lat="44.86842" lon="0.60159">
        <ele>113.2</ele>
        <time>2022-07-10T06:39:33Z</time>
      </trkpt>
      <trkpt lat="44.86842" lon="0.60166">
        <ele>113.4</ele>
        <time>2022-07-10T06:39:35Z</time>
      </trkpt>
      <trkpt lat="44.86842" lon="0.60173">
        <ele>113.5</ele>
        <time>2022-07-10T06:39:37Z</time>
      </trkpt>
      <trkpt lat="44.86842" lon="0.60175">
        <ele>113.6</ele>
        <time>2022-07-10T06:39:38Z</time>
      </trkpt>
      <trkpt lat="44.86842" lon="0.60179">
        <ele>113.7</ele>
        <time>2022-07-10T06:39:39Z</time>
      </trkpt>
      <trkpt lat="44.86841" lon="0.60182">
        <ele>113.8</ele>
        <time>2022-07-10T06:39:40Z</time>
      </trkpt>
      <trkpt lat="44.86841" lon="0.60184">
        <ele>113.8</ele>
        <time>2022-07-10T06:39:41Z</time>
      </trkpt>
      <trkpt lat="44.86841" lon="0.60189">
        <ele>114</ele>
        <time>2022-07-10T06:39:43Z</time>
      </trkpt>
      <trkpt lat="44.86841" lon="0.60195">
        <ele>114.2</ele>
        <time>2022-07-10T06:39:45Z</time>
      </trkpt>
      <trkpt lat="44.86841" lon="0.60201">
        <ele>114.4</ele>
        <time>2022-07-10T06:39:47Z</time>
      </trkpt>
      <trkpt lat="44.8684" lon="0.60205">
        <ele>114.5</ele>
        <time>2022-07-10T06:39:48Z</time>
      </trkpt>
      <trkpt lat="44.8684" lon="0.60208">
        <ele>114.6</ele>
        <time>2022-07-10T06:39:49Z</time>
      </trkpt>
      <trkpt lat="44.8684" lon="0.60214">
        <ele>114.8</ele>
        <time>2022-07-10T06:39:51Z</time>
      </trkpt>
      <trkpt lat="44.8684" lon="0.6022">
        <ele>115.1</ele>
        <time>2022-07-10T06:39:53Z</time>
      </trkpt>
      <trkpt lat="44.8684" lon="0.60226">
        <ele>115.3</ele>
        <time>2022-07-10T06:39:55Z</time>
      </trkpt>
      <trkpt lat="44.8684" lon="0.60232">
        <ele>115.6</ele>
        <time>2022-07-10T06:39:57Z</time>
      </trkpt>
      <trkpt lat="44.86841" lon="0.60236">
        <ele>115.7</ele>
        <time>2022-07-10T06:39:59Z</time>
      </trkpt>
      <trkpt lat="44.86842" lon="0.60239">
        <ele>115.8</ele>
        <time>2022-07-10T06:40:00Z</time>
      </trkpt>
      <trkpt lat="44.86843" lon="0.60241">
        <ele>115.9</ele>
        <time>2022-07-10T06:40:01Z</time>
      </trkpt>
      <trkpt lat="44.86845" lon="0.60247">
        <ele>116.2</ele>
        <time>2022-07-10T06:40:03Z</time>
      </trkpt>
      <trkpt lat="44.86846" lon="0.60253">
        <ele>116.3</ele>
        <time>2022-07-10T06:40:05Z</time>
      </trkpt>
      <trkpt lat="44.86846" lon="0.60259">
        <ele>116.5</ele>
        <time>2022-07-10T06:40:07Z</time>
      </trkpt>
      <trkpt lat="44.86846" lon="0.60264">
        <ele>116.6</ele>
        <time>2022-07-10T06:40:09Z</time>
      </trkpt>
      <trkpt lat="44.86846" lon="0.60269">
        <ele>116.6</ele>
        <time>2022-07-10T06:40:11Z</time>
      </trkpt>
      <trkpt lat="44.86846" lon="0.60272">
        <ele>116.7</ele>
        <time>2022-07-10T06:40:12Z</time>
      </trkpt>
      <trkpt lat="44.86846" lon="0.60274">
        <ele>116.7</ele>
        <time>2022-07-10T06:40:13Z</time>
      </trkpt>
      <trkpt lat="44.86845" lon="0.6028">
        <ele>116.7</ele>
        <time>2022-07-10T06:40:15Z</time>
      </trkpt>
      <trkpt lat="44.86844" lon="0.60283">
        <ele>116.7</ele>
        <time>2022-07-10T06:40:16Z</time>
      </trkpt>
      <trkpt lat="44.86843" lon="0.60286">
        <ele>116.8</ele>
        <time>2022-07-10T06:40:17Z</time>
      </trkpt>
      <trkpt lat="44.86842" lon="0.60293">
        <ele>116.7</ele>
        <time>2022-07-10T06:40:19Z</time>
      </trkpt>
      <trkpt lat="44.86841" lon="0.60299">
        <ele>116.7</ele>
        <time>2022-07-10T06:40:21Z</time>
      </trkpt>
      <trkpt lat="44.8684" lon="0.60302">
        <ele>116.7</ele>
        <time>2022-07-10T06:40:22Z</time>
      </trkpt>
      <trkpt lat="44.8684" lon="0.60306">
        <ele>116.7</ele>
        <time>2022-07-10T06:40:23Z</time>
      </trkpt>
      <trkpt lat="44.86838" lon="0.60314">
        <ele>116.6</ele>
        <time>2022-07-10T06:40:25Z</time>
      </trkpt>
      <trkpt lat="44.86837" lon="0.60321">
        <ele>116.5</ele>
        <time>2022-07-10T06:40:27Z</time>
      </trkpt>
      <trkpt lat="44.86836" lon="0.60325">
        <ele>116.5</ele>
        <time>2022-07-10T06:40:28Z</time>
      </trkpt>
      <trkpt lat="44.86835" lon="0.60329">
        <ele>116.4</ele>
        <time>2022-07-10T06:40:29Z</time>
      </trkpt>
      <trkpt lat="44.86834" lon="0.60337">
        <ele>116.3</ele>
        <time>2022-07-10T06:40:31Z</time>
      </trkpt>
      <trkpt lat="44.86833" lon="0.60342">
        <ele>116.2</ele>
        <time>2022-07-10T06:40:32Z</time>
      </trkpt>
      <trkpt lat="44.86832" lon="0.60347">
        <ele>116.1</ele>
        <time>2022-07-10T06:40:33Z</time>
      </trkpt>
      <trkpt lat="44.8683" lon="0.60358">
        <ele>115.8</ele>
        <time>2022-07-10T06:40:35Z</time>
      </trkpt>
      <trkpt lat="44.86827" lon="0.6037">
        <ele>115.5</ele>
        <time>2022-07-10T06:40:37Z</time>
      </trkpt>
      <trkpt lat="44.86826" lon="0.60375">
        <ele>115.4</ele>
        <time>2022-07-10T06:40:38Z</time>
      </trkpt>
      <trkpt lat="44.86821" lon="0.6038">
        <ele>115.4</ele>
        <time>2022-07-10T06:40:39Z</time>
      </trkpt>
      <trkpt lat="44.86816" lon="0.6038">
        <ele>115.4</ele>
        <time>2022-07-10T06:40:40Z</time>
      </trkpt>
      <trkpt lat="44.86813" lon="0.60381">
        <ele>115.8</ele>
        <time>2022-07-10T06:40:41Z</time>
      </trkpt>
      <trkpt lat="44.86806" lon="0.60381">
        <ele>115.8</ele>
        <time>2022-07-10T06:40:43Z</time>
      </trkpt>
      <trkpt lat="44.868" lon="0.60379">
        <ele>116.2</ele>
        <time>2022-07-10T06:40:45Z</time>
      </trkpt>
      <trkpt lat="44.86793" lon="0.60377">
        <ele>116.2</ele>
        <time>2022-07-10T06:40:47Z</time>
      </trkpt>
      <trkpt lat="44.86786" lon="0.60374">
        <ele>116.4</ele>
        <time>2022-07-10T06:40:49Z</time>
      </trkpt>
      <trkpt lat="44.86784" lon="0.60373">
        <ele>116.9</ele>
        <time>2022-07-10T06:40:50Z</time>
      </trkpt>
      <trkpt lat="44.86781" lon="0.60371">
        <ele>116.9</ele>
        <time>2022-07-10T06:40:51Z</time>
      </trkpt>
      <trkpt lat="44.86775" lon="0.60368">
        <ele>117.3</ele>
        <time>2022-07-10T06:40:53Z</time>
      </trkpt>
      <trkpt lat="44.8677" lon="0.60364">
        <ele>117.3</ele>
        <time>2022-07-10T06:40:55Z</time>
      </trkpt>
      <trkpt lat="44.86767" lon="0.60362">
        <ele>117.6</ele>
        <time>2022-07-10T06:40:56Z</time>
      </trkpt>
      <trkpt lat="44.86764" lon="0.6036">
        <ele>117.6</ele>
        <time>2022-07-10T06:40:57Z</time>
      </trkpt>
      <trkpt lat="44.86758" lon="0.60356">
        <ele>118</ele>
        <time>2022-07-10T06:40:59Z</time>
      </trkpt>
      <trkpt lat="44.86754" lon="0.60352">
        <ele>118.2</ele>
        <time>2022-07-10T06:41:01Z</time>
      </trkpt>
      <trkpt lat="44.86749" lon="0.60349">
        <ele>118.2</ele>
        <time>2022-07-10T06:41:03Z</time>
      </trkpt>
      <trkpt lat="44.86745" lon="0.60345">
        <ele>118.2</ele>
        <time>2022-07-10T06:41:05Z</time>
      </trkpt>
      <trkpt lat="44.86744" lon="0.60344">
        <ele>118.2</ele>
        <time>2022-07-10T06:41:06Z</time>
      </trkpt>
      <trkpt lat="44.86743" lon="0.60345">
        <ele>118.2</ele>
        <time>2022-07-10T06:41:07Z</time>
      </trkpt>
      <trkpt lat="44.86738" lon="0.60344">
        <ele>118.3</ele>
        <time>2022-07-10T06:41:09Z</time>
      </trkpt>
      <trkpt lat="44.86731" lon="0.60344">
        <ele>118.3</ele>
        <time>2022-07-10T06:41:11Z</time>
      </trkpt>
      <trkpt lat="44.86726" lon="0.60347">
        <ele>118.3</ele>
        <time>2022-07-10T06:41:13Z</time>
      </trkpt>
      <trkpt lat="44.86721" lon="0.60351">
        <ele>118.3</ele>
        <time>2022-07-10T06:41:15Z</time>
      </trkpt>
      <trkpt lat="44.86714" lon="0.60355">
        <ele>118.1</ele>
        <time>2022-07-10T06:41:17Z</time>
      </trkpt>
      <trkpt lat="44.86708" lon="0.60359">
        <ele>117.4</ele>
        <time>2022-07-10T06:41:19Z</time>
      </trkpt>
      <trkpt lat="44.86702" lon="0.60363">
        <ele>117</ele>
        <time>2022-07-10T06:41:21Z</time>
      </trkpt>
      <trkpt lat="44.86695" lon="0.60367">
        <ele>117</ele>
        <time>2022-07-10T06:41:23Z</time>
      </trkpt>
      <trkpt lat="44.86689" lon="0.6037">
        <ele>116.6</ele>
        <time>2022-07-10T06:41:25Z</time>
      </trkpt>
      <trkpt lat="44.86682" lon="0.60373">
        <ele>116.2</ele>
        <time>2022-07-10T06:41:27Z</time>
      </trkpt>
      <trkpt lat="44.86675" lon="0.60375">
        <ele>115.5</ele>
        <time>2022-07-10T06:41:29Z</time>
      </trkpt>
      <trkpt lat="44.86669" lon="0.60376">
        <ele>115.1</ele>
        <time>2022-07-10T06:41:31Z</time>
      </trkpt>
      <trkpt lat="44.86666" lon="0.60375">
        <ele>115.1</ele>
        <time>2022-07-10T06:41:32Z</time>
      </trkpt>
      <trkpt lat="44.86663" lon="0.60375">
        <ele>115.1</ele>
        <time>2022-07-10T06:41:33Z</time>
      </trkpt>
      <trkpt lat="44.86657" lon="0.60377">
        <ele>114.8</ele>
        <time>2022-07-10T06:41:35Z</time>
      </trkpt>
      <trkpt lat="44.86652" lon="0.60385">
        <ele>114.8</ele>
        <time>2022-07-10T06:41:37Z</time>
      </trkpt>
      <trkpt lat="44.8665" lon="0.60391">
        <ele>114</ele>
        <time>2022-07-10T06:41:38Z</time>
      </trkpt>
      <trkpt lat="44.86648" lon="0.60396">
        <ele>114</ele>
        <time>2022-07-10T06:41:39Z</time>
      </trkpt>
      <trkpt lat="44.86644" lon="0.60408">
        <ele>113.1</ele>
        <time>2022-07-10T06:41:41Z</time>
      </trkpt>
      <trkpt lat="44.86642" lon="0.60421">
        <ele>113.1</ele>
        <time>2022-07-10T06:41:43Z</time>
      </trkpt>
      <trkpt lat="44.86643" lon="0.60428">
        <ele>112.6</ele>
        <time>2022-07-10T06:41:44Z</time>
      </trkpt>
      <trkpt lat="44.86643" lon="0.60433">
        <ele>112.6</ele>
        <time>2022-07-10T06:41:45Z</time>
      </trkpt>
      <trkpt lat="44.86644" lon="0.60448">
        <ele>112.2</ele>
        <time>2022-07-10T06:41:47Z</time>
      </trkpt>
      <trkpt lat="44.86644" lon="0.60463">
        <ele>111.9</ele>
        <time>2022-07-10T06:41:49Z</time>
      </trkpt>
      <trkpt lat="44.86642" lon="0.6048">
        <ele>111.7</ele>
        <time>2022-07-10T06:41:51Z</time>
      </trkpt>
      <trkpt lat="44.86642" lon="0.60489">
        <ele>111.7</ele>
        <time>2022-07-10T06:41:52Z</time>
      </trkpt>
      <trkpt lat="44.86642" lon="0.60497">
        <ele>111.9</ele>
        <time>2022-07-10T06:41:53Z</time>
      </trkpt>
      <trkpt lat="44.86642" lon="0.60506">
        <ele>111.9</ele>
        <time>2022-07-10T06:41:54Z</time>
      </trkpt>
      <trkpt lat="44.86642" lon="0.60514">
        <ele>112.7</ele>
        <time>2022-07-10T06:41:55Z</time>
      </trkpt>
      <trkpt lat="44.86642" lon="0.60528">
        <ele>113.9</ele>
        <time>2022-07-10T06:41:57Z</time>
      </trkpt>
      <trkpt lat="44.86642" lon="0.60542">
        <ele>113.9</ele>
        <time>2022-07-10T06:41:59Z</time>
      </trkpt>
      <trkpt lat="44.86642" lon="0.60552">
        <ele>115</ele>
        <time>2022-07-10T06:42:01Z</time>
      </trkpt>
      <trkpt lat="44.86639" lon="0.6056">
        <ele>115</ele>
        <time>2022-07-10T06:42:03Z</time>
      </trkpt>
      <trkpt lat="44.86638" lon="0.60571">
        <ele>116</ele>
        <time>2022-07-10T06:42:05Z</time>
      </trkpt>
      <trkpt lat="44.86637" lon="0.60581">
        <ele>116.8</ele>
        <time>2022-07-10T06:42:07Z</time>
      </trkpt>
      <trkpt lat="44.86635" lon="0.60587">
        <ele>116.8</ele>
        <time>2022-07-10T06:42:09Z</time>
      </trkpt>
      <trkpt lat="44.86633" lon="0.60596">
        <ele>118.1</ele>
        <time>2022-07-10T06:42:11Z</time>
      </trkpt>
      <trkpt lat="44.86631" lon="0.60605">
        <ele>118.6</ele>
        <time>2022-07-10T06:42:13Z</time>
      </trkpt>
      <trkpt lat="44.86631" lon="0.60614">
        <ele>118.9</ele>
        <time>2022-07-10T06:42:15Z</time>
      </trkpt>
      <trkpt lat="44.86631" lon="0.60623">
        <ele>118.9</ele>
        <time>2022-07-10T06:42:17Z</time>
      </trkpt>
      <trkpt lat="44.8663" lon="0.60627">
        <ele>118.9</ele>
        <time>2022-07-10T06:42:18Z</time>
      </trkpt>
      <trkpt lat="44.8663" lon="0.60631">
        <ele>118.9</ele>
        <time>2022-07-10T06:42:19Z</time>
      </trkpt>
      <trkpt lat="44.86632" lon="0.6064">
        <ele>118.9</ele>
        <time>2022-07-10T06:42:21Z</time>
      </trkpt>
      <trkpt lat="44.86636" lon="0.60649">
        <ele>117.6</ele>
        <time>2022-07-10T06:42:23Z</time>
      </trkpt>
      <trkpt lat="44.86637" lon="0.60656">
        <ele>117.6</ele>
        <time>2022-07-10T06:42:25Z</time>
      </trkpt>
      <trkpt lat="44.86637" lon="0.60663">
        <ele>117.6</ele>
        <time>2022-07-10T06:42:27Z</time>
      </trkpt>
      <trkpt lat="44.86637" lon="0.60671">
        <ele>117.8</ele>
        <time>2022-07-10T06:42:29Z</time>
      </trkpt>
      <trkpt lat="44.86638" lon="0.60676">
        <ele>117.8</ele>
        <time>2022-07-10T06:42:30Z</time>
      </trkpt>
      <trkpt lat="44.8664" lon="0.6068">
        <ele>117.8</ele>
        <time>2022-07-10T06:42:31Z</time>
      </trkpt>
      <trkpt lat="44.86641" lon="0.60683">
        <ele>118.1</ele>
        <time>2022-07-10T06:42:32Z</time>
      </trkpt>
      <trkpt lat="44.86641" lon="0.60687">
        <ele>118.1</ele>
        <time>2022-07-10T06:42:33Z</time>
      </trkpt>
      <trkpt lat="44.86637" lon="0.60699">
        <ele>118.1</ele>
        <time>2022-07-10T06:42:35Z</time>
      </trkpt>
      <trkpt lat="44.86635" lon="0.60704">
        <ele>118.4</ele>
        <time>2022-07-10T06:42:36Z</time>
      </trkpt>
      <trkpt lat="44.86633" lon="0.60708">
        <ele>119.8</ele>
        <time>2022-07-10T06:42:37Z</time>
      </trkpt>
      <trkpt lat="44.8663" lon="0.60712">
        <ele>119.8</ele>
        <time>2022-07-10T06:42:38Z</time>
      </trkpt>
      <trkpt lat="44.86628" lon="0.60713">
        <ele>119.8</ele>
        <time>2022-07-10T06:42:39Z</time>
      </trkpt>
      <trkpt lat="44.86624" lon="0.60716">
        <ele>119.8</ele>
        <time>2022-07-10T06:42:41Z</time>
      </trkpt>
      <trkpt lat="44.86619" lon="0.60719">
        <ele>121.3</ele>
        <time>2022-07-10T06:42:43Z</time>
      </trkpt>
      <trkpt lat="44.86614" lon="0.6072">
        <ele>121.3</ele>
        <time>2022-07-10T06:42:45Z</time>
      </trkpt>
      <trkpt lat="44.86613" lon="0.60721">
        <ele>121.3</ele>
        <time>2022-07-10T06:42:46Z</time>
      </trkpt>
      <trkpt lat="44.86611" lon="0.60723">
        <ele>121.3</ele>
        <time>2022-07-10T06:42:47Z</time>
      </trkpt>
      <trkpt lat="44.86609" lon="0.60725">
        <ele>121.3</ele>
        <time>2022-07-10T06:42:48Z</time>
      </trkpt>
      <trkpt lat="44.86608" lon="0.60725">
        <ele>122.4</ele>
        <time>2022-07-10T06:42:49Z</time>
      </trkpt>
      <trkpt lat="44.86606" lon="0.60724">
        <ele>122.4</ele>
        <time>2022-07-10T06:42:50Z</time>
      </trkpt>
      <trkpt lat="44.86605" lon="0.60723">
        <ele>122.4</ele>
        <time>2022-07-10T06:42:51Z</time>
      </trkpt>
      <trkpt lat="44.86601" lon="0.60723">
        <ele>122.4</ele>
        <time>2022-07-10T06:42:53Z</time>
      </trkpt>
      <trkpt lat="44.86597" lon="0.60722">
        <ele>122.4</ele>
        <time>2022-07-10T06:42:55Z</time>
      </trkpt>
      <trkpt lat="44.86592" lon="0.60722">
        <ele>123.3</ele>
        <time>2022-07-10T06:42:57Z</time>
      </trkpt>
      <trkpt lat="44.86589" lon="0.60723">
        <ele>123.3</ele>
        <time>2022-07-10T06:42:59Z</time>
      </trkpt>
      <trkpt lat="44.86587" lon="0.60723">
        <ele>123.3</ele>
        <time>2022-07-10T06:43:00Z</time>
      </trkpt>
      <trkpt lat="44.86585" lon="0.60723">
        <ele>123.3</ele>
        <time>2022-07-10T06:43:01Z</time>
      </trkpt>
      <trkpt lat="44.86581" lon="0.60722">
        <ele>124.3</ele>
        <time>2022-07-10T06:43:03Z</time>
      </trkpt>
      <trkpt lat="44.8658" lon="0.60722">
        <ele>124.3</ele>
        <time>2022-07-10T06:43:04Z</time>
      </trkpt>
      <trkpt lat="44.86579" lon="0.60723">
        <ele>124.3</ele>
        <time>2022-07-10T06:43:05Z</time>
      </trkpt>
      <trkpt lat="44.86577" lon="0.60724">
        <ele>124.3</ele>
        <time>2022-07-10T06:43:07Z</time>
      </trkpt>
      <trkpt lat="44.86574" lon="0.60724">
        <ele>124.3</ele>
        <time>2022-07-10T06:43:09Z</time>
      </trkpt>
      <trkpt lat="44.86572" lon="0.60725">
        <ele>125.1</ele>
        <time>2022-07-10T06:43:10Z</time>
      </trkpt>
      <trkpt lat="44.86571" lon="0.60725">
        <ele>125.1</ele>
        <time>2022-07-10T06:43:11Z</time>
      </trkpt>
      <trkpt lat="44.86567" lon="0.60726">
        <ele>125.1</ele>
        <time>2022-07-10T06:43:13Z</time>
      </trkpt>
      <trkpt lat="44.86563" lon="0.60729">
        <ele>125.1</ele>
        <time>2022-07-10T06:43:15Z</time>
      </trkpt>
      <trkpt lat="44.8656" lon="0.6073">
        <ele>125.7</ele>
        <time>2022-07-10T06:43:17Z</time>
      </trkpt>
      <trkpt lat="44.86557" lon="0.6073">
        <ele>125.7</ele>
        <time>2022-07-10T06:43:19Z</time>
      </trkpt>
      <trkpt lat="44.86555" lon="0.60729">
        <ele>125.7</ele>
        <time>2022-07-10T06:43:21Z</time>
      </trkpt>
      <trkpt lat="44.86551" lon="0.60729">
        <ele>125.7</ele>
        <time>2022-07-10T06:43:23Z</time>
      </trkpt>
      <trkpt lat="44.8655" lon="0.60729">
        <ele>125.7</ele>
        <time>2022-07-10T06:43:24Z</time>
      </trkpt>
      <trkpt lat="44.86549" lon="0.60729">
        <ele>125.7</ele>
        <time>2022-07-10T06:43:25Z</time>
      </trkpt>
      <trkpt lat="44.86547" lon="0.60729">
        <ele>126.3</ele>
        <time>2022-07-10T06:43:26Z</time>
      </trkpt>
      <trkpt lat="44.86545" lon="0.60729">
        <ele>126.2</ele>
        <time>2022-07-10T06:43:27Z</time>
      </trkpt>
      <trkpt lat="44.86542" lon="0.60729">
        <ele>126.2</ele>
        <time>2022-07-10T06:43:29Z</time>
      </trkpt>
      <trkpt lat="44.8654" lon="0.60729">
        <ele>126.2</ele>
        <time>2022-07-10T06:43:30Z</time>
      </trkpt>
      <trkpt lat="44.86538" lon="0.60729">
        <ele>126.2</ele>
        <time>2022-07-10T06:43:31Z</time>
      </trkpt>
      <trkpt lat="44.86537" lon="0.60732">
        <ele>126.2</ele>
        <time>2022-07-10T06:43:33Z</time>
      </trkpt>
      <trkpt lat="44.86535" lon="0.60734">
        <ele>127</ele>
        <time>2022-07-10T06:43:34Z</time>
      </trkpt>
      <trkpt lat="44.86534" lon="0.60736">
        <ele>127</ele>
        <time>2022-07-10T06:43:35Z</time>
      </trkpt>
      <trkpt lat="44.86533" lon="0.60737">
        <ele>127</ele>
        <time>2022-07-10T06:43:36Z</time>
      </trkpt>
      <trkpt lat="44.86532" lon="0.60739">
        <ele>127</ele>
        <time>2022-07-10T06:43:37Z</time>
      </trkpt>
      <trkpt lat="44.86531" lon="0.60744">
        <ele>127</ele>
        <time>2022-07-10T06:43:39Z</time>
      </trkpt>
      <trkpt lat="44.8653" lon="0.60748">
        <ele>127</ele>
        <time>2022-07-10T06:43:41Z</time>
      </trkpt>
      <trkpt lat="44.8653" lon="0.60753">
        <ele>127.5</ele>
        <time>2022-07-10T06:43:43Z</time>
      </trkpt>
      <trkpt lat="44.8653" lon="0.60757">
        <ele>127.5</ele>
        <time>2022-07-10T06:43:44Z</time>
      </trkpt>
      <trkpt lat="44.8653" lon="0.60761">
        <ele>127.5</ele>
        <time>2022-07-10T06:43:45Z</time>
      </trkpt>
      <trkpt lat="44.86531" lon="0.60769">
        <ele>127.9</ele>
        <time>2022-07-10T06:43:47Z</time>
      </trkpt>
      <trkpt lat="44.86532" lon="0.60777">
        <ele>127.9</ele>
        <time>2022-07-10T06:43:49Z</time>
      </trkpt>
      <trkpt lat="44.86532" lon="0.60782">
        <ele>127.9</ele>
        <time>2022-07-10T06:43:50Z</time>
      </trkpt>
      <trkpt lat="44.86532" lon="0.60787">
        <ele>128.4</ele>
        <time>2022-07-10T06:43:51Z</time>
      </trkpt>
      <trkpt lat="44.86532" lon="0.60798">
        <ele>128.4</ele>
        <time>2022-07-10T06:43:53Z</time>
      </trkpt>
      <trkpt lat="44.8653" lon="0.60806">
        <ele>128.8</ele>
        <time>2022-07-10T06:43:55Z</time>
      </trkpt>
      <trkpt lat="44.86528" lon="0.60814">
        <ele>128.8</ele>
        <time>2022-07-10T06:43:57Z</time>
      </trkpt>
      <trkpt lat="44.86526" lon="0.60822">
        <ele>129.1</ele>
        <time>2022-07-10T06:43:59Z</time>
      </trkpt>
      <trkpt lat="44.86525" lon="0.60826">
        <ele>129.1</ele>
        <time>2022-07-10T06:44:00Z</time>
      </trkpt>
      <trkpt lat="44.86524" lon="0.6083">
        <ele>129.1</ele>
        <time>2022-07-10T06:44:01Z</time>
      </trkpt>
      <trkpt lat="44.86524" lon="0.60839">
        <ele>129.4</ele>
        <time>2022-07-10T06:44:03Z</time>
      </trkpt>
      <trkpt lat="44.86524" lon="0.60846">
        <ele>129.4</ele>
        <time>2022-07-10T06:44:05Z</time>
      </trkpt>
      <trkpt lat="44.86523" lon="0.60853">
        <ele>129.8</ele>
        <time>2022-07-10T06:44:07Z</time>
      </trkpt>
      <trkpt lat="44.86521" lon="0.60861">
        <ele>130.1</ele>
        <time>2022-07-10T06:44:09Z</time>
      </trkpt>
      <trkpt lat="44.86519" lon="0.60865">
        <ele>130.1</ele>
        <time>2022-07-10T06:44:10Z</time>
      </trkpt>
      <trkpt lat="44.86519" lon="0.60868">
        <ele>130.1</ele>
        <time>2022-07-10T06:44:11Z</time>
      </trkpt>
      <trkpt lat="44.86519" lon="0.60875">
        <ele>130.5</ele>
        <time>2022-07-10T06:44:13Z</time>
      </trkpt>
      <trkpt lat="44.8652" lon="0.60878">
        <ele>130.5</ele>
        <time>2022-07-10T06:44:14Z</time>
      </trkpt>
      <trkpt lat="44.86523" lon="0.60881">
        <ele>130.5</ele>
        <time>2022-07-10T06:44:15Z</time>
      </trkpt>
      <trkpt lat="44.86527" lon="0.60889">
        <ele>130.6</ele>
        <time>2022-07-10T06:44:17Z</time>
      </trkpt>
      <trkpt lat="44.86527" lon="0.60892">
        <ele>130.6</ele>
        <time>2022-07-10T06:44:18Z</time>
      </trkpt>
      <trkpt lat="44.86527" lon="0.60895">
        <ele>130.6</ele>
        <time>2022-07-10T06:44:19Z</time>
      </trkpt>
      <trkpt lat="44.86527" lon="0.60902">
        <ele>130.6</ele>
        <time>2022-07-10T06:44:21Z</time>
      </trkpt>
      <trkpt lat="44.86527" lon="0.6091">
        <ele>131</ele>
        <time>2022-07-10T06:44:23Z</time>
      </trkpt>
      <trkpt lat="44.86527" lon="0.60918">
        <ele>131</ele>
        <time>2022-07-10T06:44:25Z</time>
      </trkpt>
      <trkpt lat="44.86528" lon="0.60925">
        <ele>131.3</ele>
        <time>2022-07-10T06:44:27Z</time>
      </trkpt>
      <trkpt lat="44.86528" lon="0.60932">
        <ele>131.3</ele>
        <time>2022-07-10T06:44:29Z</time>
      </trkpt>
      <trkpt lat="44.86528" lon="0.60936">
        <ele>131.3</ele>
        <time>2022-07-10T06:44:30Z</time>
      </trkpt>
      <trkpt lat="44.86529" lon="0.60938">
        <ele>131.3</ele>
        <time>2022-07-10T06:44:31Z</time>
      </trkpt>
      <trkpt lat="44.86529" lon="0.60941">
        <ele>131.5</ele>
        <time>2022-07-10T06:44:32Z</time>
      </trkpt>
      <trkpt lat="44.86528" lon="0.60944">
        <ele>131.5</ele>
        <time>2022-07-10T06:44:33Z</time>
      </trkpt>
      <trkpt lat="44.86528" lon="0.60949">
        <ele>131.5</ele>
        <time>2022-07-10T06:44:34Z</time>
      </trkpt>
      <trkpt lat="44.86529" lon="0.60952">
        <ele>131.5</ele>
        <time>2022-07-10T06:44:35Z</time>
      </trkpt>
      <trkpt lat="44.8653" lon="0.60959">
        <ele>131.5</ele>
        <time>2022-07-10T06:44:37Z</time>
      </trkpt>
      <trkpt lat="44.86531" lon="0.60962">
        <ele>131.5</ele>
        <time>2022-07-10T06:44:38Z</time>
      </trkpt>
      <trkpt lat="44.86533" lon="0.60965">
        <ele>131.5</ele>
        <time>2022-07-10T06:44:39Z</time>
      </trkpt>
      <trkpt lat="44.86535" lon="0.60973">
        <ele>131.5</ele>
        <time>2022-07-10T06:44:41Z</time>
      </trkpt>
      <trkpt lat="44.86535" lon="0.60977">
        <ele>131.6</ele>
        <time>2022-07-10T06:44:42Z</time>
      </trkpt>
      <trkpt lat="44.86535" lon="0.60979">
        <ele>131.6</ele>
        <time>2022-07-10T06:44:43Z</time>
      </trkpt>
      <trkpt lat="44.86534" lon="0.60986">
        <ele>131.6</ele>
        <time>2022-07-10T06:44:45Z</time>
      </trkpt>
      <trkpt lat="44.86533" lon="0.60989">
        <ele>131.6</ele>
        <time>2022-07-10T06:44:46Z</time>
      </trkpt>
      <trkpt lat="44.86532" lon="0.60991">
        <ele>131.6</ele>
        <time>2022-07-10T06:44:47Z</time>
      </trkpt>
      <trkpt lat="44.8653" lon="0.60997">
        <ele>131.6</ele>
        <time>2022-07-10T06:44:49Z</time>
      </trkpt>
      <trkpt lat="44.86528" lon="0.61002">
        <ele>131.6</ele>
        <time>2022-07-10T06:44:51Z</time>
      </trkpt>
      <trkpt lat="44.86527" lon="0.61004">
        <ele>131.6</ele>
        <time>2022-07-10T06:44:52Z</time>
      </trkpt>
      <trkpt lat="44.86527" lon="0.61007">
        <ele>131.6</ele>
        <time>2022-07-10T06:44:53Z</time>
      </trkpt>
      <trkpt lat="44.86524" lon="0.61014">
        <ele>131.6</ele>
        <time>2022-07-10T06:44:55Z</time>
      </trkpt>
      <trkpt lat="44.86522" lon="0.6102">
        <ele>131.4</ele>
        <time>2022-07-10T06:44:57Z</time>
      </trkpt>
      <trkpt lat="44.86519" lon="0.61024">
        <ele>131.4</ele>
        <time>2022-07-10T06:44:59Z</time>
      </trkpt>
      <trkpt lat="44.86516" lon="0.61028">
        <ele>131.5</ele>
        <time>2022-07-10T06:45:01Z</time>
      </trkpt>
      <trkpt lat="44.86515" lon="0.6103">
        <ele>131.5</ele>
        <time>2022-07-10T06:45:02Z</time>
      </trkpt>
      <trkpt lat="44.86514" lon="0.61032">
        <ele>131.5</ele>
        <time>2022-07-10T06:45:03Z</time>
      </trkpt>
      <trkpt lat="44.86513" lon="0.61038">
        <ele>131.5</ele>
        <time>2022-07-10T06:45:05Z</time>
      </trkpt>
      <trkpt lat="44.86513" lon="0.61045">
        <ele>131.7</ele>
        <time>2022-07-10T06:45:07Z</time>
      </trkpt>
      <trkpt lat="44.86513" lon="0.61053">
        <ele>131.7</ele>
        <time>2022-07-10T06:45:09Z</time>
      </trkpt>
      <trkpt lat="44.86513" lon="0.61062">
        <ele>131.8</ele>
        <time>2022-07-10T06:45:11Z</time>
      </trkpt>
      <trkpt lat="44.86513" lon="0.61067">
        <ele>131.8</ele>
        <time>2022-07-10T06:45:12Z</time>
      </trkpt>
      <trkpt lat="44.86512" lon="0.61071">
        <ele>131.8</ele>
        <time>2022-07-10T06:45:13Z</time>
      </trkpt>
      <trkpt lat="44.86511" lon="0.61079">
        <ele>132</ele>
        <time>2022-07-10T06:45:15Z</time>
      </trkpt>
      <trkpt lat="44.86511" lon="0.61088">
        <ele>132</ele>
        <time>2022-07-10T06:45:17Z</time>
      </trkpt>
      <trkpt lat="44.8651" lon="0.61093">
        <ele>132</ele>
        <time>2022-07-10T06:45:18Z</time>
      </trkpt>
      <trkpt lat="44.86503" lon="0.61096">
        <ele>132.2</ele>
        <time>2022-07-10T06:45:19Z</time>
      </trkpt>
      <trkpt lat="44.86503" lon="0.61099">
        <ele>132.2</ele>
        <time>2022-07-10T06:45:20Z</time>
      </trkpt>
      <trkpt lat="44.86504" lon="0.61102">
        <ele>132.2</ele>
        <time>2022-07-10T06:45:21Z</time>
      </trkpt>
      <trkpt lat="44.865" lon="0.61106">
        <ele>132.2</ele>
        <time>2022-07-10T06:45:23Z</time>
      </trkpt>
      <trkpt lat="44.86504" lon="0.61107">
        <ele>132.1</ele>
        <time>2022-07-10T06:45:25Z</time>
      </trkpt>
      <trkpt lat="44.86505" lon="0.61112">
        <ele>132.1</ele>
        <time>2022-07-10T06:45:26Z</time>
      </trkpt>
      <trkpt lat="44.86506" lon="0.61116">
        <ele>132.1</ele>
        <time>2022-07-10T06:45:27Z</time>
      </trkpt>
      <trkpt lat="44.86507" lon="0.61124">
        <ele>132.1</ele>
        <time>2022-07-10T06:45:29Z</time>
      </trkpt>
      <trkpt lat="44.86507" lon="0.61127">
        <ele>132.1</ele>
        <time>2022-07-10T06:45:30Z</time>
      </trkpt>
      <trkpt lat="44.86507" lon="0.61131">
        <ele>132</ele>
        <time>2022-07-10T06:45:31Z</time>
      </trkpt>
      <trkpt lat="44.86508" lon="0.61135">
        <ele>132</ele>
        <time>2022-07-10T06:45:32Z</time>
      </trkpt>
      <trkpt lat="44.86509" lon="0.61139">
        <ele>132</ele>
        <time>2022-07-10T06:45:33Z</time>
      </trkpt>
      <trkpt lat="44.86509" lon="0.61144">
        <ele>132</ele>
        <time>2022-07-10T06:45:34Z</time>
      </trkpt>
      <trkpt lat="44.8651" lon="0.61148">
        <ele>132</ele>
        <time>2022-07-10T06:45:35Z</time>
      </trkpt>
      <trkpt lat="44.8651" lon="0.61156">
        <ele>131.9</ele>
        <time>2022-07-10T06:45:37Z</time>
      </trkpt>
      <trkpt lat="44.86512" lon="0.61165">
        <ele>131.8</ele>
        <time>2022-07-10T06:45:39Z</time>
      </trkpt>
      <trkpt lat="44.86516" lon="0.61173">
        <ele>131.6</ele>
        <time>2022-07-10T06:45:41Z</time>
      </trkpt>
      <trkpt lat="44.86522" lon="0.6118">
        <ele>131.4</ele>
        <time>2022-07-10T06:45:43Z</time>
      </trkpt>
      <trkpt lat="44.86528" lon="0.61187">
        <ele>131.2</ele>
        <time>2022-07-10T06:45:45Z</time>
      </trkpt>
      <trkpt lat="44.86531" lon="0.61191">
        <ele>131.1</ele>
        <time>2022-07-10T06:45:46Z</time>
      </trkpt>
      <trkpt lat="44.86535" lon="0.61195">
        <ele>131</ele>
        <time>2022-07-10T06:45:47Z</time>
      </trkpt>
      <trkpt lat="44.86542" lon="0.61204">
        <ele>130.8</ele>
        <time>2022-07-10T06:45:49Z</time>
      </trkpt>
      <trkpt lat="44.86549" lon="0.61213">
        <ele>130.6</ele>
        <time>2022-07-10T06:45:51Z</time>
      </trkpt>
      <trkpt lat="44.86556" lon="0.61221">
        <ele>130.3</ele>
        <time>2022-07-10T06:45:53Z</time>
      </trkpt>
      <trkpt lat="44.86563" lon="0.61229">
        <ele>130.1</ele>
        <time>2022-07-10T06:45:55Z</time>
      </trkpt>
      <trkpt lat="44.8657" lon="0.61236">
        <ele>129.9</ele>
        <time>2022-07-10T06:45:57Z</time>
      </trkpt>
      <trkpt lat="44.86577" lon="0.61244">
        <ele>129.7</ele>
        <time>2022-07-10T06:45:59Z</time>
      </trkpt>
      <trkpt lat="44.8658" lon="0.61249">
        <ele>129.5</ele>
        <time>2022-07-10T06:46:00Z</time>
      </trkpt>
      <trkpt lat="44.86583" lon="0.61252">
        <ele>129.4</ele>
        <time>2022-07-10T06:46:01Z</time>
      </trkpt>
      <trkpt lat="44.8659" lon="0.6126">
        <ele>129</ele>
        <time>2022-07-10T06:46:03Z</time>
      </trkpt>
      <trkpt lat="44.86597" lon="0.61268">
        <ele>128.6</ele>
        <time>2022-07-10T06:46:05Z</time>
      </trkpt>
      <trkpt lat="44.86605" lon="0.61277">
        <ele>128.1</ele>
        <time>2022-07-10T06:46:07Z</time>
      </trkpt>
      <trkpt lat="44.86613" lon="0.61287">
        <ele>127.7</ele>
        <time>2022-07-10T06:46:09Z</time>
      </trkpt>
      <trkpt lat="44.86622" lon="0.61298">
        <ele>127.3</ele>
        <time>2022-07-10T06:46:11Z</time>
      </trkpt>
      <trkpt lat="44.86631" lon="0.61308">
        <ele>126.9</ele>
        <time>2022-07-10T06:46:13Z</time>
      </trkpt>
      <trkpt lat="44.8664" lon="0.61319">
        <ele>126.7</ele>
        <time>2022-07-10T06:46:15Z</time>
      </trkpt>
      <trkpt lat="44.86649" lon="0.61329">
        <ele>126.4</ele>
        <time>2022-07-10T06:46:17Z</time>
      </trkpt>
      <trkpt lat="44.86657" lon="0.61339">
        <ele>126.2</ele>
        <time>2022-07-10T06:46:19Z</time>
      </trkpt>
      <trkpt lat="44.86661" lon="0.61343">
        <ele>126.1</ele>
        <time>2022-07-10T06:46:20Z</time>
      </trkpt>
      <trkpt lat="44.86666" lon="0.61348">
        <ele>126</ele>
        <time>2022-07-10T06:46:21Z</time>
      </trkpt>
      <trkpt lat="44.86674" lon="0.61359">
        <ele>126</ele>
        <time>2022-07-10T06:46:23Z</time>
      </trkpt>
      <trkpt lat="44.86679" lon="0.61364">
        <ele>126</ele>
        <time>2022-07-10T06:46:24Z</time>
      </trkpt>
      <trkpt lat="44.86683" lon="0.61369">
        <ele>126</ele>
        <time>2022-07-10T06:46:25Z</time>
      </trkpt>
      <trkpt lat="44.86691" lon="0.61378">
        <ele>126.1</ele>
        <time>2022-07-10T06:46:27Z</time>
      </trkpt>
      <trkpt lat="44.86695" lon="0.61384">
        <ele>126.1</ele>
        <time>2022-07-10T06:46:28Z</time>
      </trkpt>
      <trkpt lat="44.86699" lon="0.61389">
        <ele>126.1</ele>
        <time>2022-07-10T06:46:29Z</time>
      </trkpt>
      <trkpt lat="44.86707" lon="0.61399">
        <ele>126.1</ele>
        <time>2022-07-10T06:46:31Z</time>
      </trkpt>
      <trkpt lat="44.86715" lon="0.61409">
        <ele>126.1</ele>
        <time>2022-07-10T06:46:33Z</time>
      </trkpt>
      <trkpt lat="44.86723" lon="0.6142">
        <ele>126</ele>
        <time>2022-07-10T06:46:35Z</time>
      </trkpt>
      <trkpt lat="44.86731" lon="0.61431">
        <ele>125.9</ele>
        <time>2022-07-10T06:46:37Z</time>
      </trkpt>
      <trkpt lat="44.8674" lon="0.61442">
        <ele>125.7</ele>
        <time>2022-07-10T06:46:39Z</time>
      </trkpt>
      <trkpt lat="44.86748" lon="0.61453">
        <ele>125.5</ele>
        <time>2022-07-10T06:46:41Z</time>
      </trkpt>
      <trkpt lat="44.86757" lon="0.61465">
        <ele>125.2</ele>
        <time>2022-07-10T06:46:43Z</time>
      </trkpt>
      <trkpt lat="44.86766" lon="0.61476">
        <ele>125</ele>
        <time>2022-07-10T06:46:45Z</time>
      </trkpt>
      <trkpt lat="44.86775" lon="0.61488">
        <ele>124.8</ele>
        <time>2022-07-10T06:46:47Z</time>
      </trkpt>
      <trkpt lat="44.8678" lon="0.61494">
        <ele>124.6</ele>
        <time>2022-07-10T06:46:48Z</time>
      </trkpt>
      <trkpt lat="44.86784" lon="0.615">
        <ele>124.5</ele>
        <time>2022-07-10T06:46:49Z</time>
      </trkpt>
      <trkpt lat="44.86793" lon="0.61511">
        <ele>124.3</ele>
        <time>2022-07-10T06:46:51Z</time>
      </trkpt>
      <trkpt lat="44.86801" lon="0.61521">
        <ele>124.2</ele>
        <time>2022-07-10T06:46:53Z</time>
      </trkpt>
      <trkpt lat="44.86809" lon="0.61531">
        <ele>124</ele>
        <time>2022-07-10T06:46:55Z</time>
      </trkpt>
      <trkpt lat="44.86818" lon="0.61542">
        <ele>123.9</ele>
        <time>2022-07-10T06:46:57Z</time>
      </trkpt>
      <trkpt lat="44.86826" lon="0.61552">
        <ele>123.9</ele>
        <time>2022-07-10T06:46:59Z</time>
      </trkpt>
      <trkpt lat="44.86834" lon="0.61562">
        <ele>124</ele>
        <time>2022-07-10T06:47:01Z</time>
      </trkpt>
      <trkpt lat="44.86842" lon="0.61572">
        <ele>124.2</ele>
        <time>2022-07-10T06:47:03Z</time>
      </trkpt>
      <trkpt lat="44.86849" lon="0.6158">
        <ele>124.5</ele>
        <time>2022-07-10T06:47:05Z</time>
      </trkpt>
      <trkpt lat="44.86852" lon="0.61584">
        <ele>124.6</ele>
        <time>2022-07-10T06:47:07Z</time>
      </trkpt>
      <trkpt lat="44.86854" lon="0.61586">
        <ele>124.7</ele>
        <time>2022-07-10T06:47:09Z</time>
      </trkpt>
      <trkpt lat="44.86856" lon="0.61588">
        <ele>124.7</ele>
        <time>2022-07-10T06:47:10Z</time>
      </trkpt>
      <trkpt lat="44.86858" lon="0.61591">
        <ele>124.8</ele>
        <time>2022-07-10T06:47:11Z</time>
      </trkpt>
      <trkpt lat="44.8686" lon="0.61597">
        <ele>124.9</ele>
        <time>2022-07-10T06:47:13Z</time>
      </trkpt>
      <trkpt lat="44.86863" lon="0.61604">
        <ele>124.9</ele>
        <time>2022-07-10T06:47:15Z</time>
      </trkpt>
      <trkpt lat="44.86865" lon="0.61608">
        <ele>125</ele>
        <time>2022-07-10T06:47:16Z</time>
      </trkpt>
      <trkpt lat="44.86866" lon="0.61612">
        <ele>125</ele>
        <time>2022-07-10T06:47:17Z</time>
      </trkpt>
      <trkpt lat="44.86868" lon="0.61619">
        <ele>125.1</ele>
        <time>2022-07-10T06:47:19Z</time>
      </trkpt>
      <trkpt lat="44.8687" lon="0.61627">
        <ele>125.2</ele>
        <time>2022-07-10T06:47:21Z</time>
      </trkpt>
      <trkpt lat="44.86871" lon="0.6163">
        <ele>125.3</ele>
        <time>2022-07-10T06:47:22Z</time>
      </trkpt>
      <trkpt lat="44.86873" lon="0.61634">
        <ele>125.3</ele>
        <time>2022-07-10T06:47:23Z</time>
      </trkpt>
      <trkpt lat="44.86875" lon="0.61643">
        <ele>125.4</ele>
        <time>2022-07-10T06:47:25Z</time>
      </trkpt>
      <trkpt lat="44.86879" lon="0.61653">
        <ele>125.5</ele>
        <time>2022-07-10T06:47:27Z</time>
      </trkpt>
      <trkpt lat="44.86882" lon="0.61662">
        <ele>125.6</ele>
        <time>2022-07-10T06:47:29Z</time>
      </trkpt>
      <trkpt lat="44.86885" lon="0.61672">
        <ele>125.7</ele>
        <time>2022-07-10T06:47:31Z</time>
      </trkpt>
      <trkpt lat="44.86888" lon="0.61682">
        <ele>125.8</ele>
        <time>2022-07-10T06:47:33Z</time>
      </trkpt>
      <trkpt lat="44.86891" lon="0.61692">
        <ele>125.8</ele>
        <time>2022-07-10T06:47:35Z</time>
      </trkpt>
      <trkpt lat="44.86892" lon="0.61697">
        <ele>125.8</ele>
        <time>2022-07-10T06:47:36Z</time>
      </trkpt>
      <trkpt lat="44.86894" lon="0.61702">
        <ele>125.8</ele>
        <time>2022-07-10T06:47:37Z</time>
      </trkpt>
      <trkpt lat="44.86897" lon="0.61713">
        <ele>125.7</ele>
        <time>2022-07-10T06:47:39Z</time>
      </trkpt>
      <trkpt lat="44.86901" lon="0.61725">
        <ele>125.6</ele>
        <time>2022-07-10T06:47:41Z</time>
      </trkpt>
      <trkpt lat="44.86903" lon="0.61731">
        <ele>125.5</ele>
        <time>2022-07-10T06:47:42Z</time>
      </trkpt>
      <trkpt lat="44.86905" lon="0.61737">
        <ele>125.4</ele>
        <time>2022-07-10T06:47:43Z</time>
      </trkpt>
      <trkpt lat="44.86909" lon="0.6175">
        <ele>125.2</ele>
        <time>2022-07-10T06:47:45Z</time>
      </trkpt>
      <trkpt lat="44.86913" lon="0.61763">
        <ele>125</ele>
        <time>2022-07-10T06:47:47Z</time>
      </trkpt>
      <trkpt lat="44.86917" lon="0.61777">
        <ele>124.7</ele>
        <time>2022-07-10T06:47:49Z</time>
      </trkpt>
      <trkpt lat="44.86922" lon="0.61791">
        <ele>124.3</ele>
        <time>2022-07-10T06:47:51Z</time>
      </trkpt>
      <trkpt lat="44.86926" lon="0.61804">
        <ele>123.7</ele>
        <time>2022-07-10T06:47:53Z</time>
      </trkpt>
      <trkpt lat="44.86932" lon="0.61819">
        <ele>123</ele>
        <time>2022-07-10T06:47:55Z</time>
      </trkpt>
      <trkpt lat="44.86941" lon="0.61833">
        <ele>122</ele>
        <time>2022-07-10T06:47:57Z</time>
      </trkpt>
      <trkpt lat="44.86952" lon="0.61849">
        <ele>120.8</ele>
        <time>2022-07-10T06:47:59Z</time>
      </trkpt>
      <trkpt lat="44.86963" lon="0.61865">
        <ele>119.8</ele>
        <time>2022-07-10T06:48:01Z</time>
      </trkpt>
      <trkpt lat="44.86975" lon="0.61883">
        <ele>119</ele>
        <time>2022-07-10T06:48:03Z</time>
      </trkpt>
      <trkpt lat="44.86982" lon="0.61893">
        <ele>118.7</ele>
        <time>2022-07-10T06:48:04Z</time>
      </trkpt>
      <trkpt lat="44.86988" lon="0.61902">
        <ele>118.6</ele>
        <time>2022-07-10T06:48:05Z</time>
      </trkpt>
      <trkpt lat="44.86999" lon="0.61918">
        <ele>119</ele>
        <time>2022-07-10T06:48:07Z</time>
      </trkpt>
      <trkpt lat="44.87004" lon="0.61925">
        <ele>119.3</ele>
        <time>2022-07-10T06:48:08Z</time>
      </trkpt>
      <trkpt lat="44.87008" lon="0.61931">
        <ele>119.6</ele>
        <time>2022-07-10T06:48:09Z</time>
      </trkpt>
      <trkpt lat="44.87014" lon="0.61939">
        <ele>119.9</ele>
        <time>2022-07-10T06:48:11Z</time>
      </trkpt>
      <trkpt lat="44.87017" lon="0.61942">
        <ele>120.1</ele>
        <time>2022-07-10T06:48:12Z</time>
      </trkpt>
      <trkpt lat="44.87019" lon="0.61945">
        <ele>120.1</ele>
        <time>2022-07-10T06:48:13Z</time>
      </trkpt>
      <trkpt lat="44.87025" lon="0.61951">
        <ele>120.2</ele>
        <time>2022-07-10T06:48:15Z</time>
      </trkpt>
      <trkpt lat="44.87031" lon="0.61959">
        <ele>120</ele>
        <time>2022-07-10T06:48:17Z</time>
      </trkpt>
      <trkpt lat="44.87039" lon="0.61968">
        <ele>119.5</ele>
        <time>2022-07-10T06:48:19Z</time>
      </trkpt>
      <trkpt lat="44.87048" lon="0.61979">
        <ele>118.7</ele>
        <time>2022-07-10T06:48:21Z</time>
      </trkpt>
      <trkpt lat="44.8706" lon="0.61993">
        <ele>117.7</ele>
        <time>2022-07-10T06:48:23Z</time>
      </trkpt>
      <trkpt lat="44.87071" lon="0.62006">
        <ele>116.8</ele>
        <time>2022-07-10T06:48:25Z</time>
      </trkpt>
      <trkpt lat="44.87081" lon="0.62022">
        <ele>115.8</ele>
        <time>2022-07-10T06:48:27Z</time>
      </trkpt>
      <trkpt lat="44.87087" lon="0.62029">
        <ele>115.4</ele>
        <time>2022-07-10T06:48:28Z</time>
      </trkpt>
      <trkpt lat="44.87092" lon="0.62037">
        <ele>114.9</ele>
        <time>2022-07-10T06:48:29Z</time>
      </trkpt>
      <trkpt lat="44.87101" lon="0.6205">
        <ele>114.1</ele>
        <time>2022-07-10T06:48:31Z</time>
      </trkpt>
      <trkpt lat="44.8711" lon="0.62063">
        <ele>113.3</ele>
        <time>2022-07-10T06:48:33Z</time>
      </trkpt>
      <trkpt lat="44.87115" lon="0.62069">
        <ele>113</ele>
        <time>2022-07-10T06:48:34Z</time>
      </trkpt>
      <trkpt lat="44.87119" lon="0.62075">
        <ele>112.8</ele>
        <time>2022-07-10T06:48:35Z</time>
      </trkpt>
      <trkpt lat="44.87121" lon="0.62078">
        <ele>112.7</ele>
        <time>2022-07-10T06:48:36Z</time>
      </trkpt>
      <trkpt lat="44.87125" lon="0.62077">
        <ele>112.5</ele>
        <time>2022-07-10T06:48:37Z</time>
      </trkpt>
      <trkpt lat="44.87128" lon="0.62074">
        <ele>112.4</ele>
        <time>2022-07-10T06:48:38Z</time>
      </trkpt>
      <trkpt lat="44.8713" lon="0.6207">
        <ele>112.4</ele>
        <time>2022-07-10T06:48:39Z</time>
      </trkpt>
      <trkpt lat="44.87139" lon="0.62061">
        <ele>112.3</ele>
        <time>2022-07-10T06:48:41Z</time>
      </trkpt>
      <trkpt lat="44.87147" lon="0.62057">
        <ele>112.3</ele>
        <time>2022-07-10T06:48:43Z</time>
      </trkpt>
      <trkpt lat="44.87156" lon="0.62052">
        <ele>112.4</ele>
        <time>2022-07-10T06:48:45Z</time>
      </trkpt>
      <trkpt lat="44.87164" lon="0.62047">
        <ele>112.6</ele>
        <time>2022-07-10T06:48:47Z</time>
      </trkpt>
      <trkpt lat="44.87173" lon="0.62044">
        <ele>112.8</ele>
        <time>2022-07-10T06:48:49Z</time>
      </trkpt>
      <trkpt lat="44.87181" lon="0.62041">
        <ele>113</ele>
        <time>2022-07-10T06:48:51Z</time>
      </trkpt>
      <trkpt lat="44.87189" lon="0.62039">
        <ele>113.2</ele>
        <time>2022-07-10T06:48:53Z</time>
      </trkpt>
      <trkpt lat="44.87198" lon="0.62038">
        <ele>113.4</ele>
        <time>2022-07-10T06:48:55Z</time>
      </trkpt>
      <trkpt lat="44.87202" lon="0.62038">
        <ele>113.5</ele>
        <time>2022-07-10T06:48:56Z</time>
      </trkpt>
      <trkpt lat="44.87207" lon="0.62037">
        <ele>113.7</ele>
        <time>2022-07-10T06:48:57Z</time>
      </trkpt>
      <trkpt lat="44.87214" lon="0.62037">
        <ele>113.9</ele>
        <time>2022-07-10T06:48:59Z</time>
      </trkpt>
      <trkpt lat="44.87219" lon="0.62037">
        <ele>114.1</ele>
        <time>2022-07-10T06:49:01Z</time>
      </trkpt>
      <trkpt lat="44.87225" lon="0.62037">
        <ele>114.3</ele>
        <time>2022-07-10T06:49:03Z</time>
      </trkpt>
      <trkpt lat="44.87228" lon="0.62037">
        <ele>114.4</ele>
        <time>2022-07-10T06:49:04Z</time>
      </trkpt>
      <trkpt lat="44.87231" lon="0.62038">
        <ele>114.5</ele>
        <time>2022-07-10T06:49:05Z</time>
      </trkpt>
      <trkpt lat="44.87237" lon="0.62038">
        <ele>114.7</ele>
        <time>2022-07-10T06:49:07Z</time>
      </trkpt>
      <trkpt lat="44.87244" lon="0.62039">
        <ele>115</ele>
        <time>2022-07-10T06:49:09Z</time>
      </trkpt>
      <trkpt lat="44.8725" lon="0.6204">
        <ele>115.2</ele>
        <time>2022-07-10T06:49:11Z</time>
      </trkpt>
      <trkpt lat="44.87257" lon="0.62041">
        <ele>115.4</ele>
        <time>2022-07-10T06:49:13Z</time>
      </trkpt>
      <trkpt lat="44.87266" lon="0.62042">
        <ele>115.8</ele>
        <time>2022-07-10T06:49:15Z</time>
      </trkpt>
      <trkpt lat="44.87275" lon="0.62043">
        <ele>116.1</ele>
        <time>2022-07-10T06:49:17Z</time>
      </trkpt>
      <trkpt lat="44.87282" lon="0.62044">
        <ele>116.6</ele>
        <time>2022-07-10T06:49:19Z</time>
      </trkpt>
      <trkpt lat="44.87288" lon="0.62045">
        <ele>116.9</ele>
        <time>2022-07-10T06:49:21Z</time>
      </trkpt>
      <trkpt lat="44.87293" lon="0.62045">
        <ele>117.1</ele>
        <time>2022-07-10T06:49:23Z</time>
      </trkpt>
      <trkpt lat="44.87298" lon="0.62046">
        <ele>117.4</ele>
        <time>2022-07-10T06:49:24Z</time>
      </trkpt>
      <trkpt lat="44.87303" lon="0.62047">
        <ele>117.7</ele>
        <time>2022-07-10T06:49:28Z</time>
      </trkpt>
      <trkpt lat="44.87308" lon="0.62047">
        <ele>118.1</ele>
        <time>2022-07-10T06:49:29Z</time>
      </trkpt>
      <trkpt lat="44.87318" lon="0.62048">
        <ele>118.8</ele>
        <time>2022-07-10T06:49:31Z</time>
      </trkpt>
      <trkpt lat="44.87325" lon="0.62049">
        <ele>119.3</ele>
        <time>2022-07-10T06:49:33Z</time>
      </trkpt>
      <trkpt lat="44.87327" lon="0.62049">
        <ele>119.5</ele>
        <time>2022-07-10T06:49:34Z</time>
      </trkpt>
      <trkpt lat="44.8733" lon="0.62049">
        <ele>119.7</ele>
        <time>2022-07-10T06:49:35Z</time>
      </trkpt>
      <trkpt lat="44.87336" lon="0.62048">
        <ele>120.2</ele>
        <time>2022-07-10T06:49:37Z</time>
      </trkpt>
      <trkpt lat="44.87338" lon="0.62047">
        <ele>120.4</ele>
        <time>2022-07-10T06:49:38Z</time>
      </trkpt>
      <trkpt lat="44.8734" lon="0.62047">
        <ele>120.6</ele>
        <time>2022-07-10T06:49:39Z</time>
      </trkpt>
      <trkpt lat="44.87345" lon="0.62046">
        <ele>120.9</ele>
        <time>2022-07-10T06:49:41Z</time>
      </trkpt>
      <trkpt lat="44.8735" lon="0.62045">
        <ele>121.3</ele>
        <time>2022-07-10T06:49:43Z</time>
      </trkpt>
      <trkpt lat="44.87355" lon="0.62044">
        <ele>121.7</ele>
        <time>2022-07-10T06:49:45Z</time>
      </trkpt>
      <trkpt lat="44.8736" lon="0.62042">
        <ele>122.1</ele>
        <time>2022-07-10T06:49:47Z</time>
      </trkpt>
      <trkpt lat="44.87365" lon="0.62041">
        <ele>122.4</ele>
        <time>2022-07-10T06:49:49Z</time>
      </trkpt>
      <trkpt lat="44.87369" lon="0.62039">
        <ele>122.7</ele>
        <time>2022-07-10T06:49:51Z</time>
      </trkpt>
      <trkpt lat="44.87375" lon="0.62037">
        <ele>123</ele>
        <time>2022-07-10T06:49:53Z</time>
      </trkpt>
      <trkpt lat="44.87379" lon="0.62035">
        <ele>123.3</ele>
        <time>2022-07-10T06:49:55Z</time>
      </trkpt>
      <trkpt lat="44.87385" lon="0.62032">
        <ele>123.6</ele>
        <time>2022-07-10T06:49:57Z</time>
      </trkpt>
      <trkpt lat="44.8739" lon="0.6203">
        <ele>123.8</ele>
        <time>2022-07-10T06:49:59Z</time>
      </trkpt>
      <trkpt lat="44.87395" lon="0.62028">
        <ele>124</ele>
        <time>2022-07-10T06:50:01Z</time>
      </trkpt>
      <trkpt lat="44.874" lon="0.62026">
        <ele>124.2</ele>
        <time>2022-07-10T06:50:03Z</time>
      </trkpt>
      <trkpt lat="44.87402" lon="0.62025">
        <ele>124.3</ele>
        <time>2022-07-10T06:50:04Z</time>
      </trkpt>
      <trkpt lat="44.8741" lon="0.62024">
        <ele>124.6</ele>
        <time>2022-07-10T06:50:05Z</time>
      </trkpt>
      <trkpt lat="44.87417" lon="0.62022">
        <ele>124.9</ele>
        <time>2022-07-10T06:50:06Z</time>
      </trkpt>
      <trkpt lat="44.87424" lon="0.62021">
        <ele>125.2</ele>
        <time>2022-07-10T06:50:07Z</time>
      </trkpt>
      <trkpt lat="44.87431" lon="0.6202">
        <ele>125.4</ele>
        <time>2022-07-10T06:50:08Z</time>
      </trkpt>
      <trkpt lat="44.87438" lon="0.62019">
        <ele>125.7</ele>
        <time>2022-07-10T06:50:21Z</time>
      </trkpt>
      <trkpt lat="44.87445" lon="0.62018">
        <ele>126</ele>
        <time>2022-07-10T06:50:22Z</time>
      </trkpt>
      <trkpt lat="44.87449" lon="0.62018">
        <ele>126.1</ele>
        <time>2022-07-10T06:50:23Z</time>
      </trkpt>
      <trkpt lat="44.87456" lon="0.62017">
        <ele>126.4</ele>
        <time>2022-07-10T06:50:25Z</time>
      </trkpt>
      <trkpt lat="44.87463" lon="0.62017">
        <ele>126.6</ele>
        <time>2022-07-10T06:50:27Z</time>
      </trkpt>
      <trkpt lat="44.87469" lon="0.62017">
        <ele>126.7</ele>
        <time>2022-07-10T06:50:29Z</time>
      </trkpt>
      <trkpt lat="44.87474" lon="0.62016">
        <ele>126.9</ele>
        <time>2022-07-10T06:50:31Z</time>
      </trkpt>
      <trkpt lat="44.8748" lon="0.62016">
        <ele>127.1</ele>
        <time>2022-07-10T06:50:33Z</time>
      </trkpt>
      <trkpt lat="44.87486" lon="0.62016">
        <ele>127.3</ele>
        <time>2022-07-10T06:50:35Z</time>
      </trkpt>
      <trkpt lat="44.87492" lon="0.62016">
        <ele>127.4</ele>
        <time>2022-07-10T06:50:37Z</time>
      </trkpt>
      <trkpt lat="44.87497" lon="0.62015">
        <ele>127.5</ele>
        <time>2022-07-10T06:50:39Z</time>
      </trkpt>
      <trkpt lat="44.87503" lon="0.62015">
        <ele>127.7</ele>
        <time>2022-07-10T06:50:41Z</time>
      </trkpt>
      <trkpt lat="44.87506" lon="0.62015">
        <ele>127.8</ele>
        <time>2022-07-10T06:50:42Z</time>
      </trkpt>
      <trkpt lat="44.87509" lon="0.62014">
        <ele>127.9</ele>
        <time>2022-07-10T06:50:43Z</time>
      </trkpt>
      <trkpt lat="44.87514" lon="0.62013">
        <ele>128</ele>
        <time>2022-07-10T06:50:45Z</time>
      </trkpt>
      <trkpt lat="44.8752" lon="0.62012">
        <ele>128.2</ele>
        <time>2022-07-10T06:50:47Z</time>
      </trkpt>
      <trkpt lat="44.87526" lon="0.62011">
        <ele>128.4</ele>
        <time>2022-07-10T06:50:49Z</time>
      </trkpt>
      <trkpt lat="44.87532" lon="0.6201">
        <ele>128.6</ele>
        <time>2022-07-10T06:50:51Z</time>
      </trkpt>
      <trkpt lat="44.87537" lon="0.62009">
        <ele>128.8</ele>
        <time>2022-07-10T06:50:53Z</time>
      </trkpt>
      <trkpt lat="44.87543" lon="0.62008">
        <ele>129</ele>
        <time>2022-07-10T06:50:55Z</time>
      </trkpt>
      <trkpt lat="44.87549" lon="0.62007">
        <ele>129.2</ele>
        <time>2022-07-10T06:50:57Z</time>
      </trkpt>
      <trkpt lat="44.87554" lon="0.62006">
        <ele>129.3</ele>
        <time>2022-07-10T06:50:59Z</time>
      </trkpt>
      <trkpt lat="44.87559" lon="0.62005">
        <ele>129.5</ele>
        <time>2022-07-10T06:51:01Z</time>
      </trkpt>
      <trkpt lat="44.87564" lon="0.62004">
        <ele>129.7</ele>
        <time>2022-07-10T06:51:03Z</time>
      </trkpt>
      <trkpt lat="44.87567" lon="0.62004">
        <ele>129.8</ele>
        <time>2022-07-10T06:51:04Z</time>
      </trkpt>
      <trkpt lat="44.8757" lon="0.62004">
        <ele>129.9</ele>
        <time>2022-07-10T06:51:05Z</time>
      </trkpt>
      <trkpt lat="44.87575" lon="0.62003">
        <ele>130</ele>
        <time>2022-07-10T06:51:07Z</time>
      </trkpt>
      <trkpt lat="44.87577" lon="0.62003">
        <ele>130.1</ele>
        <time>2022-07-10T06:51:08Z</time>
      </trkpt>
      <trkpt lat="44.87579" lon="0.62003">
        <ele>130.2</ele>
        <time>2022-07-10T06:51:09Z</time>
      </trkpt>
      <trkpt lat="44.87585" lon="0.62003">
        <ele>130.4</ele>
        <time>2022-07-10T06:51:11Z</time>
      </trkpt>
      <trkpt lat="44.8759" lon="0.62002">
        <ele>130.6</ele>
        <time>2022-07-10T06:51:13Z</time>
      </trkpt>
      <trkpt lat="44.87593" lon="0.62002">
        <ele>130.7</ele>
        <time>2022-07-10T06:51:14Z</time>
      </trkpt>
      <trkpt lat="44.87596" lon="0.62002">
        <ele>130.8</ele>
        <time>2022-07-10T06:51:15Z</time>
      </trkpt>
      <trkpt lat="44.87602" lon="0.62002">
        <ele>131</ele>
        <time>2022-07-10T06:51:17Z</time>
      </trkpt>
      <trkpt lat="44.87607" lon="0.62001">
        <ele>131.3</ele>
        <time>2022-07-10T06:51:19Z</time>
      </trkpt>
      <trkpt lat="44.8761" lon="0.62001">
        <ele>131.4</ele>
        <time>2022-07-10T06:51:20Z</time>
      </trkpt>
      <trkpt lat="44.87613" lon="0.62001">
        <ele>131.5</ele>
        <time>2022-07-10T06:51:21Z</time>
      </trkpt>
      <trkpt lat="44.87619" lon="0.62">
        <ele>131.8</ele>
        <time>2022-07-10T06:51:23Z</time>
      </trkpt>
      <trkpt lat="44.87622" lon="0.62">
        <ele>131.9</ele>
        <time>2022-07-10T06:51:24Z</time>
      </trkpt>
      <trkpt lat="44.87628" lon="0.62002">
        <ele>132.2</ele>
        <time>2022-07-10T06:51:25Z</time>
      </trkpt>
      <trkpt lat="44.87632" lon="0.62005">
        <ele>132.4</ele>
        <time>2022-07-10T06:51:27Z</time>
      </trkpt>
      <trkpt lat="44.87635" lon="0.62004">
        <ele>132.8</ele>
        <time>2022-07-10T06:51:29Z</time>
      </trkpt>
      <trkpt lat="44.87638" lon="0.62002">
        <ele>133</ele>
        <time>2022-07-10T06:51:31Z</time>
      </trkpt>
      <trkpt lat="44.87641" lon="0.62001">
        <ele>133.1</ele>
        <time>2022-07-10T06:51:33Z</time>
      </trkpt>
      <trkpt lat="44.87644" lon="0.62">
        <ele>133.5</ele>
        <time>2022-07-10T06:51:35Z</time>
      </trkpt>
      <trkpt lat="44.87647" lon="0.61998">
        <ele>133.7</ele>
        <time>2022-07-10T06:51:37Z</time>
      </trkpt>
      <trkpt lat="44.8765" lon="0.61997">
        <ele>133.8</ele>
        <time>2022-07-10T06:51:39Z</time>
      </trkpt>
      <trkpt lat="44.87673" lon="0.61993">
        <ele>134</ele>
        <time>2022-07-10T06:51:41Z</time>
      </trkpt>
      <trkpt lat="44.87672" lon="0.61998">
        <ele>133.9</ele>
        <time>2022-07-10T06:51:43Z</time>
      </trkpt>
      <trkpt lat="44.87672" lon="0.61995">
        <ele>133.8</ele>
        <time>2022-07-10T06:51:44Z</time>
      </trkpt>
      <trkpt lat="44.87673" lon="0.61993">
        <ele>133.8</ele>
        <time>2022-07-10T06:51:45Z</time>
      </trkpt>
      <trkpt lat="44.87673" lon="0.61993">
        <ele>133.8</ele>
        <time>2022-07-10T06:51:46Z</time>
      </trkpt>
      <trkpt lat="44.87674" lon="0.61994">
        <ele>133.7</ele>
        <time>2022-07-10T06:51:47Z</time>
      </trkpt>
      <trkpt lat="44.87676" lon="0.61994">
        <ele>133.7</ele>
        <time>2022-07-10T06:51:48Z</time>
      </trkpt>
      <trkpt lat="44.87678" lon="0.61994">
        <ele>133.6</ele>
        <time>2022-07-10T06:51:49Z</time>
      </trkpt>
      <trkpt lat="44.87686" lon="0.61996">
        <ele>133.3</ele>
        <time>2022-07-10T06:51:51Z</time>
      </trkpt>
      <trkpt lat="44.87694" lon="0.61998">
        <ele>132.9</ele>
        <time>2022-07-10T06:51:53Z</time>
      </trkpt>
      <trkpt lat="44.87699" lon="0.61999">
        <ele>132.8</ele>
        <time>2022-07-10T06:51:54Z</time>
      </trkpt>
      <trkpt lat="44.87703" lon="0.61999">
        <ele>132.6</ele>
        <time>2022-07-10T06:51:55Z</time>
      </trkpt>
      <trkpt lat="44.87706" lon="0.61999">
        <ele>132.5</ele>
        <time>2022-07-10T06:51:56Z</time>
      </trkpt>
      <trkpt lat="44.87709" lon="0.61997">
        <ele>132.3</ele>
        <time>2022-07-10T06:51:57Z</time>
      </trkpt>
      <trkpt lat="44.87715" lon="0.61992">
        <ele>132.1</ele>
        <time>2022-07-10T06:51:58Z</time>
      </trkpt>
      <trkpt lat="44.87715" lon="0.61992">
        <ele>132.1</ele>
        <time>2022-07-10T06:51:59Z</time>
      </trkpt>
      <trkpt lat="44.8772" lon="0.61984">
        <ele>131.9</ele>
        <time>2022-07-10T06:52:01Z</time>
      </trkpt>
      <trkpt lat="44.87724" lon="0.61977">
        <ele>131.7</ele>
        <time>2022-07-10T06:52:03Z</time>
      </trkpt>
      <trkpt lat="44.87726" lon="0.6197">
        <ele>131.7</ele>
        <time>2022-07-10T06:52:05Z</time>
      </trkpt>
      <trkpt lat="44.87727" lon="0.61966">
        <ele>131.6</ele>
        <time>2022-07-10T06:52:06Z</time>
      </trkpt>
      <trkpt lat="44.87728" lon="0.61959">
        <ele>131.6</ele>
        <time>2022-07-10T06:52:07Z</time>
      </trkpt>
      <trkpt lat="44.87728" lon="0.61952">
        <ele>131.6</ele>
        <time>2022-07-10T06:52:08Z</time>
      </trkpt>
      <trkpt lat="44.87728" lon="0.61952">
        <ele>131.6</ele>
        <time>2022-07-10T06:52:09Z</time>
      </trkpt>
      <trkpt lat="44.87729" lon="0.61944">
        <ele>131.6</ele>
        <time>2022-07-10T06:52:11Z</time>
      </trkpt>
      <trkpt lat="44.87725" lon="0.61929">
        <ele>131.9</ele>
        <time>2022-07-10T06:52:13Z</time>
      </trkpt>
      <trkpt lat="44.87721" lon="0.61928">
        <ele>132</ele>
        <time>2022-07-10T06:52:15Z</time>
      </trkpt>
      <trkpt lat="44.87719" lon="0.61928">
        <ele>132.2</ele>
        <time>2022-07-10T06:52:16Z</time>
      </trkpt>
      <trkpt lat="44.87717" lon="0.61928">
        <ele>132.2</ele>
        <time>2022-07-10T06:52:17Z</time>
      </trkpt>
      <trkpt lat="44.87715" lon="0.61928">
        <ele>132.4</ele>
        <time>2022-07-10T06:52:19Z</time>
      </trkpt>
      <trkpt lat="44.87705" lon="0.6191">
        <ele>133.3</ele>
        <time>2022-07-10T06:52:21Z</time>
      </trkpt>
      <trkpt lat="44.87706" lon="0.61907">
        <ele>133.3</ele>
        <time>2022-07-10T06:52:23Z</time>
      </trkpt>
      <trkpt lat="44.87708" lon="0.61899">
        <ele>133.4</ele>
        <time>2022-07-10T06:52:25Z</time>
      </trkpt>
      <trkpt lat="44.8771" lon="0.61892">
        <ele>133.5</ele>
        <time>2022-07-10T06:52:27Z</time>
      </trkpt>
      <trkpt lat="44.87712" lon="0.61885">
        <ele>133.6</ele>
        <time>2022-07-10T06:52:29Z</time>
      </trkpt>
      <trkpt lat="44.87714" lon="0.61878">
        <ele>133.6</ele>
        <time>2022-07-10T06:52:31Z</time>
      </trkpt>
      <trkpt lat="44.87717" lon="0.61869">
        <ele>133.7</ele>
        <time>2022-07-10T06:52:33Z</time>
      </trkpt>
      <trkpt lat="44.87719" lon="0.61861">
        <ele>133.8</ele>
        <time>2022-07-10T06:52:35Z</time>
      </trkpt>
      <trkpt lat="44.87721" lon="0.61854">
        <ele>133.9</ele>
        <time>2022-07-10T06:52:37Z</time>
      </trkpt>
      <trkpt lat="44.87722" lon="0.6185">
        <ele>134</ele>
        <time>2022-07-10T06:52:38Z</time>
      </trkpt>
      <trkpt lat="44.87723" lon="0.61846">
        <ele>134</ele>
        <time>2022-07-10T06:52:39Z</time>
      </trkpt>
      <trkpt lat="44.87726" lon="0.61838">
        <ele>134.2</ele>
        <time>2022-07-10T06:52:41Z</time>
      </trkpt>
      <trkpt lat="44.87727" lon="0.61833">
        <ele>134.3</ele>
        <time>2022-07-10T06:52:42Z</time>
      </trkpt>
      <trkpt lat="44.87729" lon="0.61827">
        <ele>134.4</ele>
        <time>2022-07-10T06:52:43Z</time>
      </trkpt>
      <trkpt lat="44.87731" lon="0.61818">
        <ele>134.6</ele>
        <time>2022-07-10T06:52:45Z</time>
      </trkpt>
      <trkpt lat="44.87734" lon="0.61809">
        <ele>134.7</ele>
        <time>2022-07-10T06:52:47Z</time>
      </trkpt>
      <trkpt lat="44.87736" lon="0.618">
        <ele>134.8</ele>
        <time>2022-07-10T06:52:49Z</time>
      </trkpt>
      <trkpt lat="44.8774" lon="0.6179">
        <ele>135</ele>
        <time>2022-07-10T06:52:51Z</time>
      </trkpt>
      <trkpt lat="44.87743" lon="0.6178">
        <ele>135.1</ele>
        <time>2022-07-10T06:52:53Z</time>
      </trkpt>
      <trkpt lat="44.87747" lon="0.6177">
        <ele>135.3</ele>
        <time>2022-07-10T06:52:55Z</time>
      </trkpt>
      <trkpt lat="44.8775" lon="0.6176">
        <ele>135.4</ele>
        <time>2022-07-10T06:52:57Z</time>
      </trkpt>
      <trkpt lat="44.87754" lon="0.61749">
        <ele>135.4</ele>
        <time>2022-07-10T06:52:59Z</time>
      </trkpt>
      <trkpt lat="44.87756" lon="0.61744">
        <ele>135.3</ele>
        <time>2022-07-10T06:53:00Z</time>
      </trkpt>
      <trkpt lat="44.87759" lon="0.61738">
        <ele>135.3</ele>
        <time>2022-07-10T06:53:01Z</time>
      </trkpt>
      <trkpt lat="44.87763" lon="0.61726">
        <ele>135</ele>
        <time>2022-07-10T06:53:03Z</time>
      </trkpt>
      <trkpt lat="44.87765" lon="0.6172">
        <ele>134.9</ele>
        <time>2022-07-10T06:53:04Z</time>
      </trkpt>
      <trkpt lat="44.87767" lon="0.61714">
        <ele>134.7</ele>
        <time>2022-07-10T06:53:05Z</time>
      </trkpt>
      <trkpt lat="44.87774" lon="0.61703">
        <ele>134.2</ele>
        <time>2022-07-10T06:53:07Z</time>
      </trkpt>
      <trkpt lat="44.87782" lon="0.61693">
        <ele>133.6</ele>
        <time>2022-07-10T06:53:09Z</time>
      </trkpt>
      <trkpt lat="44.87786" lon="0.61687">
        <ele>133.3</ele>
        <time>2022-07-10T06:53:10Z</time>
      </trkpt>
      <trkpt lat="44.87791" lon="0.61682">
        <ele>133</ele>
        <time>2022-07-10T06:53:11Z</time>
      </trkpt>
      <trkpt lat="44.87799" lon="0.61669">
        <ele>132.4</ele>
        <time>2022-07-10T06:53:13Z</time>
      </trkpt>
      <trkpt lat="44.87801" lon="0.61662">
        <ele>132.1</ele>
        <time>2022-07-10T06:53:14Z</time>
      </trkpt>
      <trkpt lat="44.87803" lon="0.61655">
        <ele>131.9</ele>
        <time>2022-07-10T06:53:15Z</time>
      </trkpt>
      <trkpt lat="44.87806" lon="0.61648">
        <ele>131.6</ele>
        <time>2022-07-10T06:53:16Z</time>
      </trkpt>
      <trkpt lat="44.87806" lon="0.61642">
        <ele>131.5</ele>
        <time>2022-07-10T06:53:17Z</time>
      </trkpt>
      <trkpt lat="44.87807" lon="0.61624">
        <ele>131.2</ele>
        <time>2022-07-10T06:53:19Z</time>
      </trkpt>
      <trkpt lat="44.87807" lon="0.61606">
        <ele>131</ele>
        <time>2022-07-10T06:53:21Z</time>
      </trkpt>
      <trkpt lat="44.87807" lon="0.61588">
        <ele>130.6</ele>
        <time>2022-07-10T06:53:23Z</time>
      </trkpt>
      <trkpt lat="44.87804" lon="0.6157">
        <ele>130</ele>
        <time>2022-07-10T06:53:25Z</time>
      </trkpt>
      <trkpt lat="44.87802" lon="0.61561">
        <ele>129.7</ele>
        <time>2022-07-10T06:53:26Z</time>
      </trkpt>
      <trkpt lat="44.87799" lon="0.61552">
        <ele>129.4</ele>
        <time>2022-07-10T06:53:27Z</time>
      </trkpt>
      <trkpt lat="44.87794" lon="0.61534">
        <ele>128.8</ele>
        <time>2022-07-10T06:53:29Z</time>
      </trkpt>
      <trkpt lat="44.87792" lon="0.61526">
        <ele>128.5</ele>
        <time>2022-07-10T06:53:30Z</time>
      </trkpt>
      <trkpt lat="44.87789" lon="0.61516">
        <ele>128.2</ele>
        <time>2022-07-10T06:53:31Z</time>
      </trkpt>
      <trkpt lat="44.87784" lon="0.61497">
        <ele>127.7</ele>
        <time>2022-07-10T06:53:33Z</time>
      </trkpt>
      <trkpt lat="44.87778" lon="0.61477">
        <ele>127.2</ele>
        <time>2022-07-10T06:53:35Z</time>
      </trkpt>
      <trkpt lat="44.87772" lon="0.61458">
        <ele>126.6</ele>
        <time>2022-07-10T06:53:37Z</time>
      </trkpt>
      <trkpt lat="44.8777" lon="0.61448">
        <ele>126.4</ele>
        <time>2022-07-10T06:53:38Z</time>
      </trkpt>
      <trkpt lat="44.87767" lon="0.61438">
        <ele>126.1</ele>
        <time>2022-07-10T06:53:39Z</time>
      </trkpt>
      <trkpt lat="44.87761" lon="0.61419">
        <ele>125.7</ele>
        <time>2022-07-10T06:53:41Z</time>
      </trkpt>
      <trkpt lat="44.87756" lon="0.614">
        <ele>125.4</ele>
        <time>2022-07-10T06:53:43Z</time>
      </trkpt>
      <trkpt lat="44.87749" lon="0.61381">
        <ele>125.2</ele>
        <time>2022-07-10T06:53:45Z</time>
      </trkpt>
      <trkpt lat="44.87746" lon="0.61372">
        <ele>125.1</ele>
        <time>2022-07-10T06:53:46Z</time>
      </trkpt>
      <trkpt lat="44.87743" lon="0.61363">
        <ele>125.1</ele>
        <time>2022-07-10T06:53:47Z</time>
      </trkpt>
      <trkpt lat="44.87738" lon="0.61344">
        <ele>125</ele>
        <time>2022-07-10T06:53:49Z</time>
      </trkpt>
      <trkpt lat="44.87733" lon="0.61326">
        <ele>125</ele>
        <time>2022-07-10T06:53:51Z</time>
      </trkpt>
      <trkpt lat="44.87732" lon="0.61317">
        <ele>125</ele>
        <time>2022-07-10T06:53:52Z</time>
      </trkpt>
      <trkpt lat="44.8773" lon="0.61308">
        <ele>125</ele>
        <time>2022-07-10T06:53:53Z</time>
      </trkpt>
      <trkpt lat="44.87728" lon="0.61291">
        <ele>125.1</ele>
        <time>2022-07-10T06:53:55Z</time>
      </trkpt>
      <trkpt lat="44.87725" lon="0.61276">
        <ele>125.3</ele>
        <time>2022-07-10T06:53:57Z</time>
      </trkpt>
      <trkpt lat="44.87724" lon="0.61269">
        <ele>125.4</ele>
        <time>2022-07-10T06:53:58Z</time>
      </trkpt>
      <trkpt lat="44.87722" lon="0.61262">
        <ele>125.4</ele>
        <time>2022-07-10T06:53:59Z</time>
      </trkpt>
      <trkpt lat="44.87725" lon="0.61254">
        <ele>125.4</ele>
        <time>2022-07-10T06:54:00Z</time>
      </trkpt>
      <trkpt lat="44.8773" lon="0.6125">
        <ele>124.9</ele>
        <time>2022-07-10T06:54:01Z</time>
      </trkpt>
      <trkpt lat="44.87734" lon="0.61245">
        <ele>124.2</ele>
        <time>2022-07-10T06:54:03Z</time>
      </trkpt>
      <trkpt lat="44.87735" lon="0.61241">
        <ele>124.1</ele>
        <time>2022-07-10T06:54:04Z</time>
      </trkpt>
      <trkpt lat="44.87734" lon="0.61237">
        <ele>124.1</ele>
        <time>2022-07-10T06:54:05Z</time>
      </trkpt>
      <trkpt lat="44.87735" lon="0.61233">
        <ele>124.1</ele>
        <time>2022-07-10T06:54:06Z</time>
      </trkpt>
      <trkpt lat="44.87735" lon="0.61229">
        <ele>123.4</ele>
        <time>2022-07-10T06:54:07Z</time>
      </trkpt>
      <trkpt lat="44.87736" lon="0.61223">
        <ele>123.4</ele>
        <time>2022-07-10T06:54:09Z</time>
      </trkpt>
      <trkpt lat="44.87738" lon="0.61219">
        <ele>123.4</ele>
        <time>2022-07-10T06:54:10Z</time>
      </trkpt>
      <trkpt lat="44.8774" lon="0.61216">
        <ele>123.3</ele>
        <time>2022-07-10T06:54:11Z</time>
      </trkpt>
      <trkpt lat="44.87744" lon="0.6121">
        <ele>122.3</ele>
        <time>2022-07-10T06:54:13Z</time>
      </trkpt>
      <trkpt lat="44.87744" lon="0.61209">
        <ele>122.2</ele>
        <time>2022-07-10T06:54:14Z</time>
      </trkpt>
      <trkpt lat="44.87744" lon="0.61206">
        <ele>122.2</ele>
        <time>2022-07-10T06:54:15Z</time>
      </trkpt>
      <trkpt lat="44.87739" lon="0.61203">
        <ele>122.5</ele>
        <time>2022-07-10T06:54:17Z</time>
      </trkpt>
      <trkpt lat="44.87735" lon="0.61198">
        <ele>122.5</ele>
        <time>2022-07-10T06:54:19Z</time>
      </trkpt>
      <trkpt lat="44.87733" lon="0.61191">
        <ele>121.5</ele>
        <time>2022-07-10T06:54:21Z</time>
      </trkpt>
      <trkpt lat="44.87732" lon="0.61184">
        <ele>121.5</ele>
        <time>2022-07-10T06:54:23Z</time>
      </trkpt>
      <trkpt lat="44.87732" lon="0.61177">
        <ele>120.7</ele>
        <time>2022-07-10T06:54:25Z</time>
      </trkpt>
      <trkpt lat="44.87735" lon="0.61169">
        <ele>120.7</ele>
        <time>2022-07-10T06:54:27Z</time>
      </trkpt>
      <trkpt lat="44.87737" lon="0.61161">
        <ele>120.1</ele>
        <time>2022-07-10T06:54:29Z</time>
      </trkpt>
      <trkpt lat="44.87738" lon="0.61149">
        <ele>120.1</ele>
        <time>2022-07-10T06:54:31Z</time>
      </trkpt>
      <trkpt lat="44.87738" lon="0.61146">
        <ele>119.8</ele>
        <time>2022-07-10T06:54:32Z</time>
      </trkpt>
      <trkpt lat="44.87737" lon="0.61143">
        <ele>119.8</ele>
        <time>2022-07-10T06:54:33Z</time>
      </trkpt>
      <trkpt lat="44.87737" lon="0.61141">
        <ele>119.8</ele>
        <time>2022-07-10T06:54:34Z</time>
      </trkpt>
      <trkpt lat="44.87735" lon="0.61138">
        <ele>119.8</ele>
        <time>2022-07-10T06:54:35Z</time>
      </trkpt>
      <trkpt lat="44.87735" lon="0.61131">
        <ele>119.8</ele>
        <time>2022-07-10T06:54:37Z</time>
      </trkpt>
      <trkpt lat="44.8774" lon="0.61122">
        <ele>119.5</ele>
        <time>2022-07-10T06:54:39Z</time>
      </trkpt>
      <trkpt lat="44.87744" lon="0.61119">
        <ele>119.6</ele>
        <time>2022-07-10T06:54:40Z</time>
      </trkpt>
      <trkpt lat="44.87749" lon="0.61117">
        <ele>119.6</ele>
        <time>2022-07-10T06:54:41Z</time>
      </trkpt>
      <trkpt lat="44.87754" lon="0.6111">
        <ele>119.3</ele>
        <time>2022-07-10T06:54:43Z</time>
      </trkpt>
      <trkpt lat="44.87751" lon="0.611">
        <ele>119.2</ele>
        <time>2022-07-10T06:54:44Z</time>
      </trkpt>
      <trkpt lat="44.87754" lon="0.61099">
        <ele>119.3</ele>
        <time>2022-07-10T06:54:45Z</time>
      </trkpt>
      <trkpt lat="44.8776" lon="0.61097">
        <ele>119.3</ele>
        <time>2022-07-10T06:54:47Z</time>
      </trkpt>
      <trkpt lat="44.87762" lon="0.61096">
        <ele>119.3</ele>
        <time>2022-07-10T06:54:48Z</time>
      </trkpt>
      <trkpt lat="44.87764" lon="0.61095">
        <ele>119.3</ele>
        <time>2022-07-10T06:54:49Z</time>
      </trkpt>
      <trkpt lat="44.87768" lon="0.61105">
        <ele>119.4</ele>
        <time>2022-07-10T06:54:51Z</time>
      </trkpt>
      <trkpt lat="44.87768" lon="0.61105">
        <ele>119.4</ele>
        <time>2022-07-10T06:54:52Z</time>
      </trkpt>
      <trkpt lat="44.87768" lon="0.61108">
        <ele>119.4</ele>
        <time>2022-07-10T06:54:54Z</time>
      </trkpt>
      <trkpt lat="44.87769" lon="0.6111">
        <ele>119.4</ele>
        <time>2022-07-10T06:54:55Z</time>
      </trkpt>
      <trkpt lat="44.87768" lon="0.61112">
        <ele>119.8</ele>
        <time>2022-07-10T06:54:56Z</time>
      </trkpt>
      <trkpt lat="44.87769" lon="0.61115">
        <ele>119.8</ele>
        <time>2022-07-10T06:54:57Z</time>
      </trkpt>
      <trkpt lat="44.87769" lon="0.61118">
        <ele>119.8</ele>
        <time>2022-07-10T06:54:58Z</time>
      </trkpt>
      <trkpt lat="44.87768" lon="0.61121">
        <ele>119.7</ele>
        <time>2022-07-10T06:54:59Z</time>
      </trkpt>
      <trkpt lat="44.87767" lon="0.61123">
        <ele>119.7</ele>
        <time>2022-07-10T06:55:00Z</time>
      </trkpt>
      <trkpt lat="44.87767" lon="0.61125">
        <ele>119.7</ele>
        <time>2022-07-10T06:55:01Z</time>
      </trkpt>
      <trkpt lat="44.87768" lon="0.61128">
        <ele>119.7</ele>
        <time>2022-07-10T06:55:02Z</time>
      </trkpt>
      <trkpt lat="44.8777" lon="0.6113">
        <ele>120.1</ele>
        <time>2022-07-10T06:55:03Z</time>
      </trkpt>
      <trkpt lat="44.87771" lon="0.61133">
        <ele>120.1</ele>
        <time>2022-07-10T06:55:04Z</time>
      </trkpt>
      <trkpt lat="44.87772" lon="0.61135">
        <ele>120.1</ele>
        <time>2022-07-10T06:55:05Z</time>
      </trkpt>
      <trkpt lat="44.87772" lon="0.61137">
        <ele>120.1</ele>
        <time>2022-07-10T06:55:07Z</time>
      </trkpt>
      <trkpt lat="44.87771" lon="0.6114">
        <ele>120</ele>
        <time>2022-07-10T06:55:08Z</time>
      </trkpt>
      <trkpt lat="44.8777" lon="0.61143">
        <ele>120</ele>
        <time>2022-07-10T06:55:09Z</time>
      </trkpt>
      <trkpt lat="44.8777" lon="0.61146">
        <ele>120.4</ele>
        <time>2022-07-10T06:55:10Z</time>
      </trkpt>
      <trkpt lat="44.8777" lon="0.6115">
        <ele>120.4</ele>
        <time>2022-07-10T06:55:11Z</time>
      </trkpt>
      <trkpt lat="44.87769" lon="0.61157">
        <ele>120.4</ele>
        <time>2022-07-10T06:55:13Z</time>
      </trkpt>
      <trkpt lat="44.87769" lon="0.61164">
        <ele>120.9</ele>
        <time>2022-07-10T06:55:15Z</time>
      </trkpt>
      <trkpt lat="44.87771" lon="0.6117">
        <ele>120.9</ele>
        <time>2022-07-10T06:55:17Z</time>
      </trkpt>
      <trkpt lat="44.87774" lon="0.61176">
        <ele>120.9</ele>
        <time>2022-07-10T06:55:19Z</time>
      </trkpt>
      <trkpt lat="44.87776" lon="0.61178">
        <ele>120.9</ele>
        <time>2022-07-10T06:55:20Z</time>
      </trkpt>
      <trkpt lat="44.87778" lon="0.61179">
        <ele>121</ele>
        <time>2022-07-10T06:55:21Z</time>
      </trkpt>
      <trkpt lat="44.87781" lon="0.6118">
        <ele>121</ele>
        <time>2022-07-10T06:55:23Z</time>
      </trkpt>
      <trkpt lat="44.87784" lon="0.6118">
        <ele>121</ele>
        <time>2022-07-10T06:55:25Z</time>
      </trkpt>
      <trkpt lat="44.87788" lon="0.61178">
        <ele>121</ele>
        <time>2022-07-10T06:55:27Z</time>
      </trkpt>
      <trkpt lat="44.87791" lon="0.61176">
        <ele>121.2</ele>
        <time>2022-07-10T06:55:29Z</time>
      </trkpt>
      <trkpt lat="44.87796" lon="0.61174">
        <ele>121.2</ele>
        <time>2022-07-10T06:55:31Z</time>
      </trkpt>
      <trkpt lat="44.87799" lon="0.61171">
        <ele>121.2</ele>
        <time>2022-07-10T06:55:33Z</time>
      </trkpt>
      <trkpt lat="44.87801" lon="0.61171">
        <ele>121.2</ele>
        <time>2022-07-10T06:55:34Z</time>
      </trkpt>
      <trkpt lat="44.87802" lon="0.61174">
        <ele>121.5</ele>
        <time>2022-07-10T06:55:35Z</time>
      </trkpt>
      <trkpt lat="44.87803" lon="0.61177">
        <ele>121.5</ele>
        <time>2022-07-10T06:55:36Z</time>
      </trkpt>
      <trkpt lat="44.87806" lon="0.61179">
        <ele>121.4</ele>
        <time>2022-07-10T06:55:37Z</time>
      </trkpt>
      <trkpt lat="44.87813" lon="0.61183">
        <ele>121.8</ele>
        <time>2022-07-10T06:55:39Z</time>
      </trkpt>
      <trkpt lat="44.87818" lon="0.61186">
        <ele>122.1</ele>
        <time>2022-07-10T06:55:41Z</time>
      </trkpt>
      <trkpt lat="44.87824" lon="0.61187">
        <ele>122.1</ele>
        <time>2022-07-10T06:55:43Z</time>
      </trkpt>
      <trkpt lat="44.87829" lon="0.61186">
        <ele>122.5</ele>
        <time>2022-07-10T06:55:45Z</time>
      </trkpt>
      <trkpt lat="44.87835" lon="0.61188">
        <ele>122.5</ele>
        <time>2022-07-10T06:55:47Z</time>
      </trkpt>
      <trkpt lat="44.87843" lon="0.61191">
        <ele>123</ele>
        <time>2022-07-10T06:55:49Z</time>
      </trkpt>
      <trkpt lat="44.8785" lon="0.61195">
        <ele>123.7</ele>
        <time>2022-07-10T06:55:51Z</time>
      </trkpt>
      <trkpt lat="44.87854" lon="0.61194">
        <ele>123.7</ele>
        <time>2022-07-10T06:55:52Z</time>
      </trkpt>
      <trkpt lat="44.87857" lon="0.61192">
        <ele>123.7</ele>
        <time>2022-07-10T06:55:53Z</time>
      </trkpt>
      <trkpt lat="44.87865" lon="0.61187">
        <ele>124.4</ele>
        <time>2022-07-10T06:55:55Z</time>
      </trkpt>
      <trkpt lat="44.87869" lon="0.61185">
        <ele>124.4</ele>
        <time>2022-07-10T06:55:56Z</time>
      </trkpt>
      <trkpt lat="44.87874" lon="0.61184">
        <ele>124.9</ele>
        <time>2022-07-10T06:55:57Z</time>
      </trkpt>
      <trkpt lat="44.87883" lon="0.61183">
        <ele>124.9</ele>
        <time>2022-07-10T06:55:59Z</time>
      </trkpt>
      <trkpt lat="44.87889" lon="0.61179">
        <ele>124.9</ele>
        <time>2022-07-10T06:56:01Z</time>
      </trkpt>
      <trkpt lat="44.87893" lon="0.6118">
        <ele>124.9</ele>
        <time>2022-07-10T06:56:03Z</time>
      </trkpt>
      <trkpt lat="44.87897" lon="0.61178">
        <ele>124.9</ele>
        <time>2022-07-10T06:56:05Z</time>
      </trkpt>
      <trkpt lat="44.87899" lon="0.61175">
        <ele>124.9</ele>
        <time>2022-07-10T06:56:06Z</time>
      </trkpt>
      <trkpt lat="44.87901" lon="0.61172">
        <ele>124.9</ele>
        <time>2022-07-10T06:56:07Z</time>
      </trkpt>
      <trkpt lat="44.87904" lon="0.61172">
        <ele>124.9</ele>
        <time>2022-07-10T06:56:08Z</time>
      </trkpt>
      <trkpt lat="44.87907" lon="0.61172">
        <ele>124.9</ele>
        <time>2022-07-10T06:56:09Z</time>
      </trkpt>
      <trkpt lat="44.8791" lon="0.61172">
        <ele>124.9</ele>
        <time>2022-07-10T06:56:10Z</time>
      </trkpt>
      <trkpt lat="44.87913" lon="0.61173">
        <ele>124.8</ele>
        <time>2022-07-10T06:56:11Z</time>
      </trkpt>
      <trkpt lat="44.87918" lon="0.61173">
        <ele>124.7</ele>
        <time>2022-07-10T06:56:13Z</time>
      </trkpt>
      <trkpt lat="44.87923" lon="0.61169">
        <ele>124.5</ele>
        <time>2022-07-10T06:56:15Z</time>
      </trkpt>
      <trkpt lat="44.87927" lon="0.61163">
        <ele>124.1</ele>
        <time>2022-07-10T06:56:17Z</time>
      </trkpt>
      <trkpt lat="44.87928" lon="0.61156">
        <ele>124.1</ele>
        <time>2022-07-10T06:56:19Z</time>
      </trkpt>
      <trkpt lat="44.87925" lon="0.61151">
        <ele>124.1</ele>
        <time>2022-07-10T06:56:21Z</time>
      </trkpt>
      <trkpt lat="44.87923" lon="0.61148">
        <ele>124.3</ele>
        <time>2022-07-10T06:56:22Z</time>
      </trkpt>
      <trkpt lat="44.87919" lon="0.61146">
        <ele>123.8</ele>
        <time>2022-07-10T06:56:23Z</time>
      </trkpt>
      <trkpt lat="44.87914" lon="0.6114">
        <ele>123.8</ele>
        <time>2022-07-10T06:56:25Z</time>
      </trkpt>
      <trkpt lat="44.87913" lon="0.61137">
        <ele>123.8</ele>
        <time>2022-07-10T06:56:26Z</time>
      </trkpt>
      <trkpt lat="44.87912" lon="0.61135">
        <ele>123.8</ele>
        <time>2022-07-10T06:56:27Z</time>
      </trkpt>
      <trkpt lat="44.87909" lon="0.61133">
        <ele>123.9</ele>
        <time>2022-07-10T06:56:28Z</time>
      </trkpt>
      <trkpt lat="44.87907" lon="0.61131">
        <ele>123.9</ele>
        <time>2022-07-10T06:56:29Z</time>
      </trkpt>
      <trkpt lat="44.87904" lon="0.61129">
        <ele>123.9</ele>
        <time>2022-07-10T06:56:30Z</time>
      </trkpt>
      <trkpt lat="44.87902" lon="0.61127">
        <ele>123.3</ele>
        <time>2022-07-10T06:56:31Z</time>
      </trkpt>
      <trkpt lat="44.879" lon="0.61127">
        <ele>123.3</ele>
        <time>2022-07-10T06:56:32Z</time>
      </trkpt>
      <trkpt lat="44.87897" lon="0.61127">
        <ele>123.3</ele>
        <time>2022-07-10T06:56:33Z</time>
      </trkpt>
      <trkpt lat="44.87896" lon="0.61128">
        <ele>123.3</ele>
        <time>2022-07-10T06:56:34Z</time>
      </trkpt>
      <trkpt lat="44.87893" lon="0.61128">
        <ele>123.3</ele>
        <time>2022-07-10T06:56:35Z</time>
      </trkpt>
      <trkpt lat="44.87884" lon="0.61127">
        <ele>123.1</ele>
        <time>2022-07-10T06:56:37Z</time>
      </trkpt>
      <trkpt lat="44.87878" lon="0.61129">
        <ele>123.6</ele>
        <time>2022-07-10T06:56:39Z</time>
      </trkpt>
      <trkpt lat="44.87875" lon="0.6113">
        <ele>123.6</ele>
        <time>2022-07-10T06:56:40Z</time>
      </trkpt>
      <trkpt lat="44.87873" lon="0.6113">
        <ele>123.1</ele>
        <time>2022-07-10T06:56:41Z</time>
      </trkpt>
      <trkpt lat="44.87869" lon="0.61129">
        <ele>123.1</ele>
        <time>2022-07-10T06:56:43Z</time>
      </trkpt>
      <trkpt lat="44.87869" lon="0.61126">
        <ele>122.6</ele>
        <time>2022-07-10T06:56:44Z</time>
      </trkpt>
      <trkpt lat="44.87868" lon="0.61123">
        <ele>122.6</ele>
        <time>2022-07-10T06:56:45Z</time>
      </trkpt>
      <trkpt lat="44.87867" lon="0.61116">
        <ele>122.6</ele>
        <time>2022-07-10T06:56:47Z</time>
      </trkpt>
      <trkpt lat="44.87867" lon="0.61107">
        <ele>122.1</ele>
        <time>2022-07-10T06:56:49Z</time>
      </trkpt>
      <trkpt lat="44.87865" lon="0.61102">
        <ele>122.1</ele>
        <time>2022-07-10T06:56:50Z</time>
      </trkpt>
      <trkpt lat="44.87863" lon="0.611">
        <ele>122.1</ele>
        <time>2022-07-10T06:56:51Z</time>
      </trkpt>
      <trkpt lat="44.87861" lon="0.61099">
        <ele>121.5</ele>
        <time>2022-07-10T06:56:52Z</time>
      </trkpt>
      <trkpt lat="44.87859" lon="0.61098">
        <ele>121.5</ele>
        <time>2022-07-10T06:56:53Z</time>
      </trkpt>
      <trkpt lat="44.87854" lon="0.61098">
        <ele>121.5</ele>
        <time>2022-07-10T06:56:55Z</time>
      </trkpt>
      <trkpt lat="44.87852" lon="0.61098">
        <ele>121.5</ele>
        <time>2022-07-10T06:56:56Z</time>
      </trkpt>
      <trkpt lat="44.87851" lon="0.61095">
        <ele>121.5</ele>
        <time>2022-07-10T06:56:57Z</time>
      </trkpt>
      <trkpt lat="44.8785" lon="0.61089">
        <ele>120.5</ele>
        <time>2022-07-10T06:56:59Z</time>
      </trkpt>
      <trkpt lat="44.8785" lon="0.61087">
        <ele>120.5</ele>
        <time>2022-07-10T06:57:00Z</time>
      </trkpt>
      <trkpt lat="44.87849" lon="0.61084">
        <ele>120.5</ele>
        <time>2022-07-10T06:57:01Z</time>
      </trkpt>
      <trkpt lat="44.87849" lon="0.61079">
        <ele>120.5</ele>
        <time>2022-07-10T06:57:03Z</time>
      </trkpt>
      <trkpt lat="44.87848" lon="0.61076">
        <ele>120.2</ele>
        <time>2022-07-10T06:57:05Z</time>
      </trkpt>
      <trkpt lat="44.87848" lon="0.61073">
        <ele>120.2</ele>
        <time>2022-07-10T06:57:06Z</time>
      </trkpt>
      <trkpt lat="44.87847" lon="0.61071">
        <ele>120.2</ele>
        <time>2022-07-10T06:57:07Z</time>
      </trkpt>
      <trkpt lat="44.87846" lon="0.61062">
        <ele>120.2</ele>
        <time>2022-07-10T06:57:09Z</time>
      </trkpt>
      <trkpt lat="44.8785" lon="0.61061">
        <ele>120.2</ele>
        <time>2022-07-10T06:57:11Z</time>
      </trkpt>
      <trkpt lat="44.87854" lon="0.61059">
        <ele>120.6</ele>
        <time>2022-07-10T06:57:13Z</time>
      </trkpt>
      <trkpt lat="44.87859" lon="0.61057">
        <ele>120.8</ele>
        <time>2022-07-10T06:57:15Z</time>
      </trkpt>
      <trkpt lat="44.87864" lon="0.61055">
        <ele>121</ele>
        <time>2022-07-10T06:57:17Z</time>
      </trkpt>
      <trkpt lat="44.87869" lon="0.61053">
        <ele>121.3</ele>
        <time>2022-07-10T06:57:19Z</time>
      </trkpt>
      <trkpt lat="44.87875" lon="0.61051">
        <ele>121.6</ele>
        <time>2022-07-10T06:57:21Z</time>
      </trkpt>
      <trkpt lat="44.87877" lon="0.6105">
        <ele>121.8</ele>
        <time>2022-07-10T06:57:22Z</time>
      </trkpt>
      <trkpt lat="44.87879" lon="0.61049">
        <ele>121.9</ele>
        <time>2022-07-10T06:57:23Z</time>
      </trkpt>
      <trkpt lat="44.87884" lon="0.61047">
        <ele>122.2</ele>
        <time>2022-07-10T06:57:25Z</time>
      </trkpt>
      <trkpt lat="44.87889" lon="0.61045">
        <ele>122.6</ele>
        <time>2022-07-10T06:57:27Z</time>
      </trkpt>
      <trkpt lat="44.87892" lon="0.61044">
        <ele>122.7</ele>
        <time>2022-07-10T06:57:28Z</time>
      </trkpt>
      <trkpt lat="44.87894" lon="0.61043">
        <ele>122.9</ele>
        <time>2022-07-10T06:57:29Z</time>
      </trkpt>
      <trkpt lat="44.87899" lon="0.61042">
        <ele>123.2</ele>
        <time>2022-07-10T06:57:31Z</time>
      </trkpt>
      <trkpt lat="44.87904" lon="0.6104">
        <ele>123.5</ele>
        <time>2022-07-10T06:57:33Z</time>
      </trkpt>
      <trkpt lat="44.87911" lon="0.61037">
        <ele>123.8</ele>
        <time>2022-07-10T06:57:35Z</time>
      </trkpt>
      <trkpt lat="44.87914" lon="0.61036">
        <ele>123.9</ele>
        <time>2022-07-10T06:57:37Z</time>
      </trkpt>
      <trkpt lat="44.87919" lon="0.61034">
        <ele>124.1</ele>
        <time>2022-07-10T06:57:39Z</time>
      </trkpt>
      <trkpt lat="44.87923" lon="0.61032">
        <ele>124.1</ele>
        <time>2022-07-10T06:57:41Z</time>
      </trkpt>
      <trkpt lat="44.87928" lon="0.6103">
        <ele>124</ele>
        <time>2022-07-10T06:57:43Z</time>
      </trkpt>
      <trkpt lat="44.87932" lon="0.61029">
        <ele>124</ele>
        <time>2022-07-10T06:57:44Z</time>
      </trkpt>
      <trkpt lat="44.87936" lon="0.61027">
        <ele>123.8</ele>
        <time>2022-07-10T06:57:45Z</time>
      </trkpt>
      <trkpt lat="44.87945" lon="0.61023">
        <ele>123.3</ele>
        <time>2022-07-10T06:57:47Z</time>
      </trkpt>
      <trkpt lat="44.8795" lon="0.61021">
        <ele>123</ele>
        <time>2022-07-10T06:57:48Z</time>
      </trkpt>
      <trkpt lat="44.87956" lon="0.61019">
        <ele>122.7</ele>
        <time>2022-07-10T06:57:49Z</time>
      </trkpt>
      <trkpt lat="44.87962" lon="0.61016">
        <ele>122.4</ele>
        <time>2022-07-10T06:57:50Z</time>
      </trkpt>
      <trkpt lat="44.87968" lon="0.61014">
        <ele>122.1</ele>
        <time>2022-07-10T06:57:51Z</time>
      </trkpt>
      <trkpt lat="44.87981" lon="0.61009">
        <ele>121.6</ele>
        <time>2022-07-10T06:57:53Z</time>
      </trkpt>
      <trkpt lat="44.87992" lon="0.61005">
        <ele>121.3</ele>
        <time>2022-07-10T06:57:55Z</time>
      </trkpt>
      <trkpt lat="44.88004" lon="0.61">
        <ele>121.1</ele>
        <time>2022-07-10T06:57:57Z</time>
      </trkpt>
      <trkpt lat="44.88015" lon="0.60995">
        <ele>121</ele>
        <time>2022-07-10T06:57:59Z</time>
      </trkpt>
      <trkpt lat="44.8802" lon="0.60993">
        <ele>121</ele>
        <time>2022-07-10T06:58:00Z</time>
      </trkpt>
      <trkpt lat="44.88026" lon="0.60991">
        <ele>120.9</ele>
        <time>2022-07-10T06:58:01Z</time>
      </trkpt>
      <trkpt lat="44.88035" lon="0.60987">
        <ele>120.8</ele>
        <time>2022-07-10T06:58:03Z</time>
      </trkpt>
      <trkpt lat="44.88044" lon="0.60984">
        <ele>120.5</ele>
        <time>2022-07-10T06:58:05Z</time>
      </trkpt>
      <trkpt lat="44.88053" lon="0.6098">
        <ele>120</ele>
        <time>2022-07-10T06:58:07Z</time>
      </trkpt>
      <trkpt lat="44.88058" lon="0.60978">
        <ele>119.8</ele>
        <time>2022-07-10T06:58:08Z</time>
      </trkpt>
      <trkpt lat="44.88063" lon="0.60976">
        <ele>119.5</ele>
        <time>2022-07-10T06:58:09Z</time>
      </trkpt>
      <trkpt lat="44.88074" lon="0.60971">
        <ele>118.8</ele>
        <time>2022-07-10T06:58:11Z</time>
      </trkpt>
      <trkpt lat="44.8808" lon="0.60969">
        <ele>118.5</ele>
        <time>2022-07-10T06:58:12Z</time>
      </trkpt>
      <trkpt lat="44.88086" lon="0.60966">
        <ele>118.1</ele>
        <time>2022-07-10T06:58:13Z</time>
      </trkpt>
      <trkpt lat="44.881" lon="0.60961">
        <ele>117.4</ele>
        <time>2022-07-10T06:58:15Z</time>
      </trkpt>
      <trkpt lat="44.88114" lon="0.60955">
        <ele>116.9</ele>
        <time>2022-07-10T06:58:17Z</time>
      </trkpt>
      <trkpt lat="44.8812" lon="0.60952">
        <ele>116.7</ele>
        <time>2022-07-10T06:58:18Z</time>
      </trkpt>
      <trkpt lat="44.88127" lon="0.6095">
        <ele>116.5</ele>
        <time>2022-07-10T06:58:19Z</time>
      </trkpt>
      <trkpt lat="44.88133" lon="0.60947">
        <ele>116.4</ele>
        <time>2022-07-10T06:58:20Z</time>
      </trkpt>
      <trkpt lat="44.88137" lon="0.60946">
        <ele>116.4</ele>
        <time>2022-07-10T06:58:21Z</time>
      </trkpt>
      <trkpt lat="44.8814" lon="0.60952">
        <ele>116.7</ele>
        <time>2022-07-10T06:58:22Z</time>
      </trkpt>
      <trkpt lat="44.8814" lon="0.60957">
        <ele>116.9</ele>
        <time>2022-07-10T06:58:23Z</time>
      </trkpt>
      <trkpt lat="44.88139" lon="0.6096">
        <ele>117</ele>
        <time>2022-07-10T06:58:24Z</time>
      </trkpt>
      <trkpt lat="44.88139" lon="0.60964">
        <ele>117.1</ele>
        <time>2022-07-10T06:58:25Z</time>
      </trkpt>
      <trkpt lat="44.88139" lon="0.60968">
        <ele>117.3</ele>
        <time>2022-07-10T06:58:26Z</time>
      </trkpt>
      <trkpt lat="44.88139" lon="0.60971">
        <ele>117.4</ele>
        <time>2022-07-10T06:58:27Z</time>
      </trkpt>
      <trkpt lat="44.88138" lon="0.60974">
        <ele>117.5</ele>
        <time>2022-07-10T06:58:28Z</time>
      </trkpt>
      <trkpt lat="44.88138" lon="0.60977">
        <ele>117.7</ele>
        <time>2022-07-10T06:58:29Z</time>
      </trkpt>
      <trkpt lat="44.88138" lon="0.60982">
        <ele>117.9</ele>
        <time>2022-07-10T06:58:31Z</time>
      </trkpt>
      <trkpt lat="44.88137" lon="0.60991">
        <ele>118.2</ele>
        <time>2022-07-10T06:58:33Z</time>
      </trkpt>
      <trkpt lat="44.88137" lon="0.60996">
        <ele>118.3</ele>
        <time>2022-07-10T06:58:34Z</time>
      </trkpt>
      <trkpt lat="44.88137" lon="0.61">
        <ele>118.5</ele>
        <time>2022-07-10T06:58:35Z</time>
      </trkpt>
      <trkpt lat="44.88137" lon="0.61004">
        <ele>118.6</ele>
        <time>2022-07-10T06:58:36Z</time>
      </trkpt>
      <trkpt lat="44.88136" lon="0.61009">
        <ele>118.8</ele>
        <time>2022-07-10T06:58:37Z</time>
      </trkpt>
      <trkpt lat="44.88134" lon="0.61018">
        <ele>119</ele>
        <time>2022-07-10T06:58:39Z</time>
      </trkpt>
      <trkpt lat="44.88132" lon="0.61028">
        <ele>119.2</ele>
        <time>2022-07-10T06:58:41Z</time>
      </trkpt>
      <trkpt lat="44.8813" lon="0.61036">
        <ele>119.4</ele>
        <time>2022-07-10T06:58:43Z</time>
      </trkpt>
      <trkpt lat="44.8813" lon="0.61045">
        <ele>119.5</ele>
        <time>2022-07-10T06:58:45Z</time>
      </trkpt>
      <trkpt lat="44.8813" lon="0.61051">
        <ele>119.5</ele>
        <time>2022-07-10T06:58:46Z</time>
      </trkpt>
      <trkpt lat="44.8813" lon="0.61056">
        <ele>119.5</ele>
        <time>2022-07-10T06:58:47Z</time>
      </trkpt>
      <trkpt lat="44.88131" lon="0.61066">
        <ele>119.6</ele>
        <time>2022-07-10T06:58:49Z</time>
      </trkpt>
      <trkpt lat="44.88131" lon="0.61072">
        <ele>119.5</ele>
        <time>2022-07-10T06:58:50Z</time>
      </trkpt>
      <trkpt lat="44.88131" lon="0.61076">
        <ele>119.5</ele>
        <time>2022-07-10T06:58:51Z</time>
      </trkpt>
      <trkpt lat="44.88131" lon="0.61082">
        <ele>119.5</ele>
        <time>2022-07-10T06:58:52Z</time>
      </trkpt>
      <trkpt lat="44.88132" lon="0.61088">
        <ele>119.5</ele>
        <time>2022-07-10T06:58:53Z</time>
      </trkpt>
      <trkpt lat="44.88128" lon="0.611">
        <ele>119.4</ele>
        <time>2022-07-10T06:58:55Z</time>
      </trkpt>
      <trkpt lat="44.88125" lon="0.61105">
        <ele>119.4</ele>
        <time>2022-07-10T06:58:56Z</time>
      </trkpt>
      <trkpt lat="44.88123" lon="0.6111">
        <ele>119.3</ele>
        <time>2022-07-10T06:58:57Z</time>
      </trkpt>
      <trkpt lat="44.88121" lon="0.61123">
        <ele>119.2</ele>
        <time>2022-07-10T06:58:59Z</time>
      </trkpt>
      <trkpt lat="44.88121" lon="0.61128">
        <ele>119.1</ele>
        <time>2022-07-10T06:59:00Z</time>
      </trkpt>
      <trkpt lat="44.88121" lon="0.61136">
        <ele>119.1</ele>
        <time>2022-07-10T06:59:01Z</time>
      </trkpt>
      <trkpt lat="44.88118" lon="0.61149">
        <ele>118.9</ele>
        <time>2022-07-10T06:59:03Z</time>
      </trkpt>
      <trkpt lat="44.88116" lon="0.61155">
        <ele>118.9</ele>
        <time>2022-07-10T06:59:04Z</time>
      </trkpt>
      <trkpt lat="44.88115" lon="0.6116">
        <ele>118.8</ele>
        <time>2022-07-10T06:59:05Z</time>
      </trkpt>
      <trkpt lat="44.88114" lon="0.61172">
        <ele>118.7</ele>
        <time>2022-07-10T06:59:07Z</time>
      </trkpt>
      <trkpt lat="44.88112" lon="0.61185">
        <ele>118.4</ele>
        <time>2022-07-10T06:59:09Z</time>
      </trkpt>
      <trkpt lat="44.88111" lon="0.61199">
        <ele>118</ele>
        <time>2022-07-10T06:59:11Z</time>
      </trkpt>
      <trkpt lat="44.8811" lon="0.61206">
        <ele>117.8</ele>
        <time>2022-07-10T06:59:12Z</time>
      </trkpt>
      <trkpt lat="44.8811" lon="0.61211">
        <ele>117.6</ele>
        <time>2022-07-10T06:59:13Z</time>
      </trkpt>
      <trkpt lat="44.88108" lon="0.61227">
        <ele>117.1</ele>
        <time>2022-07-10T06:59:15Z</time>
      </trkpt>
      <trkpt lat="44.88108" lon="0.61241">
        <ele>116.6</ele>
        <time>2022-07-10T06:59:17Z</time>
      </trkpt>
      <trkpt lat="44.88108" lon="0.61256">
        <ele>116.2</ele>
        <time>2022-07-10T06:59:19Z</time>
      </trkpt>
      <trkpt lat="44.88108" lon="0.61274">
        <ele>115.7</ele>
        <time>2022-07-10T06:59:21Z</time>
      </trkpt>
      <trkpt lat="44.88108" lon="0.61292">
        <ele>115.3</ele>
        <time>2022-07-10T06:59:23Z</time>
      </trkpt>
      <trkpt lat="44.88108" lon="0.613">
        <ele>115.2</ele>
        <time>2022-07-10T06:59:24Z</time>
      </trkpt>
      <trkpt lat="44.88109" lon="0.61309">
        <ele>115</ele>
        <time>2022-07-10T06:59:25Z</time>
      </trkpt>
      <trkpt lat="44.8811" lon="0.61326">
        <ele>114.9</ele>
        <time>2022-07-10T06:59:27Z</time>
      </trkpt>
      <trkpt lat="44.8811" lon="0.61337">
        <ele>114.9</ele>
        <time>2022-07-10T06:59:29Z</time>
      </trkpt>
      <trkpt lat="44.88108" lon="0.61343">
        <ele>115</ele>
        <time>2022-07-10T06:59:31Z</time>
      </trkpt>
      <trkpt lat="44.88106" lon="0.61348">
        <ele>115</ele>
        <time>2022-07-10T06:59:33Z</time>
      </trkpt>
      <trkpt lat="44.88103" lon="0.61355">
        <ele>115.1</ele>
        <time>2022-07-10T06:59:35Z</time>
      </trkpt>
      <trkpt lat="44.88102" lon="0.61364">
        <ele>115.3</ele>
        <time>2022-07-10T06:59:37Z</time>
      </trkpt>
      <trkpt lat="44.881" lon="0.61373">
        <ele>115.4</ele>
        <time>2022-07-10T06:59:39Z</time>
      </trkpt>
      <trkpt lat="44.88097" lon="0.61383">
        <ele>115.6</ele>
        <time>2022-07-10T06:59:41Z</time>
      </trkpt>
      <trkpt lat="44.88093" lon="0.61392">
        <ele>115.8</ele>
        <time>2022-07-10T06:59:43Z</time>
      </trkpt>
      <trkpt lat="44.88092" lon="0.61396">
        <ele>115.9</ele>
        <time>2022-07-10T06:59:44Z</time>
      </trkpt>
      <trkpt lat="44.8809" lon="0.61406">
        <ele>116.3</ele>
        <time>2022-07-10T06:59:45Z</time>
      </trkpt>
      <trkpt lat="44.88092" lon="0.61412">
        <ele>116.6</ele>
        <time>2022-07-10T06:59:47Z</time>
      </trkpt>
      <trkpt lat="44.88093" lon="0.61415">
        <ele>116.7</ele>
        <time>2022-07-10T06:59:48Z</time>
      </trkpt>
      <trkpt lat="44.88094" lon="0.61418">
        <ele>116.9</ele>
        <time>2022-07-10T06:59:49Z</time>
      </trkpt>
      <trkpt lat="44.88096" lon="0.61424">
        <ele>117.2</ele>
        <time>2022-07-10T06:59:51Z</time>
      </trkpt>
      <trkpt lat="44.88097" lon="0.61428">
        <ele>117.4</ele>
        <time>2022-07-10T06:59:53Z</time>
      </trkpt>
      <trkpt lat="44.88098" lon="0.6143">
        <ele>117.5</ele>
        <time>2022-07-10T06:59:54Z</time>
      </trkpt>
      <trkpt lat="44.88099" lon="0.61432">
        <ele>117.6</ele>
        <time>2022-07-10T06:59:55Z</time>
      </trkpt>
      <trkpt lat="44.88101" lon="0.61438">
        <ele>117.9</ele>
        <time>2022-07-10T06:59:57Z</time>
      </trkpt>
      <trkpt lat="44.88102" lon="0.61444">
        <ele>118.1</ele>
        <time>2022-07-10T06:59:59Z</time>
      </trkpt>
      <trkpt lat="44.88104" lon="0.61449">
        <ele>118.2</ele>
        <time>2022-07-10T07:00:01Z</time>
      </trkpt>
      <trkpt lat="44.88106" lon="0.61455">
        <ele>118.4</ele>
        <time>2022-07-10T07:00:03Z</time>
      </trkpt>
      <trkpt lat="44.88108" lon="0.61461">
        <ele>118.6</ele>
        <time>2022-07-10T07:00:05Z</time>
      </trkpt>
      <trkpt lat="44.8811" lon="0.61466">
        <ele>118.7</ele>
        <time>2022-07-10T07:00:07Z</time>
      </trkpt>
      <trkpt lat="44.8811" lon="0.61469">
        <ele>118.8</ele>
        <time>2022-07-10T07:00:08Z</time>
      </trkpt>
      <trkpt lat="44.88111" lon="0.61472">
        <ele>118.9</ele>
        <time>2022-07-10T07:00:09Z</time>
      </trkpt>
      <trkpt lat="44.88113" lon="0.61478">
        <ele>119</ele>
        <time>2022-07-10T07:00:11Z</time>
      </trkpt>
      <trkpt lat="44.88115" lon="0.61485">
        <ele>119.2</ele>
        <time>2022-07-10T07:00:13Z</time>
      </trkpt>
      <trkpt lat="44.88118" lon="0.61492">
        <ele>119.3</ele>
        <time>2022-07-10T07:00:15Z</time>
      </trkpt>
      <trkpt lat="44.8812" lon="0.61499">
        <ele>119.4</ele>
        <time>2022-07-10T07:00:17Z</time>
      </trkpt>
      <trkpt lat="44.88121" lon="0.61503">
        <ele>119.4</ele>
        <time>2022-07-10T07:00:18Z</time>
      </trkpt>
      <trkpt lat="44.88122" lon="0.61505">
        <ele>119.4</ele>
        <time>2022-07-10T07:00:19Z</time>
      </trkpt>
      <trkpt lat="44.88123" lon="0.61511">
        <ele>119.4</ele>
        <time>2022-07-10T07:00:21Z</time>
      </trkpt>
      <trkpt lat="44.88124" lon="0.61512">
        <ele>119.4</ele>
        <time>2022-07-10T07:00:22Z</time>
      </trkpt>
      <trkpt lat="44.88125" lon="0.61515">
        <ele>119.4</ele>
        <time>2022-07-10T07:00:23Z</time>
      </trkpt>
      <trkpt lat="44.88127" lon="0.61521">
        <ele>119.3</ele>
        <time>2022-07-10T07:00:25Z</time>
      </trkpt>
      <trkpt lat="44.88131" lon="0.6153">
        <ele>119.1</ele>
        <time>2022-07-10T07:00:27Z</time>
      </trkpt>
      <trkpt lat="44.88133" lon="0.61534">
        <ele>119</ele>
        <time>2022-07-10T07:00:28Z</time>
      </trkpt>
      <trkpt lat="44.88134" lon="0.61538">
        <ele>118.8</ele>
        <time>2022-07-10T07:00:29Z</time>
      </trkpt>
      <trkpt lat="44.88138" lon="0.61548">
        <ele>118.6</ele>
        <time>2022-07-10T07:00:31Z</time>
      </trkpt>
      <trkpt lat="44.88139" lon="0.61553">
        <ele>118.4</ele>
        <time>2022-07-10T07:00:32Z</time>
      </trkpt>
      <trkpt lat="44.8814" lon="0.61558">
        <ele>118.3</ele>
        <time>2022-07-10T07:00:33Z</time>
      </trkpt>
      <trkpt lat="44.8814" lon="0.61562">
        <ele>118.3</ele>
        <time>2022-07-10T07:00:34Z</time>
      </trkpt>
      <trkpt lat="44.8814" lon="0.61565">
        <ele>118.2</ele>
        <time>2022-07-10T07:00:35Z</time>
      </trkpt>
      <trkpt lat="44.88137" lon="0.61577">
        <ele>118.2</ele>
        <time>2022-07-10T07:00:37Z</time>
      </trkpt>
      <trkpt lat="44.88136" lon="0.61581">
        <ele>118.2</ele>
        <time>2022-07-10T07:00:38Z</time>
      </trkpt>
      <trkpt lat="44.88135" lon="0.61585">
        <ele>118.2</ele>
        <time>2022-07-10T07:00:39Z</time>
      </trkpt>
      <trkpt lat="44.88131" lon="0.61594">
        <ele>118.4</ele>
        <time>2022-07-10T07:00:41Z</time>
      </trkpt>
      <trkpt lat="44.8813" lon="0.61598">
        <ele>118.5</ele>
        <time>2022-07-10T07:00:42Z</time>
      </trkpt>
      <trkpt lat="44.88128" lon="0.61603">
        <ele>118.6</ele>
        <time>2022-07-10T07:00:43Z</time>
      </trkpt>
      <trkpt lat="44.88127" lon="0.61606">
        <ele>118.7</ele>
        <time>2022-07-10T07:00:44Z</time>
      </trkpt>
      <trkpt lat="44.88126" lon="0.61611">
        <ele>118.8</ele>
        <time>2022-07-10T07:00:45Z</time>
      </trkpt>
      <trkpt lat="44.88126" lon="0.61614">
        <ele>118.9</ele>
        <time>2022-07-10T07:00:46Z</time>
      </trkpt>
      <trkpt lat="44.88125" lon="0.61618">
        <ele>119</ele>
        <time>2022-07-10T07:00:47Z</time>
      </trkpt>
      <trkpt lat="44.88124" lon="0.61626">
        <ele>119.2</ele>
        <time>2022-07-10T07:00:49Z</time>
      </trkpt>
      <trkpt lat="44.88123" lon="0.61634">
        <ele>119.4</ele>
        <time>2022-07-10T07:00:51Z</time>
      </trkpt>
      <trkpt lat="44.88122" lon="0.61642">
        <ele>119.6</ele>
        <time>2022-07-10T07:00:53Z</time>
      </trkpt>
      <trkpt lat="44.88122" lon="0.61653">
        <ele>119.9</ele>
        <time>2022-07-10T07:00:55Z</time>
      </trkpt>
      <trkpt lat="44.88124" lon="0.61655">
        <ele>120.1</ele>
        <time>2022-07-10T07:00:56Z</time>
      </trkpt>
      <trkpt lat="44.88126" lon="0.61657">
        <ele>120.3</ele>
        <time>2022-07-10T07:00:57Z</time>
      </trkpt>
      <trkpt lat="44.8813" lon="0.61661">
        <ele>120.6</ele>
        <time>2022-07-10T07:00:59Z</time>
      </trkpt>
      <trkpt lat="44.88134" lon="0.61665">
        <ele>121</ele>
        <time>2022-07-10T07:01:01Z</time>
      </trkpt>
      <trkpt lat="44.88139" lon="0.61668">
        <ele>121.3</ele>
        <time>2022-07-10T07:01:03Z</time>
      </trkpt>
      <trkpt lat="44.88144" lon="0.61671">
        <ele>121.7</ele>
        <time>2022-07-10T07:01:05Z</time>
      </trkpt>
      <trkpt lat="44.88149" lon="0.61674">
        <ele>122.1</ele>
        <time>2022-07-10T07:01:07Z</time>
      </trkpt>
      <trkpt lat="44.88154" lon="0.61678">
        <ele>122.5</ele>
        <time>2022-07-10T07:01:09Z</time>
      </trkpt>
      <trkpt lat="44.8816" lon="0.61682">
        <ele>122.9</ele>
        <time>2022-07-10T07:01:11Z</time>
      </trkpt>
      <trkpt lat="44.88165" lon="0.61686">
        <ele>123.3</ele>
        <time>2022-07-10T07:01:13Z</time>
      </trkpt>
      <trkpt lat="44.8817" lon="0.61689">
        <ele>123.6</ele>
        <time>2022-07-10T07:01:15Z</time>
      </trkpt>
      <trkpt lat="44.88175" lon="0.61693">
        <ele>123.9</ele>
        <time>2022-07-10T07:01:17Z</time>
      </trkpt>
      <trkpt lat="44.88181" lon="0.61696">
        <ele>124.3</ele>
        <time>2022-07-10T07:01:19Z</time>
      </trkpt>
      <trkpt lat="44.88186" lon="0.617">
        <ele>124.5</ele>
        <time>2022-07-10T07:01:21Z</time>
      </trkpt>
      <trkpt lat="44.8819" lon="0.61705">
        <ele>124.8</ele>
        <time>2022-07-10T07:01:23Z</time>
      </trkpt>
      <trkpt lat="44.88195" lon="0.61711">
        <ele>125.1</ele>
        <time>2022-07-10T07:01:25Z</time>
      </trkpt>
      <trkpt lat="44.88199" lon="0.61716">
        <ele>125.4</ele>
        <time>2022-07-10T07:01:27Z</time>
      </trkpt>
      <trkpt lat="44.88204" lon="0.61722">
        <ele>125.6</ele>
        <time>2022-07-10T07:01:29Z</time>
      </trkpt>
      <trkpt lat="44.88209" lon="0.61728">
        <ele>125.8</ele>
        <time>2022-07-10T07:01:31Z</time>
      </trkpt>
      <trkpt lat="44.88213" lon="0.61733">
        <ele>126.1</ele>
        <time>2022-07-10T07:01:33Z</time>
      </trkpt>
      <trkpt lat="44.88217" lon="0.61739">
        <ele>126.3</ele>
        <time>2022-07-10T07:01:35Z</time>
      </trkpt>
      <trkpt lat="44.88219" lon="0.61743">
        <ele>126.4</ele>
        <time>2022-07-10T07:01:36Z</time>
      </trkpt>
      <trkpt lat="44.88222" lon="0.61746">
        <ele>126.4</ele>
        <time>2022-07-10T07:01:37Z</time>
      </trkpt>
      <trkpt lat="44.88226" lon="0.61752">
        <ele>126.6</ele>
        <time>2022-07-10T07:01:39Z</time>
      </trkpt>
      <trkpt lat="44.88231" lon="0.61759">
        <ele>126.8</ele>
        <time>2022-07-10T07:01:41Z</time>
      </trkpt>
      <trkpt lat="44.88236" lon="0.61767">
        <ele>126.9</ele>
        <time>2022-07-10T07:01:43Z</time>
      </trkpt>
      <trkpt lat="44.88242" lon="0.61775">
        <ele>127</ele>
        <time>2022-07-10T07:01:45Z</time>
      </trkpt>
      <trkpt lat="44.88247" lon="0.61782">
        <ele>127.2</ele>
        <time>2022-07-10T07:01:47Z</time>
      </trkpt>
      <trkpt lat="44.88246" lon="0.61798">
        <ele>127.2</ele>
        <time>2022-07-10T07:01:49Z</time>
      </trkpt>
      <trkpt lat="44.88244" lon="0.61802">
        <ele>127.2</ele>
        <time>2022-07-10T07:01:50Z</time>
      </trkpt>
      <trkpt lat="44.88241" lon="0.61806">
        <ele>127.2</ele>
        <time>2022-07-10T07:01:51Z</time>
      </trkpt>
      <trkpt lat="44.88236" lon="0.61813">
        <ele>127.2</ele>
        <time>2022-07-10T07:01:53Z</time>
      </trkpt>
      <trkpt lat="44.88231" lon="0.61821">
        <ele>127.1</ele>
        <time>2022-07-10T07:01:55Z</time>
      </trkpt>
      <trkpt lat="44.88228" lon="0.61824">
        <ele>127.1</ele>
        <time>2022-07-10T07:01:56Z</time>
      </trkpt>
      <trkpt lat="44.88225" lon="0.61828">
        <ele>127.1</ele>
        <time>2022-07-10T07:01:57Z</time>
      </trkpt>
      <trkpt lat="44.8822" lon="0.61835">
        <ele>127</ele>
        <time>2022-07-10T07:01:59Z</time>
      </trkpt>
      <trkpt lat="44.88214" lon="0.61842">
        <ele>127</ele>
        <time>2022-07-10T07:02:01Z</time>
      </trkpt>
      <trkpt lat="44.88211" lon="0.61846">
        <ele>127</ele>
        <time>2022-07-10T07:02:02Z</time>
      </trkpt>
      <trkpt lat="44.88208" lon="0.6185">
        <ele>126.9</ele>
        <time>2022-07-10T07:02:03Z</time>
      </trkpt>
      <trkpt lat="44.88202" lon="0.61858">
        <ele>126.9</ele>
        <time>2022-07-10T07:02:05Z</time>
      </trkpt>
      <trkpt lat="44.88196" lon="0.61866">
        <ele>126.8</ele>
        <time>2022-07-10T07:02:07Z</time>
      </trkpt>
      <trkpt lat="44.88191" lon="0.61873">
        <ele>126.8</ele>
        <time>2022-07-10T07:02:09Z</time>
      </trkpt>
      <trkpt lat="44.88185" lon="0.6188">
        <ele>126.8</ele>
        <time>2022-07-10T07:02:11Z</time>
      </trkpt>
      <trkpt lat="44.8818" lon="0.61887">
        <ele>126.7</ele>
        <time>2022-07-10T07:02:13Z</time>
      </trkpt>
      <trkpt lat="44.88175" lon="0.61894">
        <ele>126.7</ele>
        <time>2022-07-10T07:02:15Z</time>
      </trkpt>
      <trkpt lat="44.88171" lon="0.61899">
        <ele>126.7</ele>
        <time>2022-07-10T07:02:17Z</time>
      </trkpt>
      <trkpt lat="44.88169" lon="0.61902">
        <ele>126.7</ele>
        <time>2022-07-10T07:02:18Z</time>
      </trkpt>
      <trkpt lat="44.88166" lon="0.61905">
        <ele>126.8</ele>
        <time>2022-07-10T07:02:19Z</time>
      </trkpt>
      <trkpt lat="44.88162" lon="0.6191">
        <ele>126.8</ele>
        <time>2022-07-10T07:02:21Z</time>
      </trkpt>
      <trkpt lat="44.88156" lon="0.61915">
        <ele>126.9</ele>
        <time>2022-07-10T07:02:23Z</time>
      </trkpt>
      <trkpt lat="44.88151" lon="0.61912">
        <ele>127</ele>
        <time>2022-07-10T07:02:25Z</time>
      </trkpt>
      <trkpt lat="44.88146" lon="0.61908">
        <ele>127.2</ele>
        <time>2022-07-10T07:02:27Z</time>
      </trkpt>
      <trkpt lat="44.88141" lon="0.61903">
        <ele>127.4</ele>
        <time>2022-07-10T07:02:29Z</time>
      </trkpt>
      <trkpt lat="44.88136" lon="0.61896">
        <ele>127.6</ele>
        <time>2022-07-10T07:02:31Z</time>
      </trkpt>
      <trkpt lat="44.88133" lon="0.61893">
        <ele>127.8</ele>
        <time>2022-07-10T07:02:32Z</time>
      </trkpt>
      <trkpt lat="44.88128" lon="0.61888">
        <ele>127.9</ele>
        <time>2022-07-10T07:02:33Z</time>
      </trkpt>
      <trkpt lat="44.88121" lon="0.61887">
        <ele>128.1</ele>
        <time>2022-07-10T07:02:35Z</time>
      </trkpt>
      <trkpt lat="44.88112" lon="0.61886">
        <ele>128.2</ele>
        <time>2022-07-10T07:02:37Z</time>
      </trkpt>
      <trkpt lat="44.88103" lon="0.61885">
        <ele>128.1</ele>
        <time>2022-07-10T07:02:39Z</time>
      </trkpt>
      <trkpt lat="44.88093" lon="0.61884">
        <ele>128</ele>
        <time>2022-07-10T07:02:41Z</time>
      </trkpt>
      <trkpt lat="44.88082" lon="0.61883">
        <ele>127.8</ele>
        <time>2022-07-10T07:02:43Z</time>
      </trkpt>
      <trkpt lat="44.88076" lon="0.61882">
        <ele>127.6</ele>
        <time>2022-07-10T07:02:44Z</time>
      </trkpt>
      <trkpt lat="44.88069" lon="0.61885">
        <ele>127.4</ele>
        <time>2022-07-10T07:02:45Z</time>
      </trkpt>
      <trkpt lat="44.88063" lon="0.61888">
        <ele>127.2</ele>
        <time>2022-07-10T07:02:46Z</time>
      </trkpt>
      <trkpt lat="44.88058" lon="0.61891">
        <ele>127.1</ele>
        <time>2022-07-10T07:02:47Z</time>
      </trkpt>
      <trkpt lat="44.88053" lon="0.61894">
        <ele>127</ele>
        <time>2022-07-10T07:02:48Z</time>
      </trkpt>
      <trkpt lat="44.8805" lon="0.61899">
        <ele>126.9</ele>
        <time>2022-07-10T07:02:49Z</time>
      </trkpt>
      <trkpt lat="44.88047" lon="0.61905">
        <ele>126.8</ele>
        <time>2022-07-10T07:02:50Z</time>
      </trkpt>
      <trkpt lat="44.88044" lon="0.61912">
        <ele>126.8</ele>
        <time>2022-07-10T07:02:51Z</time>
      </trkpt>
      <trkpt lat="44.88037" lon="0.61926">
        <ele>126.7</ele>
        <time>2022-07-10T07:02:53Z</time>
      </trkpt>
      <trkpt lat="44.88034" lon="0.61933">
        <ele>126.7</ele>
        <time>2022-07-10T07:02:54Z</time>
      </trkpt>
      <trkpt lat="44.8803" lon="0.61941">
        <ele>126.7</ele>
        <time>2022-07-10T07:02:55Z</time>
      </trkpt>
      <trkpt lat="44.88027" lon="0.61948">
        <ele>126.7</ele>
        <time>2022-07-10T07:02:56Z</time>
      </trkpt>
      <trkpt lat="44.88022" lon="0.61954">
        <ele>126.7</ele>
        <time>2022-07-10T07:02:57Z</time>
      </trkpt>
      <trkpt lat="44.88017" lon="0.61957">
        <ele>126.8</ele>
        <time>2022-07-10T07:02:58Z</time>
      </trkpt>
      <trkpt lat="44.88012" lon="0.6196">
        <ele>126.8</ele>
        <time>2022-07-10T07:02:59Z</time>
      </trkpt>
      <trkpt lat="44.88008" lon="0.61971">
        <ele>126.8</ele>
        <time>2022-07-10T07:03:00Z</time>
      </trkpt>
      <trkpt lat="44.88008" lon="0.61979">
        <ele>126.7</ele>
        <time>2022-07-10T07:03:01Z</time>
      </trkpt>
      <trkpt lat="44.88014" lon="0.61986">
        <ele>126.6</ele>
        <time>2022-07-10T07:03:03Z</time>
      </trkpt>
      <trkpt lat="44.88021" lon="0.61993">
        <ele>126.5</ele>
        <time>2022-07-10T07:03:05Z</time>
      </trkpt>
      <trkpt lat="44.88027" lon="0.62002">
        <ele>126.3</ele>
        <time>2022-07-10T07:03:07Z</time>
      </trkpt>
      <trkpt lat="44.88033" lon="0.62012">
        <ele>126.2</ele>
        <time>2022-07-10T07:03:09Z</time>
      </trkpt>
      <trkpt lat="44.8804" lon="0.62024">
        <ele>126</ele>
        <time>2022-07-10T07:03:11Z</time>
      </trkpt>
      <trkpt lat="44.88047" lon="0.62036">
        <ele>125.8</ele>
        <time>2022-07-10T07:03:13Z</time>
      </trkpt>
      <trkpt lat="44.88054" lon="0.6205">
        <ele>125.6</ele>
        <time>2022-07-10T07:03:15Z</time>
      </trkpt>
      <trkpt lat="44.88059" lon="0.6206">
        <ele>125.5</ele>
        <time>2022-07-10T07:03:17Z</time>
      </trkpt>
      <trkpt lat="44.88061" lon="0.62063">
        <ele>125.4</ele>
        <time>2022-07-10T07:03:18Z</time>
      </trkpt>
      <trkpt lat="44.88062" lon="0.62065">
        <ele>125.4</ele>
        <time>2022-07-10T07:03:19Z</time>
      </trkpt>
      <trkpt lat="44.88065" lon="0.62071">
        <ele>125.3</ele>
        <time>2022-07-10T07:03:21Z</time>
      </trkpt>
      <trkpt lat="44.88069" lon="0.62078">
        <ele>125.1</ele>
        <time>2022-07-10T07:03:23Z</time>
      </trkpt>
      <trkpt lat="44.88074" lon="0.62088">
        <ele>125</ele>
        <time>2022-07-10T07:03:25Z</time>
      </trkpt>
      <trkpt lat="44.88079" lon="0.62099">
        <ele>124.8</ele>
        <time>2022-07-10T07:03:27Z</time>
      </trkpt>
      <trkpt lat="44.88081" lon="0.62104">
        <ele>124.7</ele>
        <time>2022-07-10T07:03:28Z</time>
      </trkpt>
      <trkpt lat="44.88083" lon="0.6211">
        <ele>124.6</ele>
        <time>2022-07-10T07:03:29Z</time>
      </trkpt>
      <trkpt lat="44.88085" lon="0.62116">
        <ele>124.4</ele>
        <time>2022-07-10T07:03:30Z</time>
      </trkpt>
      <trkpt lat="44.88087" lon="0.62121">
        <ele>124.3</ele>
        <time>2022-07-10T07:03:31Z</time>
      </trkpt>
      <trkpt lat="44.8809" lon="0.62125">
        <ele>124.2</ele>
        <time>2022-07-10T07:03:32Z</time>
      </trkpt>
      <trkpt lat="44.88094" lon="0.62129">
        <ele>124.1</ele>
        <time>2022-07-10T07:03:33Z</time>
      </trkpt>
      <trkpt lat="44.88097" lon="0.62134">
        <ele>123.9</ele>
        <time>2022-07-10T07:03:34Z</time>
      </trkpt>
      <trkpt lat="44.88101" lon="0.62138">
        <ele>123.8</ele>
        <time>2022-07-10T07:03:35Z</time>
      </trkpt>
      <trkpt lat="44.88104" lon="0.62142">
        <ele>123.6</ele>
        <time>2022-07-10T07:03:36Z</time>
      </trkpt>
      <trkpt lat="44.88109" lon="0.62147">
        <ele>123.5</ele>
        <time>2022-07-10T07:03:37Z</time>
      </trkpt>
      <trkpt lat="44.88113" lon="0.62152">
        <ele>123.3</ele>
        <time>2022-07-10T07:03:38Z</time>
      </trkpt>
      <trkpt lat="44.88118" lon="0.62157">
        <ele>123</ele>
        <time>2022-07-10T07:03:39Z</time>
      </trkpt>
      <trkpt lat="44.88126" lon="0.62166">
        <ele>122.6</ele>
        <time>2022-07-10T07:03:41Z</time>
      </trkpt>
      <trkpt lat="44.88131" lon="0.62171">
        <ele>122.4</ele>
        <time>2022-07-10T07:03:42Z</time>
      </trkpt>
      <trkpt lat="44.88136" lon="0.62177">
        <ele>122.1</ele>
        <time>2022-07-10T07:03:43Z</time>
      </trkpt>
      <trkpt lat="44.8814" lon="0.62182">
        <ele>121.8</ele>
        <time>2022-07-10T07:03:44Z</time>
      </trkpt>
      <trkpt lat="44.88145" lon="0.62187">
        <ele>121.4</ele>
        <time>2022-07-10T07:03:45Z</time>
      </trkpt>
      <trkpt lat="44.88156" lon="0.62198">
        <ele>120.5</ele>
        <time>2022-07-10T07:03:47Z</time>
      </trkpt>
      <trkpt lat="44.88167" lon="0.62209">
        <ele>119.4</ele>
        <time>2022-07-10T07:03:49Z</time>
      </trkpt>
      <trkpt lat="44.88178" lon="0.62218">
        <ele>118.5</ele>
        <time>2022-07-10T07:03:51Z</time>
      </trkpt>
      <trkpt lat="44.88188" lon="0.62226">
        <ele>117.8</ele>
        <time>2022-07-10T07:03:53Z</time>
      </trkpt>
      <trkpt lat="44.88191" lon="0.62227">
        <ele>117.6</ele>
        <time>2022-07-10T07:03:54Z</time>
      </trkpt>
      <trkpt lat="44.88194" lon="0.62228">
        <ele>117.5</ele>
        <time>2022-07-10T07:03:55Z</time>
      </trkpt>
      <trkpt lat="44.88194" lon="0.62228">
        <ele>117.5</ele>
        <time>2022-07-10T07:03:56Z</time>
      </trkpt>
      <trkpt lat="44.88196" lon="0.62229">
        <ele>117.3</ele>
        <time>2022-07-10T07:03:57Z</time>
      </trkpt>
      <trkpt lat="44.882" lon="0.6223">
        <ele>117.1</ele>
        <time>2022-07-10T07:03:59Z</time>
      </trkpt>
      <trkpt lat="44.88203" lon="0.62231">
        <ele>116.9</ele>
        <time>2022-07-10T07:04:00Z</time>
      </trkpt>
      <trkpt lat="44.88208" lon="0.62232">
        <ele>116.7</ele>
        <time>2022-07-10T07:04:01Z</time>
      </trkpt>
      <trkpt lat="44.88211" lon="0.62232">
        <ele>116.5</ele>
        <time>2022-07-10T07:04:02Z</time>
      </trkpt>
      <trkpt lat="44.88214" lon="0.62232">
        <ele>116.4</ele>
        <time>2022-07-10T07:04:03Z</time>
      </trkpt>
      <trkpt lat="44.88217" lon="0.62232">
        <ele>116.3</ele>
        <time>2022-07-10T07:04:04Z</time>
      </trkpt>
      <trkpt lat="44.88221" lon="0.62232">
        <ele>116.1</ele>
        <time>2022-07-10T07:04:05Z</time>
      </trkpt>
      <trkpt lat="44.88224" lon="0.62232">
        <ele>116</ele>
        <time>2022-07-10T07:04:06Z</time>
      </trkpt>
      <trkpt lat="44.88227" lon="0.62232">
        <ele>115.9</ele>
        <time>2022-07-10T07:04:07Z</time>
      </trkpt>
      <trkpt lat="44.88229" lon="0.62233">
        <ele>115.8</ele>
        <time>2022-07-10T07:04:08Z</time>
      </trkpt>
      <trkpt lat="44.88245" lon="0.6225">
        <ele>114.9</ele>
        <time>2022-07-10T07:04:09Z</time>
      </trkpt>
      <trkpt lat="44.88243" lon="0.62253">
        <ele>114.5</ele>
        <time>2022-07-10T07:04:11Z</time>
      </trkpt>
      <trkpt lat="44.88243" lon="0.62254">
        <ele>114.4</ele>
        <time>2022-07-10T07:04:12Z</time>
      </trkpt>
      <trkpt lat="44.88242" lon="0.62256">
        <ele>114.4</ele>
        <time>2022-07-10T07:04:13Z</time>
      </trkpt>
      <trkpt lat="44.8824" lon="0.62259">
        <ele>114.3</ele>
        <time>2022-07-10T07:04:15Z</time>
      </trkpt>
      <trkpt lat="44.88239" lon="0.62261">
        <ele>114.2</ele>
        <time>2022-07-10T07:04:16Z</time>
      </trkpt>
      <trkpt lat="44.88238" lon="0.62264">
        <ele>114.2</ele>
        <time>2022-07-10T07:04:17Z</time>
      </trkpt>
      <trkpt lat="44.88234" lon="0.62271">
        <ele>113.9</ele>
        <time>2022-07-10T07:04:19Z</time>
      </trkpt>
      <trkpt lat="44.8823" lon="0.62279">
        <ele>113.7</ele>
        <time>2022-07-10T07:04:21Z</time>
      </trkpt>
      <trkpt lat="44.88227" lon="0.62286">
        <ele>113.5</ele>
        <time>2022-07-10T07:04:23Z</time>
      </trkpt>
      <trkpt lat="44.88223" lon="0.62294">
        <ele>113.2</ele>
        <time>2022-07-10T07:04:25Z</time>
      </trkpt>
      <trkpt lat="44.88219" lon="0.62302">
        <ele>113</ele>
        <time>2022-07-10T07:04:27Z</time>
      </trkpt>
      <trkpt lat="44.88217" lon="0.62306">
        <ele>112.9</ele>
        <time>2022-07-10T07:04:28Z</time>
      </trkpt>
      <trkpt lat="44.88215" lon="0.62312">
        <ele>112.8</ele>
        <time>2022-07-10T07:04:29Z</time>
      </trkpt>
      <trkpt lat="44.8821" lon="0.62321">
        <ele>112.5</ele>
        <time>2022-07-10T07:04:31Z</time>
      </trkpt>
      <trkpt lat="44.88205" lon="0.62331">
        <ele>112.2</ele>
        <time>2022-07-10T07:04:33Z</time>
      </trkpt>
      <trkpt lat="44.88203" lon="0.62337">
        <ele>112.1</ele>
        <time>2022-07-10T07:04:34Z</time>
      </trkpt>
      <trkpt lat="44.882" lon="0.62341">
        <ele>112</ele>
        <time>2022-07-10T07:04:35Z</time>
      </trkpt>
      <trkpt lat="44.882" lon="0.62345">
        <ele>112</ele>
        <time>2022-07-10T07:04:36Z</time>
      </trkpt>
      <trkpt lat="44.882" lon="0.62368">
        <ele>111.7</ele>
        <time>2022-07-10T07:04:37Z</time>
      </trkpt>
      <trkpt lat="44.88207" lon="0.62369">
        <ele>111.2</ele>
        <time>2022-07-10T07:04:39Z</time>
      </trkpt>
      <trkpt lat="44.88211" lon="0.6237">
        <ele>111</ele>
        <time>2022-07-10T07:04:40Z</time>
      </trkpt>
      <trkpt lat="44.88215" lon="0.6237">
        <ele>110.9</ele>
        <time>2022-07-10T07:04:41Z</time>
      </trkpt>
      <trkpt lat="44.88223" lon="0.62371">
        <ele>110.7</ele>
        <time>2022-07-10T07:04:43Z</time>
      </trkpt>
      <trkpt lat="44.88232" lon="0.62373">
        <ele>110.5</ele>
        <time>2022-07-10T07:04:45Z</time>
      </trkpt>
      <trkpt lat="44.88241" lon="0.62376">
        <ele>110.4</ele>
        <time>2022-07-10T07:04:47Z</time>
      </trkpt>
      <trkpt lat="44.8825" lon="0.62379">
        <ele>110.2</ele>
        <time>2022-07-10T07:04:49Z</time>
      </trkpt>
      <trkpt lat="44.88258" lon="0.62383">
        <ele>110.1</ele>
        <time>2022-07-10T07:04:51Z</time>
      </trkpt>
      <trkpt lat="44.88266" lon="0.62388">
        <ele>110</ele>
        <time>2022-07-10T07:04:53Z</time>
      </trkpt>
      <trkpt lat="44.88271" lon="0.62391">
        <ele>110</ele>
        <time>2022-07-10T07:04:54Z</time>
      </trkpt>
      <trkpt lat="44.88274" lon="0.62394">
        <ele>110</ele>
        <time>2022-07-10T07:04:55Z</time>
      </trkpt>
      <trkpt lat="44.88281" lon="0.62401">
        <ele>109.9</ele>
        <time>2022-07-10T07:04:57Z</time>
      </trkpt>
      <trkpt lat="44.88284" lon="0.62405">
        <ele>109.9</ele>
        <time>2022-07-10T07:04:58Z</time>
      </trkpt>
      <trkpt lat="44.88287" lon="0.62408">
        <ele>109.9</ele>
        <time>2022-07-10T07:04:59Z</time>
      </trkpt>
      <trkpt lat="44.88291" lon="0.62415">
        <ele>110</ele>
        <time>2022-07-10T07:05:01Z</time>
      </trkpt>
      <trkpt lat="44.88294" lon="0.6242">
        <ele>110</ele>
        <time>2022-07-10T07:05:02Z</time>
      </trkpt>
      <trkpt lat="44.88297" lon="0.62426">
        <ele>110.1</ele>
        <time>2022-07-10T07:05:03Z</time>
      </trkpt>
      <trkpt lat="44.88299" lon="0.62431">
        <ele>110.1</ele>
        <time>2022-07-10T07:05:04Z</time>
      </trkpt>
      <trkpt lat="44.88301" lon="0.62434">
        <ele>110.2</ele>
        <time>2022-07-10T07:05:05Z</time>
      </trkpt>
      <trkpt lat="44.88304" lon="0.6244">
        <ele>110.2</ele>
        <time>2022-07-10T07:05:07Z</time>
      </trkpt>
      <trkpt lat="44.88305" lon="0.62443">
        <ele>110.2</ele>
        <time>2022-07-10T07:05:08Z</time>
      </trkpt>
      <trkpt lat="44.88307" lon="0.62447">
        <ele>110.3</ele>
        <time>2022-07-10T07:05:09Z</time>
      </trkpt>
      <trkpt lat="44.88311" lon="0.62455">
        <ele>110.4</ele>
        <time>2022-07-10T07:05:11Z</time>
      </trkpt>
      <trkpt lat="44.88312" lon="0.62457">
        <ele>110.4</ele>
        <time>2022-07-10T07:05:12Z</time>
      </trkpt>
      <trkpt lat="44.88313" lon="0.6246">
        <ele>110.4</ele>
        <time>2022-07-10T07:05:13Z</time>
      </trkpt>
      <trkpt lat="44.88316" lon="0.62468">
        <ele>110.5</ele>
        <time>2022-07-10T07:05:15Z</time>
      </trkpt>
      <trkpt lat="44.88317" lon="0.62472">
        <ele>110.6</ele>
        <time>2022-07-10T07:05:16Z</time>
      </trkpt>
      <trkpt lat="44.88319" lon="0.62477">
        <ele>110.6</ele>
        <time>2022-07-10T07:05:17Z</time>
      </trkpt>
      <trkpt lat="44.8832" lon="0.62481">
        <ele>110.7</ele>
        <time>2022-07-10T07:05:18Z</time>
      </trkpt>
      <trkpt lat="44.88322" lon="0.62485">
        <ele>110.7</ele>
        <time>2022-07-10T07:05:19Z</time>
      </trkpt>
      <trkpt lat="44.88323" lon="0.62488">
        <ele>110.8</ele>
        <time>2022-07-10T07:05:20Z</time>
      </trkpt>
      <trkpt lat="44.88325" lon="0.62492">
        <ele>110.8</ele>
        <time>2022-07-10T07:05:21Z</time>
      </trkpt>
      <trkpt lat="44.88327" lon="0.62499">
        <ele>111</ele>
        <time>2022-07-10T07:05:23Z</time>
      </trkpt>
      <trkpt lat="44.8833" lon="0.62507">
        <ele>111.2</ele>
        <time>2022-07-10T07:05:25Z</time>
      </trkpt>
      <trkpt lat="44.88332" lon="0.62512">
        <ele>111.3</ele>
        <time>2022-07-10T07:05:26Z</time>
      </trkpt>
      <trkpt lat="44.88334" lon="0.62516">
        <ele>111.4</ele>
        <time>2022-07-10T07:05:27Z</time>
      </trkpt>
      <trkpt lat="44.88337" lon="0.62525">
        <ele>111.7</ele>
        <time>2022-07-10T07:05:29Z</time>
      </trkpt>
      <trkpt lat="44.88341" lon="0.62535">
        <ele>112.1</ele>
        <time>2022-07-10T07:05:31Z</time>
      </trkpt>
      <trkpt lat="44.88345" lon="0.62546">
        <ele>112.6</ele>
        <time>2022-07-10T07:05:33Z</time>
      </trkpt>
      <trkpt lat="44.88348" lon="0.62553">
        <ele>112.9</ele>
        <time>2022-07-10T07:05:35Z</time>
      </trkpt>
      <trkpt lat="44.88349" lon="0.62558">
        <ele>113.2</ele>
        <time>2022-07-10T07:05:36Z</time>
      </trkpt>
      <trkpt lat="44.88351" lon="0.62563">
        <ele>113.4</ele>
        <time>2022-07-10T07:05:37Z</time>
      </trkpt>
      <trkpt lat="44.88355" lon="0.62572">
        <ele>113.8</ele>
        <time>2022-07-10T07:05:39Z</time>
      </trkpt>
      <trkpt lat="44.88359" lon="0.62582">
        <ele>114.4</ele>
        <time>2022-07-10T07:05:41Z</time>
      </trkpt>
      <trkpt lat="44.88364" lon="0.62593">
        <ele>114.9</ele>
        <time>2022-07-10T07:05:43Z</time>
      </trkpt>
      <trkpt lat="44.88372" lon="0.62604">
        <ele>115.5</ele>
        <time>2022-07-10T07:05:45Z</time>
      </trkpt>
      <trkpt lat="44.8838" lon="0.62613">
        <ele>116.1</ele>
        <time>2022-07-10T07:05:47Z</time>
      </trkpt>
      <trkpt lat="44.88386" lon="0.62621">
        <ele>116.6</ele>
        <time>2022-07-10T07:05:49Z</time>
      </trkpt>
      <trkpt lat="44.88393" lon="0.62629">
        <ele>117.1</ele>
        <time>2022-07-10T07:05:51Z</time>
      </trkpt>
      <trkpt lat="44.88396" lon="0.62633">
        <ele>117.3</ele>
        <time>2022-07-10T07:05:52Z</time>
      </trkpt>
      <trkpt lat="44.88398" lon="0.62636">
        <ele>117.5</ele>
        <time>2022-07-10T07:05:53Z</time>
      </trkpt>
      <trkpt lat="44.88403" lon="0.62642">
        <ele>117.9</ele>
        <time>2022-07-10T07:05:55Z</time>
      </trkpt>
      <trkpt lat="44.88408" lon="0.62649">
        <ele>118.3</ele>
        <time>2022-07-10T07:05:57Z</time>
      </trkpt>
      <trkpt lat="44.88413" lon="0.62656">
        <ele>118.7</ele>
        <time>2022-07-10T07:05:59Z</time>
      </trkpt>
      <trkpt lat="44.88415" lon="0.62663">
        <ele>118.9</ele>
        <time>2022-07-10T07:06:01Z</time>
      </trkpt>
      <trkpt lat="44.88418" lon="0.62668">
        <ele>119.1</ele>
        <time>2022-07-10T07:06:03Z</time>
      </trkpt>
      <trkpt lat="44.8842" lon="0.62674">
        <ele>119.3</ele>
        <time>2022-07-10T07:06:05Z</time>
      </trkpt>
      <trkpt lat="44.88422" lon="0.62677">
        <ele>119.4</ele>
        <time>2022-07-10T07:06:06Z</time>
      </trkpt>
      <trkpt lat="44.88423" lon="0.6268">
        <ele>119.5</ele>
        <time>2022-07-10T07:06:07Z</time>
      </trkpt>
      <trkpt lat="44.88426" lon="0.62687">
        <ele>119.8</ele>
        <time>2022-07-10T07:06:09Z</time>
      </trkpt>
      <trkpt lat="44.88427" lon="0.62691">
        <ele>120</ele>
        <time>2022-07-10T07:06:10Z</time>
      </trkpt>
      <trkpt lat="44.88429" lon="0.62695">
        <ele>120.2</ele>
        <time>2022-07-10T07:06:11Z</time>
      </trkpt>
      <trkpt lat="44.88431" lon="0.62698">
        <ele>120.3</ele>
        <time>2022-07-10T07:06:12Z</time>
      </trkpt>
      <trkpt lat="44.88432" lon="0.627">
        <ele>120.4</ele>
        <time>2022-07-10T07:06:13Z</time>
      </trkpt>
      <trkpt lat="44.88433" lon="0.62702">
        <ele>120.5</ele>
        <time>2022-07-10T07:06:14Z</time>
      </trkpt>
      <trkpt lat="44.88434" lon="0.62705">
        <ele>120.6</ele>
        <time>2022-07-10T07:06:15Z</time>
      </trkpt>
      <trkpt lat="44.88436" lon="0.62709">
        <ele>120.8</ele>
        <time>2022-07-10T07:06:16Z</time>
      </trkpt>
      <trkpt lat="44.88437" lon="0.62712">
        <ele>120.9</ele>
        <time>2022-07-10T07:06:17Z</time>
      </trkpt>
      <trkpt lat="44.88438" lon="0.62714">
        <ele>121</ele>
        <time>2022-07-10T07:06:18Z</time>
      </trkpt>
      <trkpt lat="44.8844" lon="0.62718">
        <ele>121.2</ele>
        <time>2022-07-10T07:06:19Z</time>
      </trkpt>
      <trkpt lat="44.88444" lon="0.62725">
        <ele>121.4</ele>
        <time>2022-07-10T07:06:21Z</time>
      </trkpt>
      <trkpt lat="44.88445" lon="0.62728">
        <ele>121.5</ele>
        <time>2022-07-10T07:06:22Z</time>
      </trkpt>
      <trkpt lat="44.88447" lon="0.62732">
        <ele>121.7</ele>
        <time>2022-07-10T07:06:23Z</time>
      </trkpt>
      <trkpt lat="44.88451" lon="0.6274">
        <ele>121.9</ele>
        <time>2022-07-10T07:06:25Z</time>
      </trkpt>
      <trkpt lat="44.88453" lon="0.62744">
        <ele>122.1</ele>
        <time>2022-07-10T07:06:26Z</time>
      </trkpt>
      <trkpt lat="44.88455" lon="0.62748">
        <ele>122.2</ele>
        <time>2022-07-10T07:06:27Z</time>
      </trkpt>
      <trkpt lat="44.88459" lon="0.62757">
        <ele>122.4</ele>
        <time>2022-07-10T07:06:29Z</time>
      </trkpt>
      <trkpt lat="44.88461" lon="0.62761">
        <ele>122.6</ele>
        <time>2022-07-10T07:06:30Z</time>
      </trkpt>
      <trkpt lat="44.88465" lon="0.62769">
        <ele>122.8</ele>
        <time>2022-07-10T07:06:31Z</time>
      </trkpt>
      <trkpt lat="44.88467" lon="0.62773">
        <ele>123</ele>
        <time>2022-07-10T07:06:32Z</time>
      </trkpt>
      <trkpt lat="44.88469" lon="0.62778">
        <ele>123.1</ele>
        <time>2022-07-10T07:06:33Z</time>
      </trkpt>
      <trkpt lat="44.88471" lon="0.62782">
        <ele>123.2</ele>
        <time>2022-07-10T07:06:34Z</time>
      </trkpt>
      <trkpt lat="44.88473" lon="0.62786">
        <ele>123.3</ele>
        <time>2022-07-10T07:06:35Z</time>
      </trkpt>
      <trkpt lat="44.88475" lon="0.62789">
        <ele>123.4</ele>
        <time>2022-07-10T07:06:36Z</time>
      </trkpt>
      <trkpt lat="44.88477" lon="0.62793">
        <ele>123.6</ele>
        <time>2022-07-10T07:06:37Z</time>
      </trkpt>
      <trkpt lat="44.8848" lon="0.628">
        <ele>123.8</ele>
        <time>2022-07-10T07:06:39Z</time>
      </trkpt>
      <trkpt lat="44.88482" lon="0.62804">
        <ele>123.9</ele>
        <time>2022-07-10T07:06:40Z</time>
      </trkpt>
      <trkpt lat="44.88484" lon="0.62807">
        <ele>124.1</ele>
        <time>2022-07-10T07:06:41Z</time>
      </trkpt>
      <trkpt lat="44.88487" lon="0.62815">
        <ele>124.4</ele>
        <time>2022-07-10T07:06:43Z</time>
      </trkpt>
      <trkpt lat="44.88491" lon="0.62823">
        <ele>124.6</ele>
        <time>2022-07-10T07:06:45Z</time>
      </trkpt>
      <trkpt lat="44.88493" lon="0.62826">
        <ele>124.8</ele>
        <time>2022-07-10T07:06:46Z</time>
      </trkpt>
      <trkpt lat="44.88494" lon="0.6283">
        <ele>124.9</ele>
        <time>2022-07-10T07:06:47Z</time>
      </trkpt>
      <trkpt lat="44.88497" lon="0.62835">
        <ele>125.1</ele>
        <time>2022-07-10T07:06:49Z</time>
      </trkpt>
      <trkpt lat="44.88498" lon="0.62837">
        <ele>125.2</ele>
        <time>2022-07-10T07:06:50Z</time>
      </trkpt>
      <trkpt lat="44.88499" lon="0.6284">
        <ele>125.3</ele>
        <time>2022-07-10T07:06:51Z</time>
      </trkpt>
      <trkpt lat="44.88502" lon="0.62846">
        <ele>125.5</ele>
        <time>2022-07-10T07:06:53Z</time>
      </trkpt>
      <trkpt lat="44.88507" lon="0.62854">
        <ele>125.8</ele>
        <time>2022-07-10T07:06:55Z</time>
      </trkpt>
      <trkpt lat="44.88511" lon="0.62863">
        <ele>126.1</ele>
        <time>2022-07-10T07:06:57Z</time>
      </trkpt>
      <trkpt lat="44.88515" lon="0.62869">
        <ele>126.4</ele>
        <time>2022-07-10T07:06:59Z</time>
      </trkpt>
      <trkpt lat="44.88517" lon="0.62872">
        <ele>126.5</ele>
        <time>2022-07-10T07:07:00Z</time>
      </trkpt>
      <trkpt lat="44.88519" lon="0.62874">
        <ele>126.7</ele>
        <time>2022-07-10T07:07:01Z</time>
      </trkpt>
      <trkpt lat="44.88524" lon="0.6288">
        <ele>127</ele>
        <time>2022-07-10T07:07:03Z</time>
      </trkpt>
      <trkpt lat="44.88529" lon="0.62886">
        <ele>127.4</ele>
        <time>2022-07-10T07:07:05Z</time>
      </trkpt>
      <trkpt lat="44.88533" lon="0.62891">
        <ele>127.6</ele>
        <time>2022-07-10T07:07:07Z</time>
      </trkpt>
      <trkpt lat="44.88539" lon="0.62898">
        <ele>128</ele>
        <time>2022-07-10T07:07:09Z</time>
      </trkpt>
      <trkpt lat="44.88543" lon="0.62902">
        <ele>128.2</ele>
        <time>2022-07-10T07:07:10Z</time>
      </trkpt>
      <trkpt lat="44.88546" lon="0.62905">
        <ele>128.4</ele>
        <time>2022-07-10T07:07:11Z</time>
      </trkpt>
      <trkpt lat="44.88552" lon="0.6291">
        <ele>128.6</ele>
        <time>2022-07-10T07:07:13Z</time>
      </trkpt>
      <trkpt lat="44.88559" lon="0.62916">
        <ele>128.9</ele>
        <time>2022-07-10T07:07:15Z</time>
      </trkpt>
      <trkpt lat="44.88562" lon="0.62919">
        <ele>129</ele>
        <time>2022-07-10T07:07:16Z</time>
      </trkpt>
      <trkpt lat="44.88564" lon="0.62921">
        <ele>129.1</ele>
        <time>2022-07-10T07:07:17Z</time>
      </trkpt>
      <trkpt lat="44.88569" lon="0.62926">
        <ele>129.2</ele>
        <time>2022-07-10T07:07:19Z</time>
      </trkpt>
      <trkpt lat="44.88574" lon="0.6293">
        <ele>129.2</ele>
        <time>2022-07-10T07:07:21Z</time>
      </trkpt>
      <trkpt lat="44.88577" lon="0.62933">
        <ele>129.2</ele>
        <time>2022-07-10T07:07:22Z</time>
      </trkpt>
      <trkpt lat="44.8858" lon="0.62935">
        <ele>129.1</ele>
        <time>2022-07-10T07:07:23Z</time>
      </trkpt>
      <trkpt lat="44.88583" lon="0.62938">
        <ele>129.1</ele>
        <time>2022-07-10T07:07:24Z</time>
      </trkpt>
      <trkpt lat="44.88586" lon="0.62941">
        <ele>129</ele>
        <time>2022-07-10T07:07:25Z</time>
      </trkpt>
      <trkpt lat="44.88591" lon="0.62945">
        <ele>128.9</ele>
        <time>2022-07-10T07:07:26Z</time>
      </trkpt>
      <trkpt lat="44.88595" lon="0.62949">
        <ele>128.8</ele>
        <time>2022-07-10T07:07:27Z</time>
      </trkpt>
      <trkpt lat="44.88602" lon="0.62956">
        <ele>128.7</ele>
        <time>2022-07-10T07:07:29Z</time>
      </trkpt>
      <trkpt lat="44.8861" lon="0.62964">
        <ele>128.7</ele>
        <time>2022-07-10T07:07:31Z</time>
      </trkpt>
      <trkpt lat="44.88614" lon="0.62971">
        <ele>128.8</ele>
        <time>2022-07-10T07:07:32Z</time>
      </trkpt>
      <trkpt lat="44.88618" lon="0.62978">
        <ele>128.9</ele>
        <time>2022-07-10T07:07:33Z</time>
      </trkpt>
      <trkpt lat="44.88621" lon="0.62984">
        <ele>129</ele>
        <time>2022-07-10T07:07:34Z</time>
      </trkpt>
      <trkpt lat="44.88624" lon="0.6299">
        <ele>129.1</ele>
        <time>2022-07-10T07:07:35Z</time>
      </trkpt>
      <trkpt lat="44.88627" lon="0.63004">
        <ele>129.6</ele>
        <time>2022-07-10T07:07:37Z</time>
      </trkpt>
      <trkpt lat="44.88629" lon="0.63014">
        <ele>129.9</ele>
        <time>2022-07-10T07:07:39Z</time>
      </trkpt>
      <trkpt lat="44.8863" lon="0.63019">
        <ele>130.1</ele>
        <time>2022-07-10T07:07:40Z</time>
      </trkpt>
      <trkpt lat="44.88631" lon="0.63024">
        <ele>130.3</ele>
        <time>2022-07-10T07:07:41Z</time>
      </trkpt>
      <trkpt lat="44.88632" lon="0.63032">
        <ele>130.7</ele>
        <time>2022-07-10T07:07:43Z</time>
      </trkpt>
      <trkpt lat="44.88634" lon="0.6304">
        <ele>131.1</ele>
        <time>2022-07-10T07:07:45Z</time>
      </trkpt>
      <trkpt lat="44.88634" lon="0.63044">
        <ele>131.3</ele>
        <time>2022-07-10T07:07:46Z</time>
      </trkpt>
      <trkpt lat="44.88635" lon="0.63047">
        <ele>131.4</ele>
        <time>2022-07-10T07:07:47Z</time>
      </trkpt>
      <trkpt lat="44.88636" lon="0.63053">
        <ele>131.8</ele>
        <time>2022-07-10T07:07:49Z</time>
      </trkpt>
      <trkpt lat="44.88637" lon="0.63056">
        <ele>131.9</ele>
        <time>2022-07-10T07:07:50Z</time>
      </trkpt>
      <trkpt lat="44.88637" lon="0.6306">
        <ele>132.1</ele>
        <time>2022-07-10T07:07:51Z</time>
      </trkpt>
      <trkpt lat="44.88638" lon="0.63066">
        <ele>132.5</ele>
        <time>2022-07-10T07:07:53Z</time>
      </trkpt>
      <trkpt lat="44.88637" lon="0.63072">
        <ele>132.7</ele>
        <time>2022-07-10T07:07:54Z</time>
      </trkpt>
      <trkpt lat="44.88637" lon="0.63076">
        <ele>132.9</ele>
        <time>2022-07-10T07:07:55Z</time>
      </trkpt>
      <trkpt lat="44.88635" lon="0.63082">
        <ele>133.2</ele>
        <time>2022-07-10T07:07:57Z</time>
      </trkpt>
      <trkpt lat="44.88634" lon="0.63089">
        <ele>133.5</ele>
        <time>2022-07-10T07:07:59Z</time>
      </trkpt>
      <trkpt lat="44.88629" lon="0.63098">
        <ele>133.8</ele>
        <time>2022-07-10T07:08:01Z</time>
      </trkpt>
      <trkpt lat="44.88627" lon="0.63102">
        <ele>133.9</ele>
        <time>2022-07-10T07:08:03Z</time>
      </trkpt>
      <trkpt lat="44.88623" lon="0.63109">
        <ele>134</ele>
        <time>2022-07-10T07:08:05Z</time>
      </trkpt>
      <trkpt lat="44.88619" lon="0.63116">
        <ele>134</ele>
        <time>2022-07-10T07:08:07Z</time>
      </trkpt>
      <trkpt lat="44.88614" lon="0.63126">
        <ele>133.8</ele>
        <time>2022-07-10T07:08:09Z</time>
      </trkpt>
      <trkpt lat="44.88611" lon="0.63138">
        <ele>133.4</ele>
        <time>2022-07-10T07:08:11Z</time>
      </trkpt>
      <trkpt lat="44.88608" lon="0.63146">
        <ele>133</ele>
        <time>2022-07-10T07:08:12Z</time>
      </trkpt>
      <trkpt lat="44.88606" lon="0.63155">
        <ele>132.6</ele>
        <time>2022-07-10T07:08:13Z</time>
      </trkpt>
      <trkpt lat="44.88604" lon="0.63165">
        <ele>132.1</ele>
        <time>2022-07-10T07:08:14Z</time>
      </trkpt>
      <trkpt lat="44.88601" lon="0.63184">
        <ele>130.9</ele>
        <time>2022-07-10T07:08:15Z</time>
      </trkpt>
      <trkpt lat="44.88599" lon="0.63194">
        <ele>130.3</ele>
        <time>2022-07-10T07:08:16Z</time>
      </trkpt>
      <trkpt lat="44.88599" lon="0.63194">
        <ele>130.3</ele>
        <time>2022-07-10T07:08:17Z</time>
      </trkpt>
      <trkpt lat="44.88597" lon="0.63212">
        <ele>129.3</ele>
        <time>2022-07-10T07:08:19Z</time>
      </trkpt>
      <trkpt lat="44.88595" lon="0.63223">
        <ele>128.6</ele>
        <time>2022-07-10T07:08:20Z</time>
      </trkpt>
      <trkpt lat="44.88593" lon="0.63235">
        <ele>127.9</ele>
        <time>2022-07-10T07:08:21Z</time>
      </trkpt>
      <trkpt lat="44.88591" lon="0.63246">
        <ele>127.3</ele>
        <time>2022-07-10T07:08:22Z</time>
      </trkpt>
      <trkpt lat="44.88592" lon="0.63261">
        <ele>126.6</ele>
        <time>2022-07-10T07:08:23Z</time>
      </trkpt>
      <trkpt lat="44.88593" lon="0.63272">
        <ele>126.2</ele>
        <time>2022-07-10T07:08:24Z</time>
      </trkpt>
      <trkpt lat="44.88594" lon="0.63283">
        <ele>125.8</ele>
        <time>2022-07-10T07:08:25Z</time>
      </trkpt>
      <trkpt lat="44.88598" lon="0.63307">
        <ele>124.9</ele>
        <time>2022-07-10T07:08:26Z</time>
      </trkpt>
      <trkpt lat="44.88601" lon="0.63317">
        <ele>124.5</ele>
        <time>2022-07-10T07:08:27Z</time>
      </trkpt>
      <trkpt lat="44.88605" lon="0.63327">
        <ele>124.1</ele>
        <time>2022-07-10T07:08:29Z</time>
      </trkpt>
      <trkpt lat="44.88613" lon="0.63346">
        <ele>123.2</ele>
        <time>2022-07-10T07:08:31Z</time>
      </trkpt>
      <trkpt lat="44.88622" lon="0.63363">
        <ele>122.3</ele>
        <time>2022-07-10T07:08:33Z</time>
      </trkpt>
      <trkpt lat="44.88628" lon="0.63372">
        <ele>121.8</ele>
        <time>2022-07-10T07:08:34Z</time>
      </trkpt>
      <trkpt lat="44.88636" lon="0.63378">
        <ele>121.3</ele>
        <time>2022-07-10T07:08:35Z</time>
      </trkpt>
      <trkpt lat="44.88652" lon="0.63388">
        <ele>120.4</ele>
        <time>2022-07-10T07:08:37Z</time>
      </trkpt>
      <trkpt lat="44.8866" lon="0.63392">
        <ele>119.9</ele>
        <time>2022-07-10T07:08:38Z</time>
      </trkpt>
      <trkpt lat="44.88667" lon="0.63397">
        <ele>119.5</ele>
        <time>2022-07-10T07:08:39Z</time>
      </trkpt>
      <trkpt lat="44.88682" lon="0.63406">
        <ele>118.7</ele>
        <time>2022-07-10T07:08:41Z</time>
      </trkpt>
      <trkpt lat="44.88698" lon="0.63416">
        <ele>118</ele>
        <time>2022-07-10T07:08:43Z</time>
      </trkpt>
      <trkpt lat="44.88711" lon="0.63427">
        <ele>117.4</ele>
        <time>2022-07-10T07:08:45Z</time>
      </trkpt>
      <trkpt lat="44.88724" lon="0.6344">
        <ele>116.9</ele>
        <time>2022-07-10T07:08:47Z</time>
      </trkpt>
      <trkpt lat="44.88739" lon="0.63454">
        <ele>116.3</ele>
        <time>2022-07-10T07:08:49Z</time>
      </trkpt>
      <trkpt lat="44.88746" lon="0.63462">
        <ele>116</ele>
        <time>2022-07-10T07:08:50Z</time>
      </trkpt>
      <trkpt lat="44.88753" lon="0.63469">
        <ele>115.9</ele>
        <time>2022-07-10T07:08:51Z</time>
      </trkpt>
      <trkpt lat="44.8876" lon="0.63475">
        <ele>115.8</ele>
        <time>2022-07-10T07:08:52Z</time>
      </trkpt>
      <trkpt lat="44.88768" lon="0.63486">
        <ele>115.8</ele>
        <time>2022-07-10T07:08:53Z</time>
      </trkpt>
      <trkpt lat="44.8877" lon="0.63496">
        <ele>115.9</ele>
        <time>2022-07-10T07:08:54Z</time>
      </trkpt>
      <trkpt lat="44.88766" lon="0.63504">
        <ele>116</ele>
        <time>2022-07-10T07:08:55Z</time>
      </trkpt>
      <trkpt lat="44.88759" lon="0.63521">
        <ele>116.3</ele>
        <time>2022-07-10T07:08:57Z</time>
      </trkpt>
      <trkpt lat="44.88755" lon="0.63523">
        <ele>116.3</ele>
        <time>2022-07-10T07:08:59Z</time>
      </trkpt>
      <trkpt lat="44.88749" lon="0.63526">
        <ele>116.4</ele>
        <time>2022-07-10T07:09:01Z</time>
      </trkpt>
      <trkpt lat="44.88744" lon="0.63529">
        <ele>116.4</ele>
        <time>2022-07-10T07:09:03Z</time>
      </trkpt>
      <trkpt lat="44.88737" lon="0.63538">
        <ele>116.5</ele>
        <time>2022-07-10T07:09:05Z</time>
      </trkpt>
      <trkpt lat="44.88735" lon="0.63541">
        <ele>116.5</ele>
        <time>2022-07-10T07:09:07Z</time>
      </trkpt>
      <trkpt lat="44.88733" lon="0.63543">
        <ele>116.6</ele>
        <time>2022-07-10T07:09:08Z</time>
      </trkpt>
      <trkpt lat="44.8873" lon="0.63546">
        <ele>116.6</ele>
        <time>2022-07-10T07:09:09Z</time>
      </trkpt>
      <trkpt lat="44.88725" lon="0.63552">
        <ele>116.7</ele>
        <time>2022-07-10T07:09:11Z</time>
      </trkpt>
      <trkpt lat="44.88721" lon="0.63558">
        <ele>117</ele>
        <time>2022-07-10T07:09:13Z</time>
      </trkpt>
      <trkpt lat="44.88715" lon="0.63567">
        <ele>117.5</ele>
        <time>2022-07-10T07:09:15Z</time>
      </trkpt>
      <trkpt lat="44.88712" lon="0.6357">
        <ele>117.7</ele>
        <time>2022-07-10T07:09:17Z</time>
      </trkpt>
      <trkpt lat="44.88709" lon="0.63574">
        <ele>118</ele>
        <time>2022-07-10T07:09:19Z</time>
      </trkpt>
      <trkpt lat="44.88707" lon="0.63577">
        <ele>118.2</ele>
        <time>2022-07-10T07:09:20Z</time>
      </trkpt>
      <trkpt lat="44.88704" lon="0.63581">
        <ele>118.5</ele>
        <time>2022-07-10T07:09:21Z</time>
      </trkpt>
      <trkpt lat="44.887" lon="0.6358">
        <ele>118.7</ele>
        <time>2022-07-10T07:09:22Z</time>
      </trkpt>
      <trkpt lat="44.88703" lon="0.63583">
        <ele>118.9</ele>
        <time>2022-07-10T07:09:23Z</time>
      </trkpt>
      <trkpt lat="44.88699" lon="0.63589">
        <ele>119.2</ele>
        <time>2022-07-10T07:09:25Z</time>
      </trkpt>
      <trkpt lat="44.88691" lon="0.63599">
        <ele>119.7</ele>
        <time>2022-07-10T07:09:27Z</time>
      </trkpt>
      <trkpt lat="44.88688" lon="0.63603">
        <ele>119.8</ele>
        <time>2022-07-10T07:09:29Z</time>
      </trkpt>
      <trkpt lat="44.88677" lon="0.63609">
        <ele>120</ele>
        <time>2022-07-10T07:09:31Z</time>
      </trkpt>
      <trkpt lat="44.88666" lon="0.63611">
        <ele>120.1</ele>
        <time>2022-07-10T07:09:33Z</time>
      </trkpt>
      <trkpt lat="44.88662" lon="0.63611">
        <ele>120.1</ele>
        <time>2022-07-10T07:09:35Z</time>
      </trkpt>
      <trkpt lat="44.88653" lon="0.63611">
        <ele>120.2</ele>
        <time>2022-07-10T07:09:37Z</time>
      </trkpt>
      <trkpt lat="44.88645" lon="0.63611">
        <ele>120.4</ele>
        <time>2022-07-10T07:09:39Z</time>
      </trkpt>
      <trkpt lat="44.88636" lon="0.63612">
        <ele>120.5</ele>
        <time>2022-07-10T07:09:41Z</time>
      </trkpt>
      <trkpt lat="44.88628" lon="0.63613">
        <ele>120.8</ele>
        <time>2022-07-10T07:09:43Z</time>
      </trkpt>
      <trkpt lat="44.8862" lon="0.63614">
        <ele>121</ele>
        <time>2022-07-10T07:09:45Z</time>
      </trkpt>
      <trkpt lat="44.88613" lon="0.63615">
        <ele>121.2</ele>
        <time>2022-07-10T07:09:47Z</time>
      </trkpt>
      <trkpt lat="44.88605" lon="0.63615">
        <ele>121.4</ele>
        <time>2022-07-10T07:09:49Z</time>
      </trkpt>
      <trkpt lat="44.88597" lon="0.63616">
        <ele>121.5</ele>
        <time>2022-07-10T07:09:51Z</time>
      </trkpt>
      <trkpt lat="44.88589" lon="0.63616">
        <ele>121.7</ele>
        <time>2022-07-10T07:09:53Z</time>
      </trkpt>
      <trkpt lat="44.8858" lon="0.63616">
        <ele>121.8</ele>
        <time>2022-07-10T07:09:55Z</time>
      </trkpt>
      <trkpt lat="44.88572" lon="0.63616">
        <ele>122</ele>
        <time>2022-07-10T07:09:57Z</time>
      </trkpt>
      <trkpt lat="44.88564" lon="0.63616">
        <ele>122.1</ele>
        <time>2022-07-10T07:09:59Z</time>
      </trkpt>
      <trkpt lat="44.88556" lon="0.63616">
        <ele>122.3</ele>
        <time>2022-07-10T07:10:01Z</time>
      </trkpt>
      <trkpt lat="44.88547" lon="0.63617">
        <ele>122.3</ele>
        <time>2022-07-10T07:10:03Z</time>
      </trkpt>
      <trkpt lat="44.88544" lon="0.63617">
        <ele>122.4</ele>
        <time>2022-07-10T07:10:04Z</time>
      </trkpt>
      <trkpt lat="44.8854" lon="0.63617">
        <ele>122.4</ele>
        <time>2022-07-10T07:10:05Z</time>
      </trkpt>
      <trkpt lat="44.88531" lon="0.63617">
        <ele>122.5</ele>
        <time>2022-07-10T07:10:07Z</time>
      </trkpt>
      <trkpt lat="44.88523" lon="0.63617">
        <ele>122.6</ele>
        <time>2022-07-10T07:10:09Z</time>
      </trkpt>
      <trkpt lat="44.88514" lon="0.63617">
        <ele>122.6</ele>
        <time>2022-07-10T07:10:11Z</time>
      </trkpt>
      <trkpt lat="44.88506" lon="0.63617">
        <ele>122.7</ele>
        <time>2022-07-10T07:10:13Z</time>
      </trkpt>
      <trkpt lat="44.88498" lon="0.63618">
        <ele>122.8</ele>
        <time>2022-07-10T07:10:15Z</time>
      </trkpt>
      <trkpt lat="44.8849" lon="0.63618">
        <ele>123</ele>
        <time>2022-07-10T07:10:17Z</time>
      </trkpt>
      <trkpt lat="44.88481" lon="0.63617">
        <ele>123.1</ele>
        <time>2022-07-10T07:10:19Z</time>
      </trkpt>
      <trkpt lat="44.88473" lon="0.63616">
        <ele>123.2</ele>
        <time>2022-07-10T07:10:21Z</time>
      </trkpt>
      <trkpt lat="44.88465" lon="0.63616">
        <ele>123.3</ele>
        <time>2022-07-10T07:10:23Z</time>
      </trkpt>
      <trkpt lat="44.88461" lon="0.63616">
        <ele>123.3</ele>
        <time>2022-07-10T07:10:24Z</time>
      </trkpt>
      <trkpt lat="44.88457" lon="0.63617">
        <ele>123.3</ele>
        <time>2022-07-10T07:10:25Z</time>
      </trkpt>
      <trkpt lat="44.88448" lon="0.63617">
        <ele>123.4</ele>
        <time>2022-07-10T07:10:27Z</time>
      </trkpt>
      <trkpt lat="44.88439" lon="0.63618">
        <ele>123.5</ele>
        <time>2022-07-10T07:10:29Z</time>
      </trkpt>
      <trkpt lat="44.88434" lon="0.63619">
        <ele>123.6</ele>
        <time>2022-07-10T07:10:30Z</time>
      </trkpt>
      <trkpt lat="44.88429" lon="0.6362">
        <ele>123.6</ele>
        <time>2022-07-10T07:10:31Z</time>
      </trkpt>
      <trkpt lat="44.8842" lon="0.63622">
        <ele>123.8</ele>
        <time>2022-07-10T07:10:33Z</time>
      </trkpt>
      <trkpt lat="44.88411" lon="0.63623">
        <ele>124</ele>
        <time>2022-07-10T07:10:35Z</time>
      </trkpt>
      <trkpt lat="44.88406" lon="0.63624">
        <ele>124.1</ele>
        <time>2022-07-10T07:10:36Z</time>
      </trkpt>
      <trkpt lat="44.88402" lon="0.63625">
        <ele>124.2</ele>
        <time>2022-07-10T07:10:37Z</time>
      </trkpt>
      <trkpt lat="44.88393" lon="0.63626">
        <ele>124.4</ele>
        <time>2022-07-10T07:10:39Z</time>
      </trkpt>
      <trkpt lat="44.88385" lon="0.63627">
        <ele>124.6</ele>
        <time>2022-07-10T07:10:41Z</time>
      </trkpt>
      <trkpt lat="44.88377" lon="0.63627">
        <ele>124.7</ele>
        <time>2022-07-10T07:10:43Z</time>
      </trkpt>
      <trkpt lat="44.88369" lon="0.63628">
        <ele>124.9</ele>
        <time>2022-07-10T07:10:45Z</time>
      </trkpt>
      <trkpt lat="44.88361" lon="0.63628">
        <ele>125</ele>
        <time>2022-07-10T07:10:47Z</time>
      </trkpt>
      <trkpt lat="44.88353" lon="0.63629">
        <ele>125.2</ele>
        <time>2022-07-10T07:10:49Z</time>
      </trkpt>
      <trkpt lat="44.88345" lon="0.63629">
        <ele>125.4</ele>
        <time>2022-07-10T07:10:51Z</time>
      </trkpt>
      <trkpt lat="44.88342" lon="0.63629">
        <ele>125.5</ele>
        <time>2022-07-10T07:10:52Z</time>
      </trkpt>
      <trkpt lat="44.88338" lon="0.63629">
        <ele>125.7</ele>
        <time>2022-07-10T07:10:53Z</time>
      </trkpt>
      <trkpt lat="44.8833" lon="0.6363">
        <ele>125.9</ele>
        <time>2022-07-10T07:10:55Z</time>
      </trkpt>
      <trkpt lat="44.88322" lon="0.6363">
        <ele>126.2</ele>
        <time>2022-07-10T07:10:57Z</time>
      </trkpt>
      <trkpt lat="44.88314" lon="0.63631">
        <ele>126.5</ele>
        <time>2022-07-10T07:10:59Z</time>
      </trkpt>
      <trkpt lat="44.88306" lon="0.63632">
        <ele>126.6</ele>
        <time>2022-07-10T07:11:01Z</time>
      </trkpt>
      <trkpt lat="44.88299" lon="0.63633">
        <ele>126.8</ele>
        <time>2022-07-10T07:11:03Z</time>
      </trkpt>
      <trkpt lat="44.88291" lon="0.63635">
        <ele>126.9</ele>
        <time>2022-07-10T07:11:05Z</time>
      </trkpt>
      <trkpt lat="44.88285" lon="0.63637">
        <ele>127</ele>
        <time>2022-07-10T07:11:07Z</time>
      </trkpt>
      <trkpt lat="44.88282" lon="0.63639">
        <ele>127</ele>
        <time>2022-07-10T07:11:08Z</time>
      </trkpt>
      <trkpt lat="44.8828" lon="0.63657">
        <ele>127</ele>
        <time>2022-07-10T07:11:09Z</time>
      </trkpt>
      <trkpt lat="44.8828" lon="0.63676">
        <ele>127.2</ele>
        <time>2022-07-10T07:11:11Z</time>
      </trkpt>
      <trkpt lat="44.88279" lon="0.63679">
        <ele>127.2</ele>
        <time>2022-07-10T07:11:12Z</time>
      </trkpt>
      <trkpt lat="44.88278" lon="0.63684">
        <ele>127.2</ele>
        <time>2022-07-10T07:11:13Z</time>
      </trkpt>
      <trkpt lat="44.88277" lon="0.63694">
        <ele>127.7</ele>
        <time>2022-07-10T07:11:15Z</time>
      </trkpt>
      <trkpt lat="44.88274" lon="0.63702">
        <ele>128.4</ele>
        <time>2022-07-10T07:11:17Z</time>
      </trkpt>
      <trkpt lat="44.88272" lon="0.63706">
        <ele>129.1</ele>
        <time>2022-07-10T07:11:18Z</time>
      </trkpt>
      <trkpt lat="44.88269" lon="0.6371">
        <ele>129.1</ele>
        <time>2022-07-10T07:11:19Z</time>
      </trkpt>
      <trkpt lat="44.88263" lon="0.63718">
        <ele>129.4</ele>
        <time>2022-07-10T07:11:21Z</time>
      </trkpt>
      <trkpt lat="44.88261" lon="0.63723">
        <ele>130.2</ele>
        <time>2022-07-10T07:11:22Z</time>
      </trkpt>
      <trkpt lat="44.88259" lon="0.63728">
        <ele>130.2</ele>
        <time>2022-07-10T07:11:23Z</time>
      </trkpt>
      <trkpt lat="44.88255" lon="0.63736">
        <ele>130.2</ele>
        <time>2022-07-10T07:11:25Z</time>
      </trkpt>
      <trkpt lat="44.88251" lon="0.63741">
        <ele>131</ele>
        <time>2022-07-10T07:11:27Z</time>
      </trkpt>
      <trkpt lat="44.88246" lon="0.63743">
        <ele>131</ele>
        <time>2022-07-10T07:11:29Z</time>
      </trkpt>
      <trkpt lat="44.88242" lon="0.63742">
        <ele>131</ele>
        <time>2022-07-10T07:11:31Z</time>
      </trkpt>
      <trkpt lat="44.88239" lon="0.63742">
        <ele>131</ele>
        <time>2022-07-10T07:11:32Z</time>
      </trkpt>
      <trkpt lat="44.88237" lon="0.63742">
        <ele>131.1</ele>
        <time>2022-07-10T07:11:33Z</time>
      </trkpt>
      <trkpt lat="44.8823" lon="0.63742">
        <ele>131.1</ele>
        <time>2022-07-10T07:11:35Z</time>
      </trkpt>
      <trkpt lat="44.88224" lon="0.63742">
        <ele>131.2</ele>
        <time>2022-07-10T07:11:37Z</time>
      </trkpt>
      <trkpt lat="44.88221" lon="0.63741">
        <ele>131.2</ele>
        <time>2022-07-10T07:11:38Z</time>
      </trkpt>
      <trkpt lat="44.88217" lon="0.63741">
        <ele>131.2</ele>
        <time>2022-07-10T07:11:39Z</time>
      </trkpt>
      <trkpt lat="44.88211" lon="0.63739">
        <ele>131.4</ele>
        <time>2022-07-10T07:11:41Z</time>
      </trkpt>
      <trkpt lat="44.88204" lon="0.63737">
        <ele>131</ele>
        <time>2022-07-10T07:11:43Z</time>
      </trkpt>
      <trkpt lat="44.88201" lon="0.63737">
        <ele>131.3</ele>
        <time>2022-07-10T07:11:44Z</time>
      </trkpt>
      <trkpt lat="44.88199" lon="0.63737">
        <ele>131.4</ele>
        <time>2022-07-10T07:11:45Z</time>
      </trkpt>
      <trkpt lat="44.88196" lon="0.63737">
        <ele>131.4</ele>
        <time>2022-07-10T07:11:46Z</time>
      </trkpt>
      <trkpt lat="44.88193" lon="0.63738">
        <ele>131.4</ele>
        <time>2022-07-10T07:11:47Z</time>
      </trkpt>
      <trkpt lat="44.88188" lon="0.63739">
        <ele>132.2</ele>
        <time>2022-07-10T07:11:49Z</time>
      </trkpt>
      <trkpt lat="44.88184" lon="0.6374">
        <ele>132.2</ele>
        <time>2022-07-10T07:11:51Z</time>
      </trkpt>
      <trkpt lat="44.88178" lon="0.63743">
        <ele>132.6</ele>
        <time>2022-07-10T07:11:53Z</time>
      </trkpt>
      <trkpt lat="44.88173" lon="0.63745">
        <ele>132.6</ele>
        <time>2022-07-10T07:11:54Z</time>
      </trkpt>
      <trkpt lat="44.8817" lon="0.63746">
        <ele>132.6</ele>
        <time>2022-07-10T07:11:55Z</time>
      </trkpt>
      <trkpt lat="44.88163" lon="0.6375">
        <ele>132.9</ele>
        <time>2022-07-10T07:11:57Z</time>
      </trkpt>
      <trkpt lat="44.88157" lon="0.63754">
        <ele>132.9</ele>
        <time>2022-07-10T07:11:59Z</time>
      </trkpt>
      <trkpt lat="44.88153" lon="0.63755">
        <ele>133.1</ele>
        <time>2022-07-10T07:12:00Z</time>
      </trkpt>
      <trkpt lat="44.8815" lon="0.63757">
        <ele>133.2</ele>
        <time>2022-07-10T07:12:01Z</time>
      </trkpt>
      <trkpt lat="44.88143" lon="0.63759">
        <ele>133.2</ele>
        <time>2022-07-10T07:12:03Z</time>
      </trkpt>
      <trkpt lat="44.88138" lon="0.63761">
        <ele>133.3</ele>
        <time>2022-07-10T07:12:05Z</time>
      </trkpt>
      <trkpt lat="44.88135" lon="0.63763">
        <ele>133.3</ele>
        <time>2022-07-10T07:12:06Z</time>
      </trkpt>
      <trkpt lat="44.88131" lon="0.63764">
        <ele>133.3</ele>
        <time>2022-07-10T07:12:07Z</time>
      </trkpt>
      <trkpt lat="44.88125" lon="0.63766">
        <ele>133.3</ele>
        <time>2022-07-10T07:12:09Z</time>
      </trkpt>
      <trkpt lat="44.88122" lon="0.63766">
        <ele>133.3</ele>
        <time>2022-07-10T07:12:10Z</time>
      </trkpt>
      <trkpt lat="44.88119" lon="0.63766">
        <ele>133.3</ele>
        <time>2022-07-10T07:12:11Z</time>
      </trkpt>
      <trkpt lat="44.88114" lon="0.63766">
        <ele>133.2</ele>
        <time>2022-07-10T07:12:13Z</time>
      </trkpt>
      <trkpt lat="44.88108" lon="0.63765">
        <ele>133.2</ele>
        <time>2022-07-10T07:12:15Z</time>
      </trkpt>
      <trkpt lat="44.88105" lon="0.63766">
        <ele>133.1</ele>
        <time>2022-07-10T07:12:17Z</time>
      </trkpt>
      <trkpt lat="44.88103" lon="0.63766">
        <ele>133.1</ele>
        <time>2022-07-10T07:12:18Z</time>
      </trkpt>
      <trkpt lat="44.88102" lon="0.63765">
        <ele>133.1</ele>
        <time>2022-07-10T07:12:19Z</time>
      </trkpt>
      <trkpt lat="44.88101" lon="0.63764">
        <ele>133.1</ele>
        <time>2022-07-10T07:12:21Z</time>
      </trkpt>
      <trkpt lat="44.881" lon="0.63764">
        <ele>133.1</ele>
        <time>2022-07-10T07:12:22Z</time>
      </trkpt>
      <trkpt lat="44.881" lon="0.63764">
        <ele>133.1</ele>
        <time>2022-07-10T07:12:23Z</time>
      </trkpt>
      <trkpt lat="44.88085" lon="0.63766">
        <ele>133</ele>
        <time>2022-07-10T07:16:37Z</time>
      </trkpt>
      <trkpt lat="44.88084" lon="0.63766">
        <ele>133</ele>
        <time>2022-07-10T07:16:39Z</time>
      </trkpt>
      <trkpt lat="44.88079" lon="0.63766">
        <ele>132.8</ele>
        <time>2022-07-10T07:16:41Z</time>
      </trkpt>
      <trkpt lat="44.88073" lon="0.63766">
        <ele>132.8</ele>
        <time>2022-07-10T07:16:43Z</time>
      </trkpt>
      <trkpt lat="44.88069" lon="0.63766">
        <ele>132.8</ele>
        <time>2022-07-10T07:16:44Z</time>
      </trkpt>
      <trkpt lat="44.88064" lon="0.63766">
        <ele>132.7</ele>
        <time>2022-07-10T07:16:45Z</time>
      </trkpt>
      <trkpt lat="44.88054" lon="0.63767">
        <ele>132.4</ele>
        <time>2022-07-10T07:16:47Z</time>
      </trkpt>
      <trkpt lat="44.88044" lon="0.63769">
        <ele>132.1</ele>
        <time>2022-07-10T07:16:49Z</time>
      </trkpt>
      <trkpt lat="44.88038" lon="0.63769">
        <ele>132.1</ele>
        <time>2022-07-10T07:16:50Z</time>
      </trkpt>
      <trkpt lat="44.88034" lon="0.6377">
        <ele>132.1</ele>
        <time>2022-07-10T07:16:51Z</time>
      </trkpt>
      <trkpt lat="44.88028" lon="0.6377">
        <ele>131.8</ele>
        <time>2022-07-10T07:16:53Z</time>
      </trkpt>
      <trkpt lat="44.88025" lon="0.63771">
        <ele>131.8</ele>
        <time>2022-07-10T07:16:55Z</time>
      </trkpt>
      <trkpt lat="44.88024" lon="0.63771">
        <ele>131.8</ele>
        <time>2022-07-10T07:16:57Z</time>
      </trkpt>
      <trkpt lat="44.88022" lon="0.63772">
        <ele>131.8</ele>
        <time>2022-07-10T07:16:58Z</time>
      </trkpt>
      <trkpt lat="44.8802" lon="0.63772">
        <ele>131.9</ele>
        <time>2022-07-10T07:16:59Z</time>
      </trkpt>
      <trkpt lat="44.88014" lon="0.63773">
        <ele>131.3</ele>
        <time>2022-07-10T07:17:01Z</time>
      </trkpt>
      <trkpt lat="44.88008" lon="0.63775">
        <ele>131.3</ele>
        <time>2022-07-10T07:17:03Z</time>
      </trkpt>
      <trkpt lat="44.88009" lon="0.63819">
        <ele>130.9</ele>
        <time>2022-07-10T07:17:05Z</time>
      </trkpt>
      <trkpt lat="44.8801" lon="0.63822">
        <ele>131</ele>
        <time>2022-07-10T07:17:06Z</time>
      </trkpt>
      <trkpt lat="44.88008" lon="0.63825">
        <ele>130.9</ele>
        <time>2022-07-10T07:17:07Z</time>
      </trkpt>
      <trkpt lat="44.88007" lon="0.63827">
        <ele>130.4</ele>
        <time>2022-07-10T07:17:08Z</time>
      </trkpt>
      <trkpt lat="44.88007" lon="0.63829">
        <ele>130.4</ele>
        <time>2022-07-10T07:17:09Z</time>
      </trkpt>
      <trkpt lat="44.88005" lon="0.63833">
        <ele>130.4</ele>
        <time>2022-07-10T07:17:11Z</time>
      </trkpt>
      <trkpt lat="44.88005" lon="0.63833">
        <ele>130.4</ele>
        <time>2022-07-10T07:17:12Z</time>
      </trkpt>
      <trkpt lat="44.88003" lon="0.63838">
        <ele>130.4</ele>
        <time>2022-07-10T07:17:14Z</time>
      </trkpt>
      <trkpt lat="44.88003" lon="0.6384">
        <ele>130.4</ele>
        <time>2022-07-10T07:17:15Z</time>
      </trkpt>
      <trkpt lat="44.88002" lon="0.63844">
        <ele>130.4</ele>
        <time>2022-07-10T07:17:16Z</time>
      </trkpt>
      <trkpt lat="44.88002" lon="0.63848">
        <ele>130.4</ele>
        <time>2022-07-10T07:17:17Z</time>
      </trkpt>
      <trkpt lat="44.88002" lon="0.63852">
        <ele>130.4</ele>
        <time>2022-07-10T07:17:18Z</time>
      </trkpt>
      <trkpt lat="44.88001" lon="0.63856">
        <ele>130.4</ele>
        <time>2022-07-10T07:17:19Z</time>
      </trkpt>
      <trkpt lat="44.88001" lon="0.6386">
        <ele>130.5</ele>
        <time>2022-07-10T07:17:20Z</time>
      </trkpt>
      <trkpt lat="44.88001" lon="0.63863">
        <ele>130.5</ele>
        <time>2022-07-10T07:17:21Z</time>
      </trkpt>
      <trkpt lat="44.88002" lon="0.63869">
        <ele>130.5</ele>
        <time>2022-07-10T07:17:23Z</time>
      </trkpt>
      <trkpt lat="44.88002" lon="0.63871">
        <ele>130.5</ele>
        <time>2022-07-10T07:17:24Z</time>
      </trkpt>
      <trkpt lat="44.88003" lon="0.63874">
        <ele>130.6</ele>
        <time>2022-07-10T07:17:25Z</time>
      </trkpt>
      <trkpt lat="44.88003" lon="0.63877">
        <ele>130.9</ele>
        <time>2022-07-10T07:17:26Z</time>
      </trkpt>
      <trkpt lat="44.88004" lon="0.63881">
        <ele>130.9</ele>
        <time>2022-07-10T07:17:27Z</time>
      </trkpt>
      <trkpt lat="44.88004" lon="0.63884">
        <ele>130.9</ele>
        <time>2022-07-10T07:17:28Z</time>
      </trkpt>
      <trkpt lat="44.88003" lon="0.63887">
        <ele>130.9</ele>
        <time>2022-07-10T07:17:29Z</time>
      </trkpt>
      <trkpt lat="44.88003" lon="0.63893">
        <ele>131.3</ele>
        <time>2022-07-10T07:17:31Z</time>
      </trkpt>
      <trkpt lat="44.88004" lon="0.63897">
        <ele>131.3</ele>
        <time>2022-07-10T07:17:32Z</time>
      </trkpt>
      <trkpt lat="44.88004" lon="0.63901">
        <ele>131.3</ele>
        <time>2022-07-10T07:17:33Z</time>
      </trkpt>
      <trkpt lat="44.88002" lon="0.6391">
        <ele>131.6</ele>
        <time>2022-07-10T07:17:35Z</time>
      </trkpt>
      <trkpt lat="44.88002" lon="0.63918">
        <ele>131.6</ele>
        <time>2022-07-10T07:17:37Z</time>
      </trkpt>
      <trkpt lat="44.88001" lon="0.63929">
        <ele>131.8</ele>
        <time>2022-07-10T07:17:39Z</time>
      </trkpt>
      <trkpt lat="44.88" lon="0.63939">
        <ele>131.8</ele>
        <time>2022-07-10T07:17:41Z</time>
      </trkpt>
      <trkpt lat="44.88" lon="0.63946">
        <ele>132</ele>
        <time>2022-07-10T07:17:42Z</time>
      </trkpt>
      <trkpt lat="44.88001" lon="0.63951">
        <ele>132</ele>
        <time>2022-07-10T07:17:43Z</time>
      </trkpt>
      <trkpt lat="44.88004" lon="0.6396">
        <ele>132</ele>
        <time>2022-07-10T07:17:45Z</time>
      </trkpt>
      <trkpt lat="44.88006" lon="0.63968">
        <ele>132.1</ele>
        <time>2022-07-10T07:17:47Z</time>
      </trkpt>
      <trkpt lat="44.88007" lon="0.63974">
        <ele>132.1</ele>
        <time>2022-07-10T07:17:49Z</time>
      </trkpt>
      <trkpt lat="44.88006" lon="0.6398">
        <ele>132</ele>
        <time>2022-07-10T07:17:51Z</time>
      </trkpt>
      <trkpt lat="44.88005" lon="0.63986">
        <ele>132</ele>
        <time>2022-07-10T07:17:53Z</time>
      </trkpt>
      <trkpt lat="44.88003" lon="0.63987">
        <ele>132</ele>
        <time>2022-07-10T07:17:54Z</time>
      </trkpt>
      <trkpt lat="44.88002" lon="0.63988">
        <ele>132</ele>
        <time>2022-07-10T07:17:55Z</time>
      </trkpt>
      <trkpt lat="44.87999" lon="0.6399">
        <ele>132</ele>
        <time>2022-07-10T07:17:57Z</time>
      </trkpt>
      <trkpt lat="44.87999" lon="0.63992">
        <ele>132.1</ele>
        <time>2022-07-10T07:17:59Z</time>
      </trkpt>
      <trkpt lat="44.87996" lon="0.63989">
        <ele>132.1</ele>
        <time>2022-07-10T07:18:01Z</time>
      </trkpt>
      <trkpt lat="44.87995" lon="0.63991">
        <ele>131.3</ele>
        <time>2022-07-10T07:18:02Z</time>
      </trkpt>
      <trkpt lat="44.87993" lon="0.63992">
        <ele>131.3</ele>
        <time>2022-07-10T07:18:03Z</time>
      </trkpt>
      <trkpt lat="44.8799" lon="0.63999">
        <ele>131.1</ele>
        <time>2022-07-10T07:18:05Z</time>
      </trkpt>
      <trkpt lat="44.87987" lon="0.64008">
        <ele>131.1</ele>
        <time>2022-07-10T07:18:07Z</time>
      </trkpt>
      <trkpt lat="44.87986" lon="0.64014">
        <ele>130.9</ele>
        <time>2022-07-10T07:18:08Z</time>
      </trkpt>
      <trkpt lat="44.87986" lon="0.64019">
        <ele>130.9</ele>
        <time>2022-07-10T07:18:09Z</time>
      </trkpt>
      <trkpt lat="44.87985" lon="0.64023">
        <ele>130.9</ele>
        <time>2022-07-10T07:18:10Z</time>
      </trkpt>
      <trkpt lat="44.87984" lon="0.64026">
        <ele>130.9</ele>
        <time>2022-07-10T07:18:11Z</time>
      </trkpt>
      <trkpt lat="44.87983" lon="0.64029">
        <ele>130.3</ele>
        <time>2022-07-10T07:18:12Z</time>
      </trkpt>
      <trkpt lat="44.87981" lon="0.64033">
        <ele>130.1</ele>
        <time>2022-07-10T07:18:13Z</time>
      </trkpt>
      <trkpt lat="44.87982" lon="0.6404">
        <ele>130.1</ele>
        <time>2022-07-10T07:18:15Z</time>
      </trkpt>
      <trkpt lat="44.87983" lon="0.64044">
        <ele>130.1</ele>
        <time>2022-07-10T07:18:16Z</time>
      </trkpt>
      <trkpt lat="44.87984" lon="0.64048">
        <ele>129.9</ele>
        <time>2022-07-10T07:18:17Z</time>
      </trkpt>
      <trkpt lat="44.87984" lon="0.64054">
        <ele>130.3</ele>
        <time>2022-07-10T07:18:19Z</time>
      </trkpt>
      <trkpt lat="44.87984" lon="0.64058">
        <ele>130.3</ele>
        <time>2022-07-10T07:18:20Z</time>
      </trkpt>
      <trkpt lat="44.87986" lon="0.64062">
        <ele>130.3</ele>
        <time>2022-07-10T07:18:21Z</time>
      </trkpt>
      <trkpt lat="44.87989" lon="0.64072">
        <ele>130.1</ele>
        <time>2022-07-10T07:18:23Z</time>
      </trkpt>
      <trkpt lat="44.87991" lon="0.64079">
        <ele>130.1</ele>
        <time>2022-07-10T07:18:25Z</time>
      </trkpt>
      <trkpt lat="44.87994" lon="0.64086">
        <ele>129.9</ele>
        <time>2022-07-10T07:18:27Z</time>
      </trkpt>
      <trkpt lat="44.87997" lon="0.6409">
        <ele>130.3</ele>
        <time>2022-07-10T07:18:29Z</time>
      </trkpt>
      <trkpt lat="44.88" lon="0.64096">
        <ele>130.3</ele>
        <time>2022-07-10T07:18:31Z</time>
      </trkpt>
      <trkpt lat="44.88003" lon="0.64101">
        <ele>130</ele>
        <time>2022-07-10T07:18:33Z</time>
      </trkpt>
      <trkpt lat="44.88006" lon="0.64103">
        <ele>130</ele>
        <time>2022-07-10T07:18:35Z</time>
      </trkpt>
      <trkpt lat="44.88009" lon="0.64107">
        <ele>130.3</ele>
        <time>2022-07-10T07:18:37Z</time>
      </trkpt>
      <trkpt lat="44.88011" lon="0.64112">
        <ele>130.3</ele>
        <time>2022-07-10T07:18:39Z</time>
      </trkpt>
      <trkpt lat="44.88012" lon="0.64115">
        <ele>130.4</ele>
        <time>2022-07-10T07:18:40Z</time>
      </trkpt>
      <trkpt lat="44.88011" lon="0.6412">
        <ele>130</ele>
        <time>2022-07-10T07:18:41Z</time>
      </trkpt>
      <trkpt lat="44.88011" lon="0.64124">
        <ele>130</ele>
        <time>2022-07-10T07:18:42Z</time>
      </trkpt>
      <trkpt lat="44.88012" lon="0.64129">
        <ele>130</ele>
        <time>2022-07-10T07:18:43Z</time>
      </trkpt>
      <trkpt lat="44.88013" lon="0.64135">
        <ele>129.7</ele>
        <time>2022-07-10T07:18:44Z</time>
      </trkpt>
      <trkpt lat="44.88013" lon="0.64142">
        <ele>129.7</ele>
        <time>2022-07-10T07:18:45Z</time>
      </trkpt>
      <trkpt lat="44.88013" lon="0.64154">
        <ele>129.4</ele>
        <time>2022-07-10T07:18:47Z</time>
      </trkpt>
      <trkpt lat="44.88015" lon="0.6417">
        <ele>129</ele>
        <time>2022-07-10T07:18:49Z</time>
      </trkpt>
      <trkpt lat="44.88017" lon="0.64185">
        <ele>128.6</ele>
        <time>2022-07-10T07:18:51Z</time>
      </trkpt>
      <trkpt lat="44.88019" lon="0.64199">
        <ele>128.6</ele>
        <time>2022-07-10T07:18:53Z</time>
      </trkpt>
      <trkpt lat="44.8802" lon="0.64206">
        <ele>128.4</ele>
        <time>2022-07-10T07:18:54Z</time>
      </trkpt>
      <trkpt lat="44.88021" lon="0.64212">
        <ele>128.6</ele>
        <time>2022-07-10T07:18:55Z</time>
      </trkpt>
      <trkpt lat="44.88021" lon="0.64224">
        <ele>128.4</ele>
        <time>2022-07-10T07:18:57Z</time>
      </trkpt>
      <trkpt lat="44.8802" lon="0.64237">
        <ele>128.2</ele>
        <time>2022-07-10T07:18:59Z</time>
      </trkpt>
      <trkpt lat="44.88021" lon="0.64248">
        <ele>128.2</ele>
        <time>2022-07-10T07:19:01Z</time>
      </trkpt>
      <trkpt lat="44.8802" lon="0.64258">
        <ele>127.6</ele>
        <time>2022-07-10T07:19:03Z</time>
      </trkpt>
      <trkpt lat="44.88021" lon="0.64268">
        <ele>128</ele>
        <time>2022-07-10T07:19:05Z</time>
      </trkpt>
      <trkpt lat="44.88023" lon="0.64279">
        <ele>127.8</ele>
        <time>2022-07-10T07:19:07Z</time>
      </trkpt>
      <trkpt lat="44.88024" lon="0.64285">
        <ele>127.8</ele>
        <time>2022-07-10T07:19:08Z</time>
      </trkpt>
      <trkpt lat="44.88026" lon="0.64292">
        <ele>127.5</ele>
        <time>2022-07-10T07:19:09Z</time>
      </trkpt>
      <trkpt lat="44.88031" lon="0.64303">
        <ele>127.5</ele>
        <time>2022-07-10T07:19:11Z</time>
      </trkpt>
      <trkpt lat="44.88035" lon="0.64315">
        <ele>127.6</ele>
        <time>2022-07-10T07:19:13Z</time>
      </trkpt>
      <trkpt lat="44.88039" lon="0.64325">
        <ele>127.4</ele>
        <time>2022-07-10T07:19:15Z</time>
      </trkpt>
      <trkpt lat="44.88045" lon="0.64335">
        <ele>127.8</ele>
        <time>2022-07-10T07:19:17Z</time>
      </trkpt>
      <trkpt lat="44.8805" lon="0.6434">
        <ele>127.7</ele>
        <time>2022-07-10T07:19:18Z</time>
      </trkpt>
      <trkpt lat="44.88053" lon="0.64345">
        <ele>127.7</ele>
        <time>2022-07-10T07:19:19Z</time>
      </trkpt>
      <trkpt lat="44.88053" lon="0.64355">
        <ele>127.7</ele>
        <time>2022-07-10T07:19:21Z</time>
      </trkpt>
      <trkpt lat="44.88051" lon="0.64359">
        <ele>127.6</ele>
        <time>2022-07-10T07:19:22Z</time>
      </trkpt>
      <trkpt lat="44.88049" lon="0.64363">
        <ele>127.6</ele>
        <time>2022-07-10T07:19:23Z</time>
      </trkpt>
      <trkpt lat="44.88045" lon="0.64371">
        <ele>127.7</ele>
        <time>2022-07-10T07:19:25Z</time>
      </trkpt>
      <trkpt lat="44.88042" lon="0.64376">
        <ele>127.4</ele>
        <time>2022-07-10T07:19:27Z</time>
      </trkpt>
      <trkpt lat="44.88037" lon="0.64383">
        <ele>127.4</ele>
        <time>2022-07-10T07:19:29Z</time>
      </trkpt>
      <trkpt lat="44.8803" lon="0.64392">
        <ele>127.1</ele>
        <time>2022-07-10T07:19:31Z</time>
      </trkpt>
      <trkpt lat="44.88027" lon="0.64398">
        <ele>127.1</ele>
        <time>2022-07-10T07:19:32Z</time>
      </trkpt>
      <trkpt lat="44.88025" lon="0.64404">
        <ele>127.1</ele>
        <time>2022-07-10T07:19:33Z</time>
      </trkpt>
      <trkpt lat="44.88022" lon="0.6441">
        <ele>127.3</ele>
        <time>2022-07-10T07:19:34Z</time>
      </trkpt>
      <trkpt lat="44.8802" lon="0.64417">
        <ele>126.9</ele>
        <time>2022-07-10T07:19:35Z</time>
      </trkpt>
      <trkpt lat="44.88015" lon="0.64431">
        <ele>127.2</ele>
        <time>2022-07-10T07:19:37Z</time>
      </trkpt>
      <trkpt lat="44.88013" lon="0.64437">
        <ele>127.2</ele>
        <time>2022-07-10T07:19:38Z</time>
      </trkpt>
      <trkpt lat="44.88011" lon="0.64442">
        <ele>127.6</ele>
        <time>2022-07-10T07:19:39Z</time>
      </trkpt>
      <trkpt lat="44.8801" lon="0.64448">
        <ele>127.7</ele>
        <time>2022-07-10T07:19:40Z</time>
      </trkpt>
      <trkpt lat="44.88008" lon="0.64454">
        <ele>127.2</ele>
        <time>2022-07-10T07:19:41Z</time>
      </trkpt>
      <trkpt lat="44.88004" lon="0.64465">
        <ele>127.6</ele>
        <time>2022-07-10T07:19:43Z</time>
      </trkpt>
      <trkpt lat="44.88" lon="0.64477">
        <ele>128.1</ele>
        <time>2022-07-10T07:19:45Z</time>
      </trkpt>
      <trkpt lat="44.87996" lon="0.64489">
        <ele>128.1</ele>
        <time>2022-07-10T07:19:47Z</time>
      </trkpt>
      <trkpt lat="44.87995" lon="0.64495">
        <ele>128.4</ele>
        <time>2022-07-10T07:19:48Z</time>
      </trkpt>
      <trkpt lat="44.87994" lon="0.64501">
        <ele>128.4</ele>
        <time>2022-07-10T07:19:49Z</time>
      </trkpt>
      <trkpt lat="44.87991" lon="0.64513">
        <ele>129.1</ele>
        <time>2022-07-10T07:19:51Z</time>
      </trkpt>
      <trkpt lat="44.87988" lon="0.64525">
        <ele>129.1</ele>
        <time>2022-07-10T07:19:53Z</time>
      </trkpt>
      <trkpt lat="44.87986" lon="0.64536">
        <ele>129.8</ele>
        <time>2022-07-10T07:19:55Z</time>
      </trkpt>
      <trkpt lat="44.87985" lon="0.64541">
        <ele>129.8</ele>
        <time>2022-07-10T07:19:56Z</time>
      </trkpt>
      <trkpt lat="44.87984" lon="0.64547">
        <ele>130.4</ele>
        <time>2022-07-10T07:19:57Z</time>
      </trkpt>
      <trkpt lat="44.87982" lon="0.64558">
        <ele>130.3</ele>
        <time>2022-07-10T07:19:59Z</time>
      </trkpt>
      <trkpt lat="44.87979" lon="0.64569">
        <ele>130.6</ele>
        <time>2022-07-10T07:20:01Z</time>
      </trkpt>
      <trkpt lat="44.87979" lon="0.64574">
        <ele>130.7</ele>
        <time>2022-07-10T07:20:02Z</time>
      </trkpt>
      <trkpt lat="44.87978" lon="0.64579">
        <ele>130.9</ele>
        <time>2022-07-10T07:20:03Z</time>
      </trkpt>
      <trkpt lat="44.87977" lon="0.64591">
        <ele>130.9</ele>
        <time>2022-07-10T07:20:05Z</time>
      </trkpt>
      <trkpt lat="44.87976" lon="0.64603">
        <ele>131</ele>
        <time>2022-07-10T07:20:07Z</time>
      </trkpt>
      <trkpt lat="44.87976" lon="0.64609">
        <ele>131</ele>
        <time>2022-07-10T07:20:08Z</time>
      </trkpt>
      <trkpt lat="44.87976" lon="0.64615">
        <ele>130.9</ele>
        <time>2022-07-10T07:20:09Z</time>
      </trkpt>
      <trkpt lat="44.87975" lon="0.64628">
        <ele>130.9</ele>
        <time>2022-07-10T07:20:11Z</time>
      </trkpt>
      <trkpt lat="44.87974" lon="0.64642">
        <ele>130.6</ele>
        <time>2022-07-10T07:20:13Z</time>
      </trkpt>
      <trkpt lat="44.87973" lon="0.64657">
        <ele>130.2</ele>
        <time>2022-07-10T07:20:15Z</time>
      </trkpt>
      <trkpt lat="44.87974" lon="0.64664">
        <ele>130.2</ele>
        <time>2022-07-10T07:20:16Z</time>
      </trkpt>
      <trkpt lat="44.87975" lon="0.64672">
        <ele>129.6</ele>
        <time>2022-07-10T07:20:17Z</time>
      </trkpt>
      <trkpt lat="44.87977" lon="0.6468">
        <ele>129.6</ele>
        <time>2022-07-10T07:20:18Z</time>
      </trkpt>
      <trkpt lat="44.8798" lon="0.64686">
        <ele>128.9</ele>
        <time>2022-07-10T07:20:19Z</time>
      </trkpt>
      <trkpt lat="44.87983" lon="0.64692">
        <ele>128.9</ele>
        <time>2022-07-10T07:20:20Z</time>
      </trkpt>
      <trkpt lat="44.87987" lon="0.64698">
        <ele>129.7</ele>
        <time>2022-07-10T07:20:21Z</time>
      </trkpt>
      <trkpt lat="44.87995" lon="0.64711">
        <ele>129.1</ele>
        <time>2022-07-10T07:20:23Z</time>
      </trkpt>
      <trkpt lat="44.87998" lon="0.64717">
        <ele>129.6</ele>
        <time>2022-07-10T07:20:24Z</time>
      </trkpt>
      <trkpt lat="44.88001" lon="0.64724">
        <ele>129.6</ele>
        <time>2022-07-10T07:20:25Z</time>
      </trkpt>
      <trkpt lat="44.88004" lon="0.64732">
        <ele>129.6</ele>
        <time>2022-07-10T07:20:26Z</time>
      </trkpt>
      <trkpt lat="44.88006" lon="0.64739">
        <ele>129.2</ele>
        <time>2022-07-10T07:20:27Z</time>
      </trkpt>
      <trkpt lat="44.8801" lon="0.64755">
        <ele>129.9</ele>
        <time>2022-07-10T07:20:29Z</time>
      </trkpt>
      <trkpt lat="44.88011" lon="0.64773">
        <ele>129.6</ele>
        <time>2022-07-10T07:20:31Z</time>
      </trkpt>
      <trkpt lat="44.88008" lon="0.6479">
        <ele>129.3</ele>
        <time>2022-07-10T07:20:33Z</time>
      </trkpt>
      <trkpt lat="44.88006" lon="0.64807">
        <ele>127.9</ele>
        <time>2022-07-10T07:20:35Z</time>
      </trkpt>
      <trkpt lat="44.88003" lon="0.64823">
        <ele>127.6</ele>
        <time>2022-07-10T07:20:37Z</time>
      </trkpt>
      <trkpt lat="44.88001" lon="0.64839">
        <ele>127.4</ele>
        <time>2022-07-10T07:20:39Z</time>
      </trkpt>
      <trkpt lat="44.87999" lon="0.64847">
        <ele>127.4</ele>
        <time>2022-07-10T07:20:40Z</time>
      </trkpt>
      <trkpt lat="44.87997" lon="0.64855">
        <ele>127.3</ele>
        <time>2022-07-10T07:20:41Z</time>
      </trkpt>
      <trkpt lat="44.87995" lon="0.6487">
        <ele>126.5</ele>
        <time>2022-07-10T07:20:43Z</time>
      </trkpt>
      <trkpt lat="44.87993" lon="0.64884">
        <ele>126.4</ele>
        <time>2022-07-10T07:20:45Z</time>
      </trkpt>
      <trkpt lat="44.87989" lon="0.64897">
        <ele>126.6</ele>
        <time>2022-07-10T07:20:47Z</time>
      </trkpt>
      <trkpt lat="44.87987" lon="0.64905">
        <ele>126.6</ele>
        <time>2022-07-10T07:20:48Z</time>
      </trkpt>
      <trkpt lat="44.87985" lon="0.64912">
        <ele>127</ele>
        <time>2022-07-10T07:20:49Z</time>
      </trkpt>
      <trkpt lat="44.87983" lon="0.64919">
        <ele>126.5</ele>
        <time>2022-07-10T07:20:50Z</time>
      </trkpt>
      <trkpt lat="44.87981" lon="0.64927">
        <ele>127.1</ele>
        <time>2022-07-10T07:20:51Z</time>
      </trkpt>
      <trkpt lat="44.8798" lon="0.64943">
        <ele>127.5</ele>
        <time>2022-07-10T07:20:53Z</time>
      </trkpt>
      <trkpt lat="44.87978" lon="0.6496">
        <ele>127.6</ele>
        <time>2022-07-10T07:20:55Z</time>
      </trkpt>
      <trkpt lat="44.87974" lon="0.64976">
        <ele>127.6</ele>
        <time>2022-07-10T07:20:57Z</time>
      </trkpt>
      <trkpt lat="44.87971" lon="0.6499">
        <ele>127.5</ele>
        <time>2022-07-10T07:20:59Z</time>
      </trkpt>
      <trkpt lat="44.87971" lon="0.65004">
        <ele>127.6</ele>
        <time>2022-07-10T07:21:01Z</time>
      </trkpt>
      <trkpt lat="44.8797" lon="0.65018">
        <ele>127.7</ele>
        <time>2022-07-10T07:21:03Z</time>
      </trkpt>
      <trkpt lat="44.87966" lon="0.65035">
        <ele>127.7</ele>
        <time>2022-07-10T07:21:05Z</time>
      </trkpt>
      <trkpt lat="44.87963" lon="0.65044">
        <ele>127.7</ele>
        <time>2022-07-10T07:21:06Z</time>
      </trkpt>
      <trkpt lat="44.87962" lon="0.65052">
        <ele>127.7</ele>
        <time>2022-07-10T07:21:07Z</time>
      </trkpt>
      <trkpt lat="44.87961" lon="0.65061">
        <ele>127.6</ele>
        <time>2022-07-10T07:21:08Z</time>
      </trkpt>
      <trkpt lat="44.87962" lon="0.65071">
        <ele>127.6</ele>
        <time>2022-07-10T07:21:09Z</time>
      </trkpt>
      <trkpt lat="44.87964" lon="0.65093">
        <ele>127.3</ele>
        <time>2022-07-10T07:21:11Z</time>
      </trkpt>
      <trkpt lat="44.87965" lon="0.65103">
        <ele>126.9</ele>
        <time>2022-07-10T07:21:12Z</time>
      </trkpt>
      <trkpt lat="44.87967" lon="0.65114">
        <ele>126.4</ele>
        <time>2022-07-10T07:21:13Z</time>
      </trkpt>
      <trkpt lat="44.87969" lon="0.65124">
        <ele>126.4</ele>
        <time>2022-07-10T07:21:14Z</time>
      </trkpt>
      <trkpt lat="44.87969" lon="0.65134">
        <ele>126.1</ele>
        <time>2022-07-10T07:21:15Z</time>
      </trkpt>
      <trkpt lat="44.8797" lon="0.65143">
        <ele>126.1</ele>
        <time>2022-07-10T07:21:16Z</time>
      </trkpt>
      <trkpt lat="44.87972" lon="0.65153">
        <ele>125.8</ele>
        <time>2022-07-10T07:21:17Z</time>
      </trkpt>
      <trkpt lat="44.87978" lon="0.65166">
        <ele>125.7</ele>
        <time>2022-07-10T07:21:19Z</time>
      </trkpt>
      <trkpt lat="44.87986" lon="0.65167">
        <ele>125.7</ele>
        <time>2022-07-10T07:21:21Z</time>
      </trkpt>
      <trkpt lat="44.8799" lon="0.65166">
        <ele>125.7</ele>
        <time>2022-07-10T07:21:22Z</time>
      </trkpt>
      <trkpt lat="44.87994" lon="0.65165">
        <ele>125.7</ele>
        <time>2022-07-10T07:21:23Z</time>
      </trkpt>
      <trkpt lat="44.88" lon="0.65164">
        <ele>125.7</ele>
        <time>2022-07-10T07:21:24Z</time>
      </trkpt>
      <trkpt lat="44.88005" lon="0.65162">
        <ele>125.8</ele>
        <time>2022-07-10T07:21:25Z</time>
      </trkpt>
      <trkpt lat="44.88016" lon="0.6516">
        <ele>125.8</ele>
        <time>2022-07-10T07:21:27Z</time>
      </trkpt>
      <trkpt lat="44.88021" lon="0.65159">
        <ele>126</ele>
        <time>2022-07-10T07:21:28Z</time>
      </trkpt>
      <trkpt lat="44.88026" lon="0.65159">
        <ele>126</ele>
        <time>2022-07-10T07:21:29Z</time>
      </trkpt>
      <trkpt lat="44.88033" lon="0.65161">
        <ele>126.3</ele>
        <time>2022-07-10T07:21:31Z</time>
      </trkpt>
      <trkpt lat="44.8804" lon="0.65163">
        <ele>126.5</ele>
        <time>2022-07-10T07:21:33Z</time>
      </trkpt>
      <trkpt lat="44.88046" lon="0.65166">
        <ele>126.9</ele>
        <time>2022-07-10T07:21:35Z</time>
      </trkpt>
      <trkpt lat="44.8805" lon="0.65169">
        <ele>126.9</ele>
        <time>2022-07-10T07:21:36Z</time>
      </trkpt>
      <trkpt lat="44.88053" lon="0.65171">
        <ele>126.9</ele>
        <time>2022-07-10T07:21:37Z</time>
      </trkpt>
      <trkpt lat="44.88059" lon="0.65177">
        <ele>127.4</ele>
        <time>2022-07-10T07:21:39Z</time>
      </trkpt>
      <trkpt lat="44.88067" lon="0.65179">
        <ele>127.4</ele>
        <time>2022-07-10T07:21:41Z</time>
      </trkpt>
      <trkpt lat="44.88074" lon="0.65178">
        <ele>127.8</ele>
        <time>2022-07-10T07:21:43Z</time>
      </trkpt>
      <trkpt lat="44.88083" lon="0.65175">
        <ele>128.4</ele>
        <time>2022-07-10T07:21:45Z</time>
      </trkpt>
      <trkpt lat="44.88087" lon="0.65173">
        <ele>128.4</ele>
        <time>2022-07-10T07:21:46Z</time>
      </trkpt>
      <trkpt lat="44.88092" lon="0.65171">
        <ele>128.4</ele>
        <time>2022-07-10T07:21:47Z</time>
      </trkpt>
      <trkpt lat="44.88096" lon="0.65168">
        <ele>128.9</ele>
        <time>2022-07-10T07:21:48Z</time>
      </trkpt>
      <trkpt lat="44.881" lon="0.65164">
        <ele>128.9</ele>
        <time>2022-07-10T07:21:49Z</time>
      </trkpt>
      <trkpt lat="44.88107" lon="0.65157">
        <ele>128.7</ele>
        <time>2022-07-10T07:21:51Z</time>
      </trkpt>
      <trkpt lat="44.88114" lon="0.6515">
        <ele>128.7</ele>
        <time>2022-07-10T07:21:53Z</time>
      </trkpt>
      <trkpt lat="44.88121" lon="0.65142">
        <ele>128.5</ele>
        <time>2022-07-10T07:21:55Z</time>
      </trkpt>
      <trkpt lat="44.88129" lon="0.65135">
        <ele>128.6</ele>
        <time>2022-07-10T07:21:57Z</time>
      </trkpt>
      <trkpt lat="44.88132" lon="0.65131">
        <ele>129</ele>
        <time>2022-07-10T07:21:58Z</time>
      </trkpt>
      <trkpt lat="44.88136" lon="0.65128">
        <ele>128.4</ele>
        <time>2022-07-10T07:21:59Z</time>
      </trkpt>
      <trkpt lat="44.88141" lon="0.65121">
        <ele>128.4</ele>
        <time>2022-07-10T07:22:01Z</time>
      </trkpt>
      <trkpt lat="44.88146" lon="0.65114">
        <ele>128.9</ele>
        <time>2022-07-10T07:22:03Z</time>
      </trkpt>
      <trkpt lat="44.88151" lon="0.65108">
        <ele>128.4</ele>
        <time>2022-07-10T07:22:05Z</time>
      </trkpt>
      <trkpt lat="44.88156" lon="0.65101">
        <ele>128.9</ele>
        <time>2022-07-10T07:22:07Z</time>
      </trkpt>
      <trkpt lat="44.88158" lon="0.65098">
        <ele>128.9</ele>
        <time>2022-07-10T07:22:08Z</time>
      </trkpt>
      <trkpt lat="44.88161" lon="0.65095">
        <ele>128.9</ele>
        <time>2022-07-10T07:22:09Z</time>
      </trkpt>
      <trkpt lat="44.88166" lon="0.6509">
        <ele>128.5</ele>
        <time>2022-07-10T07:22:11Z</time>
      </trkpt>
      <trkpt lat="44.88168" lon="0.65086">
        <ele>129.2</ele>
        <time>2022-07-10T07:22:12Z</time>
      </trkpt>
      <trkpt lat="44.88171" lon="0.65083">
        <ele>129.2</ele>
        <time>2022-07-10T07:22:13Z</time>
      </trkpt>
      <trkpt lat="44.88176" lon="0.65077">
        <ele>128.9</ele>
        <time>2022-07-10T07:22:15Z</time>
      </trkpt>
      <trkpt lat="44.88182" lon="0.65071">
        <ele>129.5</ele>
        <time>2022-07-10T07:22:17Z</time>
      </trkpt>
      <trkpt lat="44.88187" lon="0.65065">
        <ele>129.5</ele>
        <time>2022-07-10T07:22:19Z</time>
      </trkpt>
      <trkpt lat="44.8819" lon="0.65062">
        <ele>129.5</ele>
        <time>2022-07-10T07:22:20Z</time>
      </trkpt>
      <trkpt lat="44.88192" lon="0.65058">
        <ele>129.8</ele>
        <time>2022-07-10T07:22:21Z</time>
      </trkpt>
      <trkpt lat="44.88196" lon="0.65052">
        <ele>129.8</ele>
        <time>2022-07-10T07:22:23Z</time>
      </trkpt>
      <trkpt lat="44.88199" lon="0.65048">
        <ele>129.8</ele>
        <time>2022-07-10T07:22:24Z</time>
      </trkpt>
      <trkpt lat="44.88201" lon="0.65045">
        <ele>129.8</ele>
        <time>2022-07-10T07:22:25Z</time>
      </trkpt>
      <trkpt lat="44.88206" lon="0.65038">
        <ele>129.8</ele>
        <time>2022-07-10T07:22:27Z</time>
      </trkpt>
      <trkpt lat="44.8821" lon="0.65031">
        <ele>129.8</ele>
        <time>2022-07-10T07:22:29Z</time>
      </trkpt>
      <trkpt lat="44.88213" lon="0.65026">
        <ele>129.8</ele>
        <time>2022-07-10T07:22:30Z</time>
      </trkpt>
      <trkpt lat="44.88216" lon="0.65021">
        <ele>129.7</ele>
        <time>2022-07-10T07:22:31Z</time>
      </trkpt>
      <trkpt lat="44.88222" lon="0.65012">
        <ele>129.7</ele>
        <time>2022-07-10T07:22:33Z</time>
      </trkpt>
      <trkpt lat="44.88226" lon="0.65008">
        <ele>129.3</ele>
        <time>2022-07-10T07:22:34Z</time>
      </trkpt>
      <trkpt lat="44.8823" lon="0.65004">
        <ele>129.6</ele>
        <time>2022-07-10T07:22:35Z</time>
      </trkpt>
      <trkpt lat="44.88234" lon="0.65">
        <ele>129.6</ele>
        <time>2022-07-10T07:22:36Z</time>
      </trkpt>
      <trkpt lat="44.88239" lon="0.64996">
        <ele>130.2</ele>
        <time>2022-07-10T07:22:37Z</time>
      </trkpt>
      <trkpt lat="44.88244" lon="0.64994">
        <ele>130.2</ele>
        <time>2022-07-10T07:22:38Z</time>
      </trkpt>
      <trkpt lat="44.88249" lon="0.64992">
        <ele>130.2</ele>
        <time>2022-07-10T07:22:39Z</time>
      </trkpt>
      <trkpt lat="44.88253" lon="0.64989">
        <ele>130.2</ele>
        <time>2022-07-10T07:22:40Z</time>
      </trkpt>
      <trkpt lat="44.88257" lon="0.64984">
        <ele>130.2</ele>
        <time>2022-07-10T07:22:41Z</time>
      </trkpt>
      <trkpt lat="44.8826" lon="0.6498">
        <ele>130.2</ele>
        <time>2022-07-10T07:22:42Z</time>
      </trkpt>
      <trkpt lat="44.88264" lon="0.64977">
        <ele>130.9</ele>
        <time>2022-07-10T07:22:43Z</time>
      </trkpt>
      <trkpt lat="44.8827" lon="0.64974">
        <ele>130.1</ele>
        <time>2022-07-10T07:22:45Z</time>
      </trkpt>
      <trkpt lat="44.88274" lon="0.64972">
        <ele>130.1</ele>
        <time>2022-07-10T07:22:46Z</time>
      </trkpt>
      <trkpt lat="44.88277" lon="0.6497">
        <ele>130.8</ele>
        <time>2022-07-10T07:22:47Z</time>
      </trkpt>
      <trkpt lat="44.88283" lon="0.64966">
        <ele>130.8</ele>
        <time>2022-07-10T07:22:49Z</time>
      </trkpt>
      <trkpt lat="44.88286" lon="0.64963">
        <ele>130.8</ele>
        <time>2022-07-10T07:22:50Z</time>
      </trkpt>
      <trkpt lat="44.88289" lon="0.64961">
        <ele>131.4</ele>
        <time>2022-07-10T07:22:51Z</time>
      </trkpt>
      <trkpt lat="44.88295" lon="0.64954">
        <ele>131</ele>
        <time>2022-07-10T07:22:53Z</time>
      </trkpt>
      <trkpt lat="44.88301" lon="0.64947">
        <ele>131.6</ele>
        <time>2022-07-10T07:22:55Z</time>
      </trkpt>
      <trkpt lat="44.88304" lon="0.64946">
        <ele>131.6</ele>
        <time>2022-07-10T07:22:56Z</time>
      </trkpt>
      <trkpt lat="44.88307" lon="0.64943">
        <ele>131.7</ele>
        <time>2022-07-10T07:22:57Z</time>
      </trkpt>
      <trkpt lat="44.88311" lon="0.64941">
        <ele>131.7</ele>
        <time>2022-07-10T07:22:58Z</time>
      </trkpt>
      <trkpt lat="44.88314" lon="0.64939">
        <ele>132</ele>
        <time>2022-07-10T07:22:59Z</time>
      </trkpt>
      <trkpt lat="44.8832" lon="0.64937">
        <ele>132.1</ele>
        <time>2022-07-10T07:23:01Z</time>
      </trkpt>
      <trkpt lat="44.88323" lon="0.64936">
        <ele>132.1</ele>
        <time>2022-07-10T07:23:02Z</time>
      </trkpt>
      <trkpt lat="44.88326" lon="0.64934">
        <ele>132.6</ele>
        <time>2022-07-10T07:23:03Z</time>
      </trkpt>
      <trkpt lat="44.88332" lon="0.64927">
        <ele>132.6</ele>
        <time>2022-07-10T07:23:05Z</time>
      </trkpt>
      <trkpt lat="44.88333" lon="0.64925">
        <ele>132.6</ele>
        <time>2022-07-10T07:23:06Z</time>
      </trkpt>
      <trkpt lat="44.88337" lon="0.64923">
        <ele>133.2</ele>
        <time>2022-07-10T07:23:07Z</time>
      </trkpt>
      <trkpt lat="44.88344" lon="0.6492">
        <ele>133</ele>
        <time>2022-07-10T07:23:09Z</time>
      </trkpt>
      <trkpt lat="44.88349" lon="0.64918">
        <ele>133.4</ele>
        <time>2022-07-10T07:23:11Z</time>
      </trkpt>
      <trkpt lat="44.88356" lon="0.64914">
        <ele>133.5</ele>
        <time>2022-07-10T07:23:13Z</time>
      </trkpt>
      <trkpt lat="44.88361" lon="0.64912">
        <ele>134.1</ele>
        <time>2022-07-10T07:23:15Z</time>
      </trkpt>
      <trkpt lat="44.88365" lon="0.64909">
        <ele>134.1</ele>
        <time>2022-07-10T07:23:17Z</time>
      </trkpt>
      <trkpt lat="44.88369" lon="0.64907">
        <ele>134.1</ele>
        <time>2022-07-10T07:23:19Z</time>
      </trkpt>
      <trkpt lat="44.88374" lon="0.64905">
        <ele>134.8</ele>
        <time>2022-07-10T07:23:21Z</time>
      </trkpt>
      <trkpt lat="44.88379" lon="0.64903">
        <ele>134.8</ele>
        <time>2022-07-10T07:23:23Z</time>
      </trkpt>
      <trkpt lat="44.88382" lon="0.64902">
        <ele>134.8</ele>
        <time>2022-07-10T07:23:25Z</time>
      </trkpt>
      <trkpt lat="44.88384" lon="0.64901">
        <ele>134.8</ele>
        <time>2022-07-10T07:23:26Z</time>
      </trkpt>
      <trkpt lat="44.88385" lon="0.649">
        <ele>134.8</ele>
        <time>2022-07-10T07:23:27Z</time>
      </trkpt>
      <trkpt lat="44.88386" lon="0.64899">
        <ele>135.5</ele>
        <time>2022-07-10T07:23:28Z</time>
      </trkpt>
      <trkpt lat="44.88387" lon="0.64898">
        <ele>135.5</ele>
        <time>2022-07-10T07:23:29Z</time>
      </trkpt>
      <trkpt lat="44.8839" lon="0.64896">
        <ele>135.5</ele>
        <time>2022-07-10T07:23:31Z</time>
      </trkpt>
      <trkpt lat="44.88393" lon="0.64894">
        <ele>135.5</ele>
        <time>2022-07-10T07:23:33Z</time>
      </trkpt>
      <trkpt lat="44.88396" lon="0.64893">
        <ele>135.5</ele>
        <time>2022-07-10T07:23:35Z</time>
      </trkpt>
      <trkpt lat="44.88401" lon="0.64891">
        <ele>136.2</ele>
        <time>2022-07-10T07:23:37Z</time>
      </trkpt>
      <trkpt lat="44.88404" lon="0.64889">
        <ele>136.2</ele>
        <time>2022-07-10T07:23:39Z</time>
      </trkpt>
      <trkpt lat="44.88408" lon="0.64887">
        <ele>136.3</ele>
        <time>2022-07-10T07:23:41Z</time>
      </trkpt>
      <trkpt lat="44.88411" lon="0.64885">
        <ele>137.1</ele>
        <time>2022-07-10T07:23:43Z</time>
      </trkpt>
      <trkpt lat="44.88415" lon="0.64882">
        <ele>137.1</ele>
        <time>2022-07-10T07:23:45Z</time>
      </trkpt>
      <trkpt lat="44.88419" lon="0.6488">
        <ele>137.1</ele>
        <time>2022-07-10T07:23:47Z</time>
      </trkpt>
      <trkpt lat="44.88423" lon="0.64878">
        <ele>138</ele>
        <time>2022-07-10T07:23:49Z</time>
      </trkpt>
      <trkpt lat="44.88427" lon="0.64876">
        <ele>138</ele>
        <time>2022-07-10T07:23:51Z</time>
      </trkpt>
      <trkpt lat="44.88429" lon="0.64874">
        <ele>138</ele>
        <time>2022-07-10T07:23:52Z</time>
      </trkpt>
      <trkpt lat="44.88431" lon="0.64873">
        <ele>138</ele>
        <time>2022-07-10T07:23:53Z</time>
      </trkpt>
      <trkpt lat="44.88436" lon="0.6487">
        <ele>138.7</ele>
        <time>2022-07-10T07:23:55Z</time>
      </trkpt>
      <trkpt lat="44.8844" lon="0.64868">
        <ele>138.7</ele>
        <time>2022-07-10T07:23:57Z</time>
      </trkpt>
      <trkpt lat="44.88445" lon="0.64866">
        <ele>138.7</ele>
        <time>2022-07-10T07:23:59Z</time>
      </trkpt>
      <trkpt lat="44.88447" lon="0.64865">
        <ele>139.7</ele>
        <time>2022-07-10T07:24:00Z</time>
      </trkpt>
      <trkpt lat="44.88449" lon="0.64865">
        <ele>139.7</ele>
        <time>2022-07-10T07:24:01Z</time>
      </trkpt>
      <trkpt lat="44.88454" lon="0.64867">
        <ele>139.7</ele>
        <time>2022-07-10T07:24:03Z</time>
      </trkpt>
      <trkpt lat="44.88456" lon="0.64866">
        <ele>139.6</ele>
        <time>2022-07-10T07:24:04Z</time>
      </trkpt>
      <trkpt lat="44.88456" lon="0.64872">
        <ele>139.5</ele>
        <time>2022-07-10T07:24:05Z</time>
      </trkpt>
      <trkpt lat="44.88457" lon="0.64874">
        <ele>139.5</ele>
        <time>2022-07-10T07:24:07Z</time>
      </trkpt>
      <trkpt lat="44.88458" lon="0.6488">
        <ele>139.4</ele>
        <time>2022-07-10T07:24:09Z</time>
      </trkpt>
      <trkpt lat="44.88458" lon="0.64884">
        <ele>139.4</ele>
        <time>2022-07-10T07:24:10Z</time>
      </trkpt>
      <trkpt lat="44.88459" lon="0.64887">
        <ele>139.4</ele>
        <time>2022-07-10T07:24:11Z</time>
      </trkpt>
      <trkpt lat="44.8846" lon="0.64894">
        <ele>139.3</ele>
        <time>2022-07-10T07:24:13Z</time>
      </trkpt>
      <trkpt lat="44.88461" lon="0.64901">
        <ele>139.3</ele>
        <time>2022-07-10T07:24:15Z</time>
      </trkpt>
      <trkpt lat="44.88462" lon="0.64908">
        <ele>139.2</ele>
        <time>2022-07-10T07:24:17Z</time>
      </trkpt>
      <trkpt lat="44.88464" lon="0.64915">
        <ele>139.2</ele>
        <time>2022-07-10T07:24:19Z</time>
      </trkpt>
      <trkpt lat="44.88467" lon="0.64924">
        <ele>139.1</ele>
        <time>2022-07-10T07:24:21Z</time>
      </trkpt>
      <trkpt lat="44.88471" lon="0.64932">
        <ele>139.1</ele>
        <time>2022-07-10T07:24:23Z</time>
      </trkpt>
      <trkpt lat="44.88475" lon="0.64941">
        <ele>139.1</ele>
        <time>2022-07-10T07:24:25Z</time>
      </trkpt>
      <trkpt lat="44.88478" lon="0.64945">
        <ele>139.1</ele>
        <time>2022-07-10T07:24:26Z</time>
      </trkpt>
      <trkpt lat="44.88479" lon="0.64949">
        <ele>139.1</ele>
        <time>2022-07-10T07:24:27Z</time>
      </trkpt>
      <trkpt lat="44.88481" lon="0.64959">
        <ele>139.2</ele>
        <time>2022-07-10T07:24:29Z</time>
      </trkpt>
      <trkpt lat="44.88486" lon="0.64969">
        <ele>139.2</ele>
        <time>2022-07-10T07:24:31Z</time>
      </trkpt>
      <trkpt lat="44.88488" lon="0.64975">
        <ele>139.2</ele>
        <time>2022-07-10T07:24:32Z</time>
      </trkpt>
      <trkpt lat="44.88491" lon="0.6498">
        <ele>139.3</ele>
        <time>2022-07-10T07:24:33Z</time>
      </trkpt>
      <trkpt lat="44.88494" lon="0.64987">
        <ele>139.3</ele>
        <time>2022-07-10T07:24:34Z</time>
      </trkpt>
      <trkpt lat="44.88498" lon="0.64994">
        <ele>139.3</ele>
        <time>2022-07-10T07:24:35Z</time>
      </trkpt>
      <trkpt lat="44.88501" lon="0.65001">
        <ele>139.4</ele>
        <time>2022-07-10T07:24:36Z</time>
      </trkpt>
      <trkpt lat="44.88504" lon="0.65008">
        <ele>139.5</ele>
        <time>2022-07-10T07:24:37Z</time>
      </trkpt>
      <trkpt lat="44.88507" lon="0.65015">
        <ele>139.5</ele>
        <time>2022-07-10T07:24:38Z</time>
      </trkpt>
      <trkpt lat="44.88509" lon="0.65022">
        <ele>139.6</ele>
        <time>2022-07-10T07:24:39Z</time>
      </trkpt>
      <trkpt lat="44.88512" lon="0.65028">
        <ele>139.7</ele>
        <time>2022-07-10T07:24:40Z</time>
      </trkpt>
      <trkpt lat="44.88514" lon="0.65034">
        <ele>139.8</ele>
        <time>2022-07-10T07:24:41Z</time>
      </trkpt>
      <trkpt lat="44.88517" lon="0.6504">
        <ele>139.8</ele>
        <time>2022-07-10T07:24:42Z</time>
      </trkpt>
      <trkpt lat="44.8852" lon="0.65047">
        <ele>139.9</ele>
        <time>2022-07-10T07:24:43Z</time>
      </trkpt>
      <trkpt lat="44.88524" lon="0.65058">
        <ele>140</ele>
        <time>2022-07-10T07:24:45Z</time>
      </trkpt>
      <trkpt lat="44.88528" lon="0.65069">
        <ele>140.2</ele>
        <time>2022-07-10T07:24:47Z</time>
      </trkpt>
      <trkpt lat="44.88532" lon="0.65078">
        <ele>140.3</ele>
        <time>2022-07-10T07:24:49Z</time>
      </trkpt>
      <trkpt lat="44.88536" lon="0.65086">
        <ele>140.4</ele>
        <time>2022-07-10T07:24:51Z</time>
      </trkpt>
      <trkpt lat="44.88539" lon="0.65094">
        <ele>140.5</ele>
        <time>2022-07-10T07:24:53Z</time>
      </trkpt>
      <trkpt lat="44.88543" lon="0.65102">
        <ele>140.6</ele>
        <time>2022-07-10T07:24:55Z</time>
      </trkpt>
      <trkpt lat="44.88546" lon="0.65108">
        <ele>140.6</ele>
        <time>2022-07-10T07:24:57Z</time>
      </trkpt>
      <trkpt lat="44.8855" lon="0.65115">
        <ele>140.7</ele>
        <time>2022-07-10T07:24:59Z</time>
      </trkpt>
      <trkpt lat="44.88555" lon="0.65123">
        <ele>140.8</ele>
        <time>2022-07-10T07:25:01Z</time>
      </trkpt>
      <trkpt lat="44.88561" lon="0.65131">
        <ele>141</ele>
        <time>2022-07-10T07:25:03Z</time>
      </trkpt>
      <trkpt lat="44.88567" lon="0.6514">
        <ele>141.2</ele>
        <time>2022-07-10T07:25:05Z</time>
      </trkpt>
      <trkpt lat="44.88573" lon="0.65149">
        <ele>141.3</ele>
        <time>2022-07-10T07:25:07Z</time>
      </trkpt>
      <trkpt lat="44.88578" lon="0.65158">
        <ele>141.6</ele>
        <time>2022-07-10T07:25:09Z</time>
      </trkpt>
      <trkpt lat="44.88584" lon="0.65167">
        <ele>141.8</ele>
        <time>2022-07-10T07:25:11Z</time>
      </trkpt>
      <trkpt lat="44.88589" lon="0.65176">
        <ele>142.1</ele>
        <time>2022-07-10T07:25:13Z</time>
      </trkpt>
      <trkpt lat="44.88594" lon="0.65187">
        <ele>142.4</ele>
        <time>2022-07-10T07:25:15Z</time>
      </trkpt>
      <trkpt lat="44.88597" lon="0.65191">
        <ele>142.5</ele>
        <time>2022-07-10T07:25:16Z</time>
      </trkpt>
      <trkpt lat="44.88599" lon="0.65195">
        <ele>142.6</ele>
        <time>2022-07-10T07:25:17Z</time>
      </trkpt>
      <trkpt lat="44.88605" lon="0.65205">
        <ele>142.9</ele>
        <time>2022-07-10T07:25:19Z</time>
      </trkpt>
      <trkpt lat="44.88609" lon="0.65216">
        <ele>143.2</ele>
        <time>2022-07-10T07:25:21Z</time>
      </trkpt>
      <trkpt lat="44.88611" lon="0.65222">
        <ele>143.4</ele>
        <time>2022-07-10T07:25:22Z</time>
      </trkpt>
      <trkpt lat="44.88612" lon="0.65226">
        <ele>143.5</ele>
        <time>2022-07-10T07:25:23Z</time>
      </trkpt>
      <trkpt lat="44.88616" lon="0.65235">
        <ele>143.8</ele>
        <time>2022-07-10T07:25:25Z</time>
      </trkpt>
      <trkpt lat="44.88619" lon="0.65244">
        <ele>144</ele>
        <time>2022-07-10T07:25:27Z</time>
      </trkpt>
      <trkpt lat="44.88624" lon="0.65253">
        <ele>144.3</ele>
        <time>2022-07-10T07:25:29Z</time>
      </trkpt>
      <trkpt lat="44.88629" lon="0.65262">
        <ele>144.6</ele>
        <time>2022-07-10T07:25:31Z</time>
      </trkpt>
      <trkpt lat="44.88633" lon="0.65272">
        <ele>144.9</ele>
        <time>2022-07-10T07:25:33Z</time>
      </trkpt>
      <trkpt lat="44.88635" lon="0.65277">
        <ele>145</ele>
        <time>2022-07-10T07:25:34Z</time>
      </trkpt>
      <trkpt lat="44.88638" lon="0.65281">
        <ele>145.2</ele>
        <time>2022-07-10T07:25:35Z</time>
      </trkpt>
      <trkpt lat="44.88642" lon="0.65289">
        <ele>145.4</ele>
        <time>2022-07-10T07:25:37Z</time>
      </trkpt>
      <trkpt lat="44.88647" lon="0.65298">
        <ele>145.7</ele>
        <time>2022-07-10T07:25:39Z</time>
      </trkpt>
      <trkpt lat="44.88652" lon="0.65305">
        <ele>145.9</ele>
        <time>2022-07-10T07:25:41Z</time>
      </trkpt>
      <trkpt lat="44.88657" lon="0.65312">
        <ele>146.1</ele>
        <time>2022-07-10T07:25:43Z</time>
      </trkpt>
      <trkpt lat="44.88659" lon="0.65316">
        <ele>146.2</ele>
        <time>2022-07-10T07:25:44Z</time>
      </trkpt>
      <trkpt lat="44.88663" lon="0.6532">
        <ele>146.4</ele>
        <time>2022-07-10T07:25:45Z</time>
      </trkpt>
      <trkpt lat="44.88668" lon="0.65327">
        <ele>146.6</ele>
        <time>2022-07-10T07:25:47Z</time>
      </trkpt>
      <trkpt lat="44.88675" lon="0.65334">
        <ele>146.9</ele>
        <time>2022-07-10T07:25:49Z</time>
      </trkpt>
      <trkpt lat="44.88681" lon="0.6534">
        <ele>147.1</ele>
        <time>2022-07-10T07:25:51Z</time>
      </trkpt>
      <trkpt lat="44.88686" lon="0.65346">
        <ele>147.3</ele>
        <time>2022-07-10T07:25:53Z</time>
      </trkpt>
      <trkpt lat="44.88691" lon="0.65352">
        <ele>147.5</ele>
        <time>2022-07-10T07:25:55Z</time>
      </trkpt>
      <trkpt lat="44.88696" lon="0.65357">
        <ele>147.6</ele>
        <time>2022-07-10T07:25:57Z</time>
      </trkpt>
      <trkpt lat="44.88698" lon="0.6536">
        <ele>147.7</ele>
        <time>2022-07-10T07:25:58Z</time>
      </trkpt>
      <trkpt lat="44.88701" lon="0.65363">
        <ele>147.7</ele>
        <time>2022-07-10T07:25:59Z</time>
      </trkpt>
      <trkpt lat="44.88705" lon="0.65369">
        <ele>147.9</ele>
        <time>2022-07-10T07:26:01Z</time>
      </trkpt>
      <trkpt lat="44.88709" lon="0.65373">
        <ele>148</ele>
        <time>2022-07-10T07:26:03Z</time>
      </trkpt>
      <trkpt lat="44.88718" lon="0.65373">
        <ele>148.1</ele>
        <time>2022-07-10T07:26:05Z</time>
      </trkpt>
      <trkpt lat="44.88726" lon="0.65376">
        <ele>148</ele>
        <time>2022-07-10T07:26:07Z</time>
      </trkpt>
      <trkpt lat="44.88731" lon="0.65379">
        <ele>148.1</ele>
        <time>2022-07-10T07:26:08Z</time>
      </trkpt>
      <trkpt lat="44.88735" lon="0.65383">
        <ele>148.1</ele>
        <time>2022-07-10T07:26:09Z</time>
      </trkpt>
      <trkpt lat="44.88739" lon="0.65386">
        <ele>147.8</ele>
        <time>2022-07-10T07:26:11Z</time>
      </trkpt>
      <trkpt lat="44.88744" lon="0.65389">
        <ele>148.2</ele>
        <time>2022-07-10T07:26:12Z</time>
      </trkpt>
      <trkpt lat="44.88748" lon="0.65392">
        <ele>148.2</ele>
        <time>2022-07-10T07:26:13Z</time>
      </trkpt>
      <trkpt lat="44.88753" lon="0.65395">
        <ele>147.6</ele>
        <time>2022-07-10T07:26:15Z</time>
      </trkpt>
      <trkpt lat="44.88758" lon="0.65396">
        <ele>147.6</ele>
        <time>2022-07-10T07:26:16Z</time>
      </trkpt>
      <trkpt lat="44.88761" lon="0.65397">
        <ele>147.6</ele>
        <time>2022-07-10T07:26:17Z</time>
      </trkpt>
      <trkpt lat="44.88763" lon="0.65399">
        <ele>146.9</ele>
        <time>2022-07-10T07:26:18Z</time>
      </trkpt>
      <trkpt lat="44.88765" lon="0.65402">
        <ele>146.9</ele>
        <time>2022-07-10T07:26:19Z</time>
      </trkpt>
      <trkpt lat="44.88771" lon="0.65408">
        <ele>147.3</ele>
        <time>2022-07-10T07:26:21Z</time>
      </trkpt>
      <trkpt lat="44.88776" lon="0.65412">
        <ele>146.5</ele>
        <time>2022-07-10T07:26:22Z</time>
      </trkpt>
      <trkpt lat="44.88781" lon="0.65414">
        <ele>146.6</ele>
        <time>2022-07-10T07:26:23Z</time>
      </trkpt>
      <trkpt lat="44.88786" lon="0.65415">
        <ele>146.6</ele>
        <time>2022-07-10T07:26:24Z</time>
      </trkpt>
      <trkpt lat="44.8879" lon="0.65418">
        <ele>146</ele>
        <time>2022-07-10T07:26:25Z</time>
      </trkpt>
      <trkpt lat="44.88796" lon="0.6542">
        <ele>146.3</ele>
        <time>2022-07-10T07:26:26Z</time>
      </trkpt>
      <trkpt lat="44.88802" lon="0.65423">
        <ele>145.6</ele>
        <time>2022-07-10T07:26:27Z</time>
      </trkpt>
      <trkpt lat="44.88814" lon="0.65429">
        <ele>144.9</ele>
        <time>2022-07-10T07:26:29Z</time>
      </trkpt>
      <trkpt lat="44.88821" lon="0.6543">
        <ele>144.9</ele>
        <time>2022-07-10T07:26:30Z</time>
      </trkpt>
      <trkpt lat="44.88829" lon="0.65433">
        <ele>144.3</ele>
        <time>2022-07-10T07:26:31Z</time>
      </trkpt>
      <trkpt lat="44.88836" lon="0.65436">
        <ele>143.4</ele>
        <time>2022-07-10T07:26:32Z</time>
      </trkpt>
      <trkpt lat="44.88843" lon="0.6544">
        <ele>143.5</ele>
        <time>2022-07-10T07:26:33Z</time>
      </trkpt>
      <trkpt lat="44.88856" lon="0.65447">
        <ele>142.6</ele>
        <time>2022-07-10T07:26:35Z</time>
      </trkpt>
      <trkpt lat="44.88863" lon="0.65448">
        <ele>141.7</ele>
        <time>2022-07-10T07:26:36Z</time>
      </trkpt>
      <trkpt lat="44.88869" lon="0.6545">
        <ele>141.7</ele>
        <time>2022-07-10T07:26:37Z</time>
      </trkpt>
      <trkpt lat="44.88883" lon="0.65452">
        <ele>140.9</ele>
        <time>2022-07-10T07:26:39Z</time>
      </trkpt>
      <trkpt lat="44.88889" lon="0.65456">
        <ele>140.2</ele>
        <time>2022-07-10T07:26:41Z</time>
      </trkpt>
      <trkpt lat="44.88894" lon="0.65465">
        <ele>140.2</ele>
        <time>2022-07-10T07:26:43Z</time>
      </trkpt>
      <trkpt lat="44.88896" lon="0.65469">
        <ele>140.2</ele>
        <time>2022-07-10T07:26:44Z</time>
      </trkpt>
      <trkpt lat="44.88897" lon="0.65473">
        <ele>139.9</ele>
        <time>2022-07-10T07:26:45Z</time>
      </trkpt>
      <trkpt lat="44.889" lon="0.65482">
        <ele>139.9</ele>
        <time>2022-07-10T07:26:47Z</time>
      </trkpt>
      <trkpt lat="44.88901" lon="0.65487">
        <ele>139.9</ele>
        <time>2022-07-10T07:26:48Z</time>
      </trkpt>
      <trkpt lat="44.889" lon="0.65491">
        <ele>140.1</ele>
        <time>2022-07-10T07:26:49Z</time>
      </trkpt>
      <trkpt lat="44.88902" lon="0.655">
        <ele>140.1</ele>
        <time>2022-07-10T07:26:51Z</time>
      </trkpt>
      <trkpt lat="44.88904" lon="0.65507">
        <ele>140.2</ele>
        <time>2022-07-10T07:26:53Z</time>
      </trkpt>
      <trkpt lat="44.88907" lon="0.65516">
        <ele>140.2</ele>
        <time>2022-07-10T07:26:55Z</time>
      </trkpt>
      <trkpt lat="44.88906" lon="0.65525">
        <ele>140.2</ele>
        <time>2022-07-10T07:26:57Z</time>
      </trkpt>
      <trkpt lat="44.88906" lon="0.65529">
        <ele>140.3</ele>
        <time>2022-07-10T07:26:58Z</time>
      </trkpt>
      <trkpt lat="44.88905" lon="0.65533">
        <ele>140.3</ele>
        <time>2022-07-10T07:26:59Z</time>
      </trkpt>
      <trkpt lat="44.88903" lon="0.65541">
        <ele>140.2</ele>
        <time>2022-07-10T07:27:01Z</time>
      </trkpt>
      <trkpt lat="44.88903" lon="0.6555">
        <ele>140.3</ele>
        <time>2022-07-10T07:27:03Z</time>
      </trkpt>
      <trkpt lat="44.88906" lon="0.65559">
        <ele>140.2</ele>
        <time>2022-07-10T07:27:05Z</time>
      </trkpt>
      <trkpt lat="44.88909" lon="0.65565">
        <ele>139.7</ele>
        <time>2022-07-10T07:27:07Z</time>
      </trkpt>
      <trkpt lat="44.88912" lon="0.65572">
        <ele>139.7</ele>
        <time>2022-07-10T07:27:09Z</time>
      </trkpt>
      <trkpt lat="44.88914" lon="0.65575">
        <ele>139.7</ele>
        <time>2022-07-10T07:27:10Z</time>
      </trkpt>
      <trkpt lat="44.88916" lon="0.65578">
        <ele>139.7</ele>
        <time>2022-07-10T07:27:11Z</time>
      </trkpt>
      <trkpt lat="44.88921" lon="0.65585">
        <ele>139.4</ele>
        <time>2022-07-10T07:27:13Z</time>
      </trkpt>
      <trkpt lat="44.88924" lon="0.65587">
        <ele>139.4</ele>
        <time>2022-07-10T07:27:14Z</time>
      </trkpt>
      <trkpt lat="44.88928" lon="0.6559">
        <ele>139.4</ele>
        <time>2022-07-10T07:27:15Z</time>
      </trkpt>
      <trkpt lat="44.88936" lon="0.65595">
        <ele>139.5</ele>
        <time>2022-07-10T07:27:17Z</time>
      </trkpt>
      <trkpt lat="44.88944" lon="0.656">
        <ele>139.5</ele>
        <time>2022-07-10T07:27:19Z</time>
      </trkpt>
      <trkpt lat="44.88949" lon="0.65607">
        <ele>139.5</ele>
        <time>2022-07-10T07:27:21Z</time>
      </trkpt>
      <trkpt lat="44.88954" lon="0.65613">
        <ele>139.8</ele>
        <time>2022-07-10T07:27:23Z</time>
      </trkpt>
      <trkpt lat="44.88959" lon="0.6562">
        <ele>139.8</ele>
        <time>2022-07-10T07:27:25Z</time>
      </trkpt>
      <trkpt lat="44.88964" lon="0.65626">
        <ele>139.8</ele>
        <time>2022-07-10T07:27:27Z</time>
      </trkpt>
      <trkpt lat="44.88966" lon="0.65629">
        <ele>140.3</ele>
        <time>2022-07-10T07:27:28Z</time>
      </trkpt>
      <trkpt lat="44.88971" lon="0.65634">
        <ele>140.1</ele>
        <time>2022-07-10T07:27:29Z</time>
      </trkpt>
      <trkpt lat="44.88978" lon="0.6564">
        <ele>140.2</ele>
        <time>2022-07-10T07:27:31Z</time>
      </trkpt>
      <trkpt lat="44.88985" lon="0.65647">
        <ele>140.4</ele>
        <time>2022-07-10T07:27:33Z</time>
      </trkpt>
      <trkpt lat="44.88991" lon="0.65654">
        <ele>140.4</ele>
        <time>2022-07-10T07:27:35Z</time>
      </trkpt>
      <trkpt lat="44.88994" lon="0.6566">
        <ele>140.1</ele>
        <time>2022-07-10T07:27:36Z</time>
      </trkpt>
      <trkpt lat="44.88998" lon="0.65665">
        <ele>140.3</ele>
        <time>2022-07-10T07:27:37Z</time>
      </trkpt>
      <trkpt lat="44.89004" lon="0.65679">
        <ele>140.3</ele>
        <time>2022-07-10T07:27:39Z</time>
      </trkpt>
      <trkpt lat="44.89009" lon="0.65688">
        <ele>139.9</ele>
        <time>2022-07-10T07:27:40Z</time>
      </trkpt>
      <trkpt lat="44.89012" lon="0.65697">
        <ele>139.7</ele>
        <time>2022-07-10T07:27:41Z</time>
      </trkpt>
      <trkpt lat="44.89012" lon="0.65717">
        <ele>139.4</ele>
        <time>2022-07-10T07:27:43Z</time>
      </trkpt>
      <trkpt lat="44.89013" lon="0.65731">
        <ele>139</ele>
        <time>2022-07-10T07:27:45Z</time>
      </trkpt>
      <trkpt lat="44.89011" lon="0.65747">
        <ele>138.6</ele>
        <time>2022-07-10T07:27:47Z</time>
      </trkpt>
      <trkpt lat="44.89012" lon="0.65754">
        <ele>138.7</ele>
        <time>2022-07-10T07:27:48Z</time>
      </trkpt>
      <trkpt lat="44.89012" lon="0.65762">
        <ele>138.7</ele>
        <time>2022-07-10T07:27:49Z</time>
      </trkpt>
      <trkpt lat="44.89011" lon="0.6577">
        <ele>138.3</ele>
        <time>2022-07-10T07:27:50Z</time>
      </trkpt>
      <trkpt lat="44.8901" lon="0.65778">
        <ele>138.3</ele>
        <time>2022-07-10T07:27:51Z</time>
      </trkpt>
      <trkpt lat="44.89011" lon="0.65786">
        <ele>137.8</ele>
        <time>2022-07-10T07:27:52Z</time>
      </trkpt>
      <trkpt lat="44.89012" lon="0.65793">
        <ele>137.8</ele>
        <time>2022-07-10T07:27:53Z</time>
      </trkpt>
      <trkpt lat="44.89015" lon="0.65806">
        <ele>137.3</ele>
        <time>2022-07-10T07:27:55Z</time>
      </trkpt>
      <trkpt lat="44.8902" lon="0.65823">
        <ele>136.7</ele>
        <time>2022-07-10T07:27:57Z</time>
      </trkpt>
      <trkpt lat="44.89021" lon="0.65831">
        <ele>136.7</ele>
        <time>2022-07-10T07:27:58Z</time>
      </trkpt>
      <trkpt lat="44.89023" lon="0.65838">
        <ele>136</ele>
        <time>2022-07-10T07:27:59Z</time>
      </trkpt>
      <trkpt lat="44.89031" lon="0.65847">
        <ele>135.9</ele>
        <time>2022-07-10T07:28:01Z</time>
      </trkpt>
      <trkpt lat="44.89037" lon="0.6585">
        <ele>135.1</ele>
        <time>2022-07-10T07:28:02Z</time>
      </trkpt>
      <trkpt lat="44.89042" lon="0.65851">
        <ele>135.2</ele>
        <time>2022-07-10T07:28:03Z</time>
      </trkpt>
      <trkpt lat="44.89046" lon="0.65852">
        <ele>134.9</ele>
        <time>2022-07-10T07:28:04Z</time>
      </trkpt>
      <trkpt lat="44.89049" lon="0.65853">
        <ele>134.9</ele>
        <time>2022-07-10T07:28:05Z</time>
      </trkpt>
      <trkpt lat="44.89057" lon="0.65856">
        <ele>134.3</ele>
        <time>2022-07-10T07:28:07Z</time>
      </trkpt>
      <trkpt lat="44.89061" lon="0.65858">
        <ele>134.3</ele>
        <time>2022-07-10T07:28:08Z</time>
      </trkpt>
      <trkpt lat="44.89064" lon="0.65859">
        <ele>134.3</ele>
        <time>2022-07-10T07:28:09Z</time>
      </trkpt>
      <trkpt lat="44.89073" lon="0.65863">
        <ele>133.7</ele>
        <time>2022-07-10T07:28:11Z</time>
      </trkpt>
      <trkpt lat="44.89081" lon="0.65867">
        <ele>132.4</ele>
        <time>2022-07-10T07:28:13Z</time>
      </trkpt>
      <trkpt lat="44.8909" lon="0.6587">
        <ele>132.4</ele>
        <time>2022-07-10T07:28:15Z</time>
      </trkpt>
      <trkpt lat="44.891" lon="0.65872">
        <ele>131.7</ele>
        <time>2022-07-10T07:28:17Z</time>
      </trkpt>
      <trkpt lat="44.89113" lon="0.65877">
        <ele>131</ele>
        <time>2022-07-10T07:28:19Z</time>
      </trkpt>
      <trkpt lat="44.89126" lon="0.6588">
        <ele>130.5</ele>
        <time>2022-07-10T07:28:21Z</time>
      </trkpt>
      <trkpt lat="44.89139" lon="0.65884">
        <ele>129.7</ele>
        <time>2022-07-10T07:28:23Z</time>
      </trkpt>
      <trkpt lat="44.89151" lon="0.65888">
        <ele>129.8</ele>
        <time>2022-07-10T07:28:25Z</time>
      </trkpt>
      <trkpt lat="44.89156" lon="0.6589">
        <ele>129.9</ele>
        <time>2022-07-10T07:28:26Z</time>
      </trkpt>
      <trkpt lat="44.89162" lon="0.65892">
        <ele>129.9</ele>
        <time>2022-07-10T07:28:27Z</time>
      </trkpt>
      <trkpt lat="44.8917" lon="0.65894">
        <ele>130.2</ele>
        <time>2022-07-10T07:28:29Z</time>
      </trkpt>
      <trkpt lat="44.8918" lon="0.65897">
        <ele>130.6</ele>
        <time>2022-07-10T07:28:31Z</time>
      </trkpt>
      <trkpt lat="44.89186" lon="0.65899">
        <ele>130.6</ele>
        <time>2022-07-10T07:28:32Z</time>
      </trkpt>
      <trkpt lat="44.89192" lon="0.65901">
        <ele>131.1</ele>
        <time>2022-07-10T07:28:33Z</time>
      </trkpt>
      <trkpt lat="44.89203" lon="0.65903">
        <ele>131.7</ele>
        <time>2022-07-10T07:28:35Z</time>
      </trkpt>
      <trkpt lat="44.89209" lon="0.65904">
        <ele>131.7</ele>
        <time>2022-07-10T07:28:36Z</time>
      </trkpt>
      <trkpt lat="44.89211" lon="0.65904">
        <ele>131.7</ele>
        <time>2022-07-10T07:28:37Z</time>
      </trkpt>
      <trkpt lat="44.89226" lon="0.65903">
        <ele>132.7</ele>
        <time>2022-07-10T07:28:39Z</time>
      </trkpt>
      <trkpt lat="44.89237" lon="0.6591">
        <ele>132.1</ele>
        <time>2022-07-10T07:28:41Z</time>
      </trkpt>
      <trkpt lat="44.89255" lon="0.65913">
        <ele>131.2</ele>
        <time>2022-07-10T07:28:43Z</time>
      </trkpt>
      <trkpt lat="44.89271" lon="0.65915">
        <ele>130.4</ele>
        <time>2022-07-10T07:28:45Z</time>
      </trkpt>
      <trkpt lat="44.89289" lon="0.65913">
        <ele>129.5</ele>
        <time>2022-07-10T07:28:47Z</time>
      </trkpt>
      <trkpt lat="44.89301" lon="0.6591">
        <ele>129</ele>
        <time>2022-07-10T07:28:49Z</time>
      </trkpt>
      <trkpt lat="44.89315" lon="0.65906">
        <ele>128.5</ele>
        <time>2022-07-10T07:28:51Z</time>
      </trkpt>
      <trkpt lat="44.89332" lon="0.65902">
        <ele>128</ele>
        <time>2022-07-10T07:28:53Z</time>
      </trkpt>
      <trkpt lat="44.89349" lon="0.659">
        <ele>127.6</ele>
        <time>2022-07-10T07:28:55Z</time>
      </trkpt>
      <trkpt lat="44.89364" lon="0.65897">
        <ele>127.5</ele>
        <time>2022-07-10T07:28:57Z</time>
      </trkpt>
      <trkpt lat="44.8938" lon="0.65894">
        <ele>127.4</ele>
        <time>2022-07-10T07:28:59Z</time>
      </trkpt>
      <trkpt lat="44.89388" lon="0.65894">
        <ele>127.5</ele>
        <time>2022-07-10T07:29:00Z</time>
      </trkpt>
      <trkpt lat="44.89395" lon="0.65894">
        <ele>127.5</ele>
        <time>2022-07-10T07:29:01Z</time>
      </trkpt>
      <trkpt lat="44.89407" lon="0.65894">
        <ele>127.7</ele>
        <time>2022-07-10T07:29:03Z</time>
      </trkpt>
      <trkpt lat="44.8942" lon="0.65895">
        <ele>127.8</ele>
        <time>2022-07-10T07:29:05Z</time>
      </trkpt>
      <trkpt lat="44.89431" lon="0.65897">
        <ele>128</ele>
        <time>2022-07-10T07:29:07Z</time>
      </trkpt>
      <trkpt lat="44.89443" lon="0.659">
        <ele>128.2</ele>
        <time>2022-07-10T07:29:09Z</time>
      </trkpt>
      <trkpt lat="44.89449" lon="0.65901">
        <ele>128.3</ele>
        <time>2022-07-10T07:29:10Z</time>
      </trkpt>
      <trkpt lat="44.89455" lon="0.65903">
        <ele>128.4</ele>
        <time>2022-07-10T07:29:11Z</time>
      </trkpt>
      <trkpt lat="44.89467" lon="0.65906">
        <ele>128.6</ele>
        <time>2022-07-10T07:29:13Z</time>
      </trkpt>
      <trkpt lat="44.89477" lon="0.6591">
        <ele>128.8</ele>
        <time>2022-07-10T07:29:15Z</time>
      </trkpt>
      <trkpt lat="44.89482" lon="0.65912">
        <ele>128.9</ele>
        <time>2022-07-10T07:29:16Z</time>
      </trkpt>
      <trkpt lat="44.89487" lon="0.65913">
        <ele>129</ele>
        <time>2022-07-10T07:29:17Z</time>
      </trkpt>
      <trkpt lat="44.89499" lon="0.65921">
        <ele>129.2</ele>
        <time>2022-07-10T07:29:19Z</time>
      </trkpt>
      <trkpt lat="44.89509" lon="0.65929">
        <ele>129.4</ele>
        <time>2022-07-10T07:29:21Z</time>
      </trkpt>
      <trkpt lat="44.89514" lon="0.65933">
        <ele>129.5</ele>
        <time>2022-07-10T07:29:22Z</time>
      </trkpt>
      <trkpt lat="44.89518" lon="0.65937">
        <ele>129.5</ele>
        <time>2022-07-10T07:29:23Z</time>
      </trkpt>
      <trkpt lat="44.89529" lon="0.65941">
        <ele>129.6</ele>
        <time>2022-07-10T07:29:25Z</time>
      </trkpt>
      <trkpt lat="44.89538" lon="0.65943">
        <ele>129.7</ele>
        <time>2022-07-10T07:29:26Z</time>
      </trkpt>
      <trkpt lat="44.89547" lon="0.65942">
        <ele>129.8</ele>
        <time>2022-07-10T07:29:27Z</time>
      </trkpt>
      <trkpt lat="44.8956" lon="0.65938">
        <ele>129.8</ele>
        <time>2022-07-10T07:29:29Z</time>
      </trkpt>
      <trkpt lat="44.89574" lon="0.65935">
        <ele>129.7</ele>
        <time>2022-07-10T07:29:31Z</time>
      </trkpt>
      <trkpt lat="44.89579" lon="0.65933">
        <ele>129.6</ele>
        <time>2022-07-10T07:29:33Z</time>
      </trkpt>
      <trkpt lat="44.89597" lon="0.65929">
        <ele>129.3</ele>
        <time>2022-07-10T07:29:35Z</time>
      </trkpt>
      <trkpt lat="44.89602" lon="0.65928">
        <ele>129.2</ele>
        <time>2022-07-10T07:29:36Z</time>
      </trkpt>
      <trkpt lat="44.89607" lon="0.65926">
        <ele>129</ele>
        <time>2022-07-10T07:29:37Z</time>
      </trkpt>
      <trkpt lat="44.89613" lon="0.65925">
        <ele>128.8</ele>
        <time>2022-07-10T07:29:38Z</time>
      </trkpt>
      <trkpt lat="44.89619" lon="0.65924">
        <ele>128.5</ele>
        <time>2022-07-10T07:29:39Z</time>
      </trkpt>
      <trkpt lat="44.8963" lon="0.65923">
        <ele>127.9</ele>
        <time>2022-07-10T07:29:41Z</time>
      </trkpt>
      <trkpt lat="44.89642" lon="0.65923">
        <ele>127.2</ele>
        <time>2022-07-10T07:29:43Z</time>
      </trkpt>
      <trkpt lat="44.89655" lon="0.65923">
        <ele>126.5</ele>
        <time>2022-07-10T07:29:45Z</time>
      </trkpt>
      <trkpt lat="44.89667" lon="0.65923">
        <ele>125.8</ele>
        <time>2022-07-10T07:29:47Z</time>
      </trkpt>
      <trkpt lat="44.89674" lon="0.65924">
        <ele>125.5</ele>
        <time>2022-07-10T07:29:48Z</time>
      </trkpt>
      <trkpt lat="44.89681" lon="0.65924">
        <ele>125.2</ele>
        <time>2022-07-10T07:29:49Z</time>
      </trkpt>
      <trkpt lat="44.89694" lon="0.65925">
        <ele>124.7</ele>
        <time>2022-07-10T07:29:51Z</time>
      </trkpt>
      <trkpt lat="44.89706" lon="0.65926">
        <ele>124.4</ele>
        <time>2022-07-10T07:29:53Z</time>
      </trkpt>
      <trkpt lat="44.89711" lon="0.65926">
        <ele>124.4</ele>
        <time>2022-07-10T07:29:54Z</time>
      </trkpt>
      <trkpt lat="44.89718" lon="0.65934">
        <ele>124</ele>
        <time>2022-07-10T07:29:55Z</time>
      </trkpt>
      <trkpt lat="44.89717" lon="0.65937">
        <ele>123.9</ele>
        <time>2022-07-10T07:29:56Z</time>
      </trkpt>
      <trkpt lat="44.89715" lon="0.65943">
        <ele>123.8</ele>
        <time>2022-07-10T07:29:57Z</time>
      </trkpt>
      <trkpt lat="44.89712" lon="0.65955">
        <ele>123.5</ele>
        <time>2022-07-10T07:29:59Z</time>
      </trkpt>
      <trkpt lat="44.8971" lon="0.65962">
        <ele>123.4</ele>
        <time>2022-07-10T07:30:00Z</time>
      </trkpt>
      <trkpt lat="44.89709" lon="0.65969">
        <ele>123.3</ele>
        <time>2022-07-10T07:30:01Z</time>
      </trkpt>
      <trkpt lat="44.89705" lon="0.65983">
        <ele>123.2</ele>
        <time>2022-07-10T07:30:03Z</time>
      </trkpt>
      <trkpt lat="44.89702" lon="0.65995">
        <ele>123.2</ele>
        <time>2022-07-10T07:30:05Z</time>
      </trkpt>
      <trkpt lat="44.89698" lon="0.66008">
        <ele>123.3</ele>
        <time>2022-07-10T07:30:07Z</time>
      </trkpt>
      <trkpt lat="44.89695" lon="0.6602">
        <ele>123.3</ele>
        <time>2022-07-10T07:30:09Z</time>
      </trkpt>
      <trkpt lat="44.89693" lon="0.66027">
        <ele>123.3</ele>
        <time>2022-07-10T07:30:10Z</time>
      </trkpt>
      <trkpt lat="44.89692" lon="0.66033">
        <ele>123.3</ele>
        <time>2022-07-10T07:30:11Z</time>
      </trkpt>
      <trkpt lat="44.89688" lon="0.66047">
        <ele>123.3</ele>
        <time>2022-07-10T07:30:13Z</time>
      </trkpt>
      <trkpt lat="44.89684" lon="0.6606">
        <ele>123.3</ele>
        <time>2022-07-10T07:30:15Z</time>
      </trkpt>
      <trkpt lat="44.89681" lon="0.66074">
        <ele>123.2</ele>
        <time>2022-07-10T07:30:17Z</time>
      </trkpt>
      <trkpt lat="44.89676" lon="0.66088">
        <ele>123.1</ele>
        <time>2022-07-10T07:30:19Z</time>
      </trkpt>
      <trkpt lat="44.89667" lon="0.66095">
        <ele>122.9</ele>
        <time>2022-07-10T07:30:21Z</time>
      </trkpt>
      <trkpt lat="44.89662" lon="0.66097">
        <ele>122.7</ele>
        <time>2022-07-10T07:30:22Z</time>
      </trkpt>
      <trkpt lat="44.89656" lon="0.66098">
        <ele>122.4</ele>
        <time>2022-07-10T07:30:23Z</time>
      </trkpt>
      <trkpt lat="44.89645" lon="0.66102">
        <ele>121.8</ele>
        <time>2022-07-10T07:30:25Z</time>
      </trkpt>
      <trkpt lat="44.89632" lon="0.66105">
        <ele>121.1</ele>
        <time>2022-07-10T07:30:27Z</time>
      </trkpt>
      <trkpt lat="44.89626" lon="0.66108">
        <ele>120.7</ele>
        <time>2022-07-10T07:30:28Z</time>
      </trkpt>
      <trkpt lat="44.89622" lon="0.66112">
        <ele>120.4</ele>
        <time>2022-07-10T07:30:29Z</time>
      </trkpt>
      <trkpt lat="44.89619" lon="0.66122">
        <ele>119.9</ele>
        <time>2022-07-10T07:30:30Z</time>
      </trkpt>
      <trkpt lat="44.89618" lon="0.6613">
        <ele>119.6</ele>
        <time>2022-07-10T07:30:31Z</time>
      </trkpt>
      <trkpt lat="44.89617" lon="0.66147">
        <ele>118.9</ele>
        <time>2022-07-10T07:30:33Z</time>
      </trkpt>
      <trkpt lat="44.89617" lon="0.66156">
        <ele>118.5</ele>
        <time>2022-07-10T07:30:34Z</time>
      </trkpt>
      <trkpt lat="44.89617" lon="0.66166">
        <ele>118.1</ele>
        <time>2022-07-10T07:30:35Z</time>
      </trkpt>
      <trkpt lat="44.89616" lon="0.66185">
        <ele>117.3</ele>
        <time>2022-07-10T07:30:37Z</time>
      </trkpt>
      <trkpt lat="44.89615" lon="0.66204">
        <ele>116.4</ele>
        <time>2022-07-10T07:30:39Z</time>
      </trkpt>
      <trkpt lat="44.89615" lon="0.66214">
        <ele>115.9</ele>
        <time>2022-07-10T07:30:40Z</time>
      </trkpt>
      <trkpt lat="44.89616" lon="0.66224">
        <ele>115.3</ele>
        <time>2022-07-10T07:30:41Z</time>
      </trkpt>
      <trkpt lat="44.89616" lon="0.66245">
        <ele>113.8</ele>
        <time>2022-07-10T07:30:43Z</time>
      </trkpt>
      <trkpt lat="44.89615" lon="0.66257">
        <ele>112.7</ele>
        <time>2022-07-10T07:30:44Z</time>
      </trkpt>
      <trkpt lat="44.89615" lon="0.66269">
        <ele>111.5</ele>
        <time>2022-07-10T07:30:45Z</time>
      </trkpt>
      <trkpt lat="44.89613" lon="0.66297">
        <ele>108.9</ele>
        <time>2022-07-10T07:30:47Z</time>
      </trkpt>
      <trkpt lat="44.89612" lon="0.66328">
        <ele>107</ele>
        <time>2022-07-10T07:30:49Z</time>
      </trkpt>
      <trkpt lat="44.89609" lon="0.66358">
        <ele>106</ele>
        <time>2022-07-10T07:30:51Z</time>
      </trkpt>
      <trkpt lat="44.89606" lon="0.66386">
        <ele>105.7</ele>
        <time>2022-07-10T07:30:53Z</time>
      </trkpt>
      <trkpt lat="44.89604" lon="0.66409">
        <ele>105.8</ele>
        <time>2022-07-10T07:30:55Z</time>
      </trkpt>
      <trkpt lat="44.89605" lon="0.66419">
        <ele>105.8</ele>
        <time>2022-07-10T07:30:56Z</time>
      </trkpt>
      <trkpt lat="44.89607" lon="0.66425">
        <ele>105.7</ele>
        <time>2022-07-10T07:30:57Z</time>
      </trkpt>
      <trkpt lat="44.89609" lon="0.6643">
        <ele>105.6</ele>
        <time>2022-07-10T07:30:58Z</time>
      </trkpt>
      <trkpt lat="44.89613" lon="0.66433">
        <ele>105.7</ele>
        <time>2022-07-10T07:30:59Z</time>
      </trkpt>
      <trkpt lat="44.89616" lon="0.66437">
        <ele>105.7</ele>
        <time>2022-07-10T07:31:00Z</time>
      </trkpt>
      <trkpt lat="44.8962" lon="0.6644">
        <ele>105.8</ele>
        <time>2022-07-10T07:31:01Z</time>
      </trkpt>
      <trkpt lat="44.89622" lon="0.66443">
        <ele>105.9</ele>
        <time>2022-07-10T07:31:02Z</time>
      </trkpt>
      <trkpt lat="44.89625" lon="0.66446">
        <ele>106</ele>
        <time>2022-07-10T07:31:03Z</time>
      </trkpt>
      <trkpt lat="44.89631" lon="0.66451">
        <ele>106.3</ele>
        <time>2022-07-10T07:31:05Z</time>
      </trkpt>
      <trkpt lat="44.89633" lon="0.66454">
        <ele>106.4</ele>
        <time>2022-07-10T07:31:06Z</time>
      </trkpt>
      <trkpt lat="44.89637" lon="0.66457">
        <ele>106.7</ele>
        <time>2022-07-10T07:31:07Z</time>
      </trkpt>
      <trkpt lat="44.89643" lon="0.66465">
        <ele>107.2</ele>
        <time>2022-07-10T07:31:09Z</time>
      </trkpt>
      <trkpt lat="44.89646" lon="0.66468">
        <ele>107.5</ele>
        <time>2022-07-10T07:31:10Z</time>
      </trkpt>
      <trkpt lat="44.89649" lon="0.66471">
        <ele>107.7</ele>
        <time>2022-07-10T07:31:11Z</time>
      </trkpt>
      <trkpt lat="44.89655" lon="0.66477">
        <ele>108.3</ele>
        <time>2022-07-10T07:31:13Z</time>
      </trkpt>
      <trkpt lat="44.89658" lon="0.66481">
        <ele>108.6</ele>
        <time>2022-07-10T07:31:14Z</time>
      </trkpt>
      <trkpt lat="44.89661" lon="0.66486">
        <ele>109</ele>
        <time>2022-07-10T07:31:15Z</time>
      </trkpt>
      <trkpt lat="44.89666" lon="0.66493">
        <ele>109.4</ele>
        <time>2022-07-10T07:31:17Z</time>
      </trkpt>
      <trkpt lat="44.89671" lon="0.66501">
        <ele>110</ele>
        <time>2022-07-10T07:31:19Z</time>
      </trkpt>
      <trkpt lat="44.89673" lon="0.66505">
        <ele>110.3</ele>
        <time>2022-07-10T07:31:20Z</time>
      </trkpt>
      <trkpt lat="44.89677" lon="0.66511">
        <ele>110.8</ele>
        <time>2022-07-10T07:31:21Z</time>
      </trkpt>
      <trkpt lat="44.89683" lon="0.66518">
        <ele>111.5</ele>
        <time>2022-07-10T07:31:23Z</time>
      </trkpt>
      <trkpt lat="44.89687" lon="0.66525">
        <ele>112.1</ele>
        <time>2022-07-10T07:31:24Z</time>
      </trkpt>
      <trkpt lat="44.89689" lon="0.66531">
        <ele>112.6</ele>
        <time>2022-07-10T07:31:25Z</time>
      </trkpt>
      <trkpt lat="44.8969" lon="0.66537">
        <ele>113</ele>
        <time>2022-07-10T07:31:26Z</time>
      </trkpt>
      <trkpt lat="44.89689" lon="0.66537">
        <ele>113.1</ele>
        <time>2022-07-10T07:31:27Z</time>
      </trkpt>
      <trkpt lat="44.89686" lon="0.66539">
        <ele>113.4</ele>
        <time>2022-07-10T07:31:29Z</time>
      </trkpt>
      <trkpt lat="44.89682" lon="0.6654">
        <ele>113.7</ele>
        <time>2022-07-10T07:31:31Z</time>
      </trkpt>
      <trkpt lat="44.8968" lon="0.66541">
        <ele>113.9</ele>
        <time>2022-07-10T07:31:32Z</time>
      </trkpt>
      <trkpt lat="44.89678" lon="0.66542">
        <ele>114</ele>
        <time>2022-07-10T07:31:33Z</time>
      </trkpt>
      <trkpt lat="44.89677" lon="0.66542">
        <ele>114.1</ele>
        <time>2022-07-10T07:31:35Z</time>
      </trkpt>
      <trkpt lat="44.89675" lon="0.66543">
        <ele>114.2</ele>
        <time>2022-07-10T07:31:36Z</time>
      </trkpt>
      <trkpt lat="44.89673" lon="0.66544">
        <ele>114.4</ele>
        <time>2022-07-10T07:31:37Z</time>
      </trkpt>
      <trkpt lat="44.89668" lon="0.66546">
        <ele>114.7</ele>
        <time>2022-07-10T07:31:39Z</time>
      </trkpt>
      <trkpt lat="44.89664" lon="0.66549">
        <ele>115</ele>
        <time>2022-07-10T07:31:41Z</time>
      </trkpt>
      <trkpt lat="44.89658" lon="0.66552">
        <ele>115.4</ele>
        <time>2022-07-10T07:31:43Z</time>
      </trkpt>
      <trkpt lat="44.89653" lon="0.66555">
        <ele>115.8</ele>
        <time>2022-07-10T07:31:45Z</time>
      </trkpt>
      <trkpt lat="44.8965" lon="0.66557">
        <ele>115.9</ele>
        <time>2022-07-10T07:31:46Z</time>
      </trkpt>
      <trkpt lat="44.89647" lon="0.66558">
        <ele>116.1</ele>
        <time>2022-07-10T07:31:47Z</time>
      </trkpt>
      <trkpt lat="44.89643" lon="0.66561">
        <ele>116.5</ele>
        <time>2022-07-10T07:31:49Z</time>
      </trkpt>
      <trkpt lat="44.89638" lon="0.66564">
        <ele>116.8</ele>
        <time>2022-07-10T07:31:51Z</time>
      </trkpt>
      <trkpt lat="44.89635" lon="0.66566">
        <ele>117</ele>
        <time>2022-07-10T07:31:53Z</time>
      </trkpt>
      <trkpt lat="44.89631" lon="0.66568">
        <ele>117.3</ele>
        <time>2022-07-10T07:31:55Z</time>
      </trkpt>
      <trkpt lat="44.89625" lon="0.66581">
        <ele>118.1</ele>
        <time>2022-07-10T07:31:57Z</time>
      </trkpt>
      <trkpt lat="44.89623" lon="0.66588">
        <ele>118.4</ele>
        <time>2022-07-10T07:31:59Z</time>
      </trkpt>
      <trkpt lat="44.89623" lon="0.66591">
        <ele>118.5</ele>
        <time>2022-07-10T07:32:00Z</time>
      </trkpt>
      <trkpt lat="44.89622" lon="0.66593">
        <ele>118.6</ele>
        <time>2022-07-10T07:32:01Z</time>
      </trkpt>
      <trkpt lat="44.89622" lon="0.66596">
        <ele>118.7</ele>
        <time>2022-07-10T07:32:03Z</time>
      </trkpt>
      <trkpt lat="44.89622" lon="0.66596">
        <ele>118.7</ele>
        <time>2022-07-10T07:32:04Z</time>
      </trkpt>
      <trkpt lat="44.89619" lon="0.66609">
        <ele>119.3</ele>
        <time>2022-07-10T07:32:07Z</time>
      </trkpt>
      <trkpt lat="44.89617" lon="0.66616">
        <ele>119.6</ele>
        <time>2022-07-10T07:32:09Z</time>
      </trkpt>
      <trkpt lat="44.89616" lon="0.66621">
        <ele>119.8</ele>
        <time>2022-07-10T07:32:11Z</time>
      </trkpt>
      <trkpt lat="44.89616" lon="0.66624">
        <ele>119.9</ele>
        <time>2022-07-10T07:32:13Z</time>
      </trkpt>
      <trkpt lat="44.89615" lon="0.66626">
        <ele>120</ele>
        <time>2022-07-10T07:32:14Z</time>
      </trkpt>
      <trkpt lat="44.89615" lon="0.6663">
        <ele>120.2</ele>
        <time>2022-07-10T07:32:15Z</time>
      </trkpt>
      <trkpt lat="44.89613" lon="0.66638">
        <ele>120.6</ele>
        <time>2022-07-10T07:32:17Z</time>
      </trkpt>
      <trkpt lat="44.8961" lon="0.66649">
        <ele>121.1</ele>
        <time>2022-07-10T07:32:19Z</time>
      </trkpt>
      <trkpt lat="44.89609" lon="0.66657">
        <ele>121.4</ele>
        <time>2022-07-10T07:32:21Z</time>
      </trkpt>
      <trkpt lat="44.89607" lon="0.66664">
        <ele>121.7</ele>
        <time>2022-07-10T07:32:23Z</time>
      </trkpt>
      <trkpt lat="44.89606" lon="0.66668">
        <ele>121.8</ele>
        <time>2022-07-10T07:32:24Z</time>
      </trkpt>
      <trkpt lat="44.89606" lon="0.66673">
        <ele>122</ele>
        <time>2022-07-10T07:32:25Z</time>
      </trkpt>
      <trkpt lat="44.89606" lon="0.66683">
        <ele>122.3</ele>
        <time>2022-07-10T07:32:27Z</time>
      </trkpt>
      <trkpt lat="44.89606" lon="0.66692">
        <ele>122.6</ele>
        <time>2022-07-10T07:32:29Z</time>
      </trkpt>
      <trkpt lat="44.89606" lon="0.66701">
        <ele>122.8</ele>
        <time>2022-07-10T07:32:31Z</time>
      </trkpt>
      <trkpt lat="44.89606" lon="0.66711">
        <ele>123</ele>
        <time>2022-07-10T07:32:33Z</time>
      </trkpt>
      <trkpt lat="44.89605" lon="0.66716">
        <ele>123.1</ele>
        <time>2022-07-10T07:32:34Z</time>
      </trkpt>
      <trkpt lat="44.89605" lon="0.66721">
        <ele>123.3</ele>
        <time>2022-07-10T07:32:35Z</time>
      </trkpt>
      <trkpt lat="44.89603" lon="0.66732">
        <ele>123.4</ele>
        <time>2022-07-10T07:32:37Z</time>
      </trkpt>
      <trkpt lat="44.89603" lon="0.66736">
        <ele>123.5</ele>
        <time>2022-07-10T07:32:38Z</time>
      </trkpt>
      <trkpt lat="44.89602" lon="0.66741">
        <ele>123.6</ele>
        <time>2022-07-10T07:32:39Z</time>
      </trkpt>
      <trkpt lat="44.89601" lon="0.6675">
        <ele>123.7</ele>
        <time>2022-07-10T07:32:41Z</time>
      </trkpt>
      <trkpt lat="44.89599" lon="0.66761">
        <ele>123.9</ele>
        <time>2022-07-10T07:32:43Z</time>
      </trkpt>
      <trkpt lat="44.89598" lon="0.66766">
        <ele>124</ele>
        <time>2022-07-10T07:32:44Z</time>
      </trkpt>
      <trkpt lat="44.89597" lon="0.66772">
        <ele>124.1</ele>
        <time>2022-07-10T07:32:45Z</time>
      </trkpt>
      <trkpt lat="44.89597" lon="0.66777">
        <ele>124.2</ele>
        <time>2022-07-10T07:32:47Z</time>
      </trkpt>
      <trkpt lat="44.89595" lon="0.66786">
        <ele>124.3</ele>
        <time>2022-07-10T07:32:49Z</time>
      </trkpt>
      <trkpt lat="44.89594" lon="0.66794">
        <ele>124.5</ele>
        <time>2022-07-10T07:32:51Z</time>
      </trkpt>
      <trkpt lat="44.89593" lon="0.66801">
        <ele>124.7</ele>
        <time>2022-07-10T07:32:53Z</time>
      </trkpt>
      <trkpt lat="44.89592" lon="0.66808">
        <ele>124.8</ele>
        <time>2022-07-10T07:32:55Z</time>
      </trkpt>
      <trkpt lat="44.89592" lon="0.66812">
        <ele>124.9</ele>
        <time>2022-07-10T07:32:56Z</time>
      </trkpt>
      <trkpt lat="44.89591" lon="0.66815">
        <ele>125</ele>
        <time>2022-07-10T07:32:57Z</time>
      </trkpt>
      <trkpt lat="44.8959" lon="0.66823">
        <ele>125.2</ele>
        <time>2022-07-10T07:32:59Z</time>
      </trkpt>
      <trkpt lat="44.8959" lon="0.66827">
        <ele>125.3</ele>
        <time>2022-07-10T07:33:00Z</time>
      </trkpt>
      <trkpt lat="44.89589" lon="0.66831">
        <ele>125.4</ele>
        <time>2022-07-10T07:33:01Z</time>
      </trkpt>
      <trkpt lat="44.89588" lon="0.66838">
        <ele>125.6</ele>
        <time>2022-07-10T07:33:03Z</time>
      </trkpt>
      <trkpt lat="44.89587" lon="0.66842">
        <ele>125.8</ele>
        <time>2022-07-10T07:33:04Z</time>
      </trkpt>
      <trkpt lat="44.89587" lon="0.66846">
        <ele>125.9</ele>
        <time>2022-07-10T07:33:05Z</time>
      </trkpt>
      <trkpt lat="44.89586" lon="0.66853">
        <ele>126.1</ele>
        <time>2022-07-10T07:33:07Z</time>
      </trkpt>
      <trkpt lat="44.89585" lon="0.66857">
        <ele>126.2</ele>
        <time>2022-07-10T07:33:08Z</time>
      </trkpt>
      <trkpt lat="44.89585" lon="0.66861">
        <ele>126.3</ele>
        <time>2022-07-10T07:33:09Z</time>
      </trkpt>
      <trkpt lat="44.89583" lon="0.6687">
        <ele>126.5</ele>
        <time>2022-07-10T07:33:11Z</time>
      </trkpt>
      <trkpt lat="44.89583" lon="0.66874">
        <ele>126.7</ele>
        <time>2022-07-10T07:33:12Z</time>
      </trkpt>
      <trkpt lat="44.89582" lon="0.66879">
        <ele>126.8</ele>
        <time>2022-07-10T07:33:13Z</time>
      </trkpt>
      <trkpt lat="44.89581" lon="0.6689">
        <ele>127.1</ele>
        <time>2022-07-10T07:33:15Z</time>
      </trkpt>
      <trkpt lat="44.89578" lon="0.66902">
        <ele>127.3</ele>
        <time>2022-07-10T07:33:17Z</time>
      </trkpt>
      <trkpt lat="44.89575" lon="0.66913">
        <ele>127.5</ele>
        <time>2022-07-10T07:33:19Z</time>
      </trkpt>
      <trkpt lat="44.89573" lon="0.66923">
        <ele>127.7</ele>
        <time>2022-07-10T07:33:21Z</time>
      </trkpt>
      <trkpt lat="44.89571" lon="0.66928">
        <ele>127.7</ele>
        <time>2022-07-10T07:33:22Z</time>
      </trkpt>
      <trkpt lat="44.8957" lon="0.66933">
        <ele>127.8</ele>
        <time>2022-07-10T07:33:23Z</time>
      </trkpt>
      <trkpt lat="44.89567" lon="0.66946">
        <ele>127.8</ele>
        <time>2022-07-10T07:33:25Z</time>
      </trkpt>
      <trkpt lat="44.89566" lon="0.66952">
        <ele>127.8</ele>
        <time>2022-07-10T07:33:26Z</time>
      </trkpt>
      <trkpt lat="44.89564" lon="0.66957">
        <ele>127.8</ele>
        <time>2022-07-10T07:33:27Z</time>
      </trkpt>
      <trkpt lat="44.89561" lon="0.66968">
        <ele>127.8</ele>
        <time>2022-07-10T07:33:29Z</time>
      </trkpt>
      <trkpt lat="44.8956" lon="0.66974">
        <ele>127.7</ele>
        <time>2022-07-10T07:33:30Z</time>
      </trkpt>
      <trkpt lat="44.89558" lon="0.66981">
        <ele>127.7</ele>
        <time>2022-07-10T07:33:31Z</time>
      </trkpt>
      <trkpt lat="44.89557" lon="0.66987">
        <ele>127.6</ele>
        <time>2022-07-10T07:33:32Z</time>
      </trkpt>
      <trkpt lat="44.89555" lon="0.66994">
        <ele>127.6</ele>
        <time>2022-07-10T07:33:33Z</time>
      </trkpt>
      <trkpt lat="44.89552" lon="0.67008">
        <ele>127.4</ele>
        <time>2022-07-10T07:33:35Z</time>
      </trkpt>
      <trkpt lat="44.89548" lon="0.67023">
        <ele>127.2</ele>
        <time>2022-07-10T07:33:37Z</time>
      </trkpt>
      <trkpt lat="44.89544" lon="0.67039">
        <ele>127.1</ele>
        <time>2022-07-10T07:33:39Z</time>
      </trkpt>
      <trkpt lat="44.8954" lon="0.67054">
        <ele>126.9</ele>
        <time>2022-07-10T07:33:41Z</time>
      </trkpt>
      <trkpt lat="44.89539" lon="0.67061">
        <ele>126.9</ele>
        <time>2022-07-10T07:33:42Z</time>
      </trkpt>
      <trkpt lat="44.89537" lon="0.67067">
        <ele>126.8</ele>
        <time>2022-07-10T07:33:43Z</time>
      </trkpt>
      <trkpt lat="44.89534" lon="0.6708">
        <ele>126.8</ele>
        <time>2022-07-10T07:33:45Z</time>
      </trkpt>
      <trkpt lat="44.89531" lon="0.67093">
        <ele>126.7</ele>
        <time>2022-07-10T07:33:47Z</time>
      </trkpt>
      <trkpt lat="44.89528" lon="0.67104">
        <ele>126.6</ele>
        <time>2022-07-10T07:33:49Z</time>
      </trkpt>
      <trkpt lat="44.89525" lon="0.67116">
        <ele>126.6</ele>
        <time>2022-07-10T07:33:51Z</time>
      </trkpt>
      <trkpt lat="44.89524" lon="0.67121">
        <ele>126.5</ele>
        <time>2022-07-10T07:33:52Z</time>
      </trkpt>
      <trkpt lat="44.89523" lon="0.67126">
        <ele>126.5</ele>
        <time>2022-07-10T07:33:53Z</time>
      </trkpt>
      <trkpt lat="44.8952" lon="0.67136">
        <ele>126.4</ele>
        <time>2022-07-10T07:33:55Z</time>
      </trkpt>
      <trkpt lat="44.89518" lon="0.67147">
        <ele>126.4</ele>
        <time>2022-07-10T07:33:57Z</time>
      </trkpt>
      <trkpt lat="44.89515" lon="0.6716">
        <ele>126.3</ele>
        <time>2022-07-10T07:33:59Z</time>
      </trkpt>
      <trkpt lat="44.89513" lon="0.67166">
        <ele>126.3</ele>
        <time>2022-07-10T07:34:00Z</time>
      </trkpt>
      <trkpt lat="44.89512" lon="0.67172">
        <ele>126.3</ele>
        <time>2022-07-10T07:34:01Z</time>
      </trkpt>
      <trkpt lat="44.8951" lon="0.67182">
        <ele>126.3</ele>
        <time>2022-07-10T07:34:03Z</time>
      </trkpt>
      <trkpt lat="44.89507" lon="0.67194">
        <ele>126.3</ele>
        <time>2022-07-10T07:34:05Z</time>
      </trkpt>
      <trkpt lat="44.89504" lon="0.67207">
        <ele>126.4</ele>
        <time>2022-07-10T07:34:07Z</time>
      </trkpt>
      <trkpt lat="44.89501" lon="0.6722">
        <ele>126.4</ele>
        <time>2022-07-10T07:34:09Z</time>
      </trkpt>
      <trkpt lat="44.89499" lon="0.67232">
        <ele>126.5</ele>
        <time>2022-07-10T07:34:11Z</time>
      </trkpt>
      <trkpt lat="44.89497" lon="0.67239">
        <ele>126.5</ele>
        <time>2022-07-10T07:34:12Z</time>
      </trkpt>
      <trkpt lat="44.89496" lon="0.67245">
        <ele>126.5</ele>
        <time>2022-07-10T07:34:13Z</time>
      </trkpt>
      <trkpt lat="44.89493" lon="0.67256">
        <ele>126.6</ele>
        <time>2022-07-10T07:34:15Z</time>
      </trkpt>
      <trkpt lat="44.89491" lon="0.67269">
        <ele>126.6</ele>
        <time>2022-07-10T07:34:17Z</time>
      </trkpt>
      <trkpt lat="44.89488" lon="0.6728">
        <ele>126.7</ele>
        <time>2022-07-10T07:34:19Z</time>
      </trkpt>
      <trkpt lat="44.89487" lon="0.67286">
        <ele>126.8</ele>
        <time>2022-07-10T07:34:20Z</time>
      </trkpt>
      <trkpt lat="44.89485" lon="0.67292">
        <ele>126.8</ele>
        <time>2022-07-10T07:34:21Z</time>
      </trkpt>
      <trkpt lat="44.89483" lon="0.67303">
        <ele>126.9</ele>
        <time>2022-07-10T07:34:23Z</time>
      </trkpt>
      <trkpt lat="44.89481" lon="0.67309">
        <ele>127</ele>
        <time>2022-07-10T07:34:24Z</time>
      </trkpt>
      <trkpt lat="44.8948" lon="0.67315">
        <ele>127</ele>
        <time>2022-07-10T07:34:25Z</time>
      </trkpt>
      <trkpt lat="44.89478" lon="0.67324">
        <ele>127.1</ele>
        <time>2022-07-10T07:34:27Z</time>
      </trkpt>
      <trkpt lat="44.89475" lon="0.67335">
        <ele>127.2</ele>
        <time>2022-07-10T07:34:29Z</time>
      </trkpt>
      <trkpt lat="44.89472" lon="0.67346">
        <ele>127.4</ele>
        <time>2022-07-10T07:34:31Z</time>
      </trkpt>
      <trkpt lat="44.8947" lon="0.67356">
        <ele>127.5</ele>
        <time>2022-07-10T07:34:33Z</time>
      </trkpt>
      <trkpt lat="44.89467" lon="0.67361">
        <ele>127.5</ele>
        <time>2022-07-10T07:34:34Z</time>
      </trkpt>
      <trkpt lat="44.89464" lon="0.67364">
        <ele>127.5</ele>
        <time>2022-07-10T07:34:35Z</time>
      </trkpt>
      <trkpt lat="44.89456" lon="0.67371">
        <ele>127.6</ele>
        <time>2022-07-10T07:34:37Z</time>
      </trkpt>
      <trkpt lat="44.89452" lon="0.67375">
        <ele>127.7</ele>
        <time>2022-07-10T07:34:38Z</time>
      </trkpt>
      <trkpt lat="44.89448" lon="0.67378">
        <ele>127.7</ele>
        <time>2022-07-10T07:34:39Z</time>
      </trkpt>
      <trkpt lat="44.89442" lon="0.67383">
        <ele>127.7</ele>
        <time>2022-07-10T07:34:41Z</time>
      </trkpt>
      <trkpt lat="44.89439" lon="0.67386">
        <ele>127.7</ele>
        <time>2022-07-10T07:34:42Z</time>
      </trkpt>
      <trkpt lat="44.89436" lon="0.67389">
        <ele>127.7</ele>
        <time>2022-07-10T07:34:43Z</time>
      </trkpt>
      <trkpt lat="44.89428" lon="0.67396">
        <ele>127.7</ele>
        <time>2022-07-10T07:34:45Z</time>
      </trkpt>
      <trkpt lat="44.89432" lon="0.6741">
        <ele>127.5</ele>
        <time>2022-07-10T07:34:46Z</time>
      </trkpt>
      <trkpt lat="44.89433" lon="0.67416">
        <ele>127.3</ele>
        <time>2022-07-10T07:34:47Z</time>
      </trkpt>
      <trkpt lat="44.89433" lon="0.67423">
        <ele>127.2</ele>
        <time>2022-07-10T07:34:48Z</time>
      </trkpt>
      <trkpt lat="44.89434" lon="0.67429">
        <ele>127</ele>
        <time>2022-07-10T07:34:49Z</time>
      </trkpt>
      <trkpt lat="44.89435" lon="0.67436">
        <ele>126.8</ele>
        <time>2022-07-10T07:34:50Z</time>
      </trkpt>
      <trkpt lat="44.89436" lon="0.67443">
        <ele>126.7</ele>
        <time>2022-07-10T07:34:51Z</time>
      </trkpt>
      <trkpt lat="44.89437" lon="0.6745">
        <ele>126.4</ele>
        <time>2022-07-10T07:34:52Z</time>
      </trkpt>
      <trkpt lat="44.89438" lon="0.67458">
        <ele>126.2</ele>
        <time>2022-07-10T07:34:53Z</time>
      </trkpt>
      <trkpt lat="44.89439" lon="0.67466">
        <ele>126</ele>
        <time>2022-07-10T07:34:54Z</time>
      </trkpt>
      <trkpt lat="44.8944" lon="0.67474">
        <ele>125.8</ele>
        <time>2022-07-10T07:34:55Z</time>
      </trkpt>
      <trkpt lat="44.89441" lon="0.67482">
        <ele>125.5</ele>
        <time>2022-07-10T07:34:56Z</time>
      </trkpt>
      <trkpt lat="44.89442" lon="0.6749">
        <ele>125.3</ele>
        <time>2022-07-10T07:34:57Z</time>
      </trkpt>
      <trkpt lat="44.89444" lon="0.67506">
        <ele>124.7</ele>
        <time>2022-07-10T07:34:59Z</time>
      </trkpt>
      <trkpt lat="44.89446" lon="0.67523">
        <ele>124.1</ele>
        <time>2022-07-10T07:35:01Z</time>
      </trkpt>
      <trkpt lat="44.89447" lon="0.67532">
        <ele>123.8</ele>
        <time>2022-07-10T07:35:02Z</time>
      </trkpt>
      <trkpt lat="44.89448" lon="0.6754">
        <ele>123.5</ele>
        <time>2022-07-10T07:35:03Z</time>
      </trkpt>
      <trkpt lat="44.89449" lon="0.67549">
        <ele>123.2</ele>
        <time>2022-07-10T07:35:04Z</time>
      </trkpt>
      <trkpt lat="44.8945" lon="0.67558">
        <ele>122.9</ele>
        <time>2022-07-10T07:35:05Z</time>
      </trkpt>
      <trkpt lat="44.89452" lon="0.67574">
        <ele>122.4</ele>
        <time>2022-07-10T07:35:07Z</time>
      </trkpt>
      <trkpt lat="44.89454" lon="0.6759">
        <ele>121.9</ele>
        <time>2022-07-10T07:35:09Z</time>
      </trkpt>
      <trkpt lat="44.89455" lon="0.67594">
        <ele>121.7</ele>
        <time>2022-07-10T07:35:10Z</time>
      </trkpt>
      <trkpt lat="44.89458" lon="0.67601">
        <ele>121.4</ele>
        <time>2022-07-10T07:35:11Z</time>
      </trkpt>
      <trkpt lat="44.89461" lon="0.67609">
        <ele>121.1</ele>
        <time>2022-07-10T07:35:12Z</time>
      </trkpt>
      <trkpt lat="44.89465" lon="0.67617">
        <ele>120.8</ele>
        <time>2022-07-10T07:35:13Z</time>
      </trkpt>
      <trkpt lat="44.89472" lon="0.67633">
        <ele>120.4</ele>
        <time>2022-07-10T07:35:15Z</time>
      </trkpt>
      <trkpt lat="44.89475" lon="0.67641">
        <ele>120.2</ele>
        <time>2022-07-10T07:35:16Z</time>
      </trkpt>
      <trkpt lat="44.89478" lon="0.67648">
        <ele>120.1</ele>
        <time>2022-07-10T07:35:17Z</time>
      </trkpt>
      <trkpt lat="44.89483" lon="0.67661">
        <ele>119.8</ele>
        <time>2022-07-10T07:35:19Z</time>
      </trkpt>
      <trkpt lat="44.89488" lon="0.67672">
        <ele>119.4</ele>
        <time>2022-07-10T07:35:21Z</time>
      </trkpt>
      <trkpt lat="44.89493" lon="0.67684">
        <ele>118.9</ele>
        <time>2022-07-10T07:35:23Z</time>
      </trkpt>
      <trkpt lat="44.89496" lon="0.67691">
        <ele>118.6</ele>
        <time>2022-07-10T07:35:24Z</time>
      </trkpt>
      <trkpt lat="44.89499" lon="0.67699">
        <ele>118.2</ele>
        <time>2022-07-10T07:35:25Z</time>
      </trkpt>
      <trkpt lat="44.89502" lon="0.67707">
        <ele>117.7</ele>
        <time>2022-07-10T07:35:26Z</time>
      </trkpt>
      <trkpt lat="44.89505" lon="0.67715">
        <ele>117.3</ele>
        <time>2022-07-10T07:35:27Z</time>
      </trkpt>
      <trkpt lat="44.89512" lon="0.67732">
        <ele>116.6</ele>
        <time>2022-07-10T07:35:29Z</time>
      </trkpt>
      <trkpt lat="44.89519" lon="0.67748">
        <ele>116.2</ele>
        <time>2022-07-10T07:35:31Z</time>
      </trkpt>
      <trkpt lat="44.89522" lon="0.67756">
        <ele>116</ele>
        <time>2022-07-10T07:35:32Z</time>
      </trkpt>
      <trkpt lat="44.89525" lon="0.67763">
        <ele>115.9</ele>
        <time>2022-07-10T07:35:33Z</time>
      </trkpt>
      <trkpt lat="44.89528" lon="0.67771">
        <ele>115.9</ele>
        <time>2022-07-10T07:35:34Z</time>
      </trkpt>
      <trkpt lat="44.89531" lon="0.67779">
        <ele>115.9</ele>
        <time>2022-07-10T07:35:35Z</time>
      </trkpt>
      <trkpt lat="44.89537" lon="0.67793">
        <ele>116</ele>
        <time>2022-07-10T07:35:37Z</time>
      </trkpt>
      <trkpt lat="44.89541" lon="0.67804">
        <ele>116.3</ele>
        <time>2022-07-10T07:35:39Z</time>
      </trkpt>
      <trkpt lat="44.89545" lon="0.67813">
        <ele>116.6</ele>
        <time>2022-07-10T07:35:41Z</time>
      </trkpt>
      <trkpt lat="44.89549" lon="0.67823">
        <ele>117.1</ele>
        <time>2022-07-10T07:35:43Z</time>
      </trkpt>
      <trkpt lat="44.89552" lon="0.67832">
        <ele>117.5</ele>
        <time>2022-07-10T07:35:45Z</time>
      </trkpt>
      <trkpt lat="44.89556" lon="0.6784">
        <ele>117.9</ele>
        <time>2022-07-10T07:35:47Z</time>
      </trkpt>
      <trkpt lat="44.89558" lon="0.67844">
        <ele>118.1</ele>
        <time>2022-07-10T07:35:48Z</time>
      </trkpt>
      <trkpt lat="44.8956" lon="0.67849">
        <ele>118.3</ele>
        <time>2022-07-10T07:35:49Z</time>
      </trkpt>
      <trkpt lat="44.89563" lon="0.67858">
        <ele>118.6</ele>
        <time>2022-07-10T07:35:51Z</time>
      </trkpt>
      <trkpt lat="44.89565" lon="0.67863">
        <ele>118.8</ele>
        <time>2022-07-10T07:35:52Z</time>
      </trkpt>
      <trkpt lat="44.89567" lon="0.67868">
        <ele>118.9</ele>
        <time>2022-07-10T07:35:53Z</time>
      </trkpt>
      <trkpt lat="44.89571" lon="0.67878">
        <ele>119.3</ele>
        <time>2022-07-10T07:35:55Z</time>
      </trkpt>
      <trkpt lat="44.89578" lon="0.67888">
        <ele>119.5</ele>
        <time>2022-07-10T07:35:57Z</time>
      </trkpt>
      <trkpt lat="44.89582" lon="0.67894">
        <ele>119.6</ele>
        <time>2022-07-10T07:35:58Z</time>
      </trkpt>
      <trkpt lat="44.89586" lon="0.67899">
        <ele>119.6</ele>
        <time>2022-07-10T07:35:59Z</time>
      </trkpt>
      <trkpt lat="44.89594" lon="0.67911">
        <ele>119.2</ele>
        <time>2022-07-10T07:36:01Z</time>
      </trkpt>
      <trkpt lat="44.89599" lon="0.67917">
        <ele>118.9</ele>
        <time>2022-07-10T07:36:02Z</time>
      </trkpt>
      <trkpt lat="44.89603" lon="0.67924">
        <ele>118.6</ele>
        <time>2022-07-10T07:36:03Z</time>
      </trkpt>
      <trkpt lat="44.89608" lon="0.6793">
        <ele>118.2</ele>
        <time>2022-07-10T07:36:04Z</time>
      </trkpt>
      <trkpt lat="44.89613" lon="0.67938">
        <ele>117.7</ele>
        <time>2022-07-10T07:36:05Z</time>
      </trkpt>
      <trkpt lat="44.89616" lon="0.67948">
        <ele>117.1</ele>
        <time>2022-07-10T07:36:06Z</time>
      </trkpt>
      <trkpt lat="44.89617" lon="0.67959">
        <ele>116.4</ele>
        <time>2022-07-10T07:36:07Z</time>
      </trkpt>
      <trkpt lat="44.89619" lon="0.67982">
        <ele>114.5</ele>
        <time>2022-07-10T07:36:09Z</time>
      </trkpt>
      <trkpt lat="44.89622" lon="0.68007">
        <ele>112.6</ele>
        <time>2022-07-10T07:36:11Z</time>
      </trkpt>
      <trkpt lat="44.89625" lon="0.68034">
        <ele>111.2</ele>
        <time>2022-07-10T07:36:13Z</time>
      </trkpt>
      <trkpt lat="44.89633" lon="0.68059">
        <ele>110.7</ele>
        <time>2022-07-10T07:36:15Z</time>
      </trkpt>
      <trkpt lat="44.89632" lon="0.68068">
        <ele>110.6</ele>
        <time>2022-07-10T07:36:16Z</time>
      </trkpt>
      <trkpt lat="44.89631" lon="0.68074">
        <ele>110.5</ele>
        <time>2022-07-10T07:36:17Z</time>
      </trkpt>
      <trkpt lat="44.89622" lon="0.68081">
        <ele>110.7</ele>
        <time>2022-07-10T07:36:18Z</time>
      </trkpt>
      <trkpt lat="44.8962" lon="0.68081">
        <ele>110.8</ele>
        <time>2022-07-10T07:36:19Z</time>
      </trkpt>
      <trkpt lat="44.89616" lon="0.68079">
        <ele>111.1</ele>
        <time>2022-07-10T07:36:21Z</time>
      </trkpt>
      <trkpt lat="44.89612" lon="0.68078">
        <ele>111.3</ele>
        <time>2022-07-10T07:36:23Z</time>
      </trkpt>
      <trkpt lat="44.8961" lon="0.68078">
        <ele>111.5</ele>
        <time>2022-07-10T07:36:24Z</time>
      </trkpt>
      <trkpt lat="44.89608" lon="0.68077">
        <ele>111.6</ele>
        <time>2022-07-10T07:36:25Z</time>
      </trkpt>
      <trkpt lat="44.89607" lon="0.68077">
        <ele>111.7</ele>
        <time>2022-07-10T07:36:27Z</time>
      </trkpt>
      <trkpt lat="44.89603" lon="0.68076">
        <ele>112</ele>
        <time>2022-07-10T07:36:29Z</time>
      </trkpt>
      <trkpt lat="44.89602" lon="0.68075">
        <ele>112.1</ele>
        <time>2022-07-10T07:36:31Z</time>
      </trkpt>
      <trkpt lat="44.89599" lon="0.68075">
        <ele>112.4</ele>
        <time>2022-07-10T07:36:33Z</time>
      </trkpt>
      <trkpt lat="44.89597" lon="0.68074">
        <ele>112.5</ele>
        <time>2022-07-10T07:36:34Z</time>
      </trkpt>
      <trkpt lat="44.89595" lon="0.68074">
        <ele>112.8</ele>
        <time>2022-07-10T07:36:35Z</time>
      </trkpt>
      <trkpt lat="44.8959" lon="0.68072">
        <ele>113.4</ele>
        <time>2022-07-10T07:36:37Z</time>
      </trkpt>
      <trkpt lat="44.8959" lon="0.68072">
        <ele>113.4</ele>
        <time>2022-07-10T07:36:38Z</time>
      </trkpt>
      <trkpt lat="44.89588" lon="0.68072">
        <ele>113.6</ele>
        <time>2022-07-10T07:36:39Z</time>
      </trkpt>
      <trkpt lat="44.89586" lon="0.68071">
        <ele>113.9</ele>
        <time>2022-07-10T07:36:40Z</time>
      </trkpt>
      <trkpt lat="44.89583" lon="0.6807">
        <ele>114.3</ele>
        <time>2022-07-10T07:36:41Z</time>
      </trkpt>
      <trkpt lat="44.89578" lon="0.68069">
        <ele>115</ele>
        <time>2022-07-10T07:36:42Z</time>
      </trkpt>
      <trkpt lat="44.89574" lon="0.68068">
        <ele>115.5</ele>
        <time>2022-07-10T07:36:43Z</time>
      </trkpt>
      <trkpt lat="44.8957" lon="0.68067">
        <ele>116.1</ele>
        <time>2022-07-10T07:36:45Z</time>
      </trkpt>
      <trkpt lat="44.89568" lon="0.68066">
        <ele>116.4</ele>
        <time>2022-07-10T07:36:46Z</time>
      </trkpt>
      <trkpt lat="44.89565" lon="0.68065">
        <ele>116.8</ele>
        <time>2022-07-10T07:36:47Z</time>
      </trkpt>
      <trkpt lat="44.89562" lon="0.68065">
        <ele>117.1</ele>
        <time>2022-07-10T07:36:49Z</time>
      </trkpt>
      <trkpt lat="44.89553" lon="0.68062">
        <ele>118.2</ele>
        <time>2022-07-10T07:36:51Z</time>
      </trkpt>
      <trkpt lat="44.89551" lon="0.68062">
        <ele>118.5</ele>
        <time>2022-07-10T07:36:52Z</time>
      </trkpt>
      <trkpt lat="44.8955" lon="0.68061">
        <ele>118.7</ele>
        <time>2022-07-10T07:36:53Z</time>
      </trkpt>
      <trkpt lat="44.89547" lon="0.68061">
        <ele>118.9</ele>
        <time>2022-07-10T07:36:55Z</time>
      </trkpt>
      <trkpt lat="44.89547" lon="0.68061">
        <ele>118.9</ele>
        <time>2022-07-10T07:36:56Z</time>
      </trkpt>
      <trkpt lat="44.89536" lon="0.6806">
        <ele>120.2</ele>
        <time>2022-07-10T07:37:00Z</time>
      </trkpt>
      <trkpt lat="44.89534" lon="0.6806">
        <ele>120.4</ele>
        <time>2022-07-10T07:37:01Z</time>
      </trkpt>
      <trkpt lat="44.8953" lon="0.68061">
        <ele>120.9</ele>
        <time>2022-07-10T07:37:03Z</time>
      </trkpt>
      <trkpt lat="44.89528" lon="0.68061">
        <ele>121.1</ele>
        <time>2022-07-10T07:37:04Z</time>
      </trkpt>
      <trkpt lat="44.89526" lon="0.68061">
        <ele>121.3</ele>
        <time>2022-07-10T07:37:05Z</time>
      </trkpt>
      <trkpt lat="44.89523" lon="0.68061">
        <ele>121.7</ele>
        <time>2022-07-10T07:37:07Z</time>
      </trkpt>
      <trkpt lat="44.89519" lon="0.68061">
        <ele>122.2</ele>
        <time>2022-07-10T07:37:09Z</time>
      </trkpt>
      <trkpt lat="44.89515" lon="0.68061">
        <ele>122.6</ele>
        <time>2022-07-10T07:37:11Z</time>
      </trkpt>
      <trkpt lat="44.89513" lon="0.68061">
        <ele>122.9</ele>
        <time>2022-07-10T07:37:13Z</time>
      </trkpt>
      <trkpt lat="44.89508" lon="0.68059">
        <ele>123.5</ele>
        <time>2022-07-10T07:37:15Z</time>
      </trkpt>
      <trkpt lat="44.89506" lon="0.68059">
        <ele>123.8</ele>
        <time>2022-07-10T07:37:16Z</time>
      </trkpt>
      <trkpt lat="44.89504" lon="0.68058">
        <ele>124</ele>
        <time>2022-07-10T07:37:17Z</time>
      </trkpt>
      <trkpt lat="44.895" lon="0.68057">
        <ele>124.5</ele>
        <time>2022-07-10T07:37:19Z</time>
      </trkpt>
      <trkpt lat="44.89496" lon="0.68058">
        <ele>124.9</ele>
        <time>2022-07-10T07:37:21Z</time>
      </trkpt>
      <trkpt lat="44.89494" lon="0.6806">
        <ele>125.1</ele>
        <time>2022-07-10T07:37:23Z</time>
      </trkpt>
      <trkpt lat="44.89493" lon="0.68061">
        <ele>125.3</ele>
        <time>2022-07-10T07:37:25Z</time>
      </trkpt>
      <trkpt lat="44.89491" lon="0.68063">
        <ele>125.5</ele>
        <time>2022-07-10T07:37:26Z</time>
      </trkpt>
      <trkpt lat="44.8949" lon="0.68064">
        <ele>125.8</ele>
        <time>2022-07-10T07:37:30Z</time>
      </trkpt>
      <trkpt lat="44.89489" lon="0.68066">
        <ele>126</ele>
        <time>2022-07-10T07:37:31Z</time>
      </trkpt>
      <trkpt lat="44.89487" lon="0.68067">
        <ele>126.2</ele>
        <time>2022-07-10T07:37:33Z</time>
      </trkpt>
      <trkpt lat="44.89486" lon="0.68069">
        <ele>126.4</ele>
        <time>2022-07-10T07:37:34Z</time>
      </trkpt>
      <trkpt lat="44.89486" lon="0.68071">
        <ele>126.5</ele>
        <time>2022-07-10T07:37:35Z</time>
      </trkpt>
      <trkpt lat="44.89483" lon="0.68075">
        <ele>126.9</ele>
        <time>2022-07-10T07:37:37Z</time>
      </trkpt>
      <trkpt lat="44.8948" lon="0.6808">
        <ele>127.3</ele>
        <time>2022-07-10T07:37:39Z</time>
      </trkpt>
      <trkpt lat="44.89476" lon="0.68083">
        <ele>127.5</ele>
        <time>2022-07-10T07:37:41Z</time>
      </trkpt>
      <trkpt lat="44.89474" lon="0.68085">
        <ele>127.7</ele>
        <time>2022-07-10T07:37:42Z</time>
      </trkpt>
      <trkpt lat="44.89466" lon="0.68079">
        <ele>128.4</ele>
        <time>2022-07-10T07:37:43Z</time>
      </trkpt>
      <trkpt lat="44.89465" lon="0.68081">
        <ele>128.5</ele>
        <time>2022-07-10T07:37:44Z</time>
      </trkpt>
      <trkpt lat="44.89463" lon="0.68083">
        <ele>128.7</ele>
        <time>2022-07-10T07:37:45Z</time>
      </trkpt>
      <trkpt lat="44.89463" lon="0.68083">
        <ele>128.7</ele>
        <time>2022-07-10T07:37:47Z</time>
      </trkpt>
      <trkpt lat="44.89451" lon="0.68085">
        <ele>129.6</ele>
        <time>2022-07-10T07:37:58Z</time>
      </trkpt>
      <trkpt lat="44.89448" lon="0.68094">
        <ele>130.1</ele>
        <time>2022-07-10T07:37:59Z</time>
      </trkpt>
      <trkpt lat="44.89445" lon="0.68093">
        <ele>130.3</ele>
        <time>2022-07-10T07:38:00Z</time>
      </trkpt>
      <trkpt lat="44.89445" lon="0.68085">
        <ele>130.7</ele>
        <time>2022-07-10T07:38:01Z</time>
      </trkpt>
      <trkpt lat="44.89443" lon="0.68084">
        <ele>130.9</ele>
        <time>2022-07-10T07:38:03Z</time>
      </trkpt>
      <trkpt lat="44.8944" lon="0.68083">
        <ele>131</ele>
        <time>2022-07-10T07:38:05Z</time>
      </trkpt>
      <trkpt lat="44.89438" lon="0.68082">
        <ele>131.2</ele>
        <time>2022-07-10T07:38:06Z</time>
      </trkpt>
      <trkpt lat="44.89436" lon="0.68081">
        <ele>131.3</ele>
        <time>2022-07-10T07:38:07Z</time>
      </trkpt>
      <trkpt lat="44.8943" lon="0.68086">
        <ele>131.6</ele>
        <time>2022-07-10T07:38:09Z</time>
      </trkpt>
      <trkpt lat="44.8943" lon="0.68079">
        <ele>131.8</ele>
        <time>2022-07-10T07:38:11Z</time>
      </trkpt>
      <trkpt lat="44.89427" lon="0.68076">
        <ele>131.9</ele>
        <time>2022-07-10T07:38:13Z</time>
      </trkpt>
      <trkpt lat="44.8942" lon="0.68069">
        <ele>132.2</ele>
        <time>2022-07-10T07:38:15Z</time>
      </trkpt>
      <trkpt lat="44.89416" lon="0.68065">
        <ele>132.4</ele>
        <time>2022-07-10T07:38:17Z</time>
      </trkpt>
      <trkpt lat="44.89413" lon="0.68062">
        <ele>132.5</ele>
        <time>2022-07-10T07:38:18Z</time>
      </trkpt>
      <trkpt lat="44.8941" lon="0.68059">
        <ele>132.5</ele>
        <time>2022-07-10T07:38:19Z</time>
      </trkpt>
      <trkpt lat="44.89404" lon="0.68054">
        <ele>132.5</ele>
        <time>2022-07-10T07:38:21Z</time>
      </trkpt>
      <trkpt lat="44.89401" lon="0.68052">
        <ele>132.5</ele>
        <time>2022-07-10T07:38:22Z</time>
      </trkpt>
      <trkpt lat="44.89398" lon="0.68049">
        <ele>132.5</ele>
        <time>2022-07-10T07:38:23Z</time>
      </trkpt>
      <trkpt lat="44.89391" lon="0.68045">
        <ele>132.4</ele>
        <time>2022-07-10T07:38:25Z</time>
      </trkpt>
      <trkpt lat="44.89388" lon="0.68043">
        <ele>132.4</ele>
        <time>2022-07-10T07:38:26Z</time>
      </trkpt>
      <trkpt lat="44.89385" lon="0.68041">
        <ele>132.3</ele>
        <time>2022-07-10T07:38:27Z</time>
      </trkpt>
      <trkpt lat="44.8938" lon="0.68038">
        <ele>132.3</ele>
        <time>2022-07-10T07:38:29Z</time>
      </trkpt>
      <trkpt lat="44.89373" lon="0.68035">
        <ele>132.3</ele>
        <time>2022-07-10T07:38:31Z</time>
      </trkpt>
      <trkpt lat="44.89368" lon="0.68033">
        <ele>132.3</ele>
        <time>2022-07-10T07:38:33Z</time>
      </trkpt>
      <trkpt lat="44.89361" lon="0.68033">
        <ele>132.3</ele>
        <time>2022-07-10T07:38:35Z</time>
      </trkpt>
      <trkpt lat="44.89354" lon="0.68037">
        <ele>132.4</ele>
        <time>2022-07-10T07:38:37Z</time>
      </trkpt>
      <trkpt lat="44.89349" lon="0.6804">
        <ele>132.5</ele>
        <time>2022-07-10T07:38:39Z</time>
      </trkpt>
      <trkpt lat="44.89344" lon="0.68042">
        <ele>132.6</ele>
        <time>2022-07-10T07:38:41Z</time>
      </trkpt>
      <trkpt lat="44.89338" lon="0.68048">
        <ele>132.8</ele>
        <time>2022-07-10T07:38:43Z</time>
      </trkpt>
      <trkpt lat="44.89334" lon="0.68057">
        <ele>133</ele>
        <time>2022-07-10T07:38:45Z</time>
      </trkpt>
      <trkpt lat="44.8933" lon="0.68067">
        <ele>133.1</ele>
        <time>2022-07-10T07:38:47Z</time>
      </trkpt>
      <trkpt lat="44.89327" lon="0.68075">
        <ele>133.2</ele>
        <time>2022-07-10T07:38:49Z</time>
      </trkpt>
      <trkpt lat="44.89324" lon="0.68082">
        <ele>133.3</ele>
        <time>2022-07-10T07:38:51Z</time>
      </trkpt>
      <trkpt lat="44.8932" lon="0.6809">
        <ele>133.4</ele>
        <time>2022-07-10T07:38:53Z</time>
      </trkpt>
      <trkpt lat="44.89311" lon="0.68086">
        <ele>133.4</ele>
        <time>2022-07-10T07:38:54Z</time>
      </trkpt>
      <trkpt lat="44.89301" lon="0.68081">
        <ele>133.2</ele>
        <time>2022-07-10T07:38:55Z</time>
      </trkpt>
      <trkpt lat="44.89291" lon="0.68084">
        <ele>132.8</ele>
        <time>2022-07-10T07:38:57Z</time>
      </trkpt>
      <trkpt lat="44.89282" lon="0.68085">
        <ele>132.3</ele>
        <time>2022-07-10T07:38:59Z</time>
      </trkpt>
      <trkpt lat="44.89273" lon="0.68085">
        <ele>132.4</ele>
        <time>2022-07-10T07:39:01Z</time>
      </trkpt>
      <trkpt lat="44.89265" lon="0.68087">
        <ele>131.9</ele>
        <time>2022-07-10T07:39:03Z</time>
      </trkpt>
      <trkpt lat="44.8926" lon="0.68087">
        <ele>131.5</ele>
        <time>2022-07-10T07:39:04Z</time>
      </trkpt>
      <trkpt lat="44.89257" lon="0.68087">
        <ele>131.6</ele>
        <time>2022-07-10T07:39:05Z</time>
      </trkpt>
      <trkpt lat="44.89249" lon="0.68087">
        <ele>131.6</ele>
        <time>2022-07-10T07:39:07Z</time>
      </trkpt>
      <trkpt lat="44.89242" lon="0.68087">
        <ele>131.5</ele>
        <time>2022-07-10T07:39:09Z</time>
      </trkpt>
      <trkpt lat="44.89236" lon="0.68087">
        <ele>131.7</ele>
        <time>2022-07-10T07:39:11Z</time>
      </trkpt>
      <trkpt lat="44.8923" lon="0.68087">
        <ele>131.7</ele>
        <time>2022-07-10T07:39:12Z</time>
      </trkpt>
      <trkpt lat="44.89228" lon="0.68088">
        <ele>131.8</ele>
        <time>2022-07-10T07:39:13Z</time>
      </trkpt>
      <trkpt lat="44.89221" lon="0.68088">
        <ele>132.2</ele>
        <time>2022-07-10T07:39:15Z</time>
      </trkpt>
      <trkpt lat="44.89213" lon="0.68088">
        <ele>132.2</ele>
        <time>2022-07-10T07:39:17Z</time>
      </trkpt>
      <trkpt lat="44.89205" lon="0.68087">
        <ele>132.6</ele>
        <time>2022-07-10T07:39:19Z</time>
      </trkpt>
      <trkpt lat="44.89197" lon="0.68089">
        <ele>133</ele>
        <time>2022-07-10T07:39:21Z</time>
      </trkpt>
      <trkpt lat="44.89189" lon="0.6809">
        <ele>133</ele>
        <time>2022-07-10T07:39:23Z</time>
      </trkpt>
      <trkpt lat="44.89185" lon="0.68091">
        <ele>133.5</ele>
        <time>2022-07-10T07:39:24Z</time>
      </trkpt>
      <trkpt lat="44.8918" lon="0.68092">
        <ele>133.5</ele>
        <time>2022-07-10T07:39:25Z</time>
      </trkpt>
      <trkpt lat="44.89171" lon="0.68093">
        <ele>134.3</ele>
        <time>2022-07-10T07:39:27Z</time>
      </trkpt>
      <trkpt lat="44.89168" lon="0.68095">
        <ele>134.3</ele>
        <time>2022-07-10T07:39:28Z</time>
      </trkpt>
      <trkpt lat="44.89164" lon="0.68096">
        <ele>134.3</ele>
        <time>2022-07-10T07:39:29Z</time>
      </trkpt>
      <trkpt lat="44.89155" lon="0.68097">
        <ele>135.3</ele>
        <time>2022-07-10T07:39:31Z</time>
      </trkpt>
      <trkpt lat="44.89145" lon="0.68096">
        <ele>136.1</ele>
        <time>2022-07-10T07:39:33Z</time>
      </trkpt>
      <trkpt lat="44.89135" lon="0.68094">
        <ele>136.8</ele>
        <time>2022-07-10T07:39:35Z</time>
      </trkpt>
      <trkpt lat="44.89133" lon="0.68093">
        <ele>136.8</ele>
        <time>2022-07-10T07:39:36Z</time>
      </trkpt>
      <trkpt lat="44.8913" lon="0.68093">
        <ele>136.9</ele>
        <time>2022-07-10T07:39:37Z</time>
      </trkpt>
      <trkpt lat="44.89123" lon="0.68093">
        <ele>137.4</ele>
        <time>2022-07-10T07:39:39Z</time>
      </trkpt>
      <trkpt lat="44.8912" lon="0.68095">
        <ele>137.5</ele>
        <time>2022-07-10T07:39:40Z</time>
      </trkpt>
      <trkpt lat="44.89117" lon="0.68097">
        <ele>137.5</ele>
        <time>2022-07-10T07:39:41Z</time>
      </trkpt>
      <trkpt lat="44.89108" lon="0.681">
        <ele>137</ele>
        <time>2022-07-10T07:39:43Z</time>
      </trkpt>
      <trkpt lat="44.89103" lon="0.68102">
        <ele>137</ele>
        <time>2022-07-10T07:39:44Z</time>
      </trkpt>
      <trkpt lat="44.89099" lon="0.68103">
        <ele>137.4</ele>
        <time>2022-07-10T07:39:45Z</time>
      </trkpt>
      <trkpt lat="44.89091" lon="0.68104">
        <ele>137.5</ele>
        <time>2022-07-10T07:39:47Z</time>
      </trkpt>
      <trkpt lat="44.89087" lon="0.68105">
        <ele>137.9</ele>
        <time>2022-07-10T07:39:48Z</time>
      </trkpt>
      <trkpt lat="44.89084" lon="0.68105">
        <ele>138</ele>
        <time>2022-07-10T07:39:49Z</time>
      </trkpt>
      <trkpt lat="44.89076" lon="0.68105">
        <ele>138.5</ele>
        <time>2022-07-10T07:39:51Z</time>
      </trkpt>
      <trkpt lat="44.89072" lon="0.68105">
        <ele>138.5</ele>
        <time>2022-07-10T07:39:52Z</time>
      </trkpt>
      <trkpt lat="44.89069" lon="0.68105">
        <ele>138.6</ele>
        <time>2022-07-10T07:39:53Z</time>
      </trkpt>
      <trkpt lat="44.8906" lon="0.68103">
        <ele>139</ele>
        <time>2022-07-10T07:39:55Z</time>
      </trkpt>
      <trkpt lat="44.89056" lon="0.68102">
        <ele>139</ele>
        <time>2022-07-10T07:39:56Z</time>
      </trkpt>
      <trkpt lat="44.89054" lon="0.68102">
        <ele>139.1</ele>
        <time>2022-07-10T07:39:57Z</time>
      </trkpt>
      <trkpt lat="44.89051" lon="0.68101">
        <ele>139.6</ele>
        <time>2022-07-10T07:39:58Z</time>
      </trkpt>
      <trkpt lat="44.89048" lon="0.68102">
        <ele>139.6</ele>
        <time>2022-07-10T07:39:59Z</time>
      </trkpt>
      <trkpt lat="44.89042" lon="0.68103">
        <ele>140.1</ele>
        <time>2022-07-10T07:40:01Z</time>
      </trkpt>
      <trkpt lat="44.89035" lon="0.68104">
        <ele>140.1</ele>
        <time>2022-07-10T07:40:03Z</time>
      </trkpt>
      <trkpt lat="44.89032" lon="0.68103">
        <ele>140.2</ele>
        <time>2022-07-10T07:40:04Z</time>
      </trkpt>
      <trkpt lat="44.8903" lon="0.68105">
        <ele>140.7</ele>
        <time>2022-07-10T07:40:05Z</time>
      </trkpt>
      <trkpt lat="44.89021" lon="0.68105">
        <ele>140.8</ele>
        <time>2022-07-10T07:40:07Z</time>
      </trkpt>
      <trkpt lat="44.89013" lon="0.68105">
        <ele>141.3</ele>
        <time>2022-07-10T07:40:09Z</time>
      </trkpt>
      <trkpt lat="44.89007" lon="0.68105">
        <ele>141.3</ele>
        <time>2022-07-10T07:40:11Z</time>
      </trkpt>
      <trkpt lat="44.89" lon="0.68104">
        <ele>141.7</ele>
        <time>2022-07-10T07:40:13Z</time>
      </trkpt>
      <trkpt lat="44.88993" lon="0.68104">
        <ele>141.7</ele>
        <time>2022-07-10T07:40:15Z</time>
      </trkpt>
      <trkpt lat="44.88986" lon="0.68104">
        <ele>141.9</ele>
        <time>2022-07-10T07:40:17Z</time>
      </trkpt>
      <trkpt lat="44.88982" lon="0.68104">
        <ele>141.9</ele>
        <time>2022-07-10T07:40:18Z</time>
      </trkpt>
      <trkpt lat="44.88978" lon="0.68105">
        <ele>142</ele>
        <time>2022-07-10T07:40:19Z</time>
      </trkpt>
      <trkpt lat="44.8897" lon="0.68104">
        <ele>142.1</ele>
        <time>2022-07-10T07:40:21Z</time>
      </trkpt>
      <trkpt lat="44.88965" lon="0.68102">
        <ele>142.1</ele>
        <time>2022-07-10T07:40:22Z</time>
      </trkpt>
      <trkpt lat="44.88961" lon="0.681">
        <ele>142.1</ele>
        <time>2022-07-10T07:40:23Z</time>
      </trkpt>
      <trkpt lat="44.88955" lon="0.68099">
        <ele>142</ele>
        <time>2022-07-10T07:40:25Z</time>
      </trkpt>
      <trkpt lat="44.88951" lon="0.68097">
        <ele>142.3</ele>
        <time>2022-07-10T07:40:26Z</time>
      </trkpt>
      <trkpt lat="44.88949" lon="0.68095">
        <ele>142.3</ele>
        <time>2022-07-10T07:40:27Z</time>
      </trkpt>
      <trkpt lat="44.88942" lon="0.6809">
        <ele>142.1</ele>
        <time>2022-07-10T07:40:29Z</time>
      </trkpt>
      <trkpt lat="44.88938" lon="0.68089">
        <ele>142.1</ele>
        <time>2022-07-10T07:40:30Z</time>
      </trkpt>
      <trkpt lat="44.88935" lon="0.68088">
        <ele>142.1</ele>
        <time>2022-07-10T07:40:31Z</time>
      </trkpt>
      <trkpt lat="44.88927" lon="0.68085">
        <ele>141.8</ele>
        <time>2022-07-10T07:40:33Z</time>
      </trkpt>
      <trkpt lat="44.88921" lon="0.68081">
        <ele>141.7</ele>
        <time>2022-07-10T07:40:35Z</time>
      </trkpt>
      <trkpt lat="44.88915" lon="0.68077">
        <ele>141.4</ele>
        <time>2022-07-10T07:40:37Z</time>
      </trkpt>
      <trkpt lat="44.88909" lon="0.68073">
        <ele>141.4</ele>
        <time>2022-07-10T07:40:39Z</time>
      </trkpt>
      <trkpt lat="44.88906" lon="0.6807">
        <ele>141.3</ele>
        <time>2022-07-10T07:40:40Z</time>
      </trkpt>
      <trkpt lat="44.889" lon="0.68067">
        <ele>141.3</ele>
        <time>2022-07-10T07:40:41Z</time>
      </trkpt>
      <trkpt lat="44.88897" lon="0.68061">
        <ele>141.1</ele>
        <time>2022-07-10T07:40:43Z</time>
      </trkpt>
      <trkpt lat="44.88894" lon="0.68055">
        <ele>141.1</ele>
        <time>2022-07-10T07:40:45Z</time>
      </trkpt>
      <trkpt lat="44.88892" lon="0.68048">
        <ele>141.1</ele>
        <time>2022-07-10T07:40:47Z</time>
      </trkpt>
      <trkpt lat="44.88889" lon="0.68044">
        <ele>140.6</ele>
        <time>2022-07-10T07:40:48Z</time>
      </trkpt>
      <trkpt lat="44.88887" lon="0.6804">
        <ele>140.7</ele>
        <time>2022-07-10T07:40:49Z</time>
      </trkpt>
      <trkpt lat="44.88882" lon="0.68032">
        <ele>140.8</ele>
        <time>2022-07-10T07:40:51Z</time>
      </trkpt>
      <trkpt lat="44.88877" lon="0.68025">
        <ele>140.2</ele>
        <time>2022-07-10T07:40:53Z</time>
      </trkpt>
      <trkpt lat="44.88871" lon="0.68019">
        <ele>140.4</ele>
        <time>2022-07-10T07:40:55Z</time>
      </trkpt>
      <trkpt lat="44.88865" lon="0.68014">
        <ele>140.4</ele>
        <time>2022-07-10T07:40:57Z</time>
      </trkpt>
      <trkpt lat="44.88857" lon="0.68013">
        <ele>140.7</ele>
        <time>2022-07-10T07:40:59Z</time>
      </trkpt>
      <trkpt lat="44.88848" lon="0.68014">
        <ele>140.7</ele>
        <time>2022-07-10T07:41:01Z</time>
      </trkpt>
      <trkpt lat="44.8884" lon="0.68012">
        <ele>140.2</ele>
        <time>2022-07-10T07:41:03Z</time>
      </trkpt>
      <trkpt lat="44.88833" lon="0.6801">
        <ele>140.5</ele>
        <time>2022-07-10T07:41:05Z</time>
      </trkpt>
      <trkpt lat="44.8883" lon="0.6801">
        <ele>140.5</ele>
        <time>2022-07-10T07:41:06Z</time>
      </trkpt>
      <trkpt lat="44.88825" lon="0.68008">
        <ele>140.5</ele>
        <time>2022-07-10T07:41:07Z</time>
      </trkpt>
      <trkpt lat="44.88816" lon="0.68004">
        <ele>140.8</ele>
        <time>2022-07-10T07:41:09Z</time>
      </trkpt>
      <trkpt lat="44.88811" lon="0.68002">
        <ele>140.8</ele>
        <time>2022-07-10T07:41:10Z</time>
      </trkpt>
      <trkpt lat="44.88806" lon="0.67999">
        <ele>140.9</ele>
        <time>2022-07-10T07:41:11Z</time>
      </trkpt>
      <trkpt lat="44.88802" lon="0.67995">
        <ele>141</ele>
        <time>2022-07-10T07:41:12Z</time>
      </trkpt>
      <trkpt lat="44.88798" lon="0.67989">
        <ele>140.3</ele>
        <time>2022-07-10T07:41:13Z</time>
      </trkpt>
      <trkpt lat="44.88796" lon="0.67981">
        <ele>140.3</ele>
        <time>2022-07-10T07:41:14Z</time>
      </trkpt>
      <trkpt lat="44.88794" lon="0.67972">
        <ele>139.6</ele>
        <time>2022-07-10T07:41:15Z</time>
      </trkpt>
      <trkpt lat="44.88789" lon="0.67957">
        <ele>139</ele>
        <time>2022-07-10T07:41:17Z</time>
      </trkpt>
      <trkpt lat="44.88786" lon="0.67948">
        <ele>139.1</ele>
        <time>2022-07-10T07:41:18Z</time>
      </trkpt>
      <trkpt lat="44.88782" lon="0.67939">
        <ele>138.5</ele>
        <time>2022-07-10T07:41:19Z</time>
      </trkpt>
      <trkpt lat="44.88775" lon="0.67919">
        <ele>138.1</ele>
        <time>2022-07-10T07:41:21Z</time>
      </trkpt>
      <trkpt lat="44.88772" lon="0.67909">
        <ele>137.6</ele>
        <time>2022-07-10T07:41:22Z</time>
      </trkpt>
      <trkpt lat="44.8877" lon="0.67899">
        <ele>137.6</ele>
        <time>2022-07-10T07:41:23Z</time>
      </trkpt>
      <trkpt lat="44.88766" lon="0.6788">
        <ele>137.2</ele>
        <time>2022-07-10T07:41:25Z</time>
      </trkpt>
      <trkpt lat="44.8877" lon="0.6787">
        <ele>136.9</ele>
        <time>2022-07-10T07:41:26Z</time>
      </trkpt>
      <trkpt lat="44.88771" lon="0.67863">
        <ele>136.9</ele>
        <time>2022-07-10T07:41:27Z</time>
      </trkpt>
      <trkpt lat="44.88771" lon="0.67859">
        <ele>136.9</ele>
        <time>2022-07-10T07:41:28Z</time>
      </trkpt>
      <trkpt lat="44.88769" lon="0.67858">
        <ele>136.6</ele>
        <time>2022-07-10T07:41:29Z</time>
      </trkpt>
      <trkpt lat="44.88762" lon="0.67852">
        <ele>136.7</ele>
        <time>2022-07-10T07:41:30Z</time>
      </trkpt>
      <trkpt lat="44.88759" lon="0.67856">
        <ele>136.5</ele>
        <time>2022-07-10T07:41:31Z</time>
      </trkpt>
      <trkpt lat="44.88756" lon="0.6786">
        <ele>136.3</ele>
        <time>2022-07-10T07:41:32Z</time>
      </trkpt>
      <trkpt lat="44.88753" lon="0.67864">
        <ele>136.2</ele>
        <time>2022-07-10T07:41:33Z</time>
      </trkpt>
      <trkpt lat="44.88749" lon="0.67868">
        <ele>136</ele>
        <time>2022-07-10T07:41:34Z</time>
      </trkpt>
      <trkpt lat="44.88745" lon="0.67872">
        <ele>135.8</ele>
        <time>2022-07-10T07:41:35Z</time>
      </trkpt>
      <trkpt lat="44.88741" lon="0.67876">
        <ele>135.7</ele>
        <time>2022-07-10T07:41:36Z</time>
      </trkpt>
      <trkpt lat="44.88738" lon="0.67881">
        <ele>135.6</ele>
        <time>2022-07-10T07:41:37Z</time>
      </trkpt>
      <trkpt lat="44.88733" lon="0.67884">
        <ele>135.4</ele>
        <time>2022-07-10T07:41:38Z</time>
      </trkpt>
      <trkpt lat="44.88729" lon="0.67887">
        <ele>135.3</ele>
        <time>2022-07-10T07:41:39Z</time>
      </trkpt>
      <trkpt lat="44.88723" lon="0.6789">
        <ele>135.2</ele>
        <time>2022-07-10T07:41:40Z</time>
      </trkpt>
      <trkpt lat="44.88718" lon="0.67891">
        <ele>135.1</ele>
        <time>2022-07-10T07:41:41Z</time>
      </trkpt>
      <trkpt lat="44.88705" lon="0.67891">
        <ele>134.8</ele>
        <time>2022-07-10T07:41:43Z</time>
      </trkpt>
      <trkpt lat="44.887" lon="0.67891">
        <ele>134.7</ele>
        <time>2022-07-10T07:41:44Z</time>
      </trkpt>
      <trkpt lat="44.88694" lon="0.6789">
        <ele>134.5</ele>
        <time>2022-07-10T07:41:45Z</time>
      </trkpt>
      <trkpt lat="44.88682" lon="0.67888">
        <ele>134.2</ele>
        <time>2022-07-10T07:41:47Z</time>
      </trkpt>
      <trkpt lat="44.88669" lon="0.67886">
        <ele>133.8</ele>
        <time>2022-07-10T07:41:49Z</time>
      </trkpt>
      <trkpt lat="44.88655" lon="0.67884">
        <ele>133.4</ele>
        <time>2022-07-10T07:41:51Z</time>
      </trkpt>
      <trkpt lat="44.88649" lon="0.67884">
        <ele>133.3</ele>
        <time>2022-07-10T07:41:52Z</time>
      </trkpt>
      <trkpt lat="44.88638" lon="0.67884">
        <ele>133</ele>
        <time>2022-07-10T07:41:53Z</time>
      </trkpt>
      <trkpt lat="44.88635" lon="0.67872">
        <ele>132.6</ele>
        <time>2022-07-10T07:41:54Z</time>
      </trkpt>
      <trkpt lat="44.88632" lon="0.67864">
        <ele>132.3</ele>
        <time>2022-07-10T07:41:55Z</time>
      </trkpt>
      <trkpt lat="44.8863" lon="0.67857">
        <ele>132.1</ele>
        <time>2022-07-10T07:41:56Z</time>
      </trkpt>
      <trkpt lat="44.88618" lon="0.67867">
        <ele>131.5</ele>
        <time>2022-07-10T07:41:57Z</time>
      </trkpt>
      <trkpt lat="44.88609" lon="0.6786">
        <ele>131.2</ele>
        <time>2022-07-10T07:42:00Z</time>
      </trkpt>
      <trkpt lat="44.88604" lon="0.67856">
        <ele>131.1</ele>
        <time>2022-07-10T07:42:01Z</time>
      </trkpt>
      <trkpt lat="44.88598" lon="0.67851">
        <ele>131</ele>
        <time>2022-07-10T07:42:02Z</time>
      </trkpt>
      <trkpt lat="44.88592" lon="0.67846">
        <ele>130.9</ele>
        <time>2022-07-10T07:42:03Z</time>
      </trkpt>
      <trkpt lat="44.88586" lon="0.67842">
        <ele>130.8</ele>
        <time>2022-07-10T07:42:04Z</time>
      </trkpt>
      <trkpt lat="44.88581" lon="0.67837">
        <ele>130.8</ele>
        <time>2022-07-10T07:42:05Z</time>
      </trkpt>
      <trkpt lat="44.88571" lon="0.67829">
        <ele>130.9</ele>
        <time>2022-07-10T07:42:07Z</time>
      </trkpt>
      <trkpt lat="44.88566" lon="0.67825">
        <ele>131</ele>
        <time>2022-07-10T07:42:08Z</time>
      </trkpt>
      <trkpt lat="44.88561" lon="0.67822">
        <ele>131.1</ele>
        <time>2022-07-10T07:42:09Z</time>
      </trkpt>
      <trkpt lat="44.88557" lon="0.67818">
        <ele>131.2</ele>
        <time>2022-07-10T07:42:10Z</time>
      </trkpt>
      <trkpt lat="44.88552" lon="0.67814">
        <ele>131.4</ele>
        <time>2022-07-10T07:42:11Z</time>
      </trkpt>
      <trkpt lat="44.88547" lon="0.6781">
        <ele>131.6</ele>
        <time>2022-07-10T07:42:12Z</time>
      </trkpt>
      <trkpt lat="44.88543" lon="0.67807">
        <ele>131.7</ele>
        <time>2022-07-10T07:42:13Z</time>
      </trkpt>
      <trkpt lat="44.88539" lon="0.67804">
        <ele>131.9</ele>
        <time>2022-07-10T07:42:14Z</time>
      </trkpt>
      <trkpt lat="44.88535" lon="0.67801">
        <ele>132.1</ele>
        <time>2022-07-10T07:42:15Z</time>
      </trkpt>
      <trkpt lat="44.88531" lon="0.67798">
        <ele>132.3</ele>
        <time>2022-07-10T07:42:16Z</time>
      </trkpt>
      <trkpt lat="44.88527" lon="0.67796">
        <ele>132.4</ele>
        <time>2022-07-10T07:42:17Z</time>
      </trkpt>
      <trkpt lat="44.8852" lon="0.6779">
        <ele>132.8</ele>
        <time>2022-07-10T07:42:19Z</time>
      </trkpt>
      <trkpt lat="44.88515" lon="0.67786">
        <ele>133</ele>
        <time>2022-07-10T07:42:20Z</time>
      </trkpt>
      <trkpt lat="44.8851" lon="0.67783">
        <ele>133.2</ele>
        <time>2022-07-10T07:42:21Z</time>
      </trkpt>
      <trkpt lat="44.88504" lon="0.67778">
        <ele>133.5</ele>
        <time>2022-07-10T07:42:23Z</time>
      </trkpt>
      <trkpt lat="44.88497" lon="0.67773">
        <ele>133.8</ele>
        <time>2022-07-10T07:42:25Z</time>
      </trkpt>
      <trkpt lat="44.88492" lon="0.67771">
        <ele>134</ele>
        <time>2022-07-10T07:42:26Z</time>
      </trkpt>
      <trkpt lat="44.88489" lon="0.6777">
        <ele>134.1</ele>
        <time>2022-07-10T07:42:27Z</time>
      </trkpt>
      <trkpt lat="44.88481" lon="0.67766">
        <ele>134.3</ele>
        <time>2022-07-10T07:42:29Z</time>
      </trkpt>
      <trkpt lat="44.88473" lon="0.67763">
        <ele>134.5</ele>
        <time>2022-07-10T07:42:31Z</time>
      </trkpt>
      <trkpt lat="44.8847" lon="0.67762">
        <ele>134.5</ele>
        <time>2022-07-10T07:42:32Z</time>
      </trkpt>
      <trkpt lat="44.88467" lon="0.6776">
        <ele>134.5</ele>
        <time>2022-07-10T07:42:33Z</time>
      </trkpt>
      <trkpt lat="44.88462" lon="0.67758">
        <ele>134.6</ele>
        <time>2022-07-10T07:42:34Z</time>
      </trkpt>
      <trkpt lat="44.88457" lon="0.67756">
        <ele>134.5</ele>
        <time>2022-07-10T07:42:35Z</time>
      </trkpt>
      <trkpt lat="44.88446" lon="0.67751">
        <ele>134.2</ele>
        <time>2022-07-10T07:42:37Z</time>
      </trkpt>
      <trkpt lat="44.88441" lon="0.67749">
        <ele>134.1</ele>
        <time>2022-07-10T07:42:38Z</time>
      </trkpt>
      <trkpt lat="44.88436" lon="0.67747">
        <ele>133.9</ele>
        <time>2022-07-10T07:42:39Z</time>
      </trkpt>
      <trkpt lat="44.88427" lon="0.67743">
        <ele>133.6</ele>
        <time>2022-07-10T07:42:41Z</time>
      </trkpt>
      <trkpt lat="44.88422" lon="0.67741">
        <ele>133.4</ele>
        <time>2022-07-10T07:42:42Z</time>
      </trkpt>
      <trkpt lat="44.88416" lon="0.67738">
        <ele>133.2</ele>
        <time>2022-07-10T07:42:43Z</time>
      </trkpt>
      <trkpt lat="44.88405" lon="0.67734">
        <ele>132.7</ele>
        <time>2022-07-10T07:42:45Z</time>
      </trkpt>
      <trkpt lat="44.884" lon="0.67731">
        <ele>132.4</ele>
        <time>2022-07-10T07:42:46Z</time>
      </trkpt>
      <trkpt lat="44.88397" lon="0.6773">
        <ele>132.3</ele>
        <time>2022-07-10T07:42:47Z</time>
      </trkpt>
      <trkpt lat="44.8839" lon="0.67726">
        <ele>131.9</ele>
        <time>2022-07-10T07:42:48Z</time>
      </trkpt>
      <trkpt lat="44.88383" lon="0.67723">
        <ele>131.6</ele>
        <time>2022-07-10T07:42:49Z</time>
      </trkpt>
      <trkpt lat="44.88374" lon="0.67718">
        <ele>131.2</ele>
        <time>2022-07-10T07:42:51Z</time>
      </trkpt>
      <trkpt lat="44.88369" lon="0.67716">
        <ele>131</ele>
        <time>2022-07-10T07:42:52Z</time>
      </trkpt>
      <trkpt lat="44.88363" lon="0.67713">
        <ele>130.8</ele>
        <time>2022-07-10T07:42:53Z</time>
      </trkpt>
      <trkpt lat="44.8835" lon="0.67707">
        <ele>130.4</ele>
        <time>2022-07-10T07:42:55Z</time>
      </trkpt>
      <trkpt lat="44.88335" lon="0.67699">
        <ele>130</ele>
        <time>2022-07-10T07:42:57Z</time>
      </trkpt>
      <trkpt lat="44.88323" lon="0.67693">
        <ele>129.9</ele>
        <time>2022-07-10T07:42:59Z</time>
      </trkpt>
      <trkpt lat="44.88315" lon="0.6769">
        <ele>129.8</ele>
        <time>2022-07-10T07:43:00Z</time>
      </trkpt>
      <trkpt lat="44.88301" lon="0.67683">
        <ele>129.9</ele>
        <time>2022-07-10T07:43:02Z</time>
      </trkpt>
      <trkpt lat="44.88295" lon="0.6768">
        <ele>130</ele>
        <time>2022-07-10T07:43:03Z</time>
      </trkpt>
      <trkpt lat="44.88291" lon="0.67675">
        <ele>130.1</ele>
        <time>2022-07-10T07:43:04Z</time>
      </trkpt>
      <trkpt lat="44.88288" lon="0.6767">
        <ele>130.1</ele>
        <time>2022-07-10T07:43:05Z</time>
      </trkpt>
      <trkpt lat="44.88285" lon="0.67666">
        <ele>130.2</ele>
        <time>2022-07-10T07:43:06Z</time>
      </trkpt>
      <trkpt lat="44.88282" lon="0.67662">
        <ele>130.3</ele>
        <time>2022-07-10T07:43:07Z</time>
      </trkpt>
      <trkpt lat="44.88279" lon="0.67658">
        <ele>130.3</ele>
        <time>2022-07-10T07:43:08Z</time>
      </trkpt>
      <trkpt lat="44.88276" lon="0.67655">
        <ele>130.3</ele>
        <time>2022-07-10T07:43:09Z</time>
      </trkpt>
      <trkpt lat="44.88272" lon="0.67648">
        <ele>130.4</ele>
        <time>2022-07-10T07:43:11Z</time>
      </trkpt>
      <trkpt lat="44.88267" lon="0.67641">
        <ele>130.5</ele>
        <time>2022-07-10T07:43:13Z</time>
      </trkpt>
      <trkpt lat="44.88261" lon="0.67634">
        <ele>130.7</ele>
        <time>2022-07-10T07:43:15Z</time>
      </trkpt>
      <trkpt lat="44.88256" lon="0.67626">
        <ele>130.9</ele>
        <time>2022-07-10T07:43:17Z</time>
      </trkpt>
      <trkpt lat="44.8825" lon="0.67619">
        <ele>131.1</ele>
        <time>2022-07-10T07:43:19Z</time>
      </trkpt>
      <trkpt lat="44.88247" lon="0.67615">
        <ele>131.2</ele>
        <time>2022-07-10T07:43:20Z</time>
      </trkpt>
      <trkpt lat="44.88244" lon="0.6761">
        <ele>131.2</ele>
        <time>2022-07-10T07:43:21Z</time>
      </trkpt>
      <trkpt lat="44.8824" lon="0.67606">
        <ele>131.2</ele>
        <time>2022-07-10T07:43:22Z</time>
      </trkpt>
      <trkpt lat="44.88237" lon="0.67601">
        <ele>131.2</ele>
        <time>2022-07-10T07:43:23Z</time>
      </trkpt>
      <trkpt lat="44.88231" lon="0.67593">
        <ele>131.1</ele>
        <time>2022-07-10T07:43:25Z</time>
      </trkpt>
      <trkpt lat="44.88225" lon="0.67585">
        <ele>130.9</ele>
        <time>2022-07-10T07:43:27Z</time>
      </trkpt>
      <trkpt lat="44.88222" lon="0.67581">
        <ele>130.8</ele>
        <time>2022-07-10T07:43:28Z</time>
      </trkpt>
      <trkpt lat="44.88219" lon="0.67576">
        <ele>130.6</ele>
        <time>2022-07-10T07:43:29Z</time>
      </trkpt>
      <trkpt lat="44.88211" lon="0.67566">
        <ele>130.2</ele>
        <time>2022-07-10T07:43:31Z</time>
      </trkpt>
      <trkpt lat="44.88204" lon="0.67556">
        <ele>129.7</ele>
        <time>2022-07-10T07:43:33Z</time>
      </trkpt>
      <trkpt lat="44.88197" lon="0.67547">
        <ele>129.3</ele>
        <time>2022-07-10T07:43:35Z</time>
      </trkpt>
      <trkpt lat="44.8819" lon="0.67537">
        <ele>128.9</ele>
        <time>2022-07-10T07:43:37Z</time>
      </trkpt>
      <trkpt lat="44.88186" lon="0.67531">
        <ele>128.6</ele>
        <time>2022-07-10T07:43:38Z</time>
      </trkpt>
      <trkpt lat="44.88183" lon="0.67524">
        <ele>128.4</ele>
        <time>2022-07-10T07:43:39Z</time>
      </trkpt>
      <trkpt lat="44.8818" lon="0.67517">
        <ele>128.2</ele>
        <time>2022-07-10T07:43:40Z</time>
      </trkpt>
      <trkpt lat="44.88177" lon="0.67511">
        <ele>128</ele>
        <time>2022-07-10T07:43:41Z</time>
      </trkpt>
      <trkpt lat="44.88174" lon="0.67505">
        <ele>127.8</ele>
        <time>2022-07-10T07:43:42Z</time>
      </trkpt>
      <trkpt lat="44.88172" lon="0.675">
        <ele>127.6</ele>
        <time>2022-07-10T07:43:43Z</time>
      </trkpt>
      <trkpt lat="44.88169" lon="0.67494">
        <ele>127.5</ele>
        <time>2022-07-10T07:43:44Z</time>
      </trkpt>
      <trkpt lat="44.88166" lon="0.67488">
        <ele>127.3</ele>
        <time>2022-07-10T07:43:45Z</time>
      </trkpt>
      <trkpt lat="44.8816" lon="0.67476">
        <ele>127</ele>
        <time>2022-07-10T07:43:47Z</time>
      </trkpt>
      <trkpt lat="44.88154" lon="0.67463">
        <ele>126.8</ele>
        <time>2022-07-10T07:43:49Z</time>
      </trkpt>
      <trkpt lat="44.88148" lon="0.67449">
        <ele>126.6</ele>
        <time>2022-07-10T07:43:51Z</time>
      </trkpt>
      <trkpt lat="44.88142" lon="0.67435">
        <ele>126.4</ele>
        <time>2022-07-10T07:43:53Z</time>
      </trkpt>
      <trkpt lat="44.88138" lon="0.67428">
        <ele>126.3</ele>
        <time>2022-07-10T07:43:54Z</time>
      </trkpt>
      <trkpt lat="44.88135" lon="0.67422">
        <ele>126.2</ele>
        <time>2022-07-10T07:43:55Z</time>
      </trkpt>
      <trkpt lat="44.88129" lon="0.67408">
        <ele>126</ele>
        <time>2022-07-10T07:43:57Z</time>
      </trkpt>
      <trkpt lat="44.88125" lon="0.67401">
        <ele>125.9</ele>
        <time>2022-07-10T07:43:59Z</time>
      </trkpt>
      <trkpt lat="44.88125" lon="0.67385">
        <ele>125.8</ele>
        <time>2022-07-10T07:44:00Z</time>
      </trkpt>
      <trkpt lat="44.88124" lon="0.67377">
        <ele>125.8</ele>
        <time>2022-07-10T07:44:01Z</time>
      </trkpt>
      <trkpt lat="44.88123" lon="0.67363">
        <ele>125.8</ele>
        <time>2022-07-10T07:44:03Z</time>
      </trkpt>
      <trkpt lat="44.88123" lon="0.67352">
        <ele>125.9</ele>
        <time>2022-07-10T07:44:05Z</time>
      </trkpt>
      <trkpt lat="44.88122" lon="0.67342">
        <ele>126</ele>
        <time>2022-07-10T07:44:07Z</time>
      </trkpt>
      <trkpt lat="44.88122" lon="0.67331">
        <ele>126.1</ele>
        <time>2022-07-10T07:44:09Z</time>
      </trkpt>
      <trkpt lat="44.88121" lon="0.67324">
        <ele>126.2</ele>
        <time>2022-07-10T07:44:10Z</time>
      </trkpt>
      <trkpt lat="44.88121" lon="0.67318">
        <ele>126.3</ele>
        <time>2022-07-10T07:44:11Z</time>
      </trkpt>
      <trkpt lat="44.88121" lon="0.67308">
        <ele>126.5</ele>
        <time>2022-07-10T07:44:13Z</time>
      </trkpt>
      <trkpt lat="44.8812" lon="0.67303">
        <ele>126.6</ele>
        <time>2022-07-10T07:44:14Z</time>
      </trkpt>
      <trkpt lat="44.8812" lon="0.67298">
        <ele>126.7</ele>
        <time>2022-07-10T07:44:15Z</time>
      </trkpt>
      <trkpt lat="44.8812" lon="0.67292">
        <ele>126.8</ele>
        <time>2022-07-10T07:44:16Z</time>
      </trkpt>
      <trkpt lat="44.88119" lon="0.67286">
        <ele>126.9</ele>
        <time>2022-07-10T07:44:17Z</time>
      </trkpt>
      <trkpt lat="44.88119" lon="0.67281">
        <ele>126.9</ele>
        <time>2022-07-10T07:44:18Z</time>
      </trkpt>
      <trkpt lat="44.88119" lon="0.67277">
        <ele>126.9</ele>
        <time>2022-07-10T07:44:19Z</time>
      </trkpt>
      <trkpt lat="44.88119" lon="0.67271">
        <ele>127</ele>
        <time>2022-07-10T07:44:20Z</time>
      </trkpt>
      <trkpt lat="44.88118" lon="0.67266">
        <ele>127</ele>
        <time>2022-07-10T07:44:21Z</time>
      </trkpt>
      <trkpt lat="44.88117" lon="0.67258">
        <ele>127</ele>
        <time>2022-07-10T07:44:22Z</time>
      </trkpt>
      <trkpt lat="44.88115" lon="0.67253">
        <ele>127</ele>
        <time>2022-07-10T07:44:23Z</time>
      </trkpt>
      <trkpt lat="44.88114" lon="0.67249">
        <ele>127</ele>
        <time>2022-07-10T07:44:25Z</time>
      </trkpt>
      <trkpt lat="44.88113" lon="0.67245">
        <ele>126.9</ele>
        <time>2022-07-10T07:44:36Z</time>
      </trkpt>
      <trkpt lat="44.88111" lon="0.6724">
        <ele>126.9</ele>
        <time>2022-07-10T07:44:37Z</time>
      </trkpt>
      <trkpt lat="44.8811" lon="0.67236">
        <ele>126.9</ele>
        <time>2022-07-10T07:44:39Z</time>
      </trkpt>
      <trkpt lat="44.88109" lon="0.67231">
        <ele>126.8</ele>
        <time>2022-07-10T07:44:40Z</time>
      </trkpt>
      <trkpt lat="44.88105" lon="0.6723">
        <ele>126.8</ele>
        <time>2022-07-10T07:44:41Z</time>
      </trkpt>
      <trkpt lat="44.88097" lon="0.67225">
        <ele>126.6</ele>
        <time>2022-07-10T07:44:43Z</time>
      </trkpt>
      <trkpt lat="44.88092" lon="0.67222">
        <ele>126.5</ele>
        <time>2022-07-10T07:44:44Z</time>
      </trkpt>
      <trkpt lat="44.88087" lon="0.6722">
        <ele>126.5</ele>
        <time>2022-07-10T07:44:45Z</time>
      </trkpt>
      <trkpt lat="44.88078" lon="0.67215">
        <ele>126.3</ele>
        <time>2022-07-10T07:44:47Z</time>
      </trkpt>
      <trkpt lat="44.88074" lon="0.67213">
        <ele>126.2</ele>
        <time>2022-07-10T07:44:48Z</time>
      </trkpt>
      <trkpt lat="44.8807" lon="0.67211">
        <ele>126</ele>
        <time>2022-07-10T07:44:49Z</time>
      </trkpt>
      <trkpt lat="44.88062" lon="0.67207">
        <ele>125.8</ele>
        <time>2022-07-10T07:44:51Z</time>
      </trkpt>
      <trkpt lat="44.88053" lon="0.67202">
        <ele>125.5</ele>
        <time>2022-07-10T07:44:53Z</time>
      </trkpt>
      <trkpt lat="44.88044" lon="0.67197">
        <ele>125.3</ele>
        <time>2022-07-10T07:44:55Z</time>
      </trkpt>
      <trkpt lat="44.88037" lon="0.67194">
        <ele>125.1</ele>
        <time>2022-07-10T07:44:57Z</time>
      </trkpt>
      <trkpt lat="44.88034" lon="0.67192">
        <ele>125.1</ele>
        <time>2022-07-10T07:44:58Z</time>
      </trkpt>
      <trkpt lat="44.8803" lon="0.6719">
        <ele>125</ele>
        <time>2022-07-10T07:44:59Z</time>
      </trkpt>
      <trkpt lat="44.88022" lon="0.67186">
        <ele>124.9</ele>
        <time>2022-07-10T07:45:00Z</time>
      </trkpt>
      <trkpt lat="44.88017" lon="0.67183">
        <ele>124.8</ele>
        <time>2022-07-10T07:45:01Z</time>
      </trkpt>
      <trkpt lat="44.88013" lon="0.67181">
        <ele>124.8</ele>
        <time>2022-07-10T07:45:02Z</time>
      </trkpt>
      <trkpt lat="44.8801" lon="0.67179">
        <ele>124.8</ele>
        <time>2022-07-10T07:45:03Z</time>
      </trkpt>
      <trkpt lat="44.88003" lon="0.67175">
        <ele>124.9</ele>
        <time>2022-07-10T07:45:05Z</time>
      </trkpt>
      <trkpt lat="44.87999" lon="0.67173">
        <ele>124.9</ele>
        <time>2022-07-10T07:45:06Z</time>
      </trkpt>
      <trkpt lat="44.87996" lon="0.67172">
        <ele>125</ele>
        <time>2022-07-10T07:45:07Z</time>
      </trkpt>
      <trkpt lat="44.87994" lon="0.67171">
        <ele>125</ele>
        <time>2022-07-10T07:45:08Z</time>
      </trkpt>
      <trkpt lat="44.87991" lon="0.67169">
        <ele>125.1</ele>
        <time>2022-07-10T07:45:09Z</time>
      </trkpt>
      <trkpt lat="44.87989" lon="0.67168">
        <ele>125.1</ele>
        <time>2022-07-10T07:45:11Z</time>
      </trkpt>
      <trkpt lat="44.87977" lon="0.67162">
        <ele>125.3</ele>
        <time>2022-07-10T07:45:13Z</time>
      </trkpt>
      <trkpt lat="44.87971" lon="0.67159">
        <ele>125.4</ele>
        <time>2022-07-10T07:45:14Z</time>
      </trkpt>
      <trkpt lat="44.87965" lon="0.67156">
        <ele>125.5</ele>
        <time>2022-07-10T07:45:15Z</time>
      </trkpt>
      <trkpt lat="44.87956" lon="0.67151">
        <ele>125.5</ele>
        <time>2022-07-10T07:45:17Z</time>
      </trkpt>
      <trkpt lat="44.87953" lon="0.67149">
        <ele>125.5</ele>
        <time>2022-07-10T07:45:19Z</time>
      </trkpt>
      <trkpt lat="44.87949" lon="0.67148">
        <ele>125.5</ele>
        <time>2022-07-10T07:45:20Z</time>
      </trkpt>
      <trkpt lat="44.87946" lon="0.67146">
        <ele>125.5</ele>
        <time>2022-07-10T07:45:21Z</time>
      </trkpt>
      <trkpt lat="44.87937" lon="0.67142">
        <ele>125.3</ele>
        <time>2022-07-10T07:45:23Z</time>
      </trkpt>
      <trkpt lat="44.87928" lon="0.67137">
        <ele>125</ele>
        <time>2022-07-10T07:45:25Z</time>
      </trkpt>
      <trkpt lat="44.87923" lon="0.67135">
        <ele>124.9</ele>
        <time>2022-07-10T07:45:26Z</time>
      </trkpt>
      <trkpt lat="44.87919" lon="0.67133">
        <ele>124.7</ele>
        <time>2022-07-10T07:45:27Z</time>
      </trkpt>
      <trkpt lat="44.87911" lon="0.67129">
        <ele>124.4</ele>
        <time>2022-07-10T07:45:29Z</time>
      </trkpt>
      <trkpt lat="44.87905" lon="0.67126">
        <ele>124.2</ele>
        <time>2022-07-10T07:45:30Z</time>
      </trkpt>
      <trkpt lat="44.87901" lon="0.67124">
        <ele>124</ele>
        <time>2022-07-10T07:45:31Z</time>
      </trkpt>
      <trkpt lat="44.87893" lon="0.6712">
        <ele>123.6</ele>
        <time>2022-07-10T07:45:33Z</time>
      </trkpt>
      <trkpt lat="44.87889" lon="0.67118">
        <ele>123.5</ele>
        <time>2022-07-10T07:45:34Z</time>
      </trkpt>
      <trkpt lat="44.87883" lon="0.67115">
        <ele>123.2</ele>
        <time>2022-07-10T07:45:35Z</time>
      </trkpt>
      <trkpt lat="44.87871" lon="0.67109">
        <ele>122.7</ele>
        <time>2022-07-10T07:45:37Z</time>
      </trkpt>
      <trkpt lat="44.87864" lon="0.67106">
        <ele>122.4</ele>
        <time>2022-07-10T07:45:38Z</time>
      </trkpt>
      <trkpt lat="44.87858" lon="0.67103">
        <ele>122.2</ele>
        <time>2022-07-10T07:45:39Z</time>
      </trkpt>
      <trkpt lat="44.87846" lon="0.67097">
        <ele>121.9</ele>
        <time>2022-07-10T07:45:41Z</time>
      </trkpt>
      <trkpt lat="44.87841" lon="0.67095">
        <ele>121.9</ele>
        <time>2022-07-10T07:45:42Z</time>
      </trkpt>
      <trkpt lat="44.87837" lon="0.67093">
        <ele>121.8</ele>
        <time>2022-07-10T07:45:43Z</time>
      </trkpt>
      <trkpt lat="44.87832" lon="0.67091">
        <ele>121.8</ele>
        <time>2022-07-10T07:45:44Z</time>
      </trkpt>
      <trkpt lat="44.87827" lon="0.67088">
        <ele>121.8</ele>
        <time>2022-07-10T07:45:45Z</time>
      </trkpt>
      <trkpt lat="44.87821" lon="0.67085">
        <ele>121.9</ele>
        <time>2022-07-10T07:45:46Z</time>
      </trkpt>
      <trkpt lat="44.87817" lon="0.67083">
        <ele>121.9</ele>
        <time>2022-07-10T07:45:47Z</time>
      </trkpt>
      <trkpt lat="44.87813" lon="0.67081">
        <ele>122</ele>
        <time>2022-07-10T07:45:48Z</time>
      </trkpt>
      <trkpt lat="44.87808" lon="0.67079">
        <ele>122.1</ele>
        <time>2022-07-10T07:45:49Z</time>
      </trkpt>
      <trkpt lat="44.87803" lon="0.67077">
        <ele>122.2</ele>
        <time>2022-07-10T07:45:50Z</time>
      </trkpt>
      <trkpt lat="44.87799" lon="0.67074">
        <ele>122.4</ele>
        <time>2022-07-10T07:45:51Z</time>
      </trkpt>
      <trkpt lat="44.87793" lon="0.67068">
        <ele>122.7</ele>
        <time>2022-07-10T07:45:53Z</time>
      </trkpt>
      <trkpt lat="44.87791" lon="0.67065">
        <ele>122.8</ele>
        <time>2022-07-10T07:45:54Z</time>
      </trkpt>
      <trkpt lat="44.87788" lon="0.67061">
        <ele>123</ele>
        <time>2022-07-10T07:45:55Z</time>
      </trkpt>
      <trkpt lat="44.87783" lon="0.67054">
        <ele>123.4</ele>
        <time>2022-07-10T07:45:57Z</time>
      </trkpt>
      <trkpt lat="44.87779" lon="0.6705">
        <ele>123.6</ele>
        <time>2022-07-10T07:45:58Z</time>
      </trkpt>
      <trkpt lat="44.87776" lon="0.67046">
        <ele>123.7</ele>
        <time>2022-07-10T07:45:59Z</time>
      </trkpt>
      <trkpt lat="44.87772" lon="0.67042">
        <ele>123.9</ele>
        <time>2022-07-10T07:46:00Z</time>
      </trkpt>
      <trkpt lat="44.87769" lon="0.67037">
        <ele>124.2</ele>
        <time>2022-07-10T07:46:01Z</time>
      </trkpt>
      <trkpt lat="44.87762" lon="0.67029">
        <ele>124.5</ele>
        <time>2022-07-10T07:46:03Z</time>
      </trkpt>
      <trkpt lat="44.87757" lon="0.67023">
        <ele>124.7</ele>
        <time>2022-07-10T07:46:05Z</time>
      </trkpt>
      <trkpt lat="44.87752" lon="0.67017">
        <ele>125</ele>
        <time>2022-07-10T07:46:07Z</time>
      </trkpt>
      <trkpt lat="44.87748" lon="0.67012">
        <ele>125.1</ele>
        <time>2022-07-10T07:46:09Z</time>
      </trkpt>
      <trkpt lat="44.87743" lon="0.67006">
        <ele>125.3</ele>
        <time>2022-07-10T07:46:11Z</time>
      </trkpt>
      <trkpt lat="44.87739" lon="0.67001">
        <ele>125.4</ele>
        <time>2022-07-10T07:46:13Z</time>
      </trkpt>
      <trkpt lat="44.87734" lon="0.66996">
        <ele>125.6</ele>
        <time>2022-07-10T07:46:15Z</time>
      </trkpt>
      <trkpt lat="44.87732" lon="0.66993">
        <ele>125.7</ele>
        <time>2022-07-10T07:46:16Z</time>
      </trkpt>
      <trkpt lat="44.87729" lon="0.66989">
        <ele>125.7</ele>
        <time>2022-07-10T07:46:17Z</time>
      </trkpt>
      <trkpt lat="44.87726" lon="0.66985">
        <ele>125.8</ele>
        <time>2022-07-10T07:46:18Z</time>
      </trkpt>
      <trkpt lat="44.87722" lon="0.66981">
        <ele>125.9</ele>
        <time>2022-07-10T07:46:19Z</time>
      </trkpt>
      <trkpt lat="44.87719" lon="0.66977">
        <ele>126</ele>
        <time>2022-07-10T07:46:20Z</time>
      </trkpt>
      <trkpt lat="44.87716" lon="0.66974">
        <ele>126</ele>
        <time>2022-07-10T07:46:21Z</time>
      </trkpt>
      <trkpt lat="44.87713" lon="0.6697">
        <ele>126</ele>
        <time>2022-07-10T07:46:22Z</time>
      </trkpt>
      <trkpt lat="44.8771" lon="0.66966">
        <ele>126</ele>
        <time>2022-07-10T07:46:23Z</time>
      </trkpt>
      <trkpt lat="44.87704" lon="0.66959">
        <ele>126.1</ele>
        <time>2022-07-10T07:46:25Z</time>
      </trkpt>
      <trkpt lat="44.87698" lon="0.66952">
        <ele>126.1</ele>
        <time>2022-07-10T07:46:27Z</time>
      </trkpt>
      <trkpt lat="44.87694" lon="0.66946">
        <ele>126.2</ele>
        <time>2022-07-10T07:46:29Z</time>
      </trkpt>
      <trkpt lat="44.87701" lon="0.66939">
        <ele>126.2</ele>
        <time>2022-07-10T07:46:30Z</time>
      </trkpt>
      <trkpt lat="44.87707" lon="0.66931">
        <ele>126.2</ele>
        <time>2022-07-10T07:46:31Z</time>
      </trkpt>
      <trkpt lat="44.87713" lon="0.66929">
        <ele>126</ele>
        <time>2022-07-10T07:46:33Z</time>
      </trkpt>
      <trkpt lat="44.87718" lon="0.66927">
        <ele>125.6</ele>
        <time>2022-07-10T07:46:35Z</time>
      </trkpt>
      <trkpt lat="44.87723" lon="0.66929">
        <ele>125.7</ele>
        <time>2022-07-10T07:46:37Z</time>
      </trkpt>
      <trkpt lat="44.87732" lon="0.66931">
        <ele>125.8</ele>
        <time>2022-07-10T07:46:39Z</time>
      </trkpt>
      <trkpt lat="44.87746" lon="0.66899">
        <ele>124.1</ele>
        <time>2022-07-10T07:46:41Z</time>
      </trkpt>
      <trkpt lat="44.8775" lon="0.66893">
        <ele>123.3</ele>
        <time>2022-07-10T07:46:42Z</time>
      </trkpt>
      <trkpt lat="44.87753" lon="0.66886">
        <ele>123</ele>
        <time>2022-07-10T07:46:43Z</time>
      </trkpt>
      <trkpt lat="44.87762" lon="0.66875">
        <ele>122.3</ele>
        <time>2022-07-10T07:46:45Z</time>
      </trkpt>
      <trkpt lat="44.87767" lon="0.6687">
        <ele>122.3</ele>
        <time>2022-07-10T07:46:46Z</time>
      </trkpt>
      <trkpt lat="44.8777" lon="0.66864">
        <ele>122.3</ele>
        <time>2022-07-10T07:46:47Z</time>
      </trkpt>
      <trkpt lat="44.87773" lon="0.66857">
        <ele>121.8</ele>
        <time>2022-07-10T07:46:48Z</time>
      </trkpt>
      <trkpt lat="44.87776" lon="0.6685">
        <ele>121.8</ele>
        <time>2022-07-10T07:46:49Z</time>
      </trkpt>
      <trkpt lat="44.8778" lon="0.66836">
        <ele>121.7</ele>
        <time>2022-07-10T07:46:51Z</time>
      </trkpt>
      <trkpt lat="44.87782" lon="0.66821">
        <ele>121.6</ele>
        <time>2022-07-10T07:46:53Z</time>
      </trkpt>
      <trkpt lat="44.87783" lon="0.66813">
        <ele>121.7</ele>
        <time>2022-07-10T07:46:54Z</time>
      </trkpt>
      <trkpt lat="44.87785" lon="0.66806">
        <ele>121.7</ele>
        <time>2022-07-10T07:46:55Z</time>
      </trkpt>
      <trkpt lat="44.87786" lon="0.66799">
        <ele>121.8</ele>
        <time>2022-07-10T07:46:56Z</time>
      </trkpt>
      <trkpt lat="44.87788" lon="0.66792">
        <ele>121.8</ele>
        <time>2022-07-10T07:46:57Z</time>
      </trkpt>
      <trkpt lat="44.8779" lon="0.66785">
        <ele>122</ele>
        <time>2022-07-10T07:46:58Z</time>
      </trkpt>
      <trkpt lat="44.87793" lon="0.66778">
        <ele>122</ele>
        <time>2022-07-10T07:46:59Z</time>
      </trkpt>
      <trkpt lat="44.87797" lon="0.66772">
        <ele>122</ele>
        <time>2022-07-10T07:47:00Z</time>
      </trkpt>
      <trkpt lat="44.87802" lon="0.66767">
        <ele>122.2</ele>
        <time>2022-07-10T07:47:01Z</time>
      </trkpt>
      <trkpt lat="44.87806" lon="0.66764">
        <ele>122.2</ele>
        <time>2022-07-10T07:47:02Z</time>
      </trkpt>
      <trkpt lat="44.87811" lon="0.6676">
        <ele>122.3</ele>
        <time>2022-07-10T07:47:03Z</time>
      </trkpt>
      <trkpt lat="44.87814" lon="0.66752">
        <ele>122.7</ele>
        <time>2022-07-10T07:47:04Z</time>
      </trkpt>
      <trkpt lat="44.87817" lon="0.66747">
        <ele>122.7</ele>
        <time>2022-07-10T07:47:05Z</time>
      </trkpt>
      <trkpt lat="44.87818" lon="0.6674">
        <ele>122.7</ele>
        <time>2022-07-10T07:47:06Z</time>
      </trkpt>
      <trkpt lat="44.87816" lon="0.6673">
        <ele>122.7</ele>
        <time>2022-07-10T07:47:07Z</time>
      </trkpt>
      <trkpt lat="44.87815" lon="0.66721">
        <ele>122.6</ele>
        <time>2022-07-10T07:47:08Z</time>
      </trkpt>
      <trkpt lat="44.87815" lon="0.66713">
        <ele>122.7</ele>
        <time>2022-07-10T07:47:09Z</time>
      </trkpt>
      <trkpt lat="44.87814" lon="0.66705">
        <ele>122.5</ele>
        <time>2022-07-10T07:47:10Z</time>
      </trkpt>
      <trkpt lat="44.87817" lon="0.66697">
        <ele>122.5</ele>
        <time>2022-07-10T07:47:11Z</time>
      </trkpt>
      <trkpt lat="44.8782" lon="0.66689">
        <ele>122.1</ele>
        <time>2022-07-10T07:47:12Z</time>
      </trkpt>
      <trkpt lat="44.87822" lon="0.66679">
        <ele>122.2</ele>
        <time>2022-07-10T07:47:13Z</time>
      </trkpt>
      <trkpt lat="44.87828" lon="0.6666">
        <ele>122.2</ele>
        <time>2022-07-10T07:47:15Z</time>
      </trkpt>
      <trkpt lat="44.87838" lon="0.66644">
        <ele>121.9</ele>
        <time>2022-07-10T07:47:17Z</time>
      </trkpt>
      <trkpt lat="44.87843" lon="0.66638">
        <ele>121</ele>
        <time>2022-07-10T07:47:18Z</time>
      </trkpt>
      <trkpt lat="44.87849" lon="0.66633">
        <ele>121</ele>
        <time>2022-07-10T07:47:19Z</time>
      </trkpt>
      <trkpt lat="44.87859" lon="0.66621">
        <ele>120.2</ele>
        <time>2022-07-10T07:47:21Z</time>
      </trkpt>
      <trkpt lat="44.87861" lon="0.66616">
        <ele>120.3</ele>
        <time>2022-07-10T07:47:22Z</time>
      </trkpt>
      <trkpt lat="44.87862" lon="0.6661">
        <ele>120.3</ele>
        <time>2022-07-10T07:47:23Z</time>
      </trkpt>
      <trkpt lat="44.8786" lon="0.66602">
        <ele>119.2</ele>
        <time>2022-07-10T07:47:24Z</time>
      </trkpt>
      <trkpt lat="44.87857" lon="0.66592">
        <ele>119.3</ele>
        <time>2022-07-10T07:47:25Z</time>
      </trkpt>
      <trkpt lat="44.87857" lon="0.66581">
        <ele>118.4</ele>
        <time>2022-07-10T07:47:26Z</time>
      </trkpt>
      <trkpt lat="44.87857" lon="0.66571">
        <ele>118.4</ele>
        <time>2022-07-10T07:47:27Z</time>
      </trkpt>
      <trkpt lat="44.87858" lon="0.66563">
        <ele>117.6</ele>
        <time>2022-07-10T07:47:28Z</time>
      </trkpt>
      <trkpt lat="44.87858" lon="0.66555">
        <ele>117.6</ele>
        <time>2022-07-10T07:47:29Z</time>
      </trkpt>
      <trkpt lat="44.87857" lon="0.66545">
        <ele>116.6</ele>
        <time>2022-07-10T07:47:30Z</time>
      </trkpt>
      <trkpt lat="44.87854" lon="0.66535">
        <ele>115.7</ele>
        <time>2022-07-10T07:47:31Z</time>
      </trkpt>
      <trkpt lat="44.87854" lon="0.66526">
        <ele>115.8</ele>
        <time>2022-07-10T07:47:32Z</time>
      </trkpt>
      <trkpt lat="44.87855" lon="0.66516">
        <ele>115.2</ele>
        <time>2022-07-10T07:47:33Z</time>
      </trkpt>
      <trkpt lat="44.87857" lon="0.66497">
        <ele>114.9</ele>
        <time>2022-07-10T07:47:35Z</time>
      </trkpt>
      <trkpt lat="44.87855" lon="0.66478">
        <ele>114.8</ele>
        <time>2022-07-10T07:47:37Z</time>
      </trkpt>
      <trkpt lat="44.87856" lon="0.66455">
        <ele>114.7</ele>
        <time>2022-07-10T07:47:39Z</time>
      </trkpt>
      <trkpt lat="44.87859" lon="0.66444">
        <ele>114.6</ele>
        <time>2022-07-10T07:47:40Z</time>
      </trkpt>
      <trkpt lat="44.87863" lon="0.66434">
        <ele>114.4</ele>
        <time>2022-07-10T07:47:41Z</time>
      </trkpt>
      <trkpt lat="44.87869" lon="0.66414">
        <ele>113.8</ele>
        <time>2022-07-10T07:47:43Z</time>
      </trkpt>
      <trkpt lat="44.87873" lon="0.66406">
        <ele>113.8</ele>
        <time>2022-07-10T07:47:44Z</time>
      </trkpt>
      <trkpt lat="44.87876" lon="0.66396">
        <ele>113.1</ele>
        <time>2022-07-10T07:47:45Z</time>
      </trkpt>
      <trkpt lat="44.87882" lon="0.66378">
        <ele>112.7</ele>
        <time>2022-07-10T07:47:47Z</time>
      </trkpt>
      <trkpt lat="44.87879" lon="0.66363">
        <ele>112.4</ele>
        <time>2022-07-10T07:47:49Z</time>
      </trkpt>
      <trkpt lat="44.87869" lon="0.66348">
        <ele>112.6</ele>
        <time>2022-07-10T07:47:51Z</time>
      </trkpt>
      <trkpt lat="44.87864" lon="0.66341">
        <ele>112.6</ele>
        <time>2022-07-10T07:47:52Z</time>
      </trkpt>
      <trkpt lat="44.87857" lon="0.66337">
        <ele>112.7</ele>
        <time>2022-07-10T07:47:53Z</time>
      </trkpt>
      <trkpt lat="44.87846" lon="0.66327">
        <ele>112.9</ele>
        <time>2022-07-10T07:47:55Z</time>
      </trkpt>
      <trkpt lat="44.8784" lon="0.66321">
        <ele>113</ele>
        <time>2022-07-10T07:47:56Z</time>
      </trkpt>
      <trkpt lat="44.87834" lon="0.66316">
        <ele>113</ele>
        <time>2022-07-10T07:47:57Z</time>
      </trkpt>
      <trkpt lat="44.8783" lon="0.66309">
        <ele>113.2</ele>
        <time>2022-07-10T07:47:58Z</time>
      </trkpt>
      <trkpt lat="44.87827" lon="0.66302">
        <ele>113.2</ele>
        <time>2022-07-10T07:47:59Z</time>
      </trkpt>
      <trkpt lat="44.87824" lon="0.66296">
        <ele>113</ele>
        <time>2022-07-10T07:48:00Z</time>
      </trkpt>
      <trkpt lat="44.87821" lon="0.66289">
        <ele>113.4</ele>
        <time>2022-07-10T07:48:01Z</time>
      </trkpt>
      <trkpt lat="44.87818" lon="0.66281">
        <ele>113.5</ele>
        <time>2022-07-10T07:48:02Z</time>
      </trkpt>
      <trkpt lat="44.87816" lon="0.66273">
        <ele>114.3</ele>
        <time>2022-07-10T07:48:03Z</time>
      </trkpt>
      <trkpt lat="44.87815" lon="0.66264">
        <ele>114.3</ele>
        <time>2022-07-10T07:48:04Z</time>
      </trkpt>
      <trkpt lat="44.87813" lon="0.66256">
        <ele>114.4</ele>
        <time>2022-07-10T07:48:05Z</time>
      </trkpt>
      <trkpt lat="44.87809" lon="0.66248">
        <ele>114.5</ele>
        <time>2022-07-10T07:48:06Z</time>
      </trkpt>
      <trkpt lat="44.87806" lon="0.66241">
        <ele>114.7</ele>
        <time>2022-07-10T07:48:07Z</time>
      </trkpt>
      <trkpt lat="44.87798" lon="0.66227">
        <ele>114.3</ele>
        <time>2022-07-10T07:48:09Z</time>
      </trkpt>
      <trkpt lat="44.87793" lon="0.66222">
        <ele>114.3</ele>
        <time>2022-07-10T07:48:10Z</time>
      </trkpt>
      <trkpt lat="44.87789" lon="0.66216">
        <ele>113.9</ele>
        <time>2022-07-10T07:48:11Z</time>
      </trkpt>
      <trkpt lat="44.87781" lon="0.66209">
        <ele>113.7</ele>
        <time>2022-07-10T07:48:13Z</time>
      </trkpt>
      <trkpt lat="44.87775" lon="0.66208">
        <ele>113.2</ele>
        <time>2022-07-10T07:48:14Z</time>
      </trkpt>
      <trkpt lat="44.8777" lon="0.66208">
        <ele>113.2</ele>
        <time>2022-07-10T07:48:15Z</time>
      </trkpt>
      <trkpt lat="44.87758" lon="0.66205">
        <ele>112.8</ele>
        <time>2022-07-10T07:48:17Z</time>
      </trkpt>
      <trkpt lat="44.87752" lon="0.66204">
        <ele>112.2</ele>
        <time>2022-07-10T07:48:18Z</time>
      </trkpt>
      <trkpt lat="44.87746" lon="0.662">
        <ele>112.3</ele>
        <time>2022-07-10T07:48:19Z</time>
      </trkpt>
      <trkpt lat="44.87734" lon="0.662">
        <ele>111.8</ele>
        <time>2022-07-10T07:48:21Z</time>
      </trkpt>
      <trkpt lat="44.87722" lon="0.66199">
        <ele>111.3</ele>
        <time>2022-07-10T07:48:23Z</time>
      </trkpt>
      <trkpt lat="44.87715" lon="0.66197">
        <ele>110.7</ele>
        <time>2022-07-10T07:48:24Z</time>
      </trkpt>
      <trkpt lat="44.87709" lon="0.66194">
        <ele>110.8</ele>
        <time>2022-07-10T07:48:25Z</time>
      </trkpt>
      <trkpt lat="44.87694" lon="0.66183">
        <ele>110.4</ele>
        <time>2022-07-10T07:48:27Z</time>
      </trkpt>
      <trkpt lat="44.87687" lon="0.66178">
        <ele>109.9</ele>
        <time>2022-07-10T07:48:28Z</time>
      </trkpt>
      <trkpt lat="44.87681" lon="0.66174">
        <ele>110.1</ele>
        <time>2022-07-10T07:48:29Z</time>
      </trkpt>
      <trkpt lat="44.87666" lon="0.66167">
        <ele>109.2</ele>
        <time>2022-07-10T07:48:31Z</time>
      </trkpt>
      <trkpt lat="44.8766" lon="0.66162">
        <ele>109.2</ele>
        <time>2022-07-10T07:48:32Z</time>
      </trkpt>
      <trkpt lat="44.87654" lon="0.66157">
        <ele>109.5</ele>
        <time>2022-07-10T07:48:33Z</time>
      </trkpt>
      <trkpt lat="44.87649" lon="0.66157">
        <ele>109.5</ele>
        <time>2022-07-10T07:48:34Z</time>
      </trkpt>
      <trkpt lat="44.87645" lon="0.66155">
        <ele>109.5</ele>
        <time>2022-07-10T07:48:35Z</time>
      </trkpt>
      <trkpt lat="44.87647" lon="0.66128">
        <ele>110.2</ele>
        <time>2022-07-10T07:48:36Z</time>
      </trkpt>
      <trkpt lat="44.87642" lon="0.66126">
        <ele>110.1</ele>
        <time>2022-07-10T07:48:37Z</time>
      </trkpt>
      <trkpt lat="44.87637" lon="0.66124">
        <ele>110.1</ele>
        <time>2022-07-10T07:48:38Z</time>
      </trkpt>
      <trkpt lat="44.87632" lon="0.66123">
        <ele>111.2</ele>
        <time>2022-07-10T07:48:39Z</time>
      </trkpt>
      <trkpt lat="44.87623" lon="0.6612">
        <ele>111.3</ele>
        <time>2022-07-10T07:48:41Z</time>
      </trkpt>
      <trkpt lat="44.87616" lon="0.66121">
        <ele>111.5</ele>
        <time>2022-07-10T07:48:42Z</time>
      </trkpt>
      <trkpt lat="44.87618" lon="0.66118">
        <ele>111.5</ele>
        <time>2022-07-10T07:48:43Z</time>
      </trkpt>
      <trkpt lat="44.87612" lon="0.66117">
        <ele>111.5</ele>
        <time>2022-07-10T07:48:44Z</time>
      </trkpt>
      <trkpt lat="44.87607" lon="0.66116">
        <ele>111.6</ele>
        <time>2022-07-10T07:48:45Z</time>
      </trkpt>
      <trkpt lat="44.87605" lon="0.66106">
        <ele>113.1</ele>
        <time>2022-07-10T07:48:47Z</time>
      </trkpt>
      <trkpt lat="44.87604" lon="0.66102">
        <ele>113.1</ele>
        <time>2022-07-10T07:48:48Z</time>
      </trkpt>
      <trkpt lat="44.87603" lon="0.66097">
        <ele>113.2</ele>
        <time>2022-07-10T07:48:49Z</time>
      </trkpt>
      <trkpt lat="44.87603" lon="0.6609">
        <ele>113.2</ele>
        <time>2022-07-10T07:48:51Z</time>
      </trkpt>
      <trkpt lat="44.87603" lon="0.66087">
        <ele>114.4</ele>
        <time>2022-07-10T07:48:52Z</time>
      </trkpt>
      <trkpt lat="44.87603" lon="0.66082">
        <ele>114.5</ele>
        <time>2022-07-10T07:48:53Z</time>
      </trkpt>
      <trkpt lat="44.87603" lon="0.66074">
        <ele>114.5</ele>
        <time>2022-07-10T07:48:55Z</time>
      </trkpt>
      <trkpt lat="44.87602" lon="0.66071">
        <ele>115.6</ele>
        <time>2022-07-10T07:48:56Z</time>
      </trkpt>
      <trkpt lat="44.87601" lon="0.66068">
        <ele>115.7</ele>
        <time>2022-07-10T07:48:57Z</time>
      </trkpt>
      <trkpt lat="44.87601" lon="0.66061">
        <ele>115.7</ele>
        <time>2022-07-10T07:48:59Z</time>
      </trkpt>
      <trkpt lat="44.876" lon="0.66055">
        <ele>115.7</ele>
        <time>2022-07-10T07:49:01Z</time>
      </trkpt>
      <trkpt lat="44.87599" lon="0.66049">
        <ele>116.9</ele>
        <time>2022-07-10T07:49:03Z</time>
      </trkpt>
      <trkpt lat="44.87599" lon="0.66045">
        <ele>116.9</ele>
        <time>2022-07-10T07:49:05Z</time>
      </trkpt>
      <trkpt lat="44.87599" lon="0.66043">
        <ele>117</ele>
        <time>2022-07-10T07:49:06Z</time>
      </trkpt>
      <trkpt lat="44.87597" lon="0.66038">
        <ele>117.9</ele>
        <time>2022-07-10T07:49:08Z</time>
      </trkpt>
      <trkpt lat="44.87597" lon="0.66034">
        <ele>117.9</ele>
        <time>2022-07-10T07:49:09Z</time>
      </trkpt>
      <trkpt lat="44.87596" lon="0.66027">
        <ele>118</ele>
        <time>2022-07-10T07:49:11Z</time>
      </trkpt>
      <trkpt lat="44.87594" lon="0.66022">
        <ele>118.1</ele>
        <time>2022-07-10T07:49:13Z</time>
      </trkpt>
      <trkpt lat="44.87593" lon="0.66016">
        <ele>119.1</ele>
        <time>2022-07-10T07:49:15Z</time>
      </trkpt>
      <trkpt lat="44.87594" lon="0.66009">
        <ele>119.1</ele>
        <time>2022-07-10T07:49:17Z</time>
      </trkpt>
      <trkpt lat="44.87593" lon="0.66006">
        <ele>119.1</ele>
        <time>2022-07-10T07:49:18Z</time>
      </trkpt>
      <trkpt lat="44.87592" lon="0.66003">
        <ele>119.9</ele>
        <time>2022-07-10T07:49:19Z</time>
      </trkpt>
      <trkpt lat="44.87592" lon="0.65997">
        <ele>119.9</ele>
        <time>2022-07-10T07:49:21Z</time>
      </trkpt>
      <trkpt lat="44.87592" lon="0.65994">
        <ele>120</ele>
        <time>2022-07-10T07:49:22Z</time>
      </trkpt>
      <trkpt lat="44.87591" lon="0.65991">
        <ele>120</ele>
        <time>2022-07-10T07:49:23Z</time>
      </trkpt>
      <trkpt lat="44.8759" lon="0.65989">
        <ele>120</ele>
        <time>2022-07-10T07:49:24Z</time>
      </trkpt>
      <trkpt lat="44.87588" lon="0.65987">
        <ele>120.1</ele>
        <time>2022-07-10T07:49:25Z</time>
      </trkpt>
      <trkpt lat="44.8759" lon="0.65984">
        <ele>120.6</ele>
        <time>2022-07-10T07:49:26Z</time>
      </trkpt>
      <trkpt lat="44.8759" lon="0.6598">
        <ele>120.7</ele>
        <time>2022-07-10T07:49:27Z</time>
      </trkpt>
      <trkpt lat="44.8759" lon="0.65975">
        <ele>120.7</ele>
        <time>2022-07-10T07:49:29Z</time>
      </trkpt>
      <trkpt lat="44.87591" lon="0.65972">
        <ele>120.7</ele>
        <time>2022-07-10T07:49:30Z</time>
      </trkpt>
      <trkpt lat="44.87592" lon="0.6597">
        <ele>120.8</ele>
        <time>2022-07-10T07:49:31Z</time>
      </trkpt>
      <trkpt lat="44.87595" lon="0.65963">
        <ele>120.8</ele>
        <time>2022-07-10T07:49:33Z</time>
      </trkpt>
      <trkpt lat="44.87595" lon="0.65961">
        <ele>120.8</ele>
        <time>2022-07-10T07:49:34Z</time>
      </trkpt>
      <trkpt lat="44.87594" lon="0.65958">
        <ele>121.3</ele>
        <time>2022-07-10T07:49:35Z</time>
      </trkpt>
      <trkpt lat="44.87591" lon="0.65951">
        <ele>121.6</ele>
        <time>2022-07-10T07:49:37Z</time>
      </trkpt>
      <trkpt lat="44.8759" lon="0.65946">
        <ele>121.7</ele>
        <time>2022-07-10T07:49:38Z</time>
      </trkpt>
      <trkpt lat="44.87589" lon="0.65942">
        <ele>121.7</ele>
        <time>2022-07-10T07:49:39Z</time>
      </trkpt>
      <trkpt lat="44.87589" lon="0.65937">
        <ele>121.7</ele>
        <time>2022-07-10T07:49:41Z</time>
      </trkpt>
      <trkpt lat="44.87591" lon="0.65935">
        <ele>121.8</ele>
        <time>2022-07-10T07:49:42Z</time>
      </trkpt>
      <trkpt lat="44.87594" lon="0.65934">
        <ele>122</ele>
        <time>2022-07-10T07:49:43Z</time>
      </trkpt>
      <trkpt lat="44.87595" lon="0.6593">
        <ele>121.4</ele>
        <time>2022-07-10T07:49:44Z</time>
      </trkpt>
      <trkpt lat="44.87594" lon="0.65927">
        <ele>122.1</ele>
        <time>2022-07-10T07:49:45Z</time>
      </trkpt>
      <trkpt lat="44.87594" lon="0.65924">
        <ele>122.1</ele>
        <time>2022-07-10T07:49:46Z</time>
      </trkpt>
      <trkpt lat="44.87594" lon="0.6592">
        <ele>122.1</ele>
        <time>2022-07-10T07:49:47Z</time>
      </trkpt>
      <trkpt lat="44.87595" lon="0.65916">
        <ele>121.8</ele>
        <time>2022-07-10T07:49:49Z</time>
      </trkpt>
      <trkpt lat="44.87596" lon="0.65913">
        <ele>121.8</ele>
        <time>2022-07-10T07:49:50Z</time>
      </trkpt>
      <trkpt lat="44.87597" lon="0.65911">
        <ele>121.9</ele>
        <time>2022-07-10T07:49:51Z</time>
      </trkpt>
      <trkpt lat="44.87596" lon="0.65908">
        <ele>121.9</ele>
        <time>2022-07-10T07:49:52Z</time>
      </trkpt>
      <trkpt lat="44.87596" lon="0.65906">
        <ele>121.9</ele>
        <time>2022-07-10T07:49:53Z</time>
      </trkpt>
      <trkpt lat="44.87597" lon="0.65903">
        <ele>122</ele>
        <time>2022-07-10T07:49:54Z</time>
      </trkpt>
      <trkpt lat="44.87597" lon="0.65901">
        <ele>122</ele>
        <time>2022-07-10T07:49:55Z</time>
      </trkpt>
      <trkpt lat="44.87597" lon="0.65898">
        <ele>122.1</ele>
        <time>2022-07-10T07:49:56Z</time>
      </trkpt>
      <trkpt lat="44.87595" lon="0.65896">
        <ele>122.2</ele>
        <time>2022-07-10T07:49:57Z</time>
      </trkpt>
      <trkpt lat="44.87595" lon="0.65895">
        <ele>122.2</ele>
        <time>2022-07-10T07:49:58Z</time>
      </trkpt>
      <trkpt lat="44.87595" lon="0.65893">
        <ele>122.2</ele>
        <time>2022-07-10T07:49:59Z</time>
      </trkpt>
      <trkpt lat="44.87594" lon="0.65887">
        <ele>122.9</ele>
        <time>2022-07-10T07:50:01Z</time>
      </trkpt>
      <trkpt lat="44.87592" lon="0.65882">
        <ele>123.1</ele>
        <time>2022-07-10T07:50:03Z</time>
      </trkpt>
      <trkpt lat="44.8759" lon="0.65876">
        <ele>123.2</ele>
        <time>2022-07-10T07:50:05Z</time>
      </trkpt>
      <trkpt lat="44.87592" lon="0.65874">
        <ele>123.2</ele>
        <time>2022-07-10T07:50:06Z</time>
      </trkpt>
      <trkpt lat="44.87593" lon="0.65872">
        <ele>123.2</ele>
        <time>2022-07-10T07:50:07Z</time>
      </trkpt>
      <trkpt lat="44.87592" lon="0.65869">
        <ele>123.3</ele>
        <time>2022-07-10T07:50:08Z</time>
      </trkpt>
      <trkpt lat="44.87594" lon="0.65867">
        <ele>123.3</ele>
        <time>2022-07-10T07:50:09Z</time>
      </trkpt>
      <trkpt lat="44.87594" lon="0.65864">
        <ele>123.6</ele>
        <time>2022-07-10T07:50:10Z</time>
      </trkpt>
      <trkpt lat="44.87595" lon="0.65862">
        <ele>122.8</ele>
        <time>2022-07-10T07:50:11Z</time>
      </trkpt>
      <trkpt lat="44.87597" lon="0.65858">
        <ele>122.8</ele>
        <time>2022-07-10T07:50:13Z</time>
      </trkpt>
      <trkpt lat="44.87598" lon="0.65855">
        <ele>122.9</ele>
        <time>2022-07-10T07:50:14Z</time>
      </trkpt>
      <trkpt lat="44.87597" lon="0.65851">
        <ele>122.9</ele>
        <time>2022-07-10T07:50:15Z</time>
      </trkpt>
      <trkpt lat="44.87595" lon="0.65844">
        <ele>122.9</ele>
        <time>2022-07-10T07:50:17Z</time>
      </trkpt>
      <trkpt lat="44.87594" lon="0.65841">
        <ele>123.9</ele>
        <time>2022-07-10T07:50:18Z</time>
      </trkpt>
      <trkpt lat="44.87593" lon="0.65837">
        <ele>123.9</ele>
        <time>2022-07-10T07:50:19Z</time>
      </trkpt>
      <trkpt lat="44.87596" lon="0.6583">
        <ele>122.7</ele>
        <time>2022-07-10T07:50:21Z</time>
      </trkpt>
      <trkpt lat="44.87599" lon="0.65826">
        <ele>122.8</ele>
        <time>2022-07-10T07:50:22Z</time>
      </trkpt>
      <trkpt lat="44.87601" lon="0.65821">
        <ele>122.8</ele>
        <time>2022-07-10T07:50:23Z</time>
      </trkpt>
      <trkpt lat="44.8761" lon="0.6581">
        <ele>122</ele>
        <time>2022-07-10T07:50:25Z</time>
      </trkpt>
      <trkpt lat="44.87613" lon="0.65806">
        <ele>122.1</ele>
        <time>2022-07-10T07:50:26Z</time>
      </trkpt>
      <trkpt lat="44.87618" lon="0.65802">
        <ele>122.1</ele>
        <time>2022-07-10T07:50:27Z</time>
      </trkpt>
      <trkpt lat="44.87619" lon="0.65799">
        <ele>121.8</ele>
        <time>2022-07-10T07:50:28Z</time>
      </trkpt>
      <trkpt lat="44.87619" lon="0.65796">
        <ele>121.4</ele>
        <time>2022-07-10T07:50:29Z</time>
      </trkpt>
      <trkpt lat="44.87621" lon="0.65793">
        <ele>121.4</ele>
        <time>2022-07-10T07:50:30Z</time>
      </trkpt>
      <trkpt lat="44.87623" lon="0.65791">
        <ele>121.5</ele>
        <time>2022-07-10T07:50:31Z</time>
      </trkpt>
      <trkpt lat="44.87623" lon="0.65786">
        <ele>121.3</ele>
        <time>2022-07-10T07:50:33Z</time>
      </trkpt>
      <trkpt lat="44.87625" lon="0.65782">
        <ele>121.2</ele>
        <time>2022-07-10T07:50:34Z</time>
      </trkpt>
      <trkpt lat="44.87625" lon="0.65778">
        <ele>121</ele>
        <time>2022-07-10T07:50:35Z</time>
      </trkpt>
      <trkpt lat="44.87626" lon="0.65768">
        <ele>120.6</ele>
        <time>2022-07-10T07:50:37Z</time>
      </trkpt>
      <trkpt lat="44.87626" lon="0.65762">
        <ele>120.4</ele>
        <time>2022-07-10T07:50:38Z</time>
      </trkpt>
      <trkpt lat="44.87627" lon="0.65754">
        <ele>120.1</ele>
        <time>2022-07-10T07:50:39Z</time>
      </trkpt>
      <trkpt lat="44.87629" lon="0.65735">
        <ele>119.4</ele>
        <time>2022-07-10T07:50:41Z</time>
      </trkpt>
      <trkpt lat="44.8763" lon="0.65727">
        <ele>119.1</ele>
        <time>2022-07-10T07:50:42Z</time>
      </trkpt>
      <trkpt lat="44.87628" lon="0.65721">
        <ele>118.8</ele>
        <time>2022-07-10T07:50:43Z</time>
      </trkpt>
      <trkpt lat="44.8764" lon="0.65705">
        <ele>117.6</ele>
        <time>2022-07-10T07:50:45Z</time>
      </trkpt>
      <trkpt lat="44.87638" lon="0.65682">
        <ele>116.2</ele>
        <time>2022-07-10T07:50:47Z</time>
      </trkpt>
      <trkpt lat="44.87637" lon="0.6567">
        <ele>115.6</ele>
        <time>2022-07-10T07:50:48Z</time>
      </trkpt>
      <trkpt lat="44.87636" lon="0.65658">
        <ele>115</ele>
        <time>2022-07-10T07:50:49Z</time>
      </trkpt>
      <trkpt lat="44.87635" lon="0.65647">
        <ele>114.4</ele>
        <time>2022-07-10T07:50:50Z</time>
      </trkpt>
      <trkpt lat="44.87634" lon="0.65635">
        <ele>113.8</ele>
        <time>2022-07-10T07:50:51Z</time>
      </trkpt>
      <trkpt lat="44.87632" lon="0.65612">
        <ele>112.6</ele>
        <time>2022-07-10T07:50:53Z</time>
      </trkpt>
      <trkpt lat="44.87631" lon="0.656">
        <ele>112.1</ele>
        <time>2022-07-10T07:50:54Z</time>
      </trkpt>
      <trkpt lat="44.8763" lon="0.6559">
        <ele>111.7</ele>
        <time>2022-07-10T07:50:55Z</time>
      </trkpt>
      <trkpt lat="44.87629" lon="0.65579">
        <ele>111.4</ele>
        <time>2022-07-10T07:50:56Z</time>
      </trkpt>
      <trkpt lat="44.87628" lon="0.65567">
        <ele>111.2</ele>
        <time>2022-07-10T07:50:57Z</time>
      </trkpt>
      <trkpt lat="44.87627" lon="0.65555">
        <ele>111.4</ele>
        <time>2022-07-10T07:50:58Z</time>
      </trkpt>
      <trkpt lat="44.8761" lon="0.65546">
        <ele>111.5</ele>
        <time>2022-07-10T07:50:59Z</time>
      </trkpt>
      <trkpt lat="44.87575" lon="0.65528">
        <ele>112</ele>
        <time>2022-07-10T07:51:01Z</time>
      </trkpt>
      <trkpt lat="44.87564" lon="0.65515">
        <ele>112.3</ele>
        <time>2022-07-10T07:51:03Z</time>
      </trkpt>
      <trkpt lat="44.87554" lon="0.65502">
        <ele>112.8</ele>
        <time>2022-07-10T07:51:05Z</time>
      </trkpt>
      <trkpt lat="44.87545" lon="0.65497">
        <ele>112.9</ele>
        <time>2022-07-10T07:51:07Z</time>
      </trkpt>
      <trkpt lat="44.87536" lon="0.65496">
        <ele>112.9</ele>
        <time>2022-07-10T07:51:09Z</time>
      </trkpt>
      <trkpt lat="44.8753" lon="0.65495">
        <ele>113.1</ele>
        <time>2022-07-10T07:51:10Z</time>
      </trkpt>
      <trkpt lat="44.87524" lon="0.65494">
        <ele>113.1</ele>
        <time>2022-07-10T07:51:11Z</time>
      </trkpt>
      <trkpt lat="44.87517" lon="0.65495">
        <ele>113.2</ele>
        <time>2022-07-10T07:51:12Z</time>
      </trkpt>
      <trkpt lat="44.87509" lon="0.65495">
        <ele>113.3</ele>
        <time>2022-07-10T07:51:13Z</time>
      </trkpt>
      <trkpt lat="44.87496" lon="0.65497">
        <ele>113.3</ele>
        <time>2022-07-10T07:51:15Z</time>
      </trkpt>
      <trkpt lat="44.87482" lon="0.65502">
        <ele>113.3</ele>
        <time>2022-07-10T07:51:17Z</time>
      </trkpt>
      <trkpt lat="44.87469" lon="0.65509">
        <ele>112</ele>
        <time>2022-07-10T07:51:19Z</time>
      </trkpt>
      <trkpt lat="44.87463" lon="0.6551">
        <ele>112</ele>
        <time>2022-07-10T07:51:20Z</time>
      </trkpt>
      <trkpt lat="44.87457" lon="0.6551">
        <ele>111.9</ele>
        <time>2022-07-10T07:51:21Z</time>
      </trkpt>
      <trkpt lat="44.87445" lon="0.65509">
        <ele>111.6</ele>
        <time>2022-07-10T07:51:23Z</time>
      </trkpt>
      <trkpt lat="44.87438" lon="0.65507">
        <ele>111.6</ele>
        <time>2022-07-10T07:51:24Z</time>
      </trkpt>
      <trkpt lat="44.87432" lon="0.65505">
        <ele>112.3</ele>
        <time>2022-07-10T07:51:25Z</time>
      </trkpt>
      <trkpt lat="44.87425" lon="0.65502">
        <ele>112.3</ele>
        <time>2022-07-10T07:51:26Z</time>
      </trkpt>
      <trkpt lat="44.87419" lon="0.65499">
        <ele>111.7</ele>
        <time>2022-07-10T07:51:27Z</time>
      </trkpt>
      <trkpt lat="44.87413" lon="0.65497">
        <ele>111.7</ele>
        <time>2022-07-10T07:51:28Z</time>
      </trkpt>
      <trkpt lat="44.87407" lon="0.65495">
        <ele>110.9</ele>
        <time>2022-07-10T07:51:29Z</time>
      </trkpt>
      <trkpt lat="44.87394" lon="0.6549">
        <ele>110.2</ele>
        <time>2022-07-10T07:51:31Z</time>
      </trkpt>
      <trkpt lat="44.87387" lon="0.65488">
        <ele>109.5</ele>
        <time>2022-07-10T07:51:32Z</time>
      </trkpt>
      <trkpt lat="44.87379" lon="0.65485">
        <ele>109.5</ele>
        <time>2022-07-10T07:51:33Z</time>
      </trkpt>
      <trkpt lat="44.87364" lon="0.65481">
        <ele>108.4</ele>
        <time>2022-07-10T07:51:35Z</time>
      </trkpt>
      <trkpt lat="44.87358" lon="0.65479">
        <ele>106.9</ele>
        <time>2022-07-10T07:51:36Z</time>
      </trkpt>
      <trkpt lat="44.87351" lon="0.65477">
        <ele>106.9</ele>
        <time>2022-07-10T07:51:37Z</time>
      </trkpt>
      <trkpt lat="44.87345" lon="0.65474">
        <ele>105.2</ele>
        <time>2022-07-10T07:51:38Z</time>
      </trkpt>
      <trkpt lat="44.87339" lon="0.65469">
        <ele>105.3</ele>
        <time>2022-07-10T07:51:39Z</time>
      </trkpt>
      <trkpt lat="44.87332" lon="0.65463">
        <ele>103.2</ele>
        <time>2022-07-10T07:51:40Z</time>
      </trkpt>
      <trkpt lat="44.87327" lon="0.65458">
        <ele>103.2</ele>
        <time>2022-07-10T07:51:41Z</time>
      </trkpt>
      <trkpt lat="44.87317" lon="0.65446">
        <ele>101.3</ele>
        <time>2022-07-10T07:51:43Z</time>
      </trkpt>
      <trkpt lat="44.87311" lon="0.65434">
        <ele>99.6</ele>
        <time>2022-07-10T07:51:45Z</time>
      </trkpt>
      <trkpt lat="44.8731" lon="0.65427">
        <ele>99.6</ele>
        <time>2022-07-10T07:51:46Z</time>
      </trkpt>
      <trkpt lat="44.8731" lon="0.6542">
        <ele>100</ele>
        <time>2022-07-10T07:51:47Z</time>
      </trkpt>
      <trkpt lat="44.87313" lon="0.65409">
        <ele>100</ele>
        <time>2022-07-10T07:51:49Z</time>
      </trkpt>
      <trkpt lat="44.87314" lon="0.65402">
        <ele>100.8</ele>
        <time>2022-07-10T07:51:50Z</time>
      </trkpt>
      <trkpt lat="44.87315" lon="0.65396">
        <ele>102.5</ele>
        <time>2022-07-10T07:51:51Z</time>
      </trkpt>
      <trkpt lat="44.87316" lon="0.6539">
        <ele>102.5</ele>
        <time>2022-07-10T07:51:52Z</time>
      </trkpt>
      <trkpt lat="44.87317" lon="0.65383">
        <ele>103.7</ele>
        <time>2022-07-10T07:51:53Z</time>
      </trkpt>
      <trkpt lat="44.87316" lon="0.65371">
        <ele>103.7</ele>
        <time>2022-07-10T07:51:55Z</time>
      </trkpt>
      <trkpt lat="44.87316" lon="0.65365">
        <ele>104.8</ele>
        <time>2022-07-10T07:51:56Z</time>
      </trkpt>
      <trkpt lat="44.87316" lon="0.65359">
        <ele>104.8</ele>
        <time>2022-07-10T07:51:57Z</time>
      </trkpt>
      <trkpt lat="44.87315" lon="0.65349">
        <ele>105.4</ele>
        <time>2022-07-10T07:51:59Z</time>
      </trkpt>
      <trkpt lat="44.87316" lon="0.65344">
        <ele>105.4</ele>
        <time>2022-07-10T07:52:00Z</time>
      </trkpt>
      <trkpt lat="44.87315" lon="0.6534">
        <ele>105.4</ele>
        <time>2022-07-10T07:52:01Z</time>
      </trkpt>
      <trkpt lat="44.87317" lon="0.65334">
        <ele>105.8</ele>
        <time>2022-07-10T07:52:03Z</time>
      </trkpt>
      <trkpt lat="44.87318" lon="0.6533">
        <ele>105.8</ele>
        <time>2022-07-10T07:52:04Z</time>
      </trkpt>
      <trkpt lat="44.87318" lon="0.65324">
        <ele>105.8</ele>
        <time>2022-07-10T07:52:05Z</time>
      </trkpt>
      <trkpt lat="44.87318" lon="0.65318">
        <ele>105.8</ele>
        <time>2022-07-10T07:52:07Z</time>
      </trkpt>
      <trkpt lat="44.87318" lon="0.65313">
        <ele>106.1</ele>
        <time>2022-07-10T07:52:09Z</time>
      </trkpt>
      <trkpt lat="44.87317" lon="0.65308">
        <ele>106.1</ele>
        <time>2022-07-10T07:52:11Z</time>
      </trkpt>
      <trkpt lat="44.87317" lon="0.65304">
        <ele>106.1</ele>
        <time>2022-07-10T07:52:12Z</time>
      </trkpt>
      <trkpt lat="44.87317" lon="0.65301">
        <ele>106.1</ele>
        <time>2022-07-10T07:52:13Z</time>
      </trkpt>
      <trkpt lat="44.87318" lon="0.65298">
        <ele>106.3</ele>
        <time>2022-07-10T07:52:15Z</time>
      </trkpt>
      <trkpt lat="44.87317" lon="0.65294">
        <ele>106.3</ele>
        <time>2022-07-10T07:52:16Z</time>
      </trkpt>
      <trkpt lat="44.87317" lon="0.6529">
        <ele>106.3</ele>
        <time>2022-07-10T07:52:17Z</time>
      </trkpt>
      <trkpt lat="44.87315" lon="0.65285">
        <ele>106.3</ele>
        <time>2022-07-10T07:52:19Z</time>
      </trkpt>
      <trkpt lat="44.87315" lon="0.65281">
        <ele>106.6</ele>
        <time>2022-07-10T07:52:20Z</time>
      </trkpt>
      <trkpt lat="44.87315" lon="0.65279">
        <ele>105.2</ele>
        <time>2022-07-10T07:52:21Z</time>
      </trkpt>
      <trkpt lat="44.87315" lon="0.65275">
        <ele>106.6</ele>
        <time>2022-07-10T07:52:22Z</time>
      </trkpt>
      <trkpt lat="44.87317" lon="0.65273">
        <ele>106.6</ele>
        <time>2022-07-10T07:52:23Z</time>
      </trkpt>
      <trkpt lat="44.87318" lon="0.65272">
        <ele>106.6</ele>
        <time>2022-07-10T07:52:24Z</time>
      </trkpt>
      <trkpt lat="44.8732" lon="0.65268">
        <ele>106.6</ele>
        <time>2022-07-10T07:52:25Z</time>
      </trkpt>
      <trkpt lat="44.8732" lon="0.65263">
        <ele>106.7</ele>
        <time>2022-07-10T07:52:27Z</time>
      </trkpt>
      <trkpt lat="44.87322" lon="0.65257">
        <ele>106.7</ele>
        <time>2022-07-10T07:52:29Z</time>
      </trkpt>
      <trkpt lat="44.87325" lon="0.6525">
        <ele>106.7</ele>
        <time>2022-07-10T07:52:31Z</time>
      </trkpt>
      <trkpt lat="44.87325" lon="0.65243">
        <ele>106.9</ele>
        <time>2022-07-10T07:52:33Z</time>
      </trkpt>
      <trkpt lat="44.87326" lon="0.65239">
        <ele>106.9</ele>
        <time>2022-07-10T07:52:34Z</time>
      </trkpt>
      <trkpt lat="44.87328" lon="0.65234">
        <ele>108.5</ele>
        <time>2022-07-10T07:52:35Z</time>
      </trkpt>
      <trkpt lat="44.87329" lon="0.65232">
        <ele>108.5</ele>
        <time>2022-07-10T07:52:36Z</time>
      </trkpt>
      <trkpt lat="44.87332" lon="0.65229">
        <ele>108.2</ele>
        <time>2022-07-10T07:52:37Z</time>
      </trkpt>
      <trkpt lat="44.87334" lon="0.65225">
        <ele>108.2</ele>
        <time>2022-07-10T07:52:38Z</time>
      </trkpt>
      <trkpt lat="44.87337" lon="0.65222">
        <ele>108.2</ele>
        <time>2022-07-10T07:52:39Z</time>
      </trkpt>
      <trkpt lat="44.87342" lon="0.65217">
        <ele>109.8</ele>
        <time>2022-07-10T07:52:41Z</time>
      </trkpt>
      <trkpt lat="44.87347" lon="0.65211">
        <ele>109.1</ele>
        <time>2022-07-10T07:52:43Z</time>
      </trkpt>
      <trkpt lat="44.87349" lon="0.65209">
        <ele>109.1</ele>
        <time>2022-07-10T07:52:44Z</time>
      </trkpt>
      <trkpt lat="44.87351" lon="0.65206">
        <ele>109.1</ele>
        <time>2022-07-10T07:52:45Z</time>
      </trkpt>
      <trkpt lat="44.87356" lon="0.65201">
        <ele>110.3</ele>
        <time>2022-07-10T07:52:47Z</time>
      </trkpt>
      <trkpt lat="44.8736" lon="0.65195">
        <ele>109.6</ele>
        <time>2022-07-10T07:52:49Z</time>
      </trkpt>
      <trkpt lat="44.87366" lon="0.6519">
        <ele>110.8</ele>
        <time>2022-07-10T07:52:51Z</time>
      </trkpt>
      <trkpt lat="44.87371" lon="0.65186">
        <ele>110.8</ele>
        <time>2022-07-10T07:52:53Z</time>
      </trkpt>
      <trkpt lat="44.87374" lon="0.65184">
        <ele>110.8</ele>
        <time>2022-07-10T07:52:54Z</time>
      </trkpt>
      <trkpt lat="44.87376" lon="0.65181">
        <ele>111.9</ele>
        <time>2022-07-10T07:52:55Z</time>
      </trkpt>
      <trkpt lat="44.8738" lon="0.65177">
        <ele>111</ele>
        <time>2022-07-10T07:52:57Z</time>
      </trkpt>
      <trkpt lat="44.87382" lon="0.65174">
        <ele>111</ele>
        <time>2022-07-10T07:52:58Z</time>
      </trkpt>
      <trkpt lat="44.87384" lon="0.65173">
        <ele>111</ele>
        <time>2022-07-10T07:52:59Z</time>
      </trkpt>
      <trkpt lat="44.8739" lon="0.6517">
        <ele>112.1</ele>
        <time>2022-07-10T07:53:01Z</time>
      </trkpt>
      <trkpt lat="44.87391" lon="0.65168">
        <ele>112.1</ele>
        <time>2022-07-10T07:53:02Z</time>
      </trkpt>
      <trkpt lat="44.87393" lon="0.65166">
        <ele>112.1</ele>
        <time>2022-07-10T07:53:03Z</time>
      </trkpt>
      <trkpt lat="44.87393" lon="0.65161">
        <ele>111.4</ele>
        <time>2022-07-10T07:53:05Z</time>
      </trkpt>
      <trkpt lat="44.87395" lon="0.65158">
        <ele>111.4</ele>
        <time>2022-07-10T07:53:06Z</time>
      </trkpt>
      <trkpt lat="44.87396" lon="0.65154">
        <ele>111.4</ele>
        <time>2022-07-10T07:53:07Z</time>
      </trkpt>
      <trkpt lat="44.87398" lon="0.65151">
        <ele>111.4</ele>
        <time>2022-07-10T07:53:08Z</time>
      </trkpt>
      <trkpt lat="44.87399" lon="0.65149">
        <ele>111.4</ele>
        <time>2022-07-10T07:53:09Z</time>
      </trkpt>
      <trkpt lat="44.874" lon="0.65141">
        <ele>112.1</ele>
        <time>2022-07-10T07:53:11Z</time>
      </trkpt>
      <trkpt lat="44.87401" lon="0.65139">
        <ele>112.1</ele>
        <time>2022-07-10T07:53:12Z</time>
      </trkpt>
      <trkpt lat="44.87401" lon="0.65135">
        <ele>112.1</ele>
        <time>2022-07-10T07:53:13Z</time>
      </trkpt>
      <trkpt lat="44.87404" lon="0.65132">
        <ele>112.1</ele>
        <time>2022-07-10T07:53:14Z</time>
      </trkpt>
      <trkpt lat="44.87405" lon="0.65128">
        <ele>112.1</ele>
        <time>2022-07-10T07:53:15Z</time>
      </trkpt>
      <trkpt lat="44.87407" lon="0.6512">
        <ele>112.1</ele>
        <time>2022-07-10T07:53:17Z</time>
      </trkpt>
      <trkpt lat="44.87409" lon="0.65118">
        <ele>112.1</ele>
        <time>2022-07-10T07:53:18Z</time>
      </trkpt>
      <trkpt lat="44.8741" lon="0.65114">
        <ele>112.1</ele>
        <time>2022-07-10T07:53:19Z</time>
      </trkpt>
      <trkpt lat="44.87415" lon="0.65108">
        <ele>113</ele>
        <time>2022-07-10T07:53:21Z</time>
      </trkpt>
      <trkpt lat="44.87417" lon="0.65105">
        <ele>113</ele>
        <time>2022-07-10T07:53:22Z</time>
      </trkpt>
      <trkpt lat="44.8742" lon="0.65103">
        <ele>113</ele>
        <time>2022-07-10T07:53:23Z</time>
      </trkpt>
      <trkpt lat="44.87423" lon="0.65097">
        <ele>113</ele>
        <time>2022-07-10T07:53:25Z</time>
      </trkpt>
      <trkpt lat="44.87423" lon="0.65095">
        <ele>113</ele>
        <time>2022-07-10T07:53:26Z</time>
      </trkpt>
      <trkpt lat="44.87423" lon="0.65092">
        <ele>113.2</ele>
        <time>2022-07-10T07:53:27Z</time>
      </trkpt>
      <trkpt lat="44.87421" lon="0.65086">
        <ele>113.2</ele>
        <time>2022-07-10T07:53:29Z</time>
      </trkpt>
      <trkpt lat="44.8742" lon="0.65082">
        <ele>113.2</ele>
        <time>2022-07-10T07:53:31Z</time>
      </trkpt>
      <trkpt lat="44.87419" lon="0.65075">
        <ele>113.6</ele>
        <time>2022-07-10T07:53:33Z</time>
      </trkpt>
      <trkpt lat="44.87419" lon="0.65071">
        <ele>113.6</ele>
        <time>2022-07-10T07:53:35Z</time>
      </trkpt>
      <trkpt lat="44.87419" lon="0.65069">
        <ele>113.6</ele>
        <time>2022-07-10T07:53:36Z</time>
      </trkpt>
      <trkpt lat="44.87427" lon="0.6505">
        <ele>114.2</ele>
        <time>2022-07-10T07:53:59Z</time>
      </trkpt>
      <trkpt lat="44.87428" lon="0.65043">
        <ele>114.2</ele>
        <time>2022-07-10T07:54:01Z</time>
      </trkpt>
      <trkpt lat="44.87429" lon="0.65041">
        <ele>114.7</ele>
        <time>2022-07-10T07:54:02Z</time>
      </trkpt>
      <trkpt lat="44.87431" lon="0.65037">
        <ele>114.7</ele>
        <time>2022-07-10T07:54:03Z</time>
      </trkpt>
      <trkpt lat="44.87434" lon="0.65031">
        <ele>114.7</ele>
        <time>2022-07-10T07:54:05Z</time>
      </trkpt>
      <trkpt lat="44.87438" lon="0.65026">
        <ele>114.7</ele>
        <time>2022-07-10T07:54:07Z</time>
      </trkpt>
      <trkpt lat="44.87442" lon="0.6502">
        <ele>115</ele>
        <time>2022-07-10T07:54:09Z</time>
      </trkpt>
      <trkpt lat="44.87445" lon="0.65013">
        <ele>115</ele>
        <time>2022-07-10T07:54:11Z</time>
      </trkpt>
      <trkpt lat="44.87446" lon="0.6501">
        <ele>115</ele>
        <time>2022-07-10T07:54:12Z</time>
      </trkpt>
      <trkpt lat="44.87447" lon="0.65007">
        <ele>115.2</ele>
        <time>2022-07-10T07:54:13Z</time>
      </trkpt>
      <trkpt lat="44.8745" lon="0.65">
        <ele>115</ele>
        <time>2022-07-10T07:54:15Z</time>
      </trkpt>
      <trkpt lat="44.8745" lon="0.64994">
        <ele>115</ele>
        <time>2022-07-10T07:54:16Z</time>
      </trkpt>
      <trkpt lat="44.87451" lon="0.6499">
        <ele>115.2</ele>
        <time>2022-07-10T07:54:17Z</time>
      </trkpt>
      <trkpt lat="44.87452" lon="0.64986">
        <ele>115.2</ele>
        <time>2022-07-10T07:54:18Z</time>
      </trkpt>
      <trkpt lat="44.87451" lon="0.64983">
        <ele>115.2</ele>
        <time>2022-07-10T07:54:19Z</time>
      </trkpt>
      <trkpt lat="44.87453" lon="0.64977">
        <ele>115.2</ele>
        <time>2022-07-10T07:54:21Z</time>
      </trkpt>
      <trkpt lat="44.87453" lon="0.64972">
        <ele>115.3</ele>
        <time>2022-07-10T07:54:22Z</time>
      </trkpt>
      <trkpt lat="44.87453" lon="0.64968">
        <ele>115.3</ele>
        <time>2022-07-10T07:54:23Z</time>
      </trkpt>
      <trkpt lat="44.87453" lon="0.64962">
        <ele>115.3</ele>
        <time>2022-07-10T07:54:25Z</time>
      </trkpt>
      <trkpt lat="44.87454" lon="0.64958">
        <ele>115.3</ele>
        <time>2022-07-10T07:54:26Z</time>
      </trkpt>
      <trkpt lat="44.87454" lon="0.64956">
        <ele>115.8</ele>
        <time>2022-07-10T07:54:27Z</time>
      </trkpt>
      <trkpt lat="44.87455" lon="0.64952">
        <ele>115.8</ele>
        <time>2022-07-10T07:54:29Z</time>
      </trkpt>
      <trkpt lat="44.87455" lon="0.64946">
        <ele>115.8</ele>
        <time>2022-07-10T07:54:31Z</time>
      </trkpt>
      <trkpt lat="44.87456" lon="0.6494">
        <ele>115.8</ele>
        <time>2022-07-10T07:54:33Z</time>
      </trkpt>
      <trkpt lat="44.87458" lon="0.64935">
        <ele>116.6</ele>
        <time>2022-07-10T07:54:35Z</time>
      </trkpt>
      <trkpt lat="44.87459" lon="0.6493">
        <ele>116.6</ele>
        <time>2022-07-10T07:54:37Z</time>
      </trkpt>
      <trkpt lat="44.8746" lon="0.64927">
        <ele>116.6</ele>
        <time>2022-07-10T07:54:38Z</time>
      </trkpt>
      <trkpt lat="44.8746" lon="0.64923">
        <ele>116.6</ele>
        <time>2022-07-10T07:54:39Z</time>
      </trkpt>
      <trkpt lat="44.87459" lon="0.64918">
        <ele>117.6</ele>
        <time>2022-07-10T07:54:41Z</time>
      </trkpt>
      <trkpt lat="44.87458" lon="0.64914">
        <ele>117.6</ele>
        <time>2022-07-10T07:54:43Z</time>
      </trkpt>
      <trkpt lat="44.87458" lon="0.64911">
        <ele>117.6</ele>
        <time>2022-07-10T07:54:45Z</time>
      </trkpt>
      <trkpt lat="44.87457" lon="0.64909">
        <ele>117.6</ele>
        <time>2022-07-10T07:54:46Z</time>
      </trkpt>
      <trkpt lat="44.87456" lon="0.64908">
        <ele>117.6</ele>
        <time>2022-07-10T07:54:47Z</time>
      </trkpt>
      <trkpt lat="44.87454" lon="0.64907">
        <ele>117.6</ele>
        <time>2022-07-10T07:54:48Z</time>
      </trkpt>
      <trkpt lat="44.87452" lon="0.64906">
        <ele>117.6</ele>
        <time>2022-07-10T07:54:49Z</time>
      </trkpt>
      <trkpt lat="44.87451" lon="0.64905">
        <ele>118.7</ele>
        <time>2022-07-10T07:54:50Z</time>
      </trkpt>
      <trkpt lat="44.87449" lon="0.64903">
        <ele>118.7</ele>
        <time>2022-07-10T07:54:51Z</time>
      </trkpt>
      <trkpt lat="44.87447" lon="0.64902">
        <ele>119.8</ele>
        <time>2022-07-10T07:54:53Z</time>
      </trkpt>
      <trkpt lat="44.87445" lon="0.649">
        <ele>119.8</ele>
        <time>2022-07-10T07:54:55Z</time>
      </trkpt>
      <trkpt lat="44.87443" lon="0.649">
        <ele>119.8</ele>
        <time>2022-07-10T07:54:57Z</time>
      </trkpt>
      <trkpt lat="44.87439" lon="0.64898">
        <ele>119.8</ele>
        <time>2022-07-10T07:54:59Z</time>
      </trkpt>
      <trkpt lat="44.87437" lon="0.64896">
        <ele>119.8</ele>
        <time>2022-07-10T07:55:01Z</time>
      </trkpt>
      <trkpt lat="44.87436" lon="0.64895">
        <ele>120.8</ele>
        <time>2022-07-10T07:55:02Z</time>
      </trkpt>
      <trkpt lat="44.87436" lon="0.64893">
        <ele>120.8</ele>
        <time>2022-07-10T07:55:03Z</time>
      </trkpt>
      <trkpt lat="44.87434" lon="0.6489">
        <ele>120.9</ele>
        <time>2022-07-10T07:55:05Z</time>
      </trkpt>
      <trkpt lat="44.87434" lon="0.64885">
        <ele>121.8</ele>
        <time>2022-07-10T07:55:07Z</time>
      </trkpt>
      <trkpt lat="44.87433" lon="0.6488">
        <ele>121.8</ele>
        <time>2022-07-10T07:55:09Z</time>
      </trkpt>
      <trkpt lat="44.87433" lon="0.64878">
        <ele>121.8</ele>
        <time>2022-07-10T07:55:10Z</time>
      </trkpt>
      <trkpt lat="44.87432" lon="0.64877">
        <ele>121.8</ele>
        <time>2022-07-10T07:55:11Z</time>
      </trkpt>
      <trkpt lat="44.8743" lon="0.64871">
        <ele>122.6</ele>
        <time>2022-07-10T07:55:14Z</time>
      </trkpt>
      <trkpt lat="44.87429" lon="0.6487">
        <ele>122.6</ele>
        <time>2022-07-10T07:55:15Z</time>
      </trkpt>
      <trkpt lat="44.87424" lon="0.64865">
        <ele>122.6</ele>
        <time>2022-07-10T07:55:17Z</time>
      </trkpt>
      <trkpt lat="44.87422" lon="0.64862">
        <ele>123.6</ele>
        <time>2022-07-10T07:55:18Z</time>
      </trkpt>
      <trkpt lat="44.8742" lon="0.64859">
        <ele>123.6</ele>
        <time>2022-07-10T07:55:19Z</time>
      </trkpt>
      <trkpt lat="44.8742" lon="0.64856">
        <ele>123.6</ele>
        <time>2022-07-10T07:55:20Z</time>
      </trkpt>
      <trkpt lat="44.87419" lon="0.64854">
        <ele>124.6</ele>
        <time>2022-07-10T07:55:21Z</time>
      </trkpt>
      <trkpt lat="44.87417" lon="0.64851">
        <ele>124.6</ele>
        <time>2022-07-10T07:55:22Z</time>
      </trkpt>
      <trkpt lat="44.87417" lon="0.64849">
        <ele>124.6</ele>
        <time>2022-07-10T07:55:23Z</time>
      </trkpt>
      <trkpt lat="44.87416" lon="0.64844">
        <ele>124.6</ele>
        <time>2022-07-10T07:55:25Z</time>
      </trkpt>
      <trkpt lat="44.87416" lon="0.64842">
        <ele>124.6</ele>
        <time>2022-07-10T07:55:26Z</time>
      </trkpt>
      <trkpt lat="44.87415" lon="0.64838">
        <ele>124.6</ele>
        <time>2022-07-10T07:55:27Z</time>
      </trkpt>
      <trkpt lat="44.87416" lon="0.64833">
        <ele>125.7</ele>
        <time>2022-07-10T07:55:29Z</time>
      </trkpt>
      <trkpt lat="44.87416" lon="0.64826">
        <ele>125.7</ele>
        <time>2022-07-10T07:55:31Z</time>
      </trkpt>
      <trkpt lat="44.87416" lon="0.64823">
        <ele>125.7</ele>
        <time>2022-07-10T07:55:32Z</time>
      </trkpt>
      <trkpt lat="44.87415" lon="0.64819">
        <ele>126.8</ele>
        <time>2022-07-10T07:55:33Z</time>
      </trkpt>
      <trkpt lat="44.87415" lon="0.64812">
        <ele>126.8</ele>
        <time>2022-07-10T07:55:35Z</time>
      </trkpt>
      <trkpt lat="44.87413" lon="0.64809">
        <ele>126.8</ele>
        <time>2022-07-10T07:55:36Z</time>
      </trkpt>
      <trkpt lat="44.87413" lon="0.64805">
        <ele>126.8</ele>
        <time>2022-07-10T07:55:37Z</time>
      </trkpt>
      <trkpt lat="44.8741" lon="0.64798">
        <ele>129.1</ele>
        <time>2022-07-10T07:55:39Z</time>
      </trkpt>
      <trkpt lat="44.8741" lon="0.64793">
        <ele>129.1</ele>
        <time>2022-07-10T07:55:40Z</time>
      </trkpt>
      <trkpt lat="44.87408" lon="0.64789">
        <ele>129.1</ele>
        <time>2022-07-10T07:55:41Z</time>
      </trkpt>
      <trkpt lat="44.87408" lon="0.64786">
        <ele>129.1</ele>
        <time>2022-07-10T07:55:42Z</time>
      </trkpt>
      <trkpt lat="44.87408" lon="0.64783">
        <ele>129.9</ele>
        <time>2022-07-10T07:55:43Z</time>
      </trkpt>
      <trkpt lat="44.87405" lon="0.64777">
        <ele>129.9</ele>
        <time>2022-07-10T07:55:45Z</time>
      </trkpt>
      <trkpt lat="44.874" lon="0.64768">
        <ele>129.9</ele>
        <time>2022-07-10T07:55:47Z</time>
      </trkpt>
      <trkpt lat="44.87398" lon="0.64761">
        <ele>131.4</ele>
        <time>2022-07-10T07:55:49Z</time>
      </trkpt>
      <trkpt lat="44.87398" lon="0.64755">
        <ele>131.4</ele>
        <time>2022-07-10T07:55:51Z</time>
      </trkpt>
      <trkpt lat="44.87397" lon="0.64747">
        <ele>131.7</ele>
        <time>2022-07-10T07:55:53Z</time>
      </trkpt>
      <trkpt lat="44.87394" lon="0.64744">
        <ele>131.7</ele>
        <time>2022-07-10T07:55:54Z</time>
      </trkpt>
      <trkpt lat="44.87394" lon="0.6474">
        <ele>131.7</ele>
        <time>2022-07-10T07:55:55Z</time>
      </trkpt>
      <trkpt lat="44.87394" lon="0.64735">
        <ele>131.7</ele>
        <time>2022-07-10T07:55:57Z</time>
      </trkpt>
      <trkpt lat="44.87394" lon="0.64729">
        <ele>131.8</ele>
        <time>2022-07-10T07:55:59Z</time>
      </trkpt>
      <trkpt lat="44.87393" lon="0.64726">
        <ele>131.8</ele>
        <time>2022-07-10T07:56:00Z</time>
      </trkpt>
      <trkpt lat="44.87392" lon="0.64722">
        <ele>131.8</ele>
        <time>2022-07-10T07:56:01Z</time>
      </trkpt>
      <trkpt lat="44.87392" lon="0.64714">
        <ele>131.9</ele>
        <time>2022-07-10T07:56:03Z</time>
      </trkpt>
      <trkpt lat="44.87392" lon="0.64709">
        <ele>131.9</ele>
        <time>2022-07-10T07:56:05Z</time>
      </trkpt>
      <trkpt lat="44.87391" lon="0.64706">
        <ele>131.9</ele>
        <time>2022-07-10T07:56:06Z</time>
      </trkpt>
      <trkpt lat="44.8739" lon="0.64704">
        <ele>131.9</ele>
        <time>2022-07-10T07:56:07Z</time>
      </trkpt>
      <trkpt lat="44.87389" lon="0.64701">
        <ele>131.9</ele>
        <time>2022-07-10T07:56:08Z</time>
      </trkpt>
      <trkpt lat="44.87388" lon="0.64698">
        <ele>132</ele>
        <time>2022-07-10T07:56:09Z</time>
      </trkpt>
      <trkpt lat="44.87387" lon="0.64696">
        <ele>133.2</ele>
        <time>2022-07-10T07:56:10Z</time>
      </trkpt>
      <trkpt lat="44.87386" lon="0.64694">
        <ele>133.2</ele>
        <time>2022-07-10T07:56:11Z</time>
      </trkpt>
      <trkpt lat="44.87377" lon="0.64687">
        <ele>133.2</ele>
        <time>2022-07-10T07:56:15Z</time>
      </trkpt>
      <trkpt lat="44.87374" lon="0.64686">
        <ele>133.9</ele>
        <time>2022-07-10T07:56:17Z</time>
      </trkpt>
      <trkpt lat="44.87372" lon="0.64684">
        <ele>133.9</ele>
        <time>2022-07-10T07:56:19Z</time>
      </trkpt>
      <trkpt lat="44.8737" lon="0.64682">
        <ele>134</ele>
        <time>2022-07-10T07:56:21Z</time>
      </trkpt>
      <trkpt lat="44.87369" lon="0.64681">
        <ele>134</ele>
        <time>2022-07-10T07:56:22Z</time>
      </trkpt>
      <trkpt lat="44.87368" lon="0.64679">
        <ele>134</ele>
        <time>2022-07-10T07:56:23Z</time>
      </trkpt>
      <trkpt lat="44.87365" lon="0.64674">
        <ele>134</ele>
        <time>2022-07-10T07:56:25Z</time>
      </trkpt>
      <trkpt lat="44.87362" lon="0.64671">
        <ele>134.5</ele>
        <time>2022-07-10T07:56:27Z</time>
      </trkpt>
      <trkpt lat="44.87361" lon="0.64668">
        <ele>134.5</ele>
        <time>2022-07-10T07:56:28Z</time>
      </trkpt>
      <trkpt lat="44.8736" lon="0.64666">
        <ele>134.5</ele>
        <time>2022-07-10T07:56:29Z</time>
      </trkpt>
      <trkpt lat="44.87356" lon="0.64662">
        <ele>134.4</ele>
        <time>2022-07-10T07:56:31Z</time>
      </trkpt>
      <trkpt lat="44.87355" lon="0.64658">
        <ele>134.4</ele>
        <time>2022-07-10T07:56:33Z</time>
      </trkpt>
      <trkpt lat="44.87354" lon="0.64655">
        <ele>134.4</ele>
        <time>2022-07-10T07:56:34Z</time>
      </trkpt>
      <trkpt lat="44.87353" lon="0.64654">
        <ele>134.4</ele>
        <time>2022-07-10T07:56:35Z</time>
      </trkpt>
      <trkpt lat="44.87351" lon="0.6465">
        <ele>134.4</ele>
        <time>2022-07-10T07:56:37Z</time>
      </trkpt>
      <trkpt lat="44.87349" lon="0.64646">
        <ele>134.4</ele>
        <time>2022-07-10T07:56:39Z</time>
      </trkpt>
      <trkpt lat="44.87347" lon="0.64644">
        <ele>134.4</ele>
        <time>2022-07-10T07:56:41Z</time>
      </trkpt>
      <trkpt lat="44.87347" lon="0.64643">
        <ele>134.4</ele>
        <time>2022-07-10T07:56:43Z</time>
      </trkpt>
      <trkpt lat="44.87346" lon="0.64641">
        <ele>134.4</ele>
        <time>2022-07-10T07:56:44Z</time>
      </trkpt>
      <trkpt lat="44.87342" lon="0.64635">
        <ele>134.4</ele>
        <time>2022-07-10T07:56:47Z</time>
      </trkpt>
      <trkpt lat="44.87341" lon="0.6463">
        <ele>134.2</ele>
        <time>2022-07-10T07:56:49Z</time>
      </trkpt>
      <trkpt lat="44.87339" lon="0.64627">
        <ele>134.2</ele>
        <time>2022-07-10T07:56:51Z</time>
      </trkpt>
      <trkpt lat="44.87338" lon="0.64623">
        <ele>134.7</ele>
        <time>2022-07-10T07:56:53Z</time>
      </trkpt>
      <trkpt lat="44.87336" lon="0.6462">
        <ele>134.7</ele>
        <time>2022-07-10T07:56:55Z</time>
      </trkpt>
      <trkpt lat="44.87333" lon="0.64617">
        <ele>134.7</ele>
        <time>2022-07-10T07:56:57Z</time>
      </trkpt>
      <trkpt lat="44.87331" lon="0.64613">
        <ele>134.7</ele>
        <time>2022-07-10T07:56:59Z</time>
      </trkpt>
      <trkpt lat="44.87328" lon="0.64611">
        <ele>134.7</ele>
        <time>2022-07-10T07:57:01Z</time>
      </trkpt>
      <trkpt lat="44.87326" lon="0.64608">
        <ele>135.3</ele>
        <time>2022-07-10T07:57:03Z</time>
      </trkpt>
      <trkpt lat="44.87323" lon="0.64605">
        <ele>135.3</ele>
        <time>2022-07-10T07:57:05Z</time>
      </trkpt>
      <trkpt lat="44.87321" lon="0.64603">
        <ele>135.3</ele>
        <time>2022-07-10T07:57:07Z</time>
      </trkpt>
      <trkpt lat="44.8732" lon="0.646">
        <ele>135.3</ele>
        <time>2022-07-10T07:57:09Z</time>
      </trkpt>
      <trkpt lat="44.87316" lon="0.64598">
        <ele>135.3</ele>
        <time>2022-07-10T07:57:11Z</time>
      </trkpt>
      <trkpt lat="44.87312" lon="0.64597">
        <ele>135.5</ele>
        <time>2022-07-10T07:57:13Z</time>
      </trkpt>
      <trkpt lat="44.87309" lon="0.64596">
        <ele>135.4</ele>
        <time>2022-07-10T07:57:15Z</time>
      </trkpt>
      <trkpt lat="44.87302" lon="0.64596">
        <ele>135.4</ele>
        <time>2022-07-10T07:57:18Z</time>
      </trkpt>
      <trkpt lat="44.873" lon="0.64596">
        <ele>135.4</ele>
        <time>2022-07-10T07:57:19Z</time>
      </trkpt>
      <trkpt lat="44.87297" lon="0.64595">
        <ele>135.4</ele>
        <time>2022-07-10T07:57:21Z</time>
      </trkpt>
      <trkpt lat="44.87295" lon="0.64595">
        <ele>135.4</ele>
        <time>2022-07-10T07:57:22Z</time>
      </trkpt>
      <trkpt lat="44.87293" lon="0.64595">
        <ele>135.4</ele>
        <time>2022-07-10T07:57:23Z</time>
      </trkpt>
      <trkpt lat="44.8729" lon="0.64595">
        <ele>135.1</ele>
        <time>2022-07-10T07:57:25Z</time>
      </trkpt>
      <trkpt lat="44.87289" lon="0.64598">
        <ele>135.2</ele>
        <time>2022-07-10T07:57:27Z</time>
      </trkpt>
      <trkpt lat="44.87283" lon="0.64599">
        <ele>135.2</ele>
        <time>2022-07-10T07:57:29Z</time>
      </trkpt>
      <trkpt lat="44.87278" lon="0.646">
        <ele>134.8</ele>
        <time>2022-07-10T07:57:31Z</time>
      </trkpt>
      <trkpt lat="44.87274" lon="0.64602">
        <ele>134.8</ele>
        <time>2022-07-10T07:57:33Z</time>
      </trkpt>
      <trkpt lat="44.87271" lon="0.64603">
        <ele>134.8</ele>
        <time>2022-07-10T07:57:35Z</time>
      </trkpt>
      <trkpt lat="44.87267" lon="0.64603">
        <ele>134.8</ele>
        <time>2022-07-10T07:57:36Z</time>
      </trkpt>
      <trkpt lat="44.87263" lon="0.64601">
        <ele>134.4</ele>
        <time>2022-07-10T07:57:37Z</time>
      </trkpt>
      <trkpt lat="44.8726" lon="0.64597">
        <ele>134.4</ele>
        <time>2022-07-10T07:57:39Z</time>
      </trkpt>
      <trkpt lat="44.87257" lon="0.64597">
        <ele>134.4</ele>
        <time>2022-07-10T07:57:40Z</time>
      </trkpt>
      <trkpt lat="44.87251" lon="0.64593">
        <ele>133.9</ele>
        <time>2022-07-10T07:57:41Z</time>
      </trkpt>
      <trkpt lat="44.87246" lon="0.64586">
        <ele>133.9</ele>
        <time>2022-07-10T07:57:42Z</time>
      </trkpt>
      <trkpt lat="44.87245" lon="0.64579">
        <ele>133.9</ele>
        <time>2022-07-10T07:57:43Z</time>
      </trkpt>
      <trkpt lat="44.87243" lon="0.64573">
        <ele>133.8</ele>
        <time>2022-07-10T07:57:44Z</time>
      </trkpt>
      <trkpt lat="44.87241" lon="0.64568">
        <ele>133.6</ele>
        <time>2022-07-10T07:57:45Z</time>
      </trkpt>
      <trkpt lat="44.87236" lon="0.64557">
        <ele>133.8</ele>
        <time>2022-07-10T07:57:47Z</time>
      </trkpt>
      <trkpt lat="44.87233" lon="0.64545">
        <ele>133.8</ele>
        <time>2022-07-10T07:57:49Z</time>
      </trkpt>
      <trkpt lat="44.87229" lon="0.64535">
        <ele>134</ele>
        <time>2022-07-10T07:57:51Z</time>
      </trkpt>
      <trkpt lat="44.87227" lon="0.64524">
        <ele>134</ele>
        <time>2022-07-10T07:57:53Z</time>
      </trkpt>
      <trkpt lat="44.87226" lon="0.64515">
        <ele>134</ele>
        <time>2022-07-10T07:57:55Z</time>
      </trkpt>
      <trkpt lat="44.87224" lon="0.64508">
        <ele>133.8</ele>
        <time>2022-07-10T07:57:57Z</time>
      </trkpt>
      <trkpt lat="44.87223" lon="0.64504">
        <ele>133.8</ele>
        <time>2022-07-10T07:57:58Z</time>
      </trkpt>
      <trkpt lat="44.87221" lon="0.645">
        <ele>133.8</ele>
        <time>2022-07-10T07:57:59Z</time>
      </trkpt>
      <trkpt lat="44.87219" lon="0.64493">
        <ele>133.5</ele>
        <time>2022-07-10T07:58:01Z</time>
      </trkpt>
      <trkpt lat="44.87217" lon="0.64489">
        <ele>133.3</ele>
        <time>2022-07-10T07:58:02Z</time>
      </trkpt>
      <trkpt lat="44.87216" lon="0.64485">
        <ele>133.3</ele>
        <time>2022-07-10T07:58:03Z</time>
      </trkpt>
      <trkpt lat="44.87212" lon="0.64477">
        <ele>133.3</ele>
        <time>2022-07-10T07:58:05Z</time>
      </trkpt>
      <trkpt lat="44.87209" lon="0.64469">
        <ele>133</ele>
        <time>2022-07-10T07:58:07Z</time>
      </trkpt>
      <trkpt lat="44.87204" lon="0.6446">
        <ele>132.9</ele>
        <time>2022-07-10T07:58:09Z</time>
      </trkpt>
      <trkpt lat="44.87202" lon="0.64456">
        <ele>132.9</ele>
        <time>2022-07-10T07:58:10Z</time>
      </trkpt>
      <trkpt lat="44.872" lon="0.64452">
        <ele>132.9</ele>
        <time>2022-07-10T07:58:11Z</time>
      </trkpt>
      <trkpt lat="44.87197" lon="0.64443">
        <ele>132.9</ele>
        <time>2022-07-10T07:58:13Z</time>
      </trkpt>
      <trkpt lat="44.87192" lon="0.64433">
        <ele>133.1</ele>
        <time>2022-07-10T07:58:15Z</time>
      </trkpt>
      <trkpt lat="44.87188" lon="0.64424">
        <ele>133.3</ele>
        <time>2022-07-10T07:58:17Z</time>
      </trkpt>
      <trkpt lat="44.87184" lon="0.64421">
        <ele>133.3</ele>
        <time>2022-07-10T07:58:18Z</time>
      </trkpt>
      <trkpt lat="44.87182" lon="0.64418">
        <ele>133.3</ele>
        <time>2022-07-10T07:58:19Z</time>
      </trkpt>
      <trkpt lat="44.8718" lon="0.64412">
        <ele>133.4</ele>
        <time>2022-07-10T07:58:20Z</time>
      </trkpt>
      <trkpt lat="44.87178" lon="0.64408">
        <ele>133.4</ele>
        <time>2022-07-10T07:58:21Z</time>
      </trkpt>
      <trkpt lat="44.87177" lon="0.64403">
        <ele>133.5</ele>
        <time>2022-07-10T07:58:22Z</time>
      </trkpt>
      <trkpt lat="44.87175" lon="0.64398">
        <ele>133.5</ele>
        <time>2022-07-10T07:58:23Z</time>
      </trkpt>
      <trkpt lat="44.87172" lon="0.64394">
        <ele>133.5</ele>
        <time>2022-07-10T07:58:24Z</time>
      </trkpt>
      <trkpt lat="44.87169" lon="0.64389">
        <ele>133.7</ele>
        <time>2022-07-10T07:58:25Z</time>
      </trkpt>
      <trkpt lat="44.87164" lon="0.6438">
        <ele>133.4</ele>
        <time>2022-07-10T07:58:27Z</time>
      </trkpt>
      <trkpt lat="44.87161" lon="0.64375">
        <ele>133.4</ele>
        <time>2022-07-10T07:58:28Z</time>
      </trkpt>
      <trkpt lat="44.87157" lon="0.64369">
        <ele>133.5</ele>
        <time>2022-07-10T07:58:29Z</time>
      </trkpt>
      <trkpt lat="44.87154" lon="0.64362">
        <ele>133</ele>
        <time>2022-07-10T07:58:30Z</time>
      </trkpt>
      <trkpt lat="44.87151" lon="0.64355">
        <ele>132.9</ele>
        <time>2022-07-10T07:58:31Z</time>
      </trkpt>
      <trkpt lat="44.87151" lon="0.64347">
        <ele>132.9</ele>
        <time>2022-07-10T07:58:32Z</time>
      </trkpt>
      <trkpt lat="44.87152" lon="0.64338">
        <ele>132.9</ele>
        <time>2022-07-10T07:58:33Z</time>
      </trkpt>
      <trkpt lat="44.87155" lon="0.64328">
        <ele>132.9</ele>
        <time>2022-07-10T07:58:34Z</time>
      </trkpt>
      <trkpt lat="44.87156" lon="0.64318">
        <ele>132.7</ele>
        <time>2022-07-10T07:58:35Z</time>
      </trkpt>
      <trkpt lat="44.8716" lon="0.64298">
        <ele>132.3</ele>
        <time>2022-07-10T07:58:37Z</time>
      </trkpt>
      <trkpt lat="44.87163" lon="0.64288">
        <ele>132.3</ele>
        <time>2022-07-10T07:58:38Z</time>
      </trkpt>
      <trkpt lat="44.87165" lon="0.64277">
        <ele>131.7</ele>
        <time>2022-07-10T07:58:39Z</time>
      </trkpt>
      <trkpt lat="44.87169" lon="0.64254">
        <ele>131.5</ele>
        <time>2022-07-10T07:58:41Z</time>
      </trkpt>
      <trkpt lat="44.87171" lon="0.64242">
        <ele>132.3</ele>
        <time>2022-07-10T07:58:42Z</time>
      </trkpt>
      <trkpt lat="44.87172" lon="0.64231">
        <ele>133.1</ele>
        <time>2022-07-10T07:58:43Z</time>
      </trkpt>
      <trkpt lat="44.87176" lon="0.64211">
        <ele>133.8</ele>
        <time>2022-07-10T07:58:45Z</time>
      </trkpt>
      <trkpt lat="44.87182" lon="0.64199">
        <ele>134</ele>
        <time>2022-07-10T07:58:47Z</time>
      </trkpt>
      <trkpt lat="44.87185" lon="0.64196">
        <ele>134</ele>
        <time>2022-07-10T07:58:48Z</time>
      </trkpt>
      <trkpt lat="44.87187" lon="0.64193">
        <ele>134</ele>
        <time>2022-07-10T07:58:49Z</time>
      </trkpt>
      <trkpt lat="44.87193" lon="0.6419">
        <ele>134</ele>
        <time>2022-07-10T07:58:51Z</time>
      </trkpt>
      <trkpt lat="44.87197" lon="0.64188">
        <ele>133.6</ele>
        <time>2022-07-10T07:58:52Z</time>
      </trkpt>
      <trkpt lat="44.87201" lon="0.64187">
        <ele>133.6</ele>
        <time>2022-07-10T07:58:53Z</time>
      </trkpt>
      <trkpt lat="44.87203" lon="0.64185">
        <ele>133.6</ele>
        <time>2022-07-10T07:58:54Z</time>
      </trkpt>
      <trkpt lat="44.87206" lon="0.64185">
        <ele>133.2</ele>
        <time>2022-07-10T07:58:55Z</time>
      </trkpt>
      <trkpt lat="44.8721" lon="0.64182">
        <ele>133.7</ele>
        <time>2022-07-10T07:58:56Z</time>
      </trkpt>
      <trkpt lat="44.87212" lon="0.64179">
        <ele>133.7</ele>
        <time>2022-07-10T07:58:57Z</time>
      </trkpt>
      <trkpt lat="44.87217" lon="0.64173">
        <ele>133.3</ele>
        <time>2022-07-10T07:58:59Z</time>
      </trkpt>
      <trkpt lat="44.87222" lon="0.64167">
        <ele>133.3</ele>
        <time>2022-07-10T07:59:01Z</time>
      </trkpt>
      <trkpt lat="44.87224" lon="0.64162">
        <ele>134</ele>
        <time>2022-07-10T07:59:03Z</time>
      </trkpt>
      <trkpt lat="44.87228" lon="0.64158">
        <ele>134</ele>
        <time>2022-07-10T07:59:05Z</time>
      </trkpt>
      <trkpt lat="44.87229" lon="0.64152">
        <ele>134</ele>
        <time>2022-07-10T07:59:07Z</time>
      </trkpt>
      <trkpt lat="44.87231" lon="0.64147">
        <ele>134.3</ele>
        <time>2022-07-10T07:59:09Z</time>
      </trkpt>
      <trkpt lat="44.87233" lon="0.64145">
        <ele>134.3</ele>
        <time>2022-07-10T07:59:10Z</time>
      </trkpt>
      <trkpt lat="44.87235" lon="0.64143">
        <ele>134.3</ele>
        <time>2022-07-10T07:59:11Z</time>
      </trkpt>
      <trkpt lat="44.87237" lon="0.64139">
        <ele>134.3</ele>
        <time>2022-07-10T07:59:13Z</time>
      </trkpt>
      <trkpt lat="44.8724" lon="0.64135">
        <ele>134.3</ele>
        <time>2022-07-10T07:59:15Z</time>
      </trkpt>
      <trkpt lat="44.8724" lon="0.64133">
        <ele>134.3</ele>
        <time>2022-07-10T07:59:16Z</time>
      </trkpt>
      <trkpt lat="44.87241" lon="0.64131">
        <ele>135.1</ele>
        <time>2022-07-10T07:59:17Z</time>
      </trkpt>
      <trkpt lat="44.87243" lon="0.64127">
        <ele>134.5</ele>
        <time>2022-07-10T07:59:19Z</time>
      </trkpt>
      <trkpt lat="44.87243" lon="0.64125">
        <ele>134.5</ele>
        <time>2022-07-10T07:59:20Z</time>
      </trkpt>
      <trkpt lat="44.87242" lon="0.64122">
        <ele>134.5</ele>
        <time>2022-07-10T07:59:21Z</time>
      </trkpt>
      <trkpt lat="44.87243" lon="0.64117">
        <ele>134.5</ele>
        <time>2022-07-10T07:59:23Z</time>
      </trkpt>
      <trkpt lat="44.87242" lon="0.64115">
        <ele>135.1</ele>
        <time>2022-07-10T07:59:24Z</time>
      </trkpt>
      <trkpt lat="44.87242" lon="0.64114">
        <ele>135.1</ele>
        <time>2022-07-10T07:59:25Z</time>
      </trkpt>
      <trkpt lat="44.87241" lon="0.64111">
        <ele>135.7</ele>
        <time>2022-07-10T07:59:26Z</time>
      </trkpt>
      <trkpt lat="44.8724" lon="0.64109">
        <ele>135.7</ele>
        <time>2022-07-10T07:59:27Z</time>
      </trkpt>
      <trkpt lat="44.87239" lon="0.64107">
        <ele>135.7</ele>
        <time>2022-07-10T07:59:28Z</time>
      </trkpt>
      <trkpt lat="44.87238" lon="0.64104">
        <ele>135.7</ele>
        <time>2022-07-10T07:59:29Z</time>
      </trkpt>
      <trkpt lat="44.87237" lon="0.641">
        <ele>135.7</ele>
        <time>2022-07-10T07:59:31Z</time>
      </trkpt>
      <trkpt lat="44.87235" lon="0.64096">
        <ele>136.1</ele>
        <time>2022-07-10T07:59:33Z</time>
      </trkpt>
      <trkpt lat="44.87234" lon="0.64095">
        <ele>136.1</ele>
        <time>2022-07-10T07:59:34Z</time>
      </trkpt>
      <trkpt lat="44.87234" lon="0.64093">
        <ele>136.1</ele>
        <time>2022-07-10T07:59:35Z</time>
      </trkpt>
      <trkpt lat="44.87234" lon="0.64091">
        <ele>136.1</ele>
        <time>2022-07-10T07:59:36Z</time>
      </trkpt>
      <trkpt lat="44.87233" lon="0.64089">
        <ele>136.1</ele>
        <time>2022-07-10T07:59:37Z</time>
      </trkpt>
      <trkpt lat="44.87232" lon="0.64085">
        <ele>136.1</ele>
        <time>2022-07-10T07:59:39Z</time>
      </trkpt>
      <trkpt lat="44.87231" lon="0.64081">
        <ele>136.5</ele>
        <time>2022-07-10T07:59:41Z</time>
      </trkpt>
      <trkpt lat="44.8723" lon="0.64079">
        <ele>136.5</ele>
        <time>2022-07-10T07:59:43Z</time>
      </trkpt>
      <trkpt lat="44.87229" lon="0.64075">
        <ele>137</ele>
        <time>2022-07-10T07:59:45Z</time>
      </trkpt>
      <trkpt lat="44.87226" lon="0.64072">
        <ele>137</ele>
        <time>2022-07-10T07:59:47Z</time>
      </trkpt>
      <trkpt lat="44.87226" lon="0.64069">
        <ele>137</ele>
        <time>2022-07-10T07:59:48Z</time>
      </trkpt>
      <trkpt lat="44.87223" lon="0.64067">
        <ele>137</ele>
        <time>2022-07-10T07:59:49Z</time>
      </trkpt>
      <trkpt lat="44.8722" lon="0.64065">
        <ele>137</ele>
        <time>2022-07-10T07:59:50Z</time>
      </trkpt>
      <trkpt lat="44.87217" lon="0.64065">
        <ele>137.5</ele>
        <time>2022-07-10T07:59:51Z</time>
      </trkpt>
      <trkpt lat="44.87215" lon="0.64063">
        <ele>137.6</ele>
        <time>2022-07-10T07:59:52Z</time>
      </trkpt>
      <trkpt lat="44.87212" lon="0.64062">
        <ele>137.6</ele>
        <time>2022-07-10T07:59:53Z</time>
      </trkpt>
      <trkpt lat="44.8721" lon="0.64062">
        <ele>137.6</ele>
        <time>2022-07-10T07:59:54Z</time>
      </trkpt>
      <trkpt lat="44.87209" lon="0.64062">
        <ele>137.6</ele>
        <time>2022-07-10T07:59:55Z</time>
      </trkpt>
      <trkpt lat="44.87207" lon="0.6406">
        <ele>137.6</ele>
        <time>2022-07-10T07:59:56Z</time>
      </trkpt>
      <trkpt lat="44.87205" lon="0.64057">
        <ele>138.1</ele>
        <time>2022-07-10T07:59:57Z</time>
      </trkpt>
      <trkpt lat="44.87201" lon="0.64053">
        <ele>138.1</ele>
        <time>2022-07-10T07:59:59Z</time>
      </trkpt>
      <trkpt lat="44.87196" lon="0.6405">
        <ele>138.1</ele>
        <time>2022-07-10T08:00:01Z</time>
      </trkpt>
      <trkpt lat="44.87193" lon="0.64047">
        <ele>138.8</ele>
        <time>2022-07-10T08:00:03Z</time>
      </trkpt>
      <trkpt lat="44.8719" lon="0.64044">
        <ele>138.8</ele>
        <time>2022-07-10T08:00:05Z</time>
      </trkpt>
      <trkpt lat="44.87185" lon="0.6404">
        <ele>138.8</ele>
        <time>2022-07-10T08:00:07Z</time>
      </trkpt>
      <trkpt lat="44.87182" lon="0.64039">
        <ele>138.8</ele>
        <time>2022-07-10T08:00:08Z</time>
      </trkpt>
      <trkpt lat="44.87181" lon="0.64038">
        <ele>139.4</ele>
        <time>2022-07-10T08:00:09Z</time>
      </trkpt>
      <trkpt lat="44.87179" lon="0.64036">
        <ele>139.4</ele>
        <time>2022-07-10T08:00:10Z</time>
      </trkpt>
      <trkpt lat="44.87177" lon="0.64036">
        <ele>139.4</ele>
        <time>2022-07-10T08:00:11Z</time>
      </trkpt>
      <trkpt lat="44.87174" lon="0.64036">
        <ele>139.4</ele>
        <time>2022-07-10T08:00:12Z</time>
      </trkpt>
      <trkpt lat="44.87171" lon="0.64034">
        <ele>139.4</ele>
        <time>2022-07-10T08:00:13Z</time>
      </trkpt>
      <trkpt lat="44.87166" lon="0.64032">
        <ele>139.7</ele>
        <time>2022-07-10T08:00:15Z</time>
      </trkpt>
      <trkpt lat="44.87163" lon="0.64031">
        <ele>139.7</ele>
        <time>2022-07-10T08:00:16Z</time>
      </trkpt>
      <trkpt lat="44.8716" lon="0.6403">
        <ele>139.7</ele>
        <time>2022-07-10T08:00:17Z</time>
      </trkpt>
      <trkpt lat="44.87154" lon="0.64024">
        <ele>140.1</ele>
        <time>2022-07-10T08:00:19Z</time>
      </trkpt>
      <trkpt lat="44.87147" lon="0.6402">
        <ele>140.1</ele>
        <time>2022-07-10T08:00:21Z</time>
      </trkpt>
      <trkpt lat="44.87142" lon="0.64021">
        <ele>140.3</ele>
        <time>2022-07-10T08:00:22Z</time>
      </trkpt>
      <trkpt lat="44.87138" lon="0.64023">
        <ele>140.3</ele>
        <time>2022-07-10T08:00:23Z</time>
      </trkpt>
      <trkpt lat="44.87134" lon="0.64024">
        <ele>140.3</ele>
        <time>2022-07-10T08:00:24Z</time>
      </trkpt>
      <trkpt lat="44.87129" lon="0.64025">
        <ele>140.4</ele>
        <time>2022-07-10T08:00:25Z</time>
      </trkpt>
      <trkpt lat="44.8712" lon="0.64025">
        <ele>140.5</ele>
        <time>2022-07-10T08:00:27Z</time>
      </trkpt>
      <trkpt lat="44.87111" lon="0.64024">
        <ele>140.5</ele>
        <time>2022-07-10T08:00:29Z</time>
      </trkpt>
      <trkpt lat="44.87102" lon="0.64023">
        <ele>140.6</ele>
        <time>2022-07-10T08:00:31Z</time>
      </trkpt>
      <trkpt lat="44.87095" lon="0.64023">
        <ele>140.7</ele>
        <time>2022-07-10T08:00:33Z</time>
      </trkpt>
      <trkpt lat="44.87088" lon="0.64023">
        <ele>140.7</ele>
        <time>2022-07-10T08:00:35Z</time>
      </trkpt>
      <trkpt lat="44.87082" lon="0.64021">
        <ele>140.7</ele>
        <time>2022-07-10T08:00:37Z</time>
      </trkpt>
      <trkpt lat="44.87075" lon="0.64019">
        <ele>140.7</ele>
        <time>2022-07-10T08:00:39Z</time>
      </trkpt>
      <trkpt lat="44.87071" lon="0.64017">
        <ele>140.5</ele>
        <time>2022-07-10T08:00:40Z</time>
      </trkpt>
      <trkpt lat="44.87068" lon="0.64017">
        <ele>140.5</ele>
        <time>2022-07-10T08:00:41Z</time>
      </trkpt>
      <trkpt lat="44.8706" lon="0.64015">
        <ele>140.5</ele>
        <time>2022-07-10T08:00:43Z</time>
      </trkpt>
      <trkpt lat="44.87053" lon="0.64015">
        <ele>140.2</ele>
        <time>2022-07-10T08:00:45Z</time>
      </trkpt>
      <trkpt lat="44.87048" lon="0.64016">
        <ele>140.2</ele>
        <time>2022-07-10T08:00:46Z</time>
      </trkpt>
      <trkpt lat="44.87045" lon="0.64016">
        <ele>139.9</ele>
        <time>2022-07-10T08:00:47Z</time>
      </trkpt>
      <trkpt lat="44.87039" lon="0.64018">
        <ele>139.9</ele>
        <time>2022-07-10T08:00:49Z</time>
      </trkpt>
      <trkpt lat="44.87035" lon="0.64021">
        <ele>139.4</ele>
        <time>2022-07-10T08:00:50Z</time>
      </trkpt>
      <trkpt lat="44.8703" lon="0.64023">
        <ele>139.4</ele>
        <time>2022-07-10T08:00:51Z</time>
      </trkpt>
      <trkpt lat="44.87024" lon="0.64024">
        <ele>139.4</ele>
        <time>2022-07-10T08:00:52Z</time>
      </trkpt>
      <trkpt lat="44.87019" lon="0.64025">
        <ele>139</ele>
        <time>2022-07-10T08:00:53Z</time>
      </trkpt>
      <trkpt lat="44.87014" lon="0.64028">
        <ele>139</ele>
        <time>2022-07-10T08:00:54Z</time>
      </trkpt>
      <trkpt lat="44.87009" lon="0.64032">
        <ele>138</ele>
        <time>2022-07-10T08:00:55Z</time>
      </trkpt>
      <trkpt lat="44.86999" lon="0.6404">
        <ele>138</ele>
        <time>2022-07-10T08:00:57Z</time>
      </trkpt>
      <trkpt lat="44.86989" lon="0.64049">
        <ele>136.7</ele>
        <time>2022-07-10T08:00:59Z</time>
      </trkpt>
      <trkpt lat="44.86984" lon="0.64054">
        <ele>136.1</ele>
        <time>2022-07-10T08:01:00Z</time>
      </trkpt>
      <trkpt lat="44.86979" lon="0.6406">
        <ele>136.1</ele>
        <time>2022-07-10T08:01:01Z</time>
      </trkpt>
      <trkpt lat="44.86967" lon="0.64071">
        <ele>134.8</ele>
        <time>2022-07-10T08:01:03Z</time>
      </trkpt>
      <trkpt lat="44.86954" lon="0.64084">
        <ele>133.7</ele>
        <time>2022-07-10T08:01:05Z</time>
      </trkpt>
      <trkpt lat="44.86948" lon="0.6409">
        <ele>133.3</ele>
        <time>2022-07-10T08:01:06Z</time>
      </trkpt>
      <trkpt lat="44.86941" lon="0.64095">
        <ele>133.3</ele>
        <time>2022-07-10T08:01:07Z</time>
      </trkpt>
      <trkpt lat="44.86931" lon="0.64109">
        <ele>132.9</ele>
        <time>2022-07-10T08:01:09Z</time>
      </trkpt>
      <trkpt lat="44.86925" lon="0.64115">
        <ele>132.7</ele>
        <time>2022-07-10T08:01:10Z</time>
      </trkpt>
      <trkpt lat="44.86917" lon="0.64119">
        <ele>132.3</ele>
        <time>2022-07-10T08:01:11Z</time>
      </trkpt>
      <trkpt lat="44.86911" lon="0.64121">
        <ele>131.9</ele>
        <time>2022-07-10T08:01:12Z</time>
      </trkpt>
      <trkpt lat="44.86904" lon="0.64119">
        <ele>131.9</ele>
        <time>2022-07-10T08:01:13Z</time>
      </trkpt>
      <trkpt lat="44.86898" lon="0.64115">
        <ele>131.8</ele>
        <time>2022-07-10T08:01:14Z</time>
      </trkpt>
      <trkpt lat="44.86891" lon="0.6411">
        <ele>131.8</ele>
        <time>2022-07-10T08:01:15Z</time>
      </trkpt>
      <trkpt lat="44.86885" lon="0.64107">
        <ele>131</ele>
        <time>2022-07-10T08:01:16Z</time>
      </trkpt>
      <trkpt lat="44.8688" lon="0.64103">
        <ele>131</ele>
        <time>2022-07-10T08:01:17Z</time>
      </trkpt>
      <trkpt lat="44.86875" lon="0.64102">
        <ele>130.1</ele>
        <time>2022-07-10T08:01:18Z</time>
      </trkpt>
      <trkpt lat="44.8687" lon="0.64099">
        <ele>130.1</ele>
        <time>2022-07-10T08:01:19Z</time>
      </trkpt>
      <trkpt lat="44.86858" lon="0.64091">
        <ele>129.1</ele>
        <time>2022-07-10T08:01:21Z</time>
      </trkpt>
      <trkpt lat="44.86855" lon="0.64087">
        <ele>129.1</ele>
        <time>2022-07-10T08:01:22Z</time>
      </trkpt>
      <trkpt lat="44.86853" lon="0.64085">
        <ele>129.1</ele>
        <time>2022-07-10T08:01:23Z</time>
      </trkpt>
      <trkpt lat="44.86851" lon="0.64085">
        <ele>127.7</ele>
        <time>2022-07-10T08:01:25Z</time>
      </trkpt>
      <trkpt lat="44.86848" lon="0.64085">
        <ele>127.7</ele>
        <time>2022-07-10T08:01:26Z</time>
      </trkpt>
      <trkpt lat="44.86843" lon="0.64086">
        <ele>127.7</ele>
        <time>2022-07-10T08:01:27Z</time>
      </trkpt>
      <trkpt lat="44.86836" lon="0.64087">
        <ele>126.1</ele>
        <time>2022-07-10T08:01:28Z</time>
      </trkpt>
      <trkpt lat="44.8683" lon="0.64087">
        <ele>126.1</ele>
        <time>2022-07-10T08:01:29Z</time>
      </trkpt>
      <trkpt lat="44.86824" lon="0.64089">
        <ele>124.6</ele>
        <time>2022-07-10T08:01:30Z</time>
      </trkpt>
      <trkpt lat="44.86819" lon="0.64089">
        <ele>124.6</ele>
        <time>2022-07-10T08:01:31Z</time>
      </trkpt>
      <trkpt lat="44.8681" lon="0.64089">
        <ele>123.5</ele>
        <time>2022-07-10T08:01:33Z</time>
      </trkpt>
      <trkpt lat="44.86808" lon="0.64088">
        <ele>123.5</ele>
        <time>2022-07-10T08:01:34Z</time>
      </trkpt>
      <trkpt lat="44.86804" lon="0.64087">
        <ele>123.5</ele>
        <time>2022-07-10T08:01:35Z</time>
      </trkpt>
      <trkpt lat="44.86797" lon="0.64087">
        <ele>122.6</ele>
        <time>2022-07-10T08:01:37Z</time>
      </trkpt>
      <trkpt lat="44.8679" lon="0.64087">
        <ele>122.2</ele>
        <time>2022-07-10T08:01:39Z</time>
      </trkpt>
      <trkpt lat="44.86785" lon="0.64087">
        <ele>122.2</ele>
        <time>2022-07-10T08:01:40Z</time>
      </trkpt>
      <trkpt lat="44.86782" lon="0.64087">
        <ele>122.2</ele>
        <time>2022-07-10T08:01:41Z</time>
      </trkpt>
      <trkpt lat="44.86775" lon="0.64083">
        <ele>121.8</ele>
        <time>2022-07-10T08:01:43Z</time>
      </trkpt>
      <trkpt lat="44.86768" lon="0.64081">
        <ele>121.8</ele>
        <time>2022-07-10T08:01:45Z</time>
      </trkpt>
      <trkpt lat="44.86763" lon="0.64079">
        <ele>122.7</ele>
        <time>2022-07-10T08:01:46Z</time>
      </trkpt>
      <trkpt lat="44.86758" lon="0.64077">
        <ele>122.7</ele>
        <time>2022-07-10T08:01:47Z</time>
      </trkpt>
      <trkpt lat="44.86747" lon="0.64074">
        <ele>122.5</ele>
        <time>2022-07-10T08:01:49Z</time>
      </trkpt>
      <trkpt lat="44.86743" lon="0.64073">
        <ele>122.3</ele>
        <time>2022-07-10T08:01:50Z</time>
      </trkpt>
      <trkpt lat="44.86737" lon="0.64072">
        <ele>122.3</ele>
        <time>2022-07-10T08:01:51Z</time>
      </trkpt>
      <trkpt lat="44.86734" lon="0.64072">
        <ele>122.3</ele>
        <time>2022-07-10T08:01:52Z</time>
      </trkpt>
      <trkpt lat="44.86732" lon="0.64074">
        <ele>122.3</ele>
        <time>2022-07-10T08:01:53Z</time>
      </trkpt>
      <trkpt lat="44.86727" lon="0.64078">
        <ele>122.2</ele>
        <time>2022-07-10T08:01:55Z</time>
      </trkpt>
      <trkpt lat="44.8672" lon="0.64079">
        <ele>122.2</ele>
        <time>2022-07-10T08:01:57Z</time>
      </trkpt>
      <trkpt lat="44.86713" lon="0.64084">
        <ele>120.5</ele>
        <time>2022-07-10T08:01:59Z</time>
      </trkpt>
      <trkpt lat="44.86711" lon="0.64086">
        <ele>120.5</ele>
        <time>2022-07-10T08:02:00Z</time>
      </trkpt>
      <trkpt lat="44.86706" lon="0.6409">
        <ele>120.3</ele>
        <time>2022-07-10T08:02:01Z</time>
      </trkpt>
      <trkpt lat="44.86703" lon="0.64097">
        <ele>120.3</ele>
        <time>2022-07-10T08:02:03Z</time>
      </trkpt>
      <trkpt lat="44.867" lon="0.64101">
        <ele>118.5</ele>
        <time>2022-07-10T08:02:04Z</time>
      </trkpt>
      <trkpt lat="44.86697" lon="0.64104">
        <ele>118.5</ele>
        <time>2022-07-10T08:02:05Z</time>
      </trkpt>
      <trkpt lat="44.86696" lon="0.64107">
        <ele>118.5</ele>
        <time>2022-07-10T08:02:06Z</time>
      </trkpt>
      <trkpt lat="44.86694" lon="0.6411">
        <ele>118.4</ele>
        <time>2022-07-10T08:02:07Z</time>
      </trkpt>
      <trkpt lat="44.86691" lon="0.64116">
        <ele>116.7</ele>
        <time>2022-07-10T08:02:09Z</time>
      </trkpt>
      <trkpt lat="44.86688" lon="0.64117">
        <ele>116.7</ele>
        <time>2022-07-10T08:02:11Z</time>
      </trkpt>
      <trkpt lat="44.86685" lon="0.64113">
        <ele>118.4</ele>
        <time>2022-07-10T08:02:13Z</time>
      </trkpt>
      <trkpt lat="44.86682" lon="0.64109">
        <ele>118.4</ele>
        <time>2022-07-10T08:02:15Z</time>
      </trkpt>
      <trkpt lat="44.8668" lon="0.64106">
        <ele>118.2</ele>
        <time>2022-07-10T08:02:17Z</time>
      </trkpt>
      <trkpt lat="44.86678" lon="0.641">
        <ele>118.2</ele>
        <time>2022-07-10T08:02:19Z</time>
      </trkpt>
      <trkpt lat="44.86677" lon="0.64098">
        <ele>119.7</ele>
        <time>2022-07-10T08:02:20Z</time>
      </trkpt>
      <trkpt lat="44.86675" lon="0.64096">
        <ele>119.7</ele>
        <time>2022-07-10T08:02:21Z</time>
      </trkpt>
      <trkpt lat="44.86672" lon="0.6409">
        <ele>119.7</ele>
        <time>2022-07-10T08:02:23Z</time>
      </trkpt>
      <trkpt lat="44.8667" lon="0.64086">
        <ele>119.4</ele>
        <time>2022-07-10T08:02:25Z</time>
      </trkpt>
      <trkpt lat="44.86665" lon="0.64082">
        <ele>119.4</ele>
        <time>2022-07-10T08:02:27Z</time>
      </trkpt>
      <trkpt lat="44.86664" lon="0.64079">
        <ele>121</ele>
        <time>2022-07-10T08:02:28Z</time>
      </trkpt>
      <trkpt lat="44.86662" lon="0.64077">
        <ele>121</ele>
        <time>2022-07-10T08:02:29Z</time>
      </trkpt>
      <trkpt lat="44.86658" lon="0.64072">
        <ele>121</ele>
        <time>2022-07-10T08:02:31Z</time>
      </trkpt>
      <trkpt lat="44.86655" lon="0.64068">
        <ele>120.8</ele>
        <time>2022-07-10T08:02:33Z</time>
      </trkpt>
      <trkpt lat="44.86652" lon="0.64063">
        <ele>122.2</ele>
        <time>2022-07-10T08:02:35Z</time>
      </trkpt>
      <trkpt lat="44.86649" lon="0.64059">
        <ele>122.2</ele>
        <time>2022-07-10T08:02:37Z</time>
      </trkpt>
      <trkpt lat="44.86646" lon="0.64054">
        <ele>122.2</ele>
        <time>2022-07-10T08:02:39Z</time>
      </trkpt>
      <trkpt lat="44.86643" lon="0.64049">
        <ele>122.2</ele>
        <time>2022-07-10T08:02:41Z</time>
      </trkpt>
      <trkpt lat="44.8664" lon="0.64046">
        <ele>123.5</ele>
        <time>2022-07-10T08:02:43Z</time>
      </trkpt>
      <trkpt lat="44.86637" lon="0.64041">
        <ele>123.5</ele>
        <time>2022-07-10T08:02:45Z</time>
      </trkpt>
      <trkpt lat="44.86634" lon="0.64036">
        <ele>123.5</ele>
        <time>2022-07-10T08:02:47Z</time>
      </trkpt>
      <trkpt lat="44.86631" lon="0.6403">
        <ele>123.6</ele>
        <time>2022-07-10T08:02:49Z</time>
      </trkpt>
      <trkpt lat="44.8663" lon="0.64027">
        <ele>125</ele>
        <time>2022-07-10T08:02:50Z</time>
      </trkpt>
      <trkpt lat="44.86628" lon="0.64024">
        <ele>125</ele>
        <time>2022-07-10T08:02:51Z</time>
      </trkpt>
      <trkpt lat="44.86624" lon="0.64017">
        <ele>125</ele>
        <time>2022-07-10T08:02:53Z</time>
      </trkpt>
      <trkpt lat="44.8662" lon="0.64012">
        <ele>126.3</ele>
        <time>2022-07-10T08:02:55Z</time>
      </trkpt>
      <trkpt lat="44.86618" lon="0.64009">
        <ele>126.3</ele>
        <time>2022-07-10T08:02:56Z</time>
      </trkpt>
      <trkpt lat="44.86616" lon="0.64007">
        <ele>126.3</ele>
        <time>2022-07-10T08:02:57Z</time>
      </trkpt>
      <trkpt lat="44.86615" lon="0.64003">
        <ele>126.3</ele>
        <time>2022-07-10T08:02:58Z</time>
      </trkpt>
      <trkpt lat="44.86613" lon="0.64">
        <ele>126.3</ele>
        <time>2022-07-10T08:02:59Z</time>
      </trkpt>
      <trkpt lat="44.86612" lon="0.63997">
        <ele>126.3</ele>
        <time>2022-07-10T08:03:00Z</time>
      </trkpt>
      <trkpt lat="44.86611" lon="0.63994">
        <ele>127.2</ele>
        <time>2022-07-10T08:03:01Z</time>
      </trkpt>
      <trkpt lat="44.86607" lon="0.63989">
        <ele>127.4</ele>
        <time>2022-07-10T08:03:03Z</time>
      </trkpt>
      <trkpt lat="44.86604" lon="0.63985">
        <ele>127.4</ele>
        <time>2022-07-10T08:03:05Z</time>
      </trkpt>
      <trkpt lat="44.86603" lon="0.63981">
        <ele>127.4</ele>
        <time>2022-07-10T08:03:06Z</time>
      </trkpt>
      <trkpt lat="44.866" lon="0.63978">
        <ele>127.4</ele>
        <time>2022-07-10T08:03:07Z</time>
      </trkpt>
      <trkpt lat="44.86598" lon="0.63975">
        <ele>128.1</ele>
        <time>2022-07-10T08:03:09Z</time>
      </trkpt>
      <trkpt lat="44.86597" lon="0.63972">
        <ele>128.2</ele>
        <time>2022-07-10T08:03:10Z</time>
      </trkpt>
      <trkpt lat="44.86596" lon="0.63971">
        <ele>128.2</ele>
        <time>2022-07-10T08:03:11Z</time>
      </trkpt>
      <trkpt lat="44.86593" lon="0.63968">
        <ele>128.2</ele>
        <time>2022-07-10T08:03:12Z</time>
      </trkpt>
      <trkpt lat="44.86591" lon="0.63965">
        <ele>128.2</ele>
        <time>2022-07-10T08:03:13Z</time>
      </trkpt>
      <trkpt lat="44.86588" lon="0.6396">
        <ele>128.8</ele>
        <time>2022-07-10T08:03:15Z</time>
      </trkpt>
      <trkpt lat="44.86585" lon="0.63954">
        <ele>128.8</ele>
        <time>2022-07-10T08:03:17Z</time>
      </trkpt>
      <trkpt lat="44.86583" lon="0.63951">
        <ele>128.7</ele>
        <time>2022-07-10T08:03:19Z</time>
      </trkpt>
      <trkpt lat="44.86579" lon="0.63947">
        <ele>128.7</ele>
        <time>2022-07-10T08:03:21Z</time>
      </trkpt>
      <trkpt lat="44.86577" lon="0.63945">
        <ele>128.7</ele>
        <time>2022-07-10T08:03:23Z</time>
      </trkpt>
      <trkpt lat="44.86573" lon="0.63941">
        <ele>129.3</ele>
        <time>2022-07-10T08:03:25Z</time>
      </trkpt>
      <trkpt lat="44.8657" lon="0.63938">
        <ele>129</ele>
        <time>2022-07-10T08:03:27Z</time>
      </trkpt>
      <trkpt lat="44.86566" lon="0.63935">
        <ele>129</ele>
        <time>2022-07-10T08:03:29Z</time>
      </trkpt>
      <trkpt lat="44.86565" lon="0.6393">
        <ele>129</ele>
        <time>2022-07-10T08:03:31Z</time>
      </trkpt>
      <trkpt lat="44.86564" lon="0.63928">
        <ele>129</ele>
        <time>2022-07-10T08:03:33Z</time>
      </trkpt>
      <trkpt lat="44.86565" lon="0.63925">
        <ele>129.4</ele>
        <time>2022-07-10T08:03:34Z</time>
      </trkpt>
      <trkpt lat="44.86565" lon="0.63924">
        <ele>129.4</ele>
        <time>2022-07-10T08:03:35Z</time>
      </trkpt>
      <trkpt lat="44.86565" lon="0.63921">
        <ele>129.4</ele>
        <time>2022-07-10T08:03:36Z</time>
      </trkpt>
      <trkpt lat="44.86563" lon="0.63918">
        <ele>129.4</ele>
        <time>2022-07-10T08:03:37Z</time>
      </trkpt>
      <trkpt lat="44.8656" lon="0.6391">
        <ele>128.6</ele>
        <time>2022-07-10T08:03:39Z</time>
      </trkpt>
      <trkpt lat="44.86559" lon="0.63906">
        <ele>128.9</ele>
        <time>2022-07-10T08:03:40Z</time>
      </trkpt>
      <trkpt lat="44.86558" lon="0.63901">
        <ele>128.9</ele>
        <time>2022-07-10T08:03:41Z</time>
      </trkpt>
      <trkpt lat="44.86556" lon="0.63893">
        <ele>128.9</ele>
        <time>2022-07-10T08:03:43Z</time>
      </trkpt>
      <trkpt lat="44.86554" lon="0.63887">
        <ele>129.1</ele>
        <time>2022-07-10T08:03:45Z</time>
      </trkpt>
      <trkpt lat="44.86553" lon="0.63883">
        <ele>129.1</ele>
        <time>2022-07-10T08:03:47Z</time>
      </trkpt>
      <trkpt lat="44.86551" lon="0.63881">
        <ele>129.1</ele>
        <time>2022-07-10T08:03:49Z</time>
      </trkpt>
      <trkpt lat="44.86549" lon="0.63879">
        <ele>129.1</ele>
        <time>2022-07-10T08:03:50Z</time>
      </trkpt>
      <trkpt lat="44.86545" lon="0.63877">
        <ele>128</ele>
        <time>2022-07-10T08:03:51Z</time>
      </trkpt>
      <trkpt lat="44.86539" lon="0.63874">
        <ele>128.1</ele>
        <time>2022-07-10T08:03:53Z</time>
      </trkpt>
      <trkpt lat="44.86534" lon="0.63874">
        <ele>127</ele>
        <time>2022-07-10T08:03:55Z</time>
      </trkpt>
      <trkpt lat="44.86531" lon="0.63874">
        <ele>127</ele>
        <time>2022-07-10T08:03:56Z</time>
      </trkpt>
      <trkpt lat="44.86527" lon="0.63873">
        <ele>127</ele>
        <time>2022-07-10T08:03:57Z</time>
      </trkpt>
      <trkpt lat="44.86519" lon="0.63872">
        <ele>125.9</ele>
        <time>2022-07-10T08:03:59Z</time>
      </trkpt>
      <trkpt lat="44.86515" lon="0.63871">
        <ele>125.9</ele>
        <time>2022-07-10T08:04:00Z</time>
      </trkpt>
      <trkpt lat="44.86511" lon="0.63872">
        <ele>125.2</ele>
        <time>2022-07-10T08:04:01Z</time>
      </trkpt>
      <trkpt lat="44.86502" lon="0.63871">
        <ele>125.2</ele>
        <time>2022-07-10T08:04:03Z</time>
      </trkpt>
      <trkpt lat="44.86497" lon="0.6387">
        <ele>124.4</ele>
        <time>2022-07-10T08:04:04Z</time>
      </trkpt>
      <trkpt lat="44.86493" lon="0.63869">
        <ele>124.4</ele>
        <time>2022-07-10T08:04:05Z</time>
      </trkpt>
      <trkpt lat="44.86484" lon="0.63868">
        <ele>123.8</ele>
        <time>2022-07-10T08:04:07Z</time>
      </trkpt>
      <trkpt lat="44.8648" lon="0.63868">
        <ele>123.8</ele>
        <time>2022-07-10T08:04:08Z</time>
      </trkpt>
      <trkpt lat="44.86475" lon="0.63867">
        <ele>123.1</ele>
        <time>2022-07-10T08:04:09Z</time>
      </trkpt>
      <trkpt lat="44.86465" lon="0.63868">
        <ele>123.1</ele>
        <time>2022-07-10T08:04:11Z</time>
      </trkpt>
      <trkpt lat="44.86461" lon="0.63868">
        <ele>122.5</ele>
        <time>2022-07-10T08:04:12Z</time>
      </trkpt>
      <trkpt lat="44.86456" lon="0.63867">
        <ele>122.5</ele>
        <time>2022-07-10T08:04:13Z</time>
      </trkpt>
      <trkpt lat="44.86444" lon="0.63867">
        <ele>122.1</ele>
        <time>2022-07-10T08:04:15Z</time>
      </trkpt>
      <trkpt lat="44.8644" lon="0.63868">
        <ele>122.1</ele>
        <time>2022-07-10T08:04:16Z</time>
      </trkpt>
      <trkpt lat="44.86435" lon="0.63868">
        <ele>121.8</ele>
        <time>2022-07-10T08:04:17Z</time>
      </trkpt>
      <trkpt lat="44.86428" lon="0.63868">
        <ele>121.8</ele>
        <time>2022-07-10T08:04:19Z</time>
      </trkpt>
      <trkpt lat="44.86424" lon="0.63867">
        <ele>121.6</ele>
        <time>2022-07-10T08:04:20Z</time>
      </trkpt>
      <trkpt lat="44.86419" lon="0.63866">
        <ele>121.6</ele>
        <time>2022-07-10T08:04:21Z</time>
      </trkpt>
      <trkpt lat="44.86413" lon="0.63866">
        <ele>121.7</ele>
        <time>2022-07-10T08:04:23Z</time>
      </trkpt>
      <trkpt lat="44.86409" lon="0.63866">
        <ele>121.7</ele>
        <time>2022-07-10T08:04:24Z</time>
      </trkpt>
      <trkpt lat="44.86406" lon="0.63865">
        <ele>121.7</ele>
        <time>2022-07-10T08:04:25Z</time>
      </trkpt>
      <trkpt lat="44.864" lon="0.63866">
        <ele>121.8</ele>
        <time>2022-07-10T08:04:27Z</time>
      </trkpt>
      <trkpt lat="44.86395" lon="0.63866">
        <ele>121.8</ele>
        <time>2022-07-10T08:04:29Z</time>
      </trkpt>
      <trkpt lat="44.8639" lon="0.63865">
        <ele>122.1</ele>
        <time>2022-07-10T08:04:31Z</time>
      </trkpt>
      <trkpt lat="44.86384" lon="0.63867">
        <ele>122.1</ele>
        <time>2022-07-10T08:04:33Z</time>
      </trkpt>
      <trkpt lat="44.86377" lon="0.63866">
        <ele>122.5</ele>
        <time>2022-07-10T08:04:35Z</time>
      </trkpt>
      <trkpt lat="44.8637" lon="0.63865">
        <ele>122.5</ele>
        <time>2022-07-10T08:04:37Z</time>
      </trkpt>
      <trkpt lat="44.86363" lon="0.63865">
        <ele>122.9</ele>
        <time>2022-07-10T08:04:39Z</time>
      </trkpt>
      <trkpt lat="44.86354" lon="0.63865">
        <ele>122.9</ele>
        <time>2022-07-10T08:04:41Z</time>
      </trkpt>
      <trkpt lat="44.86352" lon="0.63864">
        <ele>123.4</ele>
        <time>2022-07-10T08:04:42Z</time>
      </trkpt>
      <trkpt lat="44.86347" lon="0.63863">
        <ele>123.4</ele>
        <time>2022-07-10T08:04:43Z</time>
      </trkpt>
      <trkpt lat="44.86339" lon="0.63861">
        <ele>123.8</ele>
        <time>2022-07-10T08:04:45Z</time>
      </trkpt>
      <trkpt lat="44.8633" lon="0.63861">
        <ele>123.8</ele>
        <time>2022-07-10T08:04:47Z</time>
      </trkpt>
      <trkpt lat="44.86325" lon="0.6386">
        <ele>124.2</ele>
        <time>2022-07-10T08:04:48Z</time>
      </trkpt>
      <trkpt lat="44.86319" lon="0.63859">
        <ele>124.2</ele>
        <time>2022-07-10T08:04:49Z</time>
      </trkpt>
      <trkpt lat="44.86313" lon="0.63859">
        <ele>124.4</ele>
        <time>2022-07-10T08:04:50Z</time>
      </trkpt>
      <trkpt lat="44.86308" lon="0.63861">
        <ele>124.4</ele>
        <time>2022-07-10T08:04:51Z</time>
      </trkpt>
      <trkpt lat="44.86306" lon="0.63862">
        <ele>124.4</ele>
        <time>2022-07-10T08:04:52Z</time>
      </trkpt>
      <trkpt lat="44.86303" lon="0.63863">
        <ele>124.6</ele>
        <time>2022-07-10T08:04:53Z</time>
      </trkpt>
      <trkpt lat="44.86294" lon="0.63867">
        <ele>124.6</ele>
        <time>2022-07-10T08:04:55Z</time>
      </trkpt>
      <trkpt lat="44.86289" lon="0.6387">
        <ele>124.6</ele>
        <time>2022-07-10T08:04:56Z</time>
      </trkpt>
      <trkpt lat="44.86285" lon="0.63873">
        <ele>124.6</ele>
        <time>2022-07-10T08:04:57Z</time>
      </trkpt>
      <trkpt lat="44.8628" lon="0.63876">
        <ele>125.2</ele>
        <time>2022-07-10T08:04:58Z</time>
      </trkpt>
      <trkpt lat="44.86275" lon="0.6388">
        <ele>125.2</ele>
        <time>2022-07-10T08:04:59Z</time>
      </trkpt>
      <trkpt lat="44.86268" lon="0.63881">
        <ele>125.3</ele>
        <time>2022-07-10T08:05:01Z</time>
      </trkpt>
      <trkpt lat="44.86263" lon="0.63881">
        <ele>125.3</ele>
        <time>2022-07-10T08:05:02Z</time>
      </trkpt>
      <trkpt lat="44.86258" lon="0.63882">
        <ele>125.3</ele>
        <time>2022-07-10T08:05:03Z</time>
      </trkpt>
      <trkpt lat="44.8625" lon="0.63881">
        <ele>125.4</ele>
        <time>2022-07-10T08:05:05Z</time>
      </trkpt>
      <trkpt lat="44.8624" lon="0.63883">
        <ele>125.4</ele>
        <time>2022-07-10T08:05:07Z</time>
      </trkpt>
      <trkpt lat="44.86234" lon="0.63884">
        <ele>125.4</ele>
        <time>2022-07-10T08:05:09Z</time>
      </trkpt>
      <trkpt lat="44.86231" lon="0.63886">
        <ele>125.7</ele>
        <time>2022-07-10T08:05:10Z</time>
      </trkpt>
      <trkpt lat="44.86229" lon="0.63887">
        <ele>125.7</ele>
        <time>2022-07-10T08:05:11Z</time>
      </trkpt>
      <trkpt lat="44.86227" lon="0.63886">
        <ele>125.7</ele>
        <time>2022-07-10T08:05:12Z</time>
      </trkpt>
      <trkpt lat="44.86215" lon="0.6389">
        <ele>126.1</ele>
        <time>2022-07-10T08:05:24Z</time>
      </trkpt>
      <trkpt lat="44.86212" lon="0.63892">
        <ele>128.1</ele>
        <time>2022-07-10T08:05:25Z</time>
      </trkpt>
      <trkpt lat="44.86207" lon="0.63893">
        <ele>128.5</ele>
        <time>2022-07-10T08:05:27Z</time>
      </trkpt>
      <trkpt lat="44.86198" lon="0.63895">
        <ele>128.5</ele>
        <time>2022-07-10T08:05:29Z</time>
      </trkpt>
      <trkpt lat="44.86191" lon="0.63897">
        <ele>128.9</ele>
        <time>2022-07-10T08:05:31Z</time>
      </trkpt>
      <trkpt lat="44.86184" lon="0.63896">
        <ele>128.9</ele>
        <time>2022-07-10T08:05:33Z</time>
      </trkpt>
      <trkpt lat="44.86176" lon="0.63899">
        <ele>129.3</ele>
        <time>2022-07-10T08:05:35Z</time>
      </trkpt>
      <trkpt lat="44.8617" lon="0.63899">
        <ele>129.8</ele>
        <time>2022-07-10T08:05:37Z</time>
      </trkpt>
      <trkpt lat="44.86168" lon="0.63898">
        <ele>129.8</ele>
        <time>2022-07-10T08:05:38Z</time>
      </trkpt>
      <trkpt lat="44.86167" lon="0.63897">
        <ele>129.8</ele>
        <time>2022-07-10T08:05:39Z</time>
      </trkpt>
      <trkpt lat="44.86168" lon="0.63887">
        <ele>126.6</ele>
        <time>2022-07-10T08:05:41Z</time>
      </trkpt>
      <trkpt lat="44.86171" lon="0.63877">
        <ele>126.5</ele>
        <time>2022-07-10T08:05:43Z</time>
      </trkpt>
      <trkpt lat="44.86175" lon="0.63865">
        <ele>123.9</ele>
        <time>2022-07-10T08:05:45Z</time>
      </trkpt>
      <trkpt lat="44.86179" lon="0.6385">
        <ele>121.6</ele>
        <time>2022-07-10T08:05:47Z</time>
      </trkpt>
      <trkpt lat="44.86178" lon="0.63842">
        <ele>121.6</ele>
        <time>2022-07-10T08:05:48Z</time>
      </trkpt>
      <trkpt lat="44.86176" lon="0.63832">
        <ele>119.6</ele>
        <time>2022-07-10T08:05:49Z</time>
      </trkpt>
      <trkpt lat="44.86173" lon="0.63811">
        <ele>117.7</ele>
        <time>2022-07-10T08:05:51Z</time>
      </trkpt>
      <trkpt lat="44.86174" lon="0.638">
        <ele>115.6</ele>
        <time>2022-07-10T08:05:52Z</time>
      </trkpt>
      <trkpt lat="44.86175" lon="0.6379">
        <ele>115.6</ele>
        <time>2022-07-10T08:05:53Z</time>
      </trkpt>
      <trkpt lat="44.86176" lon="0.63778">
        <ele>113.7</ele>
        <time>2022-07-10T08:05:54Z</time>
      </trkpt>
      <trkpt lat="44.86175" lon="0.63767">
        <ele>112</ele>
        <time>2022-07-10T08:05:55Z</time>
      </trkpt>
      <trkpt lat="44.86175" lon="0.63756">
        <ele>112</ele>
        <time>2022-07-10T08:05:56Z</time>
      </trkpt>
      <trkpt lat="44.86175" lon="0.63747">
        <ele>111</ele>
        <time>2022-07-10T08:05:57Z</time>
      </trkpt>
      <trkpt lat="44.86177" lon="0.63732">
        <ele>110.7</ele>
        <time>2022-07-10T08:05:59Z</time>
      </trkpt>
      <trkpt lat="44.86178" lon="0.63725">
        <ele>110.7</ele>
        <time>2022-07-10T08:06:00Z</time>
      </trkpt>
      <trkpt lat="44.86176" lon="0.63719">
        <ele>110.5</ele>
        <time>2022-07-10T08:06:01Z</time>
      </trkpt>
      <trkpt lat="44.86171" lon="0.63705">
        <ele>109.4</ele>
        <time>2022-07-10T08:06:03Z</time>
      </trkpt>
      <trkpt lat="44.86169" lon="0.63695">
        <ele>109.2</ele>
        <time>2022-07-10T08:06:04Z</time>
      </trkpt>
      <trkpt lat="44.86167" lon="0.63685">
        <ele>109</ele>
        <time>2022-07-10T08:06:05Z</time>
      </trkpt>
      <trkpt lat="44.86166" lon="0.63675">
        <ele>109</ele>
        <time>2022-07-10T08:06:06Z</time>
      </trkpt>
      <trkpt lat="44.86163" lon="0.63664">
        <ele>108.5</ele>
        <time>2022-07-10T08:06:07Z</time>
      </trkpt>
      <trkpt lat="44.86163" lon="0.63652">
        <ele>108.4</ele>
        <time>2022-07-10T08:06:08Z</time>
      </trkpt>
      <trkpt lat="44.86163" lon="0.6364">
        <ele>108.4</ele>
        <time>2022-07-10T08:06:09Z</time>
      </trkpt>
      <trkpt lat="44.86164" lon="0.6363">
        <ele>108.7</ele>
        <time>2022-07-10T08:06:10Z</time>
      </trkpt>
      <trkpt lat="44.86165" lon="0.6362">
        <ele>108.7</ele>
        <time>2022-07-10T08:06:11Z</time>
      </trkpt>
      <trkpt lat="44.86165" lon="0.63614">
        <ele>109.2</ele>
        <time>2022-07-10T08:06:12Z</time>
      </trkpt>
      <trkpt lat="44.86164" lon="0.63609">
        <ele>109.2</ele>
        <time>2022-07-10T08:06:13Z</time>
      </trkpt>
      <trkpt lat="44.8616" lon="0.63596">
        <ele>109.7</ele>
        <time>2022-07-10T08:06:15Z</time>
      </trkpt>
      <trkpt lat="44.86159" lon="0.63586">
        <ele>109.7</ele>
        <time>2022-07-10T08:06:17Z</time>
      </trkpt>
      <trkpt lat="44.8616" lon="0.63583">
        <ele>110.3</ele>
        <time>2022-07-10T08:06:18Z</time>
      </trkpt>
      <trkpt lat="44.86161" lon="0.63579">
        <ele>110.3</ele>
        <time>2022-07-10T08:06:19Z</time>
      </trkpt>
      <trkpt lat="44.86163" lon="0.63573">
        <ele>110.3</ele>
        <time>2022-07-10T08:06:21Z</time>
      </trkpt>
      <trkpt lat="44.86164" lon="0.63567">
        <ele>110.3</ele>
        <time>2022-07-10T08:06:23Z</time>
      </trkpt>
      <trkpt lat="44.86165" lon="0.63561">
        <ele>110.9</ele>
        <time>2022-07-10T08:06:25Z</time>
      </trkpt>
      <trkpt lat="44.86167" lon="0.63559">
        <ele>110.9</ele>
        <time>2022-07-10T08:06:26Z</time>
      </trkpt>
      <trkpt lat="44.86168" lon="0.63555">
        <ele>110.9</ele>
        <time>2022-07-10T08:06:27Z</time>
      </trkpt>
      <trkpt lat="44.86169" lon="0.63552">
        <ele>110.9</ele>
        <time>2022-07-10T08:06:28Z</time>
      </trkpt>
      <trkpt lat="44.8617" lon="0.63549">
        <ele>110.9</ele>
        <time>2022-07-10T08:06:29Z</time>
      </trkpt>
      <trkpt lat="44.86173" lon="0.63544">
        <ele>112.5</ele>
        <time>2022-07-10T08:06:31Z</time>
      </trkpt>
      <trkpt lat="44.86177" lon="0.63541">
        <ele>112.5</ele>
        <time>2022-07-10T08:06:33Z</time>
      </trkpt>
      <trkpt lat="44.8618" lon="0.63537">
        <ele>112.5</ele>
        <time>2022-07-10T08:06:35Z</time>
      </trkpt>
      <trkpt lat="44.86183" lon="0.63534">
        <ele>113.3</ele>
        <time>2022-07-10T08:06:37Z</time>
      </trkpt>
      <trkpt lat="44.86185" lon="0.63533">
        <ele>113.3</ele>
        <time>2022-07-10T08:06:38Z</time>
      </trkpt>
      <trkpt lat="44.86187" lon="0.63533">
        <ele>113.3</ele>
        <time>2022-07-10T08:06:39Z</time>
      </trkpt>
      <trkpt lat="44.8619" lon="0.63533">
        <ele>113.3</ele>
        <time>2022-07-10T08:06:41Z</time>
      </trkpt>
      <trkpt lat="44.86192" lon="0.63532">
        <ele>114.1</ele>
        <time>2022-07-10T08:06:42Z</time>
      </trkpt>
      <trkpt lat="44.86194" lon="0.63531">
        <ele>114.1</ele>
        <time>2022-07-10T08:06:43Z</time>
      </trkpt>
      <trkpt lat="44.86197" lon="0.6353">
        <ele>114.9</ele>
        <time>2022-07-10T08:06:45Z</time>
      </trkpt>
      <trkpt lat="44.862" lon="0.6353">
        <ele>114.9</ele>
        <time>2022-07-10T08:06:47Z</time>
      </trkpt>
      <trkpt lat="44.86202" lon="0.6353">
        <ele>114.9</ele>
        <time>2022-07-10T08:06:48Z</time>
      </trkpt>
      <trkpt lat="44.86203" lon="0.63529">
        <ele>114.9</ele>
        <time>2022-07-10T08:06:49Z</time>
      </trkpt>
      <trkpt lat="44.86206" lon="0.63528">
        <ele>114.9</ele>
        <time>2022-07-10T08:06:51Z</time>
      </trkpt>
      <trkpt lat="44.86208" lon="0.63527">
        <ele>115.5</ele>
        <time>2022-07-10T08:06:53Z</time>
      </trkpt>
      <trkpt lat="44.8621" lon="0.63526">
        <ele>115.5</ele>
        <time>2022-07-10T08:06:54Z</time>
      </trkpt>
      <trkpt lat="44.8621" lon="0.63524">
        <ele>115.5</ele>
        <time>2022-07-10T08:06:55Z</time>
      </trkpt>
      <trkpt lat="44.86213" lon="0.63522">
        <ele>115.5</ele>
        <time>2022-07-10T08:06:57Z</time>
      </trkpt>
      <trkpt lat="44.86215" lon="0.6352">
        <ele>115.5</ele>
        <time>2022-07-10T08:06:58Z</time>
      </trkpt>
      <trkpt lat="44.86216" lon="0.63518">
        <ele>115.5</ele>
        <time>2022-07-10T08:06:59Z</time>
      </trkpt>
      <trkpt lat="44.86218" lon="0.63516">
        <ele>115.5</ele>
        <time>2022-07-10T08:07:01Z</time>
      </trkpt>
      <trkpt lat="44.86222" lon="0.63514">
        <ele>117.3</ele>
        <time>2022-07-10T08:07:03Z</time>
      </trkpt>
      <trkpt lat="44.86225" lon="0.63514">
        <ele>117.3</ele>
        <time>2022-07-10T08:07:05Z</time>
      </trkpt>
      <trkpt lat="44.86227" lon="0.63514">
        <ele>117.3</ele>
        <time>2022-07-10T08:07:07Z</time>
      </trkpt>
      <trkpt lat="44.86228" lon="0.63515">
        <ele>116.2</ele>
        <time>2022-07-10T08:07:08Z</time>
      </trkpt>
      <trkpt lat="44.86229" lon="0.63515">
        <ele>116.2</ele>
        <time>2022-07-10T08:07:09Z</time>
      </trkpt>
      <trkpt lat="44.86233" lon="0.63515">
        <ele>117</ele>
        <time>2022-07-10T08:07:11Z</time>
      </trkpt>
      <trkpt lat="44.86234" lon="0.63515">
        <ele>117</ele>
        <time>2022-07-10T08:07:12Z</time>
      </trkpt>
      <trkpt lat="44.86237" lon="0.63515">
        <ele>117</ele>
        <time>2022-07-10T08:07:13Z</time>
      </trkpt>
      <trkpt lat="44.86241" lon="0.63514">
        <ele>118.3</ele>
        <time>2022-07-10T08:07:15Z</time>
      </trkpt>
      <trkpt lat="44.86243" lon="0.63512">
        <ele>118.3</ele>
        <time>2022-07-10T08:07:17Z</time>
      </trkpt>
      <trkpt lat="44.86246" lon="0.63512">
        <ele>119.7</ele>
        <time>2022-07-10T08:07:18Z</time>
      </trkpt>
      <trkpt lat="44.86248" lon="0.63512">
        <ele>119.7</ele>
        <time>2022-07-10T08:07:19Z</time>
      </trkpt>
      <trkpt lat="44.86251" lon="0.63512">
        <ele>119.7</ele>
        <time>2022-07-10T08:07:21Z</time>
      </trkpt>
      <trkpt lat="44.86252" lon="0.63512">
        <ele>119.7</ele>
        <time>2022-07-10T08:07:22Z</time>
      </trkpt>
      <trkpt lat="44.86286" lon="0.63495">
        <ele>124.2</ele>
        <time>2022-07-10T08:07:49Z</time>
      </trkpt>
      <trkpt lat="44.8629" lon="0.63494">
        <ele>124.2</ele>
        <time>2022-07-10T08:07:51Z</time>
      </trkpt>
      <trkpt lat="44.86291" lon="0.63494">
        <ele>124.2</ele>
        <time>2022-07-10T08:07:52Z</time>
      </trkpt>
      <trkpt lat="44.86293" lon="0.63494">
        <ele>124.2</ele>
        <time>2022-07-10T08:07:53Z</time>
      </trkpt>
      <trkpt lat="44.86294" lon="0.6349">
        <ele>124.8</ele>
        <time>2022-07-10T08:07:55Z</time>
      </trkpt>
      <trkpt lat="44.86296" lon="0.63488">
        <ele>124.8</ele>
        <time>2022-07-10T08:07:56Z</time>
      </trkpt>
      <trkpt lat="44.86297" lon="0.63486">
        <ele>124.8</ele>
        <time>2022-07-10T08:07:57Z</time>
      </trkpt>
      <trkpt lat="44.86297" lon="0.63482">
        <ele>124.8</ele>
        <time>2022-07-10T08:07:59Z</time>
      </trkpt>
      <trkpt lat="44.86298" lon="0.63481">
        <ele>124.8</ele>
        <time>2022-07-10T08:08:00Z</time>
      </trkpt>
      <trkpt lat="44.86298" lon="0.6348">
        <ele>125.2</ele>
        <time>2022-07-10T08:08:01Z</time>
      </trkpt>
      <trkpt lat="44.863" lon="0.63478">
        <ele>125.2</ele>
        <time>2022-07-10T08:08:02Z</time>
      </trkpt>
      <trkpt lat="44.86301" lon="0.63477">
        <ele>125.2</ele>
        <time>2022-07-10T08:08:03Z</time>
      </trkpt>
      <trkpt lat="44.86305" lon="0.63475">
        <ele>125.2</ele>
        <time>2022-07-10T08:08:05Z</time>
      </trkpt>
      <trkpt lat="44.86306" lon="0.63473">
        <ele>125.9</ele>
        <time>2022-07-10T08:08:07Z</time>
      </trkpt>
      <trkpt lat="44.8631" lon="0.63471">
        <ele>125.9</ele>
        <time>2022-07-10T08:08:09Z</time>
      </trkpt>
      <trkpt lat="44.86313" lon="0.6347">
        <ele>125.9</ele>
        <time>2022-07-10T08:08:11Z</time>
      </trkpt>
      <trkpt lat="44.86313" lon="0.6347">
        <ele>125.9</ele>
        <time>2022-07-10T08:08:12Z</time>
      </trkpt>
      <trkpt lat="44.86323" lon="0.63461">
        <ele>127.2</ele>
        <time>2022-07-10T08:08:20Z</time>
      </trkpt>
      <trkpt lat="44.86325" lon="0.63459">
        <ele>127.2</ele>
        <time>2022-07-10T08:08:21Z</time>
      </trkpt>
      <trkpt lat="44.86328" lon="0.63457">
        <ele>127.2</ele>
        <time>2022-07-10T08:08:23Z</time>
      </trkpt>
      <trkpt lat="44.8633" lon="0.63456">
        <ele>128</ele>
        <time>2022-07-10T08:08:24Z</time>
      </trkpt>
      <trkpt lat="44.86332" lon="0.63455">
        <ele>128</ele>
        <time>2022-07-10T08:08:25Z</time>
      </trkpt>
      <trkpt lat="44.86333" lon="0.63454">
        <ele>128</ele>
        <time>2022-07-10T08:08:26Z</time>
      </trkpt>
      <trkpt lat="44.86335" lon="0.63454">
        <ele>128</ele>
        <time>2022-07-10T08:08:27Z</time>
      </trkpt>
      <trkpt lat="44.86338" lon="0.63453">
        <ele>128</ele>
        <time>2022-07-10T08:08:29Z</time>
      </trkpt>
      <trkpt lat="44.86339" lon="0.63453">
        <ele>128</ele>
        <time>2022-07-10T08:08:30Z</time>
      </trkpt>
      <trkpt lat="44.86341" lon="0.63452">
        <ele>128</ele>
        <time>2022-07-10T08:08:31Z</time>
      </trkpt>
      <trkpt lat="44.86345" lon="0.63452">
        <ele>128.7</ele>
        <time>2022-07-10T08:08:33Z</time>
      </trkpt>
      <trkpt lat="44.8635" lon="0.63453">
        <ele>128.7</ele>
        <time>2022-07-10T08:08:35Z</time>
      </trkpt>
      <trkpt lat="44.86351" lon="0.63453">
        <ele>128.7</ele>
        <time>2022-07-10T08:08:36Z</time>
      </trkpt>
      <trkpt lat="44.86353" lon="0.63454">
        <ele>128.7</ele>
        <time>2022-07-10T08:08:37Z</time>
      </trkpt>
      <trkpt lat="44.86357" lon="0.63455">
        <ele>129.3</ele>
        <time>2022-07-10T08:08:39Z</time>
      </trkpt>
      <trkpt lat="44.86361" lon="0.63456">
        <ele>129.3</ele>
        <time>2022-07-10T08:08:41Z</time>
      </trkpt>
      <trkpt lat="44.86364" lon="0.63456">
        <ele>129.3</ele>
        <time>2022-07-10T08:08:43Z</time>
      </trkpt>
      <trkpt lat="44.86366" lon="0.63455">
        <ele>129.9</ele>
        <time>2022-07-10T08:08:44Z</time>
      </trkpt>
      <trkpt lat="44.86367" lon="0.63454">
        <ele>129.9</ele>
        <time>2022-07-10T08:08:45Z</time>
      </trkpt>
      <trkpt lat="44.86367" lon="0.63454">
        <ele>129.9</ele>
        <time>2022-07-10T08:08:46Z</time>
      </trkpt>
      <trkpt lat="44.86364" lon="0.63443">
        <ele>130.2</ele>
        <time>2022-07-10T08:08:50Z</time>
      </trkpt>
      <trkpt lat="44.86364" lon="0.63439">
        <ele>130.2</ele>
        <time>2022-07-10T08:08:51Z</time>
      </trkpt>
      <trkpt lat="44.86365" lon="0.63433">
        <ele>130.2</ele>
        <time>2022-07-10T08:08:53Z</time>
      </trkpt>
      <trkpt lat="44.86366" lon="0.63426">
        <ele>130.2</ele>
        <time>2022-07-10T08:08:55Z</time>
      </trkpt>
      <trkpt lat="44.86366" lon="0.63423">
        <ele>130</ele>
        <time>2022-07-10T08:08:56Z</time>
      </trkpt>
      <trkpt lat="44.86364" lon="0.63419">
        <ele>130</ele>
        <time>2022-07-10T08:08:57Z</time>
      </trkpt>
      <trkpt lat="44.86361" lon="0.63413">
        <ele>130</ele>
        <time>2022-07-10T08:08:59Z</time>
      </trkpt>
      <trkpt lat="44.86358" lon="0.63412">
        <ele>128.8</ele>
        <time>2022-07-10T08:09:00Z</time>
      </trkpt>
      <trkpt lat="44.86356" lon="0.63411">
        <ele>128.8</ele>
        <time>2022-07-10T08:09:01Z</time>
      </trkpt>
      <trkpt lat="44.8635" lon="0.63409">
        <ele>128.9</ele>
        <time>2022-07-10T08:09:03Z</time>
      </trkpt>
      <trkpt lat="44.86349" lon="0.6341">
        <ele>128.9</ele>
        <time>2022-07-10T08:09:04Z</time>
      </trkpt>
      <trkpt lat="44.86347" lon="0.63408">
        <ele>128.9</ele>
        <time>2022-07-10T08:09:05Z</time>
      </trkpt>
      <trkpt lat="44.8635" lon="0.63401">
        <ele>128.9</ele>
        <time>2022-07-10T08:09:07Z</time>
      </trkpt>
      <trkpt lat="44.86355" lon="0.63403">
        <ele>128.8</ele>
        <time>2022-07-10T08:09:09Z</time>
      </trkpt>
      <trkpt lat="44.86357" lon="0.63402">
        <ele>128.8</ele>
        <time>2022-07-10T08:09:10Z</time>
      </trkpt>
      <trkpt lat="44.86359" lon="0.63401">
        <ele>128.8</ele>
        <time>2022-07-10T08:09:11Z</time>
      </trkpt>
      <trkpt lat="44.86363" lon="0.634">
        <ele>128.8</ele>
        <time>2022-07-10T08:09:13Z</time>
      </trkpt>
      <trkpt lat="44.86366" lon="0.634">
        <ele>128.8</ele>
        <time>2022-07-10T08:09:14Z</time>
      </trkpt>
      <trkpt lat="44.86367" lon="0.634">
        <ele>128.7</ele>
        <time>2022-07-10T08:09:15Z</time>
      </trkpt>
      <trkpt lat="44.8637" lon="0.63402">
        <ele>128.7</ele>
        <time>2022-07-10T08:09:17Z</time>
      </trkpt>
      <trkpt lat="44.86373" lon="0.63406">
        <ele>128.7</ele>
        <time>2022-07-10T08:09:19Z</time>
      </trkpt>
      <trkpt lat="44.86376" lon="0.63412">
        <ele>128.7</ele>
        <time>2022-07-10T08:09:21Z</time>
      </trkpt>
      <trkpt lat="44.8638" lon="0.63416">
        <ele>130.2</ele>
        <time>2022-07-10T08:09:23Z</time>
      </trkpt>
      <trkpt lat="44.86382" lon="0.63416">
        <ele>130.2</ele>
        <time>2022-07-10T08:09:24Z</time>
      </trkpt>
      <trkpt lat="44.86385" lon="0.63418">
        <ele>130.2</ele>
        <time>2022-07-10T08:09:25Z</time>
      </trkpt>
      <trkpt lat="44.86391" lon="0.6342">
        <ele>130.1</ele>
        <time>2022-07-10T08:09:27Z</time>
      </trkpt>
      <trkpt lat="44.86395" lon="0.63422">
        <ele>130.1</ele>
        <time>2022-07-10T08:09:28Z</time>
      </trkpt>
      <trkpt lat="44.86395" lon="0.63425">
        <ele>130.1</ele>
        <time>2022-07-10T08:09:29Z</time>
      </trkpt>
      <trkpt lat="44.86397" lon="0.63427">
        <ele>130.1</ele>
        <time>2022-07-10T08:09:30Z</time>
      </trkpt>
      <trkpt lat="44.864" lon="0.63429">
        <ele>130.1</ele>
        <time>2022-07-10T08:09:31Z</time>
      </trkpt>
      <trkpt lat="44.86402" lon="0.63429">
        <ele>131.1</ele>
        <time>2022-07-10T08:09:32Z</time>
      </trkpt>
      <trkpt lat="44.86406" lon="0.63429">
        <ele>131.1</ele>
        <time>2022-07-10T08:09:33Z</time>
      </trkpt>
      <trkpt lat="44.86408" lon="0.63429">
        <ele>131.1</ele>
        <time>2022-07-10T08:09:34Z</time>
      </trkpt>
      <trkpt lat="44.86411" lon="0.6343">
        <ele>131.1</ele>
        <time>2022-07-10T08:09:35Z</time>
      </trkpt>
      <trkpt lat="44.86412" lon="0.63429">
        <ele>131.1</ele>
        <time>2022-07-10T08:09:36Z</time>
      </trkpt>
      <trkpt lat="44.86414" lon="0.63431">
        <ele>131.1</ele>
        <time>2022-07-10T08:09:37Z</time>
      </trkpt>
      <trkpt lat="44.86419" lon="0.63431">
        <ele>130.8</ele>
        <time>2022-07-10T08:09:39Z</time>
      </trkpt>
      <trkpt lat="44.86425" lon="0.63431">
        <ele>130.8</ele>
        <time>2022-07-10T08:09:41Z</time>
      </trkpt>
      <trkpt lat="44.86426" lon="0.63432">
        <ele>130.8</ele>
        <time>2022-07-10T08:09:42Z</time>
      </trkpt>
      <trkpt lat="44.86429" lon="0.63434">
        <ele>130.2</ele>
        <time>2022-07-10T08:09:43Z</time>
      </trkpt>
      <trkpt lat="44.8643" lon="0.63436">
        <ele>130.2</ele>
        <time>2022-07-10T08:09:44Z</time>
      </trkpt>
      <trkpt lat="44.86434" lon="0.63439">
        <ele>130.2</ele>
        <time>2022-07-10T08:09:45Z</time>
      </trkpt>
      <trkpt lat="44.8644" lon="0.63441">
        <ele>129.2</ele>
        <time>2022-07-10T08:09:47Z</time>
      </trkpt>
      <trkpt lat="44.86443" lon="0.63441">
        <ele>129.2</ele>
        <time>2022-07-10T08:09:48Z</time>
      </trkpt>
      <trkpt lat="44.86445" lon="0.63439">
        <ele>129.2</ele>
        <time>2022-07-10T08:09:49Z</time>
      </trkpt>
      <trkpt lat="44.86446" lon="0.63435">
        <ele>129.2</ele>
        <time>2022-07-10T08:09:51Z</time>
      </trkpt>
      <trkpt lat="44.86451" lon="0.6343">
        <ele>128</ele>
        <time>2022-07-10T08:09:53Z</time>
      </trkpt>
      <trkpt lat="44.86456" lon="0.63422">
        <ele>126.1</ele>
        <time>2022-07-10T08:09:55Z</time>
      </trkpt>
      <trkpt lat="44.8646" lon="0.63413">
        <ele>126.1</ele>
        <time>2022-07-10T08:09:57Z</time>
      </trkpt>
      <trkpt lat="44.8646" lon="0.63408">
        <ele>125</ele>
        <time>2022-07-10T08:09:58Z</time>
      </trkpt>
      <trkpt lat="44.86462" lon="0.63404">
        <ele>125</ele>
        <time>2022-07-10T08:09:59Z</time>
      </trkpt>
      <trkpt lat="44.86463" lon="0.63401">
        <ele>125</ele>
        <time>2022-07-10T08:10:00Z</time>
      </trkpt>
      <trkpt lat="44.86462" lon="0.63397">
        <ele>125</ele>
        <time>2022-07-10T08:10:01Z</time>
      </trkpt>
      <trkpt lat="44.86459" lon="0.6339">
        <ele>124.7</ele>
        <time>2022-07-10T08:10:03Z</time>
      </trkpt>
      <trkpt lat="44.86456" lon="0.63379">
        <ele>124.7</ele>
        <time>2022-07-10T08:10:05Z</time>
      </trkpt>
      <trkpt lat="44.86454" lon="0.63375">
        <ele>124.8</ele>
        <time>2022-07-10T08:10:06Z</time>
      </trkpt>
      <trkpt lat="44.86451" lon="0.6337">
        <ele>124.8</ele>
        <time>2022-07-10T08:10:07Z</time>
      </trkpt>
      <trkpt lat="44.86451" lon="0.63364">
        <ele>124.8</ele>
        <time>2022-07-10T08:10:08Z</time>
      </trkpt>
      <trkpt lat="44.86451" lon="0.63359">
        <ele>124.3</ele>
        <time>2022-07-10T08:10:09Z</time>
      </trkpt>
      <trkpt lat="44.86449" lon="0.63354">
        <ele>125</ele>
        <time>2022-07-10T08:10:10Z</time>
      </trkpt>
      <trkpt lat="44.86447" lon="0.63349">
        <ele>125</ele>
        <time>2022-07-10T08:10:11Z</time>
      </trkpt>
      <trkpt lat="44.86447" lon="0.63343">
        <ele>124.4</ele>
        <time>2022-07-10T08:10:12Z</time>
      </trkpt>
      <trkpt lat="44.86446" lon="0.63335">
        <ele>124.4</ele>
        <time>2022-07-10T08:10:13Z</time>
      </trkpt>
      <trkpt lat="44.86444" lon="0.63328">
        <ele>124.4</ele>
        <time>2022-07-10T08:10:14Z</time>
      </trkpt>
      <trkpt lat="44.8644" lon="0.63323">
        <ele>123.6</ele>
        <time>2022-07-10T08:10:15Z</time>
      </trkpt>
      <trkpt lat="44.86435" lon="0.63319">
        <ele>123.9</ele>
        <time>2022-07-10T08:10:16Z</time>
      </trkpt>
      <trkpt lat="44.86432" lon="0.63318">
        <ele>123.9</ele>
        <time>2022-07-10T08:10:17Z</time>
      </trkpt>
      <trkpt lat="44.86427" lon="0.63313">
        <ele>123.9</ele>
        <time>2022-07-10T08:10:18Z</time>
      </trkpt>
      <trkpt lat="44.86422" lon="0.63308">
        <ele>123</ele>
        <time>2022-07-10T08:10:19Z</time>
      </trkpt>
      <trkpt lat="44.86419" lon="0.63302">
        <ele>123</ele>
        <time>2022-07-10T08:10:20Z</time>
      </trkpt>
      <trkpt lat="44.86417" lon="0.63295">
        <ele>123</ele>
        <time>2022-07-10T08:10:21Z</time>
      </trkpt>
      <trkpt lat="44.86414" lon="0.63288">
        <ele>122.4</ele>
        <time>2022-07-10T08:10:22Z</time>
      </trkpt>
      <trkpt lat="44.86412" lon="0.63282">
        <ele>122.4</ele>
        <time>2022-07-10T08:10:23Z</time>
      </trkpt>
      <trkpt lat="44.86407" lon="0.6327">
        <ele>121.1</ele>
        <time>2022-07-10T08:10:25Z</time>
      </trkpt>
      <trkpt lat="44.86404" lon="0.63261">
        <ele>121.1</ele>
        <time>2022-07-10T08:10:27Z</time>
      </trkpt>
      <trkpt lat="44.864" lon="0.63256">
        <ele>120.5</ele>
        <time>2022-07-10T08:10:29Z</time>
      </trkpt>
      <trkpt lat="44.86398" lon="0.6325">
        <ele>120.5</ele>
        <time>2022-07-10T08:10:31Z</time>
      </trkpt>
      <trkpt lat="44.86396" lon="0.63245">
        <ele>120.5</ele>
        <time>2022-07-10T08:10:33Z</time>
      </trkpt>
      <trkpt lat="44.86395" lon="0.63241">
        <ele>120.5</ele>
        <time>2022-07-10T08:10:35Z</time>
      </trkpt>
      <trkpt lat="44.86394" lon="0.63236">
        <ele>119.2</ele>
        <time>2022-07-10T08:10:37Z</time>
      </trkpt>
      <trkpt lat="44.86393" lon="0.63234">
        <ele>119.2</ele>
        <time>2022-07-10T08:10:38Z</time>
      </trkpt>
      <trkpt lat="44.86391" lon="0.63232">
        <ele>119.2</ele>
        <time>2022-07-10T08:10:39Z</time>
      </trkpt>
      <trkpt lat="44.86389" lon="0.63228">
        <ele>120.3</ele>
        <time>2022-07-10T08:10:41Z</time>
      </trkpt>
      <trkpt lat="44.86388" lon="0.63224">
        <ele>120.3</ele>
        <time>2022-07-10T08:10:43Z</time>
      </trkpt>
      <trkpt lat="44.86385" lon="0.63219">
        <ele>119</ele>
        <time>2022-07-10T08:10:45Z</time>
      </trkpt>
      <trkpt lat="44.86383" lon="0.63214">
        <ele>119</ele>
        <time>2022-07-10T08:10:47Z</time>
      </trkpt>
      <trkpt lat="44.8638" lon="0.63208">
        <ele>119</ele>
        <time>2022-07-10T08:10:49Z</time>
      </trkpt>
      <trkpt lat="44.86377" lon="0.63202">
        <ele>118.9</ele>
        <time>2022-07-10T08:10:51Z</time>
      </trkpt>
      <trkpt lat="44.86373" lon="0.63196">
        <ele>118.9</ele>
        <time>2022-07-10T08:10:53Z</time>
      </trkpt>
      <trkpt lat="44.86371" lon="0.63193">
        <ele>118.9</ele>
        <time>2022-07-10T08:10:54Z</time>
      </trkpt>
      <trkpt lat="44.8637" lon="0.6319">
        <ele>118.9</ele>
        <time>2022-07-10T08:10:55Z</time>
      </trkpt>
      <trkpt lat="44.86366" lon="0.63183">
        <ele>117.9</ele>
        <time>2022-07-10T08:10:57Z</time>
      </trkpt>
      <trkpt lat="44.86361" lon="0.63175">
        <ele>119.1</ele>
        <time>2022-07-10T08:10:59Z</time>
      </trkpt>
      <trkpt lat="44.86358" lon="0.63171">
        <ele>117.9</ele>
        <time>2022-07-10T08:11:00Z</time>
      </trkpt>
      <trkpt lat="44.86355" lon="0.63168">
        <ele>117.9</ele>
        <time>2022-07-10T08:11:01Z</time>
      </trkpt>
      <trkpt lat="44.8635" lon="0.6316">
        <ele>119.2</ele>
        <time>2022-07-10T08:11:03Z</time>
      </trkpt>
      <trkpt lat="44.86344" lon="0.63151">
        <ele>117.7</ele>
        <time>2022-07-10T08:11:05Z</time>
      </trkpt>
      <trkpt lat="44.86338" lon="0.63142">
        <ele>118.7</ele>
        <time>2022-07-10T08:11:07Z</time>
      </trkpt>
      <trkpt lat="44.86332" lon="0.63133">
        <ele>116.8</ele>
        <time>2022-07-10T08:11:09Z</time>
      </trkpt>
      <trkpt lat="44.86324" lon="0.63121">
        <ele>117.8</ele>
        <time>2022-07-10T08:11:11Z</time>
      </trkpt>
      <trkpt lat="44.86318" lon="0.63108">
        <ele>116.2</ele>
        <time>2022-07-10T08:11:13Z</time>
      </trkpt>
      <trkpt lat="44.86311" lon="0.63094">
        <ele>115.8</ele>
        <time>2022-07-10T08:11:15Z</time>
      </trkpt>
      <trkpt lat="44.86304" lon="0.63078">
        <ele>115.3</ele>
        <time>2022-07-10T08:11:17Z</time>
      </trkpt>
      <trkpt lat="44.86299" lon="0.63071">
        <ele>115.3</ele>
        <time>2022-07-10T08:11:18Z</time>
      </trkpt>
      <trkpt lat="44.86294" lon="0.63065">
        <ele>114</ele>
        <time>2022-07-10T08:11:19Z</time>
      </trkpt>
      <trkpt lat="44.86288" lon="0.63059">
        <ele>114.8</ele>
        <time>2022-07-10T08:11:20Z</time>
      </trkpt>
      <trkpt lat="44.86283" lon="0.63054">
        <ele>114.8</ele>
        <time>2022-07-10T08:11:21Z</time>
      </trkpt>
      <trkpt lat="44.86272" lon="0.63044">
        <ele>113.7</ele>
        <time>2022-07-10T08:11:23Z</time>
      </trkpt>
      <trkpt lat="44.86266" lon="0.63037">
        <ele>113.6</ele>
        <time>2022-07-10T08:11:25Z</time>
      </trkpt>
      <trkpt lat="44.86268" lon="0.63034">
        <ele>111.6</ele>
        <time>2022-07-10T08:11:26Z</time>
      </trkpt>
      <trkpt lat="44.8627" lon="0.63031">
        <ele>111.9</ele>
        <time>2022-07-10T08:11:27Z</time>
      </trkpt>
      <trkpt lat="44.86278" lon="0.63026">
        <ele>111.9</ele>
        <time>2022-07-10T08:11:29Z</time>
      </trkpt>
      <trkpt lat="44.86285" lon="0.63021">
        <ele>111.8</ele>
        <time>2022-07-10T08:11:31Z</time>
      </trkpt>
      <trkpt lat="44.86286" lon="0.63016">
        <ele>110.2</ele>
        <time>2022-07-10T08:11:33Z</time>
      </trkpt>
      <trkpt lat="44.86281" lon="0.63008">
        <ele>110.2</ele>
        <time>2022-07-10T08:11:35Z</time>
      </trkpt>
      <trkpt lat="44.86277" lon="0.63006">
        <ele>110.2</ele>
        <time>2022-07-10T08:11:36Z</time>
      </trkpt>
      <trkpt lat="44.86272" lon="0.63004">
        <ele>110.2</ele>
        <time>2022-07-10T08:11:37Z</time>
      </trkpt>
      <trkpt lat="44.86267" lon="0.63002">
        <ele>109.9</ele>
        <time>2022-07-10T08:11:38Z</time>
      </trkpt>
      <trkpt lat="44.86263" lon="0.63">
        <ele>108.2</ele>
        <time>2022-07-10T08:11:39Z</time>
      </trkpt>
      <trkpt lat="44.86264" lon="0.62995">
        <ele>108.2</ele>
        <time>2022-07-10T08:11:41Z</time>
      </trkpt>
      <trkpt lat="44.86271" lon="0.62991">
        <ele>108.5</ele>
        <time>2022-07-10T08:11:43Z</time>
      </trkpt>
      <trkpt lat="44.86276" lon="0.6299">
        <ele>108.5</ele>
        <time>2022-07-10T08:11:44Z</time>
      </trkpt>
      <trkpt lat="44.8628" lon="0.62987">
        <ele>108.5</ele>
        <time>2022-07-10T08:11:45Z</time>
      </trkpt>
      <trkpt lat="44.86285" lon="0.62985">
        <ele>108.5</ele>
        <time>2022-07-10T08:11:47Z</time>
      </trkpt>
      <trkpt lat="44.86285" lon="0.62982">
        <ele>107.1</ele>
        <time>2022-07-10T08:11:48Z</time>
      </trkpt>
      <trkpt lat="44.86283" lon="0.62981">
        <ele>107.1</ele>
        <time>2022-07-10T08:11:49Z</time>
      </trkpt>
      <trkpt lat="44.86281" lon="0.6298">
        <ele>107.1</ele>
        <time>2022-07-10T08:11:50Z</time>
      </trkpt>
      <trkpt lat="44.86278" lon="0.62979">
        <ele>107.2</ele>
        <time>2022-07-10T08:11:51Z</time>
      </trkpt>
      <trkpt lat="44.86274" lon="0.62978">
        <ele>107.2</ele>
        <time>2022-07-10T08:11:52Z</time>
      </trkpt>
      <trkpt lat="44.8627" lon="0.62977">
        <ele>107.2</ele>
        <time>2022-07-10T08:11:53Z</time>
      </trkpt>
      <trkpt lat="44.86266" lon="0.62975">
        <ele>106.9</ele>
        <time>2022-07-10T08:11:54Z</time>
      </trkpt>
      <trkpt lat="44.86264" lon="0.62971">
        <ele>106.9</ele>
        <time>2022-07-10T08:11:55Z</time>
      </trkpt>
      <trkpt lat="44.86256" lon="0.62968">
        <ele>106.4</ele>
        <time>2022-07-10T08:11:57Z</time>
      </trkpt>
      <trkpt lat="44.86247" lon="0.62963">
        <ele>105</ele>
        <time>2022-07-10T08:11:59Z</time>
      </trkpt>
      <trkpt lat="44.86242" lon="0.62958">
        <ele>104.3</ele>
        <time>2022-07-10T08:12:00Z</time>
      </trkpt>
      <trkpt lat="44.86238" lon="0.62954">
        <ele>104.3</ele>
        <time>2022-07-10T08:12:01Z</time>
      </trkpt>
      <trkpt lat="44.86232" lon="0.62953">
        <ele>104.3</ele>
        <time>2022-07-10T08:12:02Z</time>
      </trkpt>
      <trkpt lat="44.86226" lon="0.62954">
        <ele>103.4</ele>
        <time>2022-07-10T08:12:03Z</time>
      </trkpt>
      <trkpt lat="44.86221" lon="0.62953">
        <ele>103.4</ele>
        <time>2022-07-10T08:12:04Z</time>
      </trkpt>
      <trkpt lat="44.86218" lon="0.62952">
        <ele>102.2</ele>
        <time>2022-07-10T08:12:05Z</time>
      </trkpt>
      <trkpt lat="44.86217" lon="0.6295">
        <ele>102.2</ele>
        <time>2022-07-10T08:12:06Z</time>
      </trkpt>
      <trkpt lat="44.86218" lon="0.62947">
        <ele>100.3</ele>
        <time>2022-07-10T08:12:07Z</time>
      </trkpt>
      <trkpt lat="44.86224" lon="0.62943">
        <ele>101.8</ele>
        <time>2022-07-10T08:12:09Z</time>
      </trkpt>
      <trkpt lat="44.86226" lon="0.62941">
        <ele>101.8</ele>
        <time>2022-07-10T08:12:10Z</time>
      </trkpt>
      <trkpt lat="44.86226" lon="0.6294">
        <ele>101.8</ele>
        <time>2022-07-10T08:12:11Z</time>
      </trkpt>
      <trkpt lat="44.86224" lon="0.62939">
        <ele>101.8</ele>
        <time>2022-07-10T08:12:12Z</time>
      </trkpt>
      <trkpt lat="44.86223" lon="0.62938">
        <ele>101.8</ele>
        <time>2022-07-10T08:12:13Z</time>
      </trkpt>
      <trkpt lat="44.86218" lon="0.62935">
        <ele>100.3</ele>
        <time>2022-07-10T08:12:15Z</time>
      </trkpt>
      <trkpt lat="44.86216" lon="0.6293">
        <ele>98.7</ele>
        <time>2022-07-10T08:12:16Z</time>
      </trkpt>
      <trkpt lat="44.86214" lon="0.62925">
        <ele>98.8</ele>
        <time>2022-07-10T08:12:17Z</time>
      </trkpt>
      <trkpt lat="44.8621" lon="0.62921">
        <ele>98.8</ele>
        <time>2022-07-10T08:12:18Z</time>
      </trkpt>
      <trkpt lat="44.86206" lon="0.62917">
        <ele>97.3</ele>
        <time>2022-07-10T08:12:19Z</time>
      </trkpt>
      <trkpt lat="44.86202" lon="0.62914">
        <ele>95.5</ele>
        <time>2022-07-10T08:12:20Z</time>
      </trkpt>
      <trkpt lat="44.86199" lon="0.62912">
        <ele>95.5</ele>
        <time>2022-07-10T08:12:21Z</time>
      </trkpt>
      <trkpt lat="44.86191" lon="0.62907">
        <ele>93.5</ele>
        <time>2022-07-10T08:12:23Z</time>
      </trkpt>
      <trkpt lat="44.86185" lon="0.62902">
        <ele>93.5</ele>
        <time>2022-07-10T08:12:25Z</time>
      </trkpt>
      <trkpt lat="44.86182" lon="0.62901">
        <ele>91.4</ele>
        <time>2022-07-10T08:12:27Z</time>
      </trkpt>
      <trkpt lat="44.86177" lon="0.62896">
        <ele>89.5</ele>
        <time>2022-07-10T08:12:29Z</time>
      </trkpt>
      <trkpt lat="44.86173" lon="0.62893">
        <ele>89.5</ele>
        <time>2022-07-10T08:12:30Z</time>
      </trkpt>
      <trkpt lat="44.86171" lon="0.62891">
        <ele>87</ele>
        <time>2022-07-10T08:12:31Z</time>
      </trkpt>
      <trkpt lat="44.86166" lon="0.62889">
        <ele>87</ele>
        <time>2022-07-10T08:12:32Z</time>
      </trkpt>
      <trkpt lat="44.86161" lon="0.62888">
        <ele>87</ele>
        <time>2022-07-10T08:12:33Z</time>
      </trkpt>
      <trkpt lat="44.86154" lon="0.62885">
        <ele>84.7</ele>
        <time>2022-07-10T08:12:35Z</time>
      </trkpt>
      <trkpt lat="44.86154" lon="0.62884">
        <ele>84.7</ele>
        <time>2022-07-10T08:12:36Z</time>
      </trkpt>
      <trkpt lat="44.86154" lon="0.62883">
        <ele>84.7</ele>
        <time>2022-07-10T08:12:37Z</time>
      </trkpt>
      <trkpt lat="44.86162" lon="0.62878">
        <ele>85.9</ele>
        <time>2022-07-10T08:12:44Z</time>
      </trkpt>
      <trkpt lat="44.86163" lon="0.62878">
        <ele>85.9</ele>
        <time>2022-07-10T08:12:45Z</time>
      </trkpt>
      <trkpt lat="44.86166" lon="0.62874">
        <ele>85.9</ele>
        <time>2022-07-10T08:12:47Z</time>
      </trkpt>
      <trkpt lat="44.86169" lon="0.62871">
        <ele>85.9</ele>
        <time>2022-07-10T08:12:49Z</time>
      </trkpt>
      <trkpt lat="44.86172" lon="0.62869">
        <ele>88.2</ele>
        <time>2022-07-10T08:12:51Z</time>
      </trkpt>
      <trkpt lat="44.86174" lon="0.62869">
        <ele>88.2</ele>
        <time>2022-07-10T08:12:52Z</time>
      </trkpt>
      <trkpt lat="44.86175" lon="0.62867">
        <ele>88.2</ele>
        <time>2022-07-10T08:12:53Z</time>
      </trkpt>
      <trkpt lat="44.86177" lon="0.62863">
        <ele>88.2</ele>
        <time>2022-07-10T08:12:55Z</time>
      </trkpt>
      <trkpt lat="44.86176" lon="0.62862">
        <ele>88.2</ele>
        <time>2022-07-10T08:12:56Z</time>
      </trkpt>
      <trkpt lat="44.86176" lon="0.62859">
        <ele>87.1</ele>
        <time>2022-07-10T08:12:57Z</time>
      </trkpt>
      <trkpt lat="44.86176" lon="0.62855">
        <ele>87.1</ele>
        <time>2022-07-10T08:12:59Z</time>
      </trkpt>
      <trkpt lat="44.86173" lon="0.62854">
        <ele>87.1</ele>
        <time>2022-07-10T08:13:00Z</time>
      </trkpt>
      <trkpt lat="44.86171" lon="0.62853">
        <ele>87.1</ele>
        <time>2022-07-10T08:13:01Z</time>
      </trkpt>
      <trkpt lat="44.86172" lon="0.62838">
        <ele>86.1</ele>
        <time>2022-07-10T08:13:02Z</time>
      </trkpt>
      <trkpt lat="44.86169" lon="0.62837">
        <ele>84.5</ele>
        <time>2022-07-10T08:13:03Z</time>
      </trkpt>
      <trkpt lat="44.86162" lon="0.62836">
        <ele>84.5</ele>
        <time>2022-07-10T08:13:05Z</time>
      </trkpt>
      <trkpt lat="44.8616" lon="0.62836">
        <ele>84.5</ele>
        <time>2022-07-10T08:13:06Z</time>
      </trkpt>
      <trkpt lat="44.86161" lon="0.62836">
        <ele>84.5</ele>
        <time>2022-07-10T08:13:07Z</time>
      </trkpt>
      <trkpt lat="44.86162" lon="0.62836">
        <ele>84.5</ele>
        <time>2022-07-10T08:13:08Z</time>
      </trkpt>
      <trkpt lat="44.86163" lon="0.62836">
        <ele>84.5</ele>
        <time>2022-07-10T08:13:09Z</time>
      </trkpt>
      <trkpt lat="44.86165" lon="0.62837">
        <ele>84.5</ele>
        <time>2022-07-10T08:13:10Z</time>
      </trkpt>
      <trkpt lat="44.86167" lon="0.62837">
        <ele>84.5</ele>
        <time>2022-07-10T08:13:11Z</time>
      </trkpt>
      <trkpt lat="44.86171" lon="0.62838">
        <ele>86.1</ele>
        <time>2022-07-10T08:13:13Z</time>
      </trkpt>
      <trkpt lat="44.86176" lon="0.62839">
        <ele>86.1</ele>
        <time>2022-07-10T08:13:15Z</time>
      </trkpt>
      <trkpt lat="44.86179" lon="0.6284">
        <ele>86.1</ele>
        <time>2022-07-10T08:13:16Z</time>
      </trkpt>
      <trkpt lat="44.86182" lon="0.6284">
        <ele>86.1</ele>
        <time>2022-07-10T08:13:17Z</time>
      </trkpt>
      <trkpt lat="44.86185" lon="0.62841">
        <ele>87.9</ele>
        <time>2022-07-10T08:13:19Z</time>
      </trkpt>
      <trkpt lat="44.86188" lon="0.62842">
        <ele>87.9</ele>
        <time>2022-07-10T08:13:21Z</time>
      </trkpt>
      <trkpt lat="44.8619" lon="0.62842">
        <ele>87.9</ele>
        <time>2022-07-10T08:13:22Z</time>
      </trkpt>
      <trkpt lat="44.86192" lon="0.62843">
        <ele>87.9</ele>
        <time>2022-07-10T08:13:23Z</time>
      </trkpt>
      <trkpt lat="44.86198" lon="0.62827">
        <ele>88.4</ele>
        <time>2022-07-10T08:13:24Z</time>
      </trkpt>
      <trkpt lat="44.86204" lon="0.6281">
        <ele>87.2</ele>
        <time>2022-07-10T08:13:25Z</time>
      </trkpt>
      <trkpt lat="44.86207" lon="0.62809">
        <ele>87.2</ele>
        <time>2022-07-10T08:13:26Z</time>
      </trkpt>
      <trkpt lat="44.8621" lon="0.62807">
        <ele>88.4</ele>
        <time>2022-07-10T08:13:27Z</time>
      </trkpt>
      <trkpt lat="44.86212" lon="0.62804">
        <ele>88.4</ele>
        <time>2022-07-10T08:13:29Z</time>
      </trkpt>
      <trkpt lat="44.86216" lon="0.62802">
        <ele>88.4</ele>
        <time>2022-07-10T08:13:31Z</time>
      </trkpt>
      <trkpt lat="44.86217" lon="0.62801">
        <ele>88.4</ele>
        <time>2022-07-10T08:13:32Z</time>
      </trkpt>
      <trkpt lat="44.86218" lon="0.628">
        <ele>88.4</ele>
        <time>2022-07-10T08:13:33Z</time>
      </trkpt>
      <trkpt lat="44.8622" lon="0.62798">
        <ele>88.4</ele>
        <time>2022-07-10T08:13:34Z</time>
      </trkpt>
      <trkpt lat="44.86221" lon="0.62796">
        <ele>89.5</ele>
        <time>2022-07-10T08:13:35Z</time>
      </trkpt>
      <trkpt lat="44.86223" lon="0.62793">
        <ele>88.4</ele>
        <time>2022-07-10T08:13:37Z</time>
      </trkpt>
      <trkpt lat="44.86225" lon="0.62789">
        <ele>88.4</ele>
        <time>2022-07-10T08:13:39Z</time>
      </trkpt>
      <trkpt lat="44.86231" lon="0.62784">
        <ele>88.4</ele>
        <time>2022-07-10T08:13:41Z</time>
      </trkpt>
      <trkpt lat="44.86234" lon="0.62782">
        <ele>89.2</ele>
        <time>2022-07-10T08:13:42Z</time>
      </trkpt>
      <trkpt lat="44.86236" lon="0.6278">
        <ele>89.2</ele>
        <time>2022-07-10T08:13:43Z</time>
      </trkpt>
      <trkpt lat="44.86241" lon="0.62776">
        <ele>88.3</ele>
        <time>2022-07-10T08:13:45Z</time>
      </trkpt>
      <trkpt lat="44.86245" lon="0.62775">
        <ele>89</ele>
        <time>2022-07-10T08:13:47Z</time>
      </trkpt>
      <trkpt lat="44.86251" lon="0.62774">
        <ele>89</ele>
        <time>2022-07-10T08:13:49Z</time>
      </trkpt>
      <trkpt lat="44.86255" lon="0.62772">
        <ele>89</ele>
        <time>2022-07-10T08:13:51Z</time>
      </trkpt>
      <trkpt lat="44.86252" lon="0.62755">
        <ele>88.3</ele>
        <time>2022-07-10T08:13:52Z</time>
      </trkpt>
      <trkpt lat="44.86255" lon="0.62753">
        <ele>88.3</ele>
        <time>2022-07-10T08:13:53Z</time>
      </trkpt>
      <trkpt lat="44.86261" lon="0.6275">
        <ele>88.6</ele>
        <time>2022-07-10T08:13:55Z</time>
      </trkpt>
      <trkpt lat="44.86263" lon="0.62748">
        <ele>88.6</ele>
        <time>2022-07-10T08:13:56Z</time>
      </trkpt>
      <trkpt lat="44.86264" lon="0.62746">
        <ele>88.6</ele>
        <time>2022-07-10T08:13:57Z</time>
      </trkpt>
      <trkpt lat="44.86264" lon="0.62745">
        <ele>88.6</ele>
        <time>2022-07-10T08:13:58Z</time>
      </trkpt>
      <trkpt lat="44.86265" lon="0.62744">
        <ele>88.6</ele>
        <time>2022-07-10T08:13:59Z</time>
      </trkpt>
      <trkpt lat="44.86266" lon="0.62741">
        <ele>88.2</ele>
        <time>2022-07-10T08:14:00Z</time>
      </trkpt>
      <trkpt lat="44.86268" lon="0.62738">
        <ele>88.2</ele>
        <time>2022-07-10T08:14:01Z</time>
      </trkpt>
      <trkpt lat="44.86271" lon="0.62732">
        <ele>88.3</ele>
        <time>2022-07-10T08:14:03Z</time>
      </trkpt>
      <trkpt lat="44.8628" lon="0.62735">
        <ele>88.3</ele>
        <time>2022-07-10T08:14:04Z</time>
      </trkpt>
      <trkpt lat="44.86288" lon="0.62738">
        <ele>88.4</ele>
        <time>2022-07-10T08:14:05Z</time>
      </trkpt>
      <trkpt lat="44.8629" lon="0.62735">
        <ele>88.4</ele>
        <time>2022-07-10T08:14:06Z</time>
      </trkpt>
      <trkpt lat="44.86292" lon="0.62732">
        <ele>88.4</ele>
        <time>2022-07-10T08:14:07Z</time>
      </trkpt>
      <trkpt lat="44.86291" lon="0.62728">
        <ele>88.4</ele>
        <time>2022-07-10T08:14:08Z</time>
      </trkpt>
      <trkpt lat="44.86293" lon="0.62725">
        <ele>88</ele>
        <time>2022-07-10T08:14:09Z</time>
      </trkpt>
      <trkpt lat="44.8629" lon="0.62701">
        <ele>87.9</ele>
        <time>2022-07-10T08:14:11Z</time>
      </trkpt>
      <trkpt lat="44.86293" lon="0.62699">
        <ele>87.9</ele>
        <time>2022-07-10T08:14:13Z</time>
      </trkpt>
      <trkpt lat="44.86292" lon="0.627">
        <ele>87.9</ele>
        <time>2022-07-10T08:14:15Z</time>
      </trkpt>
      <trkpt lat="44.86289" lon="0.62702">
        <ele>87.9</ele>
        <time>2022-07-10T08:14:16Z</time>
      </trkpt>
      <trkpt lat="44.86286" lon="0.62704">
        <ele>87.9</ele>
        <time>2022-07-10T08:14:17Z</time>
      </trkpt>
      <trkpt lat="44.86293" lon="0.62699">
        <ele>87.9</ele>
        <time>2022-07-10T08:14:18Z</time>
      </trkpt>
      <trkpt lat="44.86291" lon="0.62699">
        <ele>87.9</ele>
        <time>2022-07-10T08:14:19Z</time>
      </trkpt>
      <trkpt lat="44.8629" lon="0.62699">
        <ele>87.9</ele>
        <time>2022-07-10T08:14:21Z</time>
      </trkpt>
      <trkpt lat="44.86288" lon="0.62699">
        <ele>87.9</ele>
        <time>2022-07-10T08:14:23Z</time>
      </trkpt>
      <trkpt lat="44.86286" lon="0.62699">
        <ele>87.9</ele>
        <time>2022-07-10T08:14:25Z</time>
      </trkpt>
      <trkpt lat="44.86285" lon="0.62699">
        <ele>87.9</ele>
        <time>2022-07-10T08:14:27Z</time>
      </trkpt>
      <trkpt lat="44.86283" lon="0.62699">
        <ele>87.9</ele>
        <time>2022-07-10T08:14:28Z</time>
      </trkpt>
      <trkpt lat="44.86281" lon="0.62699">
        <ele>87.9</ele>
        <time>2022-07-10T08:14:29Z</time>
      </trkpt>
      <trkpt lat="44.8628" lon="0.62699">
        <ele>88</ele>
        <time>2022-07-10T08:14:30Z</time>
      </trkpt>
      <trkpt lat="44.86273" lon="0.62695">
        <ele>88</ele>
        <time>2022-07-10T08:14:31Z</time>
      </trkpt>
      <trkpt lat="44.86271" lon="0.62695">
        <ele>88</ele>
        <time>2022-07-10T08:14:33Z</time>
      </trkpt>
      <trkpt lat="44.86267" lon="0.62694">
        <ele>88</ele>
        <time>2022-07-10T08:14:35Z</time>
      </trkpt>
      <trkpt lat="44.86267" lon="0.62693">
        <ele>88</ele>
        <time>2022-07-10T08:14:36Z</time>
      </trkpt>
      <trkpt lat="44.86266" lon="0.6269">
        <ele>87.8</ele>
        <time>2022-07-10T08:14:37Z</time>
      </trkpt>
      <trkpt lat="44.86267" lon="0.62689">
        <ele>87.8</ele>
        <time>2022-07-10T08:14:38Z</time>
      </trkpt>
      <trkpt lat="44.86267" lon="0.62688">
        <ele>87.8</ele>
        <time>2022-07-10T08:14:39Z</time>
      </trkpt>
      <trkpt lat="44.86268" lon="0.62686">
        <ele>87.8</ele>
        <time>2022-07-10T08:14:41Z</time>
      </trkpt>
      <trkpt lat="44.86268" lon="0.62684">
        <ele>87.8</ele>
        <time>2022-07-10T08:14:43Z</time>
      </trkpt>
      <trkpt lat="44.86268" lon="0.62683">
        <ele>87.8</ele>
        <time>2022-07-10T08:14:44Z</time>
      </trkpt>
      <trkpt lat="44.86269" lon="0.62682">
        <ele>87.8</ele>
        <time>2022-07-10T08:14:45Z</time>
      </trkpt>
      <trkpt lat="44.86269" lon="0.62679">
        <ele>87.8</ele>
        <time>2022-07-10T08:14:46Z</time>
      </trkpt>
      <trkpt lat="44.8627" lon="0.62678">
        <ele>87.8</ele>
        <time>2022-07-10T08:14:47Z</time>
      </trkpt>
      <trkpt lat="44.86271" lon="0.62675">
        <ele>87.8</ele>
        <time>2022-07-10T08:14:49Z</time>
      </trkpt>
      <trkpt lat="44.86273" lon="0.62674">
        <ele>87.5</ele>
        <time>2022-07-10T08:14:50Z</time>
      </trkpt>
      <trkpt lat="44.86273" lon="0.62672">
        <ele>87.5</ele>
        <time>2022-07-10T08:14:51Z</time>
      </trkpt>
      <trkpt lat="44.86274" lon="0.62667">
        <ele>87.5</ele>
        <time>2022-07-10T08:14:53Z</time>
      </trkpt>
      <trkpt lat="44.86275" lon="0.62664">
        <ele>87.5</ele>
        <time>2022-07-10T08:14:55Z</time>
      </trkpt>
      <trkpt lat="44.86276" lon="0.6266">
        <ele>87.5</ele>
        <time>2022-07-10T08:14:57Z</time>
      </trkpt>
      <trkpt lat="44.86277" lon="0.62658">
        <ele>87.5</ele>
        <time>2022-07-10T08:14:58Z</time>
      </trkpt>
      <trkpt lat="44.86278" lon="0.62657">
        <ele>87.5</ele>
        <time>2022-07-10T08:14:59Z</time>
      </trkpt>
      <trkpt lat="44.86279" lon="0.62652">
        <ele>87.9</ele>
        <time>2022-07-10T08:15:01Z</time>
      </trkpt>
      <trkpt lat="44.86279" lon="0.6265">
        <ele>87.9</ele>
        <time>2022-07-10T08:15:03Z</time>
      </trkpt>
      <trkpt lat="44.8628" lon="0.62648">
        <ele>87.9</ele>
        <time>2022-07-10T08:15:04Z</time>
      </trkpt>
      <trkpt lat="44.8628" lon="0.62647">
        <ele>87.9</ele>
        <time>2022-07-10T08:15:05Z</time>
      </trkpt>
      <trkpt lat="44.8628" lon="0.62645">
        <ele>87.9</ele>
        <time>2022-07-10T08:15:07Z</time>
      </trkpt>
      <trkpt lat="44.8628" lon="0.62644">
        <ele>87.9</ele>
        <time>2022-07-10T08:15:08Z</time>
      </trkpt>
      <trkpt lat="44.8628" lon="0.62642">
        <ele>87.9</ele>
        <time>2022-07-10T08:15:09Z</time>
      </trkpt>
      <trkpt lat="44.8628" lon="0.6264">
        <ele>87.9</ele>
        <time>2022-07-10T08:15:11Z</time>
      </trkpt>
      <trkpt lat="44.86281" lon="0.6264">
        <ele>87.7</ele>
        <time>2022-07-10T08:15:12Z</time>
      </trkpt>
      <trkpt lat="44.86281" lon="0.62638">
        <ele>89.1</ele>
        <time>2022-07-10T08:15:13Z</time>
      </trkpt>
      <trkpt lat="44.86286" lon="0.62631">
        <ele>89.1</ele>
        <time>2022-07-10T08:15:18Z</time>
      </trkpt>
      <trkpt lat="44.86287" lon="0.62629">
        <ele>89.1</ele>
        <time>2022-07-10T08:15:19Z</time>
      </trkpt>
      <trkpt lat="44.86287" lon="0.62628">
        <ele>89.1</ele>
        <time>2022-07-10T08:15:20Z</time>
      </trkpt>
      <trkpt lat="44.86288" lon="0.62627">
        <ele>89.1</ele>
        <time>2022-07-10T08:15:21Z</time>
      </trkpt>
      <trkpt lat="44.86289" lon="0.62623">
        <ele>89.1</ele>
        <time>2022-07-10T08:15:23Z</time>
      </trkpt>
      <trkpt lat="44.86291" lon="0.62621">
        <ele>91.6</ele>
        <time>2022-07-10T08:15:25Z</time>
      </trkpt>
      <trkpt lat="44.86292" lon="0.6262">
        <ele>91.6</ele>
        <time>2022-07-10T08:15:26Z</time>
      </trkpt>
      <trkpt lat="44.86293" lon="0.62619">
        <ele>91.5</ele>
        <time>2022-07-10T08:15:27Z</time>
      </trkpt>
      <trkpt lat="44.86295" lon="0.62616">
        <ele>91.5</ele>
        <time>2022-07-10T08:15:29Z</time>
      </trkpt>
      <trkpt lat="44.86297" lon="0.62614">
        <ele>91.5</ele>
        <time>2022-07-10T08:15:31Z</time>
      </trkpt>
      <trkpt lat="44.86297" lon="0.62612">
        <ele>91.5</ele>
        <time>2022-07-10T08:15:32Z</time>
      </trkpt>
      <trkpt lat="44.86297" lon="0.62611">
        <ele>91.5</ele>
        <time>2022-07-10T08:15:33Z</time>
      </trkpt>
      <trkpt lat="44.86296" lon="0.62607">
        <ele>91.5</ele>
        <time>2022-07-10T08:15:35Z</time>
      </trkpt>
      <trkpt lat="44.86295" lon="0.62605">
        <ele>91.5</ele>
        <time>2022-07-10T08:15:37Z</time>
      </trkpt>
      <trkpt lat="44.86295" lon="0.62604">
        <ele>94.6</ele>
        <time>2022-07-10T08:15:38Z</time>
      </trkpt>
      <trkpt lat="44.86277" lon="0.62542">
        <ele>103</ele>
        <time>2022-07-10T08:16:29Z</time>
      </trkpt>
      <trkpt lat="44.86275" lon="0.62541">
        <ele>103</ele>
        <time>2022-07-10T08:16:30Z</time>
      </trkpt>
      <trkpt lat="44.86273" lon="0.6254">
        <ele>103</ele>
        <time>2022-07-10T08:16:31Z</time>
      </trkpt>
      <trkpt lat="44.8627" lon="0.62538">
        <ele>103</ele>
        <time>2022-07-10T08:16:33Z</time>
      </trkpt>
      <trkpt lat="44.86263" lon="0.62544">
        <ele>103.2</ele>
        <time>2022-07-10T08:16:35Z</time>
      </trkpt>
      <trkpt lat="44.86257" lon="0.62548">
        <ele>103.2</ele>
        <time>2022-07-10T08:16:38Z</time>
      </trkpt>
      <trkpt lat="44.86252" lon="0.62552">
        <ele>103</ele>
        <time>2022-07-10T08:16:39Z</time>
      </trkpt>
      <trkpt lat="44.86244" lon="0.62548">
        <ele>103</ele>
        <time>2022-07-10T08:16:41Z</time>
      </trkpt>
      <trkpt lat="44.86239" lon="0.62544">
        <ele>102.5</ele>
        <time>2022-07-10T08:16:44Z</time>
      </trkpt>
      <trkpt lat="44.86234" lon="0.6254">
        <ele>102.5</ele>
        <time>2022-07-10T08:16:45Z</time>
      </trkpt>
      <trkpt lat="44.8623" lon="0.62533">
        <ele>103.6</ele>
        <time>2022-07-10T08:16:46Z</time>
      </trkpt>
      <trkpt lat="44.86225" lon="0.62529">
        <ele>103.6</ele>
        <time>2022-07-10T08:16:47Z</time>
      </trkpt>
      <trkpt lat="44.86223" lon="0.62524">
        <ele>103.6</ele>
        <time>2022-07-10T08:16:49Z</time>
      </trkpt>
      <trkpt lat="44.86224" lon="0.62519">
        <ele>105.2</ele>
        <time>2022-07-10T08:16:51Z</time>
      </trkpt>
      <trkpt lat="44.86224" lon="0.62514">
        <ele>105.2</ele>
        <time>2022-07-10T08:16:53Z</time>
      </trkpt>
      <trkpt lat="44.86225" lon="0.62513">
        <ele>105.2</ele>
        <time>2022-07-10T08:16:55Z</time>
      </trkpt>
      <trkpt lat="44.86226" lon="0.62511">
        <ele>105.2</ele>
        <time>2022-07-10T08:16:56Z</time>
      </trkpt>
      <trkpt lat="44.86225" lon="0.62507">
        <ele>105.2</ele>
        <time>2022-07-10T08:16:57Z</time>
      </trkpt>
      <trkpt lat="44.86224" lon="0.62501">
        <ele>106.7</ele>
        <time>2022-07-10T08:16:59Z</time>
      </trkpt>
      <trkpt lat="44.86223" lon="0.62498">
        <ele>106.7</ele>
        <time>2022-07-10T08:17:00Z</time>
      </trkpt>
      <trkpt lat="44.86223" lon="0.62495">
        <ele>106.7</ele>
        <time>2022-07-10T08:17:01Z</time>
      </trkpt>
      <trkpt lat="44.86222" lon="0.62493">
        <ele>106.7</ele>
        <time>2022-07-10T08:17:02Z</time>
      </trkpt>
      <trkpt lat="44.86221" lon="0.62491">
        <ele>106.7</ele>
        <time>2022-07-10T08:17:03Z</time>
      </trkpt>
      <trkpt lat="44.8622" lon="0.62486">
        <ele>105.4</ele>
        <time>2022-07-10T08:17:05Z</time>
      </trkpt>
      <trkpt lat="44.86219" lon="0.62484">
        <ele>106.4</ele>
        <time>2022-07-10T08:17:06Z</time>
      </trkpt>
      <trkpt lat="44.86219" lon="0.62483">
        <ele>106.4</ele>
        <time>2022-07-10T08:17:07Z</time>
      </trkpt>
      <trkpt lat="44.86219" lon="0.62483">
        <ele>106.4</ele>
        <time>2022-07-10T08:17:08Z</time>
      </trkpt>
      <trkpt lat="44.86235" lon="0.62431">
        <ele>110.7</ele>
        <time>2022-07-10T08:17:34Z</time>
      </trkpt>
      <trkpt lat="44.86237" lon="0.6243">
        <ele>110.7</ele>
        <time>2022-07-10T08:17:35Z</time>
      </trkpt>
      <trkpt lat="44.86239" lon="0.62427">
        <ele>110.7</ele>
        <time>2022-07-10T08:17:37Z</time>
      </trkpt>
      <trkpt lat="44.86242" lon="0.62426">
        <ele>110.7</ele>
        <time>2022-07-10T08:17:39Z</time>
      </trkpt>
      <trkpt lat="44.86245" lon="0.62424">
        <ele>111.5</ele>
        <time>2022-07-10T08:17:41Z</time>
      </trkpt>
      <trkpt lat="44.86248" lon="0.62421">
        <ele>111.5</ele>
        <time>2022-07-10T08:17:43Z</time>
      </trkpt>
      <trkpt lat="44.8625" lon="0.62419">
        <ele>111.5</ele>
        <time>2022-07-10T08:17:45Z</time>
      </trkpt>
      <trkpt lat="44.86252" lon="0.62418">
        <ele>111.5</ele>
        <time>2022-07-10T08:17:46Z</time>
      </trkpt>
      <trkpt lat="44.86253" lon="0.62417">
        <ele>111.5</ele>
        <time>2022-07-10T08:17:47Z</time>
      </trkpt>
      <trkpt lat="44.86257" lon="0.62417">
        <ele>112</ele>
        <time>2022-07-10T08:17:49Z</time>
      </trkpt>
      <trkpt lat="44.86258" lon="0.62418">
        <ele>112</ele>
        <time>2022-07-10T08:17:50Z</time>
      </trkpt>
      <trkpt lat="44.8626" lon="0.6242">
        <ele>112</ele>
        <time>2022-07-10T08:17:51Z</time>
      </trkpt>
      <trkpt lat="44.86263" lon="0.62424">
        <ele>112</ele>
        <time>2022-07-10T08:17:53Z</time>
      </trkpt>
      <trkpt lat="44.86267" lon="0.62425">
        <ele>112</ele>
        <time>2022-07-10T08:17:54Z</time>
      </trkpt>
      <trkpt lat="44.86269" lon="0.62424">
        <ele>112.2</ele>
        <time>2022-07-10T08:17:55Z</time>
      </trkpt>
      <trkpt lat="44.86269" lon="0.62422">
        <ele>112.2</ele>
        <time>2022-07-10T08:17:57Z</time>
      </trkpt>
      <trkpt lat="44.86269" lon="0.6242">
        <ele>112.2</ele>
        <time>2022-07-10T08:17:58Z</time>
      </trkpt>
      <trkpt lat="44.86271" lon="0.62418">
        <ele>112.2</ele>
        <time>2022-07-10T08:17:59Z</time>
      </trkpt>
      <trkpt lat="44.86271" lon="0.62413">
        <ele>112.9</ele>
        <time>2022-07-10T08:18:01Z</time>
      </trkpt>
      <trkpt lat="44.86274" lon="0.62408">
        <ele>113.1</ele>
        <time>2022-07-10T08:18:03Z</time>
      </trkpt>
      <trkpt lat="44.86269" lon="0.62408">
        <ele>113.3</ele>
        <time>2022-07-10T08:18:04Z</time>
      </trkpt>
      <trkpt lat="44.86268" lon="0.62405">
        <ele>113.4</ele>
        <time>2022-07-10T08:18:05Z</time>
      </trkpt>
      <trkpt lat="44.86267" lon="0.62403">
        <ele>113.5</ele>
        <time>2022-07-10T08:18:06Z</time>
      </trkpt>
      <trkpt lat="44.86266" lon="0.624">
        <ele>113.6</ele>
        <time>2022-07-10T08:18:07Z</time>
      </trkpt>
      <trkpt lat="44.86266" lon="0.62398">
        <ele>113.7</ele>
        <time>2022-07-10T08:18:08Z</time>
      </trkpt>
      <trkpt lat="44.86265" lon="0.62396">
        <ele>113.8</ele>
        <time>2022-07-10T08:18:09Z</time>
      </trkpt>
      <trkpt lat="44.86265" lon="0.62393">
        <ele>113.8</ele>
        <time>2022-07-10T08:18:10Z</time>
      </trkpt>
      <trkpt lat="44.86265" lon="0.62393">
        <ele>113.8</ele>
        <time>2022-07-10T08:18:11Z</time>
      </trkpt>
      <trkpt lat="44.86265" lon="0.62393">
        <ele>113.8</ele>
        <time>2022-07-10T08:18:12Z</time>
      </trkpt>
      <trkpt lat="44.86264" lon="0.62385">
        <ele>114</ele>
        <time>2022-07-10T08:18:14Z</time>
      </trkpt>
      <trkpt lat="44.86263" lon="0.62383">
        <ele>114.1</ele>
        <time>2022-07-10T08:18:15Z</time>
      </trkpt>
      <trkpt lat="44.86263" lon="0.62381">
        <ele>114.1</ele>
        <time>2022-07-10T08:18:16Z</time>
      </trkpt>
      <trkpt lat="44.86262" lon="0.62379">
        <ele>114.2</ele>
        <time>2022-07-10T08:18:17Z</time>
      </trkpt>
      <trkpt lat="44.86262" lon="0.62377">
        <ele>114.2</ele>
        <time>2022-07-10T08:18:18Z</time>
      </trkpt>
      <trkpt lat="44.86261" lon="0.62374">
        <ele>114.3</ele>
        <time>2022-07-10T08:18:19Z</time>
      </trkpt>
      <trkpt lat="44.8626" lon="0.62365">
        <ele>114.4</ele>
        <time>2022-07-10T08:18:21Z</time>
      </trkpt>
      <trkpt lat="44.86259" lon="0.6236">
        <ele>114.4</ele>
        <time>2022-07-10T08:18:22Z</time>
      </trkpt>
      <trkpt lat="44.86258" lon="0.62355">
        <ele>114.4</ele>
        <time>2022-07-10T08:18:23Z</time>
      </trkpt>
      <trkpt lat="44.86257" lon="0.62346">
        <ele>114.4</ele>
        <time>2022-07-10T08:18:25Z</time>
      </trkpt>
      <trkpt lat="44.86256" lon="0.62341">
        <ele>114.4</ele>
        <time>2022-07-10T08:18:26Z</time>
      </trkpt>
      <trkpt lat="44.86255" lon="0.62335">
        <ele>114.3</ele>
        <time>2022-07-10T08:18:27Z</time>
      </trkpt>
      <trkpt lat="44.86252" lon="0.62321">
        <ele>114</ele>
        <time>2022-07-10T08:18:29Z</time>
      </trkpt>
      <trkpt lat="44.86251" lon="0.62314">
        <ele>113.8</ele>
        <time>2022-07-10T08:18:30Z</time>
      </trkpt>
      <trkpt lat="44.8625" lon="0.62307">
        <ele>113.7</ele>
        <time>2022-07-10T08:18:31Z</time>
      </trkpt>
      <trkpt lat="44.86247" lon="0.62292">
        <ele>113.3</ele>
        <time>2022-07-10T08:18:33Z</time>
      </trkpt>
      <trkpt lat="44.86246" lon="0.6228">
        <ele>113</ele>
        <time>2022-07-10T08:18:35Z</time>
      </trkpt>
      <trkpt lat="44.86246" lon="0.62273">
        <ele>112.9</ele>
        <time>2022-07-10T08:18:36Z</time>
      </trkpt>
      <trkpt lat="44.86245" lon="0.62264">
        <ele>112.7</ele>
        <time>2022-07-10T08:18:37Z</time>
      </trkpt>
      <trkpt lat="44.86244" lon="0.62256">
        <ele>112.6</ele>
        <time>2022-07-10T08:18:38Z</time>
      </trkpt>
      <trkpt lat="44.86245" lon="0.62246">
        <ele>112.4</ele>
        <time>2022-07-10T08:18:39Z</time>
      </trkpt>
      <trkpt lat="44.86247" lon="0.6224">
        <ele>112.3</ele>
        <time>2022-07-10T08:18:40Z</time>
      </trkpt>
      <trkpt lat="44.8625" lon="0.62234">
        <ele>112.2</ele>
        <time>2022-07-10T08:18:41Z</time>
      </trkpt>
      <trkpt lat="44.86252" lon="0.62227">
        <ele>112.2</ele>
        <time>2022-07-10T08:18:42Z</time>
      </trkpt>
      <trkpt lat="44.86254" lon="0.62223">
        <ele>112.1</ele>
        <time>2022-07-10T08:18:43Z</time>
      </trkpt>
      <trkpt lat="44.86255" lon="0.62219">
        <ele>112.1</ele>
        <time>2022-07-10T08:18:45Z</time>
      </trkpt>
      <trkpt lat="44.86255" lon="0.62219">
        <ele>112.1</ele>
        <time>2022-07-10T08:18:46Z</time>
      </trkpt>
      <trkpt lat="44.86255" lon="0.62219">
        <ele>112.1</ele>
        <time>2022-07-10T08:18:47Z</time>
      </trkpt>
      <trkpt lat="44.86251" lon="0.62191">
        <ele>112.2</ele>
        <time>2022-07-10T08:24:29Z</time>
      </trkpt>
      <trkpt lat="44.86252" lon="0.62188">
        <ele>112.2</ele>
        <time>2022-07-10T08:24:31Z</time>
      </trkpt>
      <trkpt lat="44.86253" lon="0.62187">
        <ele>112.2</ele>
        <time>2022-07-10T08:24:33Z</time>
      </trkpt>
      <trkpt lat="44.86256" lon="0.62186">
        <ele>112.2</ele>
        <time>2022-07-10T08:24:35Z</time>
      </trkpt>
      <trkpt lat="44.86258" lon="0.62182">
        <ele>112.3</ele>
        <time>2022-07-10T08:24:37Z</time>
      </trkpt>
      <trkpt lat="44.86262" lon="0.62178">
        <ele>112.3</ele>
        <time>2022-07-10T08:24:39Z</time>
      </trkpt>
      <trkpt lat="44.86264" lon="0.62175">
        <ele>112.3</ele>
        <time>2022-07-10T08:24:40Z</time>
      </trkpt>
      <trkpt lat="44.86271" lon="0.62179">
        <ele>112.5</ele>
        <time>2022-07-10T08:24:41Z</time>
      </trkpt>
      <trkpt lat="44.86273" lon="0.62174">
        <ele>112.6</ele>
        <time>2022-07-10T08:24:43Z</time>
      </trkpt>
      <trkpt lat="44.86275" lon="0.62168">
        <ele>112.7</ele>
        <time>2022-07-10T08:24:45Z</time>
      </trkpt>
      <trkpt lat="44.86278" lon="0.62162">
        <ele>112.8</ele>
        <time>2022-07-10T08:24:47Z</time>
      </trkpt>
      <trkpt lat="44.86279" lon="0.62159">
        <ele>112.8</ele>
        <time>2022-07-10T08:24:48Z</time>
      </trkpt>
      <trkpt lat="44.86278" lon="0.62153">
        <ele>112.8</ele>
        <time>2022-07-10T08:24:49Z</time>
      </trkpt>
      <trkpt lat="44.86276" lon="0.62149">
        <ele>112.8</ele>
        <time>2022-07-10T08:24:51Z</time>
      </trkpt>
      <trkpt lat="44.86275" lon="0.62144">
        <ele>112.8</ele>
        <time>2022-07-10T08:24:52Z</time>
      </trkpt>
      <trkpt lat="44.86268" lon="0.62136">
        <ele>111.9</ele>
        <time>2022-07-10T08:24:53Z</time>
      </trkpt>
      <trkpt lat="44.86262" lon="0.62131">
        <ele>111.9</ele>
        <time>2022-07-10T08:24:55Z</time>
      </trkpt>
      <trkpt lat="44.86261" lon="0.62131">
        <ele>111.9</ele>
        <time>2022-07-10T08:24:56Z</time>
      </trkpt>
      <trkpt lat="44.86259" lon="0.6213">
        <ele>111.9</ele>
        <time>2022-07-10T08:24:57Z</time>
      </trkpt>
      <trkpt lat="44.86252" lon="0.62123">
        <ele>111.4</ele>
        <time>2022-07-10T08:24:59Z</time>
      </trkpt>
      <trkpt lat="44.86249" lon="0.62118">
        <ele>111.4</ele>
        <time>2022-07-10T08:25:00Z</time>
      </trkpt>
      <trkpt lat="44.86247" lon="0.62114">
        <ele>111.4</ele>
        <time>2022-07-10T08:25:01Z</time>
      </trkpt>
      <trkpt lat="44.86242" lon="0.62108">
        <ele>110.6</ele>
        <time>2022-07-10T08:25:03Z</time>
      </trkpt>
      <trkpt lat="44.86241" lon="0.62104">
        <ele>111.4</ele>
        <time>2022-07-10T08:25:04Z</time>
      </trkpt>
      <trkpt lat="44.8624" lon="0.62101">
        <ele>111.5</ele>
        <time>2022-07-10T08:25:05Z</time>
      </trkpt>
      <trkpt lat="44.86242" lon="0.62096">
        <ele>111.5</ele>
        <time>2022-07-10T08:25:07Z</time>
      </trkpt>
      <trkpt lat="44.86244" lon="0.62091">
        <ele>111.5</ele>
        <time>2022-07-10T08:25:09Z</time>
      </trkpt>
      <trkpt lat="44.86245" lon="0.62085">
        <ele>112.8</ele>
        <time>2022-07-10T08:25:11Z</time>
      </trkpt>
      <trkpt lat="44.86245" lon="0.62084">
        <ele>112.8</ele>
        <time>2022-07-10T08:25:12Z</time>
      </trkpt>
      <trkpt lat="44.86247" lon="0.62082">
        <ele>112.8</ele>
        <time>2022-07-10T08:25:13Z</time>
      </trkpt>
      <trkpt lat="44.86249" lon="0.62077">
        <ele>112.8</ele>
        <time>2022-07-10T08:25:15Z</time>
      </trkpt>
      <trkpt lat="44.86249" lon="0.62075">
        <ele>112.8</ele>
        <time>2022-07-10T08:25:16Z</time>
      </trkpt>
      <trkpt lat="44.8625" lon="0.62072">
        <ele>113.4</ele>
        <time>2022-07-10T08:25:17Z</time>
      </trkpt>
      <trkpt lat="44.8625" lon="0.62067">
        <ele>113.4</ele>
        <time>2022-07-10T08:25:19Z</time>
      </trkpt>
      <trkpt lat="44.86249" lon="0.62062">
        <ele>113.4</ele>
        <time>2022-07-10T08:25:21Z</time>
      </trkpt>
      <trkpt lat="44.86248" lon="0.62056">
        <ele>113.4</ele>
        <time>2022-07-10T08:25:23Z</time>
      </trkpt>
      <trkpt lat="44.86248" lon="0.62052">
        <ele>113.9</ele>
        <time>2022-07-10T08:25:25Z</time>
      </trkpt>
      <trkpt lat="44.86249" lon="0.62049">
        <ele>113.9</ele>
        <time>2022-07-10T08:25:26Z</time>
      </trkpt>
      <trkpt lat="44.86249" lon="0.62047">
        <ele>113.9</ele>
        <time>2022-07-10T08:25:27Z</time>
      </trkpt>
      <trkpt lat="44.86247" lon="0.62043">
        <ele>113.9</ele>
        <time>2022-07-10T08:25:28Z</time>
      </trkpt>
      <trkpt lat="44.86248" lon="0.62042">
        <ele>113.9</ele>
        <time>2022-07-10T08:25:29Z</time>
      </trkpt>
      <trkpt lat="44.86247" lon="0.62037">
        <ele>114.5</ele>
        <time>2022-07-10T08:25:31Z</time>
      </trkpt>
      <trkpt lat="44.86245" lon="0.62033">
        <ele>114.5</ele>
        <time>2022-07-10T08:25:33Z</time>
      </trkpt>
      <trkpt lat="44.86245" lon="0.6203">
        <ele>114.5</ele>
        <time>2022-07-10T08:25:35Z</time>
      </trkpt>
      <trkpt lat="44.86242" lon="0.62027">
        <ele>113.9</ele>
        <time>2022-07-10T08:25:36Z</time>
      </trkpt>
      <trkpt lat="44.86242" lon="0.62024">
        <ele>113.9</ele>
        <time>2022-07-10T08:25:37Z</time>
      </trkpt>
      <trkpt lat="44.86266" lon="0.61957">
        <ele>117.5</ele>
        <time>2022-07-10T08:26:32Z</time>
      </trkpt>
      <trkpt lat="44.86268" lon="0.61957">
        <ele>117.6</ele>
        <time>2022-07-10T08:26:33Z</time>
      </trkpt>
      <trkpt lat="44.86271" lon="0.61956">
        <ele>117.4</ele>
        <time>2022-07-10T08:26:35Z</time>
      </trkpt>
      <trkpt lat="44.86271" lon="0.61956">
        <ele>117.4</ele>
        <time>2022-07-10T08:26:37Z</time>
      </trkpt>
      <trkpt lat="44.86277" lon="0.61957">
        <ele>117.4</ele>
        <time>2022-07-10T08:26:39Z</time>
      </trkpt>
      <trkpt lat="44.86281" lon="0.6196">
        <ele>117.2</ele>
        <time>2022-07-10T08:26:41Z</time>
      </trkpt>
      <trkpt lat="44.86287" lon="0.6196">
        <ele>117.2</ele>
        <time>2022-07-10T08:26:43Z</time>
      </trkpt>
      <trkpt lat="44.86294" lon="0.61961">
        <ele>116.9</ele>
        <time>2022-07-10T08:26:45Z</time>
      </trkpt>
      <trkpt lat="44.863" lon="0.61958">
        <ele>116.9</ele>
        <time>2022-07-10T08:26:47Z</time>
      </trkpt>
      <trkpt lat="44.86309" lon="0.6195">
        <ele>117</ele>
        <time>2022-07-10T08:26:49Z</time>
      </trkpt>
      <trkpt lat="44.86312" lon="0.61951">
        <ele>117</ele>
        <time>2022-07-10T08:26:50Z</time>
      </trkpt>
      <trkpt lat="44.86314" lon="0.61954">
        <ele>116.8</ele>
        <time>2022-07-10T08:26:51Z</time>
      </trkpt>
      <trkpt lat="44.86317" lon="0.61963">
        <ele>116.8</ele>
        <time>2022-07-10T08:26:53Z</time>
      </trkpt>
      <trkpt lat="44.8632" lon="0.6197">
        <ele>116.5</ele>
        <time>2022-07-10T08:26:54Z</time>
      </trkpt>
      <trkpt lat="44.86321" lon="0.61976">
        <ele>116.6</ele>
        <time>2022-07-10T08:26:55Z</time>
      </trkpt>
      <trkpt lat="44.86319" lon="0.61987">
        <ele>116.3</ele>
        <time>2022-07-10T08:26:57Z</time>
      </trkpt>
      <trkpt lat="44.86321" lon="0.61991">
        <ele>116.3</ele>
        <time>2022-07-10T08:26:58Z</time>
      </trkpt>
      <trkpt lat="44.86324" lon="0.61992">
        <ele>116.3</ele>
        <time>2022-07-10T08:26:59Z</time>
      </trkpt>
      <trkpt lat="44.86333" lon="0.61992">
        <ele>116.4</ele>
        <time>2022-07-10T08:27:01Z</time>
      </trkpt>
      <trkpt lat="44.86337" lon="0.61992">
        <ele>116.4</ele>
        <time>2022-07-10T08:27:02Z</time>
      </trkpt>
      <trkpt lat="44.86341" lon="0.61993">
        <ele>116.5</ele>
        <time>2022-07-10T08:27:03Z</time>
      </trkpt>
      <trkpt lat="44.86345" lon="0.61997">
        <ele>116.5</ele>
        <time>2022-07-10T08:27:05Z</time>
      </trkpt>
      <trkpt lat="44.86349" lon="0.61997">
        <ele>116.5</ele>
        <time>2022-07-10T08:27:06Z</time>
      </trkpt>
      <trkpt lat="44.86352" lon="0.61996">
        <ele>116.5</ele>
        <time>2022-07-10T08:27:07Z</time>
      </trkpt>
      <trkpt lat="44.86355" lon="0.61997">
        <ele>116.6</ele>
        <time>2022-07-10T08:27:08Z</time>
      </trkpt>
      <trkpt lat="44.86358" lon="0.61998">
        <ele>116.6</ele>
        <time>2022-07-10T08:27:09Z</time>
      </trkpt>
      <trkpt lat="44.86363" lon="0.61999">
        <ele>116.6</ele>
        <time>2022-07-10T08:27:11Z</time>
      </trkpt>
      <trkpt lat="44.86366" lon="0.61998">
        <ele>116.8</ele>
        <time>2022-07-10T08:27:12Z</time>
      </trkpt>
      <trkpt lat="44.86369" lon="0.61997">
        <ele>116.8</ele>
        <time>2022-07-10T08:27:13Z</time>
      </trkpt>
      <trkpt lat="44.86378" lon="0.62002">
        <ele>116.8</ele>
        <time>2022-07-10T08:27:15Z</time>
      </trkpt>
      <trkpt lat="44.8638" lon="0.61998">
        <ele>116.8</ele>
        <time>2022-07-10T08:27:17Z</time>
      </trkpt>
      <trkpt lat="44.86381" lon="0.61997">
        <ele>116.8</ele>
        <time>2022-07-10T08:27:18Z</time>
      </trkpt>
      <trkpt lat="44.86382" lon="0.61994">
        <ele>116.8</ele>
        <time>2022-07-10T08:27:19Z</time>
      </trkpt>
      <trkpt lat="44.86386" lon="0.61989">
        <ele>116.9</ele>
        <time>2022-07-10T08:27:21Z</time>
      </trkpt>
      <trkpt lat="44.8639" lon="0.61983">
        <ele>116.9</ele>
        <time>2022-07-10T08:27:23Z</time>
      </trkpt>
      <trkpt lat="44.86393" lon="0.61978">
        <ele>116.9</ele>
        <time>2022-07-10T08:27:25Z</time>
      </trkpt>
      <trkpt lat="44.86395" lon="0.61975">
        <ele>116.9</ele>
        <time>2022-07-10T08:27:26Z</time>
      </trkpt>
      <trkpt lat="44.86397" lon="0.61972">
        <ele>116.9</ele>
        <time>2022-07-10T08:27:27Z</time>
      </trkpt>
      <trkpt lat="44.86399" lon="0.61969">
        <ele>117</ele>
        <time>2022-07-10T08:27:28Z</time>
      </trkpt>
      <trkpt lat="44.86401" lon="0.61966">
        <ele>117</ele>
        <time>2022-07-10T08:27:29Z</time>
      </trkpt>
      <trkpt lat="44.86404" lon="0.61961">
        <ele>117</ele>
        <time>2022-07-10T08:27:31Z</time>
      </trkpt>
      <trkpt lat="44.86408" lon="0.61955">
        <ele>117.1</ele>
        <time>2022-07-10T08:27:33Z</time>
      </trkpt>
      <trkpt lat="44.86411" lon="0.6195">
        <ele>117.2</ele>
        <time>2022-07-10T08:27:35Z</time>
      </trkpt>
      <trkpt lat="44.86415" lon="0.61945">
        <ele>117.3</ele>
        <time>2022-07-10T08:27:37Z</time>
      </trkpt>
      <trkpt lat="44.86418" lon="0.6194">
        <ele>117.4</ele>
        <time>2022-07-10T08:27:39Z</time>
      </trkpt>
      <trkpt lat="44.8642" lon="0.61936">
        <ele>117.5</ele>
        <time>2022-07-10T08:27:40Z</time>
      </trkpt>
      <trkpt lat="44.86421" lon="0.61932">
        <ele>117.6</ele>
        <time>2022-07-10T08:27:41Z</time>
      </trkpt>
      <trkpt lat="44.86424" lon="0.61925">
        <ele>117.7</ele>
        <time>2022-07-10T08:27:43Z</time>
      </trkpt>
      <trkpt lat="44.86426" lon="0.61918">
        <ele>117.7</ele>
        <time>2022-07-10T08:27:45Z</time>
      </trkpt>
      <trkpt lat="44.86427" lon="0.61914">
        <ele>117.7</ele>
        <time>2022-07-10T08:27:46Z</time>
      </trkpt>
      <trkpt lat="44.86429" lon="0.6191">
        <ele>117.8</ele>
        <time>2022-07-10T08:27:47Z</time>
      </trkpt>
      <trkpt lat="44.86432" lon="0.619">
        <ele>117.8</ele>
        <time>2022-07-10T08:27:49Z</time>
      </trkpt>
      <trkpt lat="44.86434" lon="0.61895">
        <ele>117.8</ele>
        <time>2022-07-10T08:27:50Z</time>
      </trkpt>
      <trkpt lat="44.86435" lon="0.6189">
        <ele>117.7</ele>
        <time>2022-07-10T08:27:51Z</time>
      </trkpt>
      <trkpt lat="44.86438" lon="0.61881">
        <ele>117.6</ele>
        <time>2022-07-10T08:27:53Z</time>
      </trkpt>
      <trkpt lat="44.8644" lon="0.61876">
        <ele>117.6</ele>
        <time>2022-07-10T08:27:54Z</time>
      </trkpt>
      <trkpt lat="44.86442" lon="0.61872">
        <ele>117.5</ele>
        <time>2022-07-10T08:27:55Z</time>
      </trkpt>
      <trkpt lat="44.86444" lon="0.61862">
        <ele>117.4</ele>
        <time>2022-07-10T08:27:57Z</time>
      </trkpt>
      <trkpt lat="44.86445" lon="0.6186">
        <ele>117.3</ele>
        <time>2022-07-10T08:27:58Z</time>
      </trkpt>
      <trkpt lat="44.86445" lon="0.61858">
        <ele>117.3</ele>
        <time>2022-07-10T08:27:59Z</time>
      </trkpt>
      <trkpt lat="44.86446" lon="0.61855">
        <ele>117.3</ele>
        <time>2022-07-10T08:28:00Z</time>
      </trkpt>
      <trkpt lat="44.86446" lon="0.61853">
        <ele>117.2</ele>
        <time>2022-07-10T08:28:01Z</time>
      </trkpt>
      <trkpt lat="44.86447" lon="0.6185">
        <ele>117.2</ele>
        <time>2022-07-10T08:28:02Z</time>
      </trkpt>
      <trkpt lat="44.86447" lon="0.61847">
        <ele>117.1</ele>
        <time>2022-07-10T08:28:03Z</time>
      </trkpt>
      <trkpt lat="44.86448" lon="0.61843">
        <ele>117</ele>
        <time>2022-07-10T08:28:04Z</time>
      </trkpt>
      <trkpt lat="44.86449" lon="0.61839">
        <ele>116.9</ele>
        <time>2022-07-10T08:28:05Z</time>
      </trkpt>
      <trkpt lat="44.86449" lon="0.61835">
        <ele>116.8</ele>
        <time>2022-07-10T08:28:06Z</time>
      </trkpt>
      <trkpt lat="44.86449" lon="0.61831">
        <ele>116.7</ele>
        <time>2022-07-10T08:28:07Z</time>
      </trkpt>
      <trkpt lat="44.86445" lon="0.61821">
        <ele>116.5</ele>
        <time>2022-07-10T08:28:08Z</time>
      </trkpt>
      <trkpt lat="44.86442" lon="0.61822">
        <ele>116.5</ele>
        <time>2022-07-10T08:28:09Z</time>
      </trkpt>
      <trkpt lat="44.86439" lon="0.61824">
        <ele>116.5</ele>
        <time>2022-07-10T08:28:10Z</time>
      </trkpt>
      <trkpt lat="44.86436" lon="0.61825">
        <ele>116.5</ele>
        <time>2022-07-10T08:28:11Z</time>
      </trkpt>
      <trkpt lat="44.8643" lon="0.61828">
        <ele>116.5</ele>
        <time>2022-07-10T08:28:13Z</time>
      </trkpt>
      <trkpt lat="44.86424" lon="0.61831">
        <ele>116.5</ele>
        <time>2022-07-10T08:28:15Z</time>
      </trkpt>
      <trkpt lat="44.86423" lon="0.61832">
        <ele>116.5</ele>
        <time>2022-07-10T08:28:16Z</time>
      </trkpt>
      <trkpt lat="44.86422" lon="0.61832">
        <ele>116.5</ele>
        <time>2022-07-10T08:28:17Z</time>
      </trkpt>
      <trkpt lat="44.86422" lon="0.61832">
        <ele>116.5</ele>
        <time>2022-07-10T08:28:19Z</time>
      </trkpt>
      <trkpt lat="44.86424" lon="0.61831">
        <ele>116.5</ele>
        <time>2022-07-10T08:28:25Z</time>
      </trkpt>
      <trkpt lat="44.86426" lon="0.6183">
        <ele>116.5</ele>
        <time>2022-07-10T08:28:26Z</time>
      </trkpt>
      <trkpt lat="44.86428" lon="0.61829">
        <ele>116.5</ele>
        <time>2022-07-10T08:28:27Z</time>
      </trkpt>
      <trkpt lat="44.8643" lon="0.61828">
        <ele>116.5</ele>
        <time>2022-07-10T08:28:28Z</time>
      </trkpt>
      <trkpt lat="44.86432" lon="0.61827">
        <ele>116.5</ele>
        <time>2022-07-10T08:28:29Z</time>
      </trkpt>
      <trkpt lat="44.86437" lon="0.61825">
        <ele>116.5</ele>
        <time>2022-07-10T08:28:31Z</time>
      </trkpt>
      <trkpt lat="44.86442" lon="0.61822">
        <ele>116.5</ele>
        <time>2022-07-10T08:28:33Z</time>
      </trkpt>
      <trkpt lat="44.86448" lon="0.61819">
        <ele>116.5</ele>
        <time>2022-07-10T08:28:35Z</time>
      </trkpt>
      <trkpt lat="44.86453" lon="0.61814">
        <ele>116.5</ele>
        <time>2022-07-10T08:28:37Z</time>
      </trkpt>
      <trkpt lat="44.86458" lon="0.61809">
        <ele>116.5</ele>
        <time>2022-07-10T08:28:39Z</time>
      </trkpt>
      <trkpt lat="44.86464" lon="0.61805">
        <ele>116.5</ele>
        <time>2022-07-10T08:28:41Z</time>
      </trkpt>
      <trkpt lat="44.8647" lon="0.61802">
        <ele>116.6</ele>
        <time>2022-07-10T08:28:43Z</time>
      </trkpt>
      <trkpt lat="44.86476" lon="0.61798">
        <ele>116.6</ele>
        <time>2022-07-10T08:28:45Z</time>
      </trkpt>
      <trkpt lat="44.86481" lon="0.61794">
        <ele>116.6</ele>
        <time>2022-07-10T08:28:47Z</time>
      </trkpt>
      <trkpt lat="44.86487" lon="0.6179">
        <ele>116.7</ele>
        <time>2022-07-10T08:28:49Z</time>
      </trkpt>
      <trkpt lat="44.86493" lon="0.61786">
        <ele>116.8</ele>
        <time>2022-07-10T08:28:51Z</time>
      </trkpt>
      <trkpt lat="44.86496" lon="0.61784">
        <ele>116.8</ele>
        <time>2022-07-10T08:28:52Z</time>
      </trkpt>
      <trkpt lat="44.86499" lon="0.61783">
        <ele>116.8</ele>
        <time>2022-07-10T08:28:53Z</time>
      </trkpt>
      <trkpt lat="44.86505" lon="0.61779">
        <ele>116.9</ele>
        <time>2022-07-10T08:28:55Z</time>
      </trkpt>
      <trkpt lat="44.86511" lon="0.61775">
        <ele>117</ele>
        <time>2022-07-10T08:28:57Z</time>
      </trkpt>
      <trkpt lat="44.86517" lon="0.61773">
        <ele>117.1</ele>
        <time>2022-07-10T08:28:59Z</time>
      </trkpt>
      <trkpt lat="44.86524" lon="0.6177">
        <ele>117.3</ele>
        <time>2022-07-10T08:29:01Z</time>
      </trkpt>
      <trkpt lat="44.8653" lon="0.61768">
        <ele>117.4</ele>
        <time>2022-07-10T08:29:03Z</time>
      </trkpt>
      <trkpt lat="44.86537" lon="0.61766">
        <ele>117.6</ele>
        <time>2022-07-10T08:29:05Z</time>
      </trkpt>
      <trkpt lat="44.8654" lon="0.61764">
        <ele>117.7</ele>
        <time>2022-07-10T08:29:06Z</time>
      </trkpt>
      <trkpt lat="44.86544" lon="0.61763">
        <ele>117.8</ele>
        <time>2022-07-10T08:29:07Z</time>
      </trkpt>
      <trkpt lat="44.86551" lon="0.61761">
        <ele>118</ele>
        <time>2022-07-10T08:29:09Z</time>
      </trkpt>
      <trkpt lat="44.86556" lon="0.61758">
        <ele>118.1</ele>
        <time>2022-07-10T08:29:11Z</time>
      </trkpt>
      <trkpt lat="44.86559" lon="0.61758">
        <ele>118.2</ele>
        <time>2022-07-10T08:29:12Z</time>
      </trkpt>
      <trkpt lat="44.86561" lon="0.61757">
        <ele>118.3</ele>
        <time>2022-07-10T08:29:13Z</time>
      </trkpt>
      <trkpt lat="44.86562" lon="0.61741">
        <ele>118.3</ele>
        <time>2022-07-10T08:29:15Z</time>
      </trkpt>
      <trkpt lat="44.86561" lon="0.61738">
        <ele>118.3</ele>
        <time>2022-07-10T08:29:16Z</time>
      </trkpt>
      <trkpt lat="44.8656" lon="0.61735">
        <ele>118.3</ele>
        <time>2022-07-10T08:29:17Z</time>
      </trkpt>
      <trkpt lat="44.86558" lon="0.61727">
        <ele>118.2</ele>
        <time>2022-07-10T08:29:19Z</time>
      </trkpt>
      <trkpt lat="44.86555" lon="0.61717">
        <ele>118.2</ele>
        <time>2022-07-10T08:29:21Z</time>
      </trkpt>
      <trkpt lat="44.86553" lon="0.61709">
        <ele>118.1</ele>
        <time>2022-07-10T08:29:23Z</time>
      </trkpt>
      <trkpt lat="44.86551" lon="0.617">
        <ele>118.2</ele>
        <time>2022-07-10T08:29:25Z</time>
      </trkpt>
      <trkpt lat="44.86548" lon="0.61691">
        <ele>118.2</ele>
        <time>2022-07-10T08:29:27Z</time>
      </trkpt>
      <trkpt lat="44.86546" lon="0.61683">
        <ele>118.2</ele>
        <time>2022-07-10T08:29:29Z</time>
      </trkpt>
      <trkpt lat="44.86545" lon="0.61671">
        <ele>118.3</ele>
        <time>2022-07-10T08:29:31Z</time>
      </trkpt>
      <trkpt lat="44.86544" lon="0.61666">
        <ele>118.3</ele>
        <time>2022-07-10T08:29:32Z</time>
      </trkpt>
      <trkpt lat="44.86544" lon="0.61662">
        <ele>118.4</ele>
        <time>2022-07-10T08:29:33Z</time>
      </trkpt>
      <trkpt lat="44.86543" lon="0.61654">
        <ele>118.4</ele>
        <time>2022-07-10T08:29:35Z</time>
      </trkpt>
      <trkpt lat="44.86542" lon="0.6165">
        <ele>118.4</ele>
        <time>2022-07-10T08:29:36Z</time>
      </trkpt>
      <trkpt lat="44.86542" lon="0.61646">
        <ele>118.5</ele>
        <time>2022-07-10T08:29:37Z</time>
      </trkpt>
      <trkpt lat="44.86541" lon="0.61642">
        <ele>118.5</ele>
        <time>2022-07-10T08:29:38Z</time>
      </trkpt>
      <trkpt lat="44.86541" lon="0.61638">
        <ele>118.5</ele>
        <time>2022-07-10T08:29:39Z</time>
      </trkpt>
      <trkpt lat="44.8654" lon="0.61633">
        <ele>118.6</ele>
        <time>2022-07-10T08:29:40Z</time>
      </trkpt>
      <trkpt lat="44.8654" lon="0.61629">
        <ele>118.6</ele>
        <time>2022-07-10T08:29:41Z</time>
      </trkpt>
      <trkpt lat="44.86539" lon="0.6162">
        <ele>118.7</ele>
        <time>2022-07-10T08:29:43Z</time>
      </trkpt>
      <trkpt lat="44.86538" lon="0.61617">
        <ele>118.7</ele>
        <time>2022-07-10T08:29:44Z</time>
      </trkpt>
      <trkpt lat="44.86538" lon="0.61613">
        <ele>118.8</ele>
        <time>2022-07-10T08:29:45Z</time>
      </trkpt>
      <trkpt lat="44.86536" lon="0.61601">
        <ele>119</ele>
        <time>2022-07-10T08:29:47Z</time>
      </trkpt>
      <trkpt lat="44.86534" lon="0.61591">
        <ele>119.2</ele>
        <time>2022-07-10T08:29:49Z</time>
      </trkpt>
      <trkpt lat="44.86532" lon="0.61581">
        <ele>119.5</ele>
        <time>2022-07-10T08:29:51Z</time>
      </trkpt>
      <trkpt lat="44.86531" lon="0.61576">
        <ele>119.7</ele>
        <time>2022-07-10T08:29:52Z</time>
      </trkpt>
      <trkpt lat="44.86531" lon="0.61571">
        <ele>119.8</ele>
        <time>2022-07-10T08:29:53Z</time>
      </trkpt>
      <trkpt lat="44.86529" lon="0.61561">
        <ele>120.2</ele>
        <time>2022-07-10T08:29:55Z</time>
      </trkpt>
      <trkpt lat="44.86528" lon="0.61556">
        <ele>120.4</ele>
        <time>2022-07-10T08:29:56Z</time>
      </trkpt>
      <trkpt lat="44.86527" lon="0.61551">
        <ele>120.5</ele>
        <time>2022-07-10T08:29:57Z</time>
      </trkpt>
      <trkpt lat="44.86525" lon="0.61542">
        <ele>120.8</ele>
        <time>2022-07-10T08:29:59Z</time>
      </trkpt>
      <trkpt lat="44.86524" lon="0.61533">
        <ele>121.1</ele>
        <time>2022-07-10T08:30:01Z</time>
      </trkpt>
      <trkpt lat="44.86522" lon="0.61524">
        <ele>121.4</ele>
        <time>2022-07-10T08:30:03Z</time>
      </trkpt>
      <trkpt lat="44.86519" lon="0.61517">
        <ele>121.6</ele>
        <time>2022-07-10T08:30:05Z</time>
      </trkpt>
      <trkpt lat="44.86516" lon="0.6151">
        <ele>121.8</ele>
        <time>2022-07-10T08:30:07Z</time>
      </trkpt>
      <trkpt lat="44.86514" lon="0.61502">
        <ele>122.1</ele>
        <time>2022-07-10T08:30:09Z</time>
      </trkpt>
      <trkpt lat="44.8651" lon="0.61495">
        <ele>122.5</ele>
        <time>2022-07-10T08:30:11Z</time>
      </trkpt>
      <trkpt lat="44.86506" lon="0.61489">
        <ele>122.8</ele>
        <time>2022-07-10T08:30:13Z</time>
      </trkpt>
      <trkpt lat="44.86502" lon="0.61483">
        <ele>123.2</ele>
        <time>2022-07-10T08:30:15Z</time>
      </trkpt>
      <trkpt lat="44.86498" lon="0.61477">
        <ele>123.5</ele>
        <time>2022-07-10T08:30:17Z</time>
      </trkpt>
      <trkpt lat="44.86494" lon="0.61472">
        <ele>123.9</ele>
        <time>2022-07-10T08:30:19Z</time>
      </trkpt>
      <trkpt lat="44.86491" lon="0.61465">
        <ele>124.3</ele>
        <time>2022-07-10T08:30:21Z</time>
      </trkpt>
      <trkpt lat="44.86488" lon="0.61457">
        <ele>124.7</ele>
        <time>2022-07-10T08:30:23Z</time>
      </trkpt>
      <trkpt lat="44.86485" lon="0.61451">
        <ele>125.1</ele>
        <time>2022-07-10T08:30:25Z</time>
      </trkpt>
      <trkpt lat="44.86482" lon="0.61444">
        <ele>125.4</ele>
        <time>2022-07-10T08:30:27Z</time>
      </trkpt>
      <trkpt lat="44.86479" lon="0.61437">
        <ele>125.8</ele>
        <time>2022-07-10T08:30:29Z</time>
      </trkpt>
      <trkpt lat="44.86477" lon="0.61434">
        <ele>125.9</ele>
        <time>2022-07-10T08:30:30Z</time>
      </trkpt>
      <trkpt lat="44.86476" lon="0.6143">
        <ele>126.1</ele>
        <time>2022-07-10T08:30:31Z</time>
      </trkpt>
      <trkpt lat="44.86472" lon="0.61424">
        <ele>126.4</ele>
        <time>2022-07-10T08:30:33Z</time>
      </trkpt>
      <trkpt lat="44.86469" lon="0.61419">
        <ele>126.7</ele>
        <time>2022-07-10T08:30:35Z</time>
      </trkpt>
      <trkpt lat="44.86465" lon="0.61413">
        <ele>127</ele>
        <time>2022-07-10T08:30:37Z</time>
      </trkpt>
      <trkpt lat="44.86463" lon="0.6141">
        <ele>127.2</ele>
        <time>2022-07-10T08:30:38Z</time>
      </trkpt>
      <trkpt lat="44.86462" lon="0.61408">
        <ele>127.3</ele>
        <time>2022-07-10T08:30:39Z</time>
      </trkpt>
      <trkpt lat="44.86456" lon="0.61399">
        <ele>127.8</ele>
        <time>2022-07-10T08:30:40Z</time>
      </trkpt>
      <trkpt lat="44.86456" lon="0.61397">
        <ele>127.9</ele>
        <time>2022-07-10T08:30:41Z</time>
      </trkpt>
      <trkpt lat="44.86458" lon="0.61389">
        <ele>128.1</ele>
        <time>2022-07-10T08:30:43Z</time>
      </trkpt>
      <trkpt lat="44.86459" lon="0.61381">
        <ele>128.3</ele>
        <time>2022-07-10T08:30:45Z</time>
      </trkpt>
      <trkpt lat="44.86459" lon="0.61378">
        <ele>128.4</ele>
        <time>2022-07-10T08:30:46Z</time>
      </trkpt>
      <trkpt lat="44.8646" lon="0.61374">
        <ele>128.5</ele>
        <time>2022-07-10T08:30:47Z</time>
      </trkpt>
      <trkpt lat="44.86461" lon="0.61368">
        <ele>128.6</ele>
        <time>2022-07-10T08:30:49Z</time>
      </trkpt>
      <trkpt lat="44.86461" lon="0.61365">
        <ele>128.7</ele>
        <time>2022-07-10T08:30:50Z</time>
      </trkpt>
      <trkpt lat="44.86462" lon="0.61361">
        <ele>128.7</ele>
        <time>2022-07-10T08:30:51Z</time>
      </trkpt>
      <trkpt lat="44.86463" lon="0.61355">
        <ele>128.9</ele>
        <time>2022-07-10T08:30:53Z</time>
      </trkpt>
      <trkpt lat="44.86463" lon="0.61352">
        <ele>128.9</ele>
        <time>2022-07-10T08:30:54Z</time>
      </trkpt>
      <trkpt lat="44.86464" lon="0.61348">
        <ele>129</ele>
        <time>2022-07-10T08:30:55Z</time>
      </trkpt>
      <trkpt lat="44.86465" lon="0.6134">
        <ele>129.2</ele>
        <time>2022-07-10T08:30:57Z</time>
      </trkpt>
      <trkpt lat="44.86466" lon="0.61333">
        <ele>129.4</ele>
        <time>2022-07-10T08:30:59Z</time>
      </trkpt>
      <trkpt lat="44.86468" lon="0.61326">
        <ele>129.7</ele>
        <time>2022-07-10T08:31:01Z</time>
      </trkpt>
      <trkpt lat="44.86469" lon="0.61318">
        <ele>129.9</ele>
        <time>2022-07-10T08:31:03Z</time>
      </trkpt>
      <trkpt lat="44.8647" lon="0.61311">
        <ele>130.1</ele>
        <time>2022-07-10T08:31:05Z</time>
      </trkpt>
      <trkpt lat="44.86471" lon="0.61303">
        <ele>130.3</ele>
        <time>2022-07-10T08:31:07Z</time>
      </trkpt>
      <trkpt lat="44.86472" lon="0.61301">
        <ele>130.3</ele>
        <time>2022-07-10T08:31:08Z</time>
      </trkpt>
      <trkpt lat="44.86472" lon="0.61299">
        <ele>130.4</ele>
        <time>2022-07-10T08:31:09Z</time>
      </trkpt>
      <trkpt lat="44.86472" lon="0.61296">
        <ele>130.5</ele>
        <time>2022-07-10T08:31:10Z</time>
      </trkpt>
      <trkpt lat="44.86473" lon="0.61292">
        <ele>130.5</ele>
        <time>2022-07-10T08:31:11Z</time>
      </trkpt>
      <trkpt lat="44.86474" lon="0.61287">
        <ele>130.6</ele>
        <time>2022-07-10T08:31:12Z</time>
      </trkpt>
      <trkpt lat="44.86474" lon="0.61283">
        <ele>130.7</ele>
        <time>2022-07-10T08:31:13Z</time>
      </trkpt>
      <trkpt lat="44.86476" lon="0.61274">
        <ele>130.9</ele>
        <time>2022-07-10T08:31:15Z</time>
      </trkpt>
      <trkpt lat="44.86477" lon="0.61266">
        <ele>131</ele>
        <time>2022-07-10T08:31:17Z</time>
      </trkpt>
      <trkpt lat="44.86478" lon="0.61262">
        <ele>131.1</ele>
        <time>2022-07-10T08:31:18Z</time>
      </trkpt>
      <trkpt lat="44.86479" lon="0.61256">
        <ele>131.2</ele>
        <time>2022-07-10T08:31:19Z</time>
      </trkpt>
      <trkpt lat="44.8648" lon="0.61251">
        <ele>131.2</ele>
        <time>2022-07-10T08:31:20Z</time>
      </trkpt>
      <trkpt lat="44.86481" lon="0.61245">
        <ele>131.3</ele>
        <time>2022-07-10T08:31:21Z</time>
      </trkpt>
      <trkpt lat="44.86483" lon="0.61236">
        <ele>131.4</ele>
        <time>2022-07-10T08:31:23Z</time>
      </trkpt>
      <trkpt lat="44.86485" lon="0.61227">
        <ele>131.5</ele>
        <time>2022-07-10T08:31:25Z</time>
      </trkpt>
      <trkpt lat="44.86487" lon="0.61218">
        <ele>131.6</ele>
        <time>2022-07-10T08:31:27Z</time>
      </trkpt>
      <trkpt lat="44.86488" lon="0.6121">
        <ele>131.7</ele>
        <time>2022-07-10T08:31:29Z</time>
      </trkpt>
      <trkpt lat="44.8649" lon="0.61203">
        <ele>131.8</ele>
        <time>2022-07-10T08:31:31Z</time>
      </trkpt>
      <trkpt lat="44.86491" lon="0.61199">
        <ele>131.8</ele>
        <time>2022-07-10T08:31:32Z</time>
      </trkpt>
      <trkpt lat="44.86492" lon="0.61195">
        <ele>131.8</ele>
        <time>2022-07-10T08:31:33Z</time>
      </trkpt>
      <trkpt lat="44.86493" lon="0.61192">
        <ele>131.9</ele>
        <time>2022-07-10T08:31:34Z</time>
      </trkpt>
      <trkpt lat="44.86494" lon="0.61189">
        <ele>131.9</ele>
        <time>2022-07-10T08:31:35Z</time>
      </trkpt>
      <trkpt lat="44.86494" lon="0.61186">
        <ele>131.9</ele>
        <time>2022-07-10T08:31:36Z</time>
      </trkpt>
      <trkpt lat="44.86492" lon="0.61182">
        <ele>131.9</ele>
        <time>2022-07-10T08:31:37Z</time>
      </trkpt>
      <trkpt lat="44.86487" lon="0.61177">
        <ele>132</ele>
        <time>2022-07-10T08:31:39Z</time>
      </trkpt>
      <trkpt lat="44.86485" lon="0.61173">
        <ele>132</ele>
        <time>2022-07-10T08:31:40Z</time>
      </trkpt>
      <trkpt lat="44.86484" lon="0.6117">
        <ele>132</ele>
        <time>2022-07-10T08:31:41Z</time>
      </trkpt>
      <trkpt lat="44.86483" lon="0.61162">
        <ele>132</ele>
        <time>2022-07-10T08:31:43Z</time>
      </trkpt>
      <trkpt lat="44.86483" lon="0.61158">
        <ele>132</ele>
        <time>2022-07-10T08:31:44Z</time>
      </trkpt>
      <trkpt lat="44.86483" lon="0.61153">
        <ele>132</ele>
        <time>2022-07-10T08:31:45Z</time>
      </trkpt>
      <trkpt lat="44.86484" lon="0.61143">
        <ele>132</ele>
        <time>2022-07-10T08:31:47Z</time>
      </trkpt>
      <trkpt lat="44.86482" lon="0.61138">
        <ele>132</ele>
        <time>2022-07-10T08:31:48Z</time>
      </trkpt>
      <trkpt lat="44.86481" lon="0.61134">
        <ele>132</ele>
        <time>2022-07-10T08:31:49Z</time>
      </trkpt>
      <trkpt lat="44.86477" lon="0.61126">
        <ele>131.9</ele>
        <time>2022-07-10T08:31:51Z</time>
      </trkpt>
      <trkpt lat="44.86473" lon="0.61122">
        <ele>131.8</ele>
        <time>2022-07-10T08:31:52Z</time>
      </trkpt>
      <trkpt lat="44.86472" lon="0.61118">
        <ele>131.8</ele>
        <time>2022-07-10T08:31:53Z</time>
      </trkpt>
      <trkpt lat="44.86472" lon="0.61109">
        <ele>131.7</ele>
        <time>2022-07-10T08:31:55Z</time>
      </trkpt>
      <trkpt lat="44.86472" lon="0.611">
        <ele>131.7</ele>
        <time>2022-07-10T08:31:57Z</time>
      </trkpt>
      <trkpt lat="44.86471" lon="0.61096">
        <ele>131.7</ele>
        <time>2022-07-10T08:31:58Z</time>
      </trkpt>
      <trkpt lat="44.86468" lon="0.61093">
        <ele>131.6</ele>
        <time>2022-07-10T08:31:59Z</time>
      </trkpt>
      <trkpt lat="44.86462" lon="0.61091">
        <ele>131.5</ele>
        <time>2022-07-10T08:32:00Z</time>
      </trkpt>
      <trkpt lat="44.86459" lon="0.61092">
        <ele>131.5</ele>
        <time>2022-07-10T08:32:01Z</time>
      </trkpt>
      <trkpt lat="44.86455" lon="0.61089">
        <ele>131.5</ele>
        <time>2022-07-10T08:32:02Z</time>
      </trkpt>
      <trkpt lat="44.86451" lon="0.61085">
        <ele>131.5</ele>
        <time>2022-07-10T08:32:03Z</time>
      </trkpt>
      <trkpt lat="44.8645" lon="0.61083">
        <ele>131.3</ele>
        <time>2022-07-10T08:32:04Z</time>
      </trkpt>
      <trkpt lat="44.86448" lon="0.61081">
        <ele>131.3</ele>
        <time>2022-07-10T08:32:05Z</time>
      </trkpt>
      <trkpt lat="44.86445" lon="0.61077">
        <ele>131.1</ele>
        <time>2022-07-10T08:32:07Z</time>
      </trkpt>
      <trkpt lat="44.86441" lon="0.61075">
        <ele>131.1</ele>
        <time>2022-07-10T08:32:08Z</time>
      </trkpt>
      <trkpt lat="44.86437" lon="0.61074">
        <ele>130.8</ele>
        <time>2022-07-10T08:32:09Z</time>
      </trkpt>
      <trkpt lat="44.86431" lon="0.61071">
        <ele>130.8</ele>
        <time>2022-07-10T08:32:10Z</time>
      </trkpt>
      <trkpt lat="44.86427" lon="0.61067">
        <ele>130.8</ele>
        <time>2022-07-10T08:32:11Z</time>
      </trkpt>
      <trkpt lat="44.86424" lon="0.61063">
        <ele>130.4</ele>
        <time>2022-07-10T08:32:12Z</time>
      </trkpt>
      <trkpt lat="44.86422" lon="0.61057">
        <ele>129.9</ele>
        <time>2022-07-10T08:32:13Z</time>
      </trkpt>
      <trkpt lat="44.86422" lon="0.61052">
        <ele>129.9</ele>
        <time>2022-07-10T08:32:14Z</time>
      </trkpt>
      <trkpt lat="44.86421" lon="0.61045">
        <ele>129.9</ele>
        <time>2022-07-10T08:32:15Z</time>
      </trkpt>
      <trkpt lat="44.86419" lon="0.61035">
        <ele>129.4</ele>
        <time>2022-07-10T08:32:17Z</time>
      </trkpt>
      <trkpt lat="44.86418" lon="0.6103">
        <ele>129.4</ele>
        <time>2022-07-10T08:32:18Z</time>
      </trkpt>
      <trkpt lat="44.86415" lon="0.61025">
        <ele>129</ele>
        <time>2022-07-10T08:32:19Z</time>
      </trkpt>
      <trkpt lat="44.86409" lon="0.61014">
        <ele>128.4</ele>
        <time>2022-07-10T08:32:21Z</time>
      </trkpt>
      <trkpt lat="44.86406" lon="0.61008">
        <ele>128.4</ele>
        <time>2022-07-10T08:32:22Z</time>
      </trkpt>
      <trkpt lat="44.86405" lon="0.61001">
        <ele>128.4</ele>
        <time>2022-07-10T08:32:23Z</time>
      </trkpt>
      <trkpt lat="44.86403" lon="0.6099">
        <ele>128.6</ele>
        <time>2022-07-10T08:32:25Z</time>
      </trkpt>
      <trkpt lat="44.864" lon="0.60983">
        <ele>128.2</ele>
        <time>2022-07-10T08:32:26Z</time>
      </trkpt>
      <trkpt lat="44.86399" lon="0.60975">
        <ele>128.2</ele>
        <time>2022-07-10T08:32:27Z</time>
      </trkpt>
      <trkpt lat="44.86399" lon="0.60968">
        <ele>128.5</ele>
        <time>2022-07-10T08:32:28Z</time>
      </trkpt>
      <trkpt lat="44.864" lon="0.60962">
        <ele>128.5</ele>
        <time>2022-07-10T08:32:29Z</time>
      </trkpt>
      <trkpt lat="44.86402" lon="0.60951">
        <ele>128.8</ele>
        <time>2022-07-10T08:32:31Z</time>
      </trkpt>
      <trkpt lat="44.86402" lon="0.60946">
        <ele>129.2</ele>
        <time>2022-07-10T08:32:32Z</time>
      </trkpt>
      <trkpt lat="44.86401" lon="0.60941">
        <ele>128.8</ele>
        <time>2022-07-10T08:32:33Z</time>
      </trkpt>
      <trkpt lat="44.86403" lon="0.60933">
        <ele>129.3</ele>
        <time>2022-07-10T08:32:35Z</time>
      </trkpt>
      <trkpt lat="44.86405" lon="0.60931">
        <ele>129.3</ele>
        <time>2022-07-10T08:32:36Z</time>
      </trkpt>
      <trkpt lat="44.86407" lon="0.60931">
        <ele>129.3</ele>
        <time>2022-07-10T08:32:37Z</time>
      </trkpt>
      <trkpt lat="44.86411" lon="0.60925">
        <ele>129.3</ele>
        <time>2022-07-10T08:32:39Z</time>
      </trkpt>
      <trkpt lat="44.86413" lon="0.60924">
        <ele>129.3</ele>
        <time>2022-07-10T08:32:40Z</time>
      </trkpt>
      <trkpt lat="44.86416" lon="0.60921">
        <ele>129.8</ele>
        <time>2022-07-10T08:32:41Z</time>
      </trkpt>
      <trkpt lat="44.86422" lon="0.60915">
        <ele>129.8</ele>
        <time>2022-07-10T08:32:43Z</time>
      </trkpt>
      <trkpt lat="44.86423" lon="0.60915">
        <ele>129.8</ele>
        <time>2022-07-10T08:32:44Z</time>
      </trkpt>
      <trkpt lat="44.86424" lon="0.60915">
        <ele>129.8</ele>
        <time>2022-07-10T08:32:45Z</time>
      </trkpt>
      <trkpt lat="44.86428" lon="0.60914">
        <ele>130</ele>
        <time>2022-07-10T08:32:47Z</time>
      </trkpt>
      <trkpt lat="44.86433" lon="0.60912">
        <ele>130</ele>
        <time>2022-07-10T08:32:49Z</time>
      </trkpt>
      <trkpt lat="44.86438" lon="0.60905">
        <ele>130</ele>
        <time>2022-07-10T08:32:51Z</time>
      </trkpt>
      <trkpt lat="44.86438" lon="0.60904">
        <ele>130</ele>
        <time>2022-07-10T08:32:52Z</time>
      </trkpt>
      <trkpt lat="44.86437" lon="0.60902">
        <ele>130</ele>
        <time>2022-07-10T08:32:53Z</time>
      </trkpt>
      <trkpt lat="44.86435" lon="0.60899">
        <ele>130</ele>
        <time>2022-07-10T08:32:54Z</time>
      </trkpt>
      <trkpt lat="44.86434" lon="0.60895">
        <ele>130</ele>
        <time>2022-07-10T08:32:55Z</time>
      </trkpt>
      <trkpt lat="44.8643" lon="0.60887">
        <ele>129.9</ele>
        <time>2022-07-10T08:32:57Z</time>
      </trkpt>
      <trkpt lat="44.86428" lon="0.60882">
        <ele>129.9</ele>
        <time>2022-07-10T08:32:58Z</time>
      </trkpt>
      <trkpt lat="44.86426" lon="0.60878">
        <ele>129.6</ele>
        <time>2022-07-10T08:32:59Z</time>
      </trkpt>
      <trkpt lat="44.86423" lon="0.60872">
        <ele>129.6</ele>
        <time>2022-07-10T08:33:01Z</time>
      </trkpt>
      <trkpt lat="44.86419" lon="0.60864">
        <ele>129.4</ele>
        <time>2022-07-10T08:33:03Z</time>
      </trkpt>
      <trkpt lat="44.86414" lon="0.60856">
        <ele>129.4</ele>
        <time>2022-07-10T08:33:05Z</time>
      </trkpt>
      <trkpt lat="44.86413" lon="0.60853">
        <ele>128.5</ele>
        <time>2022-07-10T08:33:06Z</time>
      </trkpt>
      <trkpt lat="44.86411" lon="0.6085">
        <ele>128.5</ele>
        <time>2022-07-10T08:33:07Z</time>
      </trkpt>
      <trkpt lat="44.86408" lon="0.60846">
        <ele>128.5</ele>
        <time>2022-07-10T08:33:09Z</time>
      </trkpt>
      <trkpt lat="44.86407" lon="0.60847">
        <ele>128.5</ele>
        <time>2022-07-10T08:33:11Z</time>
      </trkpt>
      <trkpt lat="44.86406" lon="0.60848">
        <ele>128.5</ele>
        <time>2022-07-10T08:33:13Z</time>
      </trkpt>
      <trkpt lat="44.86406" lon="0.60848">
        <ele>128.5</ele>
        <time>2022-07-10T08:33:15Z</time>
      </trkpt>
      <trkpt lat="44.86405" lon="0.60849">
        <ele>128.5</ele>
        <time>2022-07-10T08:33:17Z</time>
      </trkpt>
      <trkpt lat="44.86404" lon="0.6085">
        <ele>128.5</ele>
        <time>2022-07-10T08:33:18Z</time>
      </trkpt>
      <trkpt lat="44.86403" lon="0.60851">
        <ele>128.5</ele>
        <time>2022-07-10T08:33:19Z</time>
      </trkpt>
      <trkpt lat="44.86392" lon="0.60861">
        <ele>128.2</ele>
        <time>2022-07-10T08:33:21Z</time>
      </trkpt>
      <trkpt lat="44.86392" lon="0.60865">
        <ele>128.2</ele>
        <time>2022-07-10T08:33:23Z</time>
      </trkpt>
      <trkpt lat="44.86391" lon="0.60865">
        <ele>128.2</ele>
        <time>2022-07-10T08:33:24Z</time>
      </trkpt>
      <trkpt lat="44.8639" lon="0.60867">
        <ele>128.2</ele>
        <time>2022-07-10T08:33:25Z</time>
      </trkpt>
      <trkpt lat="44.86386" lon="0.60875">
        <ele>127.7</ele>
        <time>2022-07-10T08:33:27Z</time>
      </trkpt>
      <trkpt lat="44.86376" lon="0.60882">
        <ele>126.9</ele>
        <time>2022-07-10T08:33:29Z</time>
      </trkpt>
      <trkpt lat="44.8637" lon="0.60885">
        <ele>126.9</ele>
        <time>2022-07-10T08:33:31Z</time>
      </trkpt>
      <trkpt lat="44.86361" lon="0.60888">
        <ele>125.9</ele>
        <time>2022-07-10T08:33:33Z</time>
      </trkpt>
      <trkpt lat="44.86354" lon="0.60891">
        <ele>126.3</ele>
        <time>2022-07-10T08:33:35Z</time>
      </trkpt>
      <trkpt lat="44.86349" lon="0.60893">
        <ele>125.3</ele>
        <time>2022-07-10T08:33:36Z</time>
      </trkpt>
      <trkpt lat="44.86344" lon="0.60896">
        <ele>125.3</ele>
        <time>2022-07-10T08:33:37Z</time>
      </trkpt>
      <trkpt lat="44.86339" lon="0.609">
        <ele>124.3</ele>
        <time>2022-07-10T08:33:38Z</time>
      </trkpt>
      <trkpt lat="44.86334" lon="0.60906">
        <ele>124.8</ele>
        <time>2022-07-10T08:33:39Z</time>
      </trkpt>
      <trkpt lat="44.86331" lon="0.60913">
        <ele>124.8</ele>
        <time>2022-07-10T08:33:40Z</time>
      </trkpt>
      <trkpt lat="44.86329" lon="0.60919">
        <ele>123.7</ele>
        <time>2022-07-10T08:33:41Z</time>
      </trkpt>
      <trkpt lat="44.86323" lon="0.60924">
        <ele>124.2</ele>
        <time>2022-07-10T08:33:42Z</time>
      </trkpt>
      <trkpt lat="44.86319" lon="0.60926">
        <ele>124.2</ele>
        <time>2022-07-10T08:33:43Z</time>
      </trkpt>
      <trkpt lat="44.86314" lon="0.60928">
        <ele>123.3</ele>
        <time>2022-07-10T08:33:45Z</time>
      </trkpt>
      <trkpt lat="44.8631" lon="0.6093">
        <ele>123.3</ele>
        <time>2022-07-10T08:33:46Z</time>
      </trkpt>
      <trkpt lat="44.86305" lon="0.60931">
        <ele>123.3</ele>
        <time>2022-07-10T08:33:47Z</time>
      </trkpt>
      <trkpt lat="44.86301" lon="0.60933">
        <ele>122.5</ele>
        <time>2022-07-10T08:33:49Z</time>
      </trkpt>
      <trkpt lat="44.86298" lon="0.60936">
        <ele>122.5</ele>
        <time>2022-07-10T08:33:50Z</time>
      </trkpt>
      <trkpt lat="44.86296" lon="0.60937">
        <ele>122.5</ele>
        <time>2022-07-10T08:33:51Z</time>
      </trkpt>
      <trkpt lat="44.86293" lon="0.60942">
        <ele>122.9</ele>
        <time>2022-07-10T08:33:53Z</time>
      </trkpt>
      <trkpt lat="44.86289" lon="0.60944">
        <ele>122.3</ele>
        <time>2022-07-10T08:33:54Z</time>
      </trkpt>
      <trkpt lat="44.86285" lon="0.60945">
        <ele>122.3</ele>
        <time>2022-07-10T08:33:55Z</time>
      </trkpt>
      <trkpt lat="44.86276" lon="0.60946">
        <ele>121.6</ele>
        <time>2022-07-10T08:33:57Z</time>
      </trkpt>
      <trkpt lat="44.86272" lon="0.60944">
        <ele>121.6</ele>
        <time>2022-07-10T08:33:58Z</time>
      </trkpt>
      <trkpt lat="44.86267" lon="0.60942">
        <ele>121.1</ele>
        <time>2022-07-10T08:33:59Z</time>
      </trkpt>
      <trkpt lat="44.8626" lon="0.60938">
        <ele>120.7</ele>
        <time>2022-07-10T08:34:01Z</time>
      </trkpt>
      <trkpt lat="44.86256" lon="0.60935">
        <ele>120.4</ele>
        <time>2022-07-10T08:34:03Z</time>
      </trkpt>
      <trkpt lat="44.86252" lon="0.60932">
        <ele>120.4</ele>
        <time>2022-07-10T08:34:11Z</time>
      </trkpt>
      <trkpt lat="44.86248" lon="0.60929">
        <ele>120.4</ele>
        <time>2022-07-10T08:34:12Z</time>
      </trkpt>
      <trkpt lat="44.86245" lon="0.60925">
        <ele>120.4</ele>
        <time>2022-07-10T08:34:13Z</time>
      </trkpt>
      <trkpt lat="44.86237" lon="0.60919">
        <ele>119.7</ele>
        <time>2022-07-10T08:34:15Z</time>
      </trkpt>
      <trkpt lat="44.86236" lon="0.60918">
        <ele>119.7</ele>
        <time>2022-07-10T08:34:16Z</time>
      </trkpt>
      <trkpt lat="44.86236" lon="0.60916">
        <ele>119.7</ele>
        <time>2022-07-10T08:34:17Z</time>
      </trkpt>
      <trkpt lat="44.86238" lon="0.60915">
        <ele>119.7</ele>
        <time>2022-07-10T08:34:18Z</time>
      </trkpt>
      <trkpt lat="44.86238" lon="0.60913">
        <ele>119.7</ele>
        <time>2022-07-10T08:34:19Z</time>
      </trkpt>
      <trkpt lat="44.86236" lon="0.60909">
        <ele>119.7</ele>
        <time>2022-07-10T08:34:20Z</time>
      </trkpt>
      <trkpt lat="44.86235" lon="0.60904">
        <ele>119.5</ele>
        <time>2022-07-10T08:34:21Z</time>
      </trkpt>
      <trkpt lat="44.86232" lon="0.60898">
        <ele>119.5</ele>
        <time>2022-07-10T08:34:23Z</time>
      </trkpt>
      <trkpt lat="44.86229" lon="0.60895">
        <ele>118.6</ele>
        <time>2022-07-10T08:34:24Z</time>
      </trkpt>
      <trkpt lat="44.86227" lon="0.60892">
        <ele>118.6</ele>
        <time>2022-07-10T08:34:25Z</time>
      </trkpt>
      <trkpt lat="44.8622" lon="0.60885">
        <ele>117.2</ele>
        <time>2022-07-10T08:34:27Z</time>
      </trkpt>
      <trkpt lat="44.86214" lon="0.60885">
        <ele>117.2</ele>
        <time>2022-07-10T08:34:28Z</time>
      </trkpt>
      <trkpt lat="44.86209" lon="0.60881">
        <ele>117.2</ele>
        <time>2022-07-10T08:34:29Z</time>
      </trkpt>
      <trkpt lat="44.86204" lon="0.60878">
        <ele>116.1</ele>
        <time>2022-07-10T08:34:30Z</time>
      </trkpt>
      <trkpt lat="44.86201" lon="0.60877">
        <ele>116.1</ele>
        <time>2022-07-10T08:34:31Z</time>
      </trkpt>
      <trkpt lat="44.86198" lon="0.60877">
        <ele>116.1</ele>
        <time>2022-07-10T08:34:32Z</time>
      </trkpt>
      <trkpt lat="44.86196" lon="0.6088">
        <ele>116.1</ele>
        <time>2022-07-10T08:34:33Z</time>
      </trkpt>
      <trkpt lat="44.86193" lon="0.60889">
        <ele>114.8</ele>
        <time>2022-07-10T08:34:35Z</time>
      </trkpt>
      <trkpt lat="44.86191" lon="0.60898">
        <ele>114.8</ele>
        <time>2022-07-10T08:34:37Z</time>
      </trkpt>
      <trkpt lat="44.8619" lon="0.60909">
        <ele>114.4</ele>
        <time>2022-07-10T08:34:39Z</time>
      </trkpt>
      <trkpt lat="44.86192" lon="0.6092">
        <ele>114.4</ele>
        <time>2022-07-10T08:34:41Z</time>
      </trkpt>
      <trkpt lat="44.86192" lon="0.60924">
        <ele>113.9</ele>
        <time>2022-07-10T08:34:42Z</time>
      </trkpt>
      <trkpt lat="44.86192" lon="0.60929">
        <ele>113.9</ele>
        <time>2022-07-10T08:34:43Z</time>
      </trkpt>
      <trkpt lat="44.86191" lon="0.6094">
        <ele>113.7</ele>
        <time>2022-07-10T08:34:45Z</time>
      </trkpt>
      <trkpt lat="44.86189" lon="0.60946">
        <ele>113.7</ele>
        <time>2022-07-10T08:34:46Z</time>
      </trkpt>
      <trkpt lat="44.86187" lon="0.60955">
        <ele>113.7</ele>
        <time>2022-07-10T08:34:47Z</time>
      </trkpt>
      <trkpt lat="44.86186" lon="0.60965">
        <ele>113.5</ele>
        <time>2022-07-10T08:34:48Z</time>
      </trkpt>
      <trkpt lat="44.86185" lon="0.60976">
        <ele>113.1</ele>
        <time>2022-07-10T08:34:49Z</time>
      </trkpt>
      <trkpt lat="44.86182" lon="0.60999">
        <ele>111.4</ele>
        <time>2022-07-10T08:34:51Z</time>
      </trkpt>
      <trkpt lat="44.86179" lon="0.61009">
        <ele>111.2</ele>
        <time>2022-07-10T08:34:52Z</time>
      </trkpt>
      <trkpt lat="44.86175" lon="0.61019">
        <ele>111.2</ele>
        <time>2022-07-10T08:34:53Z</time>
      </trkpt>
      <trkpt lat="44.8617" lon="0.61034">
        <ele>110</ele>
        <time>2022-07-10T08:34:55Z</time>
      </trkpt>
      <trkpt lat="44.86169" lon="0.61039">
        <ele>110</ele>
        <time>2022-07-10T08:34:56Z</time>
      </trkpt>
      <trkpt lat="44.86167" lon="0.61043">
        <ele>110.5</ele>
        <time>2022-07-10T08:34:57Z</time>
      </trkpt>
      <trkpt lat="44.86164" lon="0.6105">
        <ele>110.5</ele>
        <time>2022-07-10T08:34:59Z</time>
      </trkpt>
      <trkpt lat="44.86163" lon="0.61054">
        <ele>110.5</ele>
        <time>2022-07-10T08:35:00Z</time>
      </trkpt>
      <trkpt lat="44.86163" lon="0.61057">
        <ele>110.5</ele>
        <time>2022-07-10T08:35:01Z</time>
      </trkpt>
      <trkpt lat="44.86161" lon="0.61063">
        <ele>111.1</ele>
        <time>2022-07-10T08:35:03Z</time>
      </trkpt>
      <trkpt lat="44.8616" lon="0.61068">
        <ele>111.1</ele>
        <time>2022-07-10T08:35:05Z</time>
      </trkpt>
      <trkpt lat="44.86159" lon="0.61071">
        <ele>111.1</ele>
        <time>2022-07-10T08:35:06Z</time>
      </trkpt>
      <trkpt lat="44.86159" lon="0.61073">
        <ele>110.5</ele>
        <time>2022-07-10T08:35:07Z</time>
      </trkpt>
      <trkpt lat="44.86158" lon="0.61077">
        <ele>110.5</ele>
        <time>2022-07-10T08:35:09Z</time>
      </trkpt>
      <trkpt lat="44.86159" lon="0.61077">
        <ele>111.1</ele>
        <time>2022-07-10T08:35:10Z</time>
      </trkpt>
      <trkpt lat="44.86158" lon="0.61079">
        <ele>111.2</ele>
        <time>2022-07-10T08:35:11Z</time>
      </trkpt>
      <trkpt lat="44.86158" lon="0.61083">
        <ele>111.2</ele>
        <time>2022-07-10T08:35:13Z</time>
      </trkpt>
      <trkpt lat="44.86158" lon="0.61086">
        <ele>111.2</ele>
        <time>2022-07-10T08:35:14Z</time>
      </trkpt>
      <trkpt lat="44.86157" lon="0.61088">
        <ele>111.2</ele>
        <time>2022-07-10T08:35:15Z</time>
      </trkpt>
      <trkpt lat="44.86157" lon="0.61093">
        <ele>111.2</ele>
        <time>2022-07-10T08:35:17Z</time>
      </trkpt>
      <trkpt lat="44.86157" lon="0.61096">
        <ele>112</ele>
        <time>2022-07-10T08:35:18Z</time>
      </trkpt>
      <trkpt lat="44.86157" lon="0.61098">
        <ele>112</ele>
        <time>2022-07-10T08:35:19Z</time>
      </trkpt>
      <trkpt lat="44.86158" lon="0.61102">
        <ele>112</ele>
        <time>2022-07-10T08:35:21Z</time>
      </trkpt>
      <trkpt lat="44.86157" lon="0.61105">
        <ele>112</ele>
        <time>2022-07-10T08:35:22Z</time>
      </trkpt>
      <trkpt lat="44.86157" lon="0.61107">
        <ele>112</ele>
        <time>2022-07-10T08:35:23Z</time>
      </trkpt>
      <trkpt lat="44.86157" lon="0.61109">
        <ele>112</ele>
        <time>2022-07-10T08:35:24Z</time>
      </trkpt>
      <trkpt lat="44.86157" lon="0.61111">
        <ele>112</ele>
        <time>2022-07-10T08:35:25Z</time>
      </trkpt>
      <trkpt lat="44.86157" lon="0.61115">
        <ele>113.2</ele>
        <time>2022-07-10T08:35:27Z</time>
      </trkpt>
      <trkpt lat="44.86156" lon="0.61117">
        <ele>113.2</ele>
        <time>2022-07-10T08:35:28Z</time>
      </trkpt>
      <trkpt lat="44.86156" lon="0.6112">
        <ele>113.2</ele>
        <time>2022-07-10T08:35:29Z</time>
      </trkpt>
      <trkpt lat="44.86156" lon="0.61124">
        <ele>113.2</ele>
        <time>2022-07-10T08:35:31Z</time>
      </trkpt>
      <trkpt lat="44.86156" lon="0.6113">
        <ele>114.7</ele>
        <time>2022-07-10T08:35:33Z</time>
      </trkpt>
      <trkpt lat="44.86156" lon="0.61135">
        <ele>114.7</ele>
        <time>2022-07-10T08:35:35Z</time>
      </trkpt>
      <trkpt lat="44.86156" lon="0.61139">
        <ele>114.7</ele>
        <time>2022-07-10T08:35:37Z</time>
      </trkpt>
      <trkpt lat="44.86156" lon="0.61141">
        <ele>114.7</ele>
        <time>2022-07-10T08:35:39Z</time>
      </trkpt>
      <trkpt lat="44.86156" lon="0.61143">
        <ele>114.7</ele>
        <time>2022-07-10T08:35:40Z</time>
      </trkpt>
      <trkpt lat="44.86155" lon="0.61145">
        <ele>114.7</ele>
        <time>2022-07-10T08:35:41Z</time>
      </trkpt>
      <trkpt lat="44.86155" lon="0.61147">
        <ele>116.5</ele>
        <time>2022-07-10T08:35:42Z</time>
      </trkpt>
      <trkpt lat="44.86155" lon="0.6115">
        <ele>116.5</ele>
        <time>2022-07-10T08:35:43Z</time>
      </trkpt>
      <trkpt lat="44.86154" lon="0.61155">
        <ele>116.5</ele>
        <time>2022-07-10T08:35:45Z</time>
      </trkpt>
      <trkpt lat="44.86153" lon="0.61159">
        <ele>116.5</ele>
        <time>2022-07-10T08:35:47Z</time>
      </trkpt>
      <trkpt lat="44.86153" lon="0.61164">
        <ele>118.3</ele>
        <time>2022-07-10T08:35:49Z</time>
      </trkpt>
      <trkpt lat="44.86152" lon="0.61167">
        <ele>118.3</ele>
        <time>2022-07-10T08:35:50Z</time>
      </trkpt>
      <trkpt lat="44.8615" lon="0.61169">
        <ele>118.3</ele>
        <time>2022-07-10T08:35:51Z</time>
      </trkpt>
      <trkpt lat="44.86149" lon="0.61174">
        <ele>118.3</ele>
        <time>2022-07-10T08:35:53Z</time>
      </trkpt>
      <trkpt lat="44.86147" lon="0.6118">
        <ele>118.3</ele>
        <time>2022-07-10T08:35:55Z</time>
      </trkpt>
      <trkpt lat="44.86145" lon="0.61185">
        <ele>119.5</ele>
        <time>2022-07-10T08:35:57Z</time>
      </trkpt>
      <trkpt lat="44.86143" lon="0.6119">
        <ele>119.5</ele>
        <time>2022-07-10T08:35:59Z</time>
      </trkpt>
      <trkpt lat="44.86141" lon="0.61192">
        <ele>119.5</ele>
        <time>2022-07-10T08:36:00Z</time>
      </trkpt>
      <trkpt lat="44.86142" lon="0.61193">
        <ele>119.5</ele>
        <time>2022-07-10T08:36:01Z</time>
      </trkpt>
      <trkpt lat="44.86141" lon="0.61199">
        <ele>120.5</ele>
        <time>2022-07-10T08:36:03Z</time>
      </trkpt>
      <trkpt lat="44.86141" lon="0.61202">
        <ele>120.5</ele>
        <time>2022-07-10T08:36:04Z</time>
      </trkpt>
      <trkpt lat="44.86142" lon="0.61205">
        <ele>120.5</ele>
        <time>2022-07-10T08:36:05Z</time>
      </trkpt>
      <trkpt lat="44.86141" lon="0.61209">
        <ele>120.5</ele>
        <time>2022-07-10T08:36:07Z</time>
      </trkpt>
      <trkpt lat="44.8614" lon="0.61211">
        <ele>120.5</ele>
        <time>2022-07-10T08:36:08Z</time>
      </trkpt>
      <trkpt lat="44.86139" lon="0.61214">
        <ele>120.5</ele>
        <time>2022-07-10T08:36:09Z</time>
      </trkpt>
      <trkpt lat="44.86137" lon="0.61215">
        <ele>121.2</ele>
        <time>2022-07-10T08:36:10Z</time>
      </trkpt>
      <trkpt lat="44.86136" lon="0.61217">
        <ele>121.2</ele>
        <time>2022-07-10T08:36:11Z</time>
      </trkpt>
      <trkpt lat="44.86134" lon="0.61219">
        <ele>120.7</ele>
        <time>2022-07-10T08:36:12Z</time>
      </trkpt>
      <trkpt lat="44.86134" lon="0.61222">
        <ele>120.7</ele>
        <time>2022-07-10T08:36:13Z</time>
      </trkpt>
      <trkpt lat="44.86135" lon="0.6123">
        <ele>121.2</ele>
        <time>2022-07-10T08:36:15Z</time>
      </trkpt>
      <trkpt lat="44.86136" lon="0.61234">
        <ele>121.6</ele>
        <time>2022-07-10T08:36:16Z</time>
      </trkpt>
      <trkpt lat="44.86136" lon="0.61239">
        <ele>121.7</ele>
        <time>2022-07-10T08:36:17Z</time>
      </trkpt>
      <trkpt lat="44.86136" lon="0.61243">
        <ele>121.7</ele>
        <time>2022-07-10T08:36:18Z</time>
      </trkpt>
      <trkpt lat="44.86136" lon="0.61247">
        <ele>121.7</ele>
        <time>2022-07-10T08:36:19Z</time>
      </trkpt>
      <trkpt lat="44.86135" lon="0.61257">
        <ele>121.9</ele>
        <time>2022-07-10T08:36:21Z</time>
      </trkpt>
      <trkpt lat="44.86134" lon="0.61269">
        <ele>121.3</ele>
        <time>2022-07-10T08:36:23Z</time>
      </trkpt>
      <trkpt lat="44.86135" lon="0.61273">
        <ele>122.1</ele>
        <time>2022-07-10T08:36:24Z</time>
      </trkpt>
      <trkpt lat="44.86136" lon="0.61274">
        <ele>122.1</ele>
        <time>2022-07-10T08:36:25Z</time>
      </trkpt>
      <trkpt lat="44.8614" lon="0.61279">
        <ele>122.1</ele>
        <time>2022-07-10T08:36:27Z</time>
      </trkpt>
      <trkpt lat="44.86143" lon="0.61285">
        <ele>122.3</ele>
        <time>2022-07-10T08:36:29Z</time>
      </trkpt>
      <trkpt lat="44.86145" lon="0.6129">
        <ele>122.3</ele>
        <time>2022-07-10T08:36:31Z</time>
      </trkpt>
      <trkpt lat="44.86146" lon="0.61293">
        <ele>122.3</ele>
        <time>2022-07-10T08:36:32Z</time>
      </trkpt>
      <trkpt lat="44.86147" lon="0.61296">
        <ele>123.1</ele>
        <time>2022-07-10T08:36:33Z</time>
      </trkpt>
      <trkpt lat="44.86149" lon="0.613">
        <ele>123.1</ele>
        <time>2022-07-10T08:36:35Z</time>
      </trkpt>
      <trkpt lat="44.86153" lon="0.61303">
        <ele>123.3</ele>
        <time>2022-07-10T08:36:37Z</time>
      </trkpt>
      <trkpt lat="44.86155" lon="0.61305">
        <ele>123.3</ele>
        <time>2022-07-10T08:36:38Z</time>
      </trkpt>
      <trkpt lat="44.86157" lon="0.61306">
        <ele>123.3</ele>
        <time>2022-07-10T08:36:39Z</time>
      </trkpt>
      <trkpt lat="44.86161" lon="0.61312">
        <ele>123.8</ele>
        <time>2022-07-10T08:36:41Z</time>
      </trkpt>
      <trkpt lat="44.86164" lon="0.61317">
        <ele>123.9</ele>
        <time>2022-07-10T08:36:43Z</time>
      </trkpt>
      <trkpt lat="44.86167" lon="0.61322">
        <ele>123.9</ele>
        <time>2022-07-10T08:36:45Z</time>
      </trkpt>
      <trkpt lat="44.86172" lon="0.61328">
        <ele>124.3</ele>
        <time>2022-07-10T08:36:47Z</time>
      </trkpt>
      <trkpt lat="44.86175" lon="0.6133">
        <ele>124.3</ele>
        <time>2022-07-10T08:36:48Z</time>
      </trkpt>
      <trkpt lat="44.86178" lon="0.61332">
        <ele>124.3</ele>
        <time>2022-07-10T08:36:49Z</time>
      </trkpt>
      <trkpt lat="44.86184" lon="0.61334">
        <ele>124.5</ele>
        <time>2022-07-10T08:36:51Z</time>
      </trkpt>
      <trkpt lat="44.86187" lon="0.61336">
        <ele>124</ele>
        <time>2022-07-10T08:36:52Z</time>
      </trkpt>
      <trkpt lat="44.86191" lon="0.61337">
        <ele>124</ele>
        <time>2022-07-10T08:36:53Z</time>
      </trkpt>
      <trkpt lat="44.86197" lon="0.61339">
        <ele>124</ele>
        <time>2022-07-10T08:36:55Z</time>
      </trkpt>
      <trkpt lat="44.86204" lon="0.61343">
        <ele>124</ele>
        <time>2022-07-10T08:36:57Z</time>
      </trkpt>
      <trkpt lat="44.86208" lon="0.61345">
        <ele>123.8</ele>
        <time>2022-07-10T08:36:58Z</time>
      </trkpt>
      <trkpt lat="44.86212" lon="0.61346">
        <ele>123.8</ele>
        <time>2022-07-10T08:36:59Z</time>
      </trkpt>
      <trkpt lat="44.86217" lon="0.61349">
        <ele>123.8</ele>
        <time>2022-07-10T08:37:01Z</time>
      </trkpt>
      <trkpt lat="44.8622" lon="0.61352">
        <ele>122.9</ele>
        <time>2022-07-10T08:37:02Z</time>
      </trkpt>
      <trkpt lat="44.86223" lon="0.61354">
        <ele>122.9</ele>
        <time>2022-07-10T08:37:03Z</time>
      </trkpt>
      <trkpt lat="44.86228" lon="0.61354">
        <ele>122.9</ele>
        <time>2022-07-10T08:37:04Z</time>
      </trkpt>
      <trkpt lat="44.86232" lon="0.61352">
        <ele>122.9</ele>
        <time>2022-07-10T08:37:05Z</time>
      </trkpt>
      <trkpt lat="44.8624" lon="0.61348">
        <ele>123.7</ele>
        <time>2022-07-10T08:37:07Z</time>
      </trkpt>
      <trkpt lat="44.86249" lon="0.61344">
        <ele>123.7</ele>
        <time>2022-07-10T08:37:09Z</time>
      </trkpt>
      <trkpt lat="44.86253" lon="0.61343">
        <ele>123.7</ele>
        <time>2022-07-10T08:37:10Z</time>
      </trkpt>
      <trkpt lat="44.86258" lon="0.61342">
        <ele>123.9</ele>
        <time>2022-07-10T08:37:11Z</time>
      </trkpt>
      <trkpt lat="44.86261" lon="0.61344">
        <ele>123.9</ele>
        <time>2022-07-10T08:37:12Z</time>
      </trkpt>
      <trkpt lat="44.86263" lon="0.61347">
        <ele>123.9</ele>
        <time>2022-07-10T08:37:13Z</time>
      </trkpt>
      <trkpt lat="44.86263" lon="0.61351">
        <ele>123.9</ele>
        <time>2022-07-10T08:37:14Z</time>
      </trkpt>
      <trkpt lat="44.86261" lon="0.61355">
        <ele>123.3</ele>
        <time>2022-07-10T08:37:15Z</time>
      </trkpt>
      <trkpt lat="44.86259" lon="0.61359">
        <ele>123.3</ele>
        <time>2022-07-10T08:37:16Z</time>
      </trkpt>
      <trkpt lat="44.86259" lon="0.61364">
        <ele>123.3</ele>
        <time>2022-07-10T08:37:17Z</time>
      </trkpt>
      <trkpt lat="44.86258" lon="0.61367">
        <ele>123.4</ele>
        <time>2022-07-10T08:37:18Z</time>
      </trkpt>
      <trkpt lat="44.86256" lon="0.61367">
        <ele>123.1</ele>
        <time>2022-07-10T08:37:19Z</time>
      </trkpt>
      <trkpt lat="44.86254" lon="0.61367">
        <ele>123.1</ele>
        <time>2022-07-10T08:37:21Z</time>
      </trkpt>
      <trkpt lat="44.86249" lon="0.61367">
        <ele>123.1</ele>
        <time>2022-07-10T08:37:23Z</time>
      </trkpt>
      <trkpt lat="44.86243" lon="0.61369">
        <ele>122.3</ele>
        <time>2022-07-10T08:37:25Z</time>
      </trkpt>
      <trkpt lat="44.86239" lon="0.61371">
        <ele>122.3</ele>
        <time>2022-07-10T08:37:26Z</time>
      </trkpt>
      <trkpt lat="44.86236" lon="0.61373">
        <ele>122.3</ele>
        <time>2022-07-10T08:37:27Z</time>
      </trkpt>
      <trkpt lat="44.86233" lon="0.61378">
        <ele>122.3</ele>
        <time>2022-07-10T08:37:28Z</time>
      </trkpt>
      <trkpt lat="44.8623" lon="0.61383">
        <ele>122.2</ele>
        <time>2022-07-10T08:37:29Z</time>
      </trkpt>
      <trkpt lat="44.86227" lon="0.61388">
        <ele>121.6</ele>
        <time>2022-07-10T08:37:30Z</time>
      </trkpt>
      <trkpt lat="44.86224" lon="0.61393">
        <ele>121.6</ele>
        <time>2022-07-10T08:37:31Z</time>
      </trkpt>
      <trkpt lat="44.86222" lon="0.61399">
        <ele>121.6</ele>
        <time>2022-07-10T08:37:32Z</time>
      </trkpt>
      <trkpt lat="44.86221" lon="0.61406">
        <ele>121.1</ele>
        <time>2022-07-10T08:37:33Z</time>
      </trkpt>
      <trkpt lat="44.86217" lon="0.61411">
        <ele>121.1</ele>
        <time>2022-07-10T08:37:34Z</time>
      </trkpt>
      <trkpt lat="44.86213" lon="0.61414">
        <ele>121.1</ele>
        <time>2022-07-10T08:37:35Z</time>
      </trkpt>
      <trkpt lat="44.8621" lon="0.61415">
        <ele>121.1</ele>
        <time>2022-07-10T08:37:36Z</time>
      </trkpt>
      <trkpt lat="44.86207" lon="0.61413">
        <ele>121.2</ele>
        <time>2022-07-10T08:37:37Z</time>
      </trkpt>
      <trkpt lat="44.862" lon="0.61409">
        <ele>121.2</ele>
        <time>2022-07-10T08:37:39Z</time>
      </trkpt>
      <trkpt lat="44.86194" lon="0.61407">
        <ele>121.3</ele>
        <time>2022-07-10T08:37:41Z</time>
      </trkpt>
      <trkpt lat="44.86189" lon="0.61403">
        <ele>121.3</ele>
        <time>2022-07-10T08:37:43Z</time>
      </trkpt>
      <trkpt lat="44.86183" lon="0.61402">
        <ele>122</ele>
        <time>2022-07-10T08:37:45Z</time>
      </trkpt>
      <trkpt lat="44.86178" lon="0.61402">
        <ele>122</ele>
        <time>2022-07-10T08:37:46Z</time>
      </trkpt>
      <trkpt lat="44.86173" lon="0.61402">
        <ele>122</ele>
        <time>2022-07-10T08:37:47Z</time>
      </trkpt>
      <trkpt lat="44.86169" lon="0.61405">
        <ele>121.4</ele>
        <time>2022-07-10T08:37:48Z</time>
      </trkpt>
      <trkpt lat="44.86165" lon="0.61411">
        <ele>121.4</ele>
        <time>2022-07-10T08:37:49Z</time>
      </trkpt>
      <trkpt lat="44.86161" lon="0.61416">
        <ele>121.4</ele>
        <time>2022-07-10T08:37:50Z</time>
      </trkpt>
      <trkpt lat="44.86157" lon="0.61418">
        <ele>121.4</ele>
        <time>2022-07-10T08:37:51Z</time>
      </trkpt>
      <trkpt lat="44.86154" lon="0.61415">
        <ele>121.4</ele>
        <time>2022-07-10T08:37:52Z</time>
      </trkpt>
      <trkpt lat="44.86153" lon="0.61411">
        <ele>121.4</ele>
        <time>2022-07-10T08:37:53Z</time>
      </trkpt>
      <trkpt lat="44.86153" lon="0.61408">
        <ele>121.4</ele>
        <time>2022-07-10T08:37:54Z</time>
      </trkpt>
      <trkpt lat="44.86154" lon="0.61404">
        <ele>121.4</ele>
        <time>2022-07-10T08:37:55Z</time>
      </trkpt>
      <trkpt lat="44.86152" lon="0.61396">
        <ele>121.9</ele>
        <time>2022-07-10T08:37:57Z</time>
      </trkpt>
      <trkpt lat="44.86146" lon="0.61392">
        <ele>121.6</ele>
        <time>2022-07-10T08:37:59Z</time>
      </trkpt>
      <trkpt lat="44.86139" lon="0.61389">
        <ele>121.6</ele>
        <time>2022-07-10T08:38:01Z</time>
      </trkpt>
      <trkpt lat="44.86133" lon="0.61385">
        <ele>121.4</ele>
        <time>2022-07-10T08:38:03Z</time>
      </trkpt>
      <trkpt lat="44.86125" lon="0.6138">
        <ele>121.4</ele>
        <time>2022-07-10T08:38:05Z</time>
      </trkpt>
      <trkpt lat="44.86121" lon="0.61381">
        <ele>120.6</ele>
        <time>2022-07-10T08:38:06Z</time>
      </trkpt>
      <trkpt lat="44.86116" lon="0.61388">
        <ele>120.5</ele>
        <time>2022-07-10T08:38:07Z</time>
      </trkpt>
      <trkpt lat="44.86112" lon="0.61391">
        <ele>120.5</ele>
        <time>2022-07-10T08:38:08Z</time>
      </trkpt>
      <trkpt lat="44.86107" lon="0.61392">
        <ele>119.8</ele>
        <time>2022-07-10T08:38:09Z</time>
      </trkpt>
      <trkpt lat="44.861" lon="0.61391">
        <ele>119.8</ele>
        <time>2022-07-10T08:38:11Z</time>
      </trkpt>
      <trkpt lat="44.86096" lon="0.61387">
        <ele>119.1</ele>
        <time>2022-07-10T08:38:13Z</time>
      </trkpt>
      <trkpt lat="44.86095" lon="0.61385">
        <ele>118.7</ele>
        <time>2022-07-10T08:38:14Z</time>
      </trkpt>
      <trkpt lat="44.86092" lon="0.61381">
        <ele>118.7</ele>
        <time>2022-07-10T08:38:15Z</time>
      </trkpt>
      <trkpt lat="44.86083" lon="0.61378">
        <ele>117.6</ele>
        <time>2022-07-10T08:38:17Z</time>
      </trkpt>
      <trkpt lat="44.86078" lon="0.61379">
        <ele>117.6</ele>
        <time>2022-07-10T08:38:18Z</time>
      </trkpt>
      <trkpt lat="44.86073" lon="0.61377">
        <ele>116.6</ele>
        <time>2022-07-10T08:38:19Z</time>
      </trkpt>
      <trkpt lat="44.86067" lon="0.61369">
        <ele>116.6</ele>
        <time>2022-07-10T08:38:21Z</time>
      </trkpt>
      <trkpt lat="44.86053" lon="0.61355">
        <ele>114.8</ele>
        <time>2022-07-10T08:38:23Z</time>
      </trkpt>
      <trkpt lat="44.86047" lon="0.61352">
        <ele>113.6</ele>
        <time>2022-07-10T08:38:24Z</time>
      </trkpt>
      <trkpt lat="44.86041" lon="0.61345">
        <ele>113.6</ele>
        <time>2022-07-10T08:38:25Z</time>
      </trkpt>
      <trkpt lat="44.86038" lon="0.61345">
        <ele>113.6</ele>
        <time>2022-07-10T08:38:26Z</time>
      </trkpt>
      <trkpt lat="44.86032" lon="0.61343">
        <ele>112.8</ele>
        <time>2022-07-10T08:38:27Z</time>
      </trkpt>
      <trkpt lat="44.86025" lon="0.61344">
        <ele>112.8</ele>
        <time>2022-07-10T08:38:28Z</time>
      </trkpt>
      <trkpt lat="44.8602" lon="0.61343">
        <ele>112.1</ele>
        <time>2022-07-10T08:38:29Z</time>
      </trkpt>
      <trkpt lat="44.86019" lon="0.6134">
        <ele>112.1</ele>
        <time>2022-07-10T08:38:30Z</time>
      </trkpt>
      <trkpt lat="44.86017" lon="0.61335">
        <ele>112.1</ele>
        <time>2022-07-10T08:38:31Z</time>
      </trkpt>
      <trkpt lat="44.8601" lon="0.61328">
        <ele>111.2</ele>
        <time>2022-07-10T08:38:33Z</time>
      </trkpt>
      <trkpt lat="44.86006" lon="0.61324">
        <ele>111.2</ele>
        <time>2022-07-10T08:38:34Z</time>
      </trkpt>
      <trkpt lat="44.86004" lon="0.6132">
        <ele>111.2</ele>
        <time>2022-07-10T08:38:35Z</time>
      </trkpt>
      <trkpt lat="44.86003" lon="0.61314">
        <ele>111</ele>
        <time>2022-07-10T08:38:36Z</time>
      </trkpt>
      <trkpt lat="44.86004" lon="0.61309">
        <ele>111</ele>
        <time>2022-07-10T08:38:37Z</time>
      </trkpt>
      <trkpt lat="44.86004" lon="0.61298">
        <ele>110.7</ele>
        <time>2022-07-10T08:38:39Z</time>
      </trkpt>
      <trkpt lat="44.86004" lon="0.61287">
        <ele>110.7</ele>
        <time>2022-07-10T08:38:41Z</time>
      </trkpt>
      <trkpt lat="44.86008" lon="0.61277">
        <ele>110.4</ele>
        <time>2022-07-10T08:38:43Z</time>
      </trkpt>
      <trkpt lat="44.86012" lon="0.61271">
        <ele>110.4</ele>
        <time>2022-07-10T08:38:45Z</time>
      </trkpt>
      <trkpt lat="44.86014" lon="0.61269">
        <ele>111</ele>
        <time>2022-07-10T08:38:46Z</time>
      </trkpt>
      <trkpt lat="44.86011" lon="0.61266">
        <ele>110.2</ele>
        <time>2022-07-10T08:38:47Z</time>
      </trkpt>
      <trkpt lat="44.86007" lon="0.61262">
        <ele>110.2</ele>
        <time>2022-07-10T08:38:48Z</time>
      </trkpt>
      <trkpt lat="44.86004" lon="0.61257">
        <ele>110.2</ele>
        <time>2022-07-10T08:38:49Z</time>
      </trkpt>
      <trkpt lat="44.85995" lon="0.61249">
        <ele>109.5</ele>
        <time>2022-07-10T08:38:51Z</time>
      </trkpt>
      <trkpt lat="44.8599" lon="0.61244">
        <ele>109.4</ele>
        <time>2022-07-10T08:38:52Z</time>
      </trkpt>
      <trkpt lat="44.85989" lon="0.61247">
        <ele>109.4</ele>
        <time>2022-07-10T08:38:53Z</time>
      </trkpt>
      <trkpt lat="44.85989" lon="0.6125">
        <ele>109.5</ele>
        <time>2022-07-10T08:38:54Z</time>
      </trkpt>
      <trkpt lat="44.8599" lon="0.61253">
        <ele>109.5</ele>
        <time>2022-07-10T08:38:55Z</time>
      </trkpt>
      <trkpt lat="44.85992" lon="0.61255">
        <ele>109.5</ele>
        <time>2022-07-10T08:38:56Z</time>
      </trkpt>
      <trkpt lat="44.85993" lon="0.61257">
        <ele>109.5</ele>
        <time>2022-07-10T08:38:57Z</time>
      </trkpt>
      <trkpt lat="44.85994" lon="0.6126">
        <ele>109.5</ele>
        <time>2022-07-10T08:38:58Z</time>
      </trkpt>
      <trkpt lat="44.85994" lon="0.61262">
        <ele>109.5</ele>
        <time>2022-07-10T08:38:59Z</time>
      </trkpt>
      <trkpt lat="44.8599" lon="0.61266">
        <ele>109.5</ele>
        <time>2022-07-10T08:39:01Z</time>
      </trkpt>
      <trkpt lat="44.85986" lon="0.61264">
        <ele>108.8</ele>
        <time>2022-07-10T08:39:03Z</time>
      </trkpt>
      <trkpt lat="44.85984" lon="0.61259">
        <ele>108.8</ele>
        <time>2022-07-10T08:39:05Z</time>
      </trkpt>
      <trkpt lat="44.85983" lon="0.61254">
        <ele>108.8</ele>
        <time>2022-07-10T08:39:07Z</time>
      </trkpt>
      <trkpt lat="44.85984" lon="0.61251">
        <ele>108.8</ele>
        <time>2022-07-10T08:39:08Z</time>
      </trkpt>
      <trkpt lat="44.85983" lon="0.61247">
        <ele>108.7</ele>
        <time>2022-07-10T08:39:09Z</time>
      </trkpt>
      <trkpt lat="44.85976" lon="0.61239">
        <ele>107.7</ele>
        <time>2022-07-10T08:39:11Z</time>
      </trkpt>
      <trkpt lat="44.85971" lon="0.61236">
        <ele>107.7</ele>
        <time>2022-07-10T08:39:12Z</time>
      </trkpt>
      <trkpt lat="44.85967" lon="0.61233">
        <ele>107.7</ele>
        <time>2022-07-10T08:39:13Z</time>
      </trkpt>
      <trkpt lat="44.8596" lon="0.61229">
        <ele>106.7</ele>
        <time>2022-07-10T08:39:15Z</time>
      </trkpt>
      <trkpt lat="44.85961" lon="0.61227">
        <ele>106.7</ele>
        <time>2022-07-10T08:39:17Z</time>
      </trkpt>
      <trkpt lat="44.8596" lon="0.6122">
        <ele>106.7</ele>
        <time>2022-07-10T08:39:19Z</time>
      </trkpt>
      <trkpt lat="44.8596" lon="0.61215">
        <ele>106.7</ele>
        <time>2022-07-10T08:39:20Z</time>
      </trkpt>
      <trkpt lat="44.85963" lon="0.61212">
        <ele>106.5</ele>
        <time>2022-07-10T08:39:21Z</time>
      </trkpt>
      <trkpt lat="44.85966" lon="0.61203">
        <ele>107.2</ele>
        <time>2022-07-10T08:39:23Z</time>
      </trkpt>
      <trkpt lat="44.85966" lon="0.6119">
        <ele>107</ele>
        <time>2022-07-10T08:39:25Z</time>
      </trkpt>
      <trkpt lat="44.85969" lon="0.61182">
        <ele>107</ele>
        <time>2022-07-10T08:39:27Z</time>
      </trkpt>
      <trkpt lat="44.85972" lon="0.61173">
        <ele>106.9</ele>
        <time>2022-07-10T08:39:29Z</time>
      </trkpt>
      <trkpt lat="44.85974" lon="0.61161">
        <ele>106.5</ele>
        <time>2022-07-10T08:39:31Z</time>
      </trkpt>
      <trkpt lat="44.85974" lon="0.61155">
        <ele>106.5</ele>
        <time>2022-07-10T08:39:32Z</time>
      </trkpt>
      <trkpt lat="44.85975" lon="0.61151">
        <ele>106.5</ele>
        <time>2022-07-10T08:39:33Z</time>
      </trkpt>
      <trkpt lat="44.85972" lon="0.61146">
        <ele>106</ele>
        <time>2022-07-10T08:39:34Z</time>
      </trkpt>
      <trkpt lat="44.8597" lon="0.6114">
        <ele>106</ele>
        <time>2022-07-10T08:39:35Z</time>
      </trkpt>
      <trkpt lat="44.85966" lon="0.61131">
        <ele>106</ele>
        <time>2022-07-10T08:39:37Z</time>
      </trkpt>
      <trkpt lat="44.85967" lon="0.61129">
        <ele>106</ele>
        <time>2022-07-10T08:39:38Z</time>
      </trkpt>
      <trkpt lat="44.85964" lon="0.61125">
        <ele>105.4</ele>
        <time>2022-07-10T08:39:39Z</time>
      </trkpt>
      <trkpt lat="44.85964" lon="0.61121">
        <ele>104.7</ele>
        <time>2022-07-10T08:39:40Z</time>
      </trkpt>
      <trkpt lat="44.85962" lon="0.61119">
        <ele>104.7</ele>
        <time>2022-07-10T08:39:41Z</time>
      </trkpt>
      <trkpt lat="44.85959" lon="0.61115">
        <ele>104.7</ele>
        <time>2022-07-10T08:39:43Z</time>
      </trkpt>
      <trkpt lat="44.8596" lon="0.61115">
        <ele>104.7</ele>
        <time>2022-07-10T08:39:44Z</time>
      </trkpt>
      <trkpt lat="44.8596" lon="0.61112">
        <ele>104.7</ele>
        <time>2022-07-10T08:39:45Z</time>
      </trkpt>
      <trkpt lat="44.85958" lon="0.6111">
        <ele>104.4</ele>
        <time>2022-07-10T08:39:46Z</time>
      </trkpt>
      <trkpt lat="44.85957" lon="0.61108">
        <ele>104.4</ele>
        <time>2022-07-10T08:39:47Z</time>
      </trkpt>
      <trkpt lat="44.85955" lon="0.61105">
        <ele>104.4</ele>
        <time>2022-07-10T08:39:48Z</time>
      </trkpt>
      <trkpt lat="44.85954" lon="0.61103">
        <ele>104.4</ele>
        <time>2022-07-10T08:39:49Z</time>
      </trkpt>
      <trkpt lat="44.85951" lon="0.61098">
        <ele>104.2</ele>
        <time>2022-07-10T08:39:51Z</time>
      </trkpt>
      <trkpt lat="44.85951" lon="0.61096">
        <ele>104.2</ele>
        <time>2022-07-10T08:39:52Z</time>
      </trkpt>
      <trkpt lat="44.8595" lon="0.61094">
        <ele>104.2</ele>
        <time>2022-07-10T08:39:53Z</time>
      </trkpt>
      <trkpt lat="44.85949" lon="0.61091">
        <ele>103.9</ele>
        <time>2022-07-10T08:39:55Z</time>
      </trkpt>
      <trkpt lat="44.85947" lon="0.61086">
        <ele>103.9</ele>
        <time>2022-07-10T08:39:57Z</time>
      </trkpt>
      <trkpt lat="44.85947" lon="0.61081">
        <ele>103.9</ele>
        <time>2022-07-10T08:39:59Z</time>
      </trkpt>
      <trkpt lat="44.85948" lon="0.61079">
        <ele>103.9</ele>
        <time>2022-07-10T08:40:01Z</time>
      </trkpt>
      <trkpt lat="44.85948" lon="0.61078">
        <ele>103.9</ele>
        <time>2022-07-10T08:40:03Z</time>
      </trkpt>
      <trkpt lat="44.85944" lon="0.61059">
        <ele>102.8</ele>
        <time>2022-07-10T08:40:11Z</time>
      </trkpt>
      <trkpt lat="44.85944" lon="0.61058">
        <ele>102.8</ele>
        <time>2022-07-10T08:40:12Z</time>
      </trkpt>
      <trkpt lat="44.85943" lon="0.61055">
        <ele>102.8</ele>
        <time>2022-07-10T08:40:13Z</time>
      </trkpt>
      <trkpt lat="44.85941" lon="0.61053">
        <ele>102.8</ele>
        <time>2022-07-10T08:40:14Z</time>
      </trkpt>
      <trkpt lat="44.85942" lon="0.61052">
        <ele>102.8</ele>
        <time>2022-07-10T08:40:15Z</time>
      </trkpt>
      <trkpt lat="44.85936" lon="0.61045">
        <ele>103.3</ele>
        <time>2022-07-10T08:40:17Z</time>
      </trkpt>
      <trkpt lat="44.85933" lon="0.6104">
        <ele>102.8</ele>
        <time>2022-07-10T08:40:19Z</time>
      </trkpt>
      <trkpt lat="44.8593" lon="0.61033">
        <ele>102.8</ele>
        <time>2022-07-10T08:40:21Z</time>
      </trkpt>
      <trkpt lat="44.85928" lon="0.61029">
        <ele>102.8</ele>
        <time>2022-07-10T08:40:23Z</time>
      </trkpt>
      <trkpt lat="44.85926" lon="0.61026">
        <ele>103.3</ele>
        <time>2022-07-10T08:40:24Z</time>
      </trkpt>
      <trkpt lat="44.85925" lon="0.61023">
        <ele>102.7</ele>
        <time>2022-07-10T08:40:25Z</time>
      </trkpt>
      <trkpt lat="44.85922" lon="0.61017">
        <ele>102.7</ele>
        <time>2022-07-10T08:40:27Z</time>
      </trkpt>
      <trkpt lat="44.85923" lon="0.61015">
        <ele>102.7</ele>
        <time>2022-07-10T08:40:28Z</time>
      </trkpt>
      <trkpt lat="44.85923" lon="0.61012">
        <ele>102.7</ele>
        <time>2022-07-10T08:40:29Z</time>
      </trkpt>
      <trkpt lat="44.85919" lon="0.61002">
        <ele>102.3</ele>
        <time>2022-07-10T08:40:31Z</time>
      </trkpt>
      <trkpt lat="44.85915" lon="0.60994">
        <ele>102.9</ele>
        <time>2022-07-10T08:40:33Z</time>
      </trkpt>
      <trkpt lat="44.85911" lon="0.6099">
        <ele>102.3</ele>
        <time>2022-07-10T08:40:34Z</time>
      </trkpt>
      <trkpt lat="44.85908" lon="0.60989">
        <ele>102.3</ele>
        <time>2022-07-10T08:40:35Z</time>
      </trkpt>
      <trkpt lat="44.85902" lon="0.60985">
        <ele>102.6</ele>
        <time>2022-07-10T08:40:37Z</time>
      </trkpt>
      <trkpt lat="44.85897" lon="0.60985">
        <ele>102.6</ele>
        <time>2022-07-10T08:40:39Z</time>
      </trkpt>
      <trkpt lat="44.85895" lon="0.60986">
        <ele>102.6</ele>
        <time>2022-07-10T08:40:40Z</time>
      </trkpt>
      <trkpt lat="44.85894" lon="0.60986">
        <ele>102.6</ele>
        <time>2022-07-10T08:40:41Z</time>
      </trkpt>
      <trkpt lat="44.85891" lon="0.60987">
        <ele>102.7</ele>
        <time>2022-07-10T08:40:43Z</time>
      </trkpt>
      <trkpt lat="44.85889" lon="0.60988">
        <ele>102.7</ele>
        <time>2022-07-10T08:40:44Z</time>
      </trkpt>
      <trkpt lat="44.85887" lon="0.60988">
        <ele>102.7</ele>
        <time>2022-07-10T08:40:45Z</time>
      </trkpt>
      <trkpt lat="44.85885" lon="0.60989">
        <ele>102.7</ele>
        <time>2022-07-10T08:40:47Z</time>
      </trkpt>
      <trkpt lat="44.85882" lon="0.6099">
        <ele>102.7</ele>
        <time>2022-07-10T08:40:49Z</time>
      </trkpt>
      <trkpt lat="44.85881" lon="0.60991">
        <ele>102.7</ele>
        <time>2022-07-10T08:40:50Z</time>
      </trkpt>
      <trkpt lat="44.85879" lon="0.60991">
        <ele>102.6</ele>
        <time>2022-07-10T08:40:51Z</time>
      </trkpt>
      <trkpt lat="44.85874" lon="0.60991">
        <ele>102.6</ele>
        <time>2022-07-10T08:40:53Z</time>
      </trkpt>
      <trkpt lat="44.85872" lon="0.60991">
        <ele>102.6</ele>
        <time>2022-07-10T08:40:54Z</time>
      </trkpt>
      <trkpt lat="44.8587" lon="0.60992">
        <ele>103.2</ele>
        <time>2022-07-10T08:40:55Z</time>
      </trkpt>
      <trkpt lat="44.85866" lon="0.60993">
        <ele>103.4</ele>
        <time>2022-07-10T08:40:57Z</time>
      </trkpt>
      <trkpt lat="44.85864" lon="0.60998">
        <ele>103.4</ele>
        <time>2022-07-10T08:40:59Z</time>
      </trkpt>
      <trkpt lat="44.85861" lon="0.61">
        <ele>103.4</ele>
        <time>2022-07-10T08:41:01Z</time>
      </trkpt>
      <trkpt lat="44.85856" lon="0.61002">
        <ele>103.4</ele>
        <time>2022-07-10T08:41:03Z</time>
      </trkpt>
      <trkpt lat="44.85854" lon="0.61004">
        <ele>103.6</ele>
        <time>2022-07-10T08:41:04Z</time>
      </trkpt>
      <trkpt lat="44.85852" lon="0.61004">
        <ele>103.6</ele>
        <time>2022-07-10T08:41:05Z</time>
      </trkpt>
      <trkpt lat="44.85848" lon="0.61005">
        <ele>103.6</ele>
        <time>2022-07-10T08:41:07Z</time>
      </trkpt>
      <trkpt lat="44.85847" lon="0.61005">
        <ele>103.6</ele>
        <time>2022-07-10T08:41:08Z</time>
      </trkpt>
      <trkpt lat="44.85845" lon="0.61005">
        <ele>103.6</ele>
        <time>2022-07-10T08:41:09Z</time>
      </trkpt>
      <trkpt lat="44.8584" lon="0.61004">
        <ele>103.9</ele>
        <time>2022-07-10T08:41:11Z</time>
      </trkpt>
      <trkpt lat="44.85835" lon="0.61003">
        <ele>103.9</ele>
        <time>2022-07-10T08:41:13Z</time>
      </trkpt>
      <trkpt lat="44.8583" lon="0.61002">
        <ele>103.9</ele>
        <time>2022-07-10T08:41:15Z</time>
      </trkpt>
      <trkpt lat="44.85828" lon="0.61">
        <ele>103.9</ele>
        <time>2022-07-10T08:41:16Z</time>
      </trkpt>
      <trkpt lat="44.85825" lon="0.60999">
        <ele>103.9</ele>
        <time>2022-07-10T08:41:17Z</time>
      </trkpt>
      <trkpt lat="44.85816" lon="0.60995">
        <ele>103.8</ele>
        <time>2022-07-10T08:41:19Z</time>
      </trkpt>
      <trkpt lat="44.85812" lon="0.60993">
        <ele>103.8</ele>
        <time>2022-07-10T08:41:20Z</time>
      </trkpt>
      <trkpt lat="44.85809" lon="0.60991">
        <ele>103.1</ele>
        <time>2022-07-10T08:41:21Z</time>
      </trkpt>
      <trkpt lat="44.85801" lon="0.60986">
        <ele>102.8</ele>
        <time>2022-07-10T08:41:23Z</time>
      </trkpt>
      <trkpt lat="44.85796" lon="0.60989">
        <ele>102.8</ele>
        <time>2022-07-10T08:41:24Z</time>
      </trkpt>
      <trkpt lat="44.85793" lon="0.60991">
        <ele>102.4</ele>
        <time>2022-07-10T08:41:25Z</time>
      </trkpt>
      <trkpt lat="44.85788" lon="0.60997">
        <ele>102.5</ele>
        <time>2022-07-10T08:41:27Z</time>
      </trkpt>
      <trkpt lat="44.85788" lon="0.61">
        <ele>102.5</ele>
        <time>2022-07-10T08:41:28Z</time>
      </trkpt>
      <trkpt lat="44.85788" lon="0.61004">
        <ele>102.5</ele>
        <time>2022-07-10T08:41:29Z</time>
      </trkpt>
      <trkpt lat="44.85787" lon="0.61012">
        <ele>102.4</ele>
        <time>2022-07-10T08:41:31Z</time>
      </trkpt>
      <trkpt lat="44.85785" lon="0.61021">
        <ele>102.4</ele>
        <time>2022-07-10T08:41:33Z</time>
      </trkpt>
      <trkpt lat="44.85783" lon="0.61031">
        <ele>101.9</ele>
        <time>2022-07-10T08:41:35Z</time>
      </trkpt>
      <trkpt lat="44.85784" lon="0.61041">
        <ele>101.9</ele>
        <time>2022-07-10T08:41:37Z</time>
      </trkpt>
      <trkpt lat="44.85783" lon="0.61047">
        <ele>101.2</ele>
        <time>2022-07-10T08:41:38Z</time>
      </trkpt>
      <trkpt lat="44.85782" lon="0.61053">
        <ele>101.2</ele>
        <time>2022-07-10T08:41:39Z</time>
      </trkpt>
      <trkpt lat="44.8578" lon="0.61066">
        <ele>99.3</ele>
        <time>2022-07-10T08:41:41Z</time>
      </trkpt>
      <trkpt lat="44.8578" lon="0.61074">
        <ele>99.3</ele>
        <time>2022-07-10T08:41:42Z</time>
      </trkpt>
      <trkpt lat="44.85782" lon="0.61082">
        <ele>98.8</ele>
        <time>2022-07-10T08:41:43Z</time>
      </trkpt>
      <trkpt lat="44.85783" lon="0.6109">
        <ele>100.4</ele>
        <time>2022-07-10T08:41:44Z</time>
      </trkpt>
      <trkpt lat="44.85786" lon="0.61096">
        <ele>100.3</ele>
        <time>2022-07-10T08:41:45Z</time>
      </trkpt>
      <trkpt lat="44.8579" lon="0.6111">
        <ele>100.3</ele>
        <time>2022-07-10T08:41:47Z</time>
      </trkpt>
      <trkpt lat="44.85792" lon="0.61122">
        <ele>100.3</ele>
        <time>2022-07-10T08:41:49Z</time>
      </trkpt>
      <trkpt lat="44.85793" lon="0.61132">
        <ele>100.4</ele>
        <time>2022-07-10T08:41:51Z</time>
      </trkpt>
      <trkpt lat="44.85791" lon="0.61138">
        <ele>100.4</ele>
        <time>2022-07-10T08:41:53Z</time>
      </trkpt>
      <trkpt lat="44.85784" lon="0.61136">
        <ele>100.4</ele>
        <time>2022-07-10T08:41:55Z</time>
      </trkpt>
      <trkpt lat="44.85779" lon="0.61134">
        <ele>99.3</ele>
        <time>2022-07-10T08:41:56Z</time>
      </trkpt>
      <trkpt lat="44.85772" lon="0.61132">
        <ele>99.3</ele>
        <time>2022-07-10T08:41:57Z</time>
      </trkpt>
      <trkpt lat="44.85758" lon="0.61131">
        <ele>98.4</ele>
        <time>2022-07-10T08:41:59Z</time>
      </trkpt>
      <trkpt lat="44.85745" lon="0.61126">
        <ele>96.8</ele>
        <time>2022-07-10T08:42:01Z</time>
      </trkpt>
      <trkpt lat="44.85738" lon="0.6112">
        <ele>96.8</ele>
        <time>2022-07-10T08:42:02Z</time>
      </trkpt>
      <trkpt lat="44.85731" lon="0.61113">
        <ele>96.3</ele>
        <time>2022-07-10T08:42:03Z</time>
      </trkpt>
      <trkpt lat="44.85723" lon="0.61109">
        <ele>96.5</ele>
        <time>2022-07-10T08:42:04Z</time>
      </trkpt>
      <trkpt lat="44.85714" lon="0.61105">
        <ele>95.9</ele>
        <time>2022-07-10T08:42:05Z</time>
      </trkpt>
      <trkpt lat="44.85702" lon="0.61097">
        <ele>95.4</ele>
        <time>2022-07-10T08:42:07Z</time>
      </trkpt>
      <trkpt lat="44.85696" lon="0.61091">
        <ele>95.2</ele>
        <time>2022-07-10T08:42:08Z</time>
      </trkpt>
      <trkpt lat="44.85694" lon="0.61095">
        <ele>94.9</ele>
        <time>2022-07-10T08:42:09Z</time>
      </trkpt>
      <trkpt lat="44.85693" lon="0.61099">
        <ele>94.9</ele>
        <time>2022-07-10T08:42:10Z</time>
      </trkpt>
      <trkpt lat="44.85691" lon="0.61105">
        <ele>94.9</ele>
        <time>2022-07-10T08:42:11Z</time>
      </trkpt>
      <trkpt lat="44.85685" lon="0.61116">
        <ele>94.8</ele>
        <time>2022-07-10T08:42:13Z</time>
      </trkpt>
      <trkpt lat="44.85682" lon="0.61119">
        <ele>94.4</ele>
        <time>2022-07-10T08:42:14Z</time>
      </trkpt>
      <trkpt lat="44.85679" lon="0.61124">
        <ele>94.4</ele>
        <time>2022-07-10T08:42:15Z</time>
      </trkpt>
      <trkpt lat="44.85673" lon="0.61135">
        <ele>94.5</ele>
        <time>2022-07-10T08:42:17Z</time>
      </trkpt>
      <trkpt lat="44.85669" lon="0.61142">
        <ele>94.2</ele>
        <time>2022-07-10T08:42:19Z</time>
      </trkpt>
      <trkpt lat="44.85667" lon="0.61146">
        <ele>94.7</ele>
        <time>2022-07-10T08:42:20Z</time>
      </trkpt>
      <trkpt lat="44.85665" lon="0.61148">
        <ele>94.7</ele>
        <time>2022-07-10T08:42:21Z</time>
      </trkpt>
      <trkpt lat="44.85659" lon="0.61152">
        <ele>94.2</ele>
        <time>2022-07-10T08:42:23Z</time>
      </trkpt>
      <trkpt lat="44.85655" lon="0.61157">
        <ele>94.2</ele>
        <time>2022-07-10T08:42:25Z</time>
      </trkpt>
      <trkpt lat="44.85652" lon="0.61164">
        <ele>95</ele>
        <time>2022-07-10T08:42:27Z</time>
      </trkpt>
      <trkpt lat="44.85652" lon="0.61167">
        <ele>95</ele>
        <time>2022-07-10T08:42:28Z</time>
      </trkpt>
      <trkpt lat="44.85652" lon="0.61169">
        <ele>95</ele>
        <time>2022-07-10T08:42:29Z</time>
      </trkpt>
      <trkpt lat="44.85652" lon="0.61177">
        <ele>95</ele>
        <time>2022-07-10T08:42:31Z</time>
      </trkpt>
      <trkpt lat="44.85652" lon="0.61181">
        <ele>96.3</ele>
        <time>2022-07-10T08:42:32Z</time>
      </trkpt>
      <trkpt lat="44.85652" lon="0.61183">
        <ele>96.3</ele>
        <time>2022-07-10T08:42:33Z</time>
      </trkpt>
      <trkpt lat="44.85652" lon="0.61183">
        <ele>96.3</ele>
        <time>2022-07-10T08:42:34Z</time>
      </trkpt>
      <trkpt lat="44.85654" lon="0.61195">
        <ele>96.3</ele>
        <time>2022-07-10T08:42:41Z</time>
      </trkpt>
      <trkpt lat="44.85654" lon="0.61196">
        <ele>96.3</ele>
        <time>2022-07-10T08:42:43Z</time>
      </trkpt>
      <trkpt lat="44.85657" lon="0.61198">
        <ele>97.6</ele>
        <time>2022-07-10T08:42:44Z</time>
      </trkpt>
      <trkpt lat="44.85658" lon="0.612">
        <ele>97.6</ele>
        <time>2022-07-10T08:42:45Z</time>
      </trkpt>
      <trkpt lat="44.85663" lon="0.61203">
        <ele>98.2</ele>
        <time>2022-07-10T08:42:47Z</time>
      </trkpt>
      <trkpt lat="44.85666" lon="0.61205">
        <ele>98.2</ele>
        <time>2022-07-10T08:42:49Z</time>
      </trkpt>
      <trkpt lat="44.85669" lon="0.61208">
        <ele>98.2</ele>
        <time>2022-07-10T08:42:51Z</time>
      </trkpt>
      <trkpt lat="44.85673" lon="0.61211">
        <ele>98.4</ele>
        <time>2022-07-10T08:42:53Z</time>
      </trkpt>
      <trkpt lat="44.8568" lon="0.61215">
        <ele>99.4</ele>
        <time>2022-07-10T08:42:55Z</time>
      </trkpt>
      <trkpt lat="44.85682" lon="0.61218">
        <ele>99.4</ele>
        <time>2022-07-10T08:42:56Z</time>
      </trkpt>
      <trkpt lat="44.85684" lon="0.61222">
        <ele>99.5</ele>
        <time>2022-07-10T08:42:57Z</time>
      </trkpt>
      <trkpt lat="44.85687" lon="0.61225">
        <ele>99.5</ele>
        <time>2022-07-10T08:42:58Z</time>
      </trkpt>
      <trkpt lat="44.8569" lon="0.61226">
        <ele>99.5</ele>
        <time>2022-07-10T08:42:59Z</time>
      </trkpt>
      <trkpt lat="44.85695" lon="0.61227">
        <ele>99.5</ele>
        <time>2022-07-10T08:43:01Z</time>
      </trkpt>
      <trkpt lat="44.857" lon="0.61228">
        <ele>99.6</ele>
        <time>2022-07-10T08:43:03Z</time>
      </trkpt>
      <trkpt lat="44.85707" lon="0.61228">
        <ele>99.6</ele>
        <time>2022-07-10T08:43:05Z</time>
      </trkpt>
      <trkpt lat="44.85712" lon="0.61229">
        <ele>99.6</ele>
        <time>2022-07-10T08:43:07Z</time>
      </trkpt>
      <trkpt lat="44.85714" lon="0.6123">
        <ele>99.6</ele>
        <time>2022-07-10T08:43:08Z</time>
      </trkpt>
      <trkpt lat="44.85717" lon="0.61232">
        <ele>100.7</ele>
        <time>2022-07-10T08:43:09Z</time>
      </trkpt>
      <trkpt lat="44.85718" lon="0.61234">
        <ele>100.7</ele>
        <time>2022-07-10T08:43:10Z</time>
      </trkpt>
      <trkpt lat="44.85719" lon="0.61233">
        <ele>100.7</ele>
        <time>2022-07-10T08:43:11Z</time>
      </trkpt>
      <trkpt lat="44.8572" lon="0.61232">
        <ele>100.7</ele>
        <time>2022-07-10T08:43:12Z</time>
      </trkpt>
      <trkpt lat="44.85723" lon="0.61232">
        <ele>99.9</ele>
        <time>2022-07-10T08:43:13Z</time>
      </trkpt>
      <trkpt lat="44.85727" lon="0.61232">
        <ele>101.1</ele>
        <time>2022-07-10T08:43:15Z</time>
      </trkpt>
      <trkpt lat="44.85734" lon="0.6123">
        <ele>100.4</ele>
        <time>2022-07-10T08:43:17Z</time>
      </trkpt>
      <trkpt lat="44.85737" lon="0.6123">
        <ele>100.4</ele>
        <time>2022-07-10T08:43:19Z</time>
      </trkpt>
      <trkpt lat="44.8574" lon="0.61229">
        <ele>100.4</ele>
        <time>2022-07-10T08:43:21Z</time>
      </trkpt>
      <trkpt lat="44.85742" lon="0.61228">
        <ele>100.4</ele>
        <time>2022-07-10T08:43:23Z</time>
      </trkpt>
      <trkpt lat="44.85747" lon="0.61223">
        <ele>101.2</ele>
        <time>2022-07-10T08:43:25Z</time>
      </trkpt>
      <trkpt lat="44.8575" lon="0.61221">
        <ele>101.2</ele>
        <time>2022-07-10T08:43:27Z</time>
      </trkpt>
      <trkpt lat="44.85754" lon="0.61218">
        <ele>101.2</ele>
        <time>2022-07-10T08:43:29Z</time>
      </trkpt>
      <trkpt lat="44.85757" lon="0.61217">
        <ele>101.2</ele>
        <time>2022-07-10T08:43:31Z</time>
      </trkpt>
      <trkpt lat="44.8576" lon="0.61215">
        <ele>102.1</ele>
        <time>2022-07-10T08:43:33Z</time>
      </trkpt>
      <trkpt lat="44.85762" lon="0.61213">
        <ele>100.8</ele>
        <time>2022-07-10T08:43:35Z</time>
      </trkpt>
      <trkpt lat="44.85763" lon="0.61212">
        <ele>100.8</ele>
        <time>2022-07-10T08:43:36Z</time>
      </trkpt>
      <trkpt lat="44.85765" lon="0.6121">
        <ele>100.8</ele>
        <time>2022-07-10T08:43:37Z</time>
      </trkpt>
      <trkpt lat="44.85768" lon="0.61208">
        <ele>100.8</ele>
        <time>2022-07-10T08:43:39Z</time>
      </trkpt>
      <trkpt lat="44.85769" lon="0.61207">
        <ele>100.8</ele>
        <time>2022-07-10T08:43:40Z</time>
      </trkpt>
      <trkpt lat="44.8577" lon="0.61206">
        <ele>101.8</ele>
        <time>2022-07-10T08:43:41Z</time>
      </trkpt>
      <trkpt lat="44.85773" lon="0.61205">
        <ele>101.8</ele>
        <time>2022-07-10T08:43:43Z</time>
      </trkpt>
      <trkpt lat="44.85777" lon="0.61204">
        <ele>101.8</ele>
        <time>2022-07-10T08:43:45Z</time>
      </trkpt>
      <trkpt lat="44.85778" lon="0.61205">
        <ele>101.8</ele>
        <time>2022-07-10T08:43:46Z</time>
      </trkpt>
      <trkpt lat="44.85778" lon="0.61206">
        <ele>101.8</ele>
        <time>2022-07-10T08:43:47Z</time>
      </trkpt>
      <trkpt lat="44.85778" lon="0.61209">
        <ele>101.8</ele>
        <time>2022-07-10T08:43:49Z</time>
      </trkpt>
      <trkpt lat="44.85779" lon="0.61211">
        <ele>101.8</ele>
        <time>2022-07-10T08:43:50Z</time>
      </trkpt>
      <trkpt lat="44.85779" lon="0.61212">
        <ele>101.8</ele>
        <time>2022-07-10T08:43:51Z</time>
      </trkpt>
      <trkpt lat="44.85779" lon="0.61214">
        <ele>101.8</ele>
        <time>2022-07-10T08:43:52Z</time>
      </trkpt>
      <trkpt lat="44.8578" lon="0.61217">
        <ele>103</ele>
        <time>2022-07-10T08:43:53Z</time>
      </trkpt>
      <trkpt lat="44.8578" lon="0.61219">
        <ele>103</ele>
        <time>2022-07-10T08:43:54Z</time>
      </trkpt>
      <trkpt lat="44.85781" lon="0.61221">
        <ele>103</ele>
        <time>2022-07-10T08:43:55Z</time>
      </trkpt>
      <trkpt lat="44.85782" lon="0.61224">
        <ele>104</ele>
        <time>2022-07-10T08:43:57Z</time>
      </trkpt>
      <trkpt lat="44.85783" lon="0.61225">
        <ele>104</ele>
        <time>2022-07-10T08:43:58Z</time>
      </trkpt>
      <trkpt lat="44.85784" lon="0.61226">
        <ele>104</ele>
        <time>2022-07-10T08:43:59Z</time>
      </trkpt>
      <trkpt lat="44.85786" lon="0.6123">
        <ele>104</ele>
        <time>2022-07-10T08:44:01Z</time>
      </trkpt>
      <trkpt lat="44.85789" lon="0.61231">
        <ele>104</ele>
        <time>2022-07-10T08:44:03Z</time>
      </trkpt>
      <trkpt lat="44.85791" lon="0.61233">
        <ele>105.2</ele>
        <time>2022-07-10T08:44:05Z</time>
      </trkpt>
      <trkpt lat="44.85791" lon="0.61235">
        <ele>105.2</ele>
        <time>2022-07-10T08:44:06Z</time>
      </trkpt>
      <trkpt lat="44.85792" lon="0.61238">
        <ele>105.2</ele>
        <time>2022-07-10T08:44:07Z</time>
      </trkpt>
      <trkpt lat="44.85796" lon="0.61241">
        <ele>106.1</ele>
        <time>2022-07-10T08:44:09Z</time>
      </trkpt>
      <trkpt lat="44.85797" lon="0.61245">
        <ele>106.1</ele>
        <time>2022-07-10T08:44:11Z</time>
      </trkpt>
      <trkpt lat="44.85797" lon="0.61248">
        <ele>106.1</ele>
        <time>2022-07-10T08:44:12Z</time>
      </trkpt>
      <trkpt lat="44.85797" lon="0.61249">
        <ele>106.1</ele>
        <time>2022-07-10T08:44:13Z</time>
      </trkpt>
      <trkpt lat="44.85798" lon="0.61251">
        <ele>107.5</ele>
        <time>2022-07-10T08:44:15Z</time>
      </trkpt>
      <trkpt lat="44.85799" lon="0.61256">
        <ele>107.5</ele>
        <time>2022-07-10T08:44:17Z</time>
      </trkpt>
      <trkpt lat="44.85798" lon="0.6126">
        <ele>107.5</ele>
        <time>2022-07-10T08:44:19Z</time>
      </trkpt>
      <trkpt lat="44.85799" lon="0.61264">
        <ele>107.5</ele>
        <time>2022-07-10T08:44:21Z</time>
      </trkpt>
      <trkpt lat="44.85799" lon="0.61266">
        <ele>107.5</ele>
        <time>2022-07-10T08:44:22Z</time>
      </trkpt>
      <trkpt lat="44.85799" lon="0.61268">
        <ele>108.8</ele>
        <time>2022-07-10T08:44:23Z</time>
      </trkpt>
      <trkpt lat="44.85798" lon="0.61274">
        <ele>108.8</ele>
        <time>2022-07-10T08:44:25Z</time>
      </trkpt>
      <trkpt lat="44.85799" lon="0.61281">
        <ele>108.8</ele>
        <time>2022-07-10T08:44:27Z</time>
      </trkpt>
      <trkpt lat="44.858" lon="0.61285">
        <ele>109.8</ele>
        <time>2022-07-10T08:44:29Z</time>
      </trkpt>
      <trkpt lat="44.85799" lon="0.61291">
        <ele>109.8</ele>
        <time>2022-07-10T08:44:31Z</time>
      </trkpt>
      <trkpt lat="44.85799" lon="0.61294">
        <ele>109.8</ele>
        <time>2022-07-10T08:44:32Z</time>
      </trkpt>
      <trkpt lat="44.85799" lon="0.61297">
        <ele>109.8</ele>
        <time>2022-07-10T08:44:33Z</time>
      </trkpt>
      <trkpt lat="44.85798" lon="0.61302">
        <ele>110.6</ele>
        <time>2022-07-10T08:44:35Z</time>
      </trkpt>
      <trkpt lat="44.85799" lon="0.61304">
        <ele>110.6</ele>
        <time>2022-07-10T08:44:36Z</time>
      </trkpt>
      <trkpt lat="44.85798" lon="0.61307">
        <ele>110.6</ele>
        <time>2022-07-10T08:44:37Z</time>
      </trkpt>
      <trkpt lat="44.85799" lon="0.61309">
        <ele>110.6</ele>
        <time>2022-07-10T08:44:38Z</time>
      </trkpt>
      <trkpt lat="44.85799" lon="0.61312">
        <ele>110.6</ele>
        <time>2022-07-10T08:44:39Z</time>
      </trkpt>
      <trkpt lat="44.85798" lon="0.61316">
        <ele>110.6</ele>
        <time>2022-07-10T08:44:41Z</time>
      </trkpt>
      <trkpt lat="44.85798" lon="0.6132">
        <ele>111.2</ele>
        <time>2022-07-10T08:44:43Z</time>
      </trkpt>
      <trkpt lat="44.85797" lon="0.61326">
        <ele>111.2</ele>
        <time>2022-07-10T08:44:45Z</time>
      </trkpt>
      <trkpt lat="44.85798" lon="0.61329">
        <ele>111.2</ele>
        <time>2022-07-10T08:44:46Z</time>
      </trkpt>
      <trkpt lat="44.85798" lon="0.61332">
        <ele>111.2</ele>
        <time>2022-07-10T08:44:47Z</time>
      </trkpt>
      <trkpt lat="44.85798" lon="0.61335">
        <ele>112</ele>
        <time>2022-07-10T08:44:48Z</time>
      </trkpt>
      <trkpt lat="44.85797" lon="0.61338">
        <ele>112</ele>
        <time>2022-07-10T08:44:49Z</time>
      </trkpt>
      <trkpt lat="44.85796" lon="0.61343">
        <ele>112</ele>
        <time>2022-07-10T08:44:51Z</time>
      </trkpt>
      <trkpt lat="44.85795" lon="0.61349">
        <ele>112.1</ele>
        <time>2022-07-10T08:44:53Z</time>
      </trkpt>
      <trkpt lat="44.85794" lon="0.61351">
        <ele>111.4</ele>
        <time>2022-07-10T08:44:54Z</time>
      </trkpt>
      <trkpt lat="44.85792" lon="0.61353">
        <ele>112.3</ele>
        <time>2022-07-10T08:44:55Z</time>
      </trkpt>
      <trkpt lat="44.8579" lon="0.61359">
        <ele>112.3</ele>
        <time>2022-07-10T08:44:57Z</time>
      </trkpt>
      <trkpt lat="44.85789" lon="0.61362">
        <ele>112.3</ele>
        <time>2022-07-10T08:44:58Z</time>
      </trkpt>
      <trkpt lat="44.85788" lon="0.61366">
        <ele>112.3</ele>
        <time>2022-07-10T08:44:59Z</time>
      </trkpt>
      <trkpt lat="44.85786" lon="0.61375">
        <ele>113</ele>
        <time>2022-07-10T08:45:01Z</time>
      </trkpt>
      <trkpt lat="44.85783" lon="0.61381">
        <ele>113</ele>
        <time>2022-07-10T08:45:02Z</time>
      </trkpt>
      <trkpt lat="44.85783" lon="0.61385">
        <ele>113</ele>
        <time>2022-07-10T08:45:03Z</time>
      </trkpt>
      <trkpt lat="44.85784" lon="0.61389">
        <ele>113.4</ele>
        <time>2022-07-10T08:45:04Z</time>
      </trkpt>
      <trkpt lat="44.85785" lon="0.61392">
        <ele>113.4</ele>
        <time>2022-07-10T08:45:05Z</time>
      </trkpt>
      <trkpt lat="44.85787" lon="0.61398">
        <ele>113.4</ele>
        <time>2022-07-10T08:45:07Z</time>
      </trkpt>
      <trkpt lat="44.85789" lon="0.61404">
        <ele>113.5</ele>
        <time>2022-07-10T08:45:09Z</time>
      </trkpt>
      <trkpt lat="44.8579" lon="0.61409">
        <ele>113.5</ele>
        <time>2022-07-10T08:45:11Z</time>
      </trkpt>
      <trkpt lat="44.8579" lon="0.61412">
        <ele>113.5</ele>
        <time>2022-07-10T08:45:12Z</time>
      </trkpt>
      <trkpt lat="44.8579" lon="0.61415">
        <ele>113.5</ele>
        <time>2022-07-10T08:45:13Z</time>
      </trkpt>
      <trkpt lat="44.85791" lon="0.6142">
        <ele>113.5</ele>
        <time>2022-07-10T08:45:14Z</time>
      </trkpt>
      <trkpt lat="44.85792" lon="0.61424">
        <ele>113.5</ele>
        <time>2022-07-10T08:45:15Z</time>
      </trkpt>
      <trkpt lat="44.85791" lon="0.61431">
        <ele>113.5</ele>
        <time>2022-07-10T08:45:16Z</time>
      </trkpt>
      <trkpt lat="44.85791" lon="0.61437">
        <ele>113.5</ele>
        <time>2022-07-10T08:45:17Z</time>
      </trkpt>
      <trkpt lat="44.85793" lon="0.6144">
        <ele>113.5</ele>
        <time>2022-07-10T08:45:18Z</time>
      </trkpt>
      <trkpt lat="44.85794" lon="0.61443">
        <ele>115</ele>
        <time>2022-07-10T08:45:19Z</time>
      </trkpt>
      <trkpt lat="44.85796" lon="0.61448">
        <ele>115</ele>
        <time>2022-07-10T08:45:21Z</time>
      </trkpt>
      <trkpt lat="44.85796" lon="0.61451">
        <ele>115</ele>
        <time>2022-07-10T08:45:22Z</time>
      </trkpt>
      <trkpt lat="44.85797" lon="0.61454">
        <ele>115</ele>
        <time>2022-07-10T08:45:23Z</time>
      </trkpt>
      <trkpt lat="44.85799" lon="0.61458">
        <ele>115.3</ele>
        <time>2022-07-10T08:45:25Z</time>
      </trkpt>
      <trkpt lat="44.858" lon="0.61464">
        <ele>115.3</ele>
        <time>2022-07-10T08:45:27Z</time>
      </trkpt>
      <trkpt lat="44.85801" lon="0.61467">
        <ele>115.3</ele>
        <time>2022-07-10T08:45:28Z</time>
      </trkpt>
      <trkpt lat="44.85801" lon="0.61468">
        <ele>115.3</ele>
        <time>2022-07-10T08:45:29Z</time>
      </trkpt>
      <trkpt lat="44.85801" lon="0.61473">
        <ele>115.4</ele>
        <time>2022-07-10T08:45:31Z</time>
      </trkpt>
      <trkpt lat="44.85802" lon="0.61476">
        <ele>115.4</ele>
        <time>2022-07-10T08:45:32Z</time>
      </trkpt>
      <trkpt lat="44.85803" lon="0.61479">
        <ele>115.5</ele>
        <time>2022-07-10T08:45:33Z</time>
      </trkpt>
      <trkpt lat="44.85805" lon="0.61484">
        <ele>115.5</ele>
        <time>2022-07-10T08:45:35Z</time>
      </trkpt>
      <trkpt lat="44.85807" lon="0.6149">
        <ele>117.3</ele>
        <time>2022-07-10T08:45:37Z</time>
      </trkpt>
      <trkpt lat="44.85808" lon="0.61493">
        <ele>117.3</ele>
        <time>2022-07-10T08:45:38Z</time>
      </trkpt>
      <trkpt lat="44.85808" lon="0.61496">
        <ele>117.3</ele>
        <time>2022-07-10T08:45:39Z</time>
      </trkpt>
      <trkpt lat="44.85809" lon="0.61501">
        <ele>117.3</ele>
        <time>2022-07-10T08:45:41Z</time>
      </trkpt>
      <trkpt lat="44.85809" lon="0.61503">
        <ele>117.3</ele>
        <time>2022-07-10T08:45:42Z</time>
      </trkpt>
      <trkpt lat="44.85809" lon="0.61506">
        <ele>117.3</ele>
        <time>2022-07-10T08:45:43Z</time>
      </trkpt>
      <trkpt lat="44.85809" lon="0.61508">
        <ele>117.2</ele>
        <time>2022-07-10T08:45:44Z</time>
      </trkpt>
      <trkpt lat="44.85808" lon="0.61511">
        <ele>117.2</ele>
        <time>2022-07-10T08:45:45Z</time>
      </trkpt>
      <trkpt lat="44.85809" lon="0.61512">
        <ele>117.2</ele>
        <time>2022-07-10T08:45:46Z</time>
      </trkpt>
      <trkpt lat="44.85808" lon="0.61514">
        <ele>117.2</ele>
        <time>2022-07-10T08:45:47Z</time>
      </trkpt>
      <trkpt lat="44.85808" lon="0.61518">
        <ele>117.2</ele>
        <time>2022-07-10T08:45:48Z</time>
      </trkpt>
      <trkpt lat="44.85807" lon="0.61521">
        <ele>117.2</ele>
        <time>2022-07-10T08:45:49Z</time>
      </trkpt>
      <trkpt lat="44.85806" lon="0.61526">
        <ele>117</ele>
        <time>2022-07-10T08:45:51Z</time>
      </trkpt>
      <trkpt lat="44.85807" lon="0.61529">
        <ele>117</ele>
        <time>2022-07-10T08:45:52Z</time>
      </trkpt>
      <trkpt lat="44.85809" lon="0.61531">
        <ele>117</ele>
        <time>2022-07-10T08:45:53Z</time>
      </trkpt>
      <trkpt lat="44.85811" lon="0.61533">
        <ele>117</ele>
        <time>2022-07-10T08:45:55Z</time>
      </trkpt>
      <trkpt lat="44.85812" lon="0.61538">
        <ele>117</ele>
        <time>2022-07-10T08:45:57Z</time>
      </trkpt>
      <trkpt lat="44.85812" lon="0.61541">
        <ele>117</ele>
        <time>2022-07-10T08:45:59Z</time>
      </trkpt>
      <trkpt lat="44.85813" lon="0.61543">
        <ele>117.1</ele>
        <time>2022-07-10T08:46:00Z</time>
      </trkpt>
      <trkpt lat="44.85814" lon="0.61544">
        <ele>117.1</ele>
        <time>2022-07-10T08:46:01Z</time>
      </trkpt>
      <trkpt lat="44.85814" lon="0.61547">
        <ele>117.2</ele>
        <time>2022-07-10T08:46:02Z</time>
      </trkpt>
      <trkpt lat="44.85816" lon="0.6155">
        <ele>117.2</ele>
        <time>2022-07-10T08:46:03Z</time>
      </trkpt>
      <trkpt lat="44.85817" lon="0.61552">
        <ele>117.2</ele>
        <time>2022-07-10T08:46:04Z</time>
      </trkpt>
      <trkpt lat="44.85816" lon="0.61555">
        <ele>117.2</ele>
        <time>2022-07-10T08:46:05Z</time>
      </trkpt>
      <trkpt lat="44.85817" lon="0.61559">
        <ele>117.6</ele>
        <time>2022-07-10T08:46:06Z</time>
      </trkpt>
      <trkpt lat="44.85817" lon="0.61562">
        <ele>117.6</ele>
        <time>2022-07-10T08:46:07Z</time>
      </trkpt>
      <trkpt lat="44.85818" lon="0.61566">
        <ele>119.3</ele>
        <time>2022-07-10T08:46:08Z</time>
      </trkpt>
      <trkpt lat="44.8582" lon="0.61568">
        <ele>119.3</ele>
        <time>2022-07-10T08:46:09Z</time>
      </trkpt>
      <trkpt lat="44.85822" lon="0.61573">
        <ele>119.3</ele>
        <time>2022-07-10T08:46:11Z</time>
      </trkpt>
      <trkpt lat="44.85823" lon="0.61575">
        <ele>119.6</ele>
        <time>2022-07-10T08:46:12Z</time>
      </trkpt>
      <trkpt lat="44.85824" lon="0.61578">
        <ele>119.6</ele>
        <time>2022-07-10T08:46:13Z</time>
      </trkpt>
      <trkpt lat="44.85827" lon="0.61584">
        <ele>119.6</ele>
        <time>2022-07-10T08:46:15Z</time>
      </trkpt>
      <trkpt lat="44.85828" lon="0.6159">
        <ele>119.6</ele>
        <time>2022-07-10T08:46:17Z</time>
      </trkpt>
      <trkpt lat="44.85831" lon="0.61594">
        <ele>121.1</ele>
        <time>2022-07-10T08:46:19Z</time>
      </trkpt>
      <trkpt lat="44.85834" lon="0.61599">
        <ele>121.1</ele>
        <time>2022-07-10T08:46:21Z</time>
      </trkpt>
      <trkpt lat="44.85836" lon="0.61605">
        <ele>121.1</ele>
        <time>2022-07-10T08:46:23Z</time>
      </trkpt>
      <trkpt lat="44.85838" lon="0.61612">
        <ele>121.1</ele>
        <time>2022-07-10T08:46:25Z</time>
      </trkpt>
      <trkpt lat="44.85838" lon="0.61619">
        <ele>121.1</ele>
        <time>2022-07-10T08:46:27Z</time>
      </trkpt>
      <trkpt lat="44.85835" lon="0.61623">
        <ele>121.1</ele>
        <time>2022-07-10T08:46:28Z</time>
      </trkpt>
      <trkpt lat="44.85832" lon="0.61627">
        <ele>120.9</ele>
        <time>2022-07-10T08:46:29Z</time>
      </trkpt>
      <trkpt lat="44.85828" lon="0.61631">
        <ele>119.6</ele>
        <time>2022-07-10T08:46:30Z</time>
      </trkpt>
      <trkpt lat="44.85824" lon="0.61633">
        <ele>119.6</ele>
        <time>2022-07-10T08:46:31Z</time>
      </trkpt>
      <trkpt lat="44.8582" lon="0.61636">
        <ele>119.6</ele>
        <time>2022-07-10T08:46:32Z</time>
      </trkpt>
      <trkpt lat="44.85815" lon="0.6164">
        <ele>118.3</ele>
        <time>2022-07-10T08:46:33Z</time>
      </trkpt>
      <trkpt lat="44.85815" lon="0.61644">
        <ele>118.3</ele>
        <time>2022-07-10T08:46:34Z</time>
      </trkpt>
      <trkpt lat="44.85812" lon="0.61649">
        <ele>118.3</ele>
        <time>2022-07-10T08:46:35Z</time>
      </trkpt>
      <trkpt lat="44.85809" lon="0.61654">
        <ele>118.3</ele>
        <time>2022-07-10T08:46:37Z</time>
      </trkpt>
      <trkpt lat="44.85806" lon="0.61657">
        <ele>116.6</ele>
        <time>2022-07-10T08:46:39Z</time>
      </trkpt>
      <trkpt lat="44.85802" lon="0.61661">
        <ele>116.6</ele>
        <time>2022-07-10T08:46:41Z</time>
      </trkpt>
      <trkpt lat="44.858" lon="0.61669">
        <ele>116.6</ele>
        <time>2022-07-10T08:46:43Z</time>
      </trkpt>
      <trkpt lat="44.85799" lon="0.61676">
        <ele>116.6</ele>
        <time>2022-07-10T08:46:45Z</time>
      </trkpt>
      <trkpt lat="44.85801" lon="0.61682">
        <ele>116.4</ele>
        <time>2022-07-10T08:46:47Z</time>
      </trkpt>
      <trkpt lat="44.85804" lon="0.61686">
        <ele>116.4</ele>
        <time>2022-07-10T08:46:49Z</time>
      </trkpt>
      <trkpt lat="44.85808" lon="0.61691">
        <ele>118.3</ele>
        <time>2022-07-10T08:46:51Z</time>
      </trkpt>
      <trkpt lat="44.8581" lon="0.61694">
        <ele>118.3</ele>
        <time>2022-07-10T08:46:53Z</time>
      </trkpt>
      <trkpt lat="44.85815" lon="0.61696">
        <ele>118.1</ele>
        <time>2022-07-10T08:46:55Z</time>
      </trkpt>
      <trkpt lat="44.85819" lon="0.61698">
        <ele>119.3</ele>
        <time>2022-07-10T08:46:57Z</time>
      </trkpt>
      <trkpt lat="44.85825" lon="0.61699">
        <ele>119.3</ele>
        <time>2022-07-10T08:46:59Z</time>
      </trkpt>
      <trkpt lat="44.85828" lon="0.617">
        <ele>119.3</ele>
        <time>2022-07-10T08:47:01Z</time>
      </trkpt>
      <trkpt lat="44.85833" lon="0.61704">
        <ele>120.1</ele>
        <time>2022-07-10T08:47:03Z</time>
      </trkpt>
      <trkpt lat="44.85836" lon="0.61707">
        <ele>120.1</ele>
        <time>2022-07-10T08:47:05Z</time>
      </trkpt>
      <trkpt lat="44.85838" lon="0.6171">
        <ele>120.1</ele>
        <time>2022-07-10T08:47:07Z</time>
      </trkpt>
      <trkpt lat="44.85839" lon="0.61712">
        <ele>119.7</ele>
        <time>2022-07-10T08:47:08Z</time>
      </trkpt>
      <trkpt lat="44.85839" lon="0.61714">
        <ele>119.7</ele>
        <time>2022-07-10T08:47:09Z</time>
      </trkpt>
      <trkpt lat="44.8584" lon="0.61719">
        <ele>119.7</ele>
        <time>2022-07-10T08:47:11Z</time>
      </trkpt>
      <trkpt lat="44.85841" lon="0.61721">
        <ele>119.7</ele>
        <time>2022-07-10T08:47:12Z</time>
      </trkpt>
      <trkpt lat="44.85842" lon="0.61722">
        <ele>119.7</ele>
        <time>2022-07-10T08:47:13Z</time>
      </trkpt>
      <trkpt lat="44.85843" lon="0.61725">
        <ele>120</ele>
        <time>2022-07-10T08:47:15Z</time>
      </trkpt>
      <trkpt lat="44.85845" lon="0.61725">
        <ele>120</ele>
        <time>2022-07-10T08:47:16Z</time>
      </trkpt>
      <trkpt lat="44.85846" lon="0.61726">
        <ele>120</ele>
        <time>2022-07-10T08:47:17Z</time>
      </trkpt>
      <trkpt lat="44.85846" lon="0.6173">
        <ele>119.4</ele>
        <time>2022-07-10T08:47:18Z</time>
      </trkpt>
      <trkpt lat="44.85846" lon="0.61732">
        <ele>119.4</ele>
        <time>2022-07-10T08:47:19Z</time>
      </trkpt>
      <trkpt lat="44.85846" lon="0.61736">
        <ele>119.4</ele>
        <time>2022-07-10T08:47:21Z</time>
      </trkpt>
      <trkpt lat="44.85846" lon="0.61738">
        <ele>119.4</ele>
        <time>2022-07-10T08:47:22Z</time>
      </trkpt>
      <trkpt lat="44.85848" lon="0.61789">
        <ele>118.4</ele>
        <time>2022-07-10T08:47:57Z</time>
      </trkpt>
      <trkpt lat="44.85848" lon="0.6179">
        <ele>118.4</ele>
        <time>2022-07-10T08:47:58Z</time>
      </trkpt>
      <trkpt lat="44.85848" lon="0.61792">
        <ele>118.4</ele>
        <time>2022-07-10T08:47:59Z</time>
      </trkpt>
      <trkpt lat="44.85849" lon="0.61805">
        <ele>118.6</ele>
        <time>2022-07-10T08:48:01Z</time>
      </trkpt>
      <trkpt lat="44.8585" lon="0.61806">
        <ele>118.6</ele>
        <time>2022-07-10T08:48:02Z</time>
      </trkpt>
      <trkpt lat="44.85851" lon="0.61806">
        <ele>118.6</ele>
        <time>2022-07-10T08:48:03Z</time>
      </trkpt>
      <trkpt lat="44.85852" lon="0.61806">
        <ele>118.6</ele>
        <time>2022-07-10T08:48:05Z</time>
      </trkpt>
      <trkpt lat="44.85852" lon="0.61806">
        <ele>118.6</ele>
        <time>2022-07-10T08:48:06Z</time>
      </trkpt>
      <trkpt lat="44.85852" lon="0.61824">
        <ele>118.8</ele>
        <time>2022-07-10T08:48:32Z</time>
      </trkpt>
      <trkpt lat="44.85852" lon="0.61827">
        <ele>118.8</ele>
        <time>2022-07-10T08:48:33Z</time>
      </trkpt>
      <trkpt lat="44.85851" lon="0.61833">
        <ele>119</ele>
        <time>2022-07-10T08:48:35Z</time>
      </trkpt>
      <trkpt lat="44.8585" lon="0.61836">
        <ele>119</ele>
        <time>2022-07-10T08:48:36Z</time>
      </trkpt>
      <trkpt lat="44.8585" lon="0.61839">
        <ele>119</ele>
        <time>2022-07-10T08:48:37Z</time>
      </trkpt>
      <trkpt lat="44.8585" lon="0.61844">
        <ele>119</ele>
        <time>2022-07-10T08:48:39Z</time>
      </trkpt>
      <trkpt lat="44.85851" lon="0.61849">
        <ele>119</ele>
        <time>2022-07-10T08:48:41Z</time>
      </trkpt>
      <trkpt lat="44.85851" lon="0.61856">
        <ele>119.2</ele>
        <time>2022-07-10T08:48:43Z</time>
      </trkpt>
      <trkpt lat="44.85851" lon="0.61863">
        <ele>119.2</ele>
        <time>2022-07-10T08:48:45Z</time>
      </trkpt>
      <trkpt lat="44.85851" lon="0.61868">
        <ele>119.5</ele>
        <time>2022-07-10T08:48:47Z</time>
      </trkpt>
      <trkpt lat="44.85851" lon="0.61873">
        <ele>119.5</ele>
        <time>2022-07-10T08:48:48Z</time>
      </trkpt>
      <trkpt lat="44.85851" lon="0.61876">
        <ele>119.5</ele>
        <time>2022-07-10T08:48:49Z</time>
      </trkpt>
      <trkpt lat="44.85851" lon="0.61884">
        <ele>119.5</ele>
        <time>2022-07-10T08:48:51Z</time>
      </trkpt>
      <trkpt lat="44.85851" lon="0.61887">
        <ele>119.6</ele>
        <time>2022-07-10T08:48:52Z</time>
      </trkpt>
      <trkpt lat="44.85851" lon="0.6189">
        <ele>119.6</ele>
        <time>2022-07-10T08:48:53Z</time>
      </trkpt>
      <trkpt lat="44.8585" lon="0.61897">
        <ele>119.6</ele>
        <time>2022-07-10T08:48:55Z</time>
      </trkpt>
      <trkpt lat="44.8585" lon="0.61905">
        <ele>119.8</ele>
        <time>2022-07-10T08:48:57Z</time>
      </trkpt>
      <trkpt lat="44.85851" lon="0.61913">
        <ele>119.8</ele>
        <time>2022-07-10T08:48:59Z</time>
      </trkpt>
      <trkpt lat="44.8585" lon="0.61921">
        <ele>120.1</ele>
        <time>2022-07-10T08:49:01Z</time>
      </trkpt>
      <trkpt lat="44.85849" lon="0.61924">
        <ele>120.1</ele>
        <time>2022-07-10T08:49:02Z</time>
      </trkpt>
      <trkpt lat="44.85848" lon="0.61929">
        <ele>120.1</ele>
        <time>2022-07-10T08:49:03Z</time>
      </trkpt>
      <trkpt lat="44.85846" lon="0.61937">
        <ele>120.2</ele>
        <time>2022-07-10T08:49:05Z</time>
      </trkpt>
      <trkpt lat="44.85844" lon="0.61945">
        <ele>120.2</ele>
        <time>2022-07-10T08:49:07Z</time>
      </trkpt>
      <trkpt lat="44.85842" lon="0.61953">
        <ele>120.3</ele>
        <time>2022-07-10T08:49:09Z</time>
      </trkpt>
      <trkpt lat="44.85839" lon="0.61961">
        <ele>120.3</ele>
        <time>2022-07-10T08:49:11Z</time>
      </trkpt>
      <trkpt lat="44.85836" lon="0.6197">
        <ele>120.3</ele>
        <time>2022-07-10T08:49:13Z</time>
      </trkpt>
      <trkpt lat="44.85835" lon="0.61978">
        <ele>120.2</ele>
        <time>2022-07-10T08:49:15Z</time>
      </trkpt>
      <trkpt lat="44.85833" lon="0.61985">
        <ele>120.2</ele>
        <time>2022-07-10T08:49:17Z</time>
      </trkpt>
      <trkpt lat="44.85833" lon="0.61991">
        <ele>120.2</ele>
        <time>2022-07-10T08:49:19Z</time>
      </trkpt>
      <trkpt lat="44.85832" lon="0.61997">
        <ele>120.2</ele>
        <time>2022-07-10T08:49:21Z</time>
      </trkpt>
      <trkpt lat="44.85831" lon="0.62004">
        <ele>120.2</ele>
        <time>2022-07-10T08:49:23Z</time>
      </trkpt>
      <trkpt lat="44.8583" lon="0.62011">
        <ele>120.3</ele>
        <time>2022-07-10T08:49:25Z</time>
      </trkpt>
      <trkpt lat="44.85827" lon="0.62019">
        <ele>120.3</ele>
        <time>2022-07-10T08:49:27Z</time>
      </trkpt>
      <trkpt lat="44.85827" lon="0.62023">
        <ele>120.4</ele>
        <time>2022-07-10T08:49:28Z</time>
      </trkpt>
      <trkpt lat="44.85826" lon="0.62028">
        <ele>120.4</ele>
        <time>2022-07-10T08:49:29Z</time>
      </trkpt>
      <trkpt lat="44.85823" lon="0.62036">
        <ele>120.4</ele>
        <time>2022-07-10T08:49:31Z</time>
      </trkpt>
      <trkpt lat="44.85819" lon="0.62045">
        <ele>120.6</ele>
        <time>2022-07-10T08:49:33Z</time>
      </trkpt>
      <trkpt lat="44.85818" lon="0.6205">
        <ele>120.6</ele>
        <time>2022-07-10T08:49:34Z</time>
      </trkpt>
      <trkpt lat="44.85816" lon="0.62054">
        <ele>120.6</ele>
        <time>2022-07-10T08:49:35Z</time>
      </trkpt>
      <trkpt lat="44.85814" lon="0.62064">
        <ele>120.8</ele>
        <time>2022-07-10T08:49:37Z</time>
      </trkpt>
      <trkpt lat="44.8581" lon="0.62073">
        <ele>120.9</ele>
        <time>2022-07-10T08:49:39Z</time>
      </trkpt>
      <trkpt lat="44.85807" lon="0.62083">
        <ele>120.9</ele>
        <time>2022-07-10T08:49:41Z</time>
      </trkpt>
      <trkpt lat="44.85804" lon="0.62095">
        <ele>121</ele>
        <time>2022-07-10T08:49:43Z</time>
      </trkpt>
      <trkpt lat="44.85801" lon="0.62108">
        <ele>121</ele>
        <time>2022-07-10T08:49:45Z</time>
      </trkpt>
      <trkpt lat="44.858" lon="0.62115">
        <ele>121</ele>
        <time>2022-07-10T08:49:46Z</time>
      </trkpt>
      <trkpt lat="44.858" lon="0.62122">
        <ele>121</ele>
        <time>2022-07-10T08:49:47Z</time>
      </trkpt>
      <trkpt lat="44.85799" lon="0.62134">
        <ele>120.8</ele>
        <time>2022-07-10T08:49:49Z</time>
      </trkpt>
      <trkpt lat="44.85798" lon="0.62145">
        <ele>120.4</ele>
        <time>2022-07-10T08:49:51Z</time>
      </trkpt>
      <trkpt lat="44.85797" lon="0.62156">
        <ele>120.4</ele>
        <time>2022-07-10T08:49:53Z</time>
      </trkpt>
      <trkpt lat="44.85795" lon="0.62168">
        <ele>119.9</ele>
        <time>2022-07-10T08:49:55Z</time>
      </trkpt>
      <trkpt lat="44.85795" lon="0.62174">
        <ele>119.9</ele>
        <time>2022-07-10T08:49:56Z</time>
      </trkpt>
      <trkpt lat="44.85794" lon="0.6218">
        <ele>119.3</ele>
        <time>2022-07-10T08:49:57Z</time>
      </trkpt>
      <trkpt lat="44.85794" lon="0.62186">
        <ele>119.3</ele>
        <time>2022-07-10T08:49:58Z</time>
      </trkpt>
      <trkpt lat="44.85795" lon="0.62192">
        <ele>119.3</ele>
        <time>2022-07-10T08:49:59Z</time>
      </trkpt>
      <trkpt lat="44.85794" lon="0.62198">
        <ele>118.5</ele>
        <time>2022-07-10T08:50:00Z</time>
      </trkpt>
      <trkpt lat="44.85791" lon="0.62203">
        <ele>118.4</ele>
        <time>2022-07-10T08:50:01Z</time>
      </trkpt>
      <trkpt lat="44.85785" lon="0.62207">
        <ele>118.4</ele>
        <time>2022-07-10T08:50:02Z</time>
      </trkpt>
      <trkpt lat="44.85777" lon="0.62208">
        <ele>118.1</ele>
        <time>2022-07-10T08:50:03Z</time>
      </trkpt>
      <trkpt lat="44.85759" lon="0.62213">
        <ele>116.6</ele>
        <time>2022-07-10T08:50:05Z</time>
      </trkpt>
      <trkpt lat="44.85738" lon="0.62219">
        <ele>115.5</ele>
        <time>2022-07-10T08:50:07Z</time>
      </trkpt>
      <trkpt lat="44.85718" lon="0.62224">
        <ele>114</ele>
        <time>2022-07-10T08:50:09Z</time>
      </trkpt>
      <trkpt lat="44.85708" lon="0.62226">
        <ele>113.2</ele>
        <time>2022-07-10T08:50:10Z</time>
      </trkpt>
      <trkpt lat="44.85699" lon="0.62229">
        <ele>112.3</ele>
        <time>2022-07-10T08:50:11Z</time>
      </trkpt>
      <trkpt lat="44.85682" lon="0.62229">
        <ele>110.6</ele>
        <time>2022-07-10T08:50:13Z</time>
      </trkpt>
      <trkpt lat="44.85674" lon="0.62223">
        <ele>111.3</ele>
        <time>2022-07-10T08:50:14Z</time>
      </trkpt>
      <trkpt lat="44.85665" lon="0.62218">
        <ele>110.5</ele>
        <time>2022-07-10T08:50:15Z</time>
      </trkpt>
      <trkpt lat="44.85649" lon="0.62209">
        <ele>110.2</ele>
        <time>2022-07-10T08:50:17Z</time>
      </trkpt>
      <trkpt lat="44.85632" lon="0.62199">
        <ele>108.1</ele>
        <time>2022-07-10T08:50:19Z</time>
      </trkpt>
      <trkpt lat="44.85616" lon="0.6219">
        <ele>107.5</ele>
        <time>2022-07-10T08:50:21Z</time>
      </trkpt>
      <trkpt lat="44.856" lon="0.62186">
        <ele>106.7</ele>
        <time>2022-07-10T08:50:23Z</time>
      </trkpt>
      <trkpt lat="44.85591" lon="0.62188">
        <ele>105.9</ele>
        <time>2022-07-10T08:50:24Z</time>
      </trkpt>
      <trkpt lat="44.85583" lon="0.62191">
        <ele>104.8</ele>
        <time>2022-07-10T08:50:25Z</time>
      </trkpt>
      <trkpt lat="44.85574" lon="0.62199">
        <ele>103.8</ele>
        <time>2022-07-10T08:50:27Z</time>
      </trkpt>
      <trkpt lat="44.85573" lon="0.62212">
        <ele>103.7</ele>
        <time>2022-07-10T08:50:29Z</time>
      </trkpt>
      <trkpt lat="44.85575" lon="0.62219">
        <ele>103.7</ele>
        <time>2022-07-10T08:50:31Z</time>
      </trkpt>
      <trkpt lat="44.85576" lon="0.62222">
        <ele>104.6</ele>
        <time>2022-07-10T08:50:32Z</time>
      </trkpt>
      <trkpt lat="44.85576" lon="0.62225">
        <ele>104.6</ele>
        <time>2022-07-10T08:50:33Z</time>
      </trkpt>
      <trkpt lat="44.85579" lon="0.62233">
        <ele>104.1</ele>
        <time>2022-07-10T08:50:35Z</time>
      </trkpt>
      <trkpt lat="44.8558" lon="0.62241">
        <ele>104.1</ele>
        <time>2022-07-10T08:50:37Z</time>
      </trkpt>
      <trkpt lat="44.85582" lon="0.62251">
        <ele>103.4</ele>
        <time>2022-07-10T08:50:39Z</time>
      </trkpt>
      <trkpt lat="44.85583" lon="0.62261">
        <ele>103.4</ele>
        <time>2022-07-10T08:50:41Z</time>
      </trkpt>
      <trkpt lat="44.85585" lon="0.62271">
        <ele>102.7</ele>
        <time>2022-07-10T08:50:43Z</time>
      </trkpt>
      <trkpt lat="44.85587" lon="0.62283">
        <ele>101.7</ele>
        <time>2022-07-10T08:50:45Z</time>
      </trkpt>
      <trkpt lat="44.85588" lon="0.62295">
        <ele>102.8</ele>
        <time>2022-07-10T08:50:47Z</time>
      </trkpt>
      <trkpt lat="44.8559" lon="0.62308">
        <ele>101.7</ele>
        <time>2022-07-10T08:50:49Z</time>
      </trkpt>
      <trkpt lat="44.85591" lon="0.62323">
        <ele>100.5</ele>
        <time>2022-07-10T08:50:51Z</time>
      </trkpt>
      <trkpt lat="44.85593" lon="0.6233">
        <ele>100.5</ele>
        <time>2022-07-10T08:50:52Z</time>
      </trkpt>
      <trkpt lat="44.85594" lon="0.62335">
        <ele>99.4</ele>
        <time>2022-07-10T08:50:53Z</time>
      </trkpt>
      <trkpt lat="44.85596" lon="0.62348">
        <ele>98.8</ele>
        <time>2022-07-10T08:50:55Z</time>
      </trkpt>
      <trkpt lat="44.85598" lon="0.62361">
        <ele>98.8</ele>
        <time>2022-07-10T08:50:57Z</time>
      </trkpt>
      <trkpt lat="44.856" lon="0.62375">
        <ele>99.2</ele>
        <time>2022-07-10T08:50:59Z</time>
      </trkpt>
      <trkpt lat="44.85602" lon="0.62388">
        <ele>98.7</ele>
        <time>2022-07-10T08:51:01Z</time>
      </trkpt>
      <trkpt lat="44.85604" lon="0.62402">
        <ele>98.3</ele>
        <time>2022-07-10T08:51:03Z</time>
      </trkpt>
      <trkpt lat="44.85606" lon="0.62416">
        <ele>98.1</ele>
        <time>2022-07-10T08:51:05Z</time>
      </trkpt>
      <trkpt lat="44.85608" lon="0.6243">
        <ele>98.1</ele>
        <time>2022-07-10T08:51:07Z</time>
      </trkpt>
      <trkpt lat="44.85609" lon="0.62437">
        <ele>98.2</ele>
        <time>2022-07-10T08:51:08Z</time>
      </trkpt>
      <trkpt lat="44.8561" lon="0.62444">
        <ele>98.2</ele>
        <time>2022-07-10T08:51:09Z</time>
      </trkpt>
      <trkpt lat="44.85612" lon="0.62457">
        <ele>99.5</ele>
        <time>2022-07-10T08:51:11Z</time>
      </trkpt>
      <trkpt lat="44.85614" lon="0.62469">
        <ele>99.4</ele>
        <time>2022-07-10T08:51:13Z</time>
      </trkpt>
      <trkpt lat="44.85615" lon="0.62475">
        <ele>99.4</ele>
        <time>2022-07-10T08:51:14Z</time>
      </trkpt>
      <trkpt lat="44.85616" lon="0.62481">
        <ele>99.4</ele>
        <time>2022-07-10T08:51:15Z</time>
      </trkpt>
      <trkpt lat="44.85617" lon="0.62495">
        <ele>99.3</ele>
        <time>2022-07-10T08:51:17Z</time>
      </trkpt>
      <trkpt lat="44.85619" lon="0.62509">
        <ele>98.9</ele>
        <time>2022-07-10T08:51:19Z</time>
      </trkpt>
      <trkpt lat="44.8562" lon="0.62517">
        <ele>98.9</ele>
        <time>2022-07-10T08:51:20Z</time>
      </trkpt>
      <trkpt lat="44.85622" lon="0.62525">
        <ele>98.5</ele>
        <time>2022-07-10T08:51:21Z</time>
      </trkpt>
      <trkpt lat="44.85624" lon="0.62541">
        <ele>98.4</ele>
        <time>2022-07-10T08:51:23Z</time>
      </trkpt>
      <trkpt lat="44.85628" lon="0.62559">
        <ele>97.7</ele>
        <time>2022-07-10T08:51:25Z</time>
      </trkpt>
      <trkpt lat="44.8563" lon="0.62569">
        <ele>97.7</ele>
        <time>2022-07-10T08:51:26Z</time>
      </trkpt>
      <trkpt lat="44.85633" lon="0.62579">
        <ele>97.1</ele>
        <time>2022-07-10T08:51:27Z</time>
      </trkpt>
      <trkpt lat="44.85637" lon="0.62597">
        <ele>96.4</ele>
        <time>2022-07-10T08:51:29Z</time>
      </trkpt>
      <trkpt lat="44.85641" lon="0.62616">
        <ele>95.7</ele>
        <time>2022-07-10T08:51:31Z</time>
      </trkpt>
      <trkpt lat="44.85643" lon="0.6263">
        <ele>95</ele>
        <time>2022-07-10T08:51:33Z</time>
      </trkpt>
      <trkpt lat="44.85641" lon="0.62628">
        <ele>94.9</ele>
        <time>2022-07-10T08:51:34Z</time>
      </trkpt>
      <trkpt lat="44.85638" lon="0.62629">
        <ele>94.7</ele>
        <time>2022-07-10T08:51:35Z</time>
      </trkpt>
      <trkpt lat="44.85634" lon="0.62631">
        <ele>94.5</ele>
        <time>2022-07-10T08:51:36Z</time>
      </trkpt>
      <trkpt lat="44.85628" lon="0.62634">
        <ele>94.1</ele>
        <time>2022-07-10T08:51:37Z</time>
      </trkpt>
      <trkpt lat="44.85617" lon="0.62639">
        <ele>93.2</ele>
        <time>2022-07-10T08:51:39Z</time>
      </trkpt>
      <trkpt lat="44.8561" lon="0.62642">
        <ele>92.6</ele>
        <time>2022-07-10T08:51:40Z</time>
      </trkpt>
      <trkpt lat="44.85603" lon="0.62645">
        <ele>92</ele>
        <time>2022-07-10T08:51:41Z</time>
      </trkpt>
      <trkpt lat="44.85588" lon="0.62652">
        <ele>90.7</ele>
        <time>2022-07-10T08:51:43Z</time>
      </trkpt>
      <trkpt lat="44.8558" lon="0.62655">
        <ele>90</ele>
        <time>2022-07-10T08:51:44Z</time>
      </trkpt>
      <trkpt lat="44.85572" lon="0.62659">
        <ele>89.4</ele>
        <time>2022-07-10T08:51:45Z</time>
      </trkpt>
      <trkpt lat="44.85554" lon="0.62667">
        <ele>88</ele>
        <time>2022-07-10T08:51:47Z</time>
      </trkpt>
      <trkpt lat="44.85546" lon="0.62671">
        <ele>87.5</ele>
        <time>2022-07-10T08:51:48Z</time>
      </trkpt>
      <trkpt lat="44.85539" lon="0.62679">
        <ele>87.1</ele>
        <time>2022-07-10T08:51:49Z</time>
      </trkpt>
      <trkpt lat="44.85536" lon="0.62688">
        <ele>86.6</ele>
        <time>2022-07-10T08:51:50Z</time>
      </trkpt>
      <trkpt lat="44.85533" lon="0.62698">
        <ele>86.2</ele>
        <time>2022-07-10T08:51:51Z</time>
      </trkpt>
      <trkpt lat="44.85529" lon="0.62718">
        <ele>85.3</ele>
        <time>2022-07-10T08:51:53Z</time>
      </trkpt>
      <trkpt lat="44.85527" lon="0.62729">
        <ele>84.8</ele>
        <time>2022-07-10T08:51:54Z</time>
      </trkpt>
      <trkpt lat="44.85525" lon="0.62741">
        <ele>84.2</ele>
        <time>2022-07-10T08:51:55Z</time>
      </trkpt>
      <trkpt lat="44.85524" lon="0.62751">
        <ele>83.7</ele>
        <time>2022-07-10T08:51:56Z</time>
      </trkpt>
      <trkpt lat="44.85524" lon="0.62762">
        <ele>83.2</ele>
        <time>2022-07-10T08:51:57Z</time>
      </trkpt>
      <trkpt lat="44.85523" lon="0.62781">
        <ele>82.3</ele>
        <time>2022-07-10T08:51:59Z</time>
      </trkpt>
      <trkpt lat="44.85519" lon="0.62785">
        <ele>81.9</ele>
        <time>2022-07-10T08:52:00Z</time>
      </trkpt>
      <trkpt lat="44.85514" lon="0.62788">
        <ele>81.5</ele>
        <time>2022-07-10T08:52:01Z</time>
      </trkpt>
      <trkpt lat="44.85503" lon="0.62794">
        <ele>80.6</ele>
        <time>2022-07-10T08:52:03Z</time>
      </trkpt>
      <trkpt lat="44.85497" lon="0.62808">
        <ele>79.5</ele>
        <time>2022-07-10T08:52:05Z</time>
      </trkpt>
      <trkpt lat="44.85499" lon="0.62825">
        <ele>78.1</ele>
        <time>2022-07-10T08:52:07Z</time>
      </trkpt>
      <trkpt lat="44.8549" lon="0.62837">
        <ele>76.8</ele>
        <time>2022-07-10T08:52:09Z</time>
      </trkpt>
      <trkpt lat="44.85477" lon="0.62842">
        <ele>75.4</ele>
        <time>2022-07-10T08:52:11Z</time>
      </trkpt>
      <trkpt lat="44.85471" lon="0.62845">
        <ele>74.8</ele>
        <time>2022-07-10T08:52:12Z</time>
      </trkpt>
      <trkpt lat="44.85464" lon="0.62848">
        <ele>73.9</ele>
        <time>2022-07-10T08:52:13Z</time>
      </trkpt>
      <trkpt lat="44.85458" lon="0.62858">
        <ele>73</ele>
        <time>2022-07-10T08:52:14Z</time>
      </trkpt>
      <trkpt lat="44.85457" lon="0.62869">
        <ele>72.2</ele>
        <time>2022-07-10T08:52:15Z</time>
      </trkpt>
      <trkpt lat="44.85456" lon="0.62881">
        <ele>71.4</ele>
        <time>2022-07-10T08:52:16Z</time>
      </trkpt>
      <trkpt lat="44.85455" lon="0.62893">
        <ele>70.8</ele>
        <time>2022-07-10T08:52:17Z</time>
      </trkpt>
      <trkpt lat="44.85452" lon="0.62913">
        <ele>69.8</ele>
        <time>2022-07-10T08:52:19Z</time>
      </trkpt>
      <trkpt lat="44.8545" lon="0.62921">
        <ele>69.4</ele>
        <time>2022-07-10T08:52:20Z</time>
      </trkpt>
      <trkpt lat="44.85448" lon="0.62927">
        <ele>69.1</ele>
        <time>2022-07-10T08:52:21Z</time>
      </trkpt>
      <trkpt lat="44.85445" lon="0.62931">
        <ele>69</ele>
        <time>2022-07-10T08:52:22Z</time>
      </trkpt>
      <trkpt lat="44.85442" lon="0.62931">
        <ele>68.9</ele>
        <time>2022-07-10T08:52:23Z</time>
      </trkpt>
      <trkpt lat="44.85434" lon="0.62928">
        <ele>68.5</ele>
        <time>2022-07-10T08:52:25Z</time>
      </trkpt>
      <trkpt lat="44.85424" lon="0.62924">
        <ele>68</ele>
        <time>2022-07-10T08:52:27Z</time>
      </trkpt>
      <trkpt lat="44.85413" lon="0.62919">
        <ele>67.4</ele>
        <time>2022-07-10T08:52:29Z</time>
      </trkpt>
      <trkpt lat="44.85408" lon="0.62915">
        <ele>67</ele>
        <time>2022-07-10T08:52:30Z</time>
      </trkpt>
      <trkpt lat="44.85402" lon="0.62911">
        <ele>66.7</ele>
        <time>2022-07-10T08:52:31Z</time>
      </trkpt>
      <trkpt lat="44.85397" lon="0.62906">
        <ele>66.3</ele>
        <time>2022-07-10T08:52:32Z</time>
      </trkpt>
      <trkpt lat="44.85391" lon="0.629">
        <ele>65.9</ele>
        <time>2022-07-10T08:52:33Z</time>
      </trkpt>
      <trkpt lat="44.85385" lon="0.62893">
        <ele>65.4</ele>
        <time>2022-07-10T08:52:34Z</time>
      </trkpt>
      <trkpt lat="44.8538" lon="0.62885">
        <ele>65</ele>
        <time>2022-07-10T08:52:35Z</time>
      </trkpt>
      <trkpt lat="44.85375" lon="0.62876">
        <ele>64.6</ele>
        <time>2022-07-10T08:52:36Z</time>
      </trkpt>
      <trkpt lat="44.85369" lon="0.62867">
        <ele>64.1</ele>
        <time>2022-07-10T08:52:37Z</time>
      </trkpt>
      <trkpt lat="44.85358" lon="0.6285">
        <ele>63.3</ele>
        <time>2022-07-10T08:52:39Z</time>
      </trkpt>
      <trkpt lat="44.85348" lon="0.62832">
        <ele>62.4</ele>
        <time>2022-07-10T08:52:41Z</time>
      </trkpt>
      <trkpt lat="44.85337" lon="0.62814">
        <ele>61.6</ele>
        <time>2022-07-10T08:52:43Z</time>
      </trkpt>
      <trkpt lat="44.85326" lon="0.62797">
        <ele>60.8</ele>
        <time>2022-07-10T08:52:45Z</time>
      </trkpt>
      <trkpt lat="44.85316" lon="0.6278">
        <ele>60.1</ele>
        <time>2022-07-10T08:52:47Z</time>
      </trkpt>
      <trkpt lat="44.85312" lon="0.62757">
        <ele>60</ele>
        <time>2022-07-10T08:52:49Z</time>
      </trkpt>
      <trkpt lat="44.85312" lon="0.62746">
        <ele>60</ele>
        <time>2022-07-10T08:52:50Z</time>
      </trkpt>
      <trkpt lat="44.85311" lon="0.62736">
        <ele>60</ele>
        <time>2022-07-10T08:52:51Z</time>
      </trkpt>
      <trkpt lat="44.85308" lon="0.62718">
        <ele>60.1</ele>
        <time>2022-07-10T08:52:53Z</time>
      </trkpt>
      <trkpt lat="44.85306" lon="0.62709">
        <ele>60.2</ele>
        <time>2022-07-10T08:52:54Z</time>
      </trkpt>
      <trkpt lat="44.85304" lon="0.62699">
        <ele>60.2</ele>
        <time>2022-07-10T08:52:55Z</time>
      </trkpt>
      <trkpt lat="44.85301" lon="0.62681">
        <ele>60.1</ele>
        <time>2022-07-10T08:52:57Z</time>
      </trkpt>
      <trkpt lat="44.85297" lon="0.62663">
        <ele>60.1</ele>
        <time>2022-07-10T08:52:59Z</time>
      </trkpt>
      <trkpt lat="44.85296" lon="0.62654">
        <ele>60.1</ele>
        <time>2022-07-10T08:53:00Z</time>
      </trkpt>
      <trkpt lat="44.85294" lon="0.62645">
        <ele>60.1</ele>
        <time>2022-07-10T08:53:01Z</time>
      </trkpt>
      <trkpt lat="44.85291" lon="0.62628">
        <ele>60.2</ele>
        <time>2022-07-10T08:53:03Z</time>
      </trkpt>
      <trkpt lat="44.85288" lon="0.6261">
        <ele>60.4</ele>
        <time>2022-07-10T08:53:05Z</time>
      </trkpt>
      <trkpt lat="44.85287" lon="0.62594">
        <ele>60.6</ele>
        <time>2022-07-10T08:53:07Z</time>
      </trkpt>
      <trkpt lat="44.85286" lon="0.62577">
        <ele>60.8</ele>
        <time>2022-07-10T08:53:09Z</time>
      </trkpt>
      <trkpt lat="44.85285" lon="0.62562">
        <ele>61.1</ele>
        <time>2022-07-10T08:53:11Z</time>
      </trkpt>
      <trkpt lat="44.85284" lon="0.62547">
        <ele>61.3</ele>
        <time>2022-07-10T08:53:13Z</time>
      </trkpt>
      <trkpt lat="44.85284" lon="0.62532">
        <ele>61.5</ele>
        <time>2022-07-10T08:53:15Z</time>
      </trkpt>
      <trkpt lat="44.85283" lon="0.62518">
        <ele>61.5</ele>
        <time>2022-07-10T08:53:17Z</time>
      </trkpt>
      <trkpt lat="44.85281" lon="0.62503">
        <ele>61.3</ele>
        <time>2022-07-10T08:53:19Z</time>
      </trkpt>
      <trkpt lat="44.85276" lon="0.62488">
        <ele>61</ele>
        <time>2022-07-10T08:53:21Z</time>
      </trkpt>
      <trkpt lat="44.85268" lon="0.62474">
        <ele>60.5</ele>
        <time>2022-07-10T08:53:23Z</time>
      </trkpt>
      <trkpt lat="44.8526" lon="0.62459">
        <ele>59.9</ele>
        <time>2022-07-10T08:53:25Z</time>
      </trkpt>
      <trkpt lat="44.85251" lon="0.62442">
        <ele>59.3</ele>
        <time>2022-07-10T08:53:27Z</time>
      </trkpt>
      <trkpt lat="44.85247" lon="0.62434">
        <ele>59</ele>
        <time>2022-07-10T08:53:28Z</time>
      </trkpt>
      <trkpt lat="44.85242" lon="0.62425">
        <ele>58.7</ele>
        <time>2022-07-10T08:53:29Z</time>
      </trkpt>
      <trkpt lat="44.85233" lon="0.62408">
        <ele>58.3</ele>
        <time>2022-07-10T08:53:31Z</time>
      </trkpt>
      <trkpt lat="44.85225" lon="0.62392">
        <ele>58</ele>
        <time>2022-07-10T08:53:33Z</time>
      </trkpt>
      <trkpt lat="44.85218" lon="0.62375">
        <ele>57.9</ele>
        <time>2022-07-10T08:53:35Z</time>
      </trkpt>
      <trkpt lat="44.85211" lon="0.62356">
        <ele>57.8</ele>
        <time>2022-07-10T08:53:37Z</time>
      </trkpt>
      <trkpt lat="44.85207" lon="0.62347">
        <ele>57.7</ele>
        <time>2022-07-10T08:53:38Z</time>
      </trkpt>
      <trkpt lat="44.85204" lon="0.62338">
        <ele>57.6</ele>
        <time>2022-07-10T08:53:39Z</time>
      </trkpt>
      <trkpt lat="44.85196" lon="0.62319">
        <ele>57.5</ele>
        <time>2022-07-10T08:53:41Z</time>
      </trkpt>
      <trkpt lat="44.85189" lon="0.62301">
        <ele>57.2</ele>
        <time>2022-07-10T08:53:43Z</time>
      </trkpt>
      <trkpt lat="44.85186" lon="0.62292">
        <ele>57.1</ele>
        <time>2022-07-10T08:53:44Z</time>
      </trkpt>
      <trkpt lat="44.85182" lon="0.62282">
        <ele>56.9</ele>
        <time>2022-07-10T08:53:45Z</time>
      </trkpt>
      <trkpt lat="44.85176" lon="0.62263">
        <ele>56.7</ele>
        <time>2022-07-10T08:53:47Z</time>
      </trkpt>
      <trkpt lat="44.85169" lon="0.62245">
        <ele>56.4</ele>
        <time>2022-07-10T08:53:49Z</time>
      </trkpt>
      <trkpt lat="44.85163" lon="0.62226">
        <ele>56.2</ele>
        <time>2022-07-10T08:53:51Z</time>
      </trkpt>
      <trkpt lat="44.8516" lon="0.62217">
        <ele>56.1</ele>
        <time>2022-07-10T08:53:52Z</time>
      </trkpt>
      <trkpt lat="44.85156" lon="0.62207">
        <ele>56.1</ele>
        <time>2022-07-10T08:53:53Z</time>
      </trkpt>
      <trkpt lat="44.8515" lon="0.62189">
        <ele>56</ele>
        <time>2022-07-10T08:53:55Z</time>
      </trkpt>
      <trkpt lat="44.85148" lon="0.6218">
        <ele>55.9</ele>
        <time>2022-07-10T08:53:56Z</time>
      </trkpt>
      <trkpt lat="44.85146" lon="0.62171">
        <ele>55.7</ele>
        <time>2022-07-10T08:53:57Z</time>
      </trkpt>
      <trkpt lat="44.85142" lon="0.62154">
        <ele>55.4</ele>
        <time>2022-07-10T08:53:59Z</time>
      </trkpt>
      <trkpt lat="44.85138" lon="0.62137">
        <ele>55.1</ele>
        <time>2022-07-10T08:54:01Z</time>
      </trkpt>
      <trkpt lat="44.85134" lon="0.6212">
        <ele>54.9</ele>
        <time>2022-07-10T08:54:03Z</time>
      </trkpt>
      <trkpt lat="44.8513" lon="0.62103">
        <ele>54.5</ele>
        <time>2022-07-10T08:54:05Z</time>
      </trkpt>
      <trkpt lat="44.85127" lon="0.62086">
        <ele>54.1</ele>
        <time>2022-07-10T08:54:07Z</time>
      </trkpt>
      <trkpt lat="44.85125" lon="0.62078">
        <ele>54</ele>
        <time>2022-07-10T08:54:08Z</time>
      </trkpt>
      <trkpt lat="44.85124" lon="0.62068">
        <ele>53.8</ele>
        <time>2022-07-10T08:54:09Z</time>
      </trkpt>
      <trkpt lat="44.85121" lon="0.6205">
        <ele>53.3</ele>
        <time>2022-07-10T08:54:11Z</time>
      </trkpt>
      <trkpt lat="44.85118" lon="0.62031">
        <ele>52.6</ele>
        <time>2022-07-10T08:54:13Z</time>
      </trkpt>
      <trkpt lat="44.85115" lon="0.62011">
        <ele>51.9</ele>
        <time>2022-07-10T08:54:15Z</time>
      </trkpt>
      <trkpt lat="44.85113" lon="0.62">
        <ele>51.4</ele>
        <time>2022-07-10T08:54:16Z</time>
      </trkpt>
      <trkpt lat="44.85113" lon="0.61989">
        <ele>50.9</ele>
        <time>2022-07-10T08:54:17Z</time>
      </trkpt>
      <trkpt lat="44.85115" lon="0.61967">
        <ele>50</ele>
        <time>2022-07-10T08:54:19Z</time>
      </trkpt>
      <trkpt lat="44.85117" lon="0.61955">
        <ele>49.5</ele>
        <time>2022-07-10T08:54:20Z</time>
      </trkpt>
      <trkpt lat="44.85119" lon="0.61944">
        <ele>49</ele>
        <time>2022-07-10T08:54:21Z</time>
      </trkpt>
      <trkpt lat="44.85124" lon="0.61922">
        <ele>48.1</ele>
        <time>2022-07-10T08:54:23Z</time>
      </trkpt>
      <trkpt lat="44.85129" lon="0.619">
        <ele>47.3</ele>
        <time>2022-07-10T08:54:25Z</time>
      </trkpt>
      <trkpt lat="44.85133" lon="0.61878">
        <ele>46.5</ele>
        <time>2022-07-10T08:54:27Z</time>
      </trkpt>
      <trkpt lat="44.85135" lon="0.61867">
        <ele>46.1</ele>
        <time>2022-07-10T08:54:28Z</time>
      </trkpt>
      <trkpt lat="44.85138" lon="0.61857">
        <ele>45.7</ele>
        <time>2022-07-10T08:54:29Z</time>
      </trkpt>
      <trkpt lat="44.85141" lon="0.6184">
        <ele>45.1</ele>
        <time>2022-07-10T08:54:31Z</time>
      </trkpt>
      <trkpt lat="44.85142" lon="0.61819">
        <ele>44.5</ele>
        <time>2022-07-10T08:54:33Z</time>
      </trkpt>
      <trkpt lat="44.85145" lon="0.61811">
        <ele>44.6</ele>
        <time>2022-07-10T08:54:34Z</time>
      </trkpt>
      <trkpt lat="44.85148" lon="0.61803">
        <ele>44.7</ele>
        <time>2022-07-10T08:54:35Z</time>
      </trkpt>
      <trkpt lat="44.8515" lon="0.61794">
        <ele>44.8</ele>
        <time>2022-07-10T08:54:36Z</time>
      </trkpt>
      <trkpt lat="44.85152" lon="0.61784">
        <ele>45</ele>
        <time>2022-07-10T08:54:37Z</time>
      </trkpt>
      <trkpt lat="44.85156" lon="0.61778">
        <ele>45.1</ele>
        <time>2022-07-10T08:54:38Z</time>
      </trkpt>
      <trkpt lat="44.85158" lon="0.61775">
        <ele>45.2</ele>
        <time>2022-07-10T08:54:39Z</time>
      </trkpt>
      <trkpt lat="44.85156" lon="0.61746">
        <ele>44.6</ele>
        <time>2022-07-10T08:54:41Z</time>
      </trkpt>
      <trkpt lat="44.8516" lon="0.61725">
        <ele>44.3</ele>
        <time>2022-07-10T08:54:43Z</time>
      </trkpt>
      <trkpt lat="44.85165" lon="0.61706">
        <ele>44.1</ele>
        <time>2022-07-10T08:54:45Z</time>
      </trkpt>
      <trkpt lat="44.8517" lon="0.61688">
        <ele>43.8</ele>
        <time>2022-07-10T08:54:47Z</time>
      </trkpt>
      <trkpt lat="44.85175" lon="0.6167">
        <ele>43.6</ele>
        <time>2022-07-10T08:54:49Z</time>
      </trkpt>
      <trkpt lat="44.8518" lon="0.61653">
        <ele>43.6</ele>
        <time>2022-07-10T08:54:51Z</time>
      </trkpt>
      <trkpt lat="44.85185" lon="0.61636">
        <ele>43.5</ele>
        <time>2022-07-10T08:54:53Z</time>
      </trkpt>
      <trkpt lat="44.85187" lon="0.61627">
        <ele>43.5</ele>
        <time>2022-07-10T08:54:54Z</time>
      </trkpt>
      <trkpt lat="44.85189" lon="0.61619">
        <ele>43.5</ele>
        <time>2022-07-10T08:54:55Z</time>
      </trkpt>
      <trkpt lat="44.85194" lon="0.61602">
        <ele>43.5</ele>
        <time>2022-07-10T08:54:57Z</time>
      </trkpt>
      <trkpt lat="44.85198" lon="0.61586">
        <ele>43.5</ele>
        <time>2022-07-10T08:54:59Z</time>
      </trkpt>
      <trkpt lat="44.85203" lon="0.6157">
        <ele>43.4</ele>
        <time>2022-07-10T08:55:01Z</time>
      </trkpt>
      <trkpt lat="44.85207" lon="0.61554">
        <ele>43.3</ele>
        <time>2022-07-10T08:55:03Z</time>
      </trkpt>
      <trkpt lat="44.85209" lon="0.61546">
        <ele>43.3</ele>
        <time>2022-07-10T08:55:04Z</time>
      </trkpt>
      <trkpt lat="44.85211" lon="0.61539">
        <ele>43.3</ele>
        <time>2022-07-10T08:55:05Z</time>
      </trkpt>
      <trkpt lat="44.85215" lon="0.61524">
        <ele>43.3</ele>
        <time>2022-07-10T08:55:07Z</time>
      </trkpt>
      <trkpt lat="44.8522" lon="0.61508">
        <ele>43.4</ele>
        <time>2022-07-10T08:55:09Z</time>
      </trkpt>
      <trkpt lat="44.85224" lon="0.61493">
        <ele>43.4</ele>
        <time>2022-07-10T08:55:11Z</time>
      </trkpt>
      <trkpt lat="44.85227" lon="0.61479">
        <ele>43.4</ele>
        <time>2022-07-10T08:55:13Z</time>
      </trkpt>
      <trkpt lat="44.85231" lon="0.61465">
        <ele>43.3</ele>
        <time>2022-07-10T08:55:15Z</time>
      </trkpt>
      <trkpt lat="44.85233" lon="0.61459">
        <ele>43.3</ele>
        <time>2022-07-10T08:55:16Z</time>
      </trkpt>
      <trkpt lat="44.85235" lon="0.61452">
        <ele>43.3</ele>
        <time>2022-07-10T08:55:17Z</time>
      </trkpt>
      <trkpt lat="44.85239" lon="0.61438">
        <ele>43.2</ele>
        <time>2022-07-10T08:55:19Z</time>
      </trkpt>
      <trkpt lat="44.85243" lon="0.61423">
        <ele>43.2</ele>
        <time>2022-07-10T08:55:21Z</time>
      </trkpt>
      <trkpt lat="44.85245" lon="0.61415">
        <ele>43.2</ele>
        <time>2022-07-10T08:55:22Z</time>
      </trkpt>
      <trkpt lat="44.85247" lon="0.61408">
        <ele>43.2</ele>
        <time>2022-07-10T08:55:23Z</time>
      </trkpt>
      <trkpt lat="44.85251" lon="0.61394">
        <ele>43</ele>
        <time>2022-07-10T08:55:25Z</time>
      </trkpt>
      <trkpt lat="44.85254" lon="0.61381">
        <ele>42.9</ele>
        <time>2022-07-10T08:55:27Z</time>
      </trkpt>
      <trkpt lat="44.85256" lon="0.61374">
        <ele>42.9</ele>
        <time>2022-07-10T08:55:28Z</time>
      </trkpt>
      <trkpt lat="44.85258" lon="0.61368">
        <ele>42.9</ele>
        <time>2022-07-10T08:55:29Z</time>
      </trkpt>
      <trkpt lat="44.85261" lon="0.61356">
        <ele>42.9</ele>
        <time>2022-07-10T08:55:31Z</time>
      </trkpt>
      <trkpt lat="44.85265" lon="0.61344">
        <ele>42.8</ele>
        <time>2022-07-10T08:55:33Z</time>
      </trkpt>
      <trkpt lat="44.85266" lon="0.61338">
        <ele>42.8</ele>
        <time>2022-07-10T08:55:34Z</time>
      </trkpt>
      <trkpt lat="44.85267" lon="0.61334">
        <ele>42.8</ele>
        <time>2022-07-10T08:55:35Z</time>
      </trkpt>
      <trkpt lat="44.85269" lon="0.61329">
        <ele>42.8</ele>
        <time>2022-07-10T08:55:36Z</time>
      </trkpt>
      <trkpt lat="44.8527" lon="0.61323">
        <ele>42.7</ele>
        <time>2022-07-10T08:55:37Z</time>
      </trkpt>
      <trkpt lat="44.85272" lon="0.61316">
        <ele>42.7</ele>
        <time>2022-07-10T08:55:38Z</time>
      </trkpt>
      <trkpt lat="44.85274" lon="0.61309">
        <ele>42.6</ele>
        <time>2022-07-10T08:55:39Z</time>
      </trkpt>
      <trkpt lat="44.85276" lon="0.61303">
        <ele>42.5</ele>
        <time>2022-07-10T08:55:40Z</time>
      </trkpt>
      <trkpt lat="44.85278" lon="0.61296">
        <ele>42.4</ele>
        <time>2022-07-10T08:55:41Z</time>
      </trkpt>
      <trkpt lat="44.85281" lon="0.61283">
        <ele>42.3</ele>
        <time>2022-07-10T08:55:43Z</time>
      </trkpt>
      <trkpt lat="44.85283" lon="0.61276">
        <ele>42.2</ele>
        <time>2022-07-10T08:55:44Z</time>
      </trkpt>
      <trkpt lat="44.85285" lon="0.61268">
        <ele>42.2</ele>
        <time>2022-07-10T08:55:45Z</time>
      </trkpt>
      <trkpt lat="44.85289" lon="0.61255">
        <ele>42.1</ele>
        <time>2022-07-10T08:55:47Z</time>
      </trkpt>
      <trkpt lat="44.85292" lon="0.61242">
        <ele>42.1</ele>
        <time>2022-07-10T08:55:49Z</time>
      </trkpt>
      <trkpt lat="44.85296" lon="0.6123">
        <ele>42.1</ele>
        <time>2022-07-10T08:55:51Z</time>
      </trkpt>
      <trkpt lat="44.85299" lon="0.61217">
        <ele>42.2</ele>
        <time>2022-07-10T08:55:53Z</time>
      </trkpt>
      <trkpt lat="44.85301" lon="0.6121">
        <ele>42.2</ele>
        <time>2022-07-10T08:55:54Z</time>
      </trkpt>
      <trkpt lat="44.85302" lon="0.61203">
        <ele>42.2</ele>
        <time>2022-07-10T08:55:55Z</time>
      </trkpt>
      <trkpt lat="44.85306" lon="0.6119">
        <ele>42.2</ele>
        <time>2022-07-10T08:55:57Z</time>
      </trkpt>
      <trkpt lat="44.85309" lon="0.61177">
        <ele>42.2</ele>
        <time>2022-07-10T08:55:59Z</time>
      </trkpt>
      <trkpt lat="44.85312" lon="0.61163">
        <ele>42.1</ele>
        <time>2022-07-10T08:56:01Z</time>
      </trkpt>
      <trkpt lat="44.85316" lon="0.61149">
        <ele>42</ele>
        <time>2022-07-10T08:56:03Z</time>
      </trkpt>
      <trkpt lat="44.8532" lon="0.61135">
        <ele>41.9</ele>
        <time>2022-07-10T08:56:05Z</time>
      </trkpt>
      <trkpt lat="44.85324" lon="0.61122">
        <ele>41.7</ele>
        <time>2022-07-10T08:56:07Z</time>
      </trkpt>
      <trkpt lat="44.85327" lon="0.61108">
        <ele>41.7</ele>
        <time>2022-07-10T08:56:09Z</time>
      </trkpt>
      <trkpt lat="44.85331" lon="0.61093">
        <ele>41.7</ele>
        <time>2022-07-10T08:56:11Z</time>
      </trkpt>
      <trkpt lat="44.85335" lon="0.61078">
        <ele>41.7</ele>
        <time>2022-07-10T08:56:13Z</time>
      </trkpt>
      <trkpt lat="44.85338" lon="0.61063">
        <ele>41.7</ele>
        <time>2022-07-10T08:56:15Z</time>
      </trkpt>
      <trkpt lat="44.85342" lon="0.61049">
        <ele>41.7</ele>
        <time>2022-07-10T08:56:17Z</time>
      </trkpt>
      <trkpt lat="44.85345" lon="0.61036">
        <ele>41.7</ele>
        <time>2022-07-10T08:56:19Z</time>
      </trkpt>
      <trkpt lat="44.85348" lon="0.61023">
        <ele>41.8</ele>
        <time>2022-07-10T08:56:21Z</time>
      </trkpt>
      <trkpt lat="44.85351" lon="0.6101">
        <ele>41.8</ele>
        <time>2022-07-10T08:56:23Z</time>
      </trkpt>
      <trkpt lat="44.85353" lon="0.61004">
        <ele>41.9</ele>
        <time>2022-07-10T08:56:24Z</time>
      </trkpt>
      <trkpt lat="44.85354" lon="0.60998">
        <ele>41.9</ele>
        <time>2022-07-10T08:56:25Z</time>
      </trkpt>
      <trkpt lat="44.85357" lon="0.60987">
        <ele>42</ele>
        <time>2022-07-10T08:56:27Z</time>
      </trkpt>
      <trkpt lat="44.85359" lon="0.60976">
        <ele>42.2</ele>
        <time>2022-07-10T08:56:29Z</time>
      </trkpt>
      <trkpt lat="44.85362" lon="0.60966">
        <ele>42.4</ele>
        <time>2022-07-10T08:56:31Z</time>
      </trkpt>
      <trkpt lat="44.85363" lon="0.60961">
        <ele>42.5</ele>
        <time>2022-07-10T08:56:32Z</time>
      </trkpt>
      <trkpt lat="44.85364" lon="0.60956">
        <ele>42.5</ele>
        <time>2022-07-10T08:56:33Z</time>
      </trkpt>
      <trkpt lat="44.85366" lon="0.60947">
        <ele>42.7</ele>
        <time>2022-07-10T08:56:35Z</time>
      </trkpt>
      <trkpt lat="44.85368" lon="0.60938">
        <ele>42.7</ele>
        <time>2022-07-10T08:56:37Z</time>
      </trkpt>
      <trkpt lat="44.85371" lon="0.60925">
        <ele>42.8</ele>
        <time>2022-07-10T08:56:39Z</time>
      </trkpt>
      <trkpt lat="44.85372" lon="0.60918">
        <ele>42.8</ele>
        <time>2022-07-10T08:56:40Z</time>
      </trkpt>
      <trkpt lat="44.85369" lon="0.60899">
        <ele>42.8</ele>
        <time>2022-07-10T08:56:41Z</time>
      </trkpt>
      <trkpt lat="44.85358" lon="0.60898">
        <ele>42.1</ele>
        <time>2022-07-10T08:56:43Z</time>
      </trkpt>
      <trkpt lat="44.85353" lon="0.60897">
        <ele>41.8</ele>
        <time>2022-07-10T08:56:44Z</time>
      </trkpt>
      <trkpt lat="44.85347" lon="0.60898">
        <ele>41.5</ele>
        <time>2022-07-10T08:56:45Z</time>
      </trkpt>
      <trkpt lat="44.85343" lon="0.609">
        <ele>41.3</ele>
        <time>2022-07-10T08:56:46Z</time>
      </trkpt>
      <trkpt lat="44.85339" lon="0.60901">
        <ele>41.1</ele>
        <time>2022-07-10T08:56:47Z</time>
      </trkpt>
      <trkpt lat="44.8533" lon="0.60903">
        <ele>40.8</ele>
        <time>2022-07-10T08:56:49Z</time>
      </trkpt>
      <trkpt lat="44.8532" lon="0.60906">
        <ele>40.4</ele>
        <time>2022-07-10T08:56:51Z</time>
      </trkpt>
      <trkpt lat="44.85315" lon="0.60907">
        <ele>40.2</ele>
        <time>2022-07-10T08:56:52Z</time>
      </trkpt>
      <trkpt lat="44.8531" lon="0.60908">
        <ele>40</ele>
        <time>2022-07-10T08:56:53Z</time>
      </trkpt>
      <trkpt lat="44.853" lon="0.6091">
        <ele>39.7</ele>
        <time>2022-07-10T08:56:55Z</time>
      </trkpt>
      <trkpt lat="44.85291" lon="0.60912">
        <ele>39.3</ele>
        <time>2022-07-10T08:56:57Z</time>
      </trkpt>
      <trkpt lat="44.85289" lon="0.60912">
        <ele>39.3</ele>
        <time>2022-07-10T08:56:58Z</time>
      </trkpt>
      <trkpt lat="44.85289" lon="0.60912">
        <ele>39.3</ele>
        <time>2022-07-10T08:56:59Z</time>
      </trkpt>
      <trkpt lat="44.85286" lon="0.60925">
        <ele>39.3</ele>
        <time>2022-07-10T08:57:01Z</time>
      </trkpt>
      <trkpt lat="44.85285" lon="0.60936">
        <ele>39.3</ele>
        <time>2022-07-10T08:57:03Z</time>
      </trkpt>
      <trkpt lat="44.85283" lon="0.60948">
        <ele>39.3</ele>
        <time>2022-07-10T08:57:05Z</time>
      </trkpt>
      <trkpt lat="44.85281" lon="0.6096">
        <ele>39.2</ele>
        <time>2022-07-10T08:57:07Z</time>
      </trkpt>
      <trkpt lat="44.8528" lon="0.60966">
        <ele>39.3</ele>
        <time>2022-07-10T08:57:08Z</time>
      </trkpt>
      <trkpt lat="44.85267" lon="0.60968">
        <ele>39.3</ele>
        <time>2022-07-10T08:57:09Z</time>
      </trkpt>
      <trkpt lat="44.85242" lon="0.60973">
        <ele>39.1</ele>
        <time>2022-07-10T08:57:11Z</time>
      </trkpt>
      <trkpt lat="44.85239" lon="0.60978">
        <ele>39.5</ele>
        <time>2022-07-10T08:57:12Z</time>
      </trkpt>
      <trkpt lat="44.85236" lon="0.60984">
        <ele>39.6</ele>
        <time>2022-07-10T08:57:13Z</time>
      </trkpt>
      <trkpt lat="44.85233" lon="0.60988">
        <ele>39.5</ele>
        <time>2022-07-10T08:57:14Z</time>
      </trkpt>
      <trkpt lat="44.8523" lon="0.60991">
        <ele>39.6</ele>
        <time>2022-07-10T08:57:15Z</time>
      </trkpt>
      <trkpt lat="44.85226" lon="0.60993">
        <ele>39.8</ele>
        <time>2022-07-10T08:57:16Z</time>
      </trkpt>
      <trkpt lat="44.85221" lon="0.60994">
        <ele>39.7</ele>
        <time>2022-07-10T08:57:17Z</time>
      </trkpt>
      <trkpt lat="44.85213" lon="0.60996">
        <ele>39.8</ele>
        <time>2022-07-10T08:57:19Z</time>
      </trkpt>
      <trkpt lat="44.85204" lon="0.60998">
        <ele>39.6</ele>
        <time>2022-07-10T08:57:21Z</time>
      </trkpt>
      <trkpt lat="44.852" lon="0.61">
        <ele>39.7</ele>
        <time>2022-07-10T08:57:22Z</time>
      </trkpt>
      <trkpt lat="44.85196" lon="0.61002">
        <ele>39.3</ele>
        <time>2022-07-10T08:57:23Z</time>
      </trkpt>
      <trkpt lat="44.85187" lon="0.61006">
        <ele>39.4</ele>
        <time>2022-07-10T08:57:25Z</time>
      </trkpt>
      <trkpt lat="44.85177" lon="0.61009">
        <ele>39</ele>
        <time>2022-07-10T08:57:27Z</time>
      </trkpt>
      <trkpt lat="44.85175" lon="0.6102">
        <ele>38.9</ele>
        <time>2022-07-10T08:57:29Z</time>
      </trkpt>
      <trkpt lat="44.85174" lon="0.61027">
        <ele>38.9</ele>
        <time>2022-07-10T08:57:30Z</time>
      </trkpt>
      <trkpt lat="44.85174" lon="0.61033">
        <ele>38.9</ele>
        <time>2022-07-10T08:57:31Z</time>
      </trkpt>
      <trkpt lat="44.85172" lon="0.61044">
        <ele>38.8</ele>
        <time>2022-07-10T08:57:33Z</time>
      </trkpt>
      <trkpt lat="44.8517" lon="0.61054">
        <ele>38.8</ele>
        <time>2022-07-10T08:57:35Z</time>
      </trkpt>
      <trkpt lat="44.85167" lon="0.61065">
        <ele>38.8</ele>
        <time>2022-07-10T08:57:37Z</time>
      </trkpt>
      <trkpt lat="44.85165" lon="0.61076">
        <ele>38.8</ele>
        <time>2022-07-10T08:57:39Z</time>
      </trkpt>
      <trkpt lat="44.85163" lon="0.61088">
        <ele>38.7</ele>
        <time>2022-07-10T08:57:41Z</time>
      </trkpt>
      <trkpt lat="44.8516" lon="0.611">
        <ele>38.5</ele>
        <time>2022-07-10T08:57:43Z</time>
      </trkpt>
      <trkpt lat="44.85158" lon="0.61112">
        <ele>38.4</ele>
        <time>2022-07-10T08:57:45Z</time>
      </trkpt>
      <trkpt lat="44.85155" lon="0.61122">
        <ele>38.3</ele>
        <time>2022-07-10T08:57:47Z</time>
      </trkpt>
      <trkpt lat="44.85155" lon="0.61125">
        <ele>38.3</ele>
        <time>2022-07-10T08:57:48Z</time>
      </trkpt>
      <trkpt lat="44.85143" lon="0.61122">
        <ele>38.5</ele>
        <time>2022-07-10T08:57:49Z</time>
      </trkpt>
      <trkpt lat="44.85146" lon="0.61125">
        <ele>38.5</ele>
        <time>2022-07-10T08:57:51Z</time>
      </trkpt>
      <trkpt lat="44.8515" lon="0.61129">
        <ele>38.6</ele>
        <time>2022-07-10T08:57:53Z</time>
      </trkpt>
      <trkpt lat="44.85153" lon="0.61132">
        <ele>38.6</ele>
        <time>2022-07-10T08:57:54Z</time>
      </trkpt>
      <trkpt lat="44.85152" lon="0.61135">
        <ele>38.7</ele>
        <time>2022-07-10T08:57:55Z</time>
      </trkpt>
      <trkpt lat="44.85152" lon="0.6114">
        <ele>38.7</ele>
        <time>2022-07-10T08:57:57Z</time>
      </trkpt>
      <trkpt lat="44.8515" lon="0.61146">
        <ele>38.7</ele>
        <time>2022-07-10T08:57:59Z</time>
      </trkpt>
      <trkpt lat="44.85149" lon="0.61152">
        <ele>38.8</ele>
        <time>2022-07-10T08:58:01Z</time>
      </trkpt>
      <trkpt lat="44.85148" lon="0.61157">
        <ele>38.8</ele>
        <time>2022-07-10T08:58:03Z</time>
      </trkpt>
      <trkpt lat="44.85147" lon="0.61162">
        <ele>38.8</ele>
        <time>2022-07-10T08:58:05Z</time>
      </trkpt>
      <trkpt lat="44.85146" lon="0.61166">
        <ele>38.8</ele>
        <time>2022-07-10T08:58:07Z</time>
      </trkpt>
      <trkpt lat="44.85145" lon="0.61172">
        <ele>38.8</ele>
        <time>2022-07-10T08:58:09Z</time>
      </trkpt>
      <trkpt lat="44.85144" lon="0.61177">
        <ele>38.8</ele>
        <time>2022-07-10T08:58:11Z</time>
      </trkpt>
      <trkpt lat="44.85143" lon="0.6118">
        <ele>38.8</ele>
        <time>2022-07-10T08:58:12Z</time>
      </trkpt>
      <trkpt lat="44.85143" lon="0.61182">
        <ele>38.8</ele>
        <time>2022-07-10T08:58:13Z</time>
      </trkpt>
      <trkpt lat="44.85142" lon="0.61188">
        <ele>38.8</ele>
        <time>2022-07-10T08:58:15Z</time>
      </trkpt>
      <trkpt lat="44.8514" lon="0.61188">
        <ele>38.8</ele>
        <time>2022-07-10T08:58:17Z</time>
      </trkpt>
      <trkpt lat="44.85139" lon="0.61188">
        <ele>38.8</ele>
        <time>2022-07-10T08:58:19Z</time>
      </trkpt>
    </trkseg>
  </trk>
</gpx>